<?xml version="1.0" encoding="UTF-8" standalone="no" ?>
<gpx xmlns="http://www.topografix.com/GPX/1/1" xmlns:xsi="http://www.w3.org/2001/XMLSchema-instance" xsi:schemaLocation="http://www.topografix.com/GPX/1/1 http://www.topografix.com/GPX/1/1/gpx.xsd" version="1.1" creator="VisuGPX - https://www.visugpx.com">
  <metadata>
    <name>Ballade entre chauray et st gelais 79</name>
    <desc><![CDATA[Ballade entre chauray et st gelais 79]]></desc>
  </metadata>
  <trk>
    <name><![CDATA[Chauray St. gelais]]></name>
    <trkseg>
      <trkpt lat="46.37016" lon="-0.35599">
        <ele>49.6434</ele>
        <time>2011-06-02T12:13:53Z</time>
      </trkpt>
      <trkpt lat="46.37016" lon="-0.35599">
        <ele>49.5747</ele>
        <time>2011-06-02T12:13:54Z</time>
      </trkpt>
      <trkpt lat="46.37015" lon="-0.35598">
        <ele>49.4999</ele>
        <time>2011-06-02T12:13:55Z</time>
      </trkpt>
      <trkpt lat="46.37014" lon="-0.35596">
        <ele>49.4294</ele>
        <time>2011-06-02T12:13:56Z</time>
      </trkpt>
      <trkpt lat="46.37014" lon="-0.35595">
        <ele>49.3598</ele>
        <time>2011-06-02T12:13:57Z</time>
      </trkpt>
      <trkpt lat="46.37013" lon="-0.35594">
        <ele>49.2745</ele>
        <time>2011-06-02T12:13:58Z</time>
      </trkpt>
      <trkpt lat="46.37012" lon="-0.35594">
        <ele>49.1763</ele>
        <time>2011-06-02T12:13:59Z</time>
      </trkpt>
      <trkpt lat="46.37011" lon="-0.35595">
        <ele>49.0707</ele>
        <time>2011-06-02T12:14:00Z</time>
      </trkpt>
      <trkpt lat="46.37011" lon="-0.35595">
        <ele>48.961</ele>
        <time>2011-06-02T12:14:01Z</time>
      </trkpt>
      <trkpt lat="46.3701" lon="-0.35595">
        <ele>48.8512</ele>
        <time>2011-06-02T12:14:02Z</time>
      </trkpt>
      <trkpt lat="46.37009" lon="-0.35596">
        <ele>48.7398</ele>
        <time>2011-06-02T12:14:03Z</time>
      </trkpt>
      <trkpt lat="46.37009" lon="-0.35597">
        <ele>48.6358</ele>
        <time>2011-06-02T12:14:04Z</time>
      </trkpt>
      <trkpt lat="46.37008" lon="-0.35597">
        <ele>48.5437</ele>
        <time>2011-06-02T12:14:05Z</time>
      </trkpt>
      <trkpt lat="46.37008" lon="-0.35597">
        <ele>48.4594</ele>
        <time>2011-06-02T12:14:06Z</time>
      </trkpt>
      <trkpt lat="46.37007" lon="-0.35598">
        <ele>48.3765</ele>
        <time>2011-06-02T12:14:07Z</time>
      </trkpt>
      <trkpt lat="46.37007" lon="-0.35599">
        <ele>48.2882</ele>
        <time>2011-06-02T12:14:08Z</time>
      </trkpt>
      <trkpt lat="46.37006" lon="-0.356">
        <ele>48.2092</ele>
        <time>2011-06-02T12:14:09Z</time>
      </trkpt>
      <trkpt lat="46.37006" lon="-0.35601">
        <ele>48.1316</ele>
        <time>2011-06-02T12:14:10Z</time>
      </trkpt>
      <trkpt lat="46.37005" lon="-0.35601">
        <ele>48.0552</ele>
        <time>2011-06-02T12:14:11Z</time>
      </trkpt>
      <trkpt lat="46.37005" lon="-0.35602">
        <ele>48.0552</ele>
        <time>2011-06-02T12:14:12Z</time>
      </trkpt>
      <trkpt lat="46.37004" lon="-0.35603">
        <ele>47.9834</ele>
        <time>2011-06-02T12:14:13Z</time>
      </trkpt>
      <trkpt lat="46.37003" lon="-0.35604">
        <ele>47.908</ele>
        <time>2011-06-02T12:14:14Z</time>
      </trkpt>
      <trkpt lat="46.37003" lon="-0.35605">
        <ele>47.8311</ele>
        <time>2011-06-02T12:14:15Z</time>
      </trkpt>
      <trkpt lat="46.37002" lon="-0.35605">
        <ele>47.7575</ele>
        <time>2011-06-02T12:14:16Z</time>
      </trkpt>
      <trkpt lat="46.37001" lon="-0.35606">
        <ele>47.6824</ele>
        <time>2011-06-02T12:14:17Z</time>
      </trkpt>
      <trkpt lat="46.37001" lon="-0.35607">
        <ele>47.604</ele>
        <time>2011-06-02T12:14:18Z</time>
      </trkpt>
      <trkpt lat="46.37" lon="-0.35608">
        <ele>47.5256</ele>
        <time>2011-06-02T12:14:19Z</time>
      </trkpt>
      <trkpt lat="46.36999" lon="-0.35609">
        <ele>47.4433</ele>
        <time>2011-06-02T12:14:20Z</time>
      </trkpt>
      <trkpt lat="46.36998" lon="-0.35609">
        <ele>47.365</ele>
        <time>2011-06-02T12:14:21Z</time>
      </trkpt>
      <trkpt lat="46.36998" lon="-0.35609">
        <ele>47.294</ele>
        <time>2011-06-02T12:14:22Z</time>
      </trkpt>
      <trkpt lat="46.36997" lon="-0.35611">
        <ele>47.2273</ele>
        <time>2011-06-02T12:14:23Z</time>
      </trkpt>
      <trkpt lat="46.36997" lon="-0.35611">
        <ele>47.1672</ele>
        <time>2011-06-02T12:14:24Z</time>
      </trkpt>
      <trkpt lat="46.36996" lon="-0.35612">
        <ele>47.1123</ele>
        <time>2011-06-02T12:14:25Z</time>
      </trkpt>
      <trkpt lat="46.36995" lon="-0.35612">
        <ele>47.0574</ele>
        <time>2011-06-02T12:14:26Z</time>
      </trkpt>
      <trkpt lat="46.36995" lon="-0.35613">
        <ele>46.9988</ele>
        <time>2011-06-02T12:14:27Z</time>
      </trkpt>
      <trkpt lat="46.36995" lon="-0.35613">
        <ele>46.9453</ele>
        <time>2011-06-02T12:14:28Z</time>
      </trkpt>
      <trkpt lat="46.36994" lon="-0.35613">
        <ele>46.8875</ele>
        <time>2011-06-02T12:14:29Z</time>
      </trkpt>
      <trkpt lat="46.36994" lon="-0.35614">
        <ele>46.824</ele>
        <time>2011-06-02T12:14:30Z</time>
      </trkpt>
      <trkpt lat="46.36993" lon="-0.35615">
        <ele>46.7524</ele>
        <time>2011-06-02T12:14:33Z</time>
      </trkpt>
      <trkpt lat="46.36992" lon="-0.35616">
        <ele>46.692</ele>
        <time>2011-06-02T12:14:34Z</time>
      </trkpt>
      <trkpt lat="46.36991" lon="-0.35617">
        <ele>46.6311</ele>
        <time>2011-06-02T12:14:35Z</time>
      </trkpt>
      <trkpt lat="46.3699" lon="-0.35618">
        <ele>46.5712</ele>
        <time>2011-06-02T12:14:36Z</time>
      </trkpt>
      <trkpt lat="46.36989" lon="-0.35619">
        <ele>46.5147</ele>
        <time>2011-06-02T12:14:37Z</time>
      </trkpt>
      <trkpt lat="46.36988" lon="-0.3562">
        <ele>46.4637</ele>
        <time>2011-06-02T12:14:38Z</time>
      </trkpt>
      <trkpt lat="46.36987" lon="-0.3562">
        <ele>46.4088</ele>
        <time>2011-06-02T12:14:39Z</time>
      </trkpt>
      <trkpt lat="46.36986" lon="-0.35621">
        <ele>46.4088</ele>
        <time>2011-06-02T12:14:40Z</time>
      </trkpt>
      <trkpt lat="46.36986" lon="-0.35621">
        <ele>46.3529</ele>
        <time>2011-06-02T12:14:41Z</time>
      </trkpt>
      <trkpt lat="46.36985" lon="-0.35622">
        <ele>46.2906</ele>
        <time>2011-06-02T12:14:42Z</time>
      </trkpt>
      <trkpt lat="46.36984" lon="-0.35622">
        <ele>46.2172</ele>
        <time>2011-06-02T12:14:43Z</time>
      </trkpt>
      <trkpt lat="46.36983" lon="-0.35623">
        <ele>46.1468</ele>
        <time>2011-06-02T12:14:44Z</time>
      </trkpt>
      <trkpt lat="46.36982" lon="-0.35623">
        <ele>46.0769</ele>
        <time>2011-06-02T12:14:45Z</time>
      </trkpt>
      <trkpt lat="46.36981" lon="-0.35624">
        <ele>46.0018</ele>
        <time>2011-06-02T12:14:46Z</time>
      </trkpt>
      <trkpt lat="46.3698" lon="-0.35625">
        <ele>45.9223</ele>
        <time>2011-06-02T12:14:47Z</time>
      </trkpt>
      <trkpt lat="46.36979" lon="-0.35626">
        <ele>45.8457</ele>
        <time>2011-06-02T12:14:48Z</time>
      </trkpt>
      <trkpt lat="46.36979" lon="-0.35627">
        <ele>45.7711</ele>
        <time>2011-06-02T12:14:49Z</time>
      </trkpt>
      <trkpt lat="46.36978" lon="-0.35629">
        <ele>45.7002</ele>
        <time>2011-06-02T12:14:50Z</time>
      </trkpt>
      <trkpt lat="46.36977" lon="-0.3563">
        <ele>45.6388</ele>
        <time>2011-06-02T12:14:51Z</time>
      </trkpt>
      <trkpt lat="46.36977" lon="-0.3563">
        <ele>45.5892</ele>
        <time>2011-06-02T12:14:52Z</time>
      </trkpt>
      <trkpt lat="46.36976" lon="-0.35631">
        <ele>45.5509</ele>
        <time>2011-06-02T12:14:53Z</time>
      </trkpt>
      <trkpt lat="46.36976" lon="-0.35632">
        <ele>45.5121</ele>
        <time>2011-06-02T12:14:54Z</time>
      </trkpt>
      <trkpt lat="46.36975" lon="-0.35633">
        <ele>45.4763</ele>
        <time>2011-06-02T12:14:55Z</time>
      </trkpt>
      <trkpt lat="46.36974" lon="-0.35634">
        <ele>45.4442</ele>
        <time>2011-06-02T12:14:56Z</time>
      </trkpt>
      <trkpt lat="46.36973" lon="-0.35634">
        <ele>45.4118</ele>
        <time>2011-06-02T12:14:57Z</time>
      </trkpt>
      <trkpt lat="46.36972" lon="-0.35635">
        <ele>45.3768</ele>
        <time>2011-06-02T12:14:58Z</time>
      </trkpt>
      <trkpt lat="46.36971" lon="-0.35636">
        <ele>45.3424</ele>
        <time>2011-06-02T12:14:59Z</time>
      </trkpt>
      <trkpt lat="46.3697" lon="-0.35637">
        <ele>45.3078</ele>
        <time>2011-06-02T12:15:00Z</time>
      </trkpt>
      <trkpt lat="46.36969" lon="-0.35638">
        <ele>45.2747</ele>
        <time>2011-06-02T12:15:01Z</time>
      </trkpt>
      <trkpt lat="46.36969" lon="-0.35638">
        <ele>45.2438</ele>
        <time>2011-06-02T12:15:02Z</time>
      </trkpt>
      <trkpt lat="46.36968" lon="-0.35639">
        <ele>45.2186</ele>
        <time>2011-06-02T12:15:03Z</time>
      </trkpt>
      <trkpt lat="46.36967" lon="-0.35639">
        <ele>45.1933</ele>
        <time>2011-06-02T12:15:04Z</time>
      </trkpt>
      <trkpt lat="46.36966" lon="-0.3564">
        <ele>45.1684</ele>
        <time>2011-06-02T12:15:05Z</time>
      </trkpt>
      <trkpt lat="46.36965" lon="-0.3564">
        <ele>45.145</ele>
        <time>2011-06-02T12:15:06Z</time>
      </trkpt>
      <trkpt lat="46.36964" lon="-0.35641">
        <ele>45.1233</ele>
        <time>2011-06-02T12:15:07Z</time>
      </trkpt>
      <trkpt lat="46.36964" lon="-0.35641">
        <ele>45.1016</ele>
        <time>2011-06-02T12:15:08Z</time>
      </trkpt>
      <trkpt lat="46.36963" lon="-0.35642">
        <ele>45.0763</ele>
        <time>2011-06-02T12:15:09Z</time>
      </trkpt>
      <trkpt lat="46.36962" lon="-0.35643">
        <ele>45.0484</ele>
        <time>2011-06-02T12:15:10Z</time>
      </trkpt>
      <trkpt lat="46.36962" lon="-0.35644">
        <ele>45.0205</ele>
        <time>2011-06-02T12:15:11Z</time>
      </trkpt>
      <trkpt lat="46.36961" lon="-0.35645">
        <ele>44.9941</ele>
        <time>2011-06-02T12:15:12Z</time>
      </trkpt>
      <trkpt lat="46.3696" lon="-0.35646">
        <ele>44.9698</ele>
        <time>2011-06-02T12:15:13Z</time>
      </trkpt>
      <trkpt lat="46.3696" lon="-0.35647">
        <ele>44.9494</ele>
        <time>2011-06-02T12:15:14Z</time>
      </trkpt>
      <trkpt lat="46.36959" lon="-0.35648">
        <ele>44.9288</ele>
        <time>2011-06-02T12:15:15Z</time>
      </trkpt>
      <trkpt lat="46.36958" lon="-0.35649">
        <ele>44.9095</ele>
        <time>2011-06-02T12:15:16Z</time>
      </trkpt>
      <trkpt lat="46.36957" lon="-0.3565">
        <ele>44.8911</ele>
        <time>2011-06-02T12:15:17Z</time>
      </trkpt>
      <trkpt lat="46.36956" lon="-0.3565">
        <ele>44.8719</ele>
        <time>2011-06-02T12:15:18Z</time>
      </trkpt>
      <trkpt lat="46.36955" lon="-0.35651">
        <ele>44.8528</ele>
        <time>2011-06-02T12:15:19Z</time>
      </trkpt>
      <trkpt lat="46.36954" lon="-0.35652">
        <ele>44.8336</ele>
        <time>2011-06-02T12:15:20Z</time>
      </trkpt>
      <trkpt lat="46.36953" lon="-0.35653">
        <ele>44.8163</ele>
        <time>2011-06-02T12:15:21Z</time>
      </trkpt>
      <trkpt lat="46.36952" lon="-0.35654">
        <ele>44.7954</ele>
        <time>2011-06-02T12:15:22Z</time>
      </trkpt>
      <trkpt lat="46.36951" lon="-0.35655">
        <ele>44.78</ele>
        <time>2011-06-02T12:15:23Z</time>
      </trkpt>
      <trkpt lat="46.3695" lon="-0.35656">
        <ele>44.7696</ele>
        <time>2011-06-02T12:15:24Z</time>
      </trkpt>
      <trkpt lat="46.36949" lon="-0.35657">
        <ele>44.7603</ele>
        <time>2011-06-02T12:15:25Z</time>
      </trkpt>
      <trkpt lat="46.36948" lon="-0.35658">
        <ele>44.7522</ele>
        <time>2011-06-02T12:15:26Z</time>
      </trkpt>
      <trkpt lat="46.36948" lon="-0.3566">
        <ele>44.7428</ele>
        <time>2011-06-02T12:15:27Z</time>
      </trkpt>
      <trkpt lat="46.36947" lon="-0.35661">
        <ele>44.7322</ele>
        <time>2011-06-02T12:15:28Z</time>
      </trkpt>
      <trkpt lat="46.36946" lon="-0.35661">
        <ele>44.7199</ele>
        <time>2011-06-02T12:15:29Z</time>
      </trkpt>
      <trkpt lat="46.36945" lon="-0.35662">
        <ele>44.7097</ele>
        <time>2011-06-02T12:15:30Z</time>
      </trkpt>
      <trkpt lat="46.36944" lon="-0.35663">
        <ele>44.6983</ele>
        <time>2011-06-02T12:15:31Z</time>
      </trkpt>
      <trkpt lat="46.36943" lon="-0.35664">
        <ele>44.6863</ele>
        <time>2011-06-02T12:15:32Z</time>
      </trkpt>
      <trkpt lat="46.36943" lon="-0.35665">
        <ele>44.6737</ele>
        <time>2011-06-02T12:15:33Z</time>
      </trkpt>
      <trkpt lat="46.36942" lon="-0.35665">
        <ele>44.6613</ele>
        <time>2011-06-02T12:15:34Z</time>
      </trkpt>
      <trkpt lat="46.36941" lon="-0.35666">
        <ele>44.6511</ele>
        <time>2011-06-02T12:15:35Z</time>
      </trkpt>
      <trkpt lat="46.3694" lon="-0.35666">
        <ele>44.6442</ele>
        <time>2011-06-02T12:15:36Z</time>
      </trkpt>
      <trkpt lat="46.36939" lon="-0.35667">
        <ele>44.639</ele>
        <time>2011-06-02T12:15:37Z</time>
      </trkpt>
      <trkpt lat="46.36938" lon="-0.35668">
        <ele>44.6348</ele>
        <time>2011-06-02T12:15:38Z</time>
      </trkpt>
      <trkpt lat="46.36937" lon="-0.35669">
        <ele>44.6261</ele>
        <time>2011-06-02T12:15:39Z</time>
      </trkpt>
      <trkpt lat="46.36936" lon="-0.3567">
        <ele>44.6181</ele>
        <time>2011-06-02T12:15:40Z</time>
      </trkpt>
      <trkpt lat="46.36935" lon="-0.35671">
        <ele>44.6087</ele>
        <time>2011-06-02T12:15:41Z</time>
      </trkpt>
      <trkpt lat="46.36934" lon="-0.35672">
        <ele>44.5971</ele>
        <time>2011-06-02T12:15:42Z</time>
      </trkpt>
      <trkpt lat="46.36933" lon="-0.35673">
        <ele>44.5839</ele>
        <time>2011-06-02T12:15:43Z</time>
      </trkpt>
      <trkpt lat="46.36932" lon="-0.35674">
        <ele>44.5695</ele>
        <time>2011-06-02T12:15:44Z</time>
      </trkpt>
      <trkpt lat="46.36932" lon="-0.35675">
        <ele>44.556</ele>
        <time>2011-06-02T12:15:45Z</time>
      </trkpt>
      <trkpt lat="46.36931" lon="-0.35676">
        <ele>44.5429</ele>
        <time>2011-06-02T12:15:46Z</time>
      </trkpt>
      <trkpt lat="46.3693" lon="-0.35676">
        <ele>44.5312</ele>
        <time>2011-06-02T12:15:47Z</time>
      </trkpt>
      <trkpt lat="46.36929" lon="-0.35677">
        <ele>44.5217</ele>
        <time>2011-06-02T12:15:48Z</time>
      </trkpt>
      <trkpt lat="46.36928" lon="-0.35678">
        <ele>44.512</ele>
        <time>2011-06-02T12:15:49Z</time>
      </trkpt>
      <trkpt lat="46.36927" lon="-0.35679">
        <ele>44.5034</ele>
        <time>2011-06-02T12:15:50Z</time>
      </trkpt>
      <trkpt lat="46.36927" lon="-0.3568">
        <ele>44.495</ele>
        <time>2011-06-02T12:15:51Z</time>
      </trkpt>
      <trkpt lat="46.36926" lon="-0.35681">
        <ele>44.4861</ele>
        <time>2011-06-02T12:15:52Z</time>
      </trkpt>
      <trkpt lat="46.36926" lon="-0.35681">
        <ele>44.4779</ele>
        <time>2011-06-02T12:15:53Z</time>
      </trkpt>
      <trkpt lat="46.36925" lon="-0.35682">
        <ele>44.4705</ele>
        <time>2011-06-02T12:15:54Z</time>
      </trkpt>
      <trkpt lat="46.36924" lon="-0.35683">
        <ele>44.464</ele>
        <time>2011-06-02T12:15:55Z</time>
      </trkpt>
      <trkpt lat="46.36923" lon="-0.35684">
        <ele>44.4574</ele>
        <time>2011-06-02T12:15:56Z</time>
      </trkpt>
      <trkpt lat="46.36922" lon="-0.35685">
        <ele>44.4509</ele>
        <time>2011-06-02T12:15:57Z</time>
      </trkpt>
      <trkpt lat="46.36921" lon="-0.35686">
        <ele>44.4464</ele>
        <time>2011-06-02T12:15:58Z</time>
      </trkpt>
      <trkpt lat="46.36921" lon="-0.35687">
        <ele>44.4417</ele>
        <time>2011-06-02T12:15:59Z</time>
      </trkpt>
      <trkpt lat="46.36919" lon="-0.35688">
        <ele>44.4369</ele>
        <time>2011-06-02T12:16:00Z</time>
      </trkpt>
      <trkpt lat="46.36919" lon="-0.3569">
        <ele>44.4325</ele>
        <time>2011-06-02T12:16:01Z</time>
      </trkpt>
      <trkpt lat="46.36918" lon="-0.35691">
        <ele>44.4293</ele>
        <time>2011-06-02T12:16:02Z</time>
      </trkpt>
      <trkpt lat="46.36916" lon="-0.35694">
        <ele>44.504</ele>
        <time>2011-06-02T12:16:10Z</time>
      </trkpt>
      <trkpt lat="46.36917" lon="-0.35698">
        <ele>44.5353</ele>
        <time>2011-06-02T12:16:11Z</time>
      </trkpt>
      <trkpt lat="46.36918" lon="-0.35702">
        <ele>44.5553</ele>
        <time>2011-06-02T12:16:12Z</time>
      </trkpt>
      <trkpt lat="46.36921" lon="-0.35705">
        <ele>44.561</ele>
        <time>2011-06-02T12:16:13Z</time>
      </trkpt>
      <trkpt lat="46.36924" lon="-0.35707">
        <ele>44.5367</ele>
        <time>2011-06-02T12:16:14Z</time>
      </trkpt>
      <trkpt lat="46.36926" lon="-0.3571">
        <ele>44.5064</ele>
        <time>2011-06-02T12:16:15Z</time>
      </trkpt>
      <trkpt lat="46.36926" lon="-0.35712">
        <ele>44.4726</ele>
        <time>2011-06-02T12:16:16Z</time>
      </trkpt>
      <trkpt lat="46.36927" lon="-0.35712">
        <ele>44.4385</ele>
        <time>2011-06-02T12:16:17Z</time>
      </trkpt>
      <trkpt lat="46.36928" lon="-0.35713">
        <ele>44.4041</ele>
        <time>2011-06-02T12:16:18Z</time>
      </trkpt>
      <trkpt lat="46.36927" lon="-0.35714">
        <ele>44.3729</ele>
        <time>2011-06-02T12:16:19Z</time>
      </trkpt>
      <trkpt lat="46.36928" lon="-0.35715">
        <ele>44.3421</ele>
        <time>2011-06-02T12:16:20Z</time>
      </trkpt>
      <trkpt lat="46.36929" lon="-0.35716">
        <ele>44.3226</ele>
        <time>2011-06-02T12:16:21Z</time>
      </trkpt>
      <trkpt lat="46.3693" lon="-0.35716">
        <ele>44.3156</ele>
        <time>2011-06-02T12:16:22Z</time>
      </trkpt>
      <trkpt lat="46.36931" lon="-0.35717">
        <ele>44.3091</ele>
        <time>2011-06-02T12:16:23Z</time>
      </trkpt>
      <trkpt lat="46.36932" lon="-0.35718">
        <ele>44.3089</ele>
        <time>2011-06-02T12:16:24Z</time>
      </trkpt>
      <trkpt lat="46.36933" lon="-0.35719">
        <ele>44.305</ele>
        <time>2011-06-02T12:16:25Z</time>
      </trkpt>
      <trkpt lat="46.36933" lon="-0.3572">
        <ele>44.3011</ele>
        <time>2011-06-02T12:16:26Z</time>
      </trkpt>
      <trkpt lat="46.36934" lon="-0.35719">
        <ele>44.2962</ele>
        <time>2011-06-02T12:16:27Z</time>
      </trkpt>
      <trkpt lat="46.36932" lon="-0.35718">
        <ele>44.2982</ele>
        <time>2011-06-02T12:16:28Z</time>
      </trkpt>
      <trkpt lat="46.36932" lon="-0.35717">
        <ele>44.3037</ele>
        <time>2011-06-02T12:16:29Z</time>
      </trkpt>
      <trkpt lat="46.36931" lon="-0.35717">
        <ele>44.3069</ele>
        <time>2011-06-02T12:16:30Z</time>
      </trkpt>
      <trkpt lat="46.36931" lon="-0.35716">
        <ele>44.309</ele>
        <time>2011-06-02T12:16:31Z</time>
      </trkpt>
      <trkpt lat="46.3693" lon="-0.35716">
        <ele>44.3074</ele>
        <time>2011-06-02T12:16:32Z</time>
      </trkpt>
      <trkpt lat="46.36928" lon="-0.35714">
        <ele>44.3767</ele>
        <time>2011-06-02T12:16:43Z</time>
      </trkpt>
      <trkpt lat="46.36928" lon="-0.35715">
        <ele>44.4348</ele>
        <time>2011-06-02T12:16:44Z</time>
      </trkpt>
      <trkpt lat="46.36929" lon="-0.35716">
        <ele>44.4921</ele>
        <time>2011-06-02T12:16:45Z</time>
      </trkpt>
      <trkpt lat="46.36929" lon="-0.35717">
        <ele>44.5486</ele>
        <time>2011-06-02T12:16:46Z</time>
      </trkpt>
      <trkpt lat="46.3693" lon="-0.35718">
        <ele>44.6016</ele>
        <time>2011-06-02T12:16:47Z</time>
      </trkpt>
      <trkpt lat="46.36931" lon="-0.3572">
        <ele>44.6507</ele>
        <time>2011-06-02T12:16:48Z</time>
      </trkpt>
      <trkpt lat="46.36931" lon="-0.35721">
        <ele>44.6981</ele>
        <time>2011-06-02T12:16:49Z</time>
      </trkpt>
      <trkpt lat="46.36932" lon="-0.35722">
        <ele>44.7463</ele>
        <time>2011-06-02T12:16:50Z</time>
      </trkpt>
      <trkpt lat="46.3693" lon="-0.35721">
        <ele>44.8443</ele>
        <time>2011-06-02T12:16:53Z</time>
      </trkpt>
      <trkpt lat="46.3693" lon="-0.35719">
        <ele>44.8898</ele>
        <time>2011-06-02T12:16:54Z</time>
      </trkpt>
      <trkpt lat="46.36929" lon="-0.35718">
        <ele>44.9381</ele>
        <time>2011-06-02T12:16:55Z</time>
      </trkpt>
      <trkpt lat="46.36929" lon="-0.35717">
        <ele>44.9845</ele>
        <time>2011-06-02T12:16:56Z</time>
      </trkpt>
      <trkpt lat="46.36927" lon="-0.35716">
        <ele>45.0301</ele>
        <time>2011-06-02T12:16:57Z</time>
      </trkpt>
      <trkpt lat="46.36927" lon="-0.35714">
        <ele>45.0753</ele>
        <time>2011-06-02T12:16:58Z</time>
      </trkpt>
      <trkpt lat="46.36927" lon="-0.35713">
        <ele>45.1229</ele>
        <time>2011-06-02T12:16:59Z</time>
      </trkpt>
      <trkpt lat="46.36926" lon="-0.35711">
        <ele>45.1702</ele>
        <time>2011-06-02T12:17:00Z</time>
      </trkpt>
      <trkpt lat="46.36926" lon="-0.3571">
        <ele>45.2169</ele>
        <time>2011-06-02T12:17:01Z</time>
      </trkpt>
      <trkpt lat="46.36925" lon="-0.35708">
        <ele>45.2675</ele>
        <time>2011-06-02T12:17:02Z</time>
      </trkpt>
      <trkpt lat="46.36924" lon="-0.35707">
        <ele>45.3227</ele>
        <time>2011-06-02T12:17:03Z</time>
      </trkpt>
      <trkpt lat="46.36923" lon="-0.35705">
        <ele>45.3755</ele>
        <time>2011-06-02T12:17:04Z</time>
      </trkpt>
      <trkpt lat="46.36923" lon="-0.35704">
        <ele>45.4287</ele>
        <time>2011-06-02T12:17:05Z</time>
      </trkpt>
      <trkpt lat="46.36922" lon="-0.35703">
        <ele>45.4811</ele>
        <time>2011-06-02T12:17:06Z</time>
      </trkpt>
      <trkpt lat="46.36921" lon="-0.35701">
        <ele>45.533</ele>
        <time>2011-06-02T12:17:07Z</time>
      </trkpt>
      <trkpt lat="46.3692" lon="-0.35699">
        <ele>45.5799</ele>
        <time>2011-06-02T12:17:08Z</time>
      </trkpt>
      <trkpt lat="46.36919" lon="-0.35698">
        <ele>45.6255</ele>
        <time>2011-06-02T12:17:09Z</time>
      </trkpt>
      <trkpt lat="46.36918" lon="-0.35697">
        <ele>45.6615</ele>
        <time>2011-06-02T12:17:10Z</time>
      </trkpt>
      <trkpt lat="46.36914" lon="-0.35695">
        <ele>45.777</ele>
        <time>2011-06-02T12:17:20Z</time>
      </trkpt>
      <trkpt lat="46.36914" lon="-0.35695">
        <ele>45.8505</ele>
        <time>2011-06-02T12:17:21Z</time>
      </trkpt>
      <trkpt lat="46.36913" lon="-0.35695">
        <ele>45.9084</ele>
        <time>2011-06-02T12:17:22Z</time>
      </trkpt>
      <trkpt lat="46.36913" lon="-0.35696">
        <ele>45.939</ele>
        <time>2011-06-02T12:17:23Z</time>
      </trkpt>
      <trkpt lat="46.36913" lon="-0.35697">
        <ele>45.9604</ele>
        <time>2011-06-02T12:17:24Z</time>
      </trkpt>
      <trkpt lat="46.36913" lon="-0.35698">
        <ele>45.9744</ele>
        <time>2011-06-02T12:17:25Z</time>
      </trkpt>
      <trkpt lat="46.36914" lon="-0.35698">
        <ele>45.9851</ele>
        <time>2011-06-02T12:17:26Z</time>
      </trkpt>
      <trkpt lat="46.36912" lon="-0.35696">
        <ele>46.0469</ele>
        <time>2011-06-02T12:17:33Z</time>
      </trkpt>
      <trkpt lat="46.36912" lon="-0.35697">
        <ele>46.0825</ele>
        <time>2011-06-02T12:17:34Z</time>
      </trkpt>
      <trkpt lat="46.36911" lon="-0.35697">
        <ele>46.1145</ele>
        <time>2011-06-02T12:17:35Z</time>
      </trkpt>
      <trkpt lat="46.3691" lon="-0.35697">
        <ele>46.145</ele>
        <time>2011-06-02T12:17:36Z</time>
      </trkpt>
      <trkpt lat="46.3691" lon="-0.35698">
        <ele>46.1735</ele>
        <time>2011-06-02T12:17:37Z</time>
      </trkpt>
      <trkpt lat="46.36908" lon="-0.35699">
        <ele>46.2018</ele>
        <time>2011-06-02T12:17:38Z</time>
      </trkpt>
      <trkpt lat="46.36908" lon="-0.357">
        <ele>46.2259</ele>
        <time>2011-06-02T12:17:39Z</time>
      </trkpt>
      <trkpt lat="46.36907" lon="-0.35701">
        <ele>46.2487</ele>
        <time>2011-06-02T12:17:40Z</time>
      </trkpt>
      <trkpt lat="46.36906" lon="-0.35701">
        <ele>46.2654</ele>
        <time>2011-06-02T12:17:41Z</time>
      </trkpt>
      <trkpt lat="46.36905" lon="-0.35702">
        <ele>46.2792</ele>
        <time>2011-06-02T12:17:42Z</time>
      </trkpt>
      <trkpt lat="46.36904" lon="-0.35703">
        <ele>46.2924</ele>
        <time>2011-06-02T12:17:43Z</time>
      </trkpt>
      <trkpt lat="46.36904" lon="-0.35705">
        <ele>46.3107</ele>
        <time>2011-06-02T12:17:44Z</time>
      </trkpt>
      <trkpt lat="46.36903" lon="-0.35705">
        <ele>46.3351</ele>
        <time>2011-06-02T12:17:45Z</time>
      </trkpt>
      <trkpt lat="46.36903" lon="-0.35706">
        <ele>46.3632</ele>
        <time>2011-06-02T12:17:46Z</time>
      </trkpt>
      <trkpt lat="46.36903" lon="-0.35707">
        <ele>46.3837</ele>
        <time>2011-06-02T12:17:47Z</time>
      </trkpt>
      <trkpt lat="46.36902" lon="-0.35708">
        <ele>46.4053</ele>
        <time>2011-06-02T12:17:48Z</time>
      </trkpt>
      <trkpt lat="46.36902" lon="-0.35709">
        <ele>46.4218</ele>
        <time>2011-06-02T12:17:49Z</time>
      </trkpt>
      <trkpt lat="46.36901" lon="-0.3571">
        <ele>46.4352</ele>
        <time>2011-06-02T12:17:50Z</time>
      </trkpt>
      <trkpt lat="46.369" lon="-0.35711">
        <ele>46.4531</ele>
        <time>2011-06-02T12:17:51Z</time>
      </trkpt>
      <trkpt lat="46.36899" lon="-0.35712">
        <ele>46.4756</ele>
        <time>2011-06-02T12:17:52Z</time>
      </trkpt>
      <trkpt lat="46.36898" lon="-0.35713">
        <ele>46.4988</ele>
        <time>2011-06-02T12:17:53Z</time>
      </trkpt>
      <trkpt lat="46.36898" lon="-0.35714">
        <ele>46.5216</ele>
        <time>2011-06-02T12:17:54Z</time>
      </trkpt>
      <trkpt lat="46.36897" lon="-0.35715">
        <ele>46.5471</ele>
        <time>2011-06-02T12:17:55Z</time>
      </trkpt>
      <trkpt lat="46.36895" lon="-0.35716">
        <ele>46.5662</ele>
        <time>2011-06-02T12:17:56Z</time>
      </trkpt>
      <trkpt lat="46.36894" lon="-0.35717">
        <ele>46.587</ele>
        <time>2011-06-02T12:17:57Z</time>
      </trkpt>
      <trkpt lat="46.36893" lon="-0.35717">
        <ele>46.6062</ele>
        <time>2011-06-02T12:17:58Z</time>
      </trkpt>
      <trkpt lat="46.36892" lon="-0.35718">
        <ele>46.6243</ele>
        <time>2011-06-02T12:17:59Z</time>
      </trkpt>
      <trkpt lat="46.36892" lon="-0.35719">
        <ele>46.6433</ele>
        <time>2011-06-02T12:18:00Z</time>
      </trkpt>
      <trkpt lat="46.3689" lon="-0.3572">
        <ele>46.6633</ele>
        <time>2011-06-02T12:18:01Z</time>
      </trkpt>
      <trkpt lat="46.3689" lon="-0.35721">
        <ele>46.6862</ele>
        <time>2011-06-02T12:18:02Z</time>
      </trkpt>
      <trkpt lat="46.36889" lon="-0.35722">
        <ele>46.7129</ele>
        <time>2011-06-02T12:18:03Z</time>
      </trkpt>
      <trkpt lat="46.36888" lon="-0.35722">
        <ele>46.7428</ele>
        <time>2011-06-02T12:18:04Z</time>
      </trkpt>
      <trkpt lat="46.36887" lon="-0.35723">
        <ele>46.7733</ele>
        <time>2011-06-02T12:18:05Z</time>
      </trkpt>
      <trkpt lat="46.36886" lon="-0.35724">
        <ele>46.8059</ele>
        <time>2011-06-02T12:18:06Z</time>
      </trkpt>
      <trkpt lat="46.36885" lon="-0.35725">
        <ele>46.837</ele>
        <time>2011-06-02T12:18:07Z</time>
      </trkpt>
      <trkpt lat="46.36884" lon="-0.35726">
        <ele>46.8642</ele>
        <time>2011-06-02T12:18:08Z</time>
      </trkpt>
      <trkpt lat="46.36884" lon="-0.35727">
        <ele>46.8885</ele>
        <time>2011-06-02T12:18:09Z</time>
      </trkpt>
      <trkpt lat="46.36883" lon="-0.35728">
        <ele>46.9109</ele>
        <time>2011-06-02T12:18:10Z</time>
      </trkpt>
      <trkpt lat="46.36882" lon="-0.35729">
        <ele>46.9404</ele>
        <time>2011-06-02T12:18:13Z</time>
      </trkpt>
      <trkpt lat="46.36882" lon="-0.35729">
        <ele>46.953</ele>
        <time>2011-06-02T12:18:14Z</time>
      </trkpt>
      <trkpt lat="46.36882" lon="-0.35731">
        <ele>46.9628</ele>
        <time>2011-06-02T12:18:15Z</time>
      </trkpt>
      <trkpt lat="46.36881" lon="-0.35732">
        <ele>46.9707</ele>
        <time>2011-06-02T12:18:16Z</time>
      </trkpt>
      <trkpt lat="46.36881" lon="-0.35733">
        <ele>46.9781</ele>
        <time>2011-06-02T12:18:17Z</time>
      </trkpt>
      <trkpt lat="46.3688" lon="-0.35734">
        <ele>46.986</ele>
        <time>2011-06-02T12:18:18Z</time>
      </trkpt>
      <trkpt lat="46.3688" lon="-0.35736">
        <ele>46.9943</ele>
        <time>2011-06-02T12:18:19Z</time>
      </trkpt>
      <trkpt lat="46.3688" lon="-0.35737">
        <ele>47.0028</ele>
        <time>2011-06-02T12:18:20Z</time>
      </trkpt>
      <trkpt lat="46.3688" lon="-0.35739">
        <ele>47.0121</ele>
        <time>2011-06-02T12:18:21Z</time>
      </trkpt>
      <trkpt lat="46.36881" lon="-0.3574">
        <ele>47.0251</ele>
        <time>2011-06-02T12:18:22Z</time>
      </trkpt>
      <trkpt lat="46.36881" lon="-0.35742">
        <ele>47.0406</ele>
        <time>2011-06-02T12:18:23Z</time>
      </trkpt>
      <trkpt lat="46.36881" lon="-0.35743">
        <ele>47.0579</ele>
        <time>2011-06-02T12:18:24Z</time>
      </trkpt>
      <trkpt lat="46.36881" lon="-0.35744">
        <ele>47.075</ele>
        <time>2011-06-02T12:18:25Z</time>
      </trkpt>
      <trkpt lat="46.36881" lon="-0.35745">
        <ele>47.0916</ele>
        <time>2011-06-02T12:18:26Z</time>
      </trkpt>
      <trkpt lat="46.36881" lon="-0.35746">
        <ele>47.1072</ele>
        <time>2011-06-02T12:18:27Z</time>
      </trkpt>
      <trkpt lat="46.36882" lon="-0.35747">
        <ele>47.1219</ele>
        <time>2011-06-02T12:18:28Z</time>
      </trkpt>
      <trkpt lat="46.36882" lon="-0.35748">
        <ele>47.1338</ele>
        <time>2011-06-02T12:18:29Z</time>
      </trkpt>
      <trkpt lat="46.36882" lon="-0.35749">
        <ele>47.1425</ele>
        <time>2011-06-02T12:18:30Z</time>
      </trkpt>
      <trkpt lat="46.36883" lon="-0.3575">
        <ele>47.1495</ele>
        <time>2011-06-02T12:18:31Z</time>
      </trkpt>
      <trkpt lat="46.36883" lon="-0.35751">
        <ele>47.1587</ele>
        <time>2011-06-02T12:18:32Z</time>
      </trkpt>
      <trkpt lat="46.36884" lon="-0.35752">
        <ele>47.1701</ele>
        <time>2011-06-02T12:18:33Z</time>
      </trkpt>
      <trkpt lat="46.36885" lon="-0.35753">
        <ele>47.1819</ele>
        <time>2011-06-02T12:18:34Z</time>
      </trkpt>
      <trkpt lat="46.36885" lon="-0.35754">
        <ele>47.1944</ele>
        <time>2011-06-02T12:18:35Z</time>
      </trkpt>
      <trkpt lat="46.36886" lon="-0.35756">
        <ele>47.207</ele>
        <time>2011-06-02T12:18:36Z</time>
      </trkpt>
      <trkpt lat="46.36886" lon="-0.35758">
        <ele>47.2185</ele>
        <time>2011-06-02T12:18:37Z</time>
      </trkpt>
      <trkpt lat="46.36887" lon="-0.35759">
        <ele>47.2316</ele>
        <time>2011-06-02T12:18:38Z</time>
      </trkpt>
      <trkpt lat="46.36887" lon="-0.3576">
        <ele>47.2444</ele>
        <time>2011-06-02T12:18:39Z</time>
      </trkpt>
      <trkpt lat="46.36888" lon="-0.35761">
        <ele>47.256</ele>
        <time>2011-06-02T12:18:40Z</time>
      </trkpt>
      <trkpt lat="46.36889" lon="-0.35762">
        <ele>47.2665</ele>
        <time>2011-06-02T12:18:41Z</time>
      </trkpt>
      <trkpt lat="46.36889" lon="-0.35763">
        <ele>47.2772</ele>
        <time>2011-06-02T12:18:42Z</time>
      </trkpt>
      <trkpt lat="46.36889" lon="-0.35765">
        <ele>47.287</ele>
        <time>2011-06-02T12:18:43Z</time>
      </trkpt>
      <trkpt lat="46.3689" lon="-0.35766">
        <ele>47.2961</ele>
        <time>2011-06-02T12:18:44Z</time>
      </trkpt>
      <trkpt lat="46.3689" lon="-0.35767">
        <ele>47.3031</ele>
        <time>2011-06-02T12:18:45Z</time>
      </trkpt>
      <trkpt lat="46.36891" lon="-0.35768">
        <ele>47.3074</ele>
        <time>2011-06-02T12:18:46Z</time>
      </trkpt>
      <trkpt lat="46.36891" lon="-0.35769">
        <ele>47.3107</ele>
        <time>2011-06-02T12:18:47Z</time>
      </trkpt>
      <trkpt lat="46.36892" lon="-0.35769">
        <ele>47.3138</ele>
        <time>2011-06-02T12:18:48Z</time>
      </trkpt>
      <trkpt lat="46.36892" lon="-0.3577">
        <ele>47.3172</ele>
        <time>2011-06-02T12:18:49Z</time>
      </trkpt>
      <trkpt lat="46.36892" lon="-0.35771">
        <ele>47.3229</ele>
        <time>2011-06-02T12:18:50Z</time>
      </trkpt>
      <trkpt lat="46.36893" lon="-0.35772">
        <ele>47.3271</ele>
        <time>2011-06-02T12:18:51Z</time>
      </trkpt>
      <trkpt lat="46.36894" lon="-0.35774">
        <ele>47.3294</ele>
        <time>2011-06-02T12:18:52Z</time>
      </trkpt>
      <trkpt lat="46.36895" lon="-0.35775">
        <ele>47.3269</ele>
        <time>2011-06-02T12:18:53Z</time>
      </trkpt>
      <trkpt lat="46.36896" lon="-0.35776">
        <ele>47.3216</ele>
        <time>2011-06-02T12:18:54Z</time>
      </trkpt>
      <trkpt lat="46.36897" lon="-0.35777">
        <ele>47.3138</ele>
        <time>2011-06-02T12:18:55Z</time>
      </trkpt>
      <trkpt lat="46.36898" lon="-0.35778">
        <ele>47.3049</ele>
        <time>2011-06-02T12:18:56Z</time>
      </trkpt>
      <trkpt lat="46.36899" lon="-0.3578">
        <ele>47.2941</ele>
        <time>2011-06-02T12:18:57Z</time>
      </trkpt>
      <trkpt lat="46.369" lon="-0.35781">
        <ele>47.2756</ele>
        <time>2011-06-02T12:18:58Z</time>
      </trkpt>
      <trkpt lat="46.36901" lon="-0.35782">
        <ele>47.2554</ele>
        <time>2011-06-02T12:18:59Z</time>
      </trkpt>
      <trkpt lat="46.36902" lon="-0.35783">
        <ele>47.2348</ele>
        <time>2011-06-02T12:19:00Z</time>
      </trkpt>
      <trkpt lat="46.36903" lon="-0.35784">
        <ele>47.214</ele>
        <time>2011-06-02T12:19:01Z</time>
      </trkpt>
      <trkpt lat="46.36904" lon="-0.35785">
        <ele>47.1905</ele>
        <time>2011-06-02T12:19:02Z</time>
      </trkpt>
      <trkpt lat="46.36905" lon="-0.35787">
        <ele>47.1692</ele>
        <time>2011-06-02T12:19:03Z</time>
      </trkpt>
      <trkpt lat="46.36906" lon="-0.35788">
        <ele>47.1482</ele>
        <time>2011-06-02T12:19:04Z</time>
      </trkpt>
      <trkpt lat="46.36906" lon="-0.35789">
        <ele>47.1285</ele>
        <time>2011-06-02T12:19:05Z</time>
      </trkpt>
      <trkpt lat="46.36908" lon="-0.3579">
        <ele>47.1095</ele>
        <time>2011-06-02T12:19:06Z</time>
      </trkpt>
      <trkpt lat="46.36908" lon="-0.35791">
        <ele>47.0902</ele>
        <time>2011-06-02T12:19:07Z</time>
      </trkpt>
      <trkpt lat="46.3691" lon="-0.35792">
        <ele>47.0675</ele>
        <time>2011-06-02T12:19:08Z</time>
      </trkpt>
      <trkpt lat="46.3691" lon="-0.35792">
        <ele>47.0424</ele>
        <time>2011-06-02T12:19:09Z</time>
      </trkpt>
      <trkpt lat="46.36911" lon="-0.35793">
        <ele>47.0108</ele>
        <time>2011-06-02T12:19:10Z</time>
      </trkpt>
      <trkpt lat="46.36912" lon="-0.35794">
        <ele>46.9776</ele>
        <time>2011-06-02T12:19:11Z</time>
      </trkpt>
      <trkpt lat="46.36912" lon="-0.35795">
        <ele>46.9444</ele>
        <time>2011-06-02T12:19:12Z</time>
      </trkpt>
      <trkpt lat="46.36913" lon="-0.35795">
        <ele>46.9111</ele>
        <time>2011-06-02T12:19:13Z</time>
      </trkpt>
      <trkpt lat="46.36914" lon="-0.35796">
        <ele>46.8772</ele>
        <time>2011-06-02T12:19:14Z</time>
      </trkpt>
      <trkpt lat="46.36914" lon="-0.35797">
        <ele>46.839</ele>
        <time>2011-06-02T12:19:15Z</time>
      </trkpt>
      <trkpt lat="46.36915" lon="-0.35798">
        <ele>46.8013</ele>
        <time>2011-06-02T12:19:16Z</time>
      </trkpt>
      <trkpt lat="46.36916" lon="-0.35799">
        <ele>46.7645</ele>
        <time>2011-06-02T12:19:17Z</time>
      </trkpt>
      <trkpt lat="46.36916" lon="-0.358">
        <ele>46.7239</ele>
        <time>2011-06-02T12:19:18Z</time>
      </trkpt>
      <trkpt lat="46.36917" lon="-0.358">
        <ele>46.6754</ele>
        <time>2011-06-02T12:19:19Z</time>
      </trkpt>
      <trkpt lat="46.36918" lon="-0.35801">
        <ele>46.6238</ele>
        <time>2011-06-02T12:19:20Z</time>
      </trkpt>
      <trkpt lat="46.36919" lon="-0.35801">
        <ele>46.5708</ele>
        <time>2011-06-02T12:19:21Z</time>
      </trkpt>
      <trkpt lat="46.3692" lon="-0.35802">
        <ele>46.5189</ele>
        <time>2011-06-02T12:19:22Z</time>
      </trkpt>
      <trkpt lat="46.36921" lon="-0.35803">
        <ele>46.4652</ele>
        <time>2011-06-02T12:19:23Z</time>
      </trkpt>
      <trkpt lat="46.36921" lon="-0.35803">
        <ele>46.4117</ele>
        <time>2011-06-02T12:19:24Z</time>
      </trkpt>
      <trkpt lat="46.36922" lon="-0.35804">
        <ele>46.3602</ele>
        <time>2011-06-02T12:19:25Z</time>
      </trkpt>
      <trkpt lat="46.36923" lon="-0.35805">
        <ele>46.2979</ele>
        <time>2011-06-02T12:19:26Z</time>
      </trkpt>
      <trkpt lat="46.36924" lon="-0.35806">
        <ele>46.2244</ele>
        <time>2011-06-02T12:19:27Z</time>
      </trkpt>
      <trkpt lat="46.36925" lon="-0.35807">
        <ele>46.1491</ele>
        <time>2011-06-02T12:19:28Z</time>
      </trkpt>
      <trkpt lat="46.36926" lon="-0.35808">
        <ele>46.0633</ele>
        <time>2011-06-02T12:19:29Z</time>
      </trkpt>
      <trkpt lat="46.36926" lon="-0.35809">
        <ele>45.9823</ele>
        <time>2011-06-02T12:19:30Z</time>
      </trkpt>
      <trkpt lat="46.36927" lon="-0.35811">
        <ele>45.8996</ele>
        <time>2011-06-02T12:19:31Z</time>
      </trkpt>
      <trkpt lat="46.36928" lon="-0.35812">
        <ele>45.8235</ele>
        <time>2011-06-02T12:19:32Z</time>
      </trkpt>
      <trkpt lat="46.36929" lon="-0.35812">
        <ele>45.7482</ele>
        <time>2011-06-02T12:19:33Z</time>
      </trkpt>
      <trkpt lat="46.3693" lon="-0.35814">
        <ele>45.6442</ele>
        <time>2011-06-02T12:19:36Z</time>
      </trkpt>
      <trkpt lat="46.36931" lon="-0.35815">
        <ele>45.5501</ele>
        <time>2011-06-02T12:19:37Z</time>
      </trkpt>
      <trkpt lat="46.36931" lon="-0.35817">
        <ele>45.4547</ele>
        <time>2011-06-02T12:19:38Z</time>
      </trkpt>
      <trkpt lat="46.36932" lon="-0.35818">
        <ele>45.3541</ele>
        <time>2011-06-02T12:19:39Z</time>
      </trkpt>
      <trkpt lat="46.36932" lon="-0.3582">
        <ele>45.2474</ele>
        <time>2011-06-02T12:19:40Z</time>
      </trkpt>
      <trkpt lat="46.36932" lon="-0.35821">
        <ele>45.1347</ele>
        <time>2011-06-02T12:19:41Z</time>
      </trkpt>
      <trkpt lat="46.36933" lon="-0.35823">
        <ele>45.0249</ele>
        <time>2011-06-02T12:19:42Z</time>
      </trkpt>
      <trkpt lat="46.36934" lon="-0.35824">
        <ele>44.9108</ele>
        <time>2011-06-02T12:19:43Z</time>
      </trkpt>
      <trkpt lat="46.36934" lon="-0.35824">
        <ele>44.7978</ele>
        <time>2011-06-02T12:19:44Z</time>
      </trkpt>
      <trkpt lat="46.36935" lon="-0.35825">
        <ele>44.6843</ele>
        <time>2011-06-02T12:19:45Z</time>
      </trkpt>
      <trkpt lat="46.36936" lon="-0.35826">
        <ele>44.5728</ele>
        <time>2011-06-02T12:19:46Z</time>
      </trkpt>
      <trkpt lat="46.36936" lon="-0.35826">
        <ele>44.4632</ele>
        <time>2011-06-02T12:19:47Z</time>
      </trkpt>
      <trkpt lat="46.36937" lon="-0.35827">
        <ele>44.3548</ele>
        <time>2011-06-02T12:19:48Z</time>
      </trkpt>
      <trkpt lat="46.36937" lon="-0.35828">
        <ele>44.2496</ele>
        <time>2011-06-02T12:19:49Z</time>
      </trkpt>
      <trkpt lat="46.36938" lon="-0.35828">
        <ele>44.1465</ele>
        <time>2011-06-02T12:19:50Z</time>
      </trkpt>
      <trkpt lat="46.36939" lon="-0.35829">
        <ele>44.0468</ele>
        <time>2011-06-02T12:19:51Z</time>
      </trkpt>
      <trkpt lat="46.36939" lon="-0.35829">
        <ele>43.9511</ele>
        <time>2011-06-02T12:19:52Z</time>
      </trkpt>
      <trkpt lat="46.3694" lon="-0.35829">
        <ele>43.8581</ele>
        <time>2011-06-02T12:19:53Z</time>
      </trkpt>
      <trkpt lat="46.36943" lon="-0.35824">
        <ele>43.62</ele>
        <time>2011-06-02T12:20:02Z</time>
      </trkpt>
      <trkpt lat="46.36945" lon="-0.35823">
        <ele>43.3061</ele>
        <time>2011-06-02T12:20:23Z</time>
      </trkpt>
      <trkpt lat="46.36945" lon="-0.35823">
        <ele>43.2461</ele>
        <time>2011-06-02T12:20:24Z</time>
      </trkpt>
      <trkpt lat="46.36945" lon="-0.35824">
        <ele>43.1862</ele>
        <time>2011-06-02T12:20:25Z</time>
      </trkpt>
      <trkpt lat="46.36946" lon="-0.35826">
        <ele>43.1255</ele>
        <time>2011-06-02T12:20:26Z</time>
      </trkpt>
      <trkpt lat="46.36947" lon="-0.35828">
        <ele>43.0545</ele>
        <time>2011-06-02T12:20:27Z</time>
      </trkpt>
      <trkpt lat="46.36947" lon="-0.3583">
        <ele>42.9801</ele>
        <time>2011-06-02T12:20:28Z</time>
      </trkpt>
      <trkpt lat="46.36947" lon="-0.35831">
        <ele>42.9024</ele>
        <time>2011-06-02T12:20:29Z</time>
      </trkpt>
      <trkpt lat="46.36947" lon="-0.35833">
        <ele>42.8238</ele>
        <time>2011-06-02T12:20:30Z</time>
      </trkpt>
      <trkpt lat="46.36948" lon="-0.35834">
        <ele>42.7542</ele>
        <time>2011-06-02T12:20:31Z</time>
      </trkpt>
      <trkpt lat="46.36948" lon="-0.35836">
        <ele>42.6788</ele>
        <time>2011-06-02T12:20:32Z</time>
      </trkpt>
      <trkpt lat="46.36949" lon="-0.35837">
        <ele>42.6087</ele>
        <time>2011-06-02T12:20:33Z</time>
      </trkpt>
      <trkpt lat="46.36949" lon="-0.35839">
        <ele>42.5359</ele>
        <time>2011-06-02T12:20:34Z</time>
      </trkpt>
      <trkpt lat="46.3695" lon="-0.3584">
        <ele>42.4657</ele>
        <time>2011-06-02T12:20:35Z</time>
      </trkpt>
      <trkpt lat="46.3695" lon="-0.35841">
        <ele>42.3982</ele>
        <time>2011-06-02T12:20:36Z</time>
      </trkpt>
      <trkpt lat="46.36951" lon="-0.35842">
        <ele>42.3265</ele>
        <time>2011-06-02T12:20:37Z</time>
      </trkpt>
      <trkpt lat="46.36951" lon="-0.35843">
        <ele>42.2583</ele>
        <time>2011-06-02T12:20:38Z</time>
      </trkpt>
      <trkpt lat="46.36951" lon="-0.35844">
        <ele>42.1906</ele>
        <time>2011-06-02T12:20:39Z</time>
      </trkpt>
      <trkpt lat="46.36952" lon="-0.35845">
        <ele>42.1239</ele>
        <time>2011-06-02T12:20:40Z</time>
      </trkpt>
      <trkpt lat="46.36953" lon="-0.35846">
        <ele>42.0561</ele>
        <time>2011-06-02T12:20:41Z</time>
      </trkpt>
      <trkpt lat="46.36953" lon="-0.35847">
        <ele>41.9911</ele>
        <time>2011-06-02T12:20:42Z</time>
      </trkpt>
      <trkpt lat="46.36954" lon="-0.35849">
        <ele>41.9259</ele>
        <time>2011-06-02T12:20:43Z</time>
      </trkpt>
      <trkpt lat="46.36954" lon="-0.3585">
        <ele>41.8605</ele>
        <time>2011-06-02T12:20:44Z</time>
      </trkpt>
      <trkpt lat="46.36954" lon="-0.35851">
        <ele>41.7937</ele>
        <time>2011-06-02T12:20:45Z</time>
      </trkpt>
      <trkpt lat="46.36955" lon="-0.35853">
        <ele>41.7274</ele>
        <time>2011-06-02T12:20:46Z</time>
      </trkpt>
      <trkpt lat="46.36955" lon="-0.35854">
        <ele>41.6627</ele>
        <time>2011-06-02T12:20:47Z</time>
      </trkpt>
      <trkpt lat="46.36955" lon="-0.35856">
        <ele>41.6</ele>
        <time>2011-06-02T12:20:48Z</time>
      </trkpt>
      <trkpt lat="46.36955" lon="-0.35857">
        <ele>41.5425</ele>
        <time>2011-06-02T12:20:49Z</time>
      </trkpt>
      <trkpt lat="46.36955" lon="-0.35859">
        <ele>41.4881</ele>
        <time>2011-06-02T12:20:50Z</time>
      </trkpt>
      <trkpt lat="46.36955" lon="-0.3586">
        <ele>41.4378</ele>
        <time>2011-06-02T12:20:51Z</time>
      </trkpt>
      <trkpt lat="46.36955" lon="-0.35861">
        <ele>41.391</ele>
        <time>2011-06-02T12:20:52Z</time>
      </trkpt>
      <trkpt lat="46.36955" lon="-0.35862">
        <ele>41.3452</ele>
        <time>2011-06-02T12:20:53Z</time>
      </trkpt>
      <trkpt lat="46.36955" lon="-0.35864">
        <ele>41.299</ele>
        <time>2011-06-02T12:20:54Z</time>
      </trkpt>
      <trkpt lat="46.36955" lon="-0.35865">
        <ele>41.257</ele>
        <time>2011-06-02T12:20:55Z</time>
      </trkpt>
      <trkpt lat="46.36954" lon="-0.35866">
        <ele>41.2156</ele>
        <time>2011-06-02T12:20:56Z</time>
      </trkpt>
      <trkpt lat="46.36953" lon="-0.35867">
        <ele>41.1754</ele>
        <time>2011-06-02T12:20:57Z</time>
      </trkpt>
      <trkpt lat="46.36953" lon="-0.35869">
        <ele>41.1346</ele>
        <time>2011-06-02T12:20:58Z</time>
      </trkpt>
      <trkpt lat="46.36953" lon="-0.3587">
        <ele>41.0951</ele>
        <time>2011-06-02T12:20:59Z</time>
      </trkpt>
      <trkpt lat="46.36952" lon="-0.35871">
        <ele>41.0575</ele>
        <time>2011-06-02T12:21:00Z</time>
      </trkpt>
      <trkpt lat="46.36951" lon="-0.35872">
        <ele>41.0249</ele>
        <time>2011-06-02T12:21:01Z</time>
      </trkpt>
      <trkpt lat="46.3695" lon="-0.35873">
        <ele>40.9933</ele>
        <time>2011-06-02T12:21:02Z</time>
      </trkpt>
      <trkpt lat="46.36949" lon="-0.35874">
        <ele>40.9564</ele>
        <time>2011-06-02T12:21:03Z</time>
      </trkpt>
      <trkpt lat="46.36946" lon="-0.35878">
        <ele>40.8473</ele>
        <time>2011-06-02T12:21:15Z</time>
      </trkpt>
      <trkpt lat="46.36951" lon="-0.35878">
        <ele>40.8698</ele>
        <time>2011-06-02T12:21:35Z</time>
      </trkpt>
      <trkpt lat="46.36955" lon="-0.3588">
        <ele>40.1837</ele>
        <time>2011-06-02T12:22:15Z</time>
      </trkpt>
      <trkpt lat="46.3695" lon="-0.35881">
        <ele>39.9539</ele>
        <time>2011-06-02T12:22:29Z</time>
      </trkpt>
      <trkpt lat="46.36955" lon="-0.35881">
        <ele>39.1895</ele>
        <time>2011-06-02T12:23:08Z</time>
      </trkpt>
      <trkpt lat="46.36955" lon="-0.35874">
        <ele>38.8093</ele>
        <time>2011-06-02T12:23:16Z</time>
      </trkpt>
      <trkpt lat="46.36951" lon="-0.35879">
        <ele>38.3011</ele>
        <time>2011-06-02T12:23:36Z</time>
      </trkpt>
      <trkpt lat="46.36947" lon="-0.35876">
        <ele>37.7953</ele>
        <time>2011-06-02T12:24:21Z</time>
      </trkpt>
      <trkpt lat="46.36942" lon="-0.35878">
        <ele>37.5613</ele>
        <time>2011-06-02T12:24:48Z</time>
      </trkpt>
      <trkpt lat="46.3694" lon="-0.35875">
        <ele>37.3659</ele>
        <time>2011-06-02T12:24:58Z</time>
      </trkpt>
      <trkpt lat="46.3694" lon="-0.35876">
        <ele>37.3452</ele>
        <time>2011-06-02T12:24:59Z</time>
      </trkpt>
      <trkpt lat="46.36941" lon="-0.35877">
        <ele>37.3401</ele>
        <time>2011-06-02T12:25:00Z</time>
      </trkpt>
      <trkpt lat="46.36942" lon="-0.35878">
        <ele>37.3366</ele>
        <time>2011-06-02T12:25:01Z</time>
      </trkpt>
      <trkpt lat="46.36943" lon="-0.35879">
        <ele>37.3307</ele>
        <time>2011-06-02T12:25:02Z</time>
      </trkpt>
      <trkpt lat="46.36943" lon="-0.3588">
        <ele>37.3264</ele>
        <time>2011-06-02T12:25:03Z</time>
      </trkpt>
      <trkpt lat="46.36944" lon="-0.35881">
        <ele>37.3207</ele>
        <time>2011-06-02T12:25:04Z</time>
      </trkpt>
      <trkpt lat="46.36945" lon="-0.35883">
        <ele>37.3144</ele>
        <time>2011-06-02T12:25:05Z</time>
      </trkpt>
      <trkpt lat="46.36945" lon="-0.35884">
        <ele>37.3039</ele>
        <time>2011-06-02T12:25:06Z</time>
      </trkpt>
      <trkpt lat="46.36946" lon="-0.35885">
        <ele>37.2971</ele>
        <time>2011-06-02T12:25:07Z</time>
      </trkpt>
      <trkpt lat="46.36947" lon="-0.35886">
        <ele>37.2899</ele>
        <time>2011-06-02T12:25:08Z</time>
      </trkpt>
      <trkpt lat="46.36947" lon="-0.35888">
        <ele>37.277</ele>
        <time>2011-06-02T12:25:09Z</time>
      </trkpt>
      <trkpt lat="46.36948" lon="-0.3589">
        <ele>37.2595</ele>
        <time>2011-06-02T12:25:10Z</time>
      </trkpt>
      <trkpt lat="46.36948" lon="-0.35892">
        <ele>37.244</ele>
        <time>2011-06-02T12:25:11Z</time>
      </trkpt>
      <trkpt lat="46.36949" lon="-0.35894">
        <ele>37.2048</ele>
        <time>2011-06-02T12:25:12Z</time>
      </trkpt>
      <trkpt lat="46.3695" lon="-0.35896">
        <ele>37.165</ele>
        <time>2011-06-02T12:25:13Z</time>
      </trkpt>
      <trkpt lat="46.3695" lon="-0.35898">
        <ele>37.1272</ele>
        <time>2011-06-02T12:25:14Z</time>
      </trkpt>
      <trkpt lat="46.36951" lon="-0.359">
        <ele>37.0953</ele>
        <time>2011-06-02T12:25:15Z</time>
      </trkpt>
      <trkpt lat="46.36951" lon="-0.35902">
        <ele>37.0779</ele>
        <time>2011-06-02T12:25:16Z</time>
      </trkpt>
      <trkpt lat="46.36951" lon="-0.35904">
        <ele>37.0688</ele>
        <time>2011-06-02T12:25:17Z</time>
      </trkpt>
      <trkpt lat="46.36952" lon="-0.35906">
        <ele>37.0723</ele>
        <time>2011-06-02T12:25:18Z</time>
      </trkpt>
      <trkpt lat="46.36953" lon="-0.35909">
        <ele>37.0861</ele>
        <time>2011-06-02T12:25:19Z</time>
      </trkpt>
      <trkpt lat="46.36953" lon="-0.35911">
        <ele>37.1022</ele>
        <time>2011-06-02T12:25:20Z</time>
      </trkpt>
      <trkpt lat="46.36953" lon="-0.35912">
        <ele>37.1208</ele>
        <time>2011-06-02T12:25:21Z</time>
      </trkpt>
      <trkpt lat="46.36954" lon="-0.35914">
        <ele>37.1457</ele>
        <time>2011-06-02T12:25:22Z</time>
      </trkpt>
      <trkpt lat="46.36955" lon="-0.35916">
        <ele>37.1671</ele>
        <time>2011-06-02T12:25:23Z</time>
      </trkpt>
      <trkpt lat="46.36956" lon="-0.35917">
        <ele>37.1825</ele>
        <time>2011-06-02T12:25:24Z</time>
      </trkpt>
      <trkpt lat="46.36957" lon="-0.35919">
        <ele>37.1983</ele>
        <time>2011-06-02T12:25:25Z</time>
      </trkpt>
      <trkpt lat="46.36958" lon="-0.35921">
        <ele>37.2057</ele>
        <time>2011-06-02T12:25:26Z</time>
      </trkpt>
      <trkpt lat="46.36958" lon="-0.35922">
        <ele>37.2101</ele>
        <time>2011-06-02T12:25:27Z</time>
      </trkpt>
      <trkpt lat="46.36959" lon="-0.35924">
        <ele>37.2102</ele>
        <time>2011-06-02T12:25:28Z</time>
      </trkpt>
      <trkpt lat="46.3696" lon="-0.35925">
        <ele>37.2017</ele>
        <time>2011-06-02T12:25:29Z</time>
      </trkpt>
      <trkpt lat="46.36961" lon="-0.35926">
        <ele>37.185</ele>
        <time>2011-06-02T12:25:30Z</time>
      </trkpt>
      <trkpt lat="46.36963" lon="-0.35927">
        <ele>37.1602</ele>
        <time>2011-06-02T12:25:31Z</time>
      </trkpt>
      <trkpt lat="46.36964" lon="-0.35927">
        <ele>37.1295</ele>
        <time>2011-06-02T12:25:32Z</time>
      </trkpt>
      <trkpt lat="46.36965" lon="-0.35928">
        <ele>37.095</ele>
        <time>2011-06-02T12:25:33Z</time>
      </trkpt>
      <trkpt lat="46.36966" lon="-0.35928">
        <ele>37.0588</ele>
        <time>2011-06-02T12:25:34Z</time>
      </trkpt>
      <trkpt lat="46.36967" lon="-0.35929">
        <ele>37.0225</ele>
        <time>2011-06-02T12:25:35Z</time>
      </trkpt>
      <trkpt lat="46.36968" lon="-0.3593">
        <ele>36.9857</ele>
        <time>2011-06-02T12:25:36Z</time>
      </trkpt>
      <trkpt lat="46.36969" lon="-0.3593">
        <ele>36.9481</ele>
        <time>2011-06-02T12:25:37Z</time>
      </trkpt>
      <trkpt lat="46.3697" lon="-0.35932">
        <ele>36.9137</ele>
        <time>2011-06-02T12:25:38Z</time>
      </trkpt>
      <trkpt lat="46.36971" lon="-0.35933">
        <ele>36.8805</ele>
        <time>2011-06-02T12:25:39Z</time>
      </trkpt>
      <trkpt lat="46.36972" lon="-0.35934">
        <ele>36.8507</ele>
        <time>2011-06-02T12:25:40Z</time>
      </trkpt>
      <trkpt lat="46.36972" lon="-0.35936">
        <ele>36.8252</ele>
        <time>2011-06-02T12:25:41Z</time>
      </trkpt>
      <trkpt lat="46.36974" lon="-0.35936">
        <ele>36.7994</ele>
        <time>2011-06-02T12:25:42Z</time>
      </trkpt>
      <trkpt lat="46.36974" lon="-0.35937">
        <ele>36.7702</ele>
        <time>2011-06-02T12:25:43Z</time>
      </trkpt>
      <trkpt lat="46.36975" lon="-0.35938">
        <ele>36.7405</ele>
        <time>2011-06-02T12:25:44Z</time>
      </trkpt>
      <trkpt lat="46.36976" lon="-0.35939">
        <ele>36.7094</ele>
        <time>2011-06-02T12:25:45Z</time>
      </trkpt>
      <trkpt lat="46.36976" lon="-0.35939">
        <ele>36.6773</ele>
        <time>2011-06-02T12:25:46Z</time>
      </trkpt>
      <trkpt lat="46.36977" lon="-0.3594">
        <ele>36.6449</ele>
        <time>2011-06-02T12:25:47Z</time>
      </trkpt>
      <trkpt lat="46.36978" lon="-0.35941">
        <ele>36.6137</ele>
        <time>2011-06-02T12:25:48Z</time>
      </trkpt>
      <trkpt lat="46.36978" lon="-0.35941">
        <ele>36.5812</ele>
        <time>2011-06-02T12:25:49Z</time>
      </trkpt>
      <trkpt lat="46.36979" lon="-0.35942">
        <ele>36.5509</ele>
        <time>2011-06-02T12:25:50Z</time>
      </trkpt>
      <trkpt lat="46.36979" lon="-0.35943">
        <ele>36.5204</ele>
        <time>2011-06-02T12:25:51Z</time>
      </trkpt>
      <trkpt lat="46.36979" lon="-0.35944">
        <ele>36.4977</ele>
        <time>2011-06-02T12:25:52Z</time>
      </trkpt>
      <trkpt lat="46.3698" lon="-0.35945">
        <ele>36.4759</ele>
        <time>2011-06-02T12:25:53Z</time>
      </trkpt>
      <trkpt lat="46.3698" lon="-0.35947">
        <ele>36.4597</ele>
        <time>2011-06-02T12:25:54Z</time>
      </trkpt>
      <trkpt lat="46.3698" lon="-0.35949">
        <ele>36.4418</ele>
        <time>2011-06-02T12:25:55Z</time>
      </trkpt>
      <trkpt lat="46.3698" lon="-0.3595">
        <ele>36.4217</ele>
        <time>2011-06-02T12:25:56Z</time>
      </trkpt>
      <trkpt lat="46.3698" lon="-0.35951">
        <ele>36.4039</ele>
        <time>2011-06-02T12:25:57Z</time>
      </trkpt>
      <trkpt lat="46.3698" lon="-0.35952">
        <ele>36.3865</ele>
        <time>2011-06-02T12:25:58Z</time>
      </trkpt>
      <trkpt lat="46.3698" lon="-0.35953">
        <ele>36.3694</ele>
        <time>2011-06-02T12:25:59Z</time>
      </trkpt>
      <trkpt lat="46.36981" lon="-0.35954">
        <ele>36.3523</ele>
        <time>2011-06-02T12:26:00Z</time>
      </trkpt>
      <trkpt lat="46.36982" lon="-0.35955">
        <ele>36.3379</ele>
        <time>2011-06-02T12:26:01Z</time>
      </trkpt>
      <trkpt lat="46.36982" lon="-0.35956">
        <ele>36.3227</ele>
        <time>2011-06-02T12:26:02Z</time>
      </trkpt>
      <trkpt lat="46.36982" lon="-0.35957">
        <ele>36.3086</ele>
        <time>2011-06-02T12:26:03Z</time>
      </trkpt>
      <trkpt lat="46.36983" lon="-0.35958">
        <ele>36.2926</ele>
        <time>2011-06-02T12:26:04Z</time>
      </trkpt>
      <trkpt lat="46.36983" lon="-0.35958">
        <ele>36.2758</ele>
        <time>2011-06-02T12:26:05Z</time>
      </trkpt>
      <trkpt lat="46.36983" lon="-0.35959">
        <ele>36.2577</ele>
        <time>2011-06-02T12:26:06Z</time>
      </trkpt>
      <trkpt lat="46.36983" lon="-0.3596">
        <ele>36.2447</ele>
        <time>2011-06-02T12:26:07Z</time>
      </trkpt>
      <trkpt lat="46.36983" lon="-0.35961">
        <ele>36.2331</ele>
        <time>2011-06-02T12:26:08Z</time>
      </trkpt>
      <trkpt lat="46.36983" lon="-0.35963">
        <ele>36.2195</ele>
        <time>2011-06-02T12:26:09Z</time>
      </trkpt>
      <trkpt lat="46.36983" lon="-0.35964">
        <ele>36.2032</ele>
        <time>2011-06-02T12:26:10Z</time>
      </trkpt>
      <trkpt lat="46.36983" lon="-0.35965">
        <ele>36.1878</ele>
        <time>2011-06-02T12:26:11Z</time>
      </trkpt>
      <trkpt lat="46.36984" lon="-0.35966">
        <ele>36.1706</ele>
        <time>2011-06-02T12:26:12Z</time>
      </trkpt>
      <trkpt lat="46.36984" lon="-0.35967">
        <ele>36.1536</ele>
        <time>2011-06-02T12:26:13Z</time>
      </trkpt>
      <trkpt lat="46.36984" lon="-0.35968">
        <ele>36.1384</ele>
        <time>2011-06-02T12:26:14Z</time>
      </trkpt>
      <trkpt lat="46.36983" lon="-0.35969">
        <ele>36.1125</ele>
        <time>2011-06-02T12:26:17Z</time>
      </trkpt>
      <trkpt lat="46.36983" lon="-0.3597">
        <ele>36.1006</ele>
        <time>2011-06-02T12:26:18Z</time>
      </trkpt>
      <trkpt lat="46.36983" lon="-0.35971">
        <ele>36.0928</ele>
        <time>2011-06-02T12:26:19Z</time>
      </trkpt>
      <trkpt lat="46.36983" lon="-0.35972">
        <ele>36.0877</ele>
        <time>2011-06-02T12:26:20Z</time>
      </trkpt>
      <trkpt lat="46.36983" lon="-0.35973">
        <ele>36.0835</ele>
        <time>2011-06-02T12:26:21Z</time>
      </trkpt>
      <trkpt lat="46.36983" lon="-0.35975">
        <ele>36.0863</ele>
        <time>2011-06-02T12:26:22Z</time>
      </trkpt>
      <trkpt lat="46.36983" lon="-0.35976">
        <ele>36.0917</ele>
        <time>2011-06-02T12:26:23Z</time>
      </trkpt>
      <trkpt lat="46.36983" lon="-0.35978">
        <ele>36.107</ele>
        <time>2011-06-02T12:26:24Z</time>
      </trkpt>
      <trkpt lat="46.36983" lon="-0.3598">
        <ele>36.1255</ele>
        <time>2011-06-02T12:26:25Z</time>
      </trkpt>
      <trkpt lat="46.36983" lon="-0.35981">
        <ele>36.1433</ele>
        <time>2011-06-02T12:26:26Z</time>
      </trkpt>
      <trkpt lat="46.36982" lon="-0.35983">
        <ele>36.1612</ele>
        <time>2011-06-02T12:26:27Z</time>
      </trkpt>
      <trkpt lat="46.36982" lon="-0.35985">
        <ele>36.1841</ele>
        <time>2011-06-02T12:26:28Z</time>
      </trkpt>
      <trkpt lat="46.36982" lon="-0.35986">
        <ele>36.2071</ele>
        <time>2011-06-02T12:26:29Z</time>
      </trkpt>
      <trkpt lat="46.36981" lon="-0.35988">
        <ele>36.1552</ele>
        <time>2011-06-02T12:26:34Z</time>
      </trkpt>
      <trkpt lat="46.3698" lon="-0.35988">
        <ele>36.0993</ele>
        <time>2011-06-02T12:26:35Z</time>
      </trkpt>
      <trkpt lat="46.3698" lon="-0.35988">
        <ele>36.0415</ele>
        <time>2011-06-02T12:26:36Z</time>
      </trkpt>
      <trkpt lat="46.36979" lon="-0.35988">
        <ele>35.9843</ele>
        <time>2011-06-02T12:26:37Z</time>
      </trkpt>
      <trkpt lat="46.36979" lon="-0.35988">
        <ele>35.9246</ele>
        <time>2011-06-02T12:26:38Z</time>
      </trkpt>
      <trkpt lat="46.36978" lon="-0.35988">
        <ele>35.857</ele>
        <time>2011-06-02T12:26:39Z</time>
      </trkpt>
      <trkpt lat="46.36977" lon="-0.35988">
        <ele>35.7878</ele>
        <time>2011-06-02T12:26:40Z</time>
      </trkpt>
      <trkpt lat="46.36976" lon="-0.35988">
        <ele>35.718</ele>
        <time>2011-06-02T12:26:41Z</time>
      </trkpt>
      <trkpt lat="46.36975" lon="-0.35988">
        <ele>35.6395</ele>
        <time>2011-06-02T12:26:42Z</time>
      </trkpt>
      <trkpt lat="46.36974" lon="-0.35987">
        <ele>35.562</ele>
        <time>2011-06-02T12:26:43Z</time>
      </trkpt>
      <trkpt lat="46.36973" lon="-0.35987">
        <ele>35.486</ele>
        <time>2011-06-02T12:26:44Z</time>
      </trkpt>
      <trkpt lat="46.36973" lon="-0.3599">
        <ele>35.2299</ele>
        <time>2011-06-02T12:26:50Z</time>
      </trkpt>
      <trkpt lat="46.36972" lon="-0.35992">
        <ele>35.0605</ele>
        <time>2011-06-02T12:26:51Z</time>
      </trkpt>
      <trkpt lat="46.36971" lon="-0.35994">
        <ele>34.8797</ele>
        <time>2011-06-02T12:26:52Z</time>
      </trkpt>
      <trkpt lat="46.36971" lon="-0.35996">
        <ele>34.699</ele>
        <time>2011-06-02T12:26:53Z</time>
      </trkpt>
      <trkpt lat="46.3697" lon="-0.35998">
        <ele>34.5176</ele>
        <time>2011-06-02T12:26:54Z</time>
      </trkpt>
      <trkpt lat="46.3697" lon="-0.36">
        <ele>34.3465</ele>
        <time>2011-06-02T12:26:55Z</time>
      </trkpt>
      <trkpt lat="46.36969" lon="-0.36002">
        <ele>34.203</ele>
        <time>2011-06-02T12:26:56Z</time>
      </trkpt>
      <trkpt lat="46.36969" lon="-0.36005">
        <ele>34.0828</ele>
        <time>2011-06-02T12:26:57Z</time>
      </trkpt>
      <trkpt lat="46.36969" lon="-0.36008">
        <ele>33.9781</ele>
        <time>2011-06-02T12:26:58Z</time>
      </trkpt>
      <trkpt lat="46.36969" lon="-0.3601">
        <ele>33.8786</ele>
        <time>2011-06-02T12:26:59Z</time>
      </trkpt>
      <trkpt lat="46.36969" lon="-0.36012">
        <ele>33.7796</ele>
        <time>2011-06-02T12:27:00Z</time>
      </trkpt>
      <trkpt lat="46.36969" lon="-0.36014">
        <ele>33.6912</ele>
        <time>2011-06-02T12:27:01Z</time>
      </trkpt>
      <trkpt lat="46.36969" lon="-0.36017">
        <ele>33.6158</ele>
        <time>2011-06-02T12:27:02Z</time>
      </trkpt>
      <trkpt lat="46.36969" lon="-0.36019">
        <ele>33.5265</ele>
        <time>2011-06-02T12:27:03Z</time>
      </trkpt>
      <trkpt lat="46.36969" lon="-0.36022">
        <ele>33.4469</ele>
        <time>2011-06-02T12:27:04Z</time>
      </trkpt>
      <trkpt lat="46.36969" lon="-0.36024">
        <ele>33.3717</ele>
        <time>2011-06-02T12:27:05Z</time>
      </trkpt>
      <trkpt lat="46.36969" lon="-0.36027">
        <ele>33.2953</ele>
        <time>2011-06-02T12:27:06Z</time>
      </trkpt>
      <trkpt lat="46.36969" lon="-0.36029">
        <ele>33.2145</ele>
        <time>2011-06-02T12:27:07Z</time>
      </trkpt>
      <trkpt lat="46.36969" lon="-0.36031">
        <ele>33.1457</ele>
        <time>2011-06-02T12:27:08Z</time>
      </trkpt>
      <trkpt lat="46.36969" lon="-0.36034">
        <ele>33.0841</ele>
        <time>2011-06-02T12:27:09Z</time>
      </trkpt>
      <trkpt lat="46.36969" lon="-0.36036">
        <ele>33.024</ele>
        <time>2011-06-02T12:27:10Z</time>
      </trkpt>
      <trkpt lat="46.36969" lon="-0.36038">
        <ele>32.973</ele>
        <time>2011-06-02T12:27:11Z</time>
      </trkpt>
      <trkpt lat="46.36969" lon="-0.36039">
        <ele>32.9253</ele>
        <time>2011-06-02T12:27:12Z</time>
      </trkpt>
      <trkpt lat="46.36969" lon="-0.36041">
        <ele>32.8743</ele>
        <time>2011-06-02T12:27:13Z</time>
      </trkpt>
      <trkpt lat="46.36969" lon="-0.36043">
        <ele>32.8278</ele>
        <time>2011-06-02T12:27:14Z</time>
      </trkpt>
      <trkpt lat="46.36969" lon="-0.36044">
        <ele>32.793</ele>
        <time>2011-06-02T12:27:15Z</time>
      </trkpt>
      <trkpt lat="46.36969" lon="-0.36046">
        <ele>32.7676</ele>
        <time>2011-06-02T12:27:16Z</time>
      </trkpt>
      <trkpt lat="46.36969" lon="-0.36048">
        <ele>32.7465</ele>
        <time>2011-06-02T12:27:17Z</time>
      </trkpt>
      <trkpt lat="46.36969" lon="-0.3605">
        <ele>32.7258</ele>
        <time>2011-06-02T12:27:18Z</time>
      </trkpt>
      <trkpt lat="46.36969" lon="-0.36052">
        <ele>32.7048</ele>
        <time>2011-06-02T12:27:19Z</time>
      </trkpt>
      <trkpt lat="46.36969" lon="-0.36054">
        <ele>32.6866</ele>
        <time>2011-06-02T12:27:20Z</time>
      </trkpt>
      <trkpt lat="46.36969" lon="-0.36056">
        <ele>32.6659</ele>
        <time>2011-06-02T12:27:21Z</time>
      </trkpt>
      <trkpt lat="46.3697" lon="-0.36058">
        <ele>32.6477</ele>
        <time>2011-06-02T12:27:22Z</time>
      </trkpt>
      <trkpt lat="46.3697" lon="-0.3606">
        <ele>32.644</ele>
        <time>2011-06-02T12:27:23Z</time>
      </trkpt>
      <trkpt lat="46.36971" lon="-0.36062">
        <ele>32.6433</ele>
        <time>2011-06-02T12:27:24Z</time>
      </trkpt>
      <trkpt lat="46.36971" lon="-0.36064">
        <ele>32.6661</ele>
        <time>2011-06-02T12:27:25Z</time>
      </trkpt>
      <trkpt lat="46.36971" lon="-0.36066">
        <ele>32.712</ele>
        <time>2011-06-02T12:27:26Z</time>
      </trkpt>
      <trkpt lat="46.36972" lon="-0.36067">
        <ele>32.7664</ele>
        <time>2011-06-02T12:27:27Z</time>
      </trkpt>
      <trkpt lat="46.36972" lon="-0.36069">
        <ele>32.8319</ele>
        <time>2011-06-02T12:27:28Z</time>
      </trkpt>
      <trkpt lat="46.36972" lon="-0.3607">
        <ele>32.8988</ele>
        <time>2011-06-02T12:27:29Z</time>
      </trkpt>
      <trkpt lat="46.36972" lon="-0.36071">
        <ele>32.9644</ele>
        <time>2011-06-02T12:27:30Z</time>
      </trkpt>
      <trkpt lat="46.36973" lon="-0.36072">
        <ele>33.0276</ele>
        <time>2011-06-02T12:27:31Z</time>
      </trkpt>
      <trkpt lat="46.36973" lon="-0.36073">
        <ele>33.0832</ele>
        <time>2011-06-02T12:27:32Z</time>
      </trkpt>
      <trkpt lat="46.36973" lon="-0.36074">
        <ele>33.1353</ele>
        <time>2011-06-02T12:27:33Z</time>
      </trkpt>
      <trkpt lat="46.36973" lon="-0.36075">
        <ele>33.1886</ele>
        <time>2011-06-02T12:27:34Z</time>
      </trkpt>
      <trkpt lat="46.36974" lon="-0.36077">
        <ele>33.2577</ele>
        <time>2011-06-02T12:27:38Z</time>
      </trkpt>
      <trkpt lat="46.36974" lon="-0.36078">
        <ele>33.3088</ele>
        <time>2011-06-02T12:27:39Z</time>
      </trkpt>
      <trkpt lat="46.36973" lon="-0.36079">
        <ele>33.3586</ele>
        <time>2011-06-02T12:27:40Z</time>
      </trkpt>
      <trkpt lat="46.36974" lon="-0.36081">
        <ele>33.4082</ele>
        <time>2011-06-02T12:27:41Z</time>
      </trkpt>
      <trkpt lat="46.36974" lon="-0.36082">
        <ele>33.455</ele>
        <time>2011-06-02T12:27:42Z</time>
      </trkpt>
      <trkpt lat="46.36974" lon="-0.36083">
        <ele>33.4946</ele>
        <time>2011-06-02T12:27:43Z</time>
      </trkpt>
      <trkpt lat="46.36974" lon="-0.36084">
        <ele>33.5207</ele>
        <time>2011-06-02T12:27:44Z</time>
      </trkpt>
      <trkpt lat="46.36974" lon="-0.36085">
        <ele>33.5473</ele>
        <time>2011-06-02T12:27:45Z</time>
      </trkpt>
      <trkpt lat="46.36975" lon="-0.36087">
        <ele>33.5726</ele>
        <time>2011-06-02T12:27:46Z</time>
      </trkpt>
      <trkpt lat="46.36974" lon="-0.36089">
        <ele>33.597</ele>
        <time>2011-06-02T12:27:47Z</time>
      </trkpt>
      <trkpt lat="46.36974" lon="-0.3609">
        <ele>33.6207</ele>
        <time>2011-06-02T12:27:48Z</time>
      </trkpt>
      <trkpt lat="46.36974" lon="-0.36092">
        <ele>33.6452</ele>
        <time>2011-06-02T12:27:49Z</time>
      </trkpt>
      <trkpt lat="46.36974" lon="-0.36093">
        <ele>33.6685</ele>
        <time>2011-06-02T12:27:50Z</time>
      </trkpt>
      <trkpt lat="46.36974" lon="-0.36095">
        <ele>33.6916</ele>
        <time>2011-06-02T12:27:51Z</time>
      </trkpt>
      <trkpt lat="46.36974" lon="-0.36096">
        <ele>33.7142</ele>
        <time>2011-06-02T12:27:52Z</time>
      </trkpt>
      <trkpt lat="46.36974" lon="-0.36098">
        <ele>33.7366</ele>
        <time>2011-06-02T12:27:53Z</time>
      </trkpt>
      <trkpt lat="46.36974" lon="-0.36099">
        <ele>33.7556</ele>
        <time>2011-06-02T12:27:54Z</time>
      </trkpt>
      <trkpt lat="46.36974" lon="-0.361">
        <ele>33.7685</ele>
        <time>2011-06-02T12:27:55Z</time>
      </trkpt>
      <trkpt lat="46.36974" lon="-0.36102">
        <ele>33.7794</ele>
        <time>2011-06-02T12:27:56Z</time>
      </trkpt>
      <trkpt lat="46.36974" lon="-0.36102">
        <ele>33.7902</ele>
        <time>2011-06-02T12:27:57Z</time>
      </trkpt>
      <trkpt lat="46.36973" lon="-0.36105">
        <ele>33.7559</ele>
        <time>2011-06-02T12:28:11Z</time>
      </trkpt>
      <trkpt lat="46.36974" lon="-0.36105">
        <ele>33.7199</ele>
        <time>2011-06-02T12:28:12Z</time>
      </trkpt>
      <trkpt lat="46.36974" lon="-0.36105">
        <ele>33.6762</ele>
        <time>2011-06-02T12:28:13Z</time>
      </trkpt>
      <trkpt lat="46.36974" lon="-0.36106">
        <ele>33.6349</ele>
        <time>2011-06-02T12:28:14Z</time>
      </trkpt>
      <trkpt lat="46.36974" lon="-0.36106">
        <ele>33.5947</ele>
        <time>2011-06-02T12:28:15Z</time>
      </trkpt>
      <trkpt lat="46.36975" lon="-0.36109">
        <ele>33.486</ele>
        <time>2011-06-02T12:28:21Z</time>
      </trkpt>
      <trkpt lat="46.36976" lon="-0.3611">
        <ele>33.4424</ele>
        <time>2011-06-02T12:28:22Z</time>
      </trkpt>
      <trkpt lat="46.36976" lon="-0.3611">
        <ele>33.4062</ele>
        <time>2011-06-02T12:28:23Z</time>
      </trkpt>
      <trkpt lat="46.36976" lon="-0.36111">
        <ele>33.4045</ele>
        <time>2011-06-02T12:28:29Z</time>
      </trkpt>
      <trkpt lat="46.36977" lon="-0.36112">
        <ele>33.4117</ele>
        <time>2011-06-02T12:28:30Z</time>
      </trkpt>
      <trkpt lat="46.36977" lon="-0.36113">
        <ele>33.4198</ele>
        <time>2011-06-02T12:28:31Z</time>
      </trkpt>
      <trkpt lat="46.36977" lon="-0.36114">
        <ele>33.4598</ele>
        <time>2011-06-02T12:28:32Z</time>
      </trkpt>
      <trkpt lat="46.36977" lon="-0.36116">
        <ele>33.4959</ele>
        <time>2011-06-02T12:28:33Z</time>
      </trkpt>
      <trkpt lat="46.36977" lon="-0.36117">
        <ele>33.526</ele>
        <time>2011-06-02T12:28:34Z</time>
      </trkpt>
      <trkpt lat="46.36977" lon="-0.36118">
        <ele>33.5656</ele>
        <time>2011-06-02T12:28:35Z</time>
      </trkpt>
      <trkpt lat="46.36978" lon="-0.36119">
        <ele>33.5999</ele>
        <time>2011-06-02T12:28:37Z</time>
      </trkpt>
      <trkpt lat="46.36979" lon="-0.36126">
        <ele>33.4525</ele>
        <time>2011-06-02T12:28:47Z</time>
      </trkpt>
      <trkpt lat="46.36981" lon="-0.36131">
        <ele>33.1025</ele>
        <time>2011-06-02T12:28:53Z</time>
      </trkpt>
      <trkpt lat="46.3698" lon="-0.36132">
        <ele>32.864</ele>
        <time>2011-06-02T12:28:54Z</time>
      </trkpt>
      <trkpt lat="46.3698" lon="-0.36134">
        <ele>32.6337</ele>
        <time>2011-06-02T12:28:55Z</time>
      </trkpt>
      <trkpt lat="46.36979" lon="-0.36135">
        <ele>32.4103</ele>
        <time>2011-06-02T12:28:56Z</time>
      </trkpt>
      <trkpt lat="46.36979" lon="-0.36136">
        <ele>32.1905</ele>
        <time>2011-06-02T12:28:57Z</time>
      </trkpt>
      <trkpt lat="46.36979" lon="-0.36137">
        <ele>31.9895</ele>
        <time>2011-06-02T12:28:58Z</time>
      </trkpt>
      <trkpt lat="46.36979" lon="-0.36138">
        <ele>31.7981</ele>
        <time>2011-06-02T12:28:59Z</time>
      </trkpt>
      <trkpt lat="46.36979" lon="-0.36139">
        <ele>31.616</ele>
        <time>2011-06-02T12:29:00Z</time>
      </trkpt>
      <trkpt lat="46.36979" lon="-0.3614">
        <ele>31.4439</ele>
        <time>2011-06-02T12:29:01Z</time>
      </trkpt>
      <trkpt lat="46.36979" lon="-0.36141">
        <ele>31.2728</ele>
        <time>2011-06-02T12:29:02Z</time>
      </trkpt>
      <trkpt lat="46.36979" lon="-0.36142">
        <ele>31.1073</ele>
        <time>2011-06-02T12:29:03Z</time>
      </trkpt>
      <trkpt lat="46.36979" lon="-0.36143">
        <ele>30.9526</ele>
        <time>2011-06-02T12:29:04Z</time>
      </trkpt>
      <trkpt lat="46.36979" lon="-0.36144">
        <ele>30.8046</ele>
        <time>2011-06-02T12:29:05Z</time>
      </trkpt>
      <trkpt lat="46.3698" lon="-0.36145">
        <ele>30.6587</ele>
        <time>2011-06-02T12:29:06Z</time>
      </trkpt>
      <trkpt lat="46.3698" lon="-0.36146">
        <ele>30.5161</ele>
        <time>2011-06-02T12:29:07Z</time>
      </trkpt>
      <trkpt lat="46.3698" lon="-0.36147">
        <ele>30.374</ele>
        <time>2011-06-02T12:29:08Z</time>
      </trkpt>
      <trkpt lat="46.36979" lon="-0.36148">
        <ele>30.2399</ele>
        <time>2011-06-02T12:29:09Z</time>
      </trkpt>
      <trkpt lat="46.3698" lon="-0.3615">
        <ele>30.1002</ele>
        <time>2011-06-02T12:29:12Z</time>
      </trkpt>
      <trkpt lat="46.3698" lon="-0.36151">
        <ele>29.9864</ele>
        <time>2011-06-02T12:29:14Z</time>
      </trkpt>
      <trkpt lat="46.3698" lon="-0.36152">
        <ele>29.89</ele>
        <time>2011-06-02T12:29:15Z</time>
      </trkpt>
      <trkpt lat="46.3698" lon="-0.36154">
        <ele>29.7905</ele>
        <time>2011-06-02T12:29:16Z</time>
      </trkpt>
      <trkpt lat="46.36981" lon="-0.36155">
        <ele>29.6993</ele>
        <time>2011-06-02T12:29:17Z</time>
      </trkpt>
      <trkpt lat="46.3698" lon="-0.36157">
        <ele>29.6244</ele>
        <time>2011-06-02T12:29:18Z</time>
      </trkpt>
      <trkpt lat="46.3698" lon="-0.36158">
        <ele>29.5557</ele>
        <time>2011-06-02T12:29:19Z</time>
      </trkpt>
      <trkpt lat="46.3698" lon="-0.36159">
        <ele>29.4908</ele>
        <time>2011-06-02T12:29:20Z</time>
      </trkpt>
      <trkpt lat="46.3698" lon="-0.36161">
        <ele>29.4347</ele>
        <time>2011-06-02T12:29:21Z</time>
      </trkpt>
      <trkpt lat="46.3698" lon="-0.36162">
        <ele>29.3816</ele>
        <time>2011-06-02T12:29:22Z</time>
      </trkpt>
      <trkpt lat="46.3698" lon="-0.36163">
        <ele>29.3368</ele>
        <time>2011-06-02T12:29:23Z</time>
      </trkpt>
      <trkpt lat="46.3698" lon="-0.36165">
        <ele>29.2978</ele>
        <time>2011-06-02T12:29:24Z</time>
      </trkpt>
      <trkpt lat="46.3698" lon="-0.36166">
        <ele>29.2588</ele>
        <time>2011-06-02T12:29:25Z</time>
      </trkpt>
      <trkpt lat="46.3698" lon="-0.36167">
        <ele>29.2169</ele>
        <time>2011-06-02T12:29:26Z</time>
      </trkpt>
      <trkpt lat="46.3698" lon="-0.36169">
        <ele>29.1759</ele>
        <time>2011-06-02T12:29:27Z</time>
      </trkpt>
      <trkpt lat="46.3698" lon="-0.3617">
        <ele>29.1387</ele>
        <time>2011-06-02T12:29:28Z</time>
      </trkpt>
      <trkpt lat="46.3698" lon="-0.36171">
        <ele>29.1019</ele>
        <time>2011-06-02T12:29:29Z</time>
      </trkpt>
      <trkpt lat="46.3698" lon="-0.36172">
        <ele>29.0699</ele>
        <time>2011-06-02T12:29:30Z</time>
      </trkpt>
      <trkpt lat="46.3698" lon="-0.36174">
        <ele>29.0445</ele>
        <time>2011-06-02T12:29:31Z</time>
      </trkpt>
      <trkpt lat="46.36979" lon="-0.36175">
        <ele>29.0297</ele>
        <time>2011-06-02T12:29:32Z</time>
      </trkpt>
      <trkpt lat="46.36979" lon="-0.36176">
        <ele>29.0191</ele>
        <time>2011-06-02T12:29:33Z</time>
      </trkpt>
      <trkpt lat="46.3698" lon="-0.36177">
        <ele>29.0067</ele>
        <time>2011-06-02T12:29:34Z</time>
      </trkpt>
      <trkpt lat="46.3698" lon="-0.36178">
        <ele>28.9953</ele>
        <time>2011-06-02T12:29:35Z</time>
      </trkpt>
      <trkpt lat="46.3698" lon="-0.3618">
        <ele>28.9952</ele>
        <time>2011-06-02T12:29:36Z</time>
      </trkpt>
      <trkpt lat="46.3698" lon="-0.36181">
        <ele>28.9941</ele>
        <time>2011-06-02T12:29:37Z</time>
      </trkpt>
      <trkpt lat="46.3698" lon="-0.36183">
        <ele>28.9888</ele>
        <time>2011-06-02T12:29:38Z</time>
      </trkpt>
      <trkpt lat="46.3698" lon="-0.36184">
        <ele>28.984</ele>
        <time>2011-06-02T12:29:39Z</time>
      </trkpt>
      <trkpt lat="46.36979" lon="-0.36185">
        <ele>28.9797</ele>
        <time>2011-06-02T12:29:40Z</time>
      </trkpt>
      <trkpt lat="46.36979" lon="-0.36187">
        <ele>28.9754</ele>
        <time>2011-06-02T12:29:41Z</time>
      </trkpt>
      <trkpt lat="46.36979" lon="-0.36188">
        <ele>28.9709</ele>
        <time>2011-06-02T12:29:42Z</time>
      </trkpt>
      <trkpt lat="46.36979" lon="-0.36189">
        <ele>28.9678</ele>
        <time>2011-06-02T12:29:43Z</time>
      </trkpt>
      <trkpt lat="46.36978" lon="-0.3619">
        <ele>28.9644</ele>
        <time>2011-06-02T12:29:44Z</time>
      </trkpt>
      <trkpt lat="46.36978" lon="-0.36191">
        <ele>28.9616</ele>
        <time>2011-06-02T12:29:45Z</time>
      </trkpt>
      <trkpt lat="46.36978" lon="-0.36193">
        <ele>28.9691</ele>
        <time>2011-06-02T12:29:46Z</time>
      </trkpt>
      <trkpt lat="46.36977" lon="-0.36194">
        <ele>28.9772</ele>
        <time>2011-06-02T12:29:47Z</time>
      </trkpt>
      <trkpt lat="46.36977" lon="-0.36196">
        <ele>28.9854</ele>
        <time>2011-06-02T12:29:48Z</time>
      </trkpt>
      <trkpt lat="46.36976" lon="-0.36197">
        <ele>28.9947</ele>
        <time>2011-06-02T12:29:49Z</time>
      </trkpt>
      <trkpt lat="46.36976" lon="-0.36199">
        <ele>29.0067</ele>
        <time>2011-06-02T12:29:50Z</time>
      </trkpt>
      <trkpt lat="46.36976" lon="-0.362">
        <ele>29.0189</ele>
        <time>2011-06-02T12:29:51Z</time>
      </trkpt>
      <trkpt lat="46.36975" lon="-0.36201">
        <ele>29.0372</ele>
        <time>2011-06-02T12:29:52Z</time>
      </trkpt>
      <trkpt lat="46.36975" lon="-0.36202">
        <ele>29.0578</ele>
        <time>2011-06-02T12:29:53Z</time>
      </trkpt>
      <trkpt lat="46.36974" lon="-0.36203">
        <ele>29.0777</ele>
        <time>2011-06-02T12:29:54Z</time>
      </trkpt>
      <trkpt lat="46.36974" lon="-0.36203">
        <ele>29.1015</ele>
        <time>2011-06-02T12:29:55Z</time>
      </trkpt>
      <trkpt lat="46.36973" lon="-0.36204">
        <ele>29.1333</ele>
        <time>2011-06-02T12:29:56Z</time>
      </trkpt>
      <trkpt lat="46.36972" lon="-0.36205">
        <ele>29.172</ele>
        <time>2011-06-02T12:29:57Z</time>
      </trkpt>
      <trkpt lat="46.36972" lon="-0.36206">
        <ele>29.2136</ele>
        <time>2011-06-02T12:29:58Z</time>
      </trkpt>
      <trkpt lat="46.36971" lon="-0.36207">
        <ele>29.2583</ele>
        <time>2011-06-02T12:29:59Z</time>
      </trkpt>
      <trkpt lat="46.3697" lon="-0.36209">
        <ele>29.3025</ele>
        <time>2011-06-02T12:30:00Z</time>
      </trkpt>
      <trkpt lat="46.36969" lon="-0.3621">
        <ele>29.3507</ele>
        <time>2011-06-02T12:30:01Z</time>
      </trkpt>
      <trkpt lat="46.36968" lon="-0.36212">
        <ele>29.4062</ele>
        <time>2011-06-02T12:30:02Z</time>
      </trkpt>
      <trkpt lat="46.36967" lon="-0.36213">
        <ele>29.4622</ele>
        <time>2011-06-02T12:30:03Z</time>
      </trkpt>
      <trkpt lat="46.36966" lon="-0.36214">
        <ele>29.5174</ele>
        <time>2011-06-02T12:30:04Z</time>
      </trkpt>
      <trkpt lat="46.36965" lon="-0.36215">
        <ele>29.5663</ele>
        <time>2011-06-02T12:30:05Z</time>
      </trkpt>
      <trkpt lat="46.36964" lon="-0.36215">
        <ele>29.6146</ele>
        <time>2011-06-02T12:30:06Z</time>
      </trkpt>
      <trkpt lat="46.36964" lon="-0.36216">
        <ele>29.6619</ele>
        <time>2011-06-02T12:30:07Z</time>
      </trkpt>
      <trkpt lat="46.36963" lon="-0.36217">
        <ele>29.7059</ele>
        <time>2011-06-02T12:30:08Z</time>
      </trkpt>
      <trkpt lat="46.36962" lon="-0.36218">
        <ele>29.7488</ele>
        <time>2011-06-02T12:30:09Z</time>
      </trkpt>
      <trkpt lat="46.36961" lon="-0.36219">
        <ele>29.7925</ele>
        <time>2011-06-02T12:30:10Z</time>
      </trkpt>
      <trkpt lat="46.36961" lon="-0.3622">
        <ele>29.8361</ele>
        <time>2011-06-02T12:30:11Z</time>
      </trkpt>
      <trkpt lat="46.3696" lon="-0.36221">
        <ele>29.8817</ele>
        <time>2011-06-02T12:30:12Z</time>
      </trkpt>
      <trkpt lat="46.36959" lon="-0.36221">
        <ele>29.9262</ele>
        <time>2011-06-02T12:30:13Z</time>
      </trkpt>
      <trkpt lat="46.36958" lon="-0.36222">
        <ele>29.9653</ele>
        <time>2011-06-02T12:30:14Z</time>
      </trkpt>
      <trkpt lat="46.36957" lon="-0.36224">
        <ele>30.0082</ele>
        <time>2011-06-02T12:30:15Z</time>
      </trkpt>
      <trkpt lat="46.36956" lon="-0.36225">
        <ele>30.0555</ele>
        <time>2011-06-02T12:30:16Z</time>
      </trkpt>
      <trkpt lat="46.36955" lon="-0.36227">
        <ele>30.1082</ele>
        <time>2011-06-02T12:30:17Z</time>
      </trkpt>
      <trkpt lat="46.36954" lon="-0.36228">
        <ele>30.1601</ele>
        <time>2011-06-02T12:30:18Z</time>
      </trkpt>
      <trkpt lat="46.36953" lon="-0.3623">
        <ele>30.2028</ele>
        <time>2011-06-02T12:30:19Z</time>
      </trkpt>
      <trkpt lat="46.36952" lon="-0.36232">
        <ele>30.2431</ele>
        <time>2011-06-02T12:30:20Z</time>
      </trkpt>
      <trkpt lat="46.36951" lon="-0.36233">
        <ele>30.2822</ele>
        <time>2011-06-02T12:30:21Z</time>
      </trkpt>
      <trkpt lat="46.36951" lon="-0.36234">
        <ele>30.3221</ele>
        <time>2011-06-02T12:30:22Z</time>
      </trkpt>
      <trkpt lat="46.36951" lon="-0.36236">
        <ele>30.3601</ele>
        <time>2011-06-02T12:30:23Z</time>
      </trkpt>
      <trkpt lat="46.36951" lon="-0.36237">
        <ele>30.3966</ele>
        <time>2011-06-02T12:30:24Z</time>
      </trkpt>
      <trkpt lat="46.36951" lon="-0.36239">
        <ele>30.4298</ele>
        <time>2011-06-02T12:30:25Z</time>
      </trkpt>
      <trkpt lat="46.36951" lon="-0.3624">
        <ele>30.4617</ele>
        <time>2011-06-02T12:30:26Z</time>
      </trkpt>
      <trkpt lat="46.3695" lon="-0.36242">
        <ele>30.4905</ele>
        <time>2011-06-02T12:30:27Z</time>
      </trkpt>
      <trkpt lat="46.3695" lon="-0.36244">
        <ele>30.5217</ele>
        <time>2011-06-02T12:30:28Z</time>
      </trkpt>
      <trkpt lat="46.3695" lon="-0.36246">
        <ele>30.5532</ele>
        <time>2011-06-02T12:30:29Z</time>
      </trkpt>
      <trkpt lat="46.3695" lon="-0.36247">
        <ele>30.5829</ele>
        <time>2011-06-02T12:30:30Z</time>
      </trkpt>
      <trkpt lat="46.3695" lon="-0.36249">
        <ele>30.6124</ele>
        <time>2011-06-02T12:30:31Z</time>
      </trkpt>
      <trkpt lat="46.3695" lon="-0.3625">
        <ele>30.6399</ele>
        <time>2011-06-02T12:30:32Z</time>
      </trkpt>
      <trkpt lat="46.3695" lon="-0.36251">
        <ele>30.665</ele>
        <time>2011-06-02T12:30:33Z</time>
      </trkpt>
      <trkpt lat="46.3695" lon="-0.36252">
        <ele>30.6904</ele>
        <time>2011-06-02T12:30:34Z</time>
      </trkpt>
      <trkpt lat="46.36949" lon="-0.36254">
        <ele>30.7148</ele>
        <time>2011-06-02T12:30:35Z</time>
      </trkpt>
      <trkpt lat="46.36949" lon="-0.36255">
        <ele>30.7412</ele>
        <time>2011-06-02T12:30:36Z</time>
      </trkpt>
      <trkpt lat="46.36949" lon="-0.36256">
        <ele>30.7745</ele>
        <time>2011-06-02T12:30:37Z</time>
      </trkpt>
      <trkpt lat="46.36949" lon="-0.36258">
        <ele>30.8041</ele>
        <time>2011-06-02T12:30:38Z</time>
      </trkpt>
      <trkpt lat="46.36948" lon="-0.36259">
        <ele>30.8372</ele>
        <time>2011-06-02T12:30:39Z</time>
      </trkpt>
      <trkpt lat="46.36948" lon="-0.3626">
        <ele>30.8743</ele>
        <time>2011-06-02T12:30:40Z</time>
      </trkpt>
      <trkpt lat="46.36948" lon="-0.36261">
        <ele>30.9093</ele>
        <time>2011-06-02T12:30:41Z</time>
      </trkpt>
      <trkpt lat="46.36948" lon="-0.36262">
        <ele>30.9425</ele>
        <time>2011-06-02T12:30:42Z</time>
      </trkpt>
      <trkpt lat="46.36949" lon="-0.36263">
        <ele>30.9764</ele>
        <time>2011-06-02T12:30:43Z</time>
      </trkpt>
      <trkpt lat="46.36949" lon="-0.36264">
        <ele>31.0092</ele>
        <time>2011-06-02T12:30:44Z</time>
      </trkpt>
      <trkpt lat="46.3695" lon="-0.36265">
        <ele>31.0396</ele>
        <time>2011-06-02T12:30:45Z</time>
      </trkpt>
      <trkpt lat="46.3695" lon="-0.36266">
        <ele>31.0681</ele>
        <time>2011-06-02T12:30:46Z</time>
      </trkpt>
      <trkpt lat="46.36952" lon="-0.36273">
        <ele>31.0795</ele>
        <time>2011-06-02T12:30:55Z</time>
      </trkpt>
      <trkpt lat="46.36955" lon="-0.36277">
        <ele>30.9472</ele>
        <time>2011-06-02T12:30:58Z</time>
      </trkpt>
      <trkpt lat="46.36956" lon="-0.36279">
        <ele>30.913</ele>
        <time>2011-06-02T12:30:59Z</time>
      </trkpt>
      <trkpt lat="46.36958" lon="-0.3628">
        <ele>30.8781</ele>
        <time>2011-06-02T12:31:00Z</time>
      </trkpt>
      <trkpt lat="46.36958" lon="-0.36281">
        <ele>30.8469</ele>
        <time>2011-06-02T12:31:01Z</time>
      </trkpt>
      <trkpt lat="46.3696" lon="-0.36282">
        <ele>30.8196</ele>
        <time>2011-06-02T12:31:04Z</time>
      </trkpt>
      <trkpt lat="46.36961" lon="-0.36283">
        <ele>30.7983</ele>
        <time>2011-06-02T12:31:05Z</time>
      </trkpt>
      <trkpt lat="46.36961" lon="-0.36283">
        <ele>30.7792</ele>
        <time>2011-06-02T12:31:06Z</time>
      </trkpt>
      <trkpt lat="46.36961" lon="-0.36284">
        <ele>30.764</ele>
        <time>2011-06-02T12:31:07Z</time>
      </trkpt>
      <trkpt lat="46.36962" lon="-0.36285">
        <ele>30.7517</ele>
        <time>2011-06-02T12:31:09Z</time>
      </trkpt>
      <trkpt lat="46.36963" lon="-0.36287">
        <ele>30.7407</ele>
        <time>2011-06-02T12:31:12Z</time>
      </trkpt>
      <trkpt lat="46.36964" lon="-0.36288">
        <ele>30.7375</ele>
        <time>2011-06-02T12:31:13Z</time>
      </trkpt>
      <trkpt lat="46.36964" lon="-0.36289">
        <ele>30.7344</ele>
        <time>2011-06-02T12:31:14Z</time>
      </trkpt>
      <trkpt lat="46.36965" lon="-0.3629">
        <ele>30.7324</ele>
        <time>2011-06-02T12:31:15Z</time>
      </trkpt>
      <trkpt lat="46.36966" lon="-0.36291">
        <ele>30.7371</ele>
        <time>2011-06-02T12:31:16Z</time>
      </trkpt>
      <trkpt lat="46.36968" lon="-0.36297">
        <ele>30.758</ele>
        <time>2011-06-02T12:31:25Z</time>
      </trkpt>
      <trkpt lat="46.36969" lon="-0.36298">
        <ele>30.8944</ele>
        <time>2011-06-02T12:31:29Z</time>
      </trkpt>
      <trkpt lat="46.36969" lon="-0.36297">
        <ele>30.9885</ele>
        <time>2011-06-02T12:31:30Z</time>
      </trkpt>
      <trkpt lat="46.36969" lon="-0.36297">
        <ele>31.068</ele>
        <time>2011-06-02T12:31:31Z</time>
      </trkpt>
      <trkpt lat="46.36968" lon="-0.36297">
        <ele>31.1454</ele>
        <time>2011-06-02T12:31:32Z</time>
      </trkpt>
      <trkpt lat="46.36968" lon="-0.36296">
        <ele>31.2056</ele>
        <time>2011-06-02T12:31:33Z</time>
      </trkpt>
      <trkpt lat="46.36968" lon="-0.36296">
        <ele>31.2594</ele>
        <time>2011-06-02T12:31:34Z</time>
      </trkpt>
      <trkpt lat="46.36968" lon="-0.36297">
        <ele>31.3025</ele>
        <time>2011-06-02T12:31:35Z</time>
      </trkpt>
      <trkpt lat="46.36968" lon="-0.36297">
        <ele>31.344</ele>
        <time>2011-06-02T12:31:36Z</time>
      </trkpt>
      <trkpt lat="46.36968" lon="-0.36298">
        <ele>31.377</ele>
        <time>2011-06-02T12:31:37Z</time>
      </trkpt>
      <trkpt lat="46.36967" lon="-0.36299">
        <ele>31.4065</ele>
        <time>2011-06-02T12:31:38Z</time>
      </trkpt>
      <trkpt lat="46.36966" lon="-0.363">
        <ele>31.4292</ele>
        <time>2011-06-02T12:31:39Z</time>
      </trkpt>
      <trkpt lat="46.36965" lon="-0.363">
        <ele>31.4448</ele>
        <time>2011-06-02T12:31:40Z</time>
      </trkpt>
      <trkpt lat="46.36964" lon="-0.36301">
        <ele>31.4608</ele>
        <time>2011-06-02T12:31:41Z</time>
      </trkpt>
      <trkpt lat="46.36963" lon="-0.36302">
        <ele>31.479</ele>
        <time>2011-06-02T12:31:42Z</time>
      </trkpt>
      <trkpt lat="46.36961" lon="-0.36303">
        <ele>31.4961</ele>
        <time>2011-06-02T12:31:43Z</time>
      </trkpt>
      <trkpt lat="46.36961" lon="-0.36304">
        <ele>31.5096</ele>
        <time>2011-06-02T12:31:44Z</time>
      </trkpt>
      <trkpt lat="46.3696" lon="-0.36305">
        <ele>31.5232</ele>
        <time>2011-06-02T12:31:45Z</time>
      </trkpt>
      <trkpt lat="46.3696" lon="-0.36306">
        <ele>31.5362</ele>
        <time>2011-06-02T12:31:46Z</time>
      </trkpt>
      <trkpt lat="46.36959" lon="-0.36307">
        <ele>31.5411</ele>
        <time>2011-06-02T12:31:47Z</time>
      </trkpt>
      <trkpt lat="46.36958" lon="-0.36308">
        <ele>31.5469</ele>
        <time>2011-06-02T12:31:48Z</time>
      </trkpt>
      <trkpt lat="46.36958" lon="-0.36309">
        <ele>31.559</ele>
        <time>2011-06-02T12:31:49Z</time>
      </trkpt>
      <trkpt lat="46.36958" lon="-0.3631">
        <ele>31.5664</ele>
        <time>2011-06-02T12:31:50Z</time>
      </trkpt>
      <trkpt lat="46.36958" lon="-0.36312">
        <ele>31.5717</ele>
        <time>2011-06-02T12:31:51Z</time>
      </trkpt>
      <trkpt lat="46.36958" lon="-0.36313">
        <ele>31.5659</ele>
        <time>2011-06-02T12:31:52Z</time>
      </trkpt>
      <trkpt lat="46.36957" lon="-0.36314">
        <ele>31.5371</ele>
        <time>2011-06-02T12:31:53Z</time>
      </trkpt>
      <trkpt lat="46.36957" lon="-0.36316">
        <ele>31.4705</ele>
        <time>2011-06-02T12:31:54Z</time>
      </trkpt>
      <trkpt lat="46.36956" lon="-0.36318">
        <ele>31.3985</ele>
        <time>2011-06-02T12:31:55Z</time>
      </trkpt>
      <trkpt lat="46.36956" lon="-0.3632">
        <ele>31.3285</ele>
        <time>2011-06-02T12:31:56Z</time>
      </trkpt>
      <trkpt lat="46.36956" lon="-0.36322">
        <ele>31.2595</ele>
        <time>2011-06-02T12:31:57Z</time>
      </trkpt>
      <trkpt lat="46.36956" lon="-0.36323">
        <ele>31.191</ele>
        <time>2011-06-02T12:31:58Z</time>
      </trkpt>
      <trkpt lat="46.36956" lon="-0.36325">
        <ele>31.1095</ele>
        <time>2011-06-02T12:31:59Z</time>
      </trkpt>
      <trkpt lat="46.36956" lon="-0.36327">
        <ele>31.0308</ele>
        <time>2011-06-02T12:32:00Z</time>
      </trkpt>
      <trkpt lat="46.36956" lon="-0.36328">
        <ele>30.9503</ele>
        <time>2011-06-02T12:32:01Z</time>
      </trkpt>
      <trkpt lat="46.36956" lon="-0.36331">
        <ele>30.8702</ele>
        <time>2011-06-02T12:32:02Z</time>
      </trkpt>
      <trkpt lat="46.36956" lon="-0.36333">
        <ele>30.7855</ele>
        <time>2011-06-02T12:32:03Z</time>
      </trkpt>
      <trkpt lat="46.36956" lon="-0.36335">
        <ele>30.7058</ele>
        <time>2011-06-02T12:32:04Z</time>
      </trkpt>
      <trkpt lat="46.36956" lon="-0.36337">
        <ele>30.6371</ele>
        <time>2011-06-02T12:32:05Z</time>
      </trkpt>
      <trkpt lat="46.36956" lon="-0.36338">
        <ele>30.5856</ele>
        <time>2011-06-02T12:32:06Z</time>
      </trkpt>
      <trkpt lat="46.36956" lon="-0.36339">
        <ele>30.5417</ele>
        <time>2011-06-02T12:32:07Z</time>
      </trkpt>
      <trkpt lat="46.36955" lon="-0.3634">
        <ele>30.5069</ele>
        <time>2011-06-02T12:32:08Z</time>
      </trkpt>
      <trkpt lat="46.36955" lon="-0.36342">
        <ele>30.4756</ele>
        <time>2011-06-02T12:32:09Z</time>
      </trkpt>
      <trkpt lat="46.36955" lon="-0.36343">
        <ele>30.445</ele>
        <time>2011-06-02T12:32:10Z</time>
      </trkpt>
      <trkpt lat="46.36955" lon="-0.36344">
        <ele>30.418</ele>
        <time>2011-06-02T12:32:11Z</time>
      </trkpt>
      <trkpt lat="46.36955" lon="-0.36346">
        <ele>30.3741</ele>
        <time>2011-06-02T12:32:12Z</time>
      </trkpt>
      <trkpt lat="46.36954" lon="-0.36349">
        <ele>30.2933</ele>
        <time>2011-06-02T12:32:14Z</time>
      </trkpt>
      <trkpt lat="46.36954" lon="-0.3635">
        <ele>30.2603</ele>
        <time>2011-06-02T12:32:15Z</time>
      </trkpt>
      <trkpt lat="46.36954" lon="-0.36352">
        <ele>30.2297</ele>
        <time>2011-06-02T12:32:16Z</time>
      </trkpt>
      <trkpt lat="46.36954" lon="-0.36354">
        <ele>30.2043</ele>
        <time>2011-06-02T12:32:17Z</time>
      </trkpt>
      <trkpt lat="46.36953" lon="-0.36355">
        <ele>30.178</ele>
        <time>2011-06-02T12:32:18Z</time>
      </trkpt>
      <trkpt lat="46.36953" lon="-0.36357">
        <ele>30.1502</ele>
        <time>2011-06-02T12:32:19Z</time>
      </trkpt>
      <trkpt lat="46.36953" lon="-0.36359">
        <ele>30.1234</ele>
        <time>2011-06-02T12:32:20Z</time>
      </trkpt>
      <trkpt lat="46.36953" lon="-0.36361">
        <ele>30.0982</ele>
        <time>2011-06-02T12:32:21Z</time>
      </trkpt>
      <trkpt lat="46.36953" lon="-0.36362">
        <ele>30.0757</ele>
        <time>2011-06-02T12:32:22Z</time>
      </trkpt>
      <trkpt lat="46.36953" lon="-0.3637">
        <ele>30.0898</ele>
        <time>2011-06-02T12:32:28Z</time>
      </trkpt>
      <trkpt lat="46.36954" lon="-0.36376">
        <ele>30.2523</ele>
        <time>2011-06-02T12:32:32Z</time>
      </trkpt>
      <trkpt lat="46.36955" lon="-0.36383">
        <ele>30.8826</ele>
        <time>2011-06-02T12:32:47Z</time>
      </trkpt>
      <trkpt lat="46.36955" lon="-0.36384">
        <ele>30.9098</ele>
        <time>2011-06-02T12:32:48Z</time>
      </trkpt>
      <trkpt lat="46.36956" lon="-0.36393">
        <ele>31.0655</ele>
        <time>2011-06-02T12:32:53Z</time>
      </trkpt>
      <trkpt lat="46.36956" lon="-0.36395">
        <ele>31.1183</ele>
        <time>2011-06-02T12:32:54Z</time>
      </trkpt>
      <trkpt lat="46.36956" lon="-0.36398">
        <ele>31.1916</ele>
        <time>2011-06-02T12:32:55Z</time>
      </trkpt>
      <trkpt lat="46.36956" lon="-0.36402">
        <ele>31.2598</ele>
        <time>2011-06-02T12:32:56Z</time>
      </trkpt>
      <trkpt lat="46.36955" lon="-0.36404">
        <ele>31.3226</ele>
        <time>2011-06-02T12:32:57Z</time>
      </trkpt>
      <trkpt lat="46.36955" lon="-0.36409">
        <ele>31.4533</ele>
        <time>2011-06-02T12:32:59Z</time>
      </trkpt>
      <trkpt lat="46.36955" lon="-0.36417">
        <ele>31.732</ele>
        <time>2011-06-02T12:33:04Z</time>
      </trkpt>
      <trkpt lat="46.36955" lon="-0.36423">
        <ele>31.9084</ele>
        <time>2011-06-02T12:33:10Z</time>
      </trkpt>
      <trkpt lat="46.36956" lon="-0.36425">
        <ele>31.8959</ele>
        <time>2011-06-02T12:33:11Z</time>
      </trkpt>
      <trkpt lat="46.36956" lon="-0.36426">
        <ele>31.8828</ele>
        <time>2011-06-02T12:33:12Z</time>
      </trkpt>
      <trkpt lat="46.36957" lon="-0.36428">
        <ele>31.8672</ele>
        <time>2011-06-02T12:33:13Z</time>
      </trkpt>
      <trkpt lat="46.36958" lon="-0.36429">
        <ele>31.8559</ele>
        <time>2011-06-02T12:33:14Z</time>
      </trkpt>
      <trkpt lat="46.36958" lon="-0.36431">
        <ele>31.8496</ele>
        <time>2011-06-02T12:33:15Z</time>
      </trkpt>
      <trkpt lat="46.36958" lon="-0.36433">
        <ele>31.853</ele>
        <time>2011-06-02T12:33:16Z</time>
      </trkpt>
      <trkpt lat="46.36959" lon="-0.36437">
        <ele>31.9484</ele>
        <time>2011-06-02T12:33:19Z</time>
      </trkpt>
      <trkpt lat="46.36959" lon="-0.36438">
        <ele>31.994</ele>
        <time>2011-06-02T12:33:20Z</time>
      </trkpt>
      <trkpt lat="46.3696" lon="-0.36439">
        <ele>32.039</ele>
        <time>2011-06-02T12:33:21Z</time>
      </trkpt>
      <trkpt lat="46.3696" lon="-0.36441">
        <ele>32.093</ele>
        <time>2011-06-02T12:33:22Z</time>
      </trkpt>
      <trkpt lat="46.3696" lon="-0.36442">
        <ele>32.1603</ele>
        <time>2011-06-02T12:33:23Z</time>
      </trkpt>
      <trkpt lat="46.36961" lon="-0.36443">
        <ele>32.2324</ele>
        <time>2011-06-02T12:33:24Z</time>
      </trkpt>
      <trkpt lat="46.36961" lon="-0.36444">
        <ele>32.3186</ele>
        <time>2011-06-02T12:33:25Z</time>
      </trkpt>
      <trkpt lat="46.36961" lon="-0.36445">
        <ele>32.4021</ele>
        <time>2011-06-02T12:33:26Z</time>
      </trkpt>
      <trkpt lat="46.36961" lon="-0.36447">
        <ele>32.4877</ele>
        <time>2011-06-02T12:33:27Z</time>
      </trkpt>
      <trkpt lat="46.36961" lon="-0.36448">
        <ele>32.5876</ele>
        <time>2011-06-02T12:33:28Z</time>
      </trkpt>
      <trkpt lat="46.36961" lon="-0.3645">
        <ele>32.6924</ele>
        <time>2011-06-02T12:33:29Z</time>
      </trkpt>
      <trkpt lat="46.36961" lon="-0.36451">
        <ele>32.7948</ele>
        <time>2011-06-02T12:33:30Z</time>
      </trkpt>
      <trkpt lat="46.36961" lon="-0.36453">
        <ele>32.9059</ele>
        <time>2011-06-02T12:33:31Z</time>
      </trkpt>
      <trkpt lat="46.36961" lon="-0.36454">
        <ele>33.0114</ele>
        <time>2011-06-02T12:33:32Z</time>
      </trkpt>
      <trkpt lat="46.36962" lon="-0.36456">
        <ele>33.1143</ele>
        <time>2011-06-02T12:33:33Z</time>
      </trkpt>
      <trkpt lat="46.36962" lon="-0.36457">
        <ele>33.2168</ele>
        <time>2011-06-02T12:33:34Z</time>
      </trkpt>
      <trkpt lat="46.36962" lon="-0.36458">
        <ele>33.3155</ele>
        <time>2011-06-02T12:33:35Z</time>
      </trkpt>
      <trkpt lat="46.36963" lon="-0.3646">
        <ele>33.4167</ele>
        <time>2011-06-02T12:33:36Z</time>
      </trkpt>
      <trkpt lat="46.36963" lon="-0.36461">
        <ele>33.5105</ele>
        <time>2011-06-02T12:33:37Z</time>
      </trkpt>
      <trkpt lat="46.36964" lon="-0.36462">
        <ele>33.5756</ele>
        <time>2011-06-02T12:33:38Z</time>
      </trkpt>
      <trkpt lat="46.36964" lon="-0.36464">
        <ele>33.6284</ele>
        <time>2011-06-02T12:33:39Z</time>
      </trkpt>
      <trkpt lat="46.36964" lon="-0.36465">
        <ele>33.6804</ele>
        <time>2011-06-02T12:33:40Z</time>
      </trkpt>
      <trkpt lat="46.36964" lon="-0.36467">
        <ele>33.7296</ele>
        <time>2011-06-02T12:33:41Z</time>
      </trkpt>
      <trkpt lat="46.36964" lon="-0.36469">
        <ele>33.7761</ele>
        <time>2011-06-02T12:33:42Z</time>
      </trkpt>
      <trkpt lat="46.36965" lon="-0.3647">
        <ele>33.8225</ele>
        <time>2011-06-02T12:33:43Z</time>
      </trkpt>
      <trkpt lat="46.36965" lon="-0.36471">
        <ele>33.8672</ele>
        <time>2011-06-02T12:33:44Z</time>
      </trkpt>
      <trkpt lat="46.36965" lon="-0.36473">
        <ele>33.9144</ele>
        <time>2011-06-02T12:33:45Z</time>
      </trkpt>
      <trkpt lat="46.36965" lon="-0.36474">
        <ele>33.9591</ele>
        <time>2011-06-02T12:33:46Z</time>
      </trkpt>
      <trkpt lat="46.36964" lon="-0.36475">
        <ele>34.0012</ele>
        <time>2011-06-02T12:33:47Z</time>
      </trkpt>
      <trkpt lat="46.36964" lon="-0.36476">
        <ele>34.0404</ele>
        <time>2011-06-02T12:33:48Z</time>
      </trkpt>
      <trkpt lat="46.36964" lon="-0.36476">
        <ele>34.0757</ele>
        <time>2011-06-02T12:33:49Z</time>
      </trkpt>
      <trkpt lat="46.36961" lon="-0.36471">
        <ele>34.3841</ele>
        <time>2011-06-02T12:34:00Z</time>
      </trkpt>
      <trkpt lat="46.3696" lon="-0.3647">
        <ele>34.4094</ele>
        <time>2011-06-02T12:34:01Z</time>
      </trkpt>
      <trkpt lat="46.36959" lon="-0.36469">
        <ele>34.4169</ele>
        <time>2011-06-02T12:34:02Z</time>
      </trkpt>
      <trkpt lat="46.36958" lon="-0.36469">
        <ele>34.4118</ele>
        <time>2011-06-02T12:34:03Z</time>
      </trkpt>
      <trkpt lat="46.36957" lon="-0.36468">
        <ele>34.4069</ele>
        <time>2011-06-02T12:34:04Z</time>
      </trkpt>
      <trkpt lat="46.36956" lon="-0.36467">
        <ele>34.4357</ele>
        <time>2011-06-02T12:34:05Z</time>
      </trkpt>
      <trkpt lat="46.36956" lon="-0.36467">
        <ele>34.4651</ele>
        <time>2011-06-02T12:34:06Z</time>
      </trkpt>
      <trkpt lat="46.36955" lon="-0.36466">
        <ele>34.4924</ele>
        <time>2011-06-02T12:34:07Z</time>
      </trkpt>
      <trkpt lat="46.36954" lon="-0.36465">
        <ele>34.5229</ele>
        <time>2011-06-02T12:34:08Z</time>
      </trkpt>
      <trkpt lat="46.36953" lon="-0.36465">
        <ele>34.5347</ele>
        <time>2011-06-02T12:34:09Z</time>
      </trkpt>
      <trkpt lat="46.36952" lon="-0.36464">
        <ele>34.5327</ele>
        <time>2011-06-02T12:34:10Z</time>
      </trkpt>
      <trkpt lat="46.36951" lon="-0.36464">
        <ele>34.521</ele>
        <time>2011-06-02T12:34:11Z</time>
      </trkpt>
      <trkpt lat="46.36951" lon="-0.36463">
        <ele>34.5044</ele>
        <time>2011-06-02T12:34:12Z</time>
      </trkpt>
      <trkpt lat="46.3695" lon="-0.36462">
        <ele>34.4811</ele>
        <time>2011-06-02T12:34:13Z</time>
      </trkpt>
      <trkpt lat="46.36949" lon="-0.36461">
        <ele>34.4603</ele>
        <time>2011-06-02T12:34:14Z</time>
      </trkpt>
      <trkpt lat="46.36949" lon="-0.36461">
        <ele>34.4517</ele>
        <time>2011-06-02T12:34:15Z</time>
      </trkpt>
      <trkpt lat="46.36948" lon="-0.3646">
        <ele>34.4564</ele>
        <time>2011-06-02T12:34:16Z</time>
      </trkpt>
      <trkpt lat="46.36948" lon="-0.3646">
        <ele>34.4771</ele>
        <time>2011-06-02T12:34:17Z</time>
      </trkpt>
      <trkpt lat="46.36947" lon="-0.3646">
        <ele>34.5152</ele>
        <time>2011-06-02T12:34:18Z</time>
      </trkpt>
      <trkpt lat="46.36947" lon="-0.3646">
        <ele>34.5558</ele>
        <time>2011-06-02T12:34:19Z</time>
      </trkpt>
      <trkpt lat="46.36946" lon="-0.36459">
        <ele>34.5898</ele>
        <time>2011-06-02T12:34:20Z</time>
      </trkpt>
      <trkpt lat="46.36945" lon="-0.36459">
        <ele>34.62</ele>
        <time>2011-06-02T12:34:21Z</time>
      </trkpt>
      <trkpt lat="46.36944" lon="-0.36459">
        <ele>34.6441</ele>
        <time>2011-06-02T12:34:22Z</time>
      </trkpt>
      <trkpt lat="46.36942" lon="-0.36458">
        <ele>34.6708</ele>
        <time>2011-06-02T12:34:24Z</time>
      </trkpt>
      <trkpt lat="46.36941" lon="-0.36458">
        <ele>34.6806</ele>
        <time>2011-06-02T12:34:25Z</time>
      </trkpt>
      <trkpt lat="46.36939" lon="-0.36456">
        <ele>34.6873</ele>
        <time>2011-06-02T12:34:28Z</time>
      </trkpt>
      <trkpt lat="46.36934" lon="-0.36453">
        <ele>34.6613</ele>
        <time>2011-06-02T12:34:33Z</time>
      </trkpt>
      <trkpt lat="46.36932" lon="-0.36452">
        <ele>34.658</ele>
        <time>2011-06-02T12:34:34Z</time>
      </trkpt>
      <trkpt lat="46.36932" lon="-0.36451">
        <ele>34.6409</ele>
        <time>2011-06-02T12:34:35Z</time>
      </trkpt>
      <trkpt lat="46.36931" lon="-0.36451">
        <ele>34.6155</ele>
        <time>2011-06-02T12:34:36Z</time>
      </trkpt>
      <trkpt lat="46.3693" lon="-0.3645">
        <ele>34.5887</ele>
        <time>2011-06-02T12:34:37Z</time>
      </trkpt>
      <trkpt lat="46.36929" lon="-0.3645">
        <ele>34.5537</ele>
        <time>2011-06-02T12:34:38Z</time>
      </trkpt>
      <trkpt lat="46.36929" lon="-0.36449">
        <ele>34.5067</ele>
        <time>2011-06-02T12:34:39Z</time>
      </trkpt>
      <trkpt lat="46.36928" lon="-0.36449">
        <ele>34.4496</ele>
        <time>2011-06-02T12:34:40Z</time>
      </trkpt>
      <trkpt lat="46.36927" lon="-0.36448">
        <ele>34.3891</ele>
        <time>2011-06-02T12:34:41Z</time>
      </trkpt>
      <trkpt lat="46.36927" lon="-0.36448">
        <ele>34.3206</ele>
        <time>2011-06-02T12:34:42Z</time>
      </trkpt>
      <trkpt lat="46.36926" lon="-0.36447">
        <ele>34.2485</ele>
        <time>2011-06-02T12:34:43Z</time>
      </trkpt>
      <trkpt lat="46.36926" lon="-0.36446">
        <ele>34.1663</ele>
        <time>2011-06-02T12:34:44Z</time>
      </trkpt>
      <trkpt lat="46.36925" lon="-0.36445">
        <ele>34.0723</ele>
        <time>2011-06-02T12:34:45Z</time>
      </trkpt>
      <trkpt lat="46.36924" lon="-0.36445">
        <ele>33.9731</ele>
        <time>2011-06-02T12:34:46Z</time>
      </trkpt>
      <trkpt lat="46.36923" lon="-0.36444">
        <ele>33.8733</ele>
        <time>2011-06-02T12:34:47Z</time>
      </trkpt>
      <trkpt lat="46.36922" lon="-0.36444">
        <ele>33.7715</ele>
        <time>2011-06-02T12:34:48Z</time>
      </trkpt>
      <trkpt lat="46.36921" lon="-0.36444">
        <ele>33.6675</ele>
        <time>2011-06-02T12:34:49Z</time>
      </trkpt>
      <trkpt lat="46.36921" lon="-0.36444">
        <ele>33.5611</ele>
        <time>2011-06-02T12:34:50Z</time>
      </trkpt>
      <trkpt lat="46.36921" lon="-0.36444">
        <ele>33.4563</ele>
        <time>2011-06-02T12:34:51Z</time>
      </trkpt>
      <trkpt lat="46.36919" lon="-0.36441">
        <ele>33.2184</ele>
        <time>2011-06-02T12:34:56Z</time>
      </trkpt>
      <trkpt lat="46.36918" lon="-0.3644">
        <ele>33.129</ele>
        <time>2011-06-02T12:34:57Z</time>
      </trkpt>
      <trkpt lat="46.36918" lon="-0.36439">
        <ele>33.04</ele>
        <time>2011-06-02T12:34:58Z</time>
      </trkpt>
      <trkpt lat="46.36916" lon="-0.36438">
        <ele>32.9665</ele>
        <time>2011-06-02T12:34:59Z</time>
      </trkpt>
      <trkpt lat="46.36916" lon="-0.36437">
        <ele>32.8959</ele>
        <time>2011-06-02T12:35:00Z</time>
      </trkpt>
      <trkpt lat="46.36915" lon="-0.36436">
        <ele>32.8254</ele>
        <time>2011-06-02T12:35:01Z</time>
      </trkpt>
      <trkpt lat="46.36914" lon="-0.36435">
        <ele>32.764</ele>
        <time>2011-06-02T12:35:02Z</time>
      </trkpt>
      <trkpt lat="46.36913" lon="-0.36434">
        <ele>32.708</ele>
        <time>2011-06-02T12:35:03Z</time>
      </trkpt>
      <trkpt lat="46.36912" lon="-0.36434">
        <ele>32.6555</ele>
        <time>2011-06-02T12:35:04Z</time>
      </trkpt>
      <trkpt lat="46.36911" lon="-0.36433">
        <ele>32.6033</ele>
        <time>2011-06-02T12:35:05Z</time>
      </trkpt>
      <trkpt lat="46.3691" lon="-0.36432">
        <ele>32.5504</ele>
        <time>2011-06-02T12:35:06Z</time>
      </trkpt>
      <trkpt lat="46.3691" lon="-0.36432">
        <ele>32.4963</ele>
        <time>2011-06-02T12:35:07Z</time>
      </trkpt>
      <trkpt lat="46.36909" lon="-0.36431">
        <ele>32.4359</ele>
        <time>2011-06-02T12:35:08Z</time>
      </trkpt>
      <trkpt lat="46.36908" lon="-0.3643">
        <ele>32.3776</ele>
        <time>2011-06-02T12:35:09Z</time>
      </trkpt>
      <trkpt lat="46.36908" lon="-0.36429">
        <ele>32.3187</ele>
        <time>2011-06-02T12:35:10Z</time>
      </trkpt>
      <trkpt lat="46.36907" lon="-0.36428">
        <ele>32.262</ele>
        <time>2011-06-02T12:35:11Z</time>
      </trkpt>
      <trkpt lat="46.36906" lon="-0.36427">
        <ele>32.192</ele>
        <time>2011-06-02T12:35:13Z</time>
      </trkpt>
      <trkpt lat="46.36905" lon="-0.36426">
        <ele>32.1276</ele>
        <time>2011-06-02T12:35:14Z</time>
      </trkpt>
      <trkpt lat="46.36905" lon="-0.36425">
        <ele>32.0527</ele>
        <time>2011-06-02T12:35:15Z</time>
      </trkpt>
      <trkpt lat="46.36904" lon="-0.36423">
        <ele>31.9574</ele>
        <time>2011-06-02T12:35:18Z</time>
      </trkpt>
      <trkpt lat="46.36903" lon="-0.36422">
        <ele>31.8784</ele>
        <time>2011-06-02T12:35:19Z</time>
      </trkpt>
      <trkpt lat="46.36902" lon="-0.3642">
        <ele>31.7833</ele>
        <time>2011-06-02T12:35:21Z</time>
      </trkpt>
      <trkpt lat="46.36901" lon="-0.36419">
        <ele>31.6909</ele>
        <time>2011-06-02T12:35:22Z</time>
      </trkpt>
      <trkpt lat="46.369" lon="-0.36418">
        <ele>31.5965</ele>
        <time>2011-06-02T12:35:23Z</time>
      </trkpt>
      <trkpt lat="46.36899" lon="-0.36417">
        <ele>31.5006</ele>
        <time>2011-06-02T12:35:24Z</time>
      </trkpt>
      <trkpt lat="46.36898" lon="-0.36416">
        <ele>31.4111</ele>
        <time>2011-06-02T12:35:25Z</time>
      </trkpt>
      <trkpt lat="46.36897" lon="-0.36414">
        <ele>31.32</ele>
        <time>2011-06-02T12:35:26Z</time>
      </trkpt>
      <trkpt lat="46.36897" lon="-0.36413">
        <ele>31.2389</ele>
        <time>2011-06-02T12:35:27Z</time>
      </trkpt>
      <trkpt lat="46.36896" lon="-0.36412">
        <ele>31.1607</ele>
        <time>2011-06-02T12:35:28Z</time>
      </trkpt>
      <trkpt lat="46.36895" lon="-0.36411">
        <ele>31.0802</ele>
        <time>2011-06-02T12:35:29Z</time>
      </trkpt>
      <trkpt lat="46.36894" lon="-0.3641">
        <ele>30.9925</ele>
        <time>2011-06-02T12:35:30Z</time>
      </trkpt>
      <trkpt lat="46.36894" lon="-0.36409">
        <ele>30.9045</ele>
        <time>2011-06-02T12:35:31Z</time>
      </trkpt>
      <trkpt lat="46.36893" lon="-0.36408">
        <ele>30.8169</ele>
        <time>2011-06-02T12:35:32Z</time>
      </trkpt>
      <trkpt lat="46.36892" lon="-0.36408">
        <ele>30.7314</ele>
        <time>2011-06-02T12:35:33Z</time>
      </trkpt>
      <trkpt lat="46.36891" lon="-0.36407">
        <ele>30.6492</ele>
        <time>2011-06-02T12:35:34Z</time>
      </trkpt>
      <trkpt lat="46.3689" lon="-0.36407">
        <ele>30.5665</ele>
        <time>2011-06-02T12:35:35Z</time>
      </trkpt>
      <trkpt lat="46.36889" lon="-0.36406">
        <ele>30.4849</ele>
        <time>2011-06-02T12:35:36Z</time>
      </trkpt>
      <trkpt lat="46.36889" lon="-0.36406">
        <ele>30.4056</ele>
        <time>2011-06-02T12:35:37Z</time>
      </trkpt>
      <trkpt lat="46.36888" lon="-0.36405">
        <ele>30.3244</ele>
        <time>2011-06-02T12:35:38Z</time>
      </trkpt>
      <trkpt lat="46.36887" lon="-0.36404">
        <ele>30.2583</ele>
        <time>2011-06-02T12:35:39Z</time>
      </trkpt>
      <trkpt lat="46.36886" lon="-0.36403">
        <ele>30.1866</ele>
        <time>2011-06-02T12:35:40Z</time>
      </trkpt>
      <trkpt lat="46.36884" lon="-0.36402">
        <ele>30.1125</ele>
        <time>2011-06-02T12:35:41Z</time>
      </trkpt>
      <trkpt lat="46.36883" lon="-0.36402">
        <ele>30.0387</ele>
        <time>2011-06-02T12:35:42Z</time>
      </trkpt>
      <trkpt lat="46.36882" lon="-0.36401">
        <ele>29.9647</ele>
        <time>2011-06-02T12:35:43Z</time>
      </trkpt>
      <trkpt lat="46.36881" lon="-0.36401">
        <ele>29.8899</ele>
        <time>2011-06-02T12:35:44Z</time>
      </trkpt>
      <trkpt lat="46.3688" lon="-0.36401">
        <ele>29.8278</ele>
        <time>2011-06-02T12:35:45Z</time>
      </trkpt>
      <trkpt lat="46.36879" lon="-0.364">
        <ele>29.7647</ele>
        <time>2011-06-02T12:35:46Z</time>
      </trkpt>
      <trkpt lat="46.36878" lon="-0.364">
        <ele>29.7186</ele>
        <time>2011-06-02T12:35:47Z</time>
      </trkpt>
      <trkpt lat="46.36877" lon="-0.364">
        <ele>29.6817</ele>
        <time>2011-06-02T12:35:48Z</time>
      </trkpt>
      <trkpt lat="46.36875" lon="-0.36399">
        <ele>29.662</ele>
        <time>2011-06-02T12:35:49Z</time>
      </trkpt>
      <trkpt lat="46.36873" lon="-0.36398">
        <ele>29.6366</ele>
        <time>2011-06-02T12:35:50Z</time>
      </trkpt>
      <trkpt lat="46.36872" lon="-0.36397">
        <ele>29.6061</ele>
        <time>2011-06-02T12:35:51Z</time>
      </trkpt>
      <trkpt lat="46.36871" lon="-0.36396">
        <ele>29.5645</ele>
        <time>2011-06-02T12:35:52Z</time>
      </trkpt>
      <trkpt lat="46.3687" lon="-0.36395">
        <ele>29.5175</ele>
        <time>2011-06-02T12:35:53Z</time>
      </trkpt>
      <trkpt lat="46.36869" lon="-0.36394">
        <ele>29.4665</ele>
        <time>2011-06-02T12:35:54Z</time>
      </trkpt>
      <trkpt lat="46.36868" lon="-0.36393">
        <ele>29.4101</ele>
        <time>2011-06-02T12:35:55Z</time>
      </trkpt>
      <trkpt lat="46.36867" lon="-0.36392">
        <ele>29.3569</ele>
        <time>2011-06-02T12:35:56Z</time>
      </trkpt>
      <trkpt lat="46.36866" lon="-0.36391">
        <ele>29.2973</ele>
        <time>2011-06-02T12:35:57Z</time>
      </trkpt>
      <trkpt lat="46.36866" lon="-0.3639">
        <ele>29.2515</ele>
        <time>2011-06-02T12:35:58Z</time>
      </trkpt>
      <trkpt lat="46.36865" lon="-0.36389">
        <ele>29.2034</ele>
        <time>2011-06-02T12:35:59Z</time>
      </trkpt>
      <trkpt lat="46.36864" lon="-0.36389">
        <ele>29.1525</ele>
        <time>2011-06-02T12:36:00Z</time>
      </trkpt>
      <trkpt lat="46.36861" lon="-0.36389">
        <ele>28.9715</ele>
        <time>2011-06-02T12:36:06Z</time>
      </trkpt>
      <trkpt lat="46.36861" lon="-0.36389">
        <ele>28.9127</ele>
        <time>2011-06-02T12:36:07Z</time>
      </trkpt>
      <trkpt lat="46.3686" lon="-0.36388">
        <ele>28.8537</ele>
        <time>2011-06-02T12:36:08Z</time>
      </trkpt>
      <trkpt lat="46.3686" lon="-0.36388">
        <ele>28.7928</ele>
        <time>2011-06-02T12:36:09Z</time>
      </trkpt>
      <trkpt lat="46.36859" lon="-0.36388">
        <ele>28.7207</ele>
        <time>2011-06-02T12:36:10Z</time>
      </trkpt>
      <trkpt lat="46.36858" lon="-0.36388">
        <ele>28.6471</ele>
        <time>2011-06-02T12:36:11Z</time>
      </trkpt>
      <trkpt lat="46.36858" lon="-0.36387">
        <ele>28.5766</ele>
        <time>2011-06-02T12:36:12Z</time>
      </trkpt>
      <trkpt lat="46.36857" lon="-0.36387">
        <ele>28.5082</ele>
        <time>2011-06-02T12:36:13Z</time>
      </trkpt>
      <trkpt lat="46.36856" lon="-0.36385">
        <ele>28.2792</ele>
        <time>2011-06-02T12:36:17Z</time>
      </trkpt>
      <trkpt lat="46.36855" lon="-0.36384">
        <ele>28.2071</ele>
        <time>2011-06-02T12:36:18Z</time>
      </trkpt>
      <trkpt lat="46.36854" lon="-0.36384">
        <ele>28.1349</ele>
        <time>2011-06-02T12:36:19Z</time>
      </trkpt>
      <trkpt lat="46.36853" lon="-0.36383">
        <ele>28.0647</ele>
        <time>2011-06-02T12:36:20Z</time>
      </trkpt>
      <trkpt lat="46.36853" lon="-0.36382">
        <ele>27.9949</ele>
        <time>2011-06-02T12:36:21Z</time>
      </trkpt>
      <trkpt lat="46.36852" lon="-0.36382">
        <ele>27.9253</ele>
        <time>2011-06-02T12:36:22Z</time>
      </trkpt>
      <trkpt lat="46.36851" lon="-0.36381">
        <ele>27.8589</ele>
        <time>2011-06-02T12:36:23Z</time>
      </trkpt>
      <trkpt lat="46.3685" lon="-0.36381">
        <ele>27.7946</ele>
        <time>2011-06-02T12:36:24Z</time>
      </trkpt>
      <trkpt lat="46.3685" lon="-0.3638">
        <ele>27.7322</ele>
        <time>2011-06-02T12:36:25Z</time>
      </trkpt>
      <trkpt lat="46.36849" lon="-0.3638">
        <ele>27.6698</ele>
        <time>2011-06-02T12:36:26Z</time>
      </trkpt>
      <trkpt lat="46.36848" lon="-0.3638">
        <ele>27.6076</ele>
        <time>2011-06-02T12:36:27Z</time>
      </trkpt>
      <trkpt lat="46.36847" lon="-0.3638">
        <ele>27.5402</ele>
        <time>2011-06-02T12:36:28Z</time>
      </trkpt>
      <trkpt lat="46.36846" lon="-0.36379">
        <ele>27.4696</ele>
        <time>2011-06-02T12:36:29Z</time>
      </trkpt>
      <trkpt lat="46.36845" lon="-0.36378">
        <ele>27.3896</ele>
        <time>2011-06-02T12:36:30Z</time>
      </trkpt>
      <trkpt lat="46.36844" lon="-0.36377">
        <ele>27.2999</ele>
        <time>2011-06-02T12:36:31Z</time>
      </trkpt>
      <trkpt lat="46.36843" lon="-0.36376">
        <ele>27.2127</ele>
        <time>2011-06-02T12:36:32Z</time>
      </trkpt>
      <trkpt lat="46.36842" lon="-0.36375">
        <ele>27.1195</ele>
        <time>2011-06-02T12:36:33Z</time>
      </trkpt>
      <trkpt lat="46.36841" lon="-0.36374">
        <ele>27.0256</ele>
        <time>2011-06-02T12:36:34Z</time>
      </trkpt>
      <trkpt lat="46.3684" lon="-0.36374">
        <ele>26.922</ele>
        <time>2011-06-02T12:36:35Z</time>
      </trkpt>
      <trkpt lat="46.36839" lon="-0.36374">
        <ele>26.8073</ele>
        <time>2011-06-02T12:36:36Z</time>
      </trkpt>
      <trkpt lat="46.36836" lon="-0.36374">
        <ele>26.7465</ele>
        <time>2011-06-02T12:36:37Z</time>
      </trkpt>
      <trkpt lat="46.36834" lon="-0.36373">
        <ele>26.6478</ele>
        <time>2011-06-02T12:36:38Z</time>
      </trkpt>
      <trkpt lat="46.36833" lon="-0.36373">
        <ele>26.5171</ele>
        <time>2011-06-02T12:36:39Z</time>
      </trkpt>
      <trkpt lat="46.36831" lon="-0.36373">
        <ele>26.3666</ele>
        <time>2011-06-02T12:36:40Z</time>
      </trkpt>
      <trkpt lat="46.36831" lon="-0.36374">
        <ele>26.2138</ele>
        <time>2011-06-02T12:36:41Z</time>
      </trkpt>
      <trkpt lat="46.36829" lon="-0.36375">
        <ele>26.065</ele>
        <time>2011-06-02T12:36:42Z</time>
      </trkpt>
      <trkpt lat="46.36828" lon="-0.36375">
        <ele>25.919</ele>
        <time>2011-06-02T12:36:43Z</time>
      </trkpt>
      <trkpt lat="46.36826" lon="-0.36376">
        <ele>25.7631</ele>
        <time>2011-06-02T12:36:44Z</time>
      </trkpt>
      <trkpt lat="46.36825" lon="-0.36377">
        <ele>25.6251</ele>
        <time>2011-06-02T12:36:45Z</time>
      </trkpt>
      <trkpt lat="46.36824" lon="-0.36378">
        <ele>25.4803</ele>
        <time>2011-06-02T12:36:46Z</time>
      </trkpt>
      <trkpt lat="46.36823" lon="-0.36378">
        <ele>25.3174</ele>
        <time>2011-06-02T12:36:47Z</time>
      </trkpt>
      <trkpt lat="46.36822" lon="-0.36379">
        <ele>25.152</ele>
        <time>2011-06-02T12:36:48Z</time>
      </trkpt>
      <trkpt lat="46.36821" lon="-0.3638">
        <ele>24.988</ele>
        <time>2011-06-02T12:36:49Z</time>
      </trkpt>
      <trkpt lat="46.3682" lon="-0.3638">
        <ele>24.8434</ele>
        <time>2011-06-02T12:36:50Z</time>
      </trkpt>
      <trkpt lat="46.3682" lon="-0.36381">
        <ele>24.6946</ele>
        <time>2011-06-02T12:36:51Z</time>
      </trkpt>
      <trkpt lat="46.36819" lon="-0.36382">
        <ele>24.5628</ele>
        <time>2011-06-02T12:36:52Z</time>
      </trkpt>
      <trkpt lat="46.36818" lon="-0.36383">
        <ele>24.4569</ele>
        <time>2011-06-02T12:36:53Z</time>
      </trkpt>
      <trkpt lat="46.36817" lon="-0.36384">
        <ele>24.3559</ele>
        <time>2011-06-02T12:36:54Z</time>
      </trkpt>
      <trkpt lat="46.36816" lon="-0.36385">
        <ele>24.2613</ele>
        <time>2011-06-02T12:36:55Z</time>
      </trkpt>
      <trkpt lat="46.36815" lon="-0.36386">
        <ele>24.1702</ele>
        <time>2011-06-02T12:36:56Z</time>
      </trkpt>
      <trkpt lat="46.36815" lon="-0.36387">
        <ele>24.0744</ele>
        <time>2011-06-02T12:36:57Z</time>
      </trkpt>
      <trkpt lat="46.36815" lon="-0.36388">
        <ele>23.9825</ele>
        <time>2011-06-02T12:36:58Z</time>
      </trkpt>
      <trkpt lat="46.36814" lon="-0.36389">
        <ele>23.9126</ele>
        <time>2011-06-02T12:36:59Z</time>
      </trkpt>
      <trkpt lat="46.36813" lon="-0.36391">
        <ele>23.8425</ele>
        <time>2011-06-02T12:37:00Z</time>
      </trkpt>
      <trkpt lat="46.36813" lon="-0.36392">
        <ele>23.7674</ele>
        <time>2011-06-02T12:37:01Z</time>
      </trkpt>
      <trkpt lat="46.36813" lon="-0.36393">
        <ele>23.6843</ele>
        <time>2011-06-02T12:37:02Z</time>
      </trkpt>
      <trkpt lat="46.36813" lon="-0.36394">
        <ele>23.6232</ele>
        <time>2011-06-02T12:37:03Z</time>
      </trkpt>
      <trkpt lat="46.36812" lon="-0.36396">
        <ele>23.5654</ele>
        <time>2011-06-02T12:37:04Z</time>
      </trkpt>
      <trkpt lat="46.36811" lon="-0.36397">
        <ele>23.535</ele>
        <time>2011-06-02T12:37:05Z</time>
      </trkpt>
      <trkpt lat="46.3681" lon="-0.36398">
        <ele>23.5114</ele>
        <time>2011-06-02T12:37:06Z</time>
      </trkpt>
      <trkpt lat="46.36809" lon="-0.36399">
        <ele>23.4929</ele>
        <time>2011-06-02T12:37:07Z</time>
      </trkpt>
      <trkpt lat="46.36808" lon="-0.36401">
        <ele>23.4725</ele>
        <time>2011-06-02T12:37:08Z</time>
      </trkpt>
      <trkpt lat="46.36807" lon="-0.36401">
        <ele>23.4634</ele>
        <time>2011-06-02T12:37:09Z</time>
      </trkpt>
      <trkpt lat="46.36806" lon="-0.36402">
        <ele>23.4585</ele>
        <time>2011-06-02T12:37:10Z</time>
      </trkpt>
      <trkpt lat="46.36805" lon="-0.36403">
        <ele>23.4571</ele>
        <time>2011-06-02T12:37:11Z</time>
      </trkpt>
      <trkpt lat="46.36803" lon="-0.36404">
        <ele>23.4595</ele>
        <time>2011-06-02T12:37:12Z</time>
      </trkpt>
      <trkpt lat="46.36803" lon="-0.36404">
        <ele>23.4609</ele>
        <time>2011-06-02T12:37:13Z</time>
      </trkpt>
      <trkpt lat="46.36802" lon="-0.36404">
        <ele>23.4622</ele>
        <time>2011-06-02T12:37:14Z</time>
      </trkpt>
      <trkpt lat="46.36801" lon="-0.36405">
        <ele>23.4767</ele>
        <time>2011-06-02T12:37:15Z</time>
      </trkpt>
      <trkpt lat="46.36799" lon="-0.36406">
        <ele>23.5058</ele>
        <time>2011-06-02T12:37:16Z</time>
      </trkpt>
      <trkpt lat="46.36799" lon="-0.36407">
        <ele>23.549</ele>
        <time>2011-06-02T12:37:17Z</time>
      </trkpt>
      <trkpt lat="46.36795" lon="-0.36411">
        <ele>23.7522</ele>
        <time>2011-06-02T12:37:23Z</time>
      </trkpt>
      <trkpt lat="46.36795" lon="-0.36418">
        <ele>24.0507</ele>
        <time>2011-06-02T12:37:29Z</time>
      </trkpt>
      <trkpt lat="46.36794" lon="-0.36418">
        <ele>24.2954</ele>
        <time>2011-06-02T12:37:32Z</time>
      </trkpt>
      <trkpt lat="46.36793" lon="-0.36418">
        <ele>24.3688</ele>
        <time>2011-06-02T12:37:33Z</time>
      </trkpt>
      <trkpt lat="46.36792" lon="-0.36418">
        <ele>24.4408</ele>
        <time>2011-06-02T12:37:34Z</time>
      </trkpt>
      <trkpt lat="46.36788" lon="-0.36421">
        <ele>24.8254</ele>
        <time>2011-06-02T12:37:45Z</time>
      </trkpt>
      <trkpt lat="46.36786" lon="-0.3642">
        <ele>25.3078</ele>
        <time>2011-06-02T12:37:50Z</time>
      </trkpt>
      <trkpt lat="46.36786" lon="-0.3642">
        <ele>25.4108</ele>
        <time>2011-06-02T12:37:51Z</time>
      </trkpt>
      <trkpt lat="46.36785" lon="-0.3642">
        <ele>25.5078</ele>
        <time>2011-06-02T12:37:52Z</time>
      </trkpt>
      <trkpt lat="46.36785" lon="-0.36419">
        <ele>25.5986</ele>
        <time>2011-06-02T12:37:53Z</time>
      </trkpt>
      <trkpt lat="46.36784" lon="-0.36419">
        <ele>25.6832</ele>
        <time>2011-06-02T12:37:54Z</time>
      </trkpt>
      <trkpt lat="46.36783" lon="-0.36419">
        <ele>25.7609</ele>
        <time>2011-06-02T12:37:55Z</time>
      </trkpt>
      <trkpt lat="46.36782" lon="-0.36419">
        <ele>25.834</ele>
        <time>2011-06-02T12:37:56Z</time>
      </trkpt>
      <trkpt lat="46.36781" lon="-0.36419">
        <ele>25.9025</ele>
        <time>2011-06-02T12:37:57Z</time>
      </trkpt>
      <trkpt lat="46.36781" lon="-0.36419">
        <ele>25.9656</ele>
        <time>2011-06-02T12:37:58Z</time>
      </trkpt>
      <trkpt lat="46.36779" lon="-0.36419">
        <ele>26.0275</ele>
        <time>2011-06-02T12:37:59Z</time>
      </trkpt>
      <trkpt lat="46.36778" lon="-0.36419">
        <ele>26.0875</ele>
        <time>2011-06-02T12:38:00Z</time>
      </trkpt>
      <trkpt lat="46.36777" lon="-0.3642">
        <ele>26.1515</ele>
        <time>2011-06-02T12:38:01Z</time>
      </trkpt>
      <trkpt lat="46.36776" lon="-0.3642">
        <ele>26.2174</ele>
        <time>2011-06-02T12:38:02Z</time>
      </trkpt>
      <trkpt lat="46.36775" lon="-0.36421">
        <ele>26.2811</ele>
        <time>2011-06-02T12:38:03Z</time>
      </trkpt>
      <trkpt lat="46.36774" lon="-0.36421">
        <ele>26.3436</ele>
        <time>2011-06-02T12:38:04Z</time>
      </trkpt>
      <trkpt lat="46.36773" lon="-0.36421">
        <ele>26.4048</ele>
        <time>2011-06-02T12:38:05Z</time>
      </trkpt>
      <trkpt lat="46.36772" lon="-0.36421">
        <ele>26.4636</ele>
        <time>2011-06-02T12:38:06Z</time>
      </trkpt>
      <trkpt lat="46.36771" lon="-0.36421">
        <ele>26.5222</ele>
        <time>2011-06-02T12:38:07Z</time>
      </trkpt>
      <trkpt lat="46.3677" lon="-0.3642">
        <ele>26.5745</ele>
        <time>2011-06-02T12:38:08Z</time>
      </trkpt>
      <trkpt lat="46.36769" lon="-0.3642">
        <ele>26.6203</ele>
        <time>2011-06-02T12:38:09Z</time>
      </trkpt>
      <trkpt lat="46.36768" lon="-0.36419">
        <ele>26.665</ele>
        <time>2011-06-02T12:38:10Z</time>
      </trkpt>
      <trkpt lat="46.36767" lon="-0.36419">
        <ele>26.7031</ele>
        <time>2011-06-02T12:38:11Z</time>
      </trkpt>
      <trkpt lat="46.36766" lon="-0.36418">
        <ele>26.7383</ele>
        <time>2011-06-02T12:38:12Z</time>
      </trkpt>
      <trkpt lat="46.36765" lon="-0.36418">
        <ele>26.772</ele>
        <time>2011-06-02T12:38:13Z</time>
      </trkpt>
      <trkpt lat="46.36764" lon="-0.36418">
        <ele>26.8063</ele>
        <time>2011-06-02T12:38:14Z</time>
      </trkpt>
      <trkpt lat="46.36763" lon="-0.36418">
        <ele>26.8426</ele>
        <time>2011-06-02T12:38:15Z</time>
      </trkpt>
      <trkpt lat="46.36762" lon="-0.36418">
        <ele>26.8789</ele>
        <time>2011-06-02T12:38:16Z</time>
      </trkpt>
      <trkpt lat="46.3676" lon="-0.36418">
        <ele>26.9156</ele>
        <time>2011-06-02T12:38:17Z</time>
      </trkpt>
      <trkpt lat="46.36759" lon="-0.36418">
        <ele>26.9524</ele>
        <time>2011-06-02T12:38:18Z</time>
      </trkpt>
      <trkpt lat="46.36758" lon="-0.36417">
        <ele>26.9879</ele>
        <time>2011-06-02T12:38:19Z</time>
      </trkpt>
      <trkpt lat="46.36757" lon="-0.36418">
        <ele>27.0243</ele>
        <time>2011-06-02T12:38:20Z</time>
      </trkpt>
      <trkpt lat="46.36756" lon="-0.36418">
        <ele>27.0595</ele>
        <time>2011-06-02T12:38:21Z</time>
      </trkpt>
      <trkpt lat="46.36755" lon="-0.36418">
        <ele>27.0921</ele>
        <time>2011-06-02T12:38:22Z</time>
      </trkpt>
      <trkpt lat="46.36754" lon="-0.36418">
        <ele>27.1223</ele>
        <time>2011-06-02T12:38:23Z</time>
      </trkpt>
      <trkpt lat="46.36754" lon="-0.36418">
        <ele>27.1462</ele>
        <time>2011-06-02T12:38:24Z</time>
      </trkpt>
      <trkpt lat="46.36752" lon="-0.36419">
        <ele>27.1653</ele>
        <time>2011-06-02T12:38:25Z</time>
      </trkpt>
      <trkpt lat="46.36751" lon="-0.36419">
        <ele>27.1792</ele>
        <time>2011-06-02T12:38:26Z</time>
      </trkpt>
      <trkpt lat="46.3675" lon="-0.36419">
        <ele>27.1913</ele>
        <time>2011-06-02T12:38:27Z</time>
      </trkpt>
      <trkpt lat="46.36749" lon="-0.36419">
        <ele>27.2026</ele>
        <time>2011-06-02T12:38:28Z</time>
      </trkpt>
      <trkpt lat="46.36748" lon="-0.36419">
        <ele>27.2103</ele>
        <time>2011-06-02T12:38:29Z</time>
      </trkpt>
      <trkpt lat="46.36747" lon="-0.36419">
        <ele>27.2158</ele>
        <time>2011-06-02T12:38:30Z</time>
      </trkpt>
      <trkpt lat="46.36746" lon="-0.36419">
        <ele>27.2203</ele>
        <time>2011-06-02T12:38:31Z</time>
      </trkpt>
      <trkpt lat="46.36745" lon="-0.36419">
        <ele>27.2248</ele>
        <time>2011-06-02T12:38:32Z</time>
      </trkpt>
      <trkpt lat="46.36744" lon="-0.36419">
        <ele>27.2297</ele>
        <time>2011-06-02T12:38:33Z</time>
      </trkpt>
      <trkpt lat="46.36743" lon="-0.36419">
        <ele>27.2345</ele>
        <time>2011-06-02T12:38:34Z</time>
      </trkpt>
      <trkpt lat="46.36742" lon="-0.3642">
        <ele>27.2406</ele>
        <time>2011-06-02T12:38:35Z</time>
      </trkpt>
      <trkpt lat="46.36741" lon="-0.3642">
        <ele>27.2471</ele>
        <time>2011-06-02T12:38:36Z</time>
      </trkpt>
      <trkpt lat="46.36739" lon="-0.3642">
        <ele>27.2548</ele>
        <time>2011-06-02T12:38:37Z</time>
      </trkpt>
      <trkpt lat="46.36737" lon="-0.3642">
        <ele>27.2639</ele>
        <time>2011-06-02T12:38:38Z</time>
      </trkpt>
      <trkpt lat="46.36736" lon="-0.36421">
        <ele>27.2716</ele>
        <time>2011-06-02T12:38:39Z</time>
      </trkpt>
      <trkpt lat="46.36735" lon="-0.36421">
        <ele>27.2786</ele>
        <time>2011-06-02T12:38:40Z</time>
      </trkpt>
      <trkpt lat="46.36734" lon="-0.36421">
        <ele>27.2865</ele>
        <time>2011-06-02T12:38:41Z</time>
      </trkpt>
      <trkpt lat="46.36733" lon="-0.36422">
        <ele>27.2944</ele>
        <time>2011-06-02T12:38:42Z</time>
      </trkpt>
      <trkpt lat="46.36731" lon="-0.36422">
        <ele>27.3028</ele>
        <time>2011-06-02T12:38:43Z</time>
      </trkpt>
      <trkpt lat="46.36729" lon="-0.36422">
        <ele>27.3107</ele>
        <time>2011-06-02T12:38:44Z</time>
      </trkpt>
      <trkpt lat="46.36728" lon="-0.36423">
        <ele>27.3179</ele>
        <time>2011-06-02T12:38:45Z</time>
      </trkpt>
      <trkpt lat="46.36728" lon="-0.36423">
        <ele>27.3244</ele>
        <time>2011-06-02T12:38:46Z</time>
      </trkpt>
      <trkpt lat="46.36727" lon="-0.36423">
        <ele>27.3305</ele>
        <time>2011-06-02T12:38:47Z</time>
      </trkpt>
      <trkpt lat="46.36726" lon="-0.36424">
        <ele>27.3321</ele>
        <time>2011-06-02T12:38:48Z</time>
      </trkpt>
      <trkpt lat="46.36726" lon="-0.36424">
        <ele>27.3294</ele>
        <time>2011-06-02T12:38:49Z</time>
      </trkpt>
      <trkpt lat="46.36725" lon="-0.36425">
        <ele>27.3265</ele>
        <time>2011-06-02T12:38:50Z</time>
      </trkpt>
      <trkpt lat="46.36724" lon="-0.36425">
        <ele>27.3232</ele>
        <time>2011-06-02T12:38:51Z</time>
      </trkpt>
      <trkpt lat="46.36723" lon="-0.36426">
        <ele>27.321</ele>
        <time>2011-06-02T12:38:52Z</time>
      </trkpt>
      <trkpt lat="46.36721" lon="-0.36427">
        <ele>27.3227</ele>
        <time>2011-06-02T12:38:53Z</time>
      </trkpt>
      <trkpt lat="46.3672" lon="-0.36427">
        <ele>27.3251</ele>
        <time>2011-06-02T12:38:54Z</time>
      </trkpt>
      <trkpt lat="46.36718" lon="-0.36427">
        <ele>27.3279</ele>
        <time>2011-06-02T12:38:55Z</time>
      </trkpt>
      <trkpt lat="46.36717" lon="-0.36427">
        <ele>27.3322</ele>
        <time>2011-06-02T12:38:56Z</time>
      </trkpt>
      <trkpt lat="46.36715" lon="-0.36428">
        <ele>27.3366</ele>
        <time>2011-06-02T12:38:57Z</time>
      </trkpt>
      <trkpt lat="46.36714" lon="-0.36429">
        <ele>27.3427</ele>
        <time>2011-06-02T12:38:58Z</time>
      </trkpt>
      <trkpt lat="46.36714" lon="-0.36429">
        <ele>27.3519</ele>
        <time>2011-06-02T12:38:59Z</time>
      </trkpt>
      <trkpt lat="46.36713" lon="-0.3643">
        <ele>27.3587</ele>
        <time>2011-06-02T12:39:00Z</time>
      </trkpt>
      <trkpt lat="46.36712" lon="-0.3643">
        <ele>27.3648</ele>
        <time>2011-06-02T12:39:01Z</time>
      </trkpt>
      <trkpt lat="46.3671" lon="-0.36431">
        <ele>27.3727</ele>
        <time>2011-06-02T12:39:02Z</time>
      </trkpt>
      <trkpt lat="46.3671" lon="-0.36431">
        <ele>27.3779</ele>
        <time>2011-06-02T12:39:03Z</time>
      </trkpt>
      <trkpt lat="46.36709" lon="-0.36432">
        <ele>27.3808</ele>
        <time>2011-06-02T12:39:04Z</time>
      </trkpt>
      <trkpt lat="46.36708" lon="-0.36432">
        <ele>27.3829</ele>
        <time>2011-06-02T12:39:05Z</time>
      </trkpt>
      <trkpt lat="46.36707" lon="-0.36432">
        <ele>27.3857</ele>
        <time>2011-06-02T12:39:06Z</time>
      </trkpt>
      <trkpt lat="46.36705" lon="-0.36432">
        <ele>27.3899</ele>
        <time>2011-06-02T12:39:07Z</time>
      </trkpt>
      <trkpt lat="46.36704" lon="-0.36432">
        <ele>27.3986</ele>
        <time>2011-06-02T12:39:08Z</time>
      </trkpt>
      <trkpt lat="46.36703" lon="-0.36432">
        <ele>27.4123</ele>
        <time>2011-06-02T12:39:09Z</time>
      </trkpt>
      <trkpt lat="46.36701" lon="-0.36432">
        <ele>27.4308</ele>
        <time>2011-06-02T12:39:10Z</time>
      </trkpt>
      <trkpt lat="46.367" lon="-0.36432">
        <ele>27.4492</ele>
        <time>2011-06-02T12:39:11Z</time>
      </trkpt>
      <trkpt lat="46.36699" lon="-0.36432">
        <ele>27.4699</ele>
        <time>2011-06-02T12:39:12Z</time>
      </trkpt>
      <trkpt lat="46.36697" lon="-0.36432">
        <ele>27.4916</ele>
        <time>2011-06-02T12:39:13Z</time>
      </trkpt>
      <trkpt lat="46.36696" lon="-0.36432">
        <ele>27.514</ele>
        <time>2011-06-02T12:39:14Z</time>
      </trkpt>
      <trkpt lat="46.36695" lon="-0.36432">
        <ele>27.5373</ele>
        <time>2011-06-02T12:39:15Z</time>
      </trkpt>
      <trkpt lat="46.36694" lon="-0.36432">
        <ele>27.5628</ele>
        <time>2011-06-02T12:39:16Z</time>
      </trkpt>
      <trkpt lat="46.36693" lon="-0.36433">
        <ele>27.5922</ele>
        <time>2011-06-02T12:39:17Z</time>
      </trkpt>
      <trkpt lat="46.36692" lon="-0.36433">
        <ele>27.6242</ele>
        <time>2011-06-02T12:39:18Z</time>
      </trkpt>
      <trkpt lat="46.36691" lon="-0.36433">
        <ele>27.6571</ele>
        <time>2011-06-02T12:39:19Z</time>
      </trkpt>
      <trkpt lat="46.3669" lon="-0.36434">
        <ele>27.6904</ele>
        <time>2011-06-02T12:39:20Z</time>
      </trkpt>
      <trkpt lat="46.36689" lon="-0.36434">
        <ele>27.7232</ele>
        <time>2011-06-02T12:39:21Z</time>
      </trkpt>
      <trkpt lat="46.36688" lon="-0.36434">
        <ele>27.7537</ele>
        <time>2011-06-02T12:39:22Z</time>
      </trkpt>
      <trkpt lat="46.36686" lon="-0.36435">
        <ele>27.7826</ele>
        <time>2011-06-02T12:39:23Z</time>
      </trkpt>
      <trkpt lat="46.36686" lon="-0.36436">
        <ele>27.8086</ele>
        <time>2011-06-02T12:39:24Z</time>
      </trkpt>
      <trkpt lat="46.36684" lon="-0.36436">
        <ele>27.8332</ele>
        <time>2011-06-02T12:39:25Z</time>
      </trkpt>
      <trkpt lat="46.36683" lon="-0.36437">
        <ele>27.8574</ele>
        <time>2011-06-02T12:39:26Z</time>
      </trkpt>
      <trkpt lat="46.36682" lon="-0.36437">
        <ele>27.8813</ele>
        <time>2011-06-02T12:39:27Z</time>
      </trkpt>
      <trkpt lat="46.36681" lon="-0.36438">
        <ele>27.9048</ele>
        <time>2011-06-02T12:39:28Z</time>
      </trkpt>
      <trkpt lat="46.3668" lon="-0.36438">
        <ele>27.9282</ele>
        <time>2011-06-02T12:39:29Z</time>
      </trkpt>
      <trkpt lat="46.36679" lon="-0.36438">
        <ele>27.9508</ele>
        <time>2011-06-02T12:39:30Z</time>
      </trkpt>
      <trkpt lat="46.36678" lon="-0.36439">
        <ele>27.9734</ele>
        <time>2011-06-02T12:39:31Z</time>
      </trkpt>
      <trkpt lat="46.36677" lon="-0.36439">
        <ele>27.9959</ele>
        <time>2011-06-02T12:39:32Z</time>
      </trkpt>
      <trkpt lat="46.36676" lon="-0.36439">
        <ele>28.018</ele>
        <time>2011-06-02T12:39:33Z</time>
      </trkpt>
      <trkpt lat="46.36676" lon="-0.36439">
        <ele>28.042</ele>
        <time>2011-06-02T12:39:34Z</time>
      </trkpt>
      <trkpt lat="46.36675" lon="-0.3644">
        <ele>28.0657</ele>
        <time>2011-06-02T12:39:35Z</time>
      </trkpt>
      <trkpt lat="46.36674" lon="-0.3644">
        <ele>28.0894</ele>
        <time>2011-06-02T12:39:36Z</time>
      </trkpt>
      <trkpt lat="46.36673" lon="-0.3644">
        <ele>28.1131</ele>
        <time>2011-06-02T12:39:37Z</time>
      </trkpt>
      <trkpt lat="46.36672" lon="-0.3644">
        <ele>28.1358</ele>
        <time>2011-06-02T12:39:38Z</time>
      </trkpt>
      <trkpt lat="46.36671" lon="-0.36441">
        <ele>28.1577</ele>
        <time>2011-06-02T12:39:39Z</time>
      </trkpt>
      <trkpt lat="46.3667" lon="-0.36441">
        <ele>28.1793</ele>
        <time>2011-06-02T12:39:40Z</time>
      </trkpt>
      <trkpt lat="46.36669" lon="-0.36442">
        <ele>28.2</ele>
        <time>2011-06-02T12:39:41Z</time>
      </trkpt>
      <trkpt lat="46.36668" lon="-0.36442">
        <ele>28.2225</ele>
        <time>2011-06-02T12:39:42Z</time>
      </trkpt>
      <trkpt lat="46.36667" lon="-0.36443">
        <ele>28.2458</ele>
        <time>2011-06-02T12:39:43Z</time>
      </trkpt>
      <trkpt lat="46.36666" lon="-0.36444">
        <ele>28.2675</ele>
        <time>2011-06-02T12:39:44Z</time>
      </trkpt>
      <trkpt lat="46.36665" lon="-0.36445">
        <ele>28.2886</ele>
        <time>2011-06-02T12:39:45Z</time>
      </trkpt>
      <trkpt lat="46.36664" lon="-0.36446">
        <ele>28.3105</ele>
        <time>2011-06-02T12:39:46Z</time>
      </trkpt>
      <trkpt lat="46.36664" lon="-0.36446">
        <ele>28.3327</ele>
        <time>2011-06-02T12:39:47Z</time>
      </trkpt>
      <trkpt lat="46.36663" lon="-0.36447">
        <ele>28.3555</ele>
        <time>2011-06-02T12:39:48Z</time>
      </trkpt>
      <trkpt lat="46.36662" lon="-0.36447">
        <ele>28.3774</ele>
        <time>2011-06-02T12:39:49Z</time>
      </trkpt>
      <trkpt lat="46.36661" lon="-0.36449">
        <ele>28.4023</ele>
        <time>2011-06-02T12:39:50Z</time>
      </trkpt>
      <trkpt lat="46.36659" lon="-0.36451">
        <ele>28.4573</ele>
        <time>2011-06-02T12:39:54Z</time>
      </trkpt>
      <trkpt lat="46.36658" lon="-0.36452">
        <ele>28.4774</ele>
        <time>2011-06-02T12:39:55Z</time>
      </trkpt>
      <trkpt lat="46.36657" lon="-0.36452">
        <ele>28.4879</ele>
        <time>2011-06-02T12:39:57Z</time>
      </trkpt>
      <trkpt lat="46.36655" lon="-0.36453">
        <ele>28.4956</ele>
        <time>2011-06-02T12:39:58Z</time>
      </trkpt>
      <trkpt lat="46.36654" lon="-0.36453">
        <ele>28.5009</ele>
        <time>2011-06-02T12:39:59Z</time>
      </trkpt>
      <trkpt lat="46.36653" lon="-0.36453">
        <ele>28.5012</ele>
        <time>2011-06-02T12:40:00Z</time>
      </trkpt>
      <trkpt lat="46.36652" lon="-0.36453">
        <ele>28.5018</ele>
        <time>2011-06-02T12:40:01Z</time>
      </trkpt>
      <trkpt lat="46.36651" lon="-0.36452">
        <ele>28.502</ele>
        <time>2011-06-02T12:40:02Z</time>
      </trkpt>
      <trkpt lat="46.3665" lon="-0.36452">
        <ele>28.5031</ele>
        <time>2011-06-02T12:40:03Z</time>
      </trkpt>
      <trkpt lat="46.36649" lon="-0.36451">
        <ele>28.503</ele>
        <time>2011-06-02T12:40:04Z</time>
      </trkpt>
      <trkpt lat="46.36649" lon="-0.36451">
        <ele>28.5013</ele>
        <time>2011-06-02T12:40:05Z</time>
      </trkpt>
      <trkpt lat="46.36648" lon="-0.36451">
        <ele>28.4988</ele>
        <time>2011-06-02T12:40:06Z</time>
      </trkpt>
      <trkpt lat="46.36647" lon="-0.36451">
        <ele>28.4941</ele>
        <time>2011-06-02T12:40:07Z</time>
      </trkpt>
      <trkpt lat="46.36647" lon="-0.36451">
        <ele>28.4893</ele>
        <time>2011-06-02T12:40:08Z</time>
      </trkpt>
      <trkpt lat="46.36647" lon="-0.36452">
        <ele>28.4946</ele>
        <time>2011-06-02T12:40:09Z</time>
      </trkpt>
      <trkpt lat="46.36647" lon="-0.36455">
        <ele>28.5189</ele>
        <time>2011-06-02T12:40:13Z</time>
      </trkpt>
      <trkpt lat="46.36647" lon="-0.36457">
        <ele>28.537</ele>
        <time>2011-06-02T12:40:14Z</time>
      </trkpt>
      <trkpt lat="46.36647" lon="-0.36458">
        <ele>28.557</ele>
        <time>2011-06-02T12:40:15Z</time>
      </trkpt>
      <trkpt lat="46.36646" lon="-0.36459">
        <ele>28.582</ele>
        <time>2011-06-02T12:40:16Z</time>
      </trkpt>
      <trkpt lat="46.36646" lon="-0.3646">
        <ele>28.6121</ele>
        <time>2011-06-02T12:40:17Z</time>
      </trkpt>
      <trkpt lat="46.36646" lon="-0.36461">
        <ele>28.6461</ele>
        <time>2011-06-02T12:40:18Z</time>
      </trkpt>
      <trkpt lat="46.36646" lon="-0.36463">
        <ele>28.6849</ele>
        <time>2011-06-02T12:40:19Z</time>
      </trkpt>
      <trkpt lat="46.36646" lon="-0.36464">
        <ele>28.7282</ele>
        <time>2011-06-02T12:40:20Z</time>
      </trkpt>
      <trkpt lat="46.36645" lon="-0.36465">
        <ele>28.7715</ele>
        <time>2011-06-02T12:40:21Z</time>
      </trkpt>
      <trkpt lat="46.36646" lon="-0.36466">
        <ele>28.8146</ele>
        <time>2011-06-02T12:40:22Z</time>
      </trkpt>
      <trkpt lat="46.36646" lon="-0.36468">
        <ele>28.8575</ele>
        <time>2011-06-02T12:40:23Z</time>
      </trkpt>
      <trkpt lat="46.36645" lon="-0.3647">
        <ele>28.8992</ele>
        <time>2011-06-02T12:40:24Z</time>
      </trkpt>
      <trkpt lat="46.36645" lon="-0.36471">
        <ele>28.9378</ele>
        <time>2011-06-02T12:40:25Z</time>
      </trkpt>
      <trkpt lat="46.36645" lon="-0.36473">
        <ele>28.9727</ele>
        <time>2011-06-02T12:40:26Z</time>
      </trkpt>
      <trkpt lat="46.36645" lon="-0.36475">
        <ele>29.0038</ele>
        <time>2011-06-02T12:40:27Z</time>
      </trkpt>
      <trkpt lat="46.36645" lon="-0.36476">
        <ele>29.0305</ele>
        <time>2011-06-02T12:40:28Z</time>
      </trkpt>
      <trkpt lat="46.36645" lon="-0.36478">
        <ele>29.0525</ele>
        <time>2011-06-02T12:40:29Z</time>
      </trkpt>
      <trkpt lat="46.36644" lon="-0.36482">
        <ele>29.0922</ele>
        <time>2011-06-02T12:40:45Z</time>
      </trkpt>
      <trkpt lat="46.36644" lon="-0.36483">
        <ele>29.1137</ele>
        <time>2011-06-02T12:40:46Z</time>
      </trkpt>
      <trkpt lat="46.36644" lon="-0.36484">
        <ele>29.1358</ele>
        <time>2011-06-02T12:40:47Z</time>
      </trkpt>
      <trkpt lat="46.36644" lon="-0.36485">
        <ele>29.1598</ele>
        <time>2011-06-02T12:40:48Z</time>
      </trkpt>
      <trkpt lat="46.36644" lon="-0.36487">
        <ele>29.1828</ele>
        <time>2011-06-02T12:40:49Z</time>
      </trkpt>
      <trkpt lat="46.36644" lon="-0.36488">
        <ele>29.204</ele>
        <time>2011-06-02T12:40:50Z</time>
      </trkpt>
      <trkpt lat="46.36644" lon="-0.3649">
        <ele>29.2245</ele>
        <time>2011-06-02T12:40:51Z</time>
      </trkpt>
      <trkpt lat="46.36644" lon="-0.36491">
        <ele>29.2446</ele>
        <time>2011-06-02T12:40:52Z</time>
      </trkpt>
      <trkpt lat="46.36645" lon="-0.36492">
        <ele>29.2656</ele>
        <time>2011-06-02T12:40:53Z</time>
      </trkpt>
      <trkpt lat="46.36645" lon="-0.36493">
        <ele>29.286</ele>
        <time>2011-06-02T12:40:54Z</time>
      </trkpt>
      <trkpt lat="46.36644" lon="-0.36494">
        <ele>29.3051</ele>
        <time>2011-06-02T12:40:55Z</time>
      </trkpt>
      <trkpt lat="46.36644" lon="-0.36495">
        <ele>29.3264</ele>
        <time>2011-06-02T12:40:56Z</time>
      </trkpt>
      <trkpt lat="46.36644" lon="-0.36496">
        <ele>29.3523</ele>
        <time>2011-06-02T12:40:57Z</time>
      </trkpt>
      <trkpt lat="46.36644" lon="-0.36497">
        <ele>29.3773</ele>
        <time>2011-06-02T12:40:58Z</time>
      </trkpt>
      <trkpt lat="46.36644" lon="-0.36498">
        <ele>29.4002</ele>
        <time>2011-06-02T12:40:59Z</time>
      </trkpt>
      <trkpt lat="46.36644" lon="-0.36499">
        <ele>29.4174</ele>
        <time>2011-06-02T12:41:00Z</time>
      </trkpt>
      <trkpt lat="46.36644" lon="-0.365">
        <ele>29.4225</ele>
        <time>2011-06-02T12:41:01Z</time>
      </trkpt>
      <trkpt lat="46.36644" lon="-0.36501">
        <ele>29.4292</ele>
        <time>2011-06-02T12:41:02Z</time>
      </trkpt>
      <trkpt lat="46.36644" lon="-0.36502">
        <ele>29.4339</ele>
        <time>2011-06-02T12:41:03Z</time>
      </trkpt>
      <trkpt lat="46.36644" lon="-0.36504">
        <ele>29.4355</ele>
        <time>2011-06-02T12:41:04Z</time>
      </trkpt>
      <trkpt lat="46.36644" lon="-0.36506">
        <ele>29.4286</ele>
        <time>2011-06-02T12:41:05Z</time>
      </trkpt>
      <trkpt lat="46.36644" lon="-0.36508">
        <ele>29.4116</ele>
        <time>2011-06-02T12:41:06Z</time>
      </trkpt>
      <trkpt lat="46.36644" lon="-0.36509">
        <ele>29.3933</ele>
        <time>2011-06-02T12:41:07Z</time>
      </trkpt>
      <trkpt lat="46.36644" lon="-0.36511">
        <ele>29.3721</ele>
        <time>2011-06-02T12:41:08Z</time>
      </trkpt>
      <trkpt lat="46.36644" lon="-0.36512">
        <ele>29.347</ele>
        <time>2011-06-02T12:41:09Z</time>
      </trkpt>
      <trkpt lat="46.36644" lon="-0.36513">
        <ele>29.319</ele>
        <time>2011-06-02T12:41:10Z</time>
      </trkpt>
      <trkpt lat="46.36644" lon="-0.36514">
        <ele>29.2915</ele>
        <time>2011-06-02T12:41:11Z</time>
      </trkpt>
      <trkpt lat="46.36644" lon="-0.36515">
        <ele>29.2592</ele>
        <time>2011-06-02T12:41:12Z</time>
      </trkpt>
      <trkpt lat="46.36644" lon="-0.36516">
        <ele>29.2266</ele>
        <time>2011-06-02T12:41:13Z</time>
      </trkpt>
      <trkpt lat="46.36644" lon="-0.36518">
        <ele>29.1769</ele>
        <time>2011-06-02T12:41:14Z</time>
      </trkpt>
      <trkpt lat="46.36644" lon="-0.36519">
        <ele>29.1272</ele>
        <time>2011-06-02T12:41:15Z</time>
      </trkpt>
      <trkpt lat="46.36644" lon="-0.36521">
        <ele>29.0766</ele>
        <time>2011-06-02T12:41:16Z</time>
      </trkpt>
      <trkpt lat="46.36644" lon="-0.36522">
        <ele>29.0256</ele>
        <time>2011-06-02T12:41:17Z</time>
      </trkpt>
      <trkpt lat="46.36644" lon="-0.36524">
        <ele>28.9736</ele>
        <time>2011-06-02T12:41:18Z</time>
      </trkpt>
      <trkpt lat="46.36644" lon="-0.36525">
        <ele>28.9216</ele>
        <time>2011-06-02T12:41:19Z</time>
      </trkpt>
      <trkpt lat="46.36644" lon="-0.36526">
        <ele>28.8558</ele>
        <time>2011-06-02T12:41:20Z</time>
      </trkpt>
      <trkpt lat="46.36644" lon="-0.36528">
        <ele>28.7757</ele>
        <time>2011-06-02T12:41:21Z</time>
      </trkpt>
      <trkpt lat="46.36644" lon="-0.36529">
        <ele>28.6846</ele>
        <time>2011-06-02T12:41:22Z</time>
      </trkpt>
      <trkpt lat="46.36644" lon="-0.36531">
        <ele>28.5884</ele>
        <time>2011-06-02T12:41:23Z</time>
      </trkpt>
      <trkpt lat="46.36645" lon="-0.36532">
        <ele>28.4896</ele>
        <time>2011-06-02T12:41:24Z</time>
      </trkpt>
      <trkpt lat="46.36645" lon="-0.36533">
        <ele>28.3885</ele>
        <time>2011-06-02T12:41:25Z</time>
      </trkpt>
      <trkpt lat="46.36645" lon="-0.36534">
        <ele>28.289</ele>
        <time>2011-06-02T12:41:26Z</time>
      </trkpt>
      <trkpt lat="46.36645" lon="-0.36536">
        <ele>28.1893</ele>
        <time>2011-06-02T12:41:27Z</time>
      </trkpt>
      <trkpt lat="46.36645" lon="-0.36538">
        <ele>28.0923</ele>
        <time>2011-06-02T12:41:28Z</time>
      </trkpt>
      <trkpt lat="46.36645" lon="-0.36539">
        <ele>27.9986</ele>
        <time>2011-06-02T12:41:29Z</time>
      </trkpt>
      <trkpt lat="46.36645" lon="-0.3654">
        <ele>27.9077</ele>
        <time>2011-06-02T12:41:30Z</time>
      </trkpt>
      <trkpt lat="46.36645" lon="-0.36541">
        <ele>27.8197</ele>
        <time>2011-06-02T12:41:31Z</time>
      </trkpt>
      <trkpt lat="46.36645" lon="-0.36543">
        <ele>27.7346</ele>
        <time>2011-06-02T12:41:32Z</time>
      </trkpt>
      <trkpt lat="46.36644" lon="-0.36544">
        <ele>27.6541</ele>
        <time>2011-06-02T12:41:33Z</time>
      </trkpt>
      <trkpt lat="46.36644" lon="-0.36546">
        <ele>27.5753</ele>
        <time>2011-06-02T12:41:34Z</time>
      </trkpt>
      <trkpt lat="46.36644" lon="-0.36547">
        <ele>27.5009</ele>
        <time>2011-06-02T12:41:35Z</time>
      </trkpt>
      <trkpt lat="46.36644" lon="-0.36549">
        <ele>27.4309</ele>
        <time>2011-06-02T12:41:36Z</time>
      </trkpt>
      <trkpt lat="46.36644" lon="-0.36551">
        <ele>27.3677</ele>
        <time>2011-06-02T12:41:37Z</time>
      </trkpt>
      <trkpt lat="46.36645" lon="-0.36553">
        <ele>27.3108</ele>
        <time>2011-06-02T12:41:38Z</time>
      </trkpt>
      <trkpt lat="46.36644" lon="-0.36554">
        <ele>27.2589</ele>
        <time>2011-06-02T12:41:39Z</time>
      </trkpt>
      <trkpt lat="46.36644" lon="-0.36555">
        <ele>27.2108</ele>
        <time>2011-06-02T12:41:40Z</time>
      </trkpt>
      <trkpt lat="46.36644" lon="-0.36556">
        <ele>27.1678</ele>
        <time>2011-06-02T12:41:41Z</time>
      </trkpt>
      <trkpt lat="46.36644" lon="-0.36558">
        <ele>27.1249</ele>
        <time>2011-06-02T12:41:42Z</time>
      </trkpt>
      <trkpt lat="46.36644" lon="-0.36559">
        <ele>27.0843</ele>
        <time>2011-06-02T12:41:43Z</time>
      </trkpt>
      <trkpt lat="46.36644" lon="-0.36561">
        <ele>27.0449</ele>
        <time>2011-06-02T12:41:44Z</time>
      </trkpt>
      <trkpt lat="46.36644" lon="-0.36561">
        <ele>26.8498</ele>
        <time>2011-06-02T12:41:52Z</time>
      </trkpt>
      <trkpt lat="46.36643" lon="-0.36562">
        <ele>26.7905</ele>
        <time>2011-06-02T12:41:53Z</time>
      </trkpt>
      <trkpt lat="46.36642" lon="-0.36563">
        <ele>26.7324</ele>
        <time>2011-06-02T12:41:54Z</time>
      </trkpt>
      <trkpt lat="46.36642" lon="-0.36564">
        <ele>26.6783</ele>
        <time>2011-06-02T12:41:55Z</time>
      </trkpt>
      <trkpt lat="46.36641" lon="-0.36566">
        <ele>26.6261</ele>
        <time>2011-06-02T12:41:56Z</time>
      </trkpt>
      <trkpt lat="46.36641" lon="-0.36568">
        <ele>26.585</ele>
        <time>2011-06-02T12:41:57Z</time>
      </trkpt>
      <trkpt lat="46.3664" lon="-0.3657">
        <ele>26.5531</ele>
        <time>2011-06-02T12:41:58Z</time>
      </trkpt>
      <trkpt lat="46.36639" lon="-0.36571">
        <ele>26.5202</ele>
        <time>2011-06-02T12:41:59Z</time>
      </trkpt>
      <trkpt lat="46.36639" lon="-0.36573">
        <ele>26.4882</ele>
        <time>2011-06-02T12:42:00Z</time>
      </trkpt>
      <trkpt lat="46.36638" lon="-0.36575">
        <ele>26.4711</ele>
        <time>2011-06-02T12:42:01Z</time>
      </trkpt>
      <trkpt lat="46.36638" lon="-0.36576">
        <ele>26.4617</ele>
        <time>2011-06-02T12:42:02Z</time>
      </trkpt>
      <trkpt lat="46.36637" lon="-0.36577">
        <ele>26.4589</ele>
        <time>2011-06-02T12:42:03Z</time>
      </trkpt>
      <trkpt lat="46.36636" lon="-0.36579">
        <ele>26.4622</ele>
        <time>2011-06-02T12:42:04Z</time>
      </trkpt>
      <trkpt lat="46.36636" lon="-0.3658">
        <ele>26.4652</ele>
        <time>2011-06-02T12:42:05Z</time>
      </trkpt>
      <trkpt lat="46.36636" lon="-0.36582">
        <ele>26.4682</ele>
        <time>2011-06-02T12:42:06Z</time>
      </trkpt>
      <trkpt lat="46.36635" lon="-0.36584">
        <ele>26.4718</ele>
        <time>2011-06-02T12:42:07Z</time>
      </trkpt>
      <trkpt lat="46.36634" lon="-0.36586">
        <ele>26.4753</ele>
        <time>2011-06-02T12:42:08Z</time>
      </trkpt>
      <trkpt lat="46.36634" lon="-0.36587">
        <ele>26.4795</ele>
        <time>2011-06-02T12:42:09Z</time>
      </trkpt>
      <trkpt lat="46.36633" lon="-0.36589">
        <ele>26.4746</ele>
        <time>2011-06-02T12:42:10Z</time>
      </trkpt>
      <trkpt lat="46.36633" lon="-0.3659">
        <ele>26.471</ele>
        <time>2011-06-02T12:42:11Z</time>
      </trkpt>
      <trkpt lat="46.36633" lon="-0.36592">
        <ele>26.4634</ele>
        <time>2011-06-02T12:42:12Z</time>
      </trkpt>
      <trkpt lat="46.36632" lon="-0.36594">
        <ele>26.4526</ele>
        <time>2011-06-02T12:42:13Z</time>
      </trkpt>
      <trkpt lat="46.36632" lon="-0.36595">
        <ele>26.4388</ele>
        <time>2011-06-02T12:42:14Z</time>
      </trkpt>
      <trkpt lat="46.36632" lon="-0.36597">
        <ele>26.4243</ele>
        <time>2011-06-02T12:42:15Z</time>
      </trkpt>
      <trkpt lat="46.36631" lon="-0.36598">
        <ele>26.4146</ele>
        <time>2011-06-02T12:42:16Z</time>
      </trkpt>
      <trkpt lat="46.36631" lon="-0.366">
        <ele>26.4023</ele>
        <time>2011-06-02T12:42:17Z</time>
      </trkpt>
      <trkpt lat="46.3663" lon="-0.36601">
        <ele>26.3864</ele>
        <time>2011-06-02T12:42:18Z</time>
      </trkpt>
      <trkpt lat="46.3663" lon="-0.36603">
        <ele>26.3713</ele>
        <time>2011-06-02T12:42:19Z</time>
      </trkpt>
      <trkpt lat="46.36629" lon="-0.36604">
        <ele>26.3583</ele>
        <time>2011-06-02T12:42:20Z</time>
      </trkpt>
      <trkpt lat="46.36628" lon="-0.36605">
        <ele>26.3562</ele>
        <time>2011-06-02T12:42:21Z</time>
      </trkpt>
      <trkpt lat="46.36627" lon="-0.36607">
        <ele>26.3566</ele>
        <time>2011-06-02T12:42:22Z</time>
      </trkpt>
      <trkpt lat="46.36626" lon="-0.36608">
        <ele>26.359</ele>
        <time>2011-06-02T12:42:23Z</time>
      </trkpt>
      <trkpt lat="46.36626" lon="-0.36609">
        <ele>26.3614</ele>
        <time>2011-06-02T12:42:24Z</time>
      </trkpt>
      <trkpt lat="46.36625" lon="-0.3661">
        <ele>26.3645</ele>
        <time>2011-06-02T12:42:25Z</time>
      </trkpt>
      <trkpt lat="46.36625" lon="-0.36611">
        <ele>26.3667</ele>
        <time>2011-06-02T12:42:26Z</time>
      </trkpt>
      <trkpt lat="46.36624" lon="-0.36612">
        <ele>26.3651</ele>
        <time>2011-06-02T12:42:27Z</time>
      </trkpt>
      <trkpt lat="46.36623" lon="-0.36613">
        <ele>26.3634</ele>
        <time>2011-06-02T12:42:28Z</time>
      </trkpt>
      <trkpt lat="46.36622" lon="-0.36613">
        <ele>26.3633</ele>
        <time>2011-06-02T12:42:29Z</time>
      </trkpt>
      <trkpt lat="46.36622" lon="-0.36613">
        <ele>26.3634</ele>
        <time>2011-06-02T12:42:30Z</time>
      </trkpt>
      <trkpt lat="46.36621" lon="-0.36613">
        <ele>26.3677</ele>
        <time>2011-06-02T12:42:31Z</time>
      </trkpt>
      <trkpt lat="46.3662" lon="-0.36613">
        <ele>26.3757</ele>
        <time>2011-06-02T12:42:32Z</time>
      </trkpt>
      <trkpt lat="46.36619" lon="-0.36613">
        <ele>26.3891</ele>
        <time>2011-06-02T12:42:33Z</time>
      </trkpt>
      <trkpt lat="46.36618" lon="-0.36614">
        <ele>26.4072</ele>
        <time>2011-06-02T12:42:34Z</time>
      </trkpt>
      <trkpt lat="46.36617" lon="-0.36614">
        <ele>26.4226</ele>
        <time>2011-06-02T12:42:35Z</time>
      </trkpt>
      <trkpt lat="46.36617" lon="-0.36614">
        <ele>26.4344</ele>
        <time>2011-06-02T12:42:36Z</time>
      </trkpt>
      <trkpt lat="46.36616" lon="-0.36615">
        <ele>26.4453</ele>
        <time>2011-06-02T12:42:37Z</time>
      </trkpt>
      <trkpt lat="46.36615" lon="-0.36615">
        <ele>26.4578</ele>
        <time>2011-06-02T12:42:38Z</time>
      </trkpt>
      <trkpt lat="46.36614" lon="-0.36616">
        <ele>26.4698</ele>
        <time>2011-06-02T12:42:39Z</time>
      </trkpt>
      <trkpt lat="46.36613" lon="-0.36616">
        <ele>26.4816</ele>
        <time>2011-06-02T12:42:40Z</time>
      </trkpt>
      <trkpt lat="46.36612" lon="-0.36617">
        <ele>26.4926</ele>
        <time>2011-06-02T12:42:41Z</time>
      </trkpt>
      <trkpt lat="46.36612" lon="-0.36618">
        <ele>26.5079</ele>
        <time>2011-06-02T12:42:42Z</time>
      </trkpt>
      <trkpt lat="46.36611" lon="-0.36619">
        <ele>26.5223</ele>
        <time>2011-06-02T12:42:43Z</time>
      </trkpt>
      <trkpt lat="46.3661" lon="-0.3662">
        <ele>26.5282</ele>
        <time>2011-06-02T12:42:44Z</time>
      </trkpt>
      <trkpt lat="46.3661" lon="-0.36621">
        <ele>26.529</ele>
        <time>2011-06-02T12:42:45Z</time>
      </trkpt>
      <trkpt lat="46.36608" lon="-0.36628">
        <ele>26.4725</ele>
        <time>2011-06-02T12:42:50Z</time>
      </trkpt>
      <trkpt lat="46.36607" lon="-0.36633">
        <ele>26.3985</ele>
        <time>2011-06-02T12:42:56Z</time>
      </trkpt>
      <trkpt lat="46.36606" lon="-0.36633">
        <ele>26.3893</ele>
        <time>2011-06-02T12:42:57Z</time>
      </trkpt>
      <trkpt lat="46.36605" lon="-0.36634">
        <ele>26.3801</ele>
        <time>2011-06-02T12:42:58Z</time>
      </trkpt>
      <trkpt lat="46.36604" lon="-0.36635">
        <ele>26.3671</ele>
        <time>2011-06-02T12:42:59Z</time>
      </trkpt>
      <trkpt lat="46.36604" lon="-0.36637">
        <ele>26.3559</ele>
        <time>2011-06-02T12:43:00Z</time>
      </trkpt>
      <trkpt lat="46.36604" lon="-0.36638">
        <ele>26.345</ele>
        <time>2011-06-02T12:43:01Z</time>
      </trkpt>
      <trkpt lat="46.36604" lon="-0.3664">
        <ele>26.3398</ele>
        <time>2011-06-02T12:43:02Z</time>
      </trkpt>
      <trkpt lat="46.36604" lon="-0.36641">
        <ele>26.3382</ele>
        <time>2011-06-02T12:43:03Z</time>
      </trkpt>
      <trkpt lat="46.36603" lon="-0.36643">
        <ele>26.3422</ele>
        <time>2011-06-02T12:43:04Z</time>
      </trkpt>
      <trkpt lat="46.36603" lon="-0.36644">
        <ele>26.347</ele>
        <time>2011-06-02T12:43:05Z</time>
      </trkpt>
      <trkpt lat="46.36603" lon="-0.36646">
        <ele>26.3544</ele>
        <time>2011-06-02T12:43:06Z</time>
      </trkpt>
      <trkpt lat="46.36603" lon="-0.36648">
        <ele>26.3619</ele>
        <time>2011-06-02T12:43:07Z</time>
      </trkpt>
      <trkpt lat="46.36602" lon="-0.3665">
        <ele>26.3773</ele>
        <time>2011-06-02T12:43:08Z</time>
      </trkpt>
      <trkpt lat="46.36602" lon="-0.36652">
        <ele>26.4005</ele>
        <time>2011-06-02T12:43:09Z</time>
      </trkpt>
      <trkpt lat="46.36602" lon="-0.36654">
        <ele>26.4383</ele>
        <time>2011-06-02T12:43:10Z</time>
      </trkpt>
      <trkpt lat="46.36602" lon="-0.36657">
        <ele>26.4894</ele>
        <time>2011-06-02T12:43:11Z</time>
      </trkpt>
      <trkpt lat="46.36602" lon="-0.36659">
        <ele>26.5401</ele>
        <time>2011-06-02T12:43:12Z</time>
      </trkpt>
      <trkpt lat="46.36602" lon="-0.36662">
        <ele>26.5839</ele>
        <time>2011-06-02T12:43:13Z</time>
      </trkpt>
      <trkpt lat="46.36603" lon="-0.36665">
        <ele>26.6222</ele>
        <time>2011-06-02T12:43:14Z</time>
      </trkpt>
      <trkpt lat="46.36603" lon="-0.36667">
        <ele>26.6529</ele>
        <time>2011-06-02T12:43:15Z</time>
      </trkpt>
      <trkpt lat="46.36603" lon="-0.36669">
        <ele>26.6792</ele>
        <time>2011-06-02T12:43:16Z</time>
      </trkpt>
      <trkpt lat="46.36603" lon="-0.3667">
        <ele>26.7038</ele>
        <time>2011-06-02T12:43:17Z</time>
      </trkpt>
      <trkpt lat="46.36603" lon="-0.36672">
        <ele>26.7279</ele>
        <time>2011-06-02T12:43:18Z</time>
      </trkpt>
      <trkpt lat="46.36603" lon="-0.36673">
        <ele>26.7503</ele>
        <time>2011-06-02T12:43:19Z</time>
      </trkpt>
      <trkpt lat="46.36603" lon="-0.36675">
        <ele>26.7748</ele>
        <time>2011-06-02T12:43:20Z</time>
      </trkpt>
      <trkpt lat="46.36603" lon="-0.36676">
        <ele>26.8039</ele>
        <time>2011-06-02T12:43:21Z</time>
      </trkpt>
      <trkpt lat="46.36602" lon="-0.36678">
        <ele>26.8372</ele>
        <time>2011-06-02T12:43:22Z</time>
      </trkpt>
      <trkpt lat="46.36602" lon="-0.36679">
        <ele>26.8689</ele>
        <time>2011-06-02T12:43:23Z</time>
      </trkpt>
      <trkpt lat="46.36602" lon="-0.3668">
        <ele>26.897</ele>
        <time>2011-06-02T12:43:24Z</time>
      </trkpt>
      <trkpt lat="46.36602" lon="-0.36682">
        <ele>26.9194</ele>
        <time>2011-06-02T12:43:25Z</time>
      </trkpt>
      <trkpt lat="46.36602" lon="-0.36683">
        <ele>26.9402</ele>
        <time>2011-06-02T12:43:26Z</time>
      </trkpt>
      <trkpt lat="46.36602" lon="-0.36684">
        <ele>26.9598</ele>
        <time>2011-06-02T12:43:27Z</time>
      </trkpt>
      <trkpt lat="46.36602" lon="-0.36685">
        <ele>26.9775</ele>
        <time>2011-06-02T12:43:28Z</time>
      </trkpt>
      <trkpt lat="46.36602" lon="-0.36686">
        <ele>26.995</ele>
        <time>2011-06-02T12:43:29Z</time>
      </trkpt>
      <trkpt lat="46.36605" lon="-0.36692">
        <ele>27.4376</ele>
        <time>2011-06-02T12:43:53Z</time>
      </trkpt>
      <trkpt lat="46.36605" lon="-0.36693">
        <ele>27.5113</ele>
        <time>2011-06-02T12:43:54Z</time>
      </trkpt>
      <trkpt lat="46.36605" lon="-0.36695">
        <ele>27.5834</ele>
        <time>2011-06-02T12:43:55Z</time>
      </trkpt>
      <trkpt lat="46.36605" lon="-0.36696">
        <ele>27.6536</ele>
        <time>2011-06-02T12:43:56Z</time>
      </trkpt>
      <trkpt lat="46.36604" lon="-0.36698">
        <ele>27.721</ele>
        <time>2011-06-02T12:43:57Z</time>
      </trkpt>
      <trkpt lat="46.36604" lon="-0.367">
        <ele>27.7877</ele>
        <time>2011-06-02T12:43:58Z</time>
      </trkpt>
      <trkpt lat="46.36604" lon="-0.36701">
        <ele>27.8549</ele>
        <time>2011-06-02T12:43:59Z</time>
      </trkpt>
      <trkpt lat="46.36604" lon="-0.36703">
        <ele>27.9143</ele>
        <time>2011-06-02T12:44:00Z</time>
      </trkpt>
      <trkpt lat="46.36603" lon="-0.36704">
        <ele>27.9731</ele>
        <time>2011-06-02T12:44:01Z</time>
      </trkpt>
      <trkpt lat="46.36603" lon="-0.36706">
        <ele>28.0294</ele>
        <time>2011-06-02T12:44:02Z</time>
      </trkpt>
      <trkpt lat="46.36602" lon="-0.36708">
        <ele>28.0883</ele>
        <time>2011-06-02T12:44:03Z</time>
      </trkpt>
      <trkpt lat="46.36601" lon="-0.36714">
        <ele>28.2556</ele>
        <time>2011-06-02T12:44:07Z</time>
      </trkpt>
      <trkpt lat="46.366" lon="-0.36715">
        <ele>28.2778</ele>
        <time>2011-06-02T12:44:08Z</time>
      </trkpt>
      <trkpt lat="46.36601" lon="-0.36716">
        <ele>28.3011</ele>
        <time>2011-06-02T12:44:09Z</time>
      </trkpt>
      <trkpt lat="46.36599" lon="-0.36721">
        <ele>28.2309</ele>
        <time>2011-06-02T12:44:14Z</time>
      </trkpt>
      <trkpt lat="46.36599" lon="-0.36723">
        <ele>28.1818</ele>
        <time>2011-06-02T12:44:15Z</time>
      </trkpt>
      <trkpt lat="46.36598" lon="-0.36724">
        <ele>28.1467</ele>
        <time>2011-06-02T12:44:16Z</time>
      </trkpt>
      <trkpt lat="46.36597" lon="-0.36726">
        <ele>28.1381</ele>
        <time>2011-06-02T12:44:17Z</time>
      </trkpt>
      <trkpt lat="46.36597" lon="-0.36728">
        <ele>28.1481</ele>
        <time>2011-06-02T12:44:18Z</time>
      </trkpt>
      <trkpt lat="46.36597" lon="-0.36729">
        <ele>28.158</ele>
        <time>2011-06-02T12:44:19Z</time>
      </trkpt>
      <trkpt lat="46.36597" lon="-0.36731">
        <ele>28.159</ele>
        <time>2011-06-02T12:44:20Z</time>
      </trkpt>
      <trkpt lat="46.36597" lon="-0.36733">
        <ele>28.1666</ele>
        <time>2011-06-02T12:44:21Z</time>
      </trkpt>
      <trkpt lat="46.36596" lon="-0.36734">
        <ele>28.1717</ele>
        <time>2011-06-02T12:44:22Z</time>
      </trkpt>
      <trkpt lat="46.36595" lon="-0.36736">
        <ele>28.1763</ele>
        <time>2011-06-02T12:44:23Z</time>
      </trkpt>
      <trkpt lat="46.36594" lon="-0.36737">
        <ele>28.1824</ele>
        <time>2011-06-02T12:44:24Z</time>
      </trkpt>
      <trkpt lat="46.36593" lon="-0.36738">
        <ele>28.1787</ele>
        <time>2011-06-02T12:44:25Z</time>
      </trkpt>
      <trkpt lat="46.36592" lon="-0.36739">
        <ele>28.1746</ele>
        <time>2011-06-02T12:44:26Z</time>
      </trkpt>
      <trkpt lat="46.36592" lon="-0.36741">
        <ele>28.1716</ele>
        <time>2011-06-02T12:44:27Z</time>
      </trkpt>
      <trkpt lat="46.36592" lon="-0.36742">
        <ele>28.1728</ele>
        <time>2011-06-02T12:44:28Z</time>
      </trkpt>
      <trkpt lat="46.36593" lon="-0.36743">
        <ele>28.1767</ele>
        <time>2011-06-02T12:44:29Z</time>
      </trkpt>
      <trkpt lat="46.36592" lon="-0.36744">
        <ele>28.1878</ele>
        <time>2011-06-02T12:44:30Z</time>
      </trkpt>
      <trkpt lat="46.36592" lon="-0.36746">
        <ele>28.2001</ele>
        <time>2011-06-02T12:44:31Z</time>
      </trkpt>
      <trkpt lat="46.36592" lon="-0.36751">
        <ele>28.0377</ele>
        <time>2011-06-02T12:44:35Z</time>
      </trkpt>
      <trkpt lat="46.36592" lon="-0.36752">
        <ele>27.9614</ele>
        <time>2011-06-02T12:44:36Z</time>
      </trkpt>
      <trkpt lat="46.36592" lon="-0.36754">
        <ele>27.8889</ele>
        <time>2011-06-02T12:44:37Z</time>
      </trkpt>
      <trkpt lat="46.36593" lon="-0.36755">
        <ele>27.8237</ele>
        <time>2011-06-02T12:44:38Z</time>
      </trkpt>
      <trkpt lat="46.36593" lon="-0.36756">
        <ele>27.7509</ele>
        <time>2011-06-02T12:44:39Z</time>
      </trkpt>
      <trkpt lat="46.36593" lon="-0.36757">
        <ele>27.6633</ele>
        <time>2011-06-02T12:44:40Z</time>
      </trkpt>
      <trkpt lat="46.36593" lon="-0.36758">
        <ele>27.5696</ele>
        <time>2011-06-02T12:44:41Z</time>
      </trkpt>
      <trkpt lat="46.36593" lon="-0.36759">
        <ele>27.4826</ele>
        <time>2011-06-02T12:44:42Z</time>
      </trkpt>
      <trkpt lat="46.36593" lon="-0.3676">
        <ele>27.3963</ele>
        <time>2011-06-02T12:44:43Z</time>
      </trkpt>
      <trkpt lat="46.36594" lon="-0.36761">
        <ele>27.31</ele>
        <time>2011-06-02T12:44:44Z</time>
      </trkpt>
      <trkpt lat="46.36595" lon="-0.36763">
        <ele>27.239</ele>
        <time>2011-06-02T12:44:45Z</time>
      </trkpt>
      <trkpt lat="46.36595" lon="-0.36764">
        <ele>27.173</ele>
        <time>2011-06-02T12:44:46Z</time>
      </trkpt>
      <trkpt lat="46.36596" lon="-0.36764">
        <ele>27.1086</ele>
        <time>2011-06-02T12:44:47Z</time>
      </trkpt>
      <trkpt lat="46.36597" lon="-0.36763">
        <ele>26.782</ele>
        <time>2011-06-02T12:45:13Z</time>
      </trkpt>
      <trkpt lat="46.36597" lon="-0.36763">
        <ele>26.6999</ele>
        <time>2011-06-02T12:45:14Z</time>
      </trkpt>
      <trkpt lat="46.36597" lon="-0.36764">
        <ele>26.62</ele>
        <time>2011-06-02T12:45:15Z</time>
      </trkpt>
      <trkpt lat="46.36598" lon="-0.36765">
        <ele>26.5273</ele>
        <time>2011-06-02T12:45:16Z</time>
      </trkpt>
      <trkpt lat="46.36599" lon="-0.36766">
        <ele>26.4349</ele>
        <time>2011-06-02T12:45:17Z</time>
      </trkpt>
      <trkpt lat="46.366" lon="-0.36767">
        <ele>26.343</ele>
        <time>2011-06-02T12:45:18Z</time>
      </trkpt>
      <trkpt lat="46.366" lon="-0.36775">
        <ele>25.9858</ele>
        <time>2011-06-02T12:45:26Z</time>
      </trkpt>
      <trkpt lat="46.36602" lon="-0.36782">
        <ele>24.7119</ele>
        <time>2011-06-02T12:45:31Z</time>
      </trkpt>
      <trkpt lat="46.36604" lon="-0.36787">
        <ele>22.4512</ele>
        <time>2011-06-02T12:45:40Z</time>
      </trkpt>
      <trkpt lat="46.36603" lon="-0.36793">
        <ele>20.5928</ele>
        <time>2011-06-02T12:45:50Z</time>
      </trkpt>
      <trkpt lat="46.36603" lon="-0.36797">
        <ele>19.9791</ele>
        <time>2011-06-02T12:45:53Z</time>
      </trkpt>
      <trkpt lat="46.36603" lon="-0.36799">
        <ele>19.6139</ele>
        <time>2011-06-02T12:45:55Z</time>
      </trkpt>
      <trkpt lat="46.36604" lon="-0.36801">
        <ele>19.4615</ele>
        <time>2011-06-02T12:45:56Z</time>
      </trkpt>
      <trkpt lat="46.36604" lon="-0.36802">
        <ele>19.3117</ele>
        <time>2011-06-02T12:45:57Z</time>
      </trkpt>
      <trkpt lat="46.36605" lon="-0.36804">
        <ele>19.1829</ele>
        <time>2011-06-02T12:45:58Z</time>
      </trkpt>
      <trkpt lat="46.36606" lon="-0.36805">
        <ele>19.0636</ele>
        <time>2011-06-02T12:45:59Z</time>
      </trkpt>
      <trkpt lat="46.36607" lon="-0.36809">
        <ele>18.8239</ele>
        <time>2011-06-02T12:46:01Z</time>
      </trkpt>
      <trkpt lat="46.36608" lon="-0.3681">
        <ele>18.7057</ele>
        <time>2011-06-02T12:46:02Z</time>
      </trkpt>
      <trkpt lat="46.36609" lon="-0.36812">
        <ele>18.605</ele>
        <time>2011-06-02T12:46:03Z</time>
      </trkpt>
      <trkpt lat="46.3661" lon="-0.36813">
        <ele>18.4979</ele>
        <time>2011-06-02T12:46:04Z</time>
      </trkpt>
      <trkpt lat="46.3661" lon="-0.36814">
        <ele>18.398</ele>
        <time>2011-06-02T12:46:05Z</time>
      </trkpt>
      <trkpt lat="46.36611" lon="-0.36816">
        <ele>18.3141</ele>
        <time>2011-06-02T12:46:06Z</time>
      </trkpt>
      <trkpt lat="46.36612" lon="-0.36817">
        <ele>18.2375</ele>
        <time>2011-06-02T12:46:07Z</time>
      </trkpt>
      <trkpt lat="46.36612" lon="-0.36819">
        <ele>18.1744</ele>
        <time>2011-06-02T12:46:08Z</time>
      </trkpt>
      <trkpt lat="46.36613" lon="-0.36821">
        <ele>18.117</ele>
        <time>2011-06-02T12:46:09Z</time>
      </trkpt>
      <trkpt lat="46.36614" lon="-0.36822">
        <ele>18.0689</ele>
        <time>2011-06-02T12:46:10Z</time>
      </trkpt>
      <trkpt lat="46.36615" lon="-0.36823">
        <ele>18.025</ele>
        <time>2011-06-02T12:46:11Z</time>
      </trkpt>
      <trkpt lat="46.36616" lon="-0.36825">
        <ele>17.9797</ele>
        <time>2011-06-02T12:46:12Z</time>
      </trkpt>
      <trkpt lat="46.36617" lon="-0.36826">
        <ele>17.9426</ele>
        <time>2011-06-02T12:46:13Z</time>
      </trkpt>
      <trkpt lat="46.36618" lon="-0.36827">
        <ele>17.9222</ele>
        <time>2011-06-02T12:46:14Z</time>
      </trkpt>
      <trkpt lat="46.36619" lon="-0.36828">
        <ele>17.9034</ele>
        <time>2011-06-02T12:46:15Z</time>
      </trkpt>
      <trkpt lat="46.3662" lon="-0.36829">
        <ele>17.8808</ele>
        <time>2011-06-02T12:46:16Z</time>
      </trkpt>
      <trkpt lat="46.36621" lon="-0.3683">
        <ele>17.8661</ele>
        <time>2011-06-02T12:46:17Z</time>
      </trkpt>
      <trkpt lat="46.36622" lon="-0.36831">
        <ele>17.8637</ele>
        <time>2011-06-02T12:46:18Z</time>
      </trkpt>
      <trkpt lat="46.36622" lon="-0.36832">
        <ele>17.8628</ele>
        <time>2011-06-02T12:46:19Z</time>
      </trkpt>
      <trkpt lat="46.36623" lon="-0.36833">
        <ele>17.8588</ele>
        <time>2011-06-02T12:46:20Z</time>
      </trkpt>
      <trkpt lat="46.36624" lon="-0.36833">
        <ele>17.8491</ele>
        <time>2011-06-02T12:46:21Z</time>
      </trkpt>
      <trkpt lat="46.36625" lon="-0.36834">
        <ele>17.8311</ele>
        <time>2011-06-02T12:46:22Z</time>
      </trkpt>
      <trkpt lat="46.36626" lon="-0.36835">
        <ele>17.804</ele>
        <time>2011-06-02T12:46:23Z</time>
      </trkpt>
      <trkpt lat="46.36626" lon="-0.36837">
        <ele>17.7793</ele>
        <time>2011-06-02T12:46:24Z</time>
      </trkpt>
      <trkpt lat="46.36627" lon="-0.36838">
        <ele>17.7573</ele>
        <time>2011-06-02T12:46:25Z</time>
      </trkpt>
      <trkpt lat="46.36628" lon="-0.3684">
        <ele>17.7459</ele>
        <time>2011-06-02T12:46:26Z</time>
      </trkpt>
      <trkpt lat="46.36629" lon="-0.36841">
        <ele>17.726</ele>
        <time>2011-06-02T12:46:27Z</time>
      </trkpt>
      <trkpt lat="46.3663" lon="-0.36843">
        <ele>17.7037</ele>
        <time>2011-06-02T12:46:28Z</time>
      </trkpt>
      <trkpt lat="46.36631" lon="-0.36845">
        <ele>17.6767</ele>
        <time>2011-06-02T12:46:29Z</time>
      </trkpt>
      <trkpt lat="46.36631" lon="-0.36846">
        <ele>17.6523</ele>
        <time>2011-06-02T12:46:30Z</time>
      </trkpt>
      <trkpt lat="46.36632" lon="-0.36848">
        <ele>17.6253</ele>
        <time>2011-06-02T12:46:31Z</time>
      </trkpt>
      <trkpt lat="46.36632" lon="-0.3685">
        <ele>17.598</ele>
        <time>2011-06-02T12:46:32Z</time>
      </trkpt>
      <trkpt lat="46.36633" lon="-0.36851">
        <ele>17.571</ele>
        <time>2011-06-02T12:46:33Z</time>
      </trkpt>
      <trkpt lat="46.36634" lon="-0.36852">
        <ele>17.5459</ele>
        <time>2011-06-02T12:46:34Z</time>
      </trkpt>
      <trkpt lat="46.36634" lon="-0.36853">
        <ele>17.5195</ele>
        <time>2011-06-02T12:46:35Z</time>
      </trkpt>
      <trkpt lat="46.36635" lon="-0.36854">
        <ele>17.4946</ele>
        <time>2011-06-02T12:46:36Z</time>
      </trkpt>
      <trkpt lat="46.36636" lon="-0.36855">
        <ele>17.4666</ele>
        <time>2011-06-02T12:46:37Z</time>
      </trkpt>
      <trkpt lat="46.36636" lon="-0.36857">
        <ele>17.4462</ele>
        <time>2011-06-02T12:46:38Z</time>
      </trkpt>
      <trkpt lat="46.36637" lon="-0.36858">
        <ele>17.4324</ele>
        <time>2011-06-02T12:46:39Z</time>
      </trkpt>
      <trkpt lat="46.36638" lon="-0.36859">
        <ele>17.4191</ele>
        <time>2011-06-02T12:46:40Z</time>
      </trkpt>
      <trkpt lat="46.36638" lon="-0.36861">
        <ele>17.4067</ele>
        <time>2011-06-02T12:46:41Z</time>
      </trkpt>
      <trkpt lat="46.36639" lon="-0.36863">
        <ele>17.3821</ele>
        <time>2011-06-02T12:46:43Z</time>
      </trkpt>
      <trkpt lat="46.36639" lon="-0.36864">
        <ele>17.3718</ele>
        <time>2011-06-02T12:46:44Z</time>
      </trkpt>
      <trkpt lat="46.3664" lon="-0.36866">
        <ele>17.3525</ele>
        <time>2011-06-02T12:46:45Z</time>
      </trkpt>
      <trkpt lat="46.36641" lon="-0.36867">
        <ele>17.3217</ele>
        <time>2011-06-02T12:46:46Z</time>
      </trkpt>
      <trkpt lat="46.36642" lon="-0.36874">
        <ele>17.1606</ele>
        <time>2011-06-02T12:46:51Z</time>
      </trkpt>
      <trkpt lat="46.36642" lon="-0.36876">
        <ele>17.1267</ele>
        <time>2011-06-02T12:46:52Z</time>
      </trkpt>
      <trkpt lat="46.36642" lon="-0.36883">
        <ele>16.9874</ele>
        <time>2011-06-02T12:46:57Z</time>
      </trkpt>
      <trkpt lat="46.36646" lon="-0.36888">
        <ele>17.0971</ele>
        <time>2011-06-02T12:47:09Z</time>
      </trkpt>
      <trkpt lat="46.36648" lon="-0.36896">
        <ele>17.1388</ele>
        <time>2011-06-02T12:47:14Z</time>
      </trkpt>
      <trkpt lat="46.36649" lon="-0.36901">
        <ele>17.1352</ele>
        <time>2011-06-02T12:47:17Z</time>
      </trkpt>
      <trkpt lat="46.3665" lon="-0.36906">
        <ele>17.1069</ele>
        <time>2011-06-02T12:47:21Z</time>
      </trkpt>
      <trkpt lat="46.36651" lon="-0.36907">
        <ele>17.0984</ele>
        <time>2011-06-02T12:47:22Z</time>
      </trkpt>
      <trkpt lat="46.36652" lon="-0.36909">
        <ele>17.0737</ele>
        <time>2011-06-02T12:47:25Z</time>
      </trkpt>
      <trkpt lat="46.36653" lon="-0.3691">
        <ele>17.0863</ele>
        <time>2011-06-02T12:47:26Z</time>
      </trkpt>
      <trkpt lat="46.36653" lon="-0.36911">
        <ele>17.1489</ele>
        <time>2011-06-02T12:47:27Z</time>
      </trkpt>
      <trkpt lat="46.36654" lon="-0.36913">
        <ele>17.2552</ele>
        <time>2011-06-02T12:47:28Z</time>
      </trkpt>
      <trkpt lat="46.36654" lon="-0.36915">
        <ele>17.3624</ele>
        <time>2011-06-02T12:47:29Z</time>
      </trkpt>
      <trkpt lat="46.36655" lon="-0.36917">
        <ele>17.4726</ele>
        <time>2011-06-02T12:47:30Z</time>
      </trkpt>
      <trkpt lat="46.36655" lon="-0.36919">
        <ele>17.5935</ele>
        <time>2011-06-02T12:47:31Z</time>
      </trkpt>
      <trkpt lat="46.36656" lon="-0.3692">
        <ele>17.7159</ele>
        <time>2011-06-02T12:47:32Z</time>
      </trkpt>
      <trkpt lat="46.36656" lon="-0.36922">
        <ele>17.8354</ele>
        <time>2011-06-02T12:47:33Z</time>
      </trkpt>
      <trkpt lat="46.36657" lon="-0.36924">
        <ele>17.9586</ele>
        <time>2011-06-02T12:47:34Z</time>
      </trkpt>
      <trkpt lat="46.36657" lon="-0.36925">
        <ele>18.0782</ele>
        <time>2011-06-02T12:47:35Z</time>
      </trkpt>
      <trkpt lat="46.36658" lon="-0.36927">
        <ele>18.1992</ele>
        <time>2011-06-02T12:47:36Z</time>
      </trkpt>
      <trkpt lat="46.36659" lon="-0.36928">
        <ele>18.3222</ele>
        <time>2011-06-02T12:47:37Z</time>
      </trkpt>
      <trkpt lat="46.36659" lon="-0.3693">
        <ele>18.4557</ele>
        <time>2011-06-02T12:47:38Z</time>
      </trkpt>
      <trkpt lat="46.3666" lon="-0.36931">
        <ele>18.59</ele>
        <time>2011-06-02T12:47:39Z</time>
      </trkpt>
      <trkpt lat="46.3666" lon="-0.36933">
        <ele>18.7219</ele>
        <time>2011-06-02T12:47:40Z</time>
      </trkpt>
      <trkpt lat="46.36661" lon="-0.36934">
        <ele>18.8521</ele>
        <time>2011-06-02T12:47:41Z</time>
      </trkpt>
      <trkpt lat="46.36661" lon="-0.36936">
        <ele>18.9795</ele>
        <time>2011-06-02T12:47:42Z</time>
      </trkpt>
      <trkpt lat="46.36662" lon="-0.36937">
        <ele>19.1301</ele>
        <time>2011-06-02T12:47:43Z</time>
      </trkpt>
      <trkpt lat="46.36662" lon="-0.36939">
        <ele>19.2972</ele>
        <time>2011-06-02T12:47:44Z</time>
      </trkpt>
      <trkpt lat="46.36663" lon="-0.36941">
        <ele>19.4615</ele>
        <time>2011-06-02T12:47:45Z</time>
      </trkpt>
      <trkpt lat="46.36663" lon="-0.36942">
        <ele>19.6355</ele>
        <time>2011-06-02T12:47:46Z</time>
      </trkpt>
      <trkpt lat="46.36663" lon="-0.36944">
        <ele>19.8043</ele>
        <time>2011-06-02T12:47:47Z</time>
      </trkpt>
      <trkpt lat="46.36664" lon="-0.36946">
        <ele>19.964</ele>
        <time>2011-06-02T12:47:48Z</time>
      </trkpt>
      <trkpt lat="46.36664" lon="-0.36947">
        <ele>20.1282</ele>
        <time>2011-06-02T12:47:49Z</time>
      </trkpt>
      <trkpt lat="46.36665" lon="-0.36949">
        <ele>20.3083</ele>
        <time>2011-06-02T12:47:50Z</time>
      </trkpt>
      <trkpt lat="46.36665" lon="-0.36951">
        <ele>20.486</ele>
        <time>2011-06-02T12:47:51Z</time>
      </trkpt>
      <trkpt lat="46.36666" lon="-0.36952">
        <ele>20.6607</ele>
        <time>2011-06-02T12:47:52Z</time>
      </trkpt>
      <trkpt lat="46.36666" lon="-0.36954">
        <ele>20.8305</ele>
        <time>2011-06-02T12:47:53Z</time>
      </trkpt>
      <trkpt lat="46.36666" lon="-0.36955">
        <ele>20.9945</ele>
        <time>2011-06-02T12:47:54Z</time>
      </trkpt>
      <trkpt lat="46.36667" lon="-0.36957">
        <ele>21.1529</ele>
        <time>2011-06-02T12:47:55Z</time>
      </trkpt>
      <trkpt lat="46.36667" lon="-0.36958">
        <ele>21.3059</ele>
        <time>2011-06-02T12:47:56Z</time>
      </trkpt>
      <trkpt lat="46.36667" lon="-0.3696">
        <ele>21.4579</ele>
        <time>2011-06-02T12:47:57Z</time>
      </trkpt>
      <trkpt lat="46.36667" lon="-0.36961">
        <ele>21.6038</ele>
        <time>2011-06-02T12:47:58Z</time>
      </trkpt>
      <trkpt lat="46.36668" lon="-0.36963">
        <ele>21.7496</ele>
        <time>2011-06-02T12:47:59Z</time>
      </trkpt>
      <trkpt lat="46.36668" lon="-0.36965">
        <ele>21.8893</ele>
        <time>2011-06-02T12:48:00Z</time>
      </trkpt>
      <trkpt lat="46.36668" lon="-0.36966">
        <ele>22.0209</ele>
        <time>2011-06-02T12:48:01Z</time>
      </trkpt>
      <trkpt lat="46.36668" lon="-0.36968">
        <ele>22.1452</ele>
        <time>2011-06-02T12:48:02Z</time>
      </trkpt>
      <trkpt lat="46.36668" lon="-0.3697">
        <ele>22.2664</ele>
        <time>2011-06-02T12:48:03Z</time>
      </trkpt>
      <trkpt lat="46.36667" lon="-0.36974">
        <ele>22.3756</ele>
        <time>2011-06-02T12:48:04Z</time>
      </trkpt>
      <trkpt lat="46.36667" lon="-0.36977">
        <ele>22.4793</ele>
        <time>2011-06-02T12:48:05Z</time>
      </trkpt>
      <trkpt lat="46.36667" lon="-0.36979">
        <ele>22.5875</ele>
        <time>2011-06-02T12:48:06Z</time>
      </trkpt>
      <trkpt lat="46.36666" lon="-0.36981">
        <ele>22.7025</ele>
        <time>2011-06-02T12:48:07Z</time>
      </trkpt>
      <trkpt lat="46.36665" lon="-0.36982">
        <ele>22.8112</ele>
        <time>2011-06-02T12:48:08Z</time>
      </trkpt>
      <trkpt lat="46.36665" lon="-0.36984">
        <ele>22.9149</ele>
        <time>2011-06-02T12:48:09Z</time>
      </trkpt>
      <trkpt lat="46.36664" lon="-0.36986">
        <ele>23.0067</ele>
        <time>2011-06-02T12:48:10Z</time>
      </trkpt>
      <trkpt lat="46.36663" lon="-0.36988">
        <ele>23.0885</ele>
        <time>2011-06-02T12:48:11Z</time>
      </trkpt>
      <trkpt lat="46.36663" lon="-0.36989">
        <ele>23.1661</ele>
        <time>2011-06-02T12:48:12Z</time>
      </trkpt>
      <trkpt lat="46.36662" lon="-0.3699">
        <ele>23.2436</ele>
        <time>2011-06-02T12:48:13Z</time>
      </trkpt>
      <trkpt lat="46.36662" lon="-0.36992">
        <ele>23.3204</ele>
        <time>2011-06-02T12:48:14Z</time>
      </trkpt>
      <trkpt lat="46.36661" lon="-0.36993">
        <ele>23.3979</ele>
        <time>2011-06-02T12:48:15Z</time>
      </trkpt>
      <trkpt lat="46.3666" lon="-0.36994">
        <ele>23.4699</ele>
        <time>2011-06-02T12:48:16Z</time>
      </trkpt>
      <trkpt lat="46.3666" lon="-0.36996">
        <ele>23.5406</ele>
        <time>2011-06-02T12:48:17Z</time>
      </trkpt>
      <trkpt lat="46.3666" lon="-0.36997">
        <ele>23.6085</ele>
        <time>2011-06-02T12:48:18Z</time>
      </trkpt>
      <trkpt lat="46.36659" lon="-0.36999">
        <ele>23.6706</ele>
        <time>2011-06-02T12:48:19Z</time>
      </trkpt>
      <trkpt lat="46.36658" lon="-0.37">
        <ele>23.7313</ele>
        <time>2011-06-02T12:48:20Z</time>
      </trkpt>
      <trkpt lat="46.36657" lon="-0.37002">
        <ele>23.7924</ele>
        <time>2011-06-02T12:48:21Z</time>
      </trkpt>
      <trkpt lat="46.36657" lon="-0.37004">
        <ele>23.8591</ele>
        <time>2011-06-02T12:48:22Z</time>
      </trkpt>
      <trkpt lat="46.36657" lon="-0.37005">
        <ele>23.9328</ele>
        <time>2011-06-02T12:48:23Z</time>
      </trkpt>
      <trkpt lat="46.36656" lon="-0.37007">
        <ele>24.0082</ele>
        <time>2011-06-02T12:48:24Z</time>
      </trkpt>
      <trkpt lat="46.36656" lon="-0.37008">
        <ele>24.0822</ele>
        <time>2011-06-02T12:48:25Z</time>
      </trkpt>
      <trkpt lat="46.36656" lon="-0.3701">
        <ele>24.1539</ele>
        <time>2011-06-02T12:48:26Z</time>
      </trkpt>
      <trkpt lat="46.36655" lon="-0.37012">
        <ele>24.2237</ele>
        <time>2011-06-02T12:48:27Z</time>
      </trkpt>
      <trkpt lat="46.36655" lon="-0.37014">
        <ele>24.3009</ele>
        <time>2011-06-02T12:48:28Z</time>
      </trkpt>
      <trkpt lat="46.36655" lon="-0.37015">
        <ele>24.3748</ele>
        <time>2011-06-02T12:48:29Z</time>
      </trkpt>
      <trkpt lat="46.36655" lon="-0.37017">
        <ele>24.4447</ele>
        <time>2011-06-02T12:48:30Z</time>
      </trkpt>
      <trkpt lat="46.36655" lon="-0.37019">
        <ele>24.5144</ele>
        <time>2011-06-02T12:48:31Z</time>
      </trkpt>
      <trkpt lat="46.36655" lon="-0.3702">
        <ele>24.586</ele>
        <time>2011-06-02T12:48:32Z</time>
      </trkpt>
      <trkpt lat="46.36655" lon="-0.37022">
        <ele>24.6563</ele>
        <time>2011-06-02T12:48:33Z</time>
      </trkpt>
      <trkpt lat="46.36655" lon="-0.37024">
        <ele>24.7252</ele>
        <time>2011-06-02T12:48:34Z</time>
      </trkpt>
      <trkpt lat="46.36655" lon="-0.37025">
        <ele>24.7851</ele>
        <time>2011-06-02T12:48:35Z</time>
      </trkpt>
      <trkpt lat="46.36655" lon="-0.37027">
        <ele>24.8412</ele>
        <time>2011-06-02T12:48:36Z</time>
      </trkpt>
      <trkpt lat="46.36655" lon="-0.37029">
        <ele>24.897</ele>
        <time>2011-06-02T12:48:37Z</time>
      </trkpt>
      <trkpt lat="46.36655" lon="-0.37031">
        <ele>24.951</ele>
        <time>2011-06-02T12:48:38Z</time>
      </trkpt>
      <trkpt lat="46.36656" lon="-0.37032">
        <ele>25.0022</ele>
        <time>2011-06-02T12:48:39Z</time>
      </trkpt>
      <trkpt lat="46.36657" lon="-0.37033">
        <ele>25.0468</ele>
        <time>2011-06-02T12:48:40Z</time>
      </trkpt>
      <trkpt lat="46.36657" lon="-0.37034">
        <ele>25.0909</ele>
        <time>2011-06-02T12:48:41Z</time>
      </trkpt>
      <trkpt lat="46.36658" lon="-0.37035">
        <ele>25.1209</ele>
        <time>2011-06-02T12:48:42Z</time>
      </trkpt>
      <trkpt lat="46.36659" lon="-0.37036">
        <ele>25.1485</ele>
        <time>2011-06-02T12:48:43Z</time>
      </trkpt>
      <trkpt lat="46.36659" lon="-0.37037">
        <ele>25.175</ele>
        <time>2011-06-02T12:48:44Z</time>
      </trkpt>
      <trkpt lat="46.3666" lon="-0.37038">
        <ele>25.1989</ele>
        <time>2011-06-02T12:48:45Z</time>
      </trkpt>
      <trkpt lat="46.3666" lon="-0.37039">
        <ele>25.2268</ele>
        <time>2011-06-02T12:48:46Z</time>
      </trkpt>
      <trkpt lat="46.3666" lon="-0.3704">
        <ele>25.2541</ele>
        <time>2011-06-02T12:48:47Z</time>
      </trkpt>
      <trkpt lat="46.36661" lon="-0.37041">
        <ele>25.2826</ele>
        <time>2011-06-02T12:48:48Z</time>
      </trkpt>
      <trkpt lat="46.36662" lon="-0.37042">
        <ele>25.3005</ele>
        <time>2011-06-02T12:48:49Z</time>
      </trkpt>
      <trkpt lat="46.36662" lon="-0.37044">
        <ele>25.3265</ele>
        <time>2011-06-02T12:48:50Z</time>
      </trkpt>
      <trkpt lat="46.36662" lon="-0.37045">
        <ele>25.3523</ele>
        <time>2011-06-02T12:48:51Z</time>
      </trkpt>
      <trkpt lat="46.36662" lon="-0.37047">
        <ele>25.3842</ele>
        <time>2011-06-02T12:48:52Z</time>
      </trkpt>
      <trkpt lat="46.36662" lon="-0.37049">
        <ele>25.4107</ele>
        <time>2011-06-02T12:48:53Z</time>
      </trkpt>
      <trkpt lat="46.36662" lon="-0.3705">
        <ele>25.4339</ele>
        <time>2011-06-02T12:48:54Z</time>
      </trkpt>
      <trkpt lat="46.36663" lon="-0.37051">
        <ele>25.453</ele>
        <time>2011-06-02T12:48:55Z</time>
      </trkpt>
      <trkpt lat="46.36663" lon="-0.37053">
        <ele>25.4683</ele>
        <time>2011-06-02T12:48:56Z</time>
      </trkpt>
      <trkpt lat="46.36664" lon="-0.37054">
        <ele>25.4843</ele>
        <time>2011-06-02T12:48:57Z</time>
      </trkpt>
      <trkpt lat="46.36665" lon="-0.37056">
        <ele>25.5022</ele>
        <time>2011-06-02T12:48:58Z</time>
      </trkpt>
      <trkpt lat="46.36665" lon="-0.37057">
        <ele>25.5181</ele>
        <time>2011-06-02T12:48:59Z</time>
      </trkpt>
      <trkpt lat="46.36665" lon="-0.37059">
        <ele>25.534</ele>
        <time>2011-06-02T12:49:00Z</time>
      </trkpt>
      <trkpt lat="46.36666" lon="-0.3706">
        <ele>25.5495</ele>
        <time>2011-06-02T12:49:01Z</time>
      </trkpt>
      <trkpt lat="46.36666" lon="-0.37062">
        <ele>25.5656</ele>
        <time>2011-06-02T12:49:02Z</time>
      </trkpt>
      <trkpt lat="46.36667" lon="-0.37063">
        <ele>25.5819</ele>
        <time>2011-06-02T12:49:03Z</time>
      </trkpt>
      <trkpt lat="46.36667" lon="-0.37064">
        <ele>25.5989</ele>
        <time>2011-06-02T12:49:04Z</time>
      </trkpt>
      <trkpt lat="46.36668" lon="-0.37065">
        <ele>25.612</ele>
        <time>2011-06-02T12:49:05Z</time>
      </trkpt>
      <trkpt lat="46.36668" lon="-0.37066">
        <ele>25.6233</ele>
        <time>2011-06-02T12:49:06Z</time>
      </trkpt>
      <trkpt lat="46.36669" lon="-0.37068">
        <ele>25.634</ele>
        <time>2011-06-02T12:49:07Z</time>
      </trkpt>
      <trkpt lat="46.36669" lon="-0.37069">
        <ele>25.6432</ele>
        <time>2011-06-02T12:49:08Z</time>
      </trkpt>
      <trkpt lat="46.3667" lon="-0.3707">
        <ele>25.6408</ele>
        <time>2011-06-02T12:49:09Z</time>
      </trkpt>
      <trkpt lat="46.3667" lon="-0.3707">
        <ele>25.628</ele>
        <time>2011-06-02T12:49:10Z</time>
      </trkpt>
      <trkpt lat="46.36671" lon="-0.37071">
        <ele>25.601</ele>
        <time>2011-06-02T12:49:11Z</time>
      </trkpt>
      <trkpt lat="46.36671" lon="-0.37072">
        <ele>25.574</ele>
        <time>2011-06-02T12:49:12Z</time>
      </trkpt>
      <trkpt lat="46.36671" lon="-0.37074">
        <ele>25.5422</ele>
        <time>2011-06-02T12:49:13Z</time>
      </trkpt>
      <trkpt lat="46.36671" lon="-0.37076">
        <ele>25.5066</ele>
        <time>2011-06-02T12:49:14Z</time>
      </trkpt>
      <trkpt lat="46.36671" lon="-0.37078">
        <ele>25.4649</ele>
        <time>2011-06-02T12:49:15Z</time>
      </trkpt>
      <trkpt lat="46.36671" lon="-0.37079">
        <ele>25.4222</ele>
        <time>2011-06-02T12:49:16Z</time>
      </trkpt>
      <trkpt lat="46.36671" lon="-0.3708">
        <ele>25.3814</ele>
        <time>2011-06-02T12:49:17Z</time>
      </trkpt>
      <trkpt lat="46.36672" lon="-0.37081">
        <ele>25.3352</ele>
        <time>2011-06-02T12:49:18Z</time>
      </trkpt>
      <trkpt lat="46.36672" lon="-0.37082">
        <ele>25.2939</ele>
        <time>2011-06-02T12:49:19Z</time>
      </trkpt>
      <trkpt lat="46.36673" lon="-0.37083">
        <ele>25.2548</ele>
        <time>2011-06-02T12:49:20Z</time>
      </trkpt>
      <trkpt lat="46.36673" lon="-0.37084">
        <ele>25.2195</ele>
        <time>2011-06-02T12:49:21Z</time>
      </trkpt>
      <trkpt lat="46.36674" lon="-0.37085">
        <ele>25.1907</ele>
        <time>2011-06-02T12:49:22Z</time>
      </trkpt>
      <trkpt lat="46.36675" lon="-0.37087">
        <ele>25.1741</ele>
        <time>2011-06-02T12:49:23Z</time>
      </trkpt>
      <trkpt lat="46.36676" lon="-0.37088">
        <ele>25.1724</ele>
        <time>2011-06-02T12:49:24Z</time>
      </trkpt>
      <trkpt lat="46.36676" lon="-0.37089">
        <ele>25.1904</ele>
        <time>2011-06-02T12:49:25Z</time>
      </trkpt>
      <trkpt lat="46.36677" lon="-0.3709">
        <ele>25.2094</ele>
        <time>2011-06-02T12:49:26Z</time>
      </trkpt>
      <trkpt lat="46.36678" lon="-0.37091">
        <ele>25.2273</ele>
        <time>2011-06-02T12:49:27Z</time>
      </trkpt>
      <trkpt lat="46.36678" lon="-0.37092">
        <ele>25.2412</ele>
        <time>2011-06-02T12:49:28Z</time>
      </trkpt>
      <trkpt lat="46.36679" lon="-0.37093">
        <ele>25.2578</ele>
        <time>2011-06-02T12:49:29Z</time>
      </trkpt>
      <trkpt lat="46.3668" lon="-0.37093">
        <ele>25.2743</ele>
        <time>2011-06-02T12:49:30Z</time>
      </trkpt>
      <trkpt lat="46.3668" lon="-0.37094">
        <ele>25.2924</ele>
        <time>2011-06-02T12:49:31Z</time>
      </trkpt>
      <trkpt lat="46.36681" lon="-0.37095">
        <ele>25.3082</ele>
        <time>2011-06-02T12:49:32Z</time>
      </trkpt>
      <trkpt lat="46.36682" lon="-0.37096">
        <ele>25.3266</ele>
        <time>2011-06-02T12:49:33Z</time>
      </trkpt>
      <trkpt lat="46.36682" lon="-0.37097">
        <ele>25.3482</ele>
        <time>2011-06-02T12:49:34Z</time>
      </trkpt>
      <trkpt lat="46.36682" lon="-0.37097">
        <ele>25.37</ele>
        <time>2011-06-02T12:49:35Z</time>
      </trkpt>
      <trkpt lat="46.36683" lon="-0.37098">
        <ele>25.393</ele>
        <time>2011-06-02T12:49:36Z</time>
      </trkpt>
      <trkpt lat="46.36683" lon="-0.37099">
        <ele>25.429</ele>
        <time>2011-06-02T12:49:37Z</time>
      </trkpt>
      <trkpt lat="46.36684" lon="-0.371">
        <ele>25.4624</ele>
        <time>2011-06-02T12:49:38Z</time>
      </trkpt>
      <trkpt lat="46.36685" lon="-0.37101">
        <ele>25.5126</ele>
        <time>2011-06-02T12:49:39Z</time>
      </trkpt>
      <trkpt lat="46.36686" lon="-0.37102">
        <ele>25.571</ele>
        <time>2011-06-02T12:49:40Z</time>
      </trkpt>
      <trkpt lat="46.36686" lon="-0.37103">
        <ele>25.6287</ele>
        <time>2011-06-02T12:49:41Z</time>
      </trkpt>
      <trkpt lat="46.36687" lon="-0.37104">
        <ele>25.6849</ele>
        <time>2011-06-02T12:49:42Z</time>
      </trkpt>
      <trkpt lat="46.36688" lon="-0.37105">
        <ele>25.7414</ele>
        <time>2011-06-02T12:49:43Z</time>
      </trkpt>
      <trkpt lat="46.36689" lon="-0.37107">
        <ele>25.7973</ele>
        <time>2011-06-02T12:49:44Z</time>
      </trkpt>
      <trkpt lat="46.3669" lon="-0.37108">
        <ele>25.8516</ele>
        <time>2011-06-02T12:49:45Z</time>
      </trkpt>
      <trkpt lat="46.36691" lon="-0.37109">
        <ele>25.9045</ele>
        <time>2011-06-02T12:49:46Z</time>
      </trkpt>
      <trkpt lat="46.36692" lon="-0.37111">
        <ele>25.9586</ele>
        <time>2011-06-02T12:49:47Z</time>
      </trkpt>
      <trkpt lat="46.36693" lon="-0.37112">
        <ele>26.0162</ele>
        <time>2011-06-02T12:49:48Z</time>
      </trkpt>
      <trkpt lat="46.36694" lon="-0.37114">
        <ele>26.0632</ele>
        <time>2011-06-02T12:49:49Z</time>
      </trkpt>
      <trkpt lat="46.36696" lon="-0.37116">
        <ele>26.1037</ele>
        <time>2011-06-02T12:49:50Z</time>
      </trkpt>
      <trkpt lat="46.36697" lon="-0.37117">
        <ele>26.1425</ele>
        <time>2011-06-02T12:49:51Z</time>
      </trkpt>
      <trkpt lat="46.36697" lon="-0.37119">
        <ele>26.1823</ele>
        <time>2011-06-02T12:49:52Z</time>
      </trkpt>
      <trkpt lat="46.36699" lon="-0.3712">
        <ele>26.2279</ele>
        <time>2011-06-02T12:49:53Z</time>
      </trkpt>
      <trkpt lat="46.367" lon="-0.37121">
        <ele>26.2851</ele>
        <time>2011-06-02T12:49:54Z</time>
      </trkpt>
      <trkpt lat="46.367" lon="-0.37122">
        <ele>26.3386</ele>
        <time>2011-06-02T12:49:55Z</time>
      </trkpt>
      <trkpt lat="46.36701" lon="-0.37123">
        <ele>26.3881</ele>
        <time>2011-06-02T12:49:56Z</time>
      </trkpt>
      <trkpt lat="46.36702" lon="-0.37124">
        <ele>26.4451</ele>
        <time>2011-06-02T12:49:57Z</time>
      </trkpt>
      <trkpt lat="46.36703" lon="-0.37125">
        <ele>26.5035</ele>
        <time>2011-06-02T12:49:58Z</time>
      </trkpt>
      <trkpt lat="46.36704" lon="-0.37126">
        <ele>26.559</ele>
        <time>2011-06-02T12:49:59Z</time>
      </trkpt>
      <trkpt lat="46.36704" lon="-0.37127">
        <ele>26.6122</ele>
        <time>2011-06-02T12:50:00Z</time>
      </trkpt>
      <trkpt lat="46.36705" lon="-0.37128">
        <ele>26.6617</ele>
        <time>2011-06-02T12:50:01Z</time>
      </trkpt>
      <trkpt lat="46.36706" lon="-0.3713">
        <ele>26.7023</ele>
        <time>2011-06-02T12:50:02Z</time>
      </trkpt>
      <trkpt lat="46.36706" lon="-0.37132">
        <ele>26.7373</ele>
        <time>2011-06-02T12:50:03Z</time>
      </trkpt>
      <trkpt lat="46.36706" lon="-0.37134">
        <ele>26.7649</ele>
        <time>2011-06-02T12:50:04Z</time>
      </trkpt>
      <trkpt lat="46.36706" lon="-0.37136">
        <ele>26.7878</ele>
        <time>2011-06-02T12:50:05Z</time>
      </trkpt>
      <trkpt lat="46.36706" lon="-0.37138">
        <ele>26.8078</ele>
        <time>2011-06-02T12:50:06Z</time>
      </trkpt>
      <trkpt lat="46.36706" lon="-0.37139">
        <ele>26.8219</ele>
        <time>2011-06-02T12:50:07Z</time>
      </trkpt>
      <trkpt lat="46.36706" lon="-0.3714">
        <ele>26.836</ele>
        <time>2011-06-02T12:50:08Z</time>
      </trkpt>
      <trkpt lat="46.36706" lon="-0.37142">
        <ele>26.8554</ele>
        <time>2011-06-02T12:50:09Z</time>
      </trkpt>
      <trkpt lat="46.36706" lon="-0.37143">
        <ele>26.8736</ele>
        <time>2011-06-02T12:50:10Z</time>
      </trkpt>
      <trkpt lat="46.36706" lon="-0.37145">
        <ele>26.8878</ele>
        <time>2011-06-02T12:50:11Z</time>
      </trkpt>
      <trkpt lat="46.36706" lon="-0.37147">
        <ele>26.9002</ele>
        <time>2011-06-02T12:50:12Z</time>
      </trkpt>
      <trkpt lat="46.36705" lon="-0.37148">
        <ele>26.9088</ele>
        <time>2011-06-02T12:50:13Z</time>
      </trkpt>
      <trkpt lat="46.36705" lon="-0.3715">
        <ele>26.9141</ele>
        <time>2011-06-02T12:50:14Z</time>
      </trkpt>
      <trkpt lat="46.36705" lon="-0.37151">
        <ele>26.9193</ele>
        <time>2011-06-02T12:50:15Z</time>
      </trkpt>
      <trkpt lat="46.36705" lon="-0.37152">
        <ele>26.9126</ele>
        <time>2011-06-02T12:50:16Z</time>
      </trkpt>
      <trkpt lat="46.36707" lon="-0.37154">
        <ele>26.9073</ele>
        <time>2011-06-02T12:50:21Z</time>
      </trkpt>
      <trkpt lat="46.36707" lon="-0.37155">
        <ele>26.9137</ele>
        <time>2011-06-02T12:50:22Z</time>
      </trkpt>
      <trkpt lat="46.36707" lon="-0.37156">
        <ele>26.9201</ele>
        <time>2011-06-02T12:50:23Z</time>
      </trkpt>
      <trkpt lat="46.36707" lon="-0.37158">
        <ele>26.9275</ele>
        <time>2011-06-02T12:50:24Z</time>
      </trkpt>
      <trkpt lat="46.36707" lon="-0.37159">
        <ele>26.9359</ele>
        <time>2011-06-02T12:50:25Z</time>
      </trkpt>
      <trkpt lat="46.36707" lon="-0.3716">
        <ele>26.9454</ele>
        <time>2011-06-02T12:50:26Z</time>
      </trkpt>
      <trkpt lat="46.36707" lon="-0.37162">
        <ele>26.9646</ele>
        <time>2011-06-02T12:50:27Z</time>
      </trkpt>
      <trkpt lat="46.36707" lon="-0.37163">
        <ele>26.9926</ele>
        <time>2011-06-02T12:50:28Z</time>
      </trkpt>
      <trkpt lat="46.36707" lon="-0.37164">
        <ele>27.025</ele>
        <time>2011-06-02T12:50:29Z</time>
      </trkpt>
      <trkpt lat="46.36707" lon="-0.37165">
        <ele>27.0567</ele>
        <time>2011-06-02T12:50:30Z</time>
      </trkpt>
      <trkpt lat="46.36707" lon="-0.37167">
        <ele>27.1</ele>
        <time>2011-06-02T12:50:31Z</time>
      </trkpt>
      <trkpt lat="46.36707" lon="-0.37168">
        <ele>27.1363</ele>
        <time>2011-06-02T12:50:32Z</time>
      </trkpt>
      <trkpt lat="46.36707" lon="-0.3717">
        <ele>27.1681</ele>
        <time>2011-06-02T12:50:33Z</time>
      </trkpt>
      <trkpt lat="46.36707" lon="-0.37171">
        <ele>27.2133</ele>
        <time>2011-06-02T12:50:34Z</time>
      </trkpt>
      <trkpt lat="46.36708" lon="-0.37173">
        <ele>27.2546</ele>
        <time>2011-06-02T12:50:35Z</time>
      </trkpt>
      <trkpt lat="46.36708" lon="-0.37175">
        <ele>27.2831</ele>
        <time>2011-06-02T12:50:36Z</time>
      </trkpt>
      <trkpt lat="46.36709" lon="-0.37177">
        <ele>27.304</ele>
        <time>2011-06-02T12:50:37Z</time>
      </trkpt>
      <trkpt lat="46.36709" lon="-0.37179">
        <ele>27.3107</ele>
        <time>2011-06-02T12:50:38Z</time>
      </trkpt>
      <trkpt lat="46.36709" lon="-0.37181">
        <ele>27.3109</ele>
        <time>2011-06-02T12:50:39Z</time>
      </trkpt>
      <trkpt lat="46.36709" lon="-0.37183">
        <ele>27.3108</ele>
        <time>2011-06-02T12:50:40Z</time>
      </trkpt>
      <trkpt lat="46.3671" lon="-0.37184">
        <ele>27.3122</ele>
        <time>2011-06-02T12:50:41Z</time>
      </trkpt>
      <trkpt lat="46.3671" lon="-0.37186">
        <ele>27.3137</ele>
        <time>2011-06-02T12:50:42Z</time>
      </trkpt>
      <trkpt lat="46.3671" lon="-0.37187">
        <ele>27.3173</ele>
        <time>2011-06-02T12:50:43Z</time>
      </trkpt>
      <trkpt lat="46.3671" lon="-0.37188">
        <ele>27.3203</ele>
        <time>2011-06-02T12:50:44Z</time>
      </trkpt>
      <trkpt lat="46.3671" lon="-0.3719">
        <ele>27.3269</ele>
        <time>2011-06-02T12:50:45Z</time>
      </trkpt>
      <trkpt lat="46.3671" lon="-0.37191">
        <ele>27.3395</ele>
        <time>2011-06-02T12:50:46Z</time>
      </trkpt>
      <trkpt lat="46.3671" lon="-0.37193">
        <ele>27.3569</ele>
        <time>2011-06-02T12:50:47Z</time>
      </trkpt>
      <trkpt lat="46.36709" lon="-0.37194">
        <ele>27.3829</ele>
        <time>2011-06-02T12:50:48Z</time>
      </trkpt>
      <trkpt lat="46.36709" lon="-0.37196">
        <ele>27.4043</ele>
        <time>2011-06-02T12:50:49Z</time>
      </trkpt>
      <trkpt lat="46.36709" lon="-0.37198">
        <ele>27.4252</ele>
        <time>2011-06-02T12:50:50Z</time>
      </trkpt>
      <trkpt lat="46.36709" lon="-0.37199">
        <ele>27.4462</ele>
        <time>2011-06-02T12:50:51Z</time>
      </trkpt>
      <trkpt lat="46.36709" lon="-0.372">
        <ele>27.4659</ele>
        <time>2011-06-02T12:50:52Z</time>
      </trkpt>
      <trkpt lat="46.3671" lon="-0.37202">
        <ele>27.485</ele>
        <time>2011-06-02T12:50:53Z</time>
      </trkpt>
      <trkpt lat="46.3671" lon="-0.37203">
        <ele>27.5046</ele>
        <time>2011-06-02T12:50:54Z</time>
      </trkpt>
      <trkpt lat="46.3671" lon="-0.37204">
        <ele>27.5294</ele>
        <time>2011-06-02T12:50:55Z</time>
      </trkpt>
      <trkpt lat="46.36711" lon="-0.37206">
        <ele>27.5548</ele>
        <time>2011-06-02T12:50:56Z</time>
      </trkpt>
      <trkpt lat="46.36711" lon="-0.37207">
        <ele>27.5784</ele>
        <time>2011-06-02T12:50:57Z</time>
      </trkpt>
      <trkpt lat="46.36712" lon="-0.37208">
        <ele>27.6031</ele>
        <time>2011-06-02T12:50:58Z</time>
      </trkpt>
      <trkpt lat="46.36712" lon="-0.3721">
        <ele>27.6245</ele>
        <time>2011-06-02T12:50:59Z</time>
      </trkpt>
      <trkpt lat="46.36712" lon="-0.37211">
        <ele>27.6482</ele>
        <time>2011-06-02T12:51:00Z</time>
      </trkpt>
      <trkpt lat="46.36712" lon="-0.37213">
        <ele>27.6716</ele>
        <time>2011-06-02T12:51:01Z</time>
      </trkpt>
      <trkpt lat="46.36711" lon="-0.37215">
        <ele>27.69</ele>
        <time>2011-06-02T12:51:02Z</time>
      </trkpt>
      <trkpt lat="46.36711" lon="-0.37216">
        <ele>27.7095</ele>
        <time>2011-06-02T12:51:03Z</time>
      </trkpt>
      <trkpt lat="46.36711" lon="-0.37218">
        <ele>27.7302</ele>
        <time>2011-06-02T12:51:04Z</time>
      </trkpt>
      <trkpt lat="46.36711" lon="-0.3722">
        <ele>27.7557</ele>
        <time>2011-06-02T12:51:05Z</time>
      </trkpt>
      <trkpt lat="46.36711" lon="-0.37222">
        <ele>27.7836</ele>
        <time>2011-06-02T12:51:06Z</time>
      </trkpt>
      <trkpt lat="46.36711" lon="-0.37223">
        <ele>27.812</ele>
        <time>2011-06-02T12:51:07Z</time>
      </trkpt>
      <trkpt lat="46.36712" lon="-0.37225">
        <ele>27.8451</ele>
        <time>2011-06-02T12:51:08Z</time>
      </trkpt>
      <trkpt lat="46.36712" lon="-0.37227">
        <ele>27.876</ele>
        <time>2011-06-02T12:51:09Z</time>
      </trkpt>
      <trkpt lat="46.36712" lon="-0.37228">
        <ele>27.9018</ele>
        <time>2011-06-02T12:51:10Z</time>
      </trkpt>
      <trkpt lat="46.36713" lon="-0.3723">
        <ele>27.9205</ele>
        <time>2011-06-02T12:51:11Z</time>
      </trkpt>
      <trkpt lat="46.36713" lon="-0.37232">
        <ele>27.9353</ele>
        <time>2011-06-02T12:51:12Z</time>
      </trkpt>
      <trkpt lat="46.36714" lon="-0.37234">
        <ele>27.9433</ele>
        <time>2011-06-02T12:51:13Z</time>
      </trkpt>
      <trkpt lat="46.36715" lon="-0.37235">
        <ele>27.9408</ele>
        <time>2011-06-02T12:51:14Z</time>
      </trkpt>
      <trkpt lat="46.36716" lon="-0.37237">
        <ele>27.9395</ele>
        <time>2011-06-02T12:51:15Z</time>
      </trkpt>
      <trkpt lat="46.36716" lon="-0.37239">
        <ele>27.9428</ele>
        <time>2011-06-02T12:51:16Z</time>
      </trkpt>
      <trkpt lat="46.36717" lon="-0.37241">
        <ele>27.9535</ele>
        <time>2011-06-02T12:51:17Z</time>
      </trkpt>
      <trkpt lat="46.36718" lon="-0.37243">
        <ele>27.9809</ele>
        <time>2011-06-02T12:51:18Z</time>
      </trkpt>
      <trkpt lat="46.36718" lon="-0.37245">
        <ele>28.008</ele>
        <time>2011-06-02T12:51:19Z</time>
      </trkpt>
      <trkpt lat="46.36719" lon="-0.37246">
        <ele>28.0422</ele>
        <time>2011-06-02T12:51:20Z</time>
      </trkpt>
      <trkpt lat="46.36719" lon="-0.37248">
        <ele>28.0689</ele>
        <time>2011-06-02T12:51:21Z</time>
      </trkpt>
      <trkpt lat="46.3672" lon="-0.37249">
        <ele>28.1125</ele>
        <time>2011-06-02T12:51:22Z</time>
      </trkpt>
      <trkpt lat="46.3672" lon="-0.37252">
        <ele>28.1806</ele>
        <time>2011-06-02T12:51:23Z</time>
      </trkpt>
      <trkpt lat="46.36721" lon="-0.37255">
        <ele>28.2463</ele>
        <time>2011-06-02T12:51:24Z</time>
      </trkpt>
      <trkpt lat="46.36722" lon="-0.37257">
        <ele>28.2972</ele>
        <time>2011-06-02T12:51:25Z</time>
      </trkpt>
      <trkpt lat="46.36722" lon="-0.37258">
        <ele>28.3214</ele>
        <time>2011-06-02T12:51:26Z</time>
      </trkpt>
      <trkpt lat="46.36723" lon="-0.3726">
        <ele>28.3234</ele>
        <time>2011-06-02T12:51:27Z</time>
      </trkpt>
      <trkpt lat="46.36723" lon="-0.3726">
        <ele>28.3075</ele>
        <time>2011-06-02T12:51:28Z</time>
      </trkpt>
      <trkpt lat="46.36723" lon="-0.37261">
        <ele>28.2788</ele>
        <time>2011-06-02T12:51:29Z</time>
      </trkpt>
      <trkpt lat="46.36723" lon="-0.37263">
        <ele>28.2442</ele>
        <time>2011-06-02T12:51:30Z</time>
      </trkpt>
      <trkpt lat="46.36723" lon="-0.37264">
        <ele>28.2069</ele>
        <time>2011-06-02T12:51:31Z</time>
      </trkpt>
      <trkpt lat="46.36723" lon="-0.37266">
        <ele>28.1658</ele>
        <time>2011-06-02T12:51:32Z</time>
      </trkpt>
      <trkpt lat="46.36723" lon="-0.37267">
        <ele>28.1084</ele>
        <time>2011-06-02T12:51:33Z</time>
      </trkpt>
      <trkpt lat="46.36724" lon="-0.37269">
        <ele>28.0518</ele>
        <time>2011-06-02T12:51:34Z</time>
      </trkpt>
      <trkpt lat="46.36725" lon="-0.3727">
        <ele>27.9962</ele>
        <time>2011-06-02T12:51:35Z</time>
      </trkpt>
      <trkpt lat="46.36725" lon="-0.37271">
        <ele>27.9289</ele>
        <time>2011-06-02T12:51:36Z</time>
      </trkpt>
      <trkpt lat="46.36726" lon="-0.37272">
        <ele>27.8658</ele>
        <time>2011-06-02T12:51:37Z</time>
      </trkpt>
      <trkpt lat="46.36726" lon="-0.37273">
        <ele>27.8047</ele>
        <time>2011-06-02T12:51:38Z</time>
      </trkpt>
      <trkpt lat="46.36726" lon="-0.37274">
        <ele>27.7468</ele>
        <time>2011-06-02T12:51:39Z</time>
      </trkpt>
      <trkpt lat="46.36727" lon="-0.37276">
        <ele>27.6934</ele>
        <time>2011-06-02T12:51:40Z</time>
      </trkpt>
      <trkpt lat="46.36728" lon="-0.37277">
        <ele>27.6473</ele>
        <time>2011-06-02T12:51:41Z</time>
      </trkpt>
      <trkpt lat="46.36728" lon="-0.37278">
        <ele>27.6014</ele>
        <time>2011-06-02T12:51:42Z</time>
      </trkpt>
      <trkpt lat="46.36729" lon="-0.37279">
        <ele>27.557</ele>
        <time>2011-06-02T12:51:43Z</time>
      </trkpt>
      <trkpt lat="46.36729" lon="-0.3728">
        <ele>27.511</ele>
        <time>2011-06-02T12:51:44Z</time>
      </trkpt>
      <trkpt lat="46.3673" lon="-0.37281">
        <ele>27.4705</ele>
        <time>2011-06-02T12:51:45Z</time>
      </trkpt>
      <trkpt lat="46.3673" lon="-0.37282">
        <ele>27.4375</ele>
        <time>2011-06-02T12:51:46Z</time>
      </trkpt>
      <trkpt lat="46.36731" lon="-0.37283">
        <ele>27.4037</ele>
        <time>2011-06-02T12:51:47Z</time>
      </trkpt>
      <trkpt lat="46.36731" lon="-0.37284">
        <ele>27.3728</ele>
        <time>2011-06-02T12:51:48Z</time>
      </trkpt>
      <trkpt lat="46.36731" lon="-0.37285">
        <ele>27.3448</ele>
        <time>2011-06-02T12:51:49Z</time>
      </trkpt>
      <trkpt lat="46.36731" lon="-0.37287">
        <ele>27.3199</ele>
        <time>2011-06-02T12:51:50Z</time>
      </trkpt>
      <trkpt lat="46.36732" lon="-0.37288">
        <ele>27.2949</ele>
        <time>2011-06-02T12:51:51Z</time>
      </trkpt>
      <trkpt lat="46.36732" lon="-0.37289">
        <ele>27.2699</ele>
        <time>2011-06-02T12:51:52Z</time>
      </trkpt>
      <trkpt lat="46.36732" lon="-0.37289">
        <ele>27.2551</ele>
        <time>2011-06-02T12:51:53Z</time>
      </trkpt>
      <trkpt lat="46.36732" lon="-0.3729">
        <ele>27.2445</ele>
        <time>2011-06-02T12:51:54Z</time>
      </trkpt>
      <trkpt lat="46.36732" lon="-0.37291">
        <ele>27.2376</ele>
        <time>2011-06-02T12:51:55Z</time>
      </trkpt>
      <trkpt lat="46.36731" lon="-0.37291">
        <ele>27.2314</ele>
        <time>2011-06-02T12:51:56Z</time>
      </trkpt>
      <trkpt lat="46.36731" lon="-0.37291">
        <ele>27.2364</ele>
        <time>2011-06-02T12:51:57Z</time>
      </trkpt>
      <trkpt lat="46.36731" lon="-0.37291">
        <ele>27.2469</ele>
        <time>2011-06-02T12:51:58Z</time>
      </trkpt>
      <trkpt lat="46.3673" lon="-0.37291">
        <ele>27.2661</ele>
        <time>2011-06-02T12:51:59Z</time>
      </trkpt>
      <trkpt lat="46.3673" lon="-0.37292">
        <ele>27.2925</ele>
        <time>2011-06-02T12:52:00Z</time>
      </trkpt>
      <trkpt lat="46.3673" lon="-0.37292">
        <ele>27.3277</ele>
        <time>2011-06-02T12:52:01Z</time>
      </trkpt>
      <trkpt lat="46.36729" lon="-0.37293">
        <ele>27.3637</ele>
        <time>2011-06-02T12:52:02Z</time>
      </trkpt>
      <trkpt lat="46.36728" lon="-0.37294">
        <ele>27.3988</ele>
        <time>2011-06-02T12:52:03Z</time>
      </trkpt>
      <trkpt lat="46.36728" lon="-0.37295">
        <ele>27.4336</ele>
        <time>2011-06-02T12:52:04Z</time>
      </trkpt>
      <trkpt lat="46.36728" lon="-0.37296">
        <ele>27.4721</ele>
        <time>2011-06-02T12:52:05Z</time>
      </trkpt>
      <trkpt lat="46.36727" lon="-0.37296">
        <ele>27.506</ele>
        <time>2011-06-02T12:52:06Z</time>
      </trkpt>
      <trkpt lat="46.36726" lon="-0.37297">
        <ele>27.5475</ele>
        <time>2011-06-02T12:52:07Z</time>
      </trkpt>
      <trkpt lat="46.36726" lon="-0.37298">
        <ele>27.5905</ele>
        <time>2011-06-02T12:52:08Z</time>
      </trkpt>
      <trkpt lat="46.36725" lon="-0.37299">
        <ele>27.6412</ele>
        <time>2011-06-02T12:52:09Z</time>
      </trkpt>
      <trkpt lat="46.36725" lon="-0.373">
        <ele>27.6922</ele>
        <time>2011-06-02T12:52:10Z</time>
      </trkpt>
      <trkpt lat="46.36724" lon="-0.37301">
        <ele>27.75</ele>
        <time>2011-06-02T12:52:11Z</time>
      </trkpt>
      <trkpt lat="46.36723" lon="-0.37303">
        <ele>27.8053</ele>
        <time>2011-06-02T12:52:12Z</time>
      </trkpt>
      <trkpt lat="46.36723" lon="-0.37305">
        <ele>27.8594</ele>
        <time>2011-06-02T12:52:13Z</time>
      </trkpt>
      <trkpt lat="46.36722" lon="-0.37307">
        <ele>27.9044</ele>
        <time>2011-06-02T12:52:14Z</time>
      </trkpt>
      <trkpt lat="46.36723" lon="-0.37311">
        <ele>27.9396</ele>
        <time>2011-06-02T12:52:15Z</time>
      </trkpt>
      <trkpt lat="46.36723" lon="-0.37314">
        <ele>27.967</ele>
        <time>2011-06-02T12:52:16Z</time>
      </trkpt>
      <trkpt lat="46.36723" lon="-0.37318">
        <ele>28.0069</ele>
        <time>2011-06-02T12:52:17Z</time>
      </trkpt>
      <trkpt lat="46.36723" lon="-0.37321">
        <ele>28.0556</ele>
        <time>2011-06-02T12:52:18Z</time>
      </trkpt>
      <trkpt lat="46.36722" lon="-0.37324">
        <ele>28.1084</ele>
        <time>2011-06-02T12:52:19Z</time>
      </trkpt>
      <trkpt lat="46.36721" lon="-0.37327">
        <ele>28.1577</ele>
        <time>2011-06-02T12:52:20Z</time>
      </trkpt>
      <trkpt lat="46.36721" lon="-0.3733">
        <ele>28.1977</ele>
        <time>2011-06-02T12:52:21Z</time>
      </trkpt>
      <trkpt lat="46.3672" lon="-0.37333">
        <ele>28.2352</ele>
        <time>2011-06-02T12:52:22Z</time>
      </trkpt>
      <trkpt lat="46.3672" lon="-0.37335">
        <ele>28.2722</ele>
        <time>2011-06-02T12:52:23Z</time>
      </trkpt>
      <trkpt lat="46.3672" lon="-0.37337">
        <ele>28.3077</ele>
        <time>2011-06-02T12:52:24Z</time>
      </trkpt>
      <trkpt lat="46.3672" lon="-0.3734">
        <ele>28.3456</ele>
        <time>2011-06-02T12:52:25Z</time>
      </trkpt>
      <trkpt lat="46.36721" lon="-0.37342">
        <ele>28.3827</ele>
        <time>2011-06-02T12:52:26Z</time>
      </trkpt>
      <trkpt lat="46.36721" lon="-0.37344">
        <ele>28.4293</ele>
        <time>2011-06-02T12:52:27Z</time>
      </trkpt>
      <trkpt lat="46.36722" lon="-0.37346">
        <ele>28.4834</ele>
        <time>2011-06-02T12:52:28Z</time>
      </trkpt>
      <trkpt lat="46.36722" lon="-0.37348">
        <ele>28.5434</ele>
        <time>2011-06-02T12:52:29Z</time>
      </trkpt>
      <trkpt lat="46.36722" lon="-0.3735">
        <ele>28.6062</ele>
        <time>2011-06-02T12:52:30Z</time>
      </trkpt>
      <trkpt lat="46.36723" lon="-0.37352">
        <ele>28.6719</ele>
        <time>2011-06-02T12:52:31Z</time>
      </trkpt>
      <trkpt lat="46.36723" lon="-0.37353">
        <ele>28.7388</ele>
        <time>2011-06-02T12:52:32Z</time>
      </trkpt>
      <trkpt lat="46.36723" lon="-0.37355">
        <ele>28.8007</ele>
        <time>2011-06-02T12:52:33Z</time>
      </trkpt>
      <trkpt lat="46.36723" lon="-0.37356">
        <ele>28.8611</ele>
        <time>2011-06-02T12:52:34Z</time>
      </trkpt>
      <trkpt lat="46.36723" lon="-0.37358">
        <ele>28.923</ele>
        <time>2011-06-02T12:52:35Z</time>
      </trkpt>
      <trkpt lat="46.36723" lon="-0.37359">
        <ele>28.9865</ele>
        <time>2011-06-02T12:52:36Z</time>
      </trkpt>
      <trkpt lat="46.36724" lon="-0.3736">
        <ele>29.0527</ele>
        <time>2011-06-02T12:52:37Z</time>
      </trkpt>
      <trkpt lat="46.36725" lon="-0.37361">
        <ele>29.1204</ele>
        <time>2011-06-02T12:52:38Z</time>
      </trkpt>
      <trkpt lat="46.36725" lon="-0.37361">
        <ele>29.1937</ele>
        <time>2011-06-02T12:52:40Z</time>
      </trkpt>
      <trkpt lat="46.36726" lon="-0.37361">
        <ele>29.2583</ele>
        <time>2011-06-02T12:52:41Z</time>
      </trkpt>
      <trkpt lat="46.36727" lon="-0.37362">
        <ele>29.3246</ele>
        <time>2011-06-02T12:52:42Z</time>
      </trkpt>
      <trkpt lat="46.36728" lon="-0.37363">
        <ele>29.3946</ele>
        <time>2011-06-02T12:52:43Z</time>
      </trkpt>
      <trkpt lat="46.36728" lon="-0.37364">
        <ele>29.4618</ele>
        <time>2011-06-02T12:52:44Z</time>
      </trkpt>
      <trkpt lat="46.36729" lon="-0.37365">
        <ele>29.5315</ele>
        <time>2011-06-02T12:52:45Z</time>
      </trkpt>
      <trkpt lat="46.36729" lon="-0.37365">
        <ele>29.5961</ele>
        <time>2011-06-02T12:52:46Z</time>
      </trkpt>
      <trkpt lat="46.36729" lon="-0.37367">
        <ele>29.6596</ele>
        <time>2011-06-02T12:52:47Z</time>
      </trkpt>
      <trkpt lat="46.3673" lon="-0.37368">
        <ele>29.7212</ele>
        <time>2011-06-02T12:52:48Z</time>
      </trkpt>
      <trkpt lat="46.36731" lon="-0.3737">
        <ele>29.7856</ele>
        <time>2011-06-02T12:52:49Z</time>
      </trkpt>
      <trkpt lat="46.36731" lon="-0.37372">
        <ele>29.8521</ele>
        <time>2011-06-02T12:52:50Z</time>
      </trkpt>
      <trkpt lat="46.36731" lon="-0.37373">
        <ele>29.9234</ele>
        <time>2011-06-02T12:52:51Z</time>
      </trkpt>
      <trkpt lat="46.36732" lon="-0.37375">
        <ele>29.996</ele>
        <time>2011-06-02T12:52:52Z</time>
      </trkpt>
      <trkpt lat="46.36733" lon="-0.37376">
        <ele>30.0642</ele>
        <time>2011-06-02T12:52:53Z</time>
      </trkpt>
      <trkpt lat="46.36733" lon="-0.37376">
        <ele>30.1197</ele>
        <time>2011-06-02T12:52:54Z</time>
      </trkpt>
      <trkpt lat="46.36733" lon="-0.37377">
        <ele>30.1729</ele>
        <time>2011-06-02T12:52:55Z</time>
      </trkpt>
      <trkpt lat="46.36733" lon="-0.37378">
        <ele>30.2227</ele>
        <time>2011-06-02T12:52:56Z</time>
      </trkpt>
      <trkpt lat="46.36734" lon="-0.37379">
        <ele>30.2681</ele>
        <time>2011-06-02T12:52:57Z</time>
      </trkpt>
      <trkpt lat="46.36734" lon="-0.3738">
        <ele>30.3031</ele>
        <time>2011-06-02T12:52:58Z</time>
      </trkpt>
      <trkpt lat="46.36734" lon="-0.3738">
        <ele>30.3278</ele>
        <time>2011-06-02T12:52:59Z</time>
      </trkpt>
      <trkpt lat="46.36734" lon="-0.37381">
        <ele>30.3424</ele>
        <time>2011-06-02T12:53:00Z</time>
      </trkpt>
      <trkpt lat="46.36735" lon="-0.37382">
        <ele>30.3509</ele>
        <time>2011-06-02T12:53:01Z</time>
      </trkpt>
      <trkpt lat="46.36735" lon="-0.37382">
        <ele>30.3546</ele>
        <time>2011-06-02T12:53:02Z</time>
      </trkpt>
      <trkpt lat="46.36735" lon="-0.37384">
        <ele>30.3547</ele>
        <time>2011-06-02T12:53:03Z</time>
      </trkpt>
      <trkpt lat="46.36736" lon="-0.37385">
        <ele>30.351</ele>
        <time>2011-06-02T12:53:04Z</time>
      </trkpt>
      <trkpt lat="46.36736" lon="-0.37387">
        <ele>30.3493</ele>
        <time>2011-06-02T12:53:05Z</time>
      </trkpt>
      <trkpt lat="46.36737" lon="-0.37388">
        <ele>30.2701</ele>
        <time>2011-06-02T12:53:09Z</time>
      </trkpt>
      <trkpt lat="46.36742" lon="-0.37384">
        <ele>30.2235</ele>
        <time>2011-06-02T12:53:16Z</time>
      </trkpt>
      <trkpt lat="46.36746" lon="-0.37381">
        <ele>30.1523</ele>
        <time>2011-06-02T12:53:21Z</time>
      </trkpt>
      <trkpt lat="46.3675" lon="-0.37382">
        <ele>29.5958</ele>
        <time>2011-06-02T12:53:25Z</time>
      </trkpt>
      <trkpt lat="46.36751" lon="-0.37382">
        <ele>29.3546</ele>
        <time>2011-06-02T12:53:26Z</time>
      </trkpt>
      <trkpt lat="46.36752" lon="-0.37384">
        <ele>29.1136</ele>
        <time>2011-06-02T12:53:27Z</time>
      </trkpt>
      <trkpt lat="46.36752" lon="-0.37385">
        <ele>28.8708</ele>
        <time>2011-06-02T12:53:28Z</time>
      </trkpt>
      <trkpt lat="46.36754" lon="-0.37387">
        <ele>28.626</ele>
        <time>2011-06-02T12:53:29Z</time>
      </trkpt>
      <trkpt lat="46.36754" lon="-0.37389">
        <ele>28.3967</ele>
        <time>2011-06-02T12:53:30Z</time>
      </trkpt>
      <trkpt lat="46.36754" lon="-0.37392">
        <ele>28.1833</ele>
        <time>2011-06-02T12:53:31Z</time>
      </trkpt>
      <trkpt lat="46.36754" lon="-0.37395">
        <ele>27.9854</ele>
        <time>2011-06-02T12:53:32Z</time>
      </trkpt>
      <trkpt lat="46.36754" lon="-0.37398">
        <ele>27.7951</ele>
        <time>2011-06-02T12:53:33Z</time>
      </trkpt>
      <trkpt lat="46.36754" lon="-0.37401">
        <ele>27.6154</ele>
        <time>2011-06-02T12:53:34Z</time>
      </trkpt>
      <trkpt lat="46.36754" lon="-0.37402">
        <ele>27.4478</ele>
        <time>2011-06-02T12:53:35Z</time>
      </trkpt>
      <trkpt lat="46.36754" lon="-0.37404">
        <ele>27.2884</ele>
        <time>2011-06-02T12:53:36Z</time>
      </trkpt>
      <trkpt lat="46.36754" lon="-0.37405">
        <ele>27.1387</ele>
        <time>2011-06-02T12:53:37Z</time>
      </trkpt>
      <trkpt lat="46.36755" lon="-0.37406">
        <ele>26.9951</ele>
        <time>2011-06-02T12:53:38Z</time>
      </trkpt>
      <trkpt lat="46.36755" lon="-0.37408">
        <ele>26.8633</ele>
        <time>2011-06-02T12:53:39Z</time>
      </trkpt>
      <trkpt lat="46.36755" lon="-0.37409">
        <ele>26.7495</ele>
        <time>2011-06-02T12:53:40Z</time>
      </trkpt>
      <trkpt lat="46.36756" lon="-0.3741">
        <ele>26.6379</ele>
        <time>2011-06-02T12:53:41Z</time>
      </trkpt>
      <trkpt lat="46.36756" lon="-0.37412">
        <ele>26.5416</ele>
        <time>2011-06-02T12:53:42Z</time>
      </trkpt>
      <trkpt lat="46.36756" lon="-0.37414">
        <ele>26.455</ele>
        <time>2011-06-02T12:53:43Z</time>
      </trkpt>
      <trkpt lat="46.36757" lon="-0.37415">
        <ele>26.3746</ele>
        <time>2011-06-02T12:53:44Z</time>
      </trkpt>
      <trkpt lat="46.36757" lon="-0.37417">
        <ele>26.2971</ele>
        <time>2011-06-02T12:53:45Z</time>
      </trkpt>
      <trkpt lat="46.36758" lon="-0.37417">
        <ele>26.2158</ele>
        <time>2011-06-02T12:53:46Z</time>
      </trkpt>
      <trkpt lat="46.36758" lon="-0.37418">
        <ele>26.1334</ele>
        <time>2011-06-02T12:53:47Z</time>
      </trkpt>
      <trkpt lat="46.36759" lon="-0.37418">
        <ele>26.0497</ele>
        <time>2011-06-02T12:53:48Z</time>
      </trkpt>
      <trkpt lat="46.3676" lon="-0.37418">
        <ele>25.9671</ele>
        <time>2011-06-02T12:53:49Z</time>
      </trkpt>
      <trkpt lat="46.36762" lon="-0.37419">
        <ele>25.8913</ele>
        <time>2011-06-02T12:53:50Z</time>
      </trkpt>
      <trkpt lat="46.36762" lon="-0.37418">
        <ele>25.817</ele>
        <time>2011-06-02T12:53:51Z</time>
      </trkpt>
      <trkpt lat="46.36764" lon="-0.37419">
        <ele>25.6807</ele>
        <time>2011-06-02T12:53:55Z</time>
      </trkpt>
      <trkpt lat="46.36765" lon="-0.3742">
        <ele>25.6384</ele>
        <time>2011-06-02T12:53:56Z</time>
      </trkpt>
      <trkpt lat="46.36765" lon="-0.3742">
        <ele>25.5982</ele>
        <time>2011-06-02T12:53:57Z</time>
      </trkpt>
      <trkpt lat="46.36766" lon="-0.3742">
        <ele>25.5595</ele>
        <time>2011-06-02T12:53:58Z</time>
      </trkpt>
      <trkpt lat="46.36767" lon="-0.3742">
        <ele>25.5185</ele>
        <time>2011-06-02T12:53:59Z</time>
      </trkpt>
      <trkpt lat="46.36768" lon="-0.3742">
        <ele>25.4809</ele>
        <time>2011-06-02T12:54:00Z</time>
      </trkpt>
      <trkpt lat="46.36769" lon="-0.37421">
        <ele>25.4562</ele>
        <time>2011-06-02T12:54:01Z</time>
      </trkpt>
      <trkpt lat="46.3677" lon="-0.37421">
        <ele>25.4492</ele>
        <time>2011-06-02T12:54:02Z</time>
      </trkpt>
      <trkpt lat="46.36772" lon="-0.37421">
        <ele>25.7001</ele>
        <time>2011-06-02T12:54:12Z</time>
      </trkpt>
      <trkpt lat="46.36773" lon="-0.37421">
        <ele>25.7659</ele>
        <time>2011-06-02T12:54:13Z</time>
      </trkpt>
      <trkpt lat="46.36774" lon="-0.37423">
        <ele>25.9705</ele>
        <time>2011-06-02T12:54:21Z</time>
      </trkpt>
      <trkpt lat="46.36776" lon="-0.37417">
        <ele>26.061</ele>
        <time>2011-06-02T12:54:38Z</time>
      </trkpt>
      <trkpt lat="46.3678" lon="-0.37413">
        <ele>26.1518</ele>
        <time>2011-06-02T12:54:49Z</time>
      </trkpt>
      <trkpt lat="46.3678" lon="-0.37411">
        <ele>26.4457</ele>
        <time>2011-06-02T12:54:55Z</time>
      </trkpt>
      <trkpt lat="46.3678" lon="-0.37418">
        <ele>26.8311</ele>
        <time>2011-06-02T12:55:14Z</time>
      </trkpt>
      <trkpt lat="46.36781" lon="-0.37418">
        <ele>27.25</ele>
        <time>2011-06-02T12:55:24Z</time>
      </trkpt>
      <trkpt lat="46.36781" lon="-0.37417">
        <ele>27.4051</ele>
        <time>2011-06-02T12:55:25Z</time>
      </trkpt>
      <trkpt lat="46.36782" lon="-0.37417">
        <ele>27.5595</ele>
        <time>2011-06-02T12:55:26Z</time>
      </trkpt>
      <trkpt lat="46.36783" lon="-0.37416">
        <ele>27.7115</ele>
        <time>2011-06-02T12:55:27Z</time>
      </trkpt>
      <trkpt lat="46.36784" lon="-0.37415">
        <ele>27.8563</ele>
        <time>2011-06-02T12:55:28Z</time>
      </trkpt>
      <trkpt lat="46.36784" lon="-0.37414">
        <ele>27.9919</ele>
        <time>2011-06-02T12:55:29Z</time>
      </trkpt>
      <trkpt lat="46.36786" lon="-0.37414">
        <ele>28.1219</ele>
        <time>2011-06-02T12:55:30Z</time>
      </trkpt>
      <trkpt lat="46.36786" lon="-0.37413">
        <ele>28.2411</ele>
        <time>2011-06-02T12:55:31Z</time>
      </trkpt>
      <trkpt lat="46.36787" lon="-0.37412">
        <ele>28.3551</ele>
        <time>2011-06-02T12:55:32Z</time>
      </trkpt>
      <trkpt lat="46.36788" lon="-0.37411">
        <ele>28.4672</ele>
        <time>2011-06-02T12:55:33Z</time>
      </trkpt>
      <trkpt lat="46.36789" lon="-0.3741">
        <ele>28.5704</ele>
        <time>2011-06-02T12:55:34Z</time>
      </trkpt>
      <trkpt lat="46.3679" lon="-0.37409">
        <ele>28.6676</ele>
        <time>2011-06-02T12:55:35Z</time>
      </trkpt>
      <trkpt lat="46.36791" lon="-0.37409">
        <ele>28.7586</ele>
        <time>2011-06-02T12:55:36Z</time>
      </trkpt>
      <trkpt lat="46.36791" lon="-0.37408">
        <ele>28.8458</ele>
        <time>2011-06-02T12:55:37Z</time>
      </trkpt>
      <trkpt lat="46.36792" lon="-0.37408">
        <ele>28.93</ele>
        <time>2011-06-02T12:55:38Z</time>
      </trkpt>
      <trkpt lat="46.36793" lon="-0.37408">
        <ele>29.0114</ele>
        <time>2011-06-02T12:55:39Z</time>
      </trkpt>
      <trkpt lat="46.36794" lon="-0.37408">
        <ele>29.0932</ele>
        <time>2011-06-02T12:55:40Z</time>
      </trkpt>
      <trkpt lat="46.36795" lon="-0.37409">
        <ele>29.1687</ele>
        <time>2011-06-02T12:55:41Z</time>
      </trkpt>
      <trkpt lat="46.36796" lon="-0.37409">
        <ele>29.2456</ele>
        <time>2011-06-02T12:55:42Z</time>
      </trkpt>
      <trkpt lat="46.36797" lon="-0.37408">
        <ele>29.3071</ele>
        <time>2011-06-02T12:55:43Z</time>
      </trkpt>
      <trkpt lat="46.36798" lon="-0.37408">
        <ele>29.3604</ele>
        <time>2011-06-02T12:55:44Z</time>
      </trkpt>
      <trkpt lat="46.36799" lon="-0.37407">
        <ele>29.4407</ele>
        <time>2011-06-02T12:55:45Z</time>
      </trkpt>
      <trkpt lat="46.368" lon="-0.37406">
        <ele>29.5265</ele>
        <time>2011-06-02T12:55:46Z</time>
      </trkpt>
      <trkpt lat="46.36802" lon="-0.37406">
        <ele>29.6044</ele>
        <time>2011-06-02T12:55:47Z</time>
      </trkpt>
      <trkpt lat="46.36803" lon="-0.37406">
        <ele>29.6782</ele>
        <time>2011-06-02T12:55:48Z</time>
      </trkpt>
      <trkpt lat="46.36804" lon="-0.37405">
        <ele>29.7552</ele>
        <time>2011-06-02T12:55:49Z</time>
      </trkpt>
      <trkpt lat="46.36805" lon="-0.37405">
        <ele>29.8251</ele>
        <time>2011-06-02T12:55:50Z</time>
      </trkpt>
      <trkpt lat="46.36807" lon="-0.37405">
        <ele>29.8957</ele>
        <time>2011-06-02T12:55:51Z</time>
      </trkpt>
      <trkpt lat="46.36808" lon="-0.37405">
        <ele>29.9696</ele>
        <time>2011-06-02T12:55:52Z</time>
      </trkpt>
      <trkpt lat="46.36809" lon="-0.37405">
        <ele>30.0465</ele>
        <time>2011-06-02T12:55:53Z</time>
      </trkpt>
      <trkpt lat="46.3681" lon="-0.37405">
        <ele>30.126</ele>
        <time>2011-06-02T12:55:54Z</time>
      </trkpt>
      <trkpt lat="46.36811" lon="-0.37405">
        <ele>30.1921</ele>
        <time>2011-06-02T12:55:55Z</time>
      </trkpt>
      <trkpt lat="46.36812" lon="-0.37405">
        <ele>30.2468</ele>
        <time>2011-06-02T12:55:56Z</time>
      </trkpt>
      <trkpt lat="46.36813" lon="-0.37405">
        <ele>30.2909</ele>
        <time>2011-06-02T12:55:57Z</time>
      </trkpt>
      <trkpt lat="46.36813" lon="-0.37405">
        <ele>30.3296</ele>
        <time>2011-06-02T12:55:58Z</time>
      </trkpt>
      <trkpt lat="46.36815" lon="-0.37405">
        <ele>30.3644</ele>
        <time>2011-06-02T12:55:59Z</time>
      </trkpt>
      <trkpt lat="46.36815" lon="-0.37405">
        <ele>30.4054</ele>
        <time>2011-06-02T12:56:00Z</time>
      </trkpt>
      <trkpt lat="46.36816" lon="-0.37404">
        <ele>30.4436</ele>
        <time>2011-06-02T12:56:01Z</time>
      </trkpt>
      <trkpt lat="46.36817" lon="-0.37404">
        <ele>30.4808</ele>
        <time>2011-06-02T12:56:02Z</time>
      </trkpt>
      <trkpt lat="46.36818" lon="-0.37404">
        <ele>30.5193</ele>
        <time>2011-06-02T12:56:03Z</time>
      </trkpt>
      <trkpt lat="46.3682" lon="-0.37404">
        <ele>30.5583</ele>
        <time>2011-06-02T12:56:04Z</time>
      </trkpt>
      <trkpt lat="46.36821" lon="-0.37404">
        <ele>30.5993</ele>
        <time>2011-06-02T12:56:05Z</time>
      </trkpt>
      <trkpt lat="46.36822" lon="-0.37404">
        <ele>30.6424</ele>
        <time>2011-06-02T12:56:06Z</time>
      </trkpt>
      <trkpt lat="46.36823" lon="-0.37404">
        <ele>30.6794</ele>
        <time>2011-06-02T12:56:07Z</time>
      </trkpt>
      <trkpt lat="46.36824" lon="-0.37405">
        <ele>30.7117</ele>
        <time>2011-06-02T12:56:08Z</time>
      </trkpt>
      <trkpt lat="46.36824" lon="-0.37405">
        <ele>30.7417</ele>
        <time>2011-06-02T12:56:09Z</time>
      </trkpt>
      <trkpt lat="46.36826" lon="-0.37405">
        <ele>30.7714</ele>
        <time>2011-06-02T12:56:10Z</time>
      </trkpt>
      <trkpt lat="46.36826" lon="-0.37406">
        <ele>30.8143</ele>
        <time>2011-06-02T12:56:11Z</time>
      </trkpt>
      <trkpt lat="46.36827" lon="-0.37407">
        <ele>30.8562</ele>
        <time>2011-06-02T12:56:12Z</time>
      </trkpt>
      <trkpt lat="46.36828" lon="-0.37407">
        <ele>30.8818</ele>
        <time>2011-06-02T12:56:13Z</time>
      </trkpt>
      <trkpt lat="46.36829" lon="-0.37408">
        <ele>30.9072</ele>
        <time>2011-06-02T12:56:14Z</time>
      </trkpt>
      <trkpt lat="46.36829" lon="-0.37408">
        <ele>30.9334</ele>
        <time>2011-06-02T12:56:15Z</time>
      </trkpt>
      <trkpt lat="46.36831" lon="-0.37408">
        <ele>30.9588</ele>
        <time>2011-06-02T12:56:16Z</time>
      </trkpt>
      <trkpt lat="46.36832" lon="-0.37409">
        <ele>30.9849</ele>
        <time>2011-06-02T12:56:17Z</time>
      </trkpt>
      <trkpt lat="46.36832" lon="-0.3741">
        <ele>31.0118</ele>
        <time>2011-06-02T12:56:18Z</time>
      </trkpt>
      <trkpt lat="46.36834" lon="-0.3741">
        <ele>31.0392</ele>
        <time>2011-06-02T12:56:19Z</time>
      </trkpt>
      <trkpt lat="46.36835" lon="-0.37411">
        <ele>31.0678</ele>
        <time>2011-06-02T12:56:20Z</time>
      </trkpt>
      <trkpt lat="46.36836" lon="-0.37411">
        <ele>31.091</ele>
        <time>2011-06-02T12:56:21Z</time>
      </trkpt>
      <trkpt lat="46.36837" lon="-0.37411">
        <ele>31.1162</ele>
        <time>2011-06-02T12:56:22Z</time>
      </trkpt>
      <trkpt lat="46.36837" lon="-0.37411">
        <ele>31.138</ele>
        <time>2011-06-02T12:56:23Z</time>
      </trkpt>
      <trkpt lat="46.36839" lon="-0.37411">
        <ele>31.1579</ele>
        <time>2011-06-02T12:56:24Z</time>
      </trkpt>
      <trkpt lat="46.36839" lon="-0.37412">
        <ele>31.1765</ele>
        <time>2011-06-02T12:56:25Z</time>
      </trkpt>
      <trkpt lat="46.3684" lon="-0.37412">
        <ele>31.1937</ele>
        <time>2011-06-02T12:56:26Z</time>
      </trkpt>
      <trkpt lat="46.3684" lon="-0.37412">
        <ele>31.21</ele>
        <time>2011-06-02T12:56:27Z</time>
      </trkpt>
      <trkpt lat="46.36841" lon="-0.37412">
        <ele>31.2261</ele>
        <time>2011-06-02T12:56:28Z</time>
      </trkpt>
      <trkpt lat="46.36842" lon="-0.37413">
        <ele>31.2403</ele>
        <time>2011-06-02T12:56:29Z</time>
      </trkpt>
      <trkpt lat="46.36843" lon="-0.37413">
        <ele>31.2548</ele>
        <time>2011-06-02T12:56:30Z</time>
      </trkpt>
      <trkpt lat="46.36844" lon="-0.37413">
        <ele>31.2634</ele>
        <time>2011-06-02T12:56:31Z</time>
      </trkpt>
      <trkpt lat="46.36845" lon="-0.37414">
        <ele>31.2727</ele>
        <time>2011-06-02T12:56:32Z</time>
      </trkpt>
      <trkpt lat="46.36846" lon="-0.37414">
        <ele>31.2848</ele>
        <time>2011-06-02T12:56:33Z</time>
      </trkpt>
      <trkpt lat="46.36847" lon="-0.37414">
        <ele>31.3002</ele>
        <time>2011-06-02T12:56:34Z</time>
      </trkpt>
      <trkpt lat="46.36848" lon="-0.37415">
        <ele>31.3184</ele>
        <time>2011-06-02T12:56:35Z</time>
      </trkpt>
      <trkpt lat="46.36849" lon="-0.37415">
        <ele>31.3358</ele>
        <time>2011-06-02T12:56:36Z</time>
      </trkpt>
      <trkpt lat="46.3685" lon="-0.37415">
        <ele>31.3515</ele>
        <time>2011-06-02T12:56:37Z</time>
      </trkpt>
      <trkpt lat="46.36851" lon="-0.37416">
        <ele>31.3648</ele>
        <time>2011-06-02T12:56:38Z</time>
      </trkpt>
      <trkpt lat="46.36852" lon="-0.37416">
        <ele>31.3764</ele>
        <time>2011-06-02T12:56:39Z</time>
      </trkpt>
      <trkpt lat="46.36853" lon="-0.37416">
        <ele>31.3897</ele>
        <time>2011-06-02T12:56:40Z</time>
      </trkpt>
      <trkpt lat="46.36854" lon="-0.37416">
        <ele>31.406</ele>
        <time>2011-06-02T12:56:41Z</time>
      </trkpt>
      <trkpt lat="46.36855" lon="-0.37416">
        <ele>31.4256</ele>
        <time>2011-06-02T12:56:42Z</time>
      </trkpt>
      <trkpt lat="46.36857" lon="-0.37416">
        <ele>31.4489</ele>
        <time>2011-06-02T12:56:43Z</time>
      </trkpt>
      <trkpt lat="46.36857" lon="-0.37416">
        <ele>31.4761</ele>
        <time>2011-06-02T12:56:44Z</time>
      </trkpt>
      <trkpt lat="46.36858" lon="-0.37417">
        <ele>31.5035</ele>
        <time>2011-06-02T12:56:45Z</time>
      </trkpt>
      <trkpt lat="46.36859" lon="-0.37417">
        <ele>31.5294</ele>
        <time>2011-06-02T12:56:46Z</time>
      </trkpt>
      <trkpt lat="46.36861" lon="-0.37417">
        <ele>31.5545</ele>
        <time>2011-06-02T12:56:47Z</time>
      </trkpt>
      <trkpt lat="46.36862" lon="-0.37416">
        <ele>31.5775</ele>
        <time>2011-06-02T12:56:48Z</time>
      </trkpt>
      <trkpt lat="46.36863" lon="-0.37417">
        <ele>31.6105</ele>
        <time>2011-06-02T12:56:49Z</time>
      </trkpt>
      <trkpt lat="46.36865" lon="-0.37417">
        <ele>31.6521</ele>
        <time>2011-06-02T12:56:50Z</time>
      </trkpt>
      <trkpt lat="46.36866" lon="-0.37418">
        <ele>31.6973</ele>
        <time>2011-06-02T12:56:51Z</time>
      </trkpt>
      <trkpt lat="46.36867" lon="-0.37418">
        <ele>31.7461</ele>
        <time>2011-06-02T12:56:52Z</time>
      </trkpt>
      <trkpt lat="46.36869" lon="-0.37418">
        <ele>31.7926</ele>
        <time>2011-06-02T12:56:53Z</time>
      </trkpt>
      <trkpt lat="46.3687" lon="-0.37418">
        <ele>31.841</ele>
        <time>2011-06-02T12:56:54Z</time>
      </trkpt>
      <trkpt lat="46.36872" lon="-0.37418">
        <ele>31.8927</ele>
        <time>2011-06-02T12:56:55Z</time>
      </trkpt>
      <trkpt lat="46.36873" lon="-0.37418">
        <ele>31.9465</ele>
        <time>2011-06-02T12:56:56Z</time>
      </trkpt>
      <trkpt lat="46.36874" lon="-0.37417">
        <ele>32.0024</ele>
        <time>2011-06-02T12:56:57Z</time>
      </trkpt>
      <trkpt lat="46.36876" lon="-0.37417">
        <ele>32.0601</ele>
        <time>2011-06-02T12:56:58Z</time>
      </trkpt>
      <trkpt lat="46.36877" lon="-0.37417">
        <ele>32.1094</ele>
        <time>2011-06-02T12:56:59Z</time>
      </trkpt>
      <trkpt lat="46.36878" lon="-0.37417">
        <ele>32.1606</ele>
        <time>2011-06-02T12:57:00Z</time>
      </trkpt>
      <trkpt lat="46.36879" lon="-0.37416">
        <ele>32.2141</ele>
        <time>2011-06-02T12:57:01Z</time>
      </trkpt>
      <trkpt lat="46.36881" lon="-0.37416">
        <ele>32.2481</ele>
        <time>2011-06-02T12:57:02Z</time>
      </trkpt>
      <trkpt lat="46.36882" lon="-0.37416">
        <ele>32.2788</ele>
        <time>2011-06-02T12:57:03Z</time>
      </trkpt>
      <trkpt lat="46.36883" lon="-0.37416">
        <ele>32.3068</ele>
        <time>2011-06-02T12:57:04Z</time>
      </trkpt>
      <trkpt lat="46.36884" lon="-0.37415">
        <ele>32.3364</ele>
        <time>2011-06-02T12:57:05Z</time>
      </trkpt>
      <trkpt lat="46.36886" lon="-0.37416">
        <ele>32.3697</ele>
        <time>2011-06-02T12:57:06Z</time>
      </trkpt>
      <trkpt lat="46.36887" lon="-0.37416">
        <ele>32.4066</ele>
        <time>2011-06-02T12:57:07Z</time>
      </trkpt>
      <trkpt lat="46.36888" lon="-0.37416">
        <ele>32.4453</ele>
        <time>2011-06-02T12:57:08Z</time>
      </trkpt>
      <trkpt lat="46.36889" lon="-0.37415">
        <ele>32.485</ele>
        <time>2011-06-02T12:57:09Z</time>
      </trkpt>
      <trkpt lat="46.36891" lon="-0.37415">
        <ele>32.5267</ele>
        <time>2011-06-02T12:57:10Z</time>
      </trkpt>
      <trkpt lat="46.36892" lon="-0.37414">
        <ele>32.5706</ele>
        <time>2011-06-02T12:57:11Z</time>
      </trkpt>
      <trkpt lat="46.36894" lon="-0.37414">
        <ele>32.6164</ele>
        <time>2011-06-02T12:57:12Z</time>
      </trkpt>
      <trkpt lat="46.36895" lon="-0.37414">
        <ele>32.6643</ele>
        <time>2011-06-02T12:57:13Z</time>
      </trkpt>
      <trkpt lat="46.36896" lon="-0.37413">
        <ele>32.7135</ele>
        <time>2011-06-02T12:57:14Z</time>
      </trkpt>
      <trkpt lat="46.36897" lon="-0.37412">
        <ele>32.7643</ele>
        <time>2011-06-02T12:57:15Z</time>
      </trkpt>
      <trkpt lat="46.36898" lon="-0.37412">
        <ele>32.8123</ele>
        <time>2011-06-02T12:57:16Z</time>
      </trkpt>
      <trkpt lat="46.369" lon="-0.37412">
        <ele>32.8619</ele>
        <time>2011-06-02T12:57:17Z</time>
      </trkpt>
      <trkpt lat="46.36901" lon="-0.37411">
        <ele>32.9089</ele>
        <time>2011-06-02T12:57:18Z</time>
      </trkpt>
      <trkpt lat="46.36902" lon="-0.37411">
        <ele>32.9549</ele>
        <time>2011-06-02T12:57:19Z</time>
      </trkpt>
      <trkpt lat="46.36903" lon="-0.3741">
        <ele>32.9966</ele>
        <time>2011-06-02T12:57:20Z</time>
      </trkpt>
      <trkpt lat="46.36904" lon="-0.3741">
        <ele>33.0359</ele>
        <time>2011-06-02T12:57:21Z</time>
      </trkpt>
      <trkpt lat="46.36905" lon="-0.37409">
        <ele>33.0714</ele>
        <time>2011-06-02T12:57:22Z</time>
      </trkpt>
      <trkpt lat="46.36906" lon="-0.37408">
        <ele>33.1051</ele>
        <time>2011-06-02T12:57:23Z</time>
      </trkpt>
      <trkpt lat="46.36906" lon="-0.37407">
        <ele>33.1352</ele>
        <time>2011-06-02T12:57:24Z</time>
      </trkpt>
      <trkpt lat="46.36907" lon="-0.37407">
        <ele>33.1581</ele>
        <time>2011-06-02T12:57:25Z</time>
      </trkpt>
      <trkpt lat="46.36908" lon="-0.37406">
        <ele>33.1527</ele>
        <time>2011-06-02T12:57:26Z</time>
      </trkpt>
      <trkpt lat="46.36906" lon="-0.37401">
        <ele>33.0241</ele>
        <time>2011-06-02T12:57:31Z</time>
      </trkpt>
      <trkpt lat="46.36906" lon="-0.37401">
        <ele>32.9703</ele>
        <time>2011-06-02T12:57:32Z</time>
      </trkpt>
      <trkpt lat="46.36906" lon="-0.37401">
        <ele>32.9146</ele>
        <time>2011-06-02T12:57:33Z</time>
      </trkpt>
      <trkpt lat="46.36907" lon="-0.37401">
        <ele>32.8522</ele>
        <time>2011-06-02T12:57:34Z</time>
      </trkpt>
      <trkpt lat="46.36908" lon="-0.37401">
        <ele>32.7861</ele>
        <time>2011-06-02T12:57:35Z</time>
      </trkpt>
      <trkpt lat="46.3691" lon="-0.37401">
        <ele>32.7102</ele>
        <time>2011-06-02T12:57:36Z</time>
      </trkpt>
      <trkpt lat="46.36911" lon="-0.37401">
        <ele>32.623</ele>
        <time>2011-06-02T12:57:37Z</time>
      </trkpt>
      <trkpt lat="46.36911" lon="-0.37402">
        <ele>32.5254</ele>
        <time>2011-06-02T12:57:38Z</time>
      </trkpt>
      <trkpt lat="46.36912" lon="-0.37402">
        <ele>32.4298</ele>
        <time>2011-06-02T12:57:39Z</time>
      </trkpt>
      <trkpt lat="46.36913" lon="-0.37403">
        <ele>32.3351</ele>
        <time>2011-06-02T12:57:40Z</time>
      </trkpt>
      <trkpt lat="46.36914" lon="-0.37403">
        <ele>32.2376</ele>
        <time>2011-06-02T12:57:41Z</time>
      </trkpt>
      <trkpt lat="46.36915" lon="-0.37404">
        <ele>32.1349</ele>
        <time>2011-06-02T12:57:42Z</time>
      </trkpt>
      <trkpt lat="46.36916" lon="-0.37404">
        <ele>32.0389</ele>
        <time>2011-06-02T12:57:43Z</time>
      </trkpt>
      <trkpt lat="46.36918" lon="-0.37403">
        <ele>31.9551</ele>
        <time>2011-06-02T12:57:44Z</time>
      </trkpt>
      <trkpt lat="46.36918" lon="-0.37403">
        <ele>31.8841</ele>
        <time>2011-06-02T12:57:45Z</time>
      </trkpt>
      <trkpt lat="46.36919" lon="-0.37402">
        <ele>31.816</ele>
        <time>2011-06-02T12:57:46Z</time>
      </trkpt>
      <trkpt lat="46.36921" lon="-0.37402">
        <ele>31.7523</ele>
        <time>2011-06-02T12:57:47Z</time>
      </trkpt>
      <trkpt lat="46.36921" lon="-0.37402">
        <ele>31.6909</ele>
        <time>2011-06-02T12:57:48Z</time>
      </trkpt>
      <trkpt lat="46.36923" lon="-0.37402">
        <ele>31.5114</ele>
        <time>2011-06-02T12:57:52Z</time>
      </trkpt>
      <trkpt lat="46.36924" lon="-0.37403">
        <ele>31.4576</ele>
        <time>2011-06-02T12:57:53Z</time>
      </trkpt>
      <trkpt lat="46.36925" lon="-0.37403">
        <ele>31.4084</ele>
        <time>2011-06-02T12:57:54Z</time>
      </trkpt>
      <trkpt lat="46.36926" lon="-0.37404">
        <ele>31.3648</ele>
        <time>2011-06-02T12:57:55Z</time>
      </trkpt>
      <trkpt lat="46.36926" lon="-0.37405">
        <ele>31.3221</ele>
        <time>2011-06-02T12:57:56Z</time>
      </trkpt>
      <trkpt lat="46.36927" lon="-0.37405">
        <ele>31.2805</ele>
        <time>2011-06-02T12:57:57Z</time>
      </trkpt>
      <trkpt lat="46.36927" lon="-0.37405">
        <ele>31.2397</ele>
        <time>2011-06-02T12:57:58Z</time>
      </trkpt>
      <trkpt lat="46.36928" lon="-0.37406">
        <ele>31.1969</ele>
        <time>2011-06-02T12:57:59Z</time>
      </trkpt>
      <trkpt lat="46.36929" lon="-0.37407">
        <ele>31.1542</ele>
        <time>2011-06-02T12:58:00Z</time>
      </trkpt>
      <trkpt lat="46.3693" lon="-0.37407">
        <ele>31.1116</ele>
        <time>2011-06-02T12:58:01Z</time>
      </trkpt>
      <trkpt lat="46.36931" lon="-0.37408">
        <ele>31.0573</ele>
        <time>2011-06-02T12:58:02Z</time>
      </trkpt>
      <trkpt lat="46.36931" lon="-0.37408">
        <ele>30.9923</ele>
        <time>2011-06-02T12:58:03Z</time>
      </trkpt>
      <trkpt lat="46.36932" lon="-0.37408">
        <ele>30.918</ele>
        <time>2011-06-02T12:58:04Z</time>
      </trkpt>
      <trkpt lat="46.36933" lon="-0.37408">
        <ele>30.8371</ele>
        <time>2011-06-02T12:58:06Z</time>
      </trkpt>
      <trkpt lat="46.36933" lon="-0.37409">
        <ele>30.768</ele>
        <time>2011-06-02T12:58:07Z</time>
      </trkpt>
      <trkpt lat="46.36934" lon="-0.37409">
        <ele>30.7006</ele>
        <time>2011-06-02T12:58:08Z</time>
      </trkpt>
      <trkpt lat="46.36934" lon="-0.3741">
        <ele>30.633</ele>
        <time>2011-06-02T12:58:09Z</time>
      </trkpt>
      <trkpt lat="46.36935" lon="-0.3741">
        <ele>30.5665</ele>
        <time>2011-06-02T12:58:10Z</time>
      </trkpt>
      <trkpt lat="46.36936" lon="-0.37411">
        <ele>30.5007</ele>
        <time>2011-06-02T12:58:11Z</time>
      </trkpt>
      <trkpt lat="46.36937" lon="-0.37412">
        <ele>30.4414</ele>
        <time>2011-06-02T12:58:12Z</time>
      </trkpt>
      <trkpt lat="46.36938" lon="-0.37413">
        <ele>30.3897</ele>
        <time>2011-06-02T12:58:13Z</time>
      </trkpt>
      <trkpt lat="46.36939" lon="-0.37414">
        <ele>30.3419</ele>
        <time>2011-06-02T12:58:14Z</time>
      </trkpt>
      <trkpt lat="46.3694" lon="-0.37415">
        <ele>30.2968</ele>
        <time>2011-06-02T12:58:15Z</time>
      </trkpt>
      <trkpt lat="46.36941" lon="-0.37416">
        <ele>30.2503</ele>
        <time>2011-06-02T12:58:16Z</time>
      </trkpt>
      <trkpt lat="46.36943" lon="-0.37417">
        <ele>30.205</ele>
        <time>2011-06-02T12:58:17Z</time>
      </trkpt>
      <trkpt lat="46.36944" lon="-0.37417">
        <ele>30.1691</ele>
        <time>2011-06-02T12:58:18Z</time>
      </trkpt>
      <trkpt lat="46.36945" lon="-0.37418">
        <ele>30.1323</ele>
        <time>2011-06-02T12:58:19Z</time>
      </trkpt>
      <trkpt lat="46.36946" lon="-0.37418">
        <ele>30.0978</ele>
        <time>2011-06-02T12:58:20Z</time>
      </trkpt>
      <trkpt lat="46.36947" lon="-0.37418">
        <ele>30.0679</ele>
        <time>2011-06-02T12:58:21Z</time>
      </trkpt>
      <trkpt lat="46.36948" lon="-0.37418">
        <ele>30.0364</ele>
        <time>2011-06-02T12:58:22Z</time>
      </trkpt>
      <trkpt lat="46.36949" lon="-0.37418">
        <ele>30.0047</ele>
        <time>2011-06-02T12:58:23Z</time>
      </trkpt>
      <trkpt lat="46.3695" lon="-0.37417">
        <ele>29.9743</ele>
        <time>2011-06-02T12:58:24Z</time>
      </trkpt>
      <trkpt lat="46.36952" lon="-0.37417">
        <ele>29.9461</ele>
        <time>2011-06-02T12:58:25Z</time>
      </trkpt>
      <trkpt lat="46.36953" lon="-0.37417">
        <ele>29.9274</ele>
        <time>2011-06-02T12:58:26Z</time>
      </trkpt>
      <trkpt lat="46.36954" lon="-0.37417">
        <ele>29.9139</ele>
        <time>2011-06-02T12:58:27Z</time>
      </trkpt>
      <trkpt lat="46.36955" lon="-0.37417">
        <ele>29.903</ele>
        <time>2011-06-02T12:58:28Z</time>
      </trkpt>
      <trkpt lat="46.36956" lon="-0.37417">
        <ele>29.8925</ele>
        <time>2011-06-02T12:58:29Z</time>
      </trkpt>
      <trkpt lat="46.36957" lon="-0.37417">
        <ele>29.8829</ele>
        <time>2011-06-02T12:58:30Z</time>
      </trkpt>
      <trkpt lat="46.36958" lon="-0.37417">
        <ele>29.8738</ele>
        <time>2011-06-02T12:58:31Z</time>
      </trkpt>
      <trkpt lat="46.36959" lon="-0.37417">
        <ele>29.8693</ele>
        <time>2011-06-02T12:58:32Z</time>
      </trkpt>
      <trkpt lat="46.3696" lon="-0.37418">
        <ele>29.8632</ele>
        <time>2011-06-02T12:58:33Z</time>
      </trkpt>
      <trkpt lat="46.36961" lon="-0.37418">
        <ele>29.8564</ele>
        <time>2011-06-02T12:58:34Z</time>
      </trkpt>
      <trkpt lat="46.36962" lon="-0.37419">
        <ele>29.8507</ele>
        <time>2011-06-02T12:58:35Z</time>
      </trkpt>
      <trkpt lat="46.36963" lon="-0.37419">
        <ele>29.8452</ele>
        <time>2011-06-02T12:58:36Z</time>
      </trkpt>
      <trkpt lat="46.36964" lon="-0.3742">
        <ele>29.8407</ele>
        <time>2011-06-02T12:58:37Z</time>
      </trkpt>
      <trkpt lat="46.36965" lon="-0.3742">
        <ele>29.8351</ele>
        <time>2011-06-02T12:58:38Z</time>
      </trkpt>
      <trkpt lat="46.36966" lon="-0.3742">
        <ele>29.83</ele>
        <time>2011-06-02T12:58:39Z</time>
      </trkpt>
      <trkpt lat="46.36967" lon="-0.37421">
        <ele>29.8236</ele>
        <time>2011-06-02T12:58:40Z</time>
      </trkpt>
      <trkpt lat="46.36968" lon="-0.37421">
        <ele>29.8172</ele>
        <time>2011-06-02T12:58:41Z</time>
      </trkpt>
      <trkpt lat="46.36969" lon="-0.37422">
        <ele>29.8106</ele>
        <time>2011-06-02T12:58:42Z</time>
      </trkpt>
      <trkpt lat="46.3697" lon="-0.37423">
        <ele>29.8051</ele>
        <time>2011-06-02T12:58:43Z</time>
      </trkpt>
      <trkpt lat="46.36971" lon="-0.37423">
        <ele>29.8006</ele>
        <time>2011-06-02T12:58:44Z</time>
      </trkpt>
      <trkpt lat="46.36972" lon="-0.37424">
        <ele>29.7977</ele>
        <time>2011-06-02T12:58:45Z</time>
      </trkpt>
      <trkpt lat="46.36972" lon="-0.37425">
        <ele>29.7964</ele>
        <time>2011-06-02T12:58:46Z</time>
      </trkpt>
      <trkpt lat="46.36973" lon="-0.37426">
        <ele>29.7981</ele>
        <time>2011-06-02T12:58:47Z</time>
      </trkpt>
      <trkpt lat="46.36974" lon="-0.37427">
        <ele>29.8014</ele>
        <time>2011-06-02T12:58:48Z</time>
      </trkpt>
      <trkpt lat="46.36974" lon="-0.37428">
        <ele>29.8093</ele>
        <time>2011-06-02T12:58:49Z</time>
      </trkpt>
      <trkpt lat="46.36975" lon="-0.37429">
        <ele>29.8205</ele>
        <time>2011-06-02T12:58:50Z</time>
      </trkpt>
      <trkpt lat="46.36976" lon="-0.3743">
        <ele>29.8347</ele>
        <time>2011-06-02T12:58:51Z</time>
      </trkpt>
      <trkpt lat="46.36976" lon="-0.37431">
        <ele>29.8468</ele>
        <time>2011-06-02T12:58:52Z</time>
      </trkpt>
      <trkpt lat="46.36976" lon="-0.37432">
        <ele>29.8548</ele>
        <time>2011-06-02T12:58:53Z</time>
      </trkpt>
      <trkpt lat="46.36976" lon="-0.37433">
        <ele>29.8525</ele>
        <time>2011-06-02T12:58:54Z</time>
      </trkpt>
      <trkpt lat="46.36977" lon="-0.37433">
        <ele>29.8482</ele>
        <time>2011-06-02T12:58:55Z</time>
      </trkpt>
      <trkpt lat="46.36977" lon="-0.37434">
        <ele>29.8422</ele>
        <time>2011-06-02T12:58:56Z</time>
      </trkpt>
      <trkpt lat="46.36977" lon="-0.37435">
        <ele>29.8359</ele>
        <time>2011-06-02T12:58:57Z</time>
      </trkpt>
      <trkpt lat="46.36977" lon="-0.37436">
        <ele>29.8287</ele>
        <time>2011-06-02T12:58:58Z</time>
      </trkpt>
      <trkpt lat="46.36977" lon="-0.37437">
        <ele>29.8213</ele>
        <time>2011-06-02T12:58:59Z</time>
      </trkpt>
      <trkpt lat="46.36977" lon="-0.37438">
        <ele>29.8109</ele>
        <time>2011-06-02T12:59:00Z</time>
      </trkpt>
      <trkpt lat="46.36977" lon="-0.3744">
        <ele>29.7989</ele>
        <time>2011-06-02T12:59:01Z</time>
      </trkpt>
      <trkpt lat="46.36977" lon="-0.37441">
        <ele>29.7872</ele>
        <time>2011-06-02T12:59:02Z</time>
      </trkpt>
      <trkpt lat="46.36977" lon="-0.37442">
        <ele>29.7733</ele>
        <time>2011-06-02T12:59:03Z</time>
      </trkpt>
      <trkpt lat="46.36977" lon="-0.37443">
        <ele>29.7595</ele>
        <time>2011-06-02T12:59:04Z</time>
      </trkpt>
      <trkpt lat="46.36976" lon="-0.37444">
        <ele>29.7439</ele>
        <time>2011-06-02T12:59:05Z</time>
      </trkpt>
      <trkpt lat="46.36976" lon="-0.37445">
        <ele>29.7268</ele>
        <time>2011-06-02T12:59:06Z</time>
      </trkpt>
      <trkpt lat="46.36976" lon="-0.37444">
        <ele>29.6893</ele>
        <time>2011-06-02T12:59:09Z</time>
      </trkpt>
      <trkpt lat="46.36976" lon="-0.37445">
        <ele>29.6704</ele>
        <time>2011-06-02T12:59:10Z</time>
      </trkpt>
      <trkpt lat="46.36976" lon="-0.37446">
        <ele>29.6395</ele>
        <time>2011-06-02T12:59:11Z</time>
      </trkpt>
      <trkpt lat="46.36976" lon="-0.37447">
        <ele>29.6104</ele>
        <time>2011-06-02T12:59:12Z</time>
      </trkpt>
      <trkpt lat="46.36976" lon="-0.37449">
        <ele>29.5817</ele>
        <time>2011-06-02T12:59:13Z</time>
      </trkpt>
      <trkpt lat="46.36976" lon="-0.3745">
        <ele>29.5544</ele>
        <time>2011-06-02T12:59:14Z</time>
      </trkpt>
      <trkpt lat="46.36976" lon="-0.37452">
        <ele>29.5234</ele>
        <time>2011-06-02T12:59:15Z</time>
      </trkpt>
      <trkpt lat="46.36976" lon="-0.37453">
        <ele>29.4915</ele>
        <time>2011-06-02T12:59:16Z</time>
      </trkpt>
      <trkpt lat="46.36976" lon="-0.37455">
        <ele>29.461</ele>
        <time>2011-06-02T12:59:17Z</time>
      </trkpt>
      <trkpt lat="46.36976" lon="-0.37456">
        <ele>29.4296</ele>
        <time>2011-06-02T12:59:18Z</time>
      </trkpt>
      <trkpt lat="46.36976" lon="-0.37458">
        <ele>29.4012</ele>
        <time>2011-06-02T12:59:19Z</time>
      </trkpt>
      <trkpt lat="46.36976" lon="-0.3746">
        <ele>29.3773</ele>
        <time>2011-06-02T12:59:20Z</time>
      </trkpt>
      <trkpt lat="46.36975" lon="-0.37462">
        <ele>29.3513</ele>
        <time>2011-06-02T12:59:21Z</time>
      </trkpt>
      <trkpt lat="46.36975" lon="-0.37464">
        <ele>29.3314</ele>
        <time>2011-06-02T12:59:22Z</time>
      </trkpt>
      <trkpt lat="46.36974" lon="-0.37466">
        <ele>29.3167</ele>
        <time>2011-06-02T12:59:23Z</time>
      </trkpt>
      <trkpt lat="46.36974" lon="-0.37469">
        <ele>29.2936</ele>
        <time>2011-06-02T12:59:24Z</time>
      </trkpt>
      <trkpt lat="46.36974" lon="-0.3747">
        <ele>29.2577</ele>
        <time>2011-06-02T12:59:25Z</time>
      </trkpt>
      <trkpt lat="46.36974" lon="-0.37472">
        <ele>29.2233</ele>
        <time>2011-06-02T12:59:26Z</time>
      </trkpt>
      <trkpt lat="46.36974" lon="-0.37474">
        <ele>29.1903</ele>
        <time>2011-06-02T12:59:27Z</time>
      </trkpt>
      <trkpt lat="46.36974" lon="-0.37476">
        <ele>29.1587</ele>
        <time>2011-06-02T12:59:28Z</time>
      </trkpt>
      <trkpt lat="46.36974" lon="-0.37478">
        <ele>29.1168</ele>
        <time>2011-06-02T12:59:29Z</time>
      </trkpt>
      <trkpt lat="46.36974" lon="-0.3748">
        <ele>29.0739</ele>
        <time>2011-06-02T12:59:30Z</time>
      </trkpt>
      <trkpt lat="46.36975" lon="-0.37482">
        <ele>29.0296</ele>
        <time>2011-06-02T12:59:31Z</time>
      </trkpt>
      <trkpt lat="46.36975" lon="-0.37484">
        <ele>28.9898</ele>
        <time>2011-06-02T12:59:32Z</time>
      </trkpt>
      <trkpt lat="46.36975" lon="-0.37486">
        <ele>28.9466</ele>
        <time>2011-06-02T12:59:33Z</time>
      </trkpt>
      <trkpt lat="46.36975" lon="-0.37488">
        <ele>28.9049</ele>
        <time>2011-06-02T12:59:34Z</time>
      </trkpt>
      <trkpt lat="46.36976" lon="-0.3749">
        <ele>28.8638</ele>
        <time>2011-06-02T12:59:35Z</time>
      </trkpt>
      <trkpt lat="46.36976" lon="-0.37491">
        <ele>28.8241</ele>
        <time>2011-06-02T12:59:36Z</time>
      </trkpt>
      <trkpt lat="46.36977" lon="-0.37493">
        <ele>28.7815</ele>
        <time>2011-06-02T12:59:37Z</time>
      </trkpt>
      <trkpt lat="46.36977" lon="-0.37494">
        <ele>28.7411</ele>
        <time>2011-06-02T12:59:38Z</time>
      </trkpt>
      <trkpt lat="46.36978" lon="-0.37496">
        <ele>28.7052</ele>
        <time>2011-06-02T12:59:39Z</time>
      </trkpt>
      <trkpt lat="46.36978" lon="-0.37497">
        <ele>28.673</ele>
        <time>2011-06-02T12:59:40Z</time>
      </trkpt>
      <trkpt lat="46.36979" lon="-0.37498">
        <ele>28.6389</ele>
        <time>2011-06-02T12:59:41Z</time>
      </trkpt>
      <trkpt lat="46.36979" lon="-0.37499">
        <ele>28.6039</ele>
        <time>2011-06-02T12:59:42Z</time>
      </trkpt>
      <trkpt lat="46.36979" lon="-0.375">
        <ele>28.5619</ele>
        <time>2011-06-02T12:59:43Z</time>
      </trkpt>
      <trkpt lat="46.36979" lon="-0.375">
        <ele>28.5134</ele>
        <time>2011-06-02T12:59:44Z</time>
      </trkpt>
      <trkpt lat="46.3698" lon="-0.37501">
        <ele>28.4595</ele>
        <time>2011-06-02T12:59:45Z</time>
      </trkpt>
      <trkpt lat="46.3698" lon="-0.37502">
        <ele>28.399</ele>
        <time>2011-06-02T12:59:46Z</time>
      </trkpt>
      <trkpt lat="46.3698" lon="-0.37504">
        <ele>28.3359</ele>
        <time>2011-06-02T12:59:47Z</time>
      </trkpt>
      <trkpt lat="46.36981" lon="-0.37505">
        <ele>28.2759</ele>
        <time>2011-06-02T12:59:48Z</time>
      </trkpt>
      <trkpt lat="46.36981" lon="-0.37507">
        <ele>28.2161</ele>
        <time>2011-06-02T12:59:49Z</time>
      </trkpt>
      <trkpt lat="46.36982" lon="-0.3751">
        <ele>28.163</ele>
        <time>2011-06-02T12:59:50Z</time>
      </trkpt>
      <trkpt lat="46.36982" lon="-0.37512">
        <ele>28.1092</ele>
        <time>2011-06-02T12:59:51Z</time>
      </trkpt>
      <trkpt lat="46.36982" lon="-0.37514">
        <ele>28.0634</ele>
        <time>2011-06-02T12:59:52Z</time>
      </trkpt>
      <trkpt lat="46.36983" lon="-0.37515">
        <ele>28.0195</ele>
        <time>2011-06-02T12:59:53Z</time>
      </trkpt>
      <trkpt lat="46.36984" lon="-0.37517">
        <ele>27.9781</ele>
        <time>2011-06-02T12:59:54Z</time>
      </trkpt>
      <trkpt lat="46.36985" lon="-0.37518">
        <ele>27.9414</ele>
        <time>2011-06-02T12:59:55Z</time>
      </trkpt>
      <trkpt lat="46.36985" lon="-0.3752">
        <ele>27.907</ele>
        <time>2011-06-02T12:59:56Z</time>
      </trkpt>
      <trkpt lat="46.36985" lon="-0.37522">
        <ele>27.8743</ele>
        <time>2011-06-02T12:59:57Z</time>
      </trkpt>
      <trkpt lat="46.36986" lon="-0.37524">
        <ele>27.8419</ele>
        <time>2011-06-02T12:59:58Z</time>
      </trkpt>
      <trkpt lat="46.36987" lon="-0.37525">
        <ele>27.8121</ele>
        <time>2011-06-02T12:59:59Z</time>
      </trkpt>
      <trkpt lat="46.36987" lon="-0.37527">
        <ele>27.784</ele>
        <time>2011-06-02T13:00:00Z</time>
      </trkpt>
      <trkpt lat="46.36988" lon="-0.37528">
        <ele>27.7588</ele>
        <time>2011-06-02T13:00:01Z</time>
      </trkpt>
      <trkpt lat="46.36988" lon="-0.37529">
        <ele>27.7341</ele>
        <time>2011-06-02T13:00:02Z</time>
      </trkpt>
      <trkpt lat="46.36989" lon="-0.37531">
        <ele>27.7099</ele>
        <time>2011-06-02T13:00:03Z</time>
      </trkpt>
      <trkpt lat="46.36989" lon="-0.37532">
        <ele>27.6866</ele>
        <time>2011-06-02T13:00:04Z</time>
      </trkpt>
      <trkpt lat="46.3699" lon="-0.37532">
        <ele>27.6645</ele>
        <time>2011-06-02T13:00:05Z</time>
      </trkpt>
      <trkpt lat="46.3699" lon="-0.37533">
        <ele>27.6426</ele>
        <time>2011-06-02T13:00:06Z</time>
      </trkpt>
      <trkpt lat="46.3699" lon="-0.37535">
        <ele>27.6196</ele>
        <time>2011-06-02T13:00:07Z</time>
      </trkpt>
      <trkpt lat="46.36991" lon="-0.37536">
        <ele>27.5998</ele>
        <time>2011-06-02T13:00:08Z</time>
      </trkpt>
      <trkpt lat="46.36992" lon="-0.37538">
        <ele>27.581</ele>
        <time>2011-06-02T13:00:09Z</time>
      </trkpt>
      <trkpt lat="46.36992" lon="-0.37539">
        <ele>27.5638</ele>
        <time>2011-06-02T13:00:10Z</time>
      </trkpt>
      <trkpt lat="46.36993" lon="-0.3754">
        <ele>27.5458</ele>
        <time>2011-06-02T13:00:11Z</time>
      </trkpt>
      <trkpt lat="46.36993" lon="-0.3754">
        <ele>27.5276</ele>
        <time>2011-06-02T13:00:12Z</time>
      </trkpt>
      <trkpt lat="46.36993" lon="-0.37541">
        <ele>27.5093</ele>
        <time>2011-06-02T13:00:13Z</time>
      </trkpt>
      <trkpt lat="46.36994" lon="-0.37542">
        <ele>27.4943</ele>
        <time>2011-06-02T13:00:14Z</time>
      </trkpt>
      <trkpt lat="46.36995" lon="-0.37543">
        <ele>27.4939</ele>
        <time>2011-06-02T13:00:17Z</time>
      </trkpt>
      <trkpt lat="46.36996" lon="-0.37545">
        <ele>27.4922</ele>
        <time>2011-06-02T13:00:18Z</time>
      </trkpt>
      <trkpt lat="46.36997" lon="-0.37546">
        <ele>27.4935</ele>
        <time>2011-06-02T13:00:19Z</time>
      </trkpt>
      <trkpt lat="46.36997" lon="-0.37548">
        <ele>27.4934</ele>
        <time>2011-06-02T13:00:20Z</time>
      </trkpt>
      <trkpt lat="46.36998" lon="-0.37549">
        <ele>27.4892</ele>
        <time>2011-06-02T13:00:21Z</time>
      </trkpt>
      <trkpt lat="46.36999" lon="-0.37551">
        <ele>27.4821</ele>
        <time>2011-06-02T13:00:22Z</time>
      </trkpt>
      <trkpt lat="46.37" lon="-0.37553">
        <ele>27.4846</ele>
        <time>2011-06-02T13:00:23Z</time>
      </trkpt>
      <trkpt lat="46.37001" lon="-0.37554">
        <ele>27.4835</ele>
        <time>2011-06-02T13:00:24Z</time>
      </trkpt>
      <trkpt lat="46.37002" lon="-0.37555">
        <ele>27.4813</ele>
        <time>2011-06-02T13:00:25Z</time>
      </trkpt>
      <trkpt lat="46.37003" lon="-0.37557">
        <ele>27.4713</ele>
        <time>2011-06-02T13:00:26Z</time>
      </trkpt>
      <trkpt lat="46.37004" lon="-0.37558">
        <ele>27.461</ele>
        <time>2011-06-02T13:00:27Z</time>
      </trkpt>
      <trkpt lat="46.37005" lon="-0.37559">
        <ele>27.4457</ele>
        <time>2011-06-02T13:00:28Z</time>
      </trkpt>
      <trkpt lat="46.37006" lon="-0.3756">
        <ele>27.4361</ele>
        <time>2011-06-02T13:00:29Z</time>
      </trkpt>
      <trkpt lat="46.37007" lon="-0.37562">
        <ele>27.4331</ele>
        <time>2011-06-02T13:00:30Z</time>
      </trkpt>
      <trkpt lat="46.37008" lon="-0.37562">
        <ele>27.4352</ele>
        <time>2011-06-02T13:00:31Z</time>
      </trkpt>
      <trkpt lat="46.37008" lon="-0.37563">
        <ele>27.4346</ele>
        <time>2011-06-02T13:00:32Z</time>
      </trkpt>
      <trkpt lat="46.37009" lon="-0.37564">
        <ele>27.4311</ele>
        <time>2011-06-02T13:00:33Z</time>
      </trkpt>
      <trkpt lat="46.3701" lon="-0.37565">
        <ele>27.4236</ele>
        <time>2011-06-02T13:00:34Z</time>
      </trkpt>
      <trkpt lat="46.37011" lon="-0.37567">
        <ele>27.4142</ele>
        <time>2011-06-02T13:00:35Z</time>
      </trkpt>
      <trkpt lat="46.37013" lon="-0.37567">
        <ele>27.3982</ele>
        <time>2011-06-02T13:00:36Z</time>
      </trkpt>
      <trkpt lat="46.37014" lon="-0.37568">
        <ele>27.3793</ele>
        <time>2011-06-02T13:00:37Z</time>
      </trkpt>
      <trkpt lat="46.37015" lon="-0.3757">
        <ele>27.3572</ele>
        <time>2011-06-02T13:00:38Z</time>
      </trkpt>
      <trkpt lat="46.37016" lon="-0.37571">
        <ele>27.3332</ele>
        <time>2011-06-02T13:00:39Z</time>
      </trkpt>
      <trkpt lat="46.37016" lon="-0.37572">
        <ele>27.3099</ele>
        <time>2011-06-02T13:00:40Z</time>
      </trkpt>
      <trkpt lat="46.37017" lon="-0.37573">
        <ele>27.2892</ele>
        <time>2011-06-02T13:00:41Z</time>
      </trkpt>
      <trkpt lat="46.37018" lon="-0.37574">
        <ele>27.2718</ele>
        <time>2011-06-02T13:00:42Z</time>
      </trkpt>
      <trkpt lat="46.37019" lon="-0.37575">
        <ele>27.2623</ele>
        <time>2011-06-02T13:00:43Z</time>
      </trkpt>
      <trkpt lat="46.3702" lon="-0.37575">
        <ele>27.2527</ele>
        <time>2011-06-02T13:00:44Z</time>
      </trkpt>
      <trkpt lat="46.37021" lon="-0.37576">
        <ele>27.2415</ele>
        <time>2011-06-02T13:00:45Z</time>
      </trkpt>
      <trkpt lat="46.37022" lon="-0.37577">
        <ele>27.2302</ele>
        <time>2011-06-02T13:00:46Z</time>
      </trkpt>
      <trkpt lat="46.37023" lon="-0.37578">
        <ele>27.2198</ele>
        <time>2011-06-02T13:00:47Z</time>
      </trkpt>
      <trkpt lat="46.37024" lon="-0.37578">
        <ele>27.208</ele>
        <time>2011-06-02T13:00:48Z</time>
      </trkpt>
      <trkpt lat="46.37025" lon="-0.37579">
        <ele>27.1958</ele>
        <time>2011-06-02T13:00:49Z</time>
      </trkpt>
      <trkpt lat="46.37026" lon="-0.3758">
        <ele>27.1834</ele>
        <time>2011-06-02T13:00:50Z</time>
      </trkpt>
      <trkpt lat="46.37027" lon="-0.37581">
        <ele>27.1712</ele>
        <time>2011-06-02T13:00:51Z</time>
      </trkpt>
      <trkpt lat="46.37028" lon="-0.37582">
        <ele>27.1574</ele>
        <time>2011-06-02T13:00:52Z</time>
      </trkpt>
      <trkpt lat="46.3703" lon="-0.37582">
        <ele>27.1422</ele>
        <time>2011-06-02T13:00:53Z</time>
      </trkpt>
      <trkpt lat="46.37031" lon="-0.37583">
        <ele>27.1274</ele>
        <time>2011-06-02T13:00:54Z</time>
      </trkpt>
      <trkpt lat="46.37032" lon="-0.37583">
        <ele>27.1136</ele>
        <time>2011-06-02T13:00:55Z</time>
      </trkpt>
      <trkpt lat="46.37034" lon="-0.37583">
        <ele>27.1006</ele>
        <time>2011-06-02T13:00:56Z</time>
      </trkpt>
      <trkpt lat="46.37035" lon="-0.37584">
        <ele>27.0893</ele>
        <time>2011-06-02T13:00:57Z</time>
      </trkpt>
      <trkpt lat="46.37036" lon="-0.37584">
        <ele>27.0832</ele>
        <time>2011-06-02T13:00:58Z</time>
      </trkpt>
      <trkpt lat="46.37037" lon="-0.37585">
        <ele>27.0836</ele>
        <time>2011-06-02T13:00:59Z</time>
      </trkpt>
      <trkpt lat="46.37039" lon="-0.37585">
        <ele>27.0844</ele>
        <time>2011-06-02T13:01:00Z</time>
      </trkpt>
      <trkpt lat="46.3704" lon="-0.37585">
        <ele>27.0863</ele>
        <time>2011-06-02T13:01:01Z</time>
      </trkpt>
      <trkpt lat="46.37041" lon="-0.37586">
        <ele>27.0873</ele>
        <time>2011-06-02T13:01:02Z</time>
      </trkpt>
      <trkpt lat="46.37042" lon="-0.37586">
        <ele>27.0872</ele>
        <time>2011-06-02T13:01:03Z</time>
      </trkpt>
      <trkpt lat="46.37043" lon="-0.37587">
        <ele>27.0851</ele>
        <time>2011-06-02T13:01:04Z</time>
      </trkpt>
      <trkpt lat="46.37045" lon="-0.37587">
        <ele>27.0822</ele>
        <time>2011-06-02T13:01:05Z</time>
      </trkpt>
      <trkpt lat="46.37046" lon="-0.37587">
        <ele>27.0796</ele>
        <time>2011-06-02T13:01:06Z</time>
      </trkpt>
      <trkpt lat="46.37047" lon="-0.37588">
        <ele>27.0748</ele>
        <time>2011-06-02T13:01:07Z</time>
      </trkpt>
      <trkpt lat="46.37048" lon="-0.37588">
        <ele>27.0697</ele>
        <time>2011-06-02T13:01:08Z</time>
      </trkpt>
      <trkpt lat="46.37049" lon="-0.37589">
        <ele>27.0655</ele>
        <time>2011-06-02T13:01:09Z</time>
      </trkpt>
      <trkpt lat="46.3705" lon="-0.37589">
        <ele>27.0644</ele>
        <time>2011-06-02T13:01:10Z</time>
      </trkpt>
      <trkpt lat="46.37051" lon="-0.37589">
        <ele>27.0694</ele>
        <time>2011-06-02T13:01:11Z</time>
      </trkpt>
      <trkpt lat="46.37052" lon="-0.37589">
        <ele>27.0795</ele>
        <time>2011-06-02T13:01:12Z</time>
      </trkpt>
      <trkpt lat="46.37053" lon="-0.37588">
        <ele>27.0927</ele>
        <time>2011-06-02T13:01:13Z</time>
      </trkpt>
      <trkpt lat="46.37054" lon="-0.37588">
        <ele>27.1088</ele>
        <time>2011-06-02T13:01:14Z</time>
      </trkpt>
      <trkpt lat="46.37055" lon="-0.37587">
        <ele>27.1233</ele>
        <time>2011-06-02T13:01:15Z</time>
      </trkpt>
      <trkpt lat="46.37056" lon="-0.37586">
        <ele>27.1371</ele>
        <time>2011-06-02T13:01:16Z</time>
      </trkpt>
      <trkpt lat="46.37057" lon="-0.37585">
        <ele>27.1499</ele>
        <time>2011-06-02T13:01:17Z</time>
      </trkpt>
      <trkpt lat="46.37057" lon="-0.37584">
        <ele>27.1629</ele>
        <time>2011-06-02T13:01:18Z</time>
      </trkpt>
      <trkpt lat="46.37061" lon="-0.37582">
        <ele>27.2412</ele>
        <time>2011-06-02T13:01:41Z</time>
      </trkpt>
      <trkpt lat="46.37056" lon="-0.37581">
        <ele>27.9021</ele>
        <time>2011-06-02T13:02:56Z</time>
      </trkpt>
      <trkpt lat="46.37052" lon="-0.37582">
        <ele>27.9116</ele>
        <time>2011-06-02T13:03:03Z</time>
      </trkpt>
      <trkpt lat="46.37052" lon="-0.37576">
        <ele>28.862</ele>
        <time>2011-06-02T13:03:56Z</time>
      </trkpt>
      <trkpt lat="46.37056" lon="-0.37571">
        <ele>28.9409</ele>
        <time>2011-06-02T13:04:47Z</time>
      </trkpt>
      <trkpt lat="46.37059" lon="-0.37566">
        <ele>29.082</ele>
        <time>2011-06-02T13:05:01Z</time>
      </trkpt>
      <trkpt lat="46.37063" lon="-0.3759">
        <ele>29.2656</ele>
        <time>2011-06-02T13:07:12Z</time>
      </trkpt>
      <trkpt lat="46.37053" lon="-0.37583">
        <ele>29.4834</ele>
        <time>2011-06-02T13:07:15Z</time>
      </trkpt>
      <trkpt lat="46.37056" lon="-0.37585">
        <ele>29.5631</ele>
        <time>2011-06-02T13:07:16Z</time>
      </trkpt>
      <trkpt lat="46.37058" lon="-0.37587">
        <ele>29.656</ele>
        <time>2011-06-02T13:07:17Z</time>
      </trkpt>
      <trkpt lat="46.37059" lon="-0.37588">
        <ele>29.7521</ele>
        <time>2011-06-02T13:07:18Z</time>
      </trkpt>
      <trkpt lat="46.37061" lon="-0.37588">
        <ele>29.7952</ele>
        <time>2011-06-02T13:07:19Z</time>
      </trkpt>
      <trkpt lat="46.37062" lon="-0.37589">
        <ele>29.8537</ele>
        <time>2011-06-02T13:07:20Z</time>
      </trkpt>
      <trkpt lat="46.37063" lon="-0.37589">
        <ele>29.8798</ele>
        <time>2011-06-02T13:07:21Z</time>
      </trkpt>
      <trkpt lat="46.37063" lon="-0.3759">
        <ele>29.893</ele>
        <time>2011-06-02T13:07:22Z</time>
      </trkpt>
      <trkpt lat="46.37064" lon="-0.3759">
        <ele>29.9161</ele>
        <time>2011-06-02T13:07:23Z</time>
      </trkpt>
      <trkpt lat="46.37065" lon="-0.37589">
        <ele>29.8467</ele>
        <time>2011-06-02T13:07:24Z</time>
      </trkpt>
      <trkpt lat="46.37066" lon="-0.37588">
        <ele>29.7864</ele>
        <time>2011-06-02T13:07:25Z</time>
      </trkpt>
      <trkpt lat="46.37067" lon="-0.37587">
        <ele>29.7453</ele>
        <time>2011-06-02T13:07:26Z</time>
      </trkpt>
      <trkpt lat="46.37068" lon="-0.37586">
        <ele>29.7247</ele>
        <time>2011-06-02T13:07:27Z</time>
      </trkpt>
      <trkpt lat="46.37069" lon="-0.37585">
        <ele>29.7388</ele>
        <time>2011-06-02T13:07:28Z</time>
      </trkpt>
      <trkpt lat="46.37071" lon="-0.37584">
        <ele>29.7768</ele>
        <time>2011-06-02T13:07:29Z</time>
      </trkpt>
      <trkpt lat="46.37072" lon="-0.37583">
        <ele>29.8266</ele>
        <time>2011-06-02T13:07:30Z</time>
      </trkpt>
      <trkpt lat="46.37074" lon="-0.37582">
        <ele>29.884</ele>
        <time>2011-06-02T13:07:31Z</time>
      </trkpt>
      <trkpt lat="46.37075" lon="-0.37581">
        <ele>29.9391</ele>
        <time>2011-06-02T13:07:32Z</time>
      </trkpt>
      <trkpt lat="46.37076" lon="-0.3758">
        <ele>29.9992</ele>
        <time>2011-06-02T13:07:33Z</time>
      </trkpt>
      <trkpt lat="46.37078" lon="-0.37579">
        <ele>30.0615</ele>
        <time>2011-06-02T13:07:34Z</time>
      </trkpt>
      <trkpt lat="46.37079" lon="-0.37579">
        <ele>30.1163</ele>
        <time>2011-06-02T13:07:35Z</time>
      </trkpt>
      <trkpt lat="46.3708" lon="-0.37579">
        <ele>30.2016</ele>
        <time>2011-06-02T13:07:36Z</time>
      </trkpt>
      <trkpt lat="46.37081" lon="-0.37579">
        <ele>30.2805</ele>
        <time>2011-06-02T13:07:37Z</time>
      </trkpt>
      <trkpt lat="46.37082" lon="-0.3758">
        <ele>30.353</ele>
        <time>2011-06-02T13:07:38Z</time>
      </trkpt>
      <trkpt lat="46.37083" lon="-0.37581">
        <ele>30.4207</ele>
        <time>2011-06-02T13:07:39Z</time>
      </trkpt>
      <trkpt lat="46.37083" lon="-0.37582">
        <ele>30.4819</ele>
        <time>2011-06-02T13:07:40Z</time>
      </trkpt>
      <trkpt lat="46.37084" lon="-0.37582">
        <ele>30.5388</ele>
        <time>2011-06-02T13:07:41Z</time>
      </trkpt>
      <trkpt lat="46.37085" lon="-0.37582">
        <ele>30.5919</ele>
        <time>2011-06-02T13:07:42Z</time>
      </trkpt>
      <trkpt lat="46.37086" lon="-0.37583">
        <ele>30.6506</ele>
        <time>2011-06-02T13:07:43Z</time>
      </trkpt>
      <trkpt lat="46.37087" lon="-0.37584">
        <ele>30.7114</ele>
        <time>2011-06-02T13:07:44Z</time>
      </trkpt>
      <trkpt lat="46.37088" lon="-0.37585">
        <ele>30.7593</ele>
        <time>2011-06-02T13:07:45Z</time>
      </trkpt>
      <trkpt lat="46.37088" lon="-0.37585">
        <ele>30.8036</ele>
        <time>2011-06-02T13:07:46Z</time>
      </trkpt>
      <trkpt lat="46.3709" lon="-0.37586">
        <ele>30.8438</ele>
        <time>2011-06-02T13:07:47Z</time>
      </trkpt>
      <trkpt lat="46.3709" lon="-0.37587">
        <ele>30.8814</ele>
        <time>2011-06-02T13:07:48Z</time>
      </trkpt>
      <trkpt lat="46.37091" lon="-0.37588">
        <ele>30.9104</ele>
        <time>2011-06-02T13:07:49Z</time>
      </trkpt>
      <trkpt lat="46.37092" lon="-0.37589">
        <ele>30.9315</ele>
        <time>2011-06-02T13:07:50Z</time>
      </trkpt>
      <trkpt lat="46.37093" lon="-0.3759">
        <ele>30.9349</ele>
        <time>2011-06-02T13:07:51Z</time>
      </trkpt>
      <trkpt lat="46.37093" lon="-0.37591">
        <ele>30.9316</ele>
        <time>2011-06-02T13:07:52Z</time>
      </trkpt>
      <trkpt lat="46.37094" lon="-0.37591">
        <ele>30.9274</ele>
        <time>2011-06-02T13:07:53Z</time>
      </trkpt>
      <trkpt lat="46.37095" lon="-0.37592">
        <ele>30.9355</ele>
        <time>2011-06-02T13:07:54Z</time>
      </trkpt>
      <trkpt lat="46.37095" lon="-0.37594">
        <ele>30.9568</ele>
        <time>2011-06-02T13:07:56Z</time>
      </trkpt>
      <trkpt lat="46.37095" lon="-0.37596">
        <ele>30.9777</ele>
        <time>2011-06-02T13:07:57Z</time>
      </trkpt>
      <trkpt lat="46.37095" lon="-0.37597">
        <ele>30.9967</ele>
        <time>2011-06-02T13:07:58Z</time>
      </trkpt>
      <trkpt lat="46.37095" lon="-0.37598">
        <ele>31.0092</ele>
        <time>2011-06-02T13:07:59Z</time>
      </trkpt>
      <trkpt lat="46.37096" lon="-0.37599">
        <ele>31.0229</ele>
        <time>2011-06-02T13:08:00Z</time>
      </trkpt>
      <trkpt lat="46.37096" lon="-0.376">
        <ele>31.0357</ele>
        <time>2011-06-02T13:08:01Z</time>
      </trkpt>
      <trkpt lat="46.37097" lon="-0.37601">
        <ele>31.0555</ele>
        <time>2011-06-02T13:08:02Z</time>
      </trkpt>
      <trkpt lat="46.37097" lon="-0.37602">
        <ele>31.0776</ele>
        <time>2011-06-02T13:08:03Z</time>
      </trkpt>
      <trkpt lat="46.37098" lon="-0.37604">
        <ele>31.1073</ele>
        <time>2011-06-02T13:08:04Z</time>
      </trkpt>
      <trkpt lat="46.37099" lon="-0.37605">
        <ele>31.136</ele>
        <time>2011-06-02T13:08:05Z</time>
      </trkpt>
      <trkpt lat="46.37099" lon="-0.37606">
        <ele>31.1643</ele>
        <time>2011-06-02T13:08:06Z</time>
      </trkpt>
      <trkpt lat="46.371" lon="-0.37607">
        <ele>31.1922</ele>
        <time>2011-06-02T13:08:07Z</time>
      </trkpt>
      <trkpt lat="46.37101" lon="-0.37608">
        <ele>31.2236</ele>
        <time>2011-06-02T13:08:08Z</time>
      </trkpt>
      <trkpt lat="46.37102" lon="-0.37608">
        <ele>31.255</ele>
        <time>2011-06-02T13:08:09Z</time>
      </trkpt>
      <trkpt lat="46.37103" lon="-0.37609">
        <ele>31.2965</ele>
        <time>2011-06-02T13:08:10Z</time>
      </trkpt>
      <trkpt lat="46.37103" lon="-0.37609">
        <ele>31.3438</ele>
        <time>2011-06-02T13:08:11Z</time>
      </trkpt>
      <trkpt lat="46.37103" lon="-0.3761">
        <ele>31.3989</ele>
        <time>2011-06-02T13:08:12Z</time>
      </trkpt>
      <trkpt lat="46.37104" lon="-0.37611">
        <ele>31.4559</ele>
        <time>2011-06-02T13:08:13Z</time>
      </trkpt>
      <trkpt lat="46.37105" lon="-0.37612">
        <ele>31.5123</ele>
        <time>2011-06-02T13:08:14Z</time>
      </trkpt>
      <trkpt lat="46.37106" lon="-0.37613">
        <ele>31.5757</ele>
        <time>2011-06-02T13:08:15Z</time>
      </trkpt>
      <trkpt lat="46.37107" lon="-0.37614">
        <ele>31.6412</ele>
        <time>2011-06-02T13:08:16Z</time>
      </trkpt>
      <trkpt lat="46.37107" lon="-0.37615">
        <ele>31.7139</ele>
        <time>2011-06-02T13:08:17Z</time>
      </trkpt>
      <trkpt lat="46.37108" lon="-0.37617">
        <ele>31.7849</ele>
        <time>2011-06-02T13:08:18Z</time>
      </trkpt>
      <trkpt lat="46.37108" lon="-0.37618">
        <ele>31.853</ele>
        <time>2011-06-02T13:08:19Z</time>
      </trkpt>
      <trkpt lat="46.37108" lon="-0.37619">
        <ele>31.9203</ele>
        <time>2011-06-02T13:08:20Z</time>
      </trkpt>
      <trkpt lat="46.37109" lon="-0.3762">
        <ele>31.9861</ele>
        <time>2011-06-02T13:08:21Z</time>
      </trkpt>
      <trkpt lat="46.37109" lon="-0.37621">
        <ele>32.0499</ele>
        <time>2011-06-02T13:08:22Z</time>
      </trkpt>
      <trkpt lat="46.37109" lon="-0.37622">
        <ele>32.1141</ele>
        <time>2011-06-02T13:08:23Z</time>
      </trkpt>
      <trkpt lat="46.37109" lon="-0.37623">
        <ele>32.1807</ele>
        <time>2011-06-02T13:08:24Z</time>
      </trkpt>
      <trkpt lat="46.3711" lon="-0.37626">
        <ele>32.3053</ele>
        <time>2011-06-02T13:08:28Z</time>
      </trkpt>
      <trkpt lat="46.3711" lon="-0.37627">
        <ele>32.3504</ele>
        <time>2011-06-02T13:08:29Z</time>
      </trkpt>
      <trkpt lat="46.37111" lon="-0.37628">
        <ele>32.3965</ele>
        <time>2011-06-02T13:08:30Z</time>
      </trkpt>
      <trkpt lat="46.37111" lon="-0.37629">
        <ele>32.4403</ele>
        <time>2011-06-02T13:08:31Z</time>
      </trkpt>
      <trkpt lat="46.37111" lon="-0.3763">
        <ele>32.4892</ele>
        <time>2011-06-02T13:08:32Z</time>
      </trkpt>
      <trkpt lat="46.37112" lon="-0.37631">
        <ele>32.5395</ele>
        <time>2011-06-02T13:08:33Z</time>
      </trkpt>
      <trkpt lat="46.37112" lon="-0.37631">
        <ele>32.5853</ele>
        <time>2011-06-02T13:08:34Z</time>
      </trkpt>
      <trkpt lat="46.37114" lon="-0.3763">
        <ele>32.6615</ele>
        <time>2011-06-02T13:08:35Z</time>
      </trkpt>
      <trkpt lat="46.37118" lon="-0.37624">
        <ele>32.6864</ele>
        <time>2011-06-02T13:08:38Z</time>
      </trkpt>
      <trkpt lat="46.3712" lon="-0.37622">
        <ele>32.7435</ele>
        <time>2011-06-02T13:08:40Z</time>
      </trkpt>
      <trkpt lat="46.37121" lon="-0.37622">
        <ele>32.7934</ele>
        <time>2011-06-02T13:08:41Z</time>
      </trkpt>
      <trkpt lat="46.37122" lon="-0.37623">
        <ele>32.8323</ele>
        <time>2011-06-02T13:08:42Z</time>
      </trkpt>
      <trkpt lat="46.37123" lon="-0.37623">
        <ele>32.8653</ele>
        <time>2011-06-02T13:08:43Z</time>
      </trkpt>
      <trkpt lat="46.37124" lon="-0.37623">
        <ele>32.9075</ele>
        <time>2011-06-02T13:08:44Z</time>
      </trkpt>
      <trkpt lat="46.37127" lon="-0.37628">
        <ele>33.0214</ele>
        <time>2011-06-02T13:08:51Z</time>
      </trkpt>
      <trkpt lat="46.37127" lon="-0.3763">
        <ele>33.0527</ele>
        <time>2011-06-02T13:08:52Z</time>
      </trkpt>
      <trkpt lat="46.37128" lon="-0.37631">
        <ele>33.0863</ele>
        <time>2011-06-02T13:08:53Z</time>
      </trkpt>
      <trkpt lat="46.37128" lon="-0.37632">
        <ele>33.1201</ele>
        <time>2011-06-02T13:08:54Z</time>
      </trkpt>
      <trkpt lat="46.37128" lon="-0.37633">
        <ele>33.1525</ele>
        <time>2011-06-02T13:08:55Z</time>
      </trkpt>
      <trkpt lat="46.37128" lon="-0.37634">
        <ele>33.1852</ele>
        <time>2011-06-02T13:08:56Z</time>
      </trkpt>
      <trkpt lat="46.37129" lon="-0.37634">
        <ele>33.2187</ele>
        <time>2011-06-02T13:08:57Z</time>
      </trkpt>
      <trkpt lat="46.37129" lon="-0.37636">
        <ele>33.2594</ele>
        <time>2011-06-02T13:08:58Z</time>
      </trkpt>
      <trkpt lat="46.3713" lon="-0.37637">
        <ele>33.311</ele>
        <time>2011-06-02T13:08:59Z</time>
      </trkpt>
      <trkpt lat="46.3713" lon="-0.37638">
        <ele>33.3623</ele>
        <time>2011-06-02T13:09:00Z</time>
      </trkpt>
      <trkpt lat="46.37131" lon="-0.3764">
        <ele>33.4212</ele>
        <time>2011-06-02T13:09:01Z</time>
      </trkpt>
      <trkpt lat="46.37132" lon="-0.3764">
        <ele>33.4867</ele>
        <time>2011-06-02T13:09:02Z</time>
      </trkpt>
      <trkpt lat="46.37132" lon="-0.37642">
        <ele>33.5479</ele>
        <time>2011-06-02T13:09:03Z</time>
      </trkpt>
      <trkpt lat="46.37132" lon="-0.37643">
        <ele>33.6073</ele>
        <time>2011-06-02T13:09:04Z</time>
      </trkpt>
      <trkpt lat="46.37132" lon="-0.37645">
        <ele>33.6643</ele>
        <time>2011-06-02T13:09:05Z</time>
      </trkpt>
      <trkpt lat="46.37132" lon="-0.37647">
        <ele>33.7145</ele>
        <time>2011-06-02T13:09:06Z</time>
      </trkpt>
      <trkpt lat="46.37131" lon="-0.37648">
        <ele>33.7632</ele>
        <time>2011-06-02T13:09:07Z</time>
      </trkpt>
      <trkpt lat="46.37131" lon="-0.3765">
        <ele>33.8133</ele>
        <time>2011-06-02T13:09:08Z</time>
      </trkpt>
      <trkpt lat="46.37131" lon="-0.37651">
        <ele>33.869</ele>
        <time>2011-06-02T13:09:09Z</time>
      </trkpt>
      <trkpt lat="46.37131" lon="-0.37653">
        <ele>33.936</ele>
        <time>2011-06-02T13:09:10Z</time>
      </trkpt>
      <trkpt lat="46.37131" lon="-0.37654">
        <ele>34.0134</ele>
        <time>2011-06-02T13:09:11Z</time>
      </trkpt>
      <trkpt lat="46.37132" lon="-0.37655">
        <ele>34.0849</ele>
        <time>2011-06-02T13:09:12Z</time>
      </trkpt>
      <trkpt lat="46.37132" lon="-0.37656">
        <ele>34.1537</ele>
        <time>2011-06-02T13:09:13Z</time>
      </trkpt>
      <trkpt lat="46.37132" lon="-0.37656">
        <ele>34.2241</ele>
        <time>2011-06-02T13:09:14Z</time>
      </trkpt>
      <trkpt lat="46.37133" lon="-0.37657">
        <ele>34.2905</ele>
        <time>2011-06-02T13:09:15Z</time>
      </trkpt>
      <trkpt lat="46.37133" lon="-0.37657">
        <ele>34.3639</ele>
        <time>2011-06-02T13:09:16Z</time>
      </trkpt>
      <trkpt lat="46.37134" lon="-0.37658">
        <ele>34.4361</ele>
        <time>2011-06-02T13:09:17Z</time>
      </trkpt>
      <trkpt lat="46.37135" lon="-0.37658">
        <ele>34.5147</ele>
        <time>2011-06-02T13:09:18Z</time>
      </trkpt>
      <trkpt lat="46.37136" lon="-0.37657">
        <ele>34.6114</ele>
        <time>2011-06-02T13:09:19Z</time>
      </trkpt>
      <trkpt lat="46.37138" lon="-0.37656">
        <ele>34.7258</ele>
        <time>2011-06-02T13:09:20Z</time>
      </trkpt>
      <trkpt lat="46.37139" lon="-0.37655">
        <ele>34.8425</ele>
        <time>2011-06-02T13:09:21Z</time>
      </trkpt>
      <trkpt lat="46.3714" lon="-0.37655">
        <ele>34.9603</ele>
        <time>2011-06-02T13:09:22Z</time>
      </trkpt>
      <trkpt lat="46.37142" lon="-0.37655">
        <ele>35.0796</ele>
        <time>2011-06-02T13:09:23Z</time>
      </trkpt>
      <trkpt lat="46.37143" lon="-0.37655">
        <ele>35.1872</ele>
        <time>2011-06-02T13:09:24Z</time>
      </trkpt>
      <trkpt lat="46.37144" lon="-0.37655">
        <ele>35.2867</ele>
        <time>2011-06-02T13:09:25Z</time>
      </trkpt>
      <trkpt lat="46.37145" lon="-0.37655">
        <ele>35.3807</ele>
        <time>2011-06-02T13:09:26Z</time>
      </trkpt>
      <trkpt lat="46.37146" lon="-0.37655">
        <ele>35.4671</ele>
        <time>2011-06-02T13:09:27Z</time>
      </trkpt>
      <trkpt lat="46.37148" lon="-0.37655">
        <ele>35.5568</ele>
        <time>2011-06-02T13:09:28Z</time>
      </trkpt>
      <trkpt lat="46.37149" lon="-0.37655">
        <ele>35.648</ele>
        <time>2011-06-02T13:09:29Z</time>
      </trkpt>
      <trkpt lat="46.37149" lon="-0.37655">
        <ele>35.7364</ele>
        <time>2011-06-02T13:09:30Z</time>
      </trkpt>
      <trkpt lat="46.37152" lon="-0.37654">
        <ele>35.9161</ele>
        <time>2011-06-02T13:09:33Z</time>
      </trkpt>
      <trkpt lat="46.37154" lon="-0.37654">
        <ele>35.9965</ele>
        <time>2011-06-02T13:09:34Z</time>
      </trkpt>
      <trkpt lat="46.37155" lon="-0.37653">
        <ele>36.0748</ele>
        <time>2011-06-02T13:09:35Z</time>
      </trkpt>
      <trkpt lat="46.37156" lon="-0.37653">
        <ele>36.1503</ele>
        <time>2011-06-02T13:09:36Z</time>
      </trkpt>
      <trkpt lat="46.37157" lon="-0.37652">
        <ele>36.224</ele>
        <time>2011-06-02T13:09:37Z</time>
      </trkpt>
      <trkpt lat="46.37158" lon="-0.37652">
        <ele>36.2981</ele>
        <time>2011-06-02T13:09:38Z</time>
      </trkpt>
      <trkpt lat="46.37159" lon="-0.37651">
        <ele>36.3736</ele>
        <time>2011-06-02T13:09:39Z</time>
      </trkpt>
      <trkpt lat="46.3716" lon="-0.3765">
        <ele>36.4549</ele>
        <time>2011-06-02T13:09:40Z</time>
      </trkpt>
      <trkpt lat="46.37161" lon="-0.37649">
        <ele>36.5361</ele>
        <time>2011-06-02T13:09:41Z</time>
      </trkpt>
      <trkpt lat="46.37162" lon="-0.37649">
        <ele>36.6205</ele>
        <time>2011-06-02T13:09:42Z</time>
      </trkpt>
      <trkpt lat="46.37163" lon="-0.37649">
        <ele>36.6991</ele>
        <time>2011-06-02T13:09:43Z</time>
      </trkpt>
      <trkpt lat="46.37164" lon="-0.3765">
        <ele>36.7708</ele>
        <time>2011-06-02T13:09:46Z</time>
      </trkpt>
      <trkpt lat="46.37166" lon="-0.37651">
        <ele>36.8196</ele>
        <time>2011-06-02T13:09:47Z</time>
      </trkpt>
      <trkpt lat="46.37167" lon="-0.37651">
        <ele>36.8571</ele>
        <time>2011-06-02T13:09:48Z</time>
      </trkpt>
      <trkpt lat="46.37167" lon="-0.3765">
        <ele>36.8903</ele>
        <time>2011-06-02T13:09:49Z</time>
      </trkpt>
      <trkpt lat="46.37169" lon="-0.37651">
        <ele>36.9222</ele>
        <time>2011-06-02T13:09:50Z</time>
      </trkpt>
      <trkpt lat="46.3717" lon="-0.37651">
        <ele>36.9531</ele>
        <time>2011-06-02T13:09:51Z</time>
      </trkpt>
      <trkpt lat="46.37171" lon="-0.37651">
        <ele>36.9816</ele>
        <time>2011-06-02T13:09:52Z</time>
      </trkpt>
      <trkpt lat="46.37172" lon="-0.37651">
        <ele>37.0093</ele>
        <time>2011-06-02T13:09:53Z</time>
      </trkpt>
      <trkpt lat="46.37172" lon="-0.37652">
        <ele>37.0339</ele>
        <time>2011-06-02T13:09:54Z</time>
      </trkpt>
      <trkpt lat="46.37174" lon="-0.37652">
        <ele>37.0618</ele>
        <time>2011-06-02T13:09:55Z</time>
      </trkpt>
      <trkpt lat="46.37175" lon="-0.37653">
        <ele>37.0754</ele>
        <time>2011-06-02T13:09:56Z</time>
      </trkpt>
      <trkpt lat="46.37176" lon="-0.37653">
        <ele>37.0788</ele>
        <time>2011-06-02T13:09:57Z</time>
      </trkpt>
      <trkpt lat="46.37177" lon="-0.37653">
        <ele>37.0692</ele>
        <time>2011-06-02T13:09:58Z</time>
      </trkpt>
      <trkpt lat="46.37178" lon="-0.37654">
        <ele>37.0545</ele>
        <time>2011-06-02T13:09:59Z</time>
      </trkpt>
      <trkpt lat="46.37179" lon="-0.37654">
        <ele>37.0228</ele>
        <time>2011-06-02T13:10:00Z</time>
      </trkpt>
      <trkpt lat="46.37181" lon="-0.37655">
        <ele>36.9872</ele>
        <time>2011-06-02T13:10:01Z</time>
      </trkpt>
      <trkpt lat="46.37182" lon="-0.37656">
        <ele>36.9561</ele>
        <time>2011-06-02T13:10:02Z</time>
      </trkpt>
      <trkpt lat="46.37184" lon="-0.37656">
        <ele>36.8629</ele>
        <time>2011-06-02T13:10:05Z</time>
      </trkpt>
      <trkpt lat="46.37185" lon="-0.37656">
        <ele>36.7737</ele>
        <time>2011-06-02T13:10:09Z</time>
      </trkpt>
      <trkpt lat="46.37186" lon="-0.37656">
        <ele>36.7281</ele>
        <time>2011-06-02T13:10:10Z</time>
      </trkpt>
      <trkpt lat="46.37187" lon="-0.37656">
        <ele>36.6809</ele>
        <time>2011-06-02T13:10:11Z</time>
      </trkpt>
      <trkpt lat="46.37188" lon="-0.37655">
        <ele>36.6453</ele>
        <time>2011-06-02T13:10:12Z</time>
      </trkpt>
      <trkpt lat="46.37189" lon="-0.37655">
        <ele>36.6103</ele>
        <time>2011-06-02T13:10:13Z</time>
      </trkpt>
      <trkpt lat="46.3719" lon="-0.37654">
        <ele>36.5746</ele>
        <time>2011-06-02T13:10:14Z</time>
      </trkpt>
      <trkpt lat="46.37191" lon="-0.37654">
        <ele>36.5374</ele>
        <time>2011-06-02T13:10:15Z</time>
      </trkpt>
      <trkpt lat="46.37193" lon="-0.37653">
        <ele>36.5134</ele>
        <time>2011-06-02T13:10:16Z</time>
      </trkpt>
      <trkpt lat="46.37194" lon="-0.37652">
        <ele>36.495</ele>
        <time>2011-06-02T13:10:17Z</time>
      </trkpt>
      <trkpt lat="46.37196" lon="-0.37651">
        <ele>36.4681</ele>
        <time>2011-06-02T13:10:18Z</time>
      </trkpt>
      <trkpt lat="46.37197" lon="-0.3765">
        <ele>36.4402</ele>
        <time>2011-06-02T13:10:19Z</time>
      </trkpt>
      <trkpt lat="46.37198" lon="-0.37649">
        <ele>36.4128</ele>
        <time>2011-06-02T13:10:20Z</time>
      </trkpt>
      <trkpt lat="46.37199" lon="-0.37649">
        <ele>36.3872</ele>
        <time>2011-06-02T13:10:21Z</time>
      </trkpt>
      <trkpt lat="46.372" lon="-0.37649">
        <ele>36.3653</ele>
        <time>2011-06-02T13:10:22Z</time>
      </trkpt>
      <trkpt lat="46.37202" lon="-0.37648">
        <ele>36.341</ele>
        <time>2011-06-02T13:10:24Z</time>
      </trkpt>
      <trkpt lat="46.37203" lon="-0.37647">
        <ele>36.3323</ele>
        <time>2011-06-02T13:10:25Z</time>
      </trkpt>
      <trkpt lat="46.37204" lon="-0.37646">
        <ele>36.3171</ele>
        <time>2011-06-02T13:10:26Z</time>
      </trkpt>
      <trkpt lat="46.37206" lon="-0.37644">
        <ele>36.2998</ele>
        <time>2011-06-02T13:10:27Z</time>
      </trkpt>
      <trkpt lat="46.37208" lon="-0.37642">
        <ele>36.2866</ele>
        <time>2011-06-02T13:10:28Z</time>
      </trkpt>
      <trkpt lat="46.37212" lon="-0.3764">
        <ele>36.2716</ele>
        <time>2011-06-02T13:10:30Z</time>
      </trkpt>
      <trkpt lat="46.37214" lon="-0.37639">
        <ele>36.2714</ele>
        <time>2011-06-02T13:10:31Z</time>
      </trkpt>
      <trkpt lat="46.37216" lon="-0.37638">
        <ele>36.2745</ele>
        <time>2011-06-02T13:10:32Z</time>
      </trkpt>
      <trkpt lat="46.37217" lon="-0.37638">
        <ele>36.2813</ele>
        <time>2011-06-02T13:10:33Z</time>
      </trkpt>
      <trkpt lat="46.37219" lon="-0.37637">
        <ele>36.2917</ele>
        <time>2011-06-02T13:10:34Z</time>
      </trkpt>
      <trkpt lat="46.3722" lon="-0.37637">
        <ele>36.3064</ele>
        <time>2011-06-02T13:10:35Z</time>
      </trkpt>
      <trkpt lat="46.37222" lon="-0.37638">
        <ele>36.3271</ele>
        <time>2011-06-02T13:10:36Z</time>
      </trkpt>
      <trkpt lat="46.37223" lon="-0.37638">
        <ele>36.3469</ele>
        <time>2011-06-02T13:10:37Z</time>
      </trkpt>
      <trkpt lat="46.37224" lon="-0.37639">
        <ele>36.3667</ele>
        <time>2011-06-02T13:10:38Z</time>
      </trkpt>
      <trkpt lat="46.37225" lon="-0.3764">
        <ele>36.3882</ele>
        <time>2011-06-02T13:10:39Z</time>
      </trkpt>
      <trkpt lat="46.37227" lon="-0.37642">
        <ele>36.407</ele>
        <time>2011-06-02T13:10:40Z</time>
      </trkpt>
      <trkpt lat="46.37228" lon="-0.37643">
        <ele>36.4166</ele>
        <time>2011-06-02T13:10:41Z</time>
      </trkpt>
      <trkpt lat="46.37229" lon="-0.37644">
        <ele>36.4143</ele>
        <time>2011-06-02T13:10:42Z</time>
      </trkpt>
      <trkpt lat="46.3723" lon="-0.37645">
        <ele>36.4046</ele>
        <time>2011-06-02T13:10:43Z</time>
      </trkpt>
      <trkpt lat="46.37233" lon="-0.3765">
        <ele>36.3694</ele>
        <time>2011-06-02T13:10:50Z</time>
      </trkpt>
      <trkpt lat="46.37234" lon="-0.37651">
        <ele>36.352</ele>
        <time>2011-06-02T13:10:51Z</time>
      </trkpt>
      <trkpt lat="46.37238" lon="-0.37654">
        <ele>36.0473</ele>
        <time>2011-06-02T13:11:00Z</time>
      </trkpt>
      <trkpt lat="46.37242" lon="-0.37653">
        <ele>36.0243</ele>
        <time>2011-06-02T13:11:17Z</time>
      </trkpt>
      <trkpt lat="46.37242" lon="-0.37659">
        <ele>35.7241</ele>
        <time>2011-06-02T13:11:56Z</time>
      </trkpt>
      <trkpt lat="46.37243" lon="-0.37661">
        <ele>35.4416</ele>
        <time>2011-06-02T13:12:02Z</time>
      </trkpt>
      <trkpt lat="46.37243" lon="-0.37661">
        <ele>35.3369</ele>
        <time>2011-06-02T13:12:03Z</time>
      </trkpt>
      <trkpt lat="46.37243" lon="-0.37661">
        <ele>35.2393</ele>
        <time>2011-06-02T13:12:04Z</time>
      </trkpt>
      <trkpt lat="46.37244" lon="-0.37662">
        <ele>35.153</ele>
        <time>2011-06-02T13:12:05Z</time>
      </trkpt>
      <trkpt lat="46.37244" lon="-0.37662">
        <ele>35.07</ele>
        <time>2011-06-02T13:12:06Z</time>
      </trkpt>
      <trkpt lat="46.37244" lon="-0.37663">
        <ele>34.9935</ele>
        <time>2011-06-02T13:12:07Z</time>
      </trkpt>
      <trkpt lat="46.37245" lon="-0.37663">
        <ele>34.9365</ele>
        <time>2011-06-02T13:12:08Z</time>
      </trkpt>
      <trkpt lat="46.37245" lon="-0.37664">
        <ele>34.8914</ele>
        <time>2011-06-02T13:12:09Z</time>
      </trkpt>
      <trkpt lat="46.37245" lon="-0.37665">
        <ele>34.8498</ele>
        <time>2011-06-02T13:12:10Z</time>
      </trkpt>
      <trkpt lat="46.37246" lon="-0.37665">
        <ele>34.8098</ele>
        <time>2011-06-02T13:12:11Z</time>
      </trkpt>
      <trkpt lat="46.37246" lon="-0.37666">
        <ele>34.7688</ele>
        <time>2011-06-02T13:12:12Z</time>
      </trkpt>
      <trkpt lat="46.37247" lon="-0.37666">
        <ele>34.6374</ele>
        <time>2011-06-02T13:12:21Z</time>
      </trkpt>
      <trkpt lat="46.37248" lon="-0.37666">
        <ele>34.6265</ele>
        <time>2011-06-02T13:12:22Z</time>
      </trkpt>
      <trkpt lat="46.37248" lon="-0.37665">
        <ele>34.669</ele>
        <time>2011-06-02T13:12:25Z</time>
      </trkpt>
      <trkpt lat="46.37249" lon="-0.37665">
        <ele>34.7119</ele>
        <time>2011-06-02T13:12:26Z</time>
      </trkpt>
      <trkpt lat="46.3725" lon="-0.37665">
        <ele>34.7536</ele>
        <time>2011-06-02T13:12:27Z</time>
      </trkpt>
      <trkpt lat="46.37251" lon="-0.37666">
        <ele>34.7957</ele>
        <time>2011-06-02T13:12:28Z</time>
      </trkpt>
      <trkpt lat="46.37252" lon="-0.37666">
        <ele>34.8418</ele>
        <time>2011-06-02T13:12:29Z</time>
      </trkpt>
      <trkpt lat="46.37252" lon="-0.37666">
        <ele>34.8924</ele>
        <time>2011-06-02T13:12:30Z</time>
      </trkpt>
      <trkpt lat="46.37253" lon="-0.37667">
        <ele>34.9429</ele>
        <time>2011-06-02T13:12:31Z</time>
      </trkpt>
      <trkpt lat="46.37254" lon="-0.37667">
        <ele>34.9939</ele>
        <time>2011-06-02T13:12:32Z</time>
      </trkpt>
      <trkpt lat="46.37255" lon="-0.37668">
        <ele>35.1152</ele>
        <time>2011-06-02T13:12:36Z</time>
      </trkpt>
      <trkpt lat="46.37256" lon="-0.37668">
        <ele>35.2128</ele>
        <time>2011-06-02T13:12:37Z</time>
      </trkpt>
      <trkpt lat="46.37257" lon="-0.37668">
        <ele>35.3097</ele>
        <time>2011-06-02T13:12:38Z</time>
      </trkpt>
      <trkpt lat="46.37259" lon="-0.37668">
        <ele>35.5922</ele>
        <time>2011-06-02T13:12:43Z</time>
      </trkpt>
      <trkpt lat="46.3726" lon="-0.37668">
        <ele>35.6819</ele>
        <time>2011-06-02T13:12:44Z</time>
      </trkpt>
      <trkpt lat="46.37261" lon="-0.37668">
        <ele>35.7699</ele>
        <time>2011-06-02T13:12:45Z</time>
      </trkpt>
      <trkpt lat="46.37262" lon="-0.37667">
        <ele>35.8587</ele>
        <time>2011-06-02T13:12:46Z</time>
      </trkpt>
      <trkpt lat="46.37263" lon="-0.37667">
        <ele>35.938</ele>
        <time>2011-06-02T13:12:47Z</time>
      </trkpt>
      <trkpt lat="46.37265" lon="-0.37667">
        <ele>36.0775</ele>
        <time>2011-06-02T13:12:51Z</time>
      </trkpt>
      <trkpt lat="46.37266" lon="-0.37667">
        <ele>36.1333</ele>
        <time>2011-06-02T13:12:52Z</time>
      </trkpt>
      <trkpt lat="46.37267" lon="-0.37667">
        <ele>36.1808</ele>
        <time>2011-06-02T13:12:53Z</time>
      </trkpt>
      <trkpt lat="46.37267" lon="-0.37667">
        <ele>36.2206</ele>
        <time>2011-06-02T13:12:54Z</time>
      </trkpt>
      <trkpt lat="46.37268" lon="-0.37668">
        <ele>36.2547</ele>
        <time>2011-06-02T13:12:55Z</time>
      </trkpt>
      <trkpt lat="46.37269" lon="-0.37668">
        <ele>36.2883</ele>
        <time>2011-06-02T13:12:56Z</time>
      </trkpt>
      <trkpt lat="46.3727" lon="-0.37668">
        <ele>36.3245</ele>
        <time>2011-06-02T13:12:57Z</time>
      </trkpt>
      <trkpt lat="46.37271" lon="-0.37669">
        <ele>36.3608</ele>
        <time>2011-06-02T13:12:58Z</time>
      </trkpt>
      <trkpt lat="46.37272" lon="-0.37669">
        <ele>36.3997</ele>
        <time>2011-06-02T13:12:59Z</time>
      </trkpt>
      <trkpt lat="46.37273" lon="-0.37668">
        <ele>36.4449</ele>
        <time>2011-06-02T13:13:00Z</time>
      </trkpt>
      <trkpt lat="46.37274" lon="-0.37669">
        <ele>36.486</ele>
        <time>2011-06-02T13:13:01Z</time>
      </trkpt>
      <trkpt lat="46.37275" lon="-0.37669">
        <ele>36.5282</ele>
        <time>2011-06-02T13:13:02Z</time>
      </trkpt>
      <trkpt lat="46.37276" lon="-0.37668">
        <ele>36.5718</ele>
        <time>2011-06-02T13:13:03Z</time>
      </trkpt>
      <trkpt lat="46.37278" lon="-0.37669">
        <ele>36.6151</ele>
        <time>2011-06-02T13:13:04Z</time>
      </trkpt>
      <trkpt lat="46.37279" lon="-0.37669">
        <ele>36.6591</ele>
        <time>2011-06-02T13:13:05Z</time>
      </trkpt>
      <trkpt lat="46.3728" lon="-0.37669">
        <ele>36.7044</ele>
        <time>2011-06-02T13:13:06Z</time>
      </trkpt>
      <trkpt lat="46.37281" lon="-0.37669">
        <ele>36.7465</ele>
        <time>2011-06-02T13:13:07Z</time>
      </trkpt>
      <trkpt lat="46.37283" lon="-0.37669">
        <ele>36.784</ele>
        <time>2011-06-02T13:13:08Z</time>
      </trkpt>
      <trkpt lat="46.37284" lon="-0.37669">
        <ele>36.826</ele>
        <time>2011-06-02T13:13:09Z</time>
      </trkpt>
      <trkpt lat="46.37286" lon="-0.37669">
        <ele>36.8669</ele>
        <time>2011-06-02T13:13:10Z</time>
      </trkpt>
      <trkpt lat="46.37287" lon="-0.37668">
        <ele>36.9193</ele>
        <time>2011-06-02T13:13:11Z</time>
      </trkpt>
      <trkpt lat="46.37289" lon="-0.37668">
        <ele>36.9697</ele>
        <time>2011-06-02T13:13:12Z</time>
      </trkpt>
      <trkpt lat="46.3729" lon="-0.37668">
        <ele>37.0175</ele>
        <time>2011-06-02T13:13:13Z</time>
      </trkpt>
      <trkpt lat="46.37292" lon="-0.37668">
        <ele>37.0611</ele>
        <time>2011-06-02T13:13:14Z</time>
      </trkpt>
      <trkpt lat="46.37293" lon="-0.37668">
        <ele>37.1048</ele>
        <time>2011-06-02T13:13:15Z</time>
      </trkpt>
      <trkpt lat="46.37294" lon="-0.37668">
        <ele>37.1447</ele>
        <time>2011-06-02T13:13:16Z</time>
      </trkpt>
      <trkpt lat="46.37296" lon="-0.37667">
        <ele>37.1857</ele>
        <time>2011-06-02T13:13:17Z</time>
      </trkpt>
      <trkpt lat="46.37296" lon="-0.37667">
        <ele>37.2321</ele>
        <time>2011-06-02T13:13:18Z</time>
      </trkpt>
      <trkpt lat="46.37297" lon="-0.37667">
        <ele>37.2788</ele>
        <time>2011-06-02T13:13:19Z</time>
      </trkpt>
      <trkpt lat="46.37298" lon="-0.37667">
        <ele>37.3243</ele>
        <time>2011-06-02T13:13:20Z</time>
      </trkpt>
      <trkpt lat="46.37299" lon="-0.37667">
        <ele>37.3742</ele>
        <time>2011-06-02T13:13:21Z</time>
      </trkpt>
      <trkpt lat="46.373" lon="-0.37667">
        <ele>37.4234</ele>
        <time>2011-06-02T13:13:22Z</time>
      </trkpt>
      <trkpt lat="46.37301" lon="-0.37667">
        <ele>37.4705</ele>
        <time>2011-06-02T13:13:23Z</time>
      </trkpt>
      <trkpt lat="46.37301" lon="-0.37667">
        <ele>37.5137</ele>
        <time>2011-06-02T13:13:24Z</time>
      </trkpt>
      <trkpt lat="46.37302" lon="-0.37667">
        <ele>37.5573</ele>
        <time>2011-06-02T13:13:25Z</time>
      </trkpt>
      <trkpt lat="46.37303" lon="-0.37667">
        <ele>37.5987</ele>
        <time>2011-06-02T13:13:26Z</time>
      </trkpt>
      <trkpt lat="46.37304" lon="-0.37667">
        <ele>37.6277</ele>
        <time>2011-06-02T13:13:27Z</time>
      </trkpt>
      <trkpt lat="46.37305" lon="-0.37667">
        <ele>37.6599</ele>
        <time>2011-06-02T13:13:28Z</time>
      </trkpt>
      <trkpt lat="46.37306" lon="-0.37667">
        <ele>37.691</ele>
        <time>2011-06-02T13:13:29Z</time>
      </trkpt>
      <trkpt lat="46.37307" lon="-0.37668">
        <ele>37.7145</ele>
        <time>2011-06-02T13:13:30Z</time>
      </trkpt>
      <trkpt lat="46.3731" lon="-0.3767">
        <ele>37.7699</ele>
        <time>2011-06-02T13:13:34Z</time>
      </trkpt>
      <trkpt lat="46.37311" lon="-0.37671">
        <ele>37.7963</ele>
        <time>2011-06-02T13:13:36Z</time>
      </trkpt>
      <trkpt lat="46.37312" lon="-0.37672">
        <ele>37.8263</ele>
        <time>2011-06-02T13:13:37Z</time>
      </trkpt>
      <trkpt lat="46.37313" lon="-0.37673">
        <ele>37.8541</ele>
        <time>2011-06-02T13:13:38Z</time>
      </trkpt>
      <trkpt lat="46.37317" lon="-0.37677">
        <ele>37.9998</ele>
        <time>2011-06-02T13:13:44Z</time>
      </trkpt>
      <trkpt lat="46.37318" lon="-0.37678">
        <ele>38.0358</ele>
        <time>2011-06-02T13:13:45Z</time>
      </trkpt>
      <trkpt lat="46.37318" lon="-0.37679">
        <ele>38.0696</ele>
        <time>2011-06-02T13:13:46Z</time>
      </trkpt>
      <trkpt lat="46.37319" lon="-0.37679">
        <ele>38.1017</ele>
        <time>2011-06-02T13:13:47Z</time>
      </trkpt>
      <trkpt lat="46.3732" lon="-0.3768">
        <ele>38.1315</ele>
        <time>2011-06-02T13:13:48Z</time>
      </trkpt>
      <trkpt lat="46.37322" lon="-0.3768">
        <ele>38.1857</ele>
        <time>2011-06-02T13:13:51Z</time>
      </trkpt>
      <trkpt lat="46.37323" lon="-0.37681">
        <ele>38.2193</ele>
        <time>2011-06-02T13:13:52Z</time>
      </trkpt>
      <trkpt lat="46.37324" lon="-0.37681">
        <ele>38.2642</ele>
        <time>2011-06-02T13:13:53Z</time>
      </trkpt>
      <trkpt lat="46.37325" lon="-0.37682">
        <ele>38.312</ele>
        <time>2011-06-02T13:13:54Z</time>
      </trkpt>
      <trkpt lat="46.37329" lon="-0.37684">
        <ele>38.5053</ele>
        <time>2011-06-02T13:13:59Z</time>
      </trkpt>
      <trkpt lat="46.3733" lon="-0.37684">
        <ele>38.5522</ele>
        <time>2011-06-02T13:14:00Z</time>
      </trkpt>
      <trkpt lat="46.37331" lon="-0.37684">
        <ele>38.6029</ele>
        <time>2011-06-02T13:14:01Z</time>
      </trkpt>
      <trkpt lat="46.37333" lon="-0.37684">
        <ele>38.6395</ele>
        <time>2011-06-02T13:14:02Z</time>
      </trkpt>
      <trkpt lat="46.37334" lon="-0.37684">
        <ele>38.6797</ele>
        <time>2011-06-02T13:14:03Z</time>
      </trkpt>
      <trkpt lat="46.37336" lon="-0.37684">
        <ele>38.7278</ele>
        <time>2011-06-02T13:14:04Z</time>
      </trkpt>
      <trkpt lat="46.37338" lon="-0.37684">
        <ele>38.7752</ele>
        <time>2011-06-02T13:14:05Z</time>
      </trkpt>
      <trkpt lat="46.37339" lon="-0.37684">
        <ele>38.8237</ele>
        <time>2011-06-02T13:14:06Z</time>
      </trkpt>
      <trkpt lat="46.3734" lon="-0.37684">
        <ele>38.88</ele>
        <time>2011-06-02T13:14:07Z</time>
      </trkpt>
      <trkpt lat="46.37341" lon="-0.37684">
        <ele>38.9411</ele>
        <time>2011-06-02T13:14:08Z</time>
      </trkpt>
      <trkpt lat="46.37343" lon="-0.37684">
        <ele>39.0125</ele>
        <time>2011-06-02T13:14:09Z</time>
      </trkpt>
      <trkpt lat="46.37344" lon="-0.37684">
        <ele>39.0959</ele>
        <time>2011-06-02T13:14:10Z</time>
      </trkpt>
      <trkpt lat="46.37346" lon="-0.37684">
        <ele>39.1825</ele>
        <time>2011-06-02T13:14:11Z</time>
      </trkpt>
      <trkpt lat="46.37347" lon="-0.37684">
        <ele>39.2661</ele>
        <time>2011-06-02T13:14:12Z</time>
      </trkpt>
      <trkpt lat="46.37349" lon="-0.37683">
        <ele>39.3435</ele>
        <time>2011-06-02T13:14:13Z</time>
      </trkpt>
      <trkpt lat="46.37351" lon="-0.37683">
        <ele>39.503</ele>
        <time>2011-06-02T13:14:16Z</time>
      </trkpt>
      <trkpt lat="46.37352" lon="-0.37683">
        <ele>39.5808</ele>
        <time>2011-06-02T13:14:17Z</time>
      </trkpt>
      <trkpt lat="46.37353" lon="-0.37683">
        <ele>39.6604</ele>
        <time>2011-06-02T13:14:18Z</time>
      </trkpt>
      <trkpt lat="46.37354" lon="-0.37683">
        <ele>39.7415</ele>
        <time>2011-06-02T13:14:19Z</time>
      </trkpt>
      <trkpt lat="46.37354" lon="-0.37684">
        <ele>39.821</ele>
        <time>2011-06-02T13:14:20Z</time>
      </trkpt>
      <trkpt lat="46.37355" lon="-0.37684">
        <ele>39.8967</ele>
        <time>2011-06-02T13:14:21Z</time>
      </trkpt>
      <trkpt lat="46.37356" lon="-0.37684">
        <ele>39.9688</ele>
        <time>2011-06-02T13:14:22Z</time>
      </trkpt>
      <trkpt lat="46.37357" lon="-0.37684">
        <ele>40.0399</ele>
        <time>2011-06-02T13:14:23Z</time>
      </trkpt>
      <trkpt lat="46.37358" lon="-0.37684">
        <ele>40.1111</ele>
        <time>2011-06-02T13:14:24Z</time>
      </trkpt>
      <trkpt lat="46.37359" lon="-0.37684">
        <ele>40.183</ele>
        <time>2011-06-02T13:14:25Z</time>
      </trkpt>
      <trkpt lat="46.3736" lon="-0.37684">
        <ele>40.2533</ele>
        <time>2011-06-02T13:14:26Z</time>
      </trkpt>
      <trkpt lat="46.37361" lon="-0.37685">
        <ele>40.3224</ele>
        <time>2011-06-02T13:14:27Z</time>
      </trkpt>
      <trkpt lat="46.37362" lon="-0.37685">
        <ele>40.3814</ele>
        <time>2011-06-02T13:14:28Z</time>
      </trkpt>
      <trkpt lat="46.37362" lon="-0.37685">
        <ele>40.4479</ele>
        <time>2011-06-02T13:14:29Z</time>
      </trkpt>
      <trkpt lat="46.37363" lon="-0.37685">
        <ele>40.5155</ele>
        <time>2011-06-02T13:14:30Z</time>
      </trkpt>
      <trkpt lat="46.37364" lon="-0.37686">
        <ele>40.5826</ele>
        <time>2011-06-02T13:14:31Z</time>
      </trkpt>
      <trkpt lat="46.37365" lon="-0.37687">
        <ele>40.5981</ele>
        <time>2011-06-02T13:14:32Z</time>
      </trkpt>
      <trkpt lat="46.37367" lon="-0.3769">
        <ele>40.563</ele>
        <time>2011-06-02T13:14:33Z</time>
      </trkpt>
      <trkpt lat="46.3737" lon="-0.37692">
        <ele>40.4973</ele>
        <time>2011-06-02T13:14:34Z</time>
      </trkpt>
      <trkpt lat="46.37371" lon="-0.37694">
        <ele>40.4129</ele>
        <time>2011-06-02T13:14:35Z</time>
      </trkpt>
      <trkpt lat="46.37373" lon="-0.37697">
        <ele>40.3189</ele>
        <time>2011-06-02T13:14:36Z</time>
      </trkpt>
      <trkpt lat="46.37375" lon="-0.37698">
        <ele>40.2221</ele>
        <time>2011-06-02T13:14:37Z</time>
      </trkpt>
      <trkpt lat="46.37376" lon="-0.377">
        <ele>40.1212</ele>
        <time>2011-06-02T13:14:38Z</time>
      </trkpt>
      <trkpt lat="46.37378" lon="-0.37701">
        <ele>40.0232</ele>
        <time>2011-06-02T13:14:39Z</time>
      </trkpt>
      <trkpt lat="46.3738" lon="-0.37702">
        <ele>39.9278</ele>
        <time>2011-06-02T13:14:40Z</time>
      </trkpt>
      <trkpt lat="46.37381" lon="-0.37703">
        <ele>39.8314</ele>
        <time>2011-06-02T13:14:41Z</time>
      </trkpt>
      <trkpt lat="46.37383" lon="-0.37703">
        <ele>39.7271</ele>
        <time>2011-06-02T13:14:42Z</time>
      </trkpt>
      <trkpt lat="46.37384" lon="-0.37703">
        <ele>39.623</ele>
        <time>2011-06-02T13:14:43Z</time>
      </trkpt>
      <trkpt lat="46.37385" lon="-0.37703">
        <ele>39.5211</ele>
        <time>2011-06-02T13:14:44Z</time>
      </trkpt>
      <trkpt lat="46.37387" lon="-0.37703">
        <ele>39.4374</ele>
        <time>2011-06-02T13:14:45Z</time>
      </trkpt>
      <trkpt lat="46.37388" lon="-0.37703">
        <ele>39.36</ele>
        <time>2011-06-02T13:14:46Z</time>
      </trkpt>
      <trkpt lat="46.37389" lon="-0.37703">
        <ele>39.2843</ele>
        <time>2011-06-02T13:14:47Z</time>
      </trkpt>
      <trkpt lat="46.37391" lon="-0.37703">
        <ele>39.211</ele>
        <time>2011-06-02T13:14:48Z</time>
      </trkpt>
      <trkpt lat="46.37392" lon="-0.37703">
        <ele>39.1375</ele>
        <time>2011-06-02T13:14:49Z</time>
      </trkpt>
      <trkpt lat="46.37394" lon="-0.37703">
        <ele>39.059</ele>
        <time>2011-06-02T13:14:50Z</time>
      </trkpt>
      <trkpt lat="46.37395" lon="-0.37703">
        <ele>38.975</ele>
        <time>2011-06-02T13:14:51Z</time>
      </trkpt>
      <trkpt lat="46.37396" lon="-0.37703">
        <ele>38.8883</ele>
        <time>2011-06-02T13:14:52Z</time>
      </trkpt>
      <trkpt lat="46.37398" lon="-0.37703">
        <ele>38.7959</ele>
        <time>2011-06-02T13:14:53Z</time>
      </trkpt>
      <trkpt lat="46.37399" lon="-0.37703">
        <ele>38.7007</ele>
        <time>2011-06-02T13:14:54Z</time>
      </trkpt>
      <trkpt lat="46.374" lon="-0.37704">
        <ele>38.6028</ele>
        <time>2011-06-02T13:14:55Z</time>
      </trkpt>
      <trkpt lat="46.37402" lon="-0.37704">
        <ele>38.5059</ele>
        <time>2011-06-02T13:14:56Z</time>
      </trkpt>
      <trkpt lat="46.37403" lon="-0.37704">
        <ele>38.4082</ele>
        <time>2011-06-02T13:14:57Z</time>
      </trkpt>
      <trkpt lat="46.37405" lon="-0.37705">
        <ele>38.2968</ele>
        <time>2011-06-02T13:14:59Z</time>
      </trkpt>
      <trkpt lat="46.37406" lon="-0.37705">
        <ele>38.1907</ele>
        <time>2011-06-02T13:15:00Z</time>
      </trkpt>
      <trkpt lat="46.37407" lon="-0.37706">
        <ele>38.0835</ele>
        <time>2011-06-02T13:15:01Z</time>
      </trkpt>
      <trkpt lat="46.37408" lon="-0.37706">
        <ele>37.9798</ele>
        <time>2011-06-02T13:15:02Z</time>
      </trkpt>
      <trkpt lat="46.3741" lon="-0.37707">
        <ele>37.8776</ele>
        <time>2011-06-02T13:15:03Z</time>
      </trkpt>
      <trkpt lat="46.37411" lon="-0.37707">
        <ele>37.7767</ele>
        <time>2011-06-02T13:15:04Z</time>
      </trkpt>
      <trkpt lat="46.37412" lon="-0.37708">
        <ele>37.676</ele>
        <time>2011-06-02T13:15:05Z</time>
      </trkpt>
      <trkpt lat="46.37413" lon="-0.37709">
        <ele>37.572</ele>
        <time>2011-06-02T13:15:06Z</time>
      </trkpt>
      <trkpt lat="46.37414" lon="-0.37709">
        <ele>37.469</ele>
        <time>2011-06-02T13:15:07Z</time>
      </trkpt>
      <trkpt lat="46.37415" lon="-0.37709">
        <ele>37.3659</ele>
        <time>2011-06-02T13:15:08Z</time>
      </trkpt>
      <trkpt lat="46.37416" lon="-0.37709">
        <ele>37.2624</ele>
        <time>2011-06-02T13:15:09Z</time>
      </trkpt>
      <trkpt lat="46.37417" lon="-0.37709">
        <ele>37.1649</ele>
        <time>2011-06-02T13:15:10Z</time>
      </trkpt>
      <trkpt lat="46.37418" lon="-0.37709">
        <ele>37.0694</ele>
        <time>2011-06-02T13:15:11Z</time>
      </trkpt>
      <trkpt lat="46.37419" lon="-0.3771">
        <ele>36.9746</ele>
        <time>2011-06-02T13:15:12Z</time>
      </trkpt>
      <trkpt lat="46.3742" lon="-0.3771">
        <ele>36.8827</ele>
        <time>2011-06-02T13:15:13Z</time>
      </trkpt>
      <trkpt lat="46.37421" lon="-0.37711">
        <ele>36.7935</ele>
        <time>2011-06-02T13:15:14Z</time>
      </trkpt>
      <trkpt lat="46.37421" lon="-0.37712">
        <ele>36.7054</ele>
        <time>2011-06-02T13:15:15Z</time>
      </trkpt>
      <trkpt lat="46.37423" lon="-0.37713">
        <ele>36.6221</ele>
        <time>2011-06-02T13:15:16Z</time>
      </trkpt>
      <trkpt lat="46.37423" lon="-0.37714">
        <ele>36.5419</ele>
        <time>2011-06-02T13:15:17Z</time>
      </trkpt>
      <trkpt lat="46.37424" lon="-0.37714">
        <ele>36.4648</ele>
        <time>2011-06-02T13:15:18Z</time>
      </trkpt>
      <trkpt lat="46.37425" lon="-0.37715">
        <ele>36.3943</ele>
        <time>2011-06-02T13:15:19Z</time>
      </trkpt>
      <trkpt lat="46.37426" lon="-0.37715">
        <ele>36.3302</ele>
        <time>2011-06-02T13:15:20Z</time>
      </trkpt>
      <trkpt lat="46.37428" lon="-0.37716">
        <ele>36.2648</ele>
        <time>2011-06-02T13:15:21Z</time>
      </trkpt>
      <trkpt lat="46.37429" lon="-0.37716">
        <ele>36.201</ele>
        <time>2011-06-02T13:15:22Z</time>
      </trkpt>
      <trkpt lat="46.37429" lon="-0.37717">
        <ele>36.1405</ele>
        <time>2011-06-02T13:15:23Z</time>
      </trkpt>
      <trkpt lat="46.37431" lon="-0.37717">
        <ele>36.0908</ele>
        <time>2011-06-02T13:15:24Z</time>
      </trkpt>
      <trkpt lat="46.37431" lon="-0.37716">
        <ele>36.043</ele>
        <time>2011-06-02T13:15:25Z</time>
      </trkpt>
      <trkpt lat="46.37433" lon="-0.37716">
        <ele>35.9982</ele>
        <time>2011-06-02T13:15:26Z</time>
      </trkpt>
      <trkpt lat="46.37433" lon="-0.37716">
        <ele>35.9622</ele>
        <time>2011-06-02T13:15:27Z</time>
      </trkpt>
      <trkpt lat="46.37434" lon="-0.37716">
        <ele>35.9387</ele>
        <time>2011-06-02T13:15:28Z</time>
      </trkpt>
      <trkpt lat="46.37435" lon="-0.37717">
        <ele>35.9386</ele>
        <time>2011-06-02T13:15:29Z</time>
      </trkpt>
      <trkpt lat="46.37436" lon="-0.37718">
        <ele>35.9557</ele>
        <time>2011-06-02T13:15:30Z</time>
      </trkpt>
      <trkpt lat="46.37437" lon="-0.37718">
        <ele>35.9806</ele>
        <time>2011-06-02T13:15:31Z</time>
      </trkpt>
      <trkpt lat="46.37438" lon="-0.37718">
        <ele>36.0054</ele>
        <time>2011-06-02T13:15:32Z</time>
      </trkpt>
      <trkpt lat="46.3744" lon="-0.37719">
        <ele>36.0332</ele>
        <time>2011-06-02T13:15:33Z</time>
      </trkpt>
      <trkpt lat="46.37441" lon="-0.3772">
        <ele>36.0622</ele>
        <time>2011-06-02T13:15:34Z</time>
      </trkpt>
      <trkpt lat="46.37442" lon="-0.37721">
        <ele>36.0888</ele>
        <time>2011-06-02T13:15:35Z</time>
      </trkpt>
      <trkpt lat="46.37442" lon="-0.37721">
        <ele>36.1114</ele>
        <time>2011-06-02T13:15:36Z</time>
      </trkpt>
      <trkpt lat="46.37443" lon="-0.37721">
        <ele>36.1329</ele>
        <time>2011-06-02T13:15:37Z</time>
      </trkpt>
      <trkpt lat="46.37443" lon="-0.37721">
        <ele>36.1564</ele>
        <time>2011-06-02T13:15:38Z</time>
      </trkpt>
      <trkpt lat="46.37444" lon="-0.37721">
        <ele>36.2008</ele>
        <time>2011-06-02T13:15:39Z</time>
      </trkpt>
      <trkpt lat="46.37444" lon="-0.37721">
        <ele>36.2409</ele>
        <time>2011-06-02T13:15:40Z</time>
      </trkpt>
      <trkpt lat="46.37445" lon="-0.37722">
        <ele>36.2788</ele>
        <time>2011-06-02T13:15:41Z</time>
      </trkpt>
      <trkpt lat="46.37446" lon="-0.37722">
        <ele>36.3095</ele>
        <time>2011-06-02T13:15:42Z</time>
      </trkpt>
      <trkpt lat="46.37448" lon="-0.37723">
        <ele>36.3471</ele>
        <time>2011-06-02T13:15:43Z</time>
      </trkpt>
      <trkpt lat="46.37449" lon="-0.37723">
        <ele>36.3864</ele>
        <time>2011-06-02T13:15:44Z</time>
      </trkpt>
      <trkpt lat="46.37451" lon="-0.37723">
        <ele>36.429</ele>
        <time>2011-06-02T13:15:45Z</time>
      </trkpt>
      <trkpt lat="46.37453" lon="-0.37722">
        <ele>36.4651</ele>
        <time>2011-06-02T13:15:46Z</time>
      </trkpt>
      <trkpt lat="46.37454" lon="-0.37722">
        <ele>36.5077</ele>
        <time>2011-06-02T13:15:47Z</time>
      </trkpt>
      <trkpt lat="46.37457" lon="-0.3772">
        <ele>36.5792</ele>
        <time>2011-06-02T13:15:48Z</time>
      </trkpt>
      <trkpt lat="46.3746" lon="-0.37717">
        <ele>36.6718</ele>
        <time>2011-06-02T13:15:49Z</time>
      </trkpt>
      <trkpt lat="46.37462" lon="-0.37715">
        <ele>36.7706</ele>
        <time>2011-06-02T13:15:50Z</time>
      </trkpt>
      <trkpt lat="46.37465" lon="-0.37712">
        <ele>36.8694</ele>
        <time>2011-06-02T13:15:51Z</time>
      </trkpt>
      <trkpt lat="46.37467" lon="-0.37711">
        <ele>36.9655</ele>
        <time>2011-06-02T13:15:52Z</time>
      </trkpt>
      <trkpt lat="46.37469" lon="-0.3771">
        <ele>37.0542</ele>
        <time>2011-06-02T13:15:53Z</time>
      </trkpt>
      <trkpt lat="46.37471" lon="-0.3771">
        <ele>37.1356</ele>
        <time>2011-06-02T13:15:54Z</time>
      </trkpt>
      <trkpt lat="46.37472" lon="-0.3771">
        <ele>37.206</ele>
        <time>2011-06-02T13:15:55Z</time>
      </trkpt>
      <trkpt lat="46.37473" lon="-0.37711">
        <ele>37.2672</ele>
        <time>2011-06-02T13:15:56Z</time>
      </trkpt>
      <trkpt lat="46.37474" lon="-0.37711">
        <ele>37.3171</ele>
        <time>2011-06-02T13:15:57Z</time>
      </trkpt>
      <trkpt lat="46.37475" lon="-0.37712">
        <ele>37.3642</ele>
        <time>2011-06-02T13:15:58Z</time>
      </trkpt>
      <trkpt lat="46.37476" lon="-0.37712">
        <ele>37.409</ele>
        <time>2011-06-02T13:15:59Z</time>
      </trkpt>
      <trkpt lat="46.37477" lon="-0.37713">
        <ele>37.4556</ele>
        <time>2011-06-02T13:16:00Z</time>
      </trkpt>
      <trkpt lat="46.37478" lon="-0.37713">
        <ele>37.5</ele>
        <time>2011-06-02T13:16:01Z</time>
      </trkpt>
      <trkpt lat="46.37479" lon="-0.37714">
        <ele>37.5425</ele>
        <time>2011-06-02T13:16:02Z</time>
      </trkpt>
      <trkpt lat="46.3748" lon="-0.37714">
        <ele>37.5808</ele>
        <time>2011-06-02T13:16:03Z</time>
      </trkpt>
      <trkpt lat="46.37481" lon="-0.37715">
        <ele>37.6162</ele>
        <time>2011-06-02T13:16:04Z</time>
      </trkpt>
      <trkpt lat="46.37482" lon="-0.37715">
        <ele>37.6493</ele>
        <time>2011-06-02T13:16:05Z</time>
      </trkpt>
      <trkpt lat="46.37483" lon="-0.37716">
        <ele>37.6792</ele>
        <time>2011-06-02T13:16:06Z</time>
      </trkpt>
      <trkpt lat="46.37483" lon="-0.37716">
        <ele>37.7073</ele>
        <time>2011-06-02T13:16:07Z</time>
      </trkpt>
      <trkpt lat="46.37484" lon="-0.37716">
        <ele>37.7327</ele>
        <time>2011-06-02T13:16:08Z</time>
      </trkpt>
      <trkpt lat="46.37485" lon="-0.37716">
        <ele>37.755</ele>
        <time>2011-06-02T13:16:09Z</time>
      </trkpt>
      <trkpt lat="46.37486" lon="-0.37717">
        <ele>37.7748</ele>
        <time>2011-06-02T13:16:10Z</time>
      </trkpt>
      <trkpt lat="46.37487" lon="-0.37717">
        <ele>37.7936</ele>
        <time>2011-06-02T13:16:11Z</time>
      </trkpt>
      <trkpt lat="46.37488" lon="-0.37718">
        <ele>37.8106</ele>
        <time>2011-06-02T13:16:12Z</time>
      </trkpt>
      <trkpt lat="46.37489" lon="-0.37718">
        <ele>37.8256</ele>
        <time>2011-06-02T13:16:13Z</time>
      </trkpt>
      <trkpt lat="46.37491" lon="-0.37719">
        <ele>37.8407</ele>
        <time>2011-06-02T13:16:14Z</time>
      </trkpt>
      <trkpt lat="46.37491" lon="-0.3772">
        <ele>37.8555</ele>
        <time>2011-06-02T13:16:15Z</time>
      </trkpt>
      <trkpt lat="46.37492" lon="-0.37721">
        <ele>37.8709</ele>
        <time>2011-06-02T13:16:16Z</time>
      </trkpt>
      <trkpt lat="46.37492" lon="-0.37722">
        <ele>37.8861</ele>
        <time>2011-06-02T13:16:17Z</time>
      </trkpt>
      <trkpt lat="46.37493" lon="-0.37724">
        <ele>37.901</ele>
        <time>2011-06-02T13:16:18Z</time>
      </trkpt>
      <trkpt lat="46.37493" lon="-0.37726">
        <ele>37.9151</ele>
        <time>2011-06-02T13:16:19Z</time>
      </trkpt>
      <trkpt lat="46.37494" lon="-0.37727">
        <ele>37.9289</ele>
        <time>2011-06-02T13:16:20Z</time>
      </trkpt>
      <trkpt lat="46.37494" lon="-0.37728">
        <ele>37.9408</ele>
        <time>2011-06-02T13:16:21Z</time>
      </trkpt>
      <trkpt lat="46.37495" lon="-0.37729">
        <ele>37.9493</ele>
        <time>2011-06-02T13:16:22Z</time>
      </trkpt>
      <trkpt lat="46.37496" lon="-0.3773">
        <ele>37.9515</ele>
        <time>2011-06-02T13:16:23Z</time>
      </trkpt>
      <trkpt lat="46.37497" lon="-0.37731">
        <ele>37.9545</ele>
        <time>2011-06-02T13:16:24Z</time>
      </trkpt>
      <trkpt lat="46.37498" lon="-0.37732">
        <ele>37.9558</ele>
        <time>2011-06-02T13:16:25Z</time>
      </trkpt>
      <trkpt lat="46.37499" lon="-0.37733">
        <ele>37.9485</ele>
        <time>2011-06-02T13:16:26Z</time>
      </trkpt>
      <trkpt lat="46.37499" lon="-0.37734">
        <ele>37.9271</ele>
        <time>2011-06-02T13:16:27Z</time>
      </trkpt>
      <trkpt lat="46.37499" lon="-0.37735">
        <ele>37.9</ele>
        <time>2011-06-02T13:16:28Z</time>
      </trkpt>
      <trkpt lat="46.37499" lon="-0.37737">
        <ele>37.8781</ele>
        <time>2011-06-02T13:16:29Z</time>
      </trkpt>
      <trkpt lat="46.375" lon="-0.37738">
        <ele>37.8613</ele>
        <time>2011-06-02T13:16:30Z</time>
      </trkpt>
      <trkpt lat="46.37501" lon="-0.37739">
        <ele>37.8452</ele>
        <time>2011-06-02T13:16:31Z</time>
      </trkpt>
      <trkpt lat="46.37501" lon="-0.3774">
        <ele>37.8317</ele>
        <time>2011-06-02T13:16:32Z</time>
      </trkpt>
      <trkpt lat="46.37502" lon="-0.37741">
        <ele>37.8168</ele>
        <time>2011-06-02T13:16:33Z</time>
      </trkpt>
      <trkpt lat="46.37503" lon="-0.37742">
        <ele>37.8054</ele>
        <time>2011-06-02T13:16:34Z</time>
      </trkpt>
      <trkpt lat="46.37503" lon="-0.37743">
        <ele>37.7927</ele>
        <time>2011-06-02T13:16:35Z</time>
      </trkpt>
      <trkpt lat="46.37505" lon="-0.37743">
        <ele>37.7742</ele>
        <time>2011-06-02T13:16:36Z</time>
      </trkpt>
      <trkpt lat="46.37506" lon="-0.37744">
        <ele>37.7575</ele>
        <time>2011-06-02T13:16:37Z</time>
      </trkpt>
      <trkpt lat="46.37507" lon="-0.37744">
        <ele>37.7401</ele>
        <time>2011-06-02T13:16:38Z</time>
      </trkpt>
      <trkpt lat="46.37508" lon="-0.37745">
        <ele>37.7249</ele>
        <time>2011-06-02T13:16:39Z</time>
      </trkpt>
      <trkpt lat="46.37508" lon="-0.37745">
        <ele>37.7151</ele>
        <time>2011-06-02T13:16:40Z</time>
      </trkpt>
      <trkpt lat="46.37509" lon="-0.37745">
        <ele>37.7076</ele>
        <time>2011-06-02T13:16:42Z</time>
      </trkpt>
      <trkpt lat="46.3751" lon="-0.37745">
        <ele>37.7009</ele>
        <time>2011-06-02T13:16:43Z</time>
      </trkpt>
      <trkpt lat="46.37511" lon="-0.37746">
        <ele>37.6955</ele>
        <time>2011-06-02T13:16:44Z</time>
      </trkpt>
      <trkpt lat="46.37512" lon="-0.37746">
        <ele>37.6931</ele>
        <time>2011-06-02T13:16:45Z</time>
      </trkpt>
      <trkpt lat="46.37513" lon="-0.37746">
        <ele>37.6938</ele>
        <time>2011-06-02T13:16:46Z</time>
      </trkpt>
      <trkpt lat="46.37514" lon="-0.37746">
        <ele>37.695</ele>
        <time>2011-06-02T13:16:47Z</time>
      </trkpt>
      <trkpt lat="46.37515" lon="-0.37746">
        <ele>37.6954</ele>
        <time>2011-06-02T13:16:48Z</time>
      </trkpt>
      <trkpt lat="46.37516" lon="-0.37746">
        <ele>37.6948</ele>
        <time>2011-06-02T13:16:49Z</time>
      </trkpt>
      <trkpt lat="46.37517" lon="-0.37746">
        <ele>37.6949</ele>
        <time>2011-06-02T13:16:50Z</time>
      </trkpt>
      <trkpt lat="46.37519" lon="-0.37746">
        <ele>37.6938</ele>
        <time>2011-06-02T13:16:51Z</time>
      </trkpt>
      <trkpt lat="46.3752" lon="-0.37746">
        <ele>37.6929</ele>
        <time>2011-06-02T13:16:52Z</time>
      </trkpt>
      <trkpt lat="46.3752" lon="-0.37746">
        <ele>37.693</ele>
        <time>2011-06-02T13:16:53Z</time>
      </trkpt>
      <trkpt lat="46.37521" lon="-0.37746">
        <ele>37.6984</ele>
        <time>2011-06-02T13:16:54Z</time>
      </trkpt>
      <trkpt lat="46.37522" lon="-0.37747">
        <ele>37.7097</ele>
        <time>2011-06-02T13:16:55Z</time>
      </trkpt>
      <trkpt lat="46.37523" lon="-0.37747">
        <ele>37.7218</ele>
        <time>2011-06-02T13:16:56Z</time>
      </trkpt>
      <trkpt lat="46.37523" lon="-0.37747">
        <ele>37.7287</ele>
        <time>2011-06-02T13:16:57Z</time>
      </trkpt>
      <trkpt lat="46.37524" lon="-0.37748">
        <ele>37.7308</ele>
        <time>2011-06-02T13:16:58Z</time>
      </trkpt>
      <trkpt lat="46.37525" lon="-0.37749">
        <ele>37.7337</ele>
        <time>2011-06-02T13:16:59Z</time>
      </trkpt>
      <trkpt lat="46.37526" lon="-0.37749">
        <ele>37.7352</ele>
        <time>2011-06-02T13:17:00Z</time>
      </trkpt>
      <trkpt lat="46.37527" lon="-0.3775">
        <ele>37.7336</ele>
        <time>2011-06-02T13:17:01Z</time>
      </trkpt>
      <trkpt lat="46.37528" lon="-0.3775">
        <ele>37.7317</ele>
        <time>2011-06-02T13:17:02Z</time>
      </trkpt>
      <trkpt lat="46.37528" lon="-0.3775">
        <ele>37.7277</ele>
        <time>2011-06-02T13:17:03Z</time>
      </trkpt>
      <trkpt lat="46.37529" lon="-0.37751">
        <ele>37.7253</ele>
        <time>2011-06-02T13:17:04Z</time>
      </trkpt>
      <trkpt lat="46.3753" lon="-0.37751">
        <ele>37.7242</ele>
        <time>2011-06-02T13:17:05Z</time>
      </trkpt>
      <trkpt lat="46.37531" lon="-0.37752">
        <ele>37.7228</ele>
        <time>2011-06-02T13:17:06Z</time>
      </trkpt>
      <trkpt lat="46.37532" lon="-0.37752">
        <ele>37.7209</ele>
        <time>2011-06-02T13:17:07Z</time>
      </trkpt>
      <trkpt lat="46.37533" lon="-0.37753">
        <ele>37.7223</ele>
        <time>2011-06-02T13:17:08Z</time>
      </trkpt>
      <trkpt lat="46.37534" lon="-0.37754">
        <ele>37.7251</ele>
        <time>2011-06-02T13:17:09Z</time>
      </trkpt>
      <trkpt lat="46.37535" lon="-0.37754">
        <ele>37.7256</ele>
        <time>2011-06-02T13:17:10Z</time>
      </trkpt>
      <trkpt lat="46.37536" lon="-0.37755">
        <ele>37.7211</ele>
        <time>2011-06-02T13:17:11Z</time>
      </trkpt>
      <trkpt lat="46.37537" lon="-0.37756">
        <ele>37.709</ele>
        <time>2011-06-02T13:17:12Z</time>
      </trkpt>
      <trkpt lat="46.37539" lon="-0.37757">
        <ele>37.6981</ele>
        <time>2011-06-02T13:17:13Z</time>
      </trkpt>
      <trkpt lat="46.3754" lon="-0.37757">
        <ele>37.6898</ele>
        <time>2011-06-02T13:17:14Z</time>
      </trkpt>
      <trkpt lat="46.37541" lon="-0.37758">
        <ele>37.6832</ele>
        <time>2011-06-02T13:17:15Z</time>
      </trkpt>
      <trkpt lat="46.37542" lon="-0.37759">
        <ele>37.6782</ele>
        <time>2011-06-02T13:17:16Z</time>
      </trkpt>
      <trkpt lat="46.37542" lon="-0.37759">
        <ele>37.6735</ele>
        <time>2011-06-02T13:17:17Z</time>
      </trkpt>
      <trkpt lat="46.37544" lon="-0.37758">
        <ele>37.6671</ele>
        <time>2011-06-02T13:17:19Z</time>
      </trkpt>
      <trkpt lat="46.37544" lon="-0.37758">
        <ele>37.6584</ele>
        <time>2011-06-02T13:17:20Z</time>
      </trkpt>
      <trkpt lat="46.37545" lon="-0.37758">
        <ele>37.6446</ele>
        <time>2011-06-02T13:17:21Z</time>
      </trkpt>
      <trkpt lat="46.37546" lon="-0.37759">
        <ele>37.6302</ele>
        <time>2011-06-02T13:17:22Z</time>
      </trkpt>
      <trkpt lat="46.37547" lon="-0.3776">
        <ele>37.6156</ele>
        <time>2011-06-02T13:17:23Z</time>
      </trkpt>
      <trkpt lat="46.37548" lon="-0.3776">
        <ele>37.6017</ele>
        <time>2011-06-02T13:17:24Z</time>
      </trkpt>
      <trkpt lat="46.37549" lon="-0.37761">
        <ele>37.5857</ele>
        <time>2011-06-02T13:17:25Z</time>
      </trkpt>
      <trkpt lat="46.3755" lon="-0.37762">
        <ele>37.5677</ele>
        <time>2011-06-02T13:17:26Z</time>
      </trkpt>
      <trkpt lat="46.37552" lon="-0.37763">
        <ele>37.5464</ele>
        <time>2011-06-02T13:17:27Z</time>
      </trkpt>
      <trkpt lat="46.37553" lon="-0.37765">
        <ele>37.524</ele>
        <time>2011-06-02T13:17:28Z</time>
      </trkpt>
      <trkpt lat="46.37554" lon="-0.37766">
        <ele>37.5</ele>
        <time>2011-06-02T13:17:29Z</time>
      </trkpt>
      <trkpt lat="46.37555" lon="-0.37766">
        <ele>37.4773</ele>
        <time>2011-06-02T13:17:30Z</time>
      </trkpt>
      <trkpt lat="46.37556" lon="-0.37767">
        <ele>37.4548</ele>
        <time>2011-06-02T13:17:31Z</time>
      </trkpt>
      <trkpt lat="46.37557" lon="-0.37768">
        <ele>37.4323</ele>
        <time>2011-06-02T13:17:32Z</time>
      </trkpt>
      <trkpt lat="46.37557" lon="-0.37769">
        <ele>37.4107</ele>
        <time>2011-06-02T13:17:33Z</time>
      </trkpt>
      <trkpt lat="46.37557" lon="-0.3777">
        <ele>37.3905</ele>
        <time>2011-06-02T13:17:34Z</time>
      </trkpt>
      <trkpt lat="46.37557" lon="-0.37772">
        <ele>37.3709</ele>
        <time>2011-06-02T13:17:35Z</time>
      </trkpt>
      <trkpt lat="46.37557" lon="-0.37774">
        <ele>37.3518</ele>
        <time>2011-06-02T13:17:36Z</time>
      </trkpt>
      <trkpt lat="46.37557" lon="-0.37775">
        <ele>37.3345</ele>
        <time>2011-06-02T13:17:37Z</time>
      </trkpt>
      <trkpt lat="46.37557" lon="-0.37776">
        <ele>37.3202</ele>
        <time>2011-06-02T13:17:38Z</time>
      </trkpt>
      <trkpt lat="46.37558" lon="-0.37777">
        <ele>37.3081</ele>
        <time>2011-06-02T13:17:39Z</time>
      </trkpt>
      <trkpt lat="46.37558" lon="-0.37778">
        <ele>37.2964</ele>
        <time>2011-06-02T13:17:40Z</time>
      </trkpt>
      <trkpt lat="46.37559" lon="-0.37778">
        <ele>37.2866</ele>
        <time>2011-06-02T13:17:41Z</time>
      </trkpt>
      <trkpt lat="46.3756" lon="-0.37779">
        <ele>37.2792</ele>
        <time>2011-06-02T13:17:42Z</time>
      </trkpt>
      <trkpt lat="46.37561" lon="-0.37779">
        <ele>37.272</ele>
        <time>2011-06-02T13:17:43Z</time>
      </trkpt>
      <trkpt lat="46.37561" lon="-0.3778">
        <ele>37.2627</ele>
        <time>2011-06-02T13:17:44Z</time>
      </trkpt>
      <trkpt lat="46.37562" lon="-0.37781">
        <ele>37.254</ele>
        <time>2011-06-02T13:17:45Z</time>
      </trkpt>
      <trkpt lat="46.37563" lon="-0.37781">
        <ele>37.248</ele>
        <time>2011-06-02T13:17:46Z</time>
      </trkpt>
      <trkpt lat="46.37563" lon="-0.37783">
        <ele>37.2491</ele>
        <time>2011-06-02T13:17:47Z</time>
      </trkpt>
      <trkpt lat="46.37565" lon="-0.37784">
        <ele>37.2512</ele>
        <time>2011-06-02T13:17:48Z</time>
      </trkpt>
      <trkpt lat="46.37565" lon="-0.37785">
        <ele>37.251</ele>
        <time>2011-06-02T13:17:49Z</time>
      </trkpt>
      <trkpt lat="46.37566" lon="-0.37787">
        <ele>37.253</ele>
        <time>2011-06-02T13:17:50Z</time>
      </trkpt>
      <trkpt lat="46.37568" lon="-0.37787">
        <ele>37.2574</ele>
        <time>2011-06-02T13:17:51Z</time>
      </trkpt>
      <trkpt lat="46.37568" lon="-0.37788">
        <ele>37.2623</ele>
        <time>2011-06-02T13:17:52Z</time>
      </trkpt>
      <trkpt lat="46.37569" lon="-0.37788">
        <ele>37.2679</ele>
        <time>2011-06-02T13:17:53Z</time>
      </trkpt>
      <trkpt lat="46.3757" lon="-0.37789">
        <ele>37.2768</ele>
        <time>2011-06-02T13:17:54Z</time>
      </trkpt>
      <trkpt lat="46.37571" lon="-0.37789">
        <ele>37.2866</ele>
        <time>2011-06-02T13:17:55Z</time>
      </trkpt>
      <trkpt lat="46.37572" lon="-0.3779">
        <ele>37.3037</ele>
        <time>2011-06-02T13:17:56Z</time>
      </trkpt>
      <trkpt lat="46.37573" lon="-0.37791">
        <ele>37.3232</ele>
        <time>2011-06-02T13:17:57Z</time>
      </trkpt>
      <trkpt lat="46.37574" lon="-0.37791">
        <ele>37.343</ele>
        <time>2011-06-02T13:17:58Z</time>
      </trkpt>
      <trkpt lat="46.37575" lon="-0.37792">
        <ele>37.3612</ele>
        <time>2011-06-02T13:17:59Z</time>
      </trkpt>
      <trkpt lat="46.37576" lon="-0.37793">
        <ele>37.3774</ele>
        <time>2011-06-02T13:18:00Z</time>
      </trkpt>
      <trkpt lat="46.37577" lon="-0.37793">
        <ele>37.3927</ele>
        <time>2011-06-02T13:18:01Z</time>
      </trkpt>
      <trkpt lat="46.37577" lon="-0.37793">
        <ele>37.4066</ele>
        <time>2011-06-02T13:18:02Z</time>
      </trkpt>
      <trkpt lat="46.37578" lon="-0.37793">
        <ele>37.4215</ele>
        <time>2011-06-02T13:18:03Z</time>
      </trkpt>
      <trkpt lat="46.37579" lon="-0.37794">
        <ele>37.4375</ele>
        <time>2011-06-02T13:18:04Z</time>
      </trkpt>
      <trkpt lat="46.3758" lon="-0.37795">
        <ele>37.452</ele>
        <time>2011-06-02T13:18:05Z</time>
      </trkpt>
      <trkpt lat="46.37581" lon="-0.37795">
        <ele>37.4651</ele>
        <time>2011-06-02T13:18:06Z</time>
      </trkpt>
      <trkpt lat="46.37581" lon="-0.37796">
        <ele>37.4781</ele>
        <time>2011-06-02T13:18:07Z</time>
      </trkpt>
      <trkpt lat="46.37582" lon="-0.37796">
        <ele>37.4886</ele>
        <time>2011-06-02T13:18:08Z</time>
      </trkpt>
      <trkpt lat="46.37583" lon="-0.37797">
        <ele>37.4906</ele>
        <time>2011-06-02T13:18:09Z</time>
      </trkpt>
      <trkpt lat="46.37584" lon="-0.37798">
        <ele>37.4925</ele>
        <time>2011-06-02T13:18:10Z</time>
      </trkpt>
      <trkpt lat="46.37585" lon="-0.37799">
        <ele>37.494</ele>
        <time>2011-06-02T13:18:11Z</time>
      </trkpt>
      <trkpt lat="46.37586" lon="-0.37799">
        <ele>37.4935</ele>
        <time>2011-06-02T13:18:12Z</time>
      </trkpt>
      <trkpt lat="46.37587" lon="-0.378">
        <ele>37.4922</ele>
        <time>2011-06-02T13:18:13Z</time>
      </trkpt>
      <trkpt lat="46.37588" lon="-0.37801">
        <ele>37.4878</ele>
        <time>2011-06-02T13:18:14Z</time>
      </trkpt>
      <trkpt lat="46.37589" lon="-0.37803">
        <ele>37.4855</ele>
        <time>2011-06-02T13:18:15Z</time>
      </trkpt>
      <trkpt lat="46.3759" lon="-0.37804">
        <ele>37.4836</ele>
        <time>2011-06-02T13:18:16Z</time>
      </trkpt>
      <trkpt lat="46.37591" lon="-0.37805">
        <ele>37.487</ele>
        <time>2011-06-02T13:18:17Z</time>
      </trkpt>
      <trkpt lat="46.37592" lon="-0.37806">
        <ele>37.4937</ele>
        <time>2011-06-02T13:18:18Z</time>
      </trkpt>
      <trkpt lat="46.37592" lon="-0.37807">
        <ele>37.5037</ele>
        <time>2011-06-02T13:18:19Z</time>
      </trkpt>
      <trkpt lat="46.37593" lon="-0.37808">
        <ele>37.515</ele>
        <time>2011-06-02T13:18:20Z</time>
      </trkpt>
      <trkpt lat="46.37594" lon="-0.37809">
        <ele>37.5251</ele>
        <time>2011-06-02T13:18:21Z</time>
      </trkpt>
      <trkpt lat="46.37595" lon="-0.3781">
        <ele>37.5365</ele>
        <time>2011-06-02T13:18:22Z</time>
      </trkpt>
      <trkpt lat="46.37596" lon="-0.37811">
        <ele>37.5488</ele>
        <time>2011-06-02T13:18:23Z</time>
      </trkpt>
      <trkpt lat="46.37597" lon="-0.37811">
        <ele>37.5622</ele>
        <time>2011-06-02T13:18:24Z</time>
      </trkpt>
      <trkpt lat="46.37598" lon="-0.37812">
        <ele>37.5617</ele>
        <time>2011-06-02T13:18:27Z</time>
      </trkpt>
      <trkpt lat="46.37599" lon="-0.37813">
        <ele>37.548</ele>
        <time>2011-06-02T13:18:28Z</time>
      </trkpt>
      <trkpt lat="46.376" lon="-0.37814">
        <ele>37.5246</ele>
        <time>2011-06-02T13:18:29Z</time>
      </trkpt>
      <trkpt lat="46.37602" lon="-0.37815">
        <ele>37.4904</ele>
        <time>2011-06-02T13:18:30Z</time>
      </trkpt>
      <trkpt lat="46.37603" lon="-0.37816">
        <ele>37.4674</ele>
        <time>2011-06-02T13:18:31Z</time>
      </trkpt>
      <trkpt lat="46.37603" lon="-0.37817">
        <ele>37.4434</ele>
        <time>2011-06-02T13:18:32Z</time>
      </trkpt>
      <trkpt lat="46.37605" lon="-0.37818">
        <ele>37.4264</ele>
        <time>2011-06-02T13:18:33Z</time>
      </trkpt>
      <trkpt lat="46.37606" lon="-0.37819">
        <ele>37.4095</ele>
        <time>2011-06-02T13:18:34Z</time>
      </trkpt>
      <trkpt lat="46.37606" lon="-0.37819">
        <ele>37.4018</ele>
        <time>2011-06-02T13:18:35Z</time>
      </trkpt>
      <trkpt lat="46.37607" lon="-0.3782">
        <ele>37.3895</ele>
        <time>2011-06-02T13:18:36Z</time>
      </trkpt>
      <trkpt lat="46.37608" lon="-0.3782">
        <ele>37.3807</ele>
        <time>2011-06-02T13:18:37Z</time>
      </trkpt>
      <trkpt lat="46.37609" lon="-0.3782">
        <ele>37.3716</ele>
        <time>2011-06-02T13:18:38Z</time>
      </trkpt>
      <trkpt lat="46.3761" lon="-0.3782">
        <ele>37.3587</ele>
        <time>2011-06-02T13:18:39Z</time>
      </trkpt>
      <trkpt lat="46.37611" lon="-0.37821">
        <ele>37.3445</ele>
        <time>2011-06-02T13:18:40Z</time>
      </trkpt>
      <trkpt lat="46.37612" lon="-0.37822">
        <ele>37.3297</ele>
        <time>2011-06-02T13:18:41Z</time>
      </trkpt>
      <trkpt lat="46.37613" lon="-0.37823">
        <ele>37.3119</ele>
        <time>2011-06-02T13:18:42Z</time>
      </trkpt>
      <trkpt lat="46.37615" lon="-0.37824">
        <ele>37.2918</ele>
        <time>2011-06-02T13:18:43Z</time>
      </trkpt>
      <trkpt lat="46.37616" lon="-0.37825">
        <ele>37.2698</ele>
        <time>2011-06-02T13:18:44Z</time>
      </trkpt>
      <trkpt lat="46.37617" lon="-0.37826">
        <ele>37.247</ele>
        <time>2011-06-02T13:18:45Z</time>
      </trkpt>
      <trkpt lat="46.37618" lon="-0.37827">
        <ele>37.2244</ele>
        <time>2011-06-02T13:18:46Z</time>
      </trkpt>
      <trkpt lat="46.37619" lon="-0.37828">
        <ele>37.207</ele>
        <time>2011-06-02T13:18:47Z</time>
      </trkpt>
      <trkpt lat="46.3762" lon="-0.37829">
        <ele>37.1893</ele>
        <time>2011-06-02T13:18:48Z</time>
      </trkpt>
      <trkpt lat="46.37621" lon="-0.3783">
        <ele>37.1682</ele>
        <time>2011-06-02T13:18:49Z</time>
      </trkpt>
      <trkpt lat="46.37622" lon="-0.37831">
        <ele>37.1525</ele>
        <time>2011-06-02T13:18:50Z</time>
      </trkpt>
      <trkpt lat="46.37623" lon="-0.37832">
        <ele>37.1379</ele>
        <time>2011-06-02T13:18:51Z</time>
      </trkpt>
      <trkpt lat="46.37624" lon="-0.37833">
        <ele>37.1252</ele>
        <time>2011-06-02T13:18:52Z</time>
      </trkpt>
      <trkpt lat="46.37624" lon="-0.37834">
        <ele>37.1093</ele>
        <time>2011-06-02T13:18:53Z</time>
      </trkpt>
      <trkpt lat="46.37625" lon="-0.37835">
        <ele>37.0946</ele>
        <time>2011-06-02T13:18:54Z</time>
      </trkpt>
      <trkpt lat="46.37626" lon="-0.37836">
        <ele>37.0797</ele>
        <time>2011-06-02T13:18:55Z</time>
      </trkpt>
      <trkpt lat="46.37627" lon="-0.37836">
        <ele>37.0649</ele>
        <time>2011-06-02T13:18:56Z</time>
      </trkpt>
      <trkpt lat="46.37627" lon="-0.37837">
        <ele>37.0513</ele>
        <time>2011-06-02T13:18:57Z</time>
      </trkpt>
      <trkpt lat="46.37628" lon="-0.37838">
        <ele>37.0395</ele>
        <time>2011-06-02T13:18:58Z</time>
      </trkpt>
      <trkpt lat="46.37629" lon="-0.37839">
        <ele>37.0302</ele>
        <time>2011-06-02T13:18:59Z</time>
      </trkpt>
      <trkpt lat="46.3763" lon="-0.37839">
        <ele>37.0265</ele>
        <time>2011-06-02T13:19:00Z</time>
      </trkpt>
      <trkpt lat="46.37631" lon="-0.3784">
        <ele>37.0283</ele>
        <time>2011-06-02T13:19:01Z</time>
      </trkpt>
      <trkpt lat="46.37632" lon="-0.37841">
        <ele>37.029</ele>
        <time>2011-06-02T13:19:02Z</time>
      </trkpt>
      <trkpt lat="46.37633" lon="-0.37841">
        <ele>37.0352</ele>
        <time>2011-06-02T13:19:03Z</time>
      </trkpt>
      <trkpt lat="46.37634" lon="-0.37842">
        <ele>37.0454</ele>
        <time>2011-06-02T13:19:04Z</time>
      </trkpt>
      <trkpt lat="46.37634" lon="-0.37843">
        <ele>37.0548</ele>
        <time>2011-06-02T13:19:05Z</time>
      </trkpt>
      <trkpt lat="46.37635" lon="-0.37844">
        <ele>37.0646</ele>
        <time>2011-06-02T13:19:06Z</time>
      </trkpt>
      <trkpt lat="46.37635" lon="-0.37844">
        <ele>37.0701</ele>
        <time>2011-06-02T13:19:07Z</time>
      </trkpt>
      <trkpt lat="46.37636" lon="-0.37845">
        <ele>37.0735</ele>
        <time>2011-06-02T13:19:08Z</time>
      </trkpt>
      <trkpt lat="46.37637" lon="-0.37845">
        <ele>37.0752</ele>
        <time>2011-06-02T13:19:09Z</time>
      </trkpt>
      <trkpt lat="46.37638" lon="-0.37846">
        <ele>37.0772</ele>
        <time>2011-06-02T13:19:10Z</time>
      </trkpt>
      <trkpt lat="46.37639" lon="-0.37847">
        <ele>37.0764</ele>
        <time>2011-06-02T13:19:11Z</time>
      </trkpt>
      <trkpt lat="46.3764" lon="-0.37848">
        <ele>37.0801</ele>
        <time>2011-06-02T13:19:12Z</time>
      </trkpt>
      <trkpt lat="46.37642" lon="-0.37849">
        <ele>37.0861</ele>
        <time>2011-06-02T13:19:13Z</time>
      </trkpt>
      <trkpt lat="46.37642" lon="-0.3785">
        <ele>37.0932</ele>
        <time>2011-06-02T13:19:14Z</time>
      </trkpt>
      <trkpt lat="46.37643" lon="-0.37851">
        <ele>37.0991</ele>
        <time>2011-06-02T13:19:15Z</time>
      </trkpt>
      <trkpt lat="46.37644" lon="-0.37852">
        <ele>37.1052</ele>
        <time>2011-06-02T13:19:16Z</time>
      </trkpt>
      <trkpt lat="46.37645" lon="-0.37852">
        <ele>37.1139</ele>
        <time>2011-06-02T13:19:17Z</time>
      </trkpt>
      <trkpt lat="46.37647" lon="-0.37853">
        <ele>37.1235</ele>
        <time>2011-06-02T13:19:18Z</time>
      </trkpt>
      <trkpt lat="46.37647" lon="-0.37854">
        <ele>37.1335</ele>
        <time>2011-06-02T13:19:19Z</time>
      </trkpt>
      <trkpt lat="46.37648" lon="-0.37855">
        <ele>37.1446</ele>
        <time>2011-06-02T13:19:20Z</time>
      </trkpt>
      <trkpt lat="46.37649" lon="-0.37856">
        <ele>37.156</ele>
        <time>2011-06-02T13:19:21Z</time>
      </trkpt>
      <trkpt lat="46.3765" lon="-0.37857">
        <ele>37.1673</ele>
        <time>2011-06-02T13:19:22Z</time>
      </trkpt>
      <trkpt lat="46.37651" lon="-0.37858">
        <ele>37.1785</ele>
        <time>2011-06-02T13:19:23Z</time>
      </trkpt>
      <trkpt lat="46.37651" lon="-0.37859">
        <ele>37.1891</ele>
        <time>2011-06-02T13:19:24Z</time>
      </trkpt>
      <trkpt lat="46.37652" lon="-0.3786">
        <ele>37.2004</ele>
        <time>2011-06-02T13:19:25Z</time>
      </trkpt>
      <trkpt lat="46.37653" lon="-0.37861">
        <ele>37.2116</ele>
        <time>2011-06-02T13:19:26Z</time>
      </trkpt>
      <trkpt lat="46.37654" lon="-0.37861">
        <ele>37.2231</ele>
        <time>2011-06-02T13:19:27Z</time>
      </trkpt>
      <trkpt lat="46.37655" lon="-0.37862">
        <ele>37.2342</ele>
        <time>2011-06-02T13:19:28Z</time>
      </trkpt>
      <trkpt lat="46.37656" lon="-0.37862">
        <ele>37.2491</ele>
        <time>2011-06-02T13:19:29Z</time>
      </trkpt>
      <trkpt lat="46.37657" lon="-0.37863">
        <ele>37.2631</ele>
        <time>2011-06-02T13:19:30Z</time>
      </trkpt>
      <trkpt lat="46.37658" lon="-0.37863">
        <ele>37.2784</ele>
        <time>2011-06-02T13:19:31Z</time>
      </trkpt>
      <trkpt lat="46.37659" lon="-0.37863">
        <ele>37.2958</ele>
        <time>2011-06-02T13:19:32Z</time>
      </trkpt>
      <trkpt lat="46.3766" lon="-0.37863">
        <ele>37.3121</ele>
        <time>2011-06-02T13:19:33Z</time>
      </trkpt>
      <trkpt lat="46.37661" lon="-0.37864">
        <ele>37.325</ele>
        <time>2011-06-02T13:19:34Z</time>
      </trkpt>
      <trkpt lat="46.37663" lon="-0.37864">
        <ele>37.3387</ele>
        <time>2011-06-02T13:19:35Z</time>
      </trkpt>
      <trkpt lat="46.37664" lon="-0.37864">
        <ele>37.3567</ele>
        <time>2011-06-02T13:19:36Z</time>
      </trkpt>
      <trkpt lat="46.37665" lon="-0.37865">
        <ele>37.3473</ele>
        <time>2011-06-02T13:19:37Z</time>
      </trkpt>
      <trkpt lat="46.37667" lon="-0.37866">
        <ele>37.3478</ele>
        <time>2011-06-02T13:19:38Z</time>
      </trkpt>
      <trkpt lat="46.37668" lon="-0.37868">
        <ele>37.348</ele>
        <time>2011-06-02T13:19:39Z</time>
      </trkpt>
      <trkpt lat="46.37669" lon="-0.37869">
        <ele>37.3499</ele>
        <time>2011-06-02T13:19:40Z</time>
      </trkpt>
      <trkpt lat="46.3767" lon="-0.37871">
        <ele>37.3605</ele>
        <time>2011-06-02T13:19:41Z</time>
      </trkpt>
      <trkpt lat="46.37671" lon="-0.37872">
        <ele>37.372</ele>
        <time>2011-06-02T13:19:42Z</time>
      </trkpt>
      <trkpt lat="46.37672" lon="-0.37873">
        <ele>37.3812</ele>
        <time>2011-06-02T13:19:43Z</time>
      </trkpt>
      <trkpt lat="46.37672" lon="-0.37873">
        <ele>37.3744</ele>
        <time>2011-06-02T13:19:44Z</time>
      </trkpt>
      <trkpt lat="46.37673" lon="-0.37874">
        <ele>37.3528</ele>
        <time>2011-06-02T13:19:45Z</time>
      </trkpt>
      <trkpt lat="46.37675" lon="-0.37875">
        <ele>37.3299</ele>
        <time>2011-06-02T13:19:46Z</time>
      </trkpt>
      <trkpt lat="46.37676" lon="-0.37875">
        <ele>37.3064</ele>
        <time>2011-06-02T13:19:47Z</time>
      </trkpt>
      <trkpt lat="46.37677" lon="-0.37875">
        <ele>37.2782</ele>
        <time>2011-06-02T13:19:48Z</time>
      </trkpt>
      <trkpt lat="46.37678" lon="-0.37875">
        <ele>37.2482</ele>
        <time>2011-06-02T13:19:49Z</time>
      </trkpt>
      <trkpt lat="46.37679" lon="-0.37875">
        <ele>37.2154</ele>
        <time>2011-06-02T13:19:50Z</time>
      </trkpt>
      <trkpt lat="46.3768" lon="-0.37875">
        <ele>37.1814</ele>
        <time>2011-06-02T13:19:51Z</time>
      </trkpt>
      <trkpt lat="46.37682" lon="-0.37876">
        <ele>37.1456</ele>
        <time>2011-06-02T13:19:52Z</time>
      </trkpt>
      <trkpt lat="46.37682" lon="-0.37876">
        <ele>37.1048</ele>
        <time>2011-06-02T13:19:53Z</time>
      </trkpt>
      <trkpt lat="46.37684" lon="-0.37877">
        <ele>37.051</ele>
        <time>2011-06-02T13:19:54Z</time>
      </trkpt>
      <trkpt lat="46.37685" lon="-0.37878">
        <ele>36.9858</ele>
        <time>2011-06-02T13:19:55Z</time>
      </trkpt>
      <trkpt lat="46.37686" lon="-0.37879">
        <ele>36.9131</ele>
        <time>2011-06-02T13:19:56Z</time>
      </trkpt>
      <trkpt lat="46.37687" lon="-0.3788">
        <ele>36.8306</ele>
        <time>2011-06-02T13:19:57Z</time>
      </trkpt>
      <trkpt lat="46.37688" lon="-0.3788">
        <ele>36.7494</ele>
        <time>2011-06-02T13:19:58Z</time>
      </trkpt>
      <trkpt lat="46.3769" lon="-0.37881">
        <ele>36.6692</ele>
        <time>2011-06-02T13:19:59Z</time>
      </trkpt>
      <trkpt lat="46.37691" lon="-0.37881">
        <ele>36.5887</ele>
        <time>2011-06-02T13:20:00Z</time>
      </trkpt>
      <trkpt lat="46.37692" lon="-0.37882">
        <ele>36.5103</ele>
        <time>2011-06-02T13:20:01Z</time>
      </trkpt>
      <trkpt lat="46.37693" lon="-0.37882">
        <ele>36.4388</ele>
        <time>2011-06-02T13:20:02Z</time>
      </trkpt>
      <trkpt lat="46.37694" lon="-0.37883">
        <ele>36.3779</ele>
        <time>2011-06-02T13:20:03Z</time>
      </trkpt>
      <trkpt lat="46.37695" lon="-0.37883">
        <ele>36.3294</ele>
        <time>2011-06-02T13:20:04Z</time>
      </trkpt>
      <trkpt lat="46.37697" lon="-0.37883">
        <ele>36.2809</ele>
        <time>2011-06-02T13:20:05Z</time>
      </trkpt>
      <trkpt lat="46.37697" lon="-0.37883">
        <ele>36.2301</ele>
        <time>2011-06-02T13:20:06Z</time>
      </trkpt>
      <trkpt lat="46.37698" lon="-0.37884">
        <ele>36.1825</ele>
        <time>2011-06-02T13:20:07Z</time>
      </trkpt>
      <trkpt lat="46.37699" lon="-0.37884">
        <ele>36.1383</ele>
        <time>2011-06-02T13:20:08Z</time>
      </trkpt>
      <trkpt lat="46.377" lon="-0.37884">
        <ele>36.0994</ele>
        <time>2011-06-02T13:20:09Z</time>
      </trkpt>
      <trkpt lat="46.37702" lon="-0.37883">
        <ele>36.0093</ele>
        <time>2011-06-02T13:20:14Z</time>
      </trkpt>
      <trkpt lat="46.37703" lon="-0.37883">
        <ele>35.9662</ele>
        <time>2011-06-02T13:20:15Z</time>
      </trkpt>
      <trkpt lat="46.37703" lon="-0.37883">
        <ele>35.9195</ele>
        <time>2011-06-02T13:20:16Z</time>
      </trkpt>
      <trkpt lat="46.37704" lon="-0.37885">
        <ele>35.8717</ele>
        <time>2011-06-02T13:20:17Z</time>
      </trkpt>
      <trkpt lat="46.37705" lon="-0.37886">
        <ele>35.8264</ele>
        <time>2011-06-02T13:20:18Z</time>
      </trkpt>
      <trkpt lat="46.37706" lon="-0.37888">
        <ele>35.7838</ele>
        <time>2011-06-02T13:20:19Z</time>
      </trkpt>
      <trkpt lat="46.37706" lon="-0.37889">
        <ele>35.7387</ele>
        <time>2011-06-02T13:20:20Z</time>
      </trkpt>
      <trkpt lat="46.37708" lon="-0.37891">
        <ele>35.6961</ele>
        <time>2011-06-02T13:20:21Z</time>
      </trkpt>
      <trkpt lat="46.37709" lon="-0.37892">
        <ele>35.6548</ele>
        <time>2011-06-02T13:20:22Z</time>
      </trkpt>
      <trkpt lat="46.3771" lon="-0.37893">
        <ele>35.6145</ele>
        <time>2011-06-02T13:20:23Z</time>
      </trkpt>
      <trkpt lat="46.37711" lon="-0.37893">
        <ele>35.5769</ele>
        <time>2011-06-02T13:20:24Z</time>
      </trkpt>
      <trkpt lat="46.37713" lon="-0.37894">
        <ele>35.547</ele>
        <time>2011-06-02T13:20:25Z</time>
      </trkpt>
      <trkpt lat="46.37714" lon="-0.37895">
        <ele>35.5203</ele>
        <time>2011-06-02T13:20:26Z</time>
      </trkpt>
      <trkpt lat="46.37715" lon="-0.37896">
        <ele>35.4943</ele>
        <time>2011-06-02T13:20:27Z</time>
      </trkpt>
      <trkpt lat="46.37716" lon="-0.37896">
        <ele>35.4695</ele>
        <time>2011-06-02T13:20:28Z</time>
      </trkpt>
      <trkpt lat="46.37717" lon="-0.37897">
        <ele>35.4446</ele>
        <time>2011-06-02T13:20:29Z</time>
      </trkpt>
      <trkpt lat="46.37719" lon="-0.37897">
        <ele>35.4196</ele>
        <time>2011-06-02T13:20:30Z</time>
      </trkpt>
      <trkpt lat="46.3772" lon="-0.37897">
        <ele>35.3948</ele>
        <time>2011-06-02T13:20:31Z</time>
      </trkpt>
      <trkpt lat="46.37721" lon="-0.37898">
        <ele>35.3791</ele>
        <time>2011-06-02T13:20:32Z</time>
      </trkpt>
      <trkpt lat="46.37722" lon="-0.37899">
        <ele>35.3813</ele>
        <time>2011-06-02T13:20:33Z</time>
      </trkpt>
      <trkpt lat="46.37722" lon="-0.37899">
        <ele>35.3959</ele>
        <time>2011-06-02T13:20:34Z</time>
      </trkpt>
      <trkpt lat="46.37724" lon="-0.379">
        <ele>35.4137</ele>
        <time>2011-06-02T13:20:35Z</time>
      </trkpt>
      <trkpt lat="46.37725" lon="-0.379">
        <ele>35.4349</ele>
        <time>2011-06-02T13:20:36Z</time>
      </trkpt>
      <trkpt lat="46.37725" lon="-0.379">
        <ele>35.4583</ele>
        <time>2011-06-02T13:20:37Z</time>
      </trkpt>
      <trkpt lat="46.37727" lon="-0.37901">
        <ele>35.4816</ele>
        <time>2011-06-02T13:20:38Z</time>
      </trkpt>
      <trkpt lat="46.37727" lon="-0.37901">
        <ele>35.5041</ele>
        <time>2011-06-02T13:20:39Z</time>
      </trkpt>
      <trkpt lat="46.37728" lon="-0.37902">
        <ele>35.5246</ele>
        <time>2011-06-02T13:20:40Z</time>
      </trkpt>
      <trkpt lat="46.37729" lon="-0.37902">
        <ele>35.5427</ele>
        <time>2011-06-02T13:20:41Z</time>
      </trkpt>
      <trkpt lat="46.37729" lon="-0.37903">
        <ele>35.5576</ele>
        <time>2011-06-02T13:20:42Z</time>
      </trkpt>
      <trkpt lat="46.3773" lon="-0.37904">
        <ele>35.5696</ele>
        <time>2011-06-02T13:20:43Z</time>
      </trkpt>
      <trkpt lat="46.37731" lon="-0.37905">
        <ele>35.5796</ele>
        <time>2011-06-02T13:20:44Z</time>
      </trkpt>
      <trkpt lat="46.37732" lon="-0.37905">
        <ele>35.5869</ele>
        <time>2011-06-02T13:20:45Z</time>
      </trkpt>
      <trkpt lat="46.37733" lon="-0.37906">
        <ele>35.5931</ele>
        <time>2011-06-02T13:20:46Z</time>
      </trkpt>
      <trkpt lat="46.37734" lon="-0.37906">
        <ele>35.5964</ele>
        <time>2011-06-02T13:20:47Z</time>
      </trkpt>
      <trkpt lat="46.37734" lon="-0.37907">
        <ele>35.5973</ele>
        <time>2011-06-02T13:20:48Z</time>
      </trkpt>
      <trkpt lat="46.37735" lon="-0.37907">
        <ele>35.5991</ele>
        <time>2011-06-02T13:20:49Z</time>
      </trkpt>
      <trkpt lat="46.37737" lon="-0.37907">
        <ele>35.5998</ele>
        <time>2011-06-02T13:20:50Z</time>
      </trkpt>
      <trkpt lat="46.37738" lon="-0.37907">
        <ele>35.5978</ele>
        <time>2011-06-02T13:20:51Z</time>
      </trkpt>
      <trkpt lat="46.3774" lon="-0.37909">
        <ele>35.5835</ele>
        <time>2011-06-02T13:20:54Z</time>
      </trkpt>
      <trkpt lat="46.37741" lon="-0.37909">
        <ele>35.5745</ele>
        <time>2011-06-02T13:20:55Z</time>
      </trkpt>
      <trkpt lat="46.37742" lon="-0.3791">
        <ele>35.5671</ele>
        <time>2011-06-02T13:20:56Z</time>
      </trkpt>
      <trkpt lat="46.37743" lon="-0.3791">
        <ele>35.5599</ele>
        <time>2011-06-02T13:20:57Z</time>
      </trkpt>
      <trkpt lat="46.37744" lon="-0.37911">
        <ele>35.5538</ele>
        <time>2011-06-02T13:20:58Z</time>
      </trkpt>
      <trkpt lat="46.37745" lon="-0.37912">
        <ele>35.5473</ele>
        <time>2011-06-02T13:20:59Z</time>
      </trkpt>
      <trkpt lat="46.37746" lon="-0.37912">
        <ele>35.5413</ele>
        <time>2011-06-02T13:21:00Z</time>
      </trkpt>
      <trkpt lat="46.37747" lon="-0.37912">
        <ele>35.5361</ele>
        <time>2011-06-02T13:21:01Z</time>
      </trkpt>
      <trkpt lat="46.37748" lon="-0.37913">
        <ele>35.5313</ele>
        <time>2011-06-02T13:21:02Z</time>
      </trkpt>
      <trkpt lat="46.37749" lon="-0.37913">
        <ele>35.527</ele>
        <time>2011-06-02T13:21:03Z</time>
      </trkpt>
      <trkpt lat="46.3775" lon="-0.37914">
        <ele>35.522</ele>
        <time>2011-06-02T13:21:04Z</time>
      </trkpt>
      <trkpt lat="46.37751" lon="-0.37914">
        <ele>35.5175</ele>
        <time>2011-06-02T13:21:05Z</time>
      </trkpt>
      <trkpt lat="46.37752" lon="-0.37915">
        <ele>35.5131</ele>
        <time>2011-06-02T13:21:06Z</time>
      </trkpt>
      <trkpt lat="46.37753" lon="-0.37915">
        <ele>35.509</ele>
        <time>2011-06-02T13:21:07Z</time>
      </trkpt>
      <trkpt lat="46.37754" lon="-0.37916">
        <ele>35.5049</ele>
        <time>2011-06-02T13:21:08Z</time>
      </trkpt>
      <trkpt lat="46.37754" lon="-0.37917">
        <ele>35.4992</ele>
        <time>2011-06-02T13:21:09Z</time>
      </trkpt>
      <trkpt lat="46.37755" lon="-0.37918">
        <ele>35.4954</ele>
        <time>2011-06-02T13:21:10Z</time>
      </trkpt>
      <trkpt lat="46.37756" lon="-0.37919">
        <ele>35.4893</ele>
        <time>2011-06-02T13:21:11Z</time>
      </trkpt>
      <trkpt lat="46.37757" lon="-0.3792">
        <ele>35.4783</ele>
        <time>2011-06-02T13:21:12Z</time>
      </trkpt>
      <trkpt lat="46.37758" lon="-0.37921">
        <ele>35.4681</ele>
        <time>2011-06-02T13:21:13Z</time>
      </trkpt>
      <trkpt lat="46.37759" lon="-0.37922">
        <ele>35.4552</ele>
        <time>2011-06-02T13:21:14Z</time>
      </trkpt>
      <trkpt lat="46.37759" lon="-0.37922">
        <ele>35.4459</ele>
        <time>2011-06-02T13:21:15Z</time>
      </trkpt>
      <trkpt lat="46.3776" lon="-0.37923">
        <ele>35.4358</ele>
        <time>2011-06-02T13:21:16Z</time>
      </trkpt>
      <trkpt lat="46.37761" lon="-0.37924">
        <ele>35.4242</ele>
        <time>2011-06-02T13:21:17Z</time>
      </trkpt>
      <trkpt lat="46.37761" lon="-0.37925">
        <ele>35.4116</ele>
        <time>2011-06-02T13:21:18Z</time>
      </trkpt>
      <trkpt lat="46.37762" lon="-0.37926">
        <ele>35.3974</ele>
        <time>2011-06-02T13:21:19Z</time>
      </trkpt>
      <trkpt lat="46.37763" lon="-0.37927">
        <ele>35.3841</ele>
        <time>2011-06-02T13:21:20Z</time>
      </trkpt>
      <trkpt lat="46.37764" lon="-0.37928">
        <ele>35.3716</ele>
        <time>2011-06-02T13:21:21Z</time>
      </trkpt>
      <trkpt lat="46.37764" lon="-0.37929">
        <ele>35.3598</ele>
        <time>2011-06-02T13:21:22Z</time>
      </trkpt>
      <trkpt lat="46.37766" lon="-0.37931">
        <ele>35.3495</ele>
        <time>2011-06-02T13:21:23Z</time>
      </trkpt>
      <trkpt lat="46.37766" lon="-0.37932">
        <ele>35.339</ele>
        <time>2011-06-02T13:21:24Z</time>
      </trkpt>
      <trkpt lat="46.37767" lon="-0.37933">
        <ele>35.3291</ele>
        <time>2011-06-02T13:21:25Z</time>
      </trkpt>
      <trkpt lat="46.37768" lon="-0.37934">
        <ele>35.3195</ele>
        <time>2011-06-02T13:21:26Z</time>
      </trkpt>
      <trkpt lat="46.37768" lon="-0.37935">
        <ele>35.3102</ele>
        <time>2011-06-02T13:21:27Z</time>
      </trkpt>
      <trkpt lat="46.37769" lon="-0.37936">
        <ele>35.3009</ele>
        <time>2011-06-02T13:21:28Z</time>
      </trkpt>
      <trkpt lat="46.3777" lon="-0.37937">
        <ele>35.2939</ele>
        <time>2011-06-02T13:21:29Z</time>
      </trkpt>
      <trkpt lat="46.37771" lon="-0.37939">
        <ele>35.2884</ele>
        <time>2011-06-02T13:21:30Z</time>
      </trkpt>
      <trkpt lat="46.37771" lon="-0.3794">
        <ele>35.2827</ele>
        <time>2011-06-02T13:21:31Z</time>
      </trkpt>
      <trkpt lat="46.37771" lon="-0.37941">
        <ele>35.2772</ele>
        <time>2011-06-02T13:21:32Z</time>
      </trkpt>
      <trkpt lat="46.37772" lon="-0.37943">
        <ele>35.2715</ele>
        <time>2011-06-02T13:21:33Z</time>
      </trkpt>
      <trkpt lat="46.37773" lon="-0.37944">
        <ele>35.2661</ele>
        <time>2011-06-02T13:21:34Z</time>
      </trkpt>
      <trkpt lat="46.37774" lon="-0.37945">
        <ele>35.2614</ele>
        <time>2011-06-02T13:21:35Z</time>
      </trkpt>
      <trkpt lat="46.37775" lon="-0.37947">
        <ele>35.2595</ele>
        <time>2011-06-02T13:21:36Z</time>
      </trkpt>
      <trkpt lat="46.37776" lon="-0.37949">
        <ele>35.2585</ele>
        <time>2011-06-02T13:21:37Z</time>
      </trkpt>
      <trkpt lat="46.37777" lon="-0.3795">
        <ele>35.2576</ele>
        <time>2011-06-02T13:21:38Z</time>
      </trkpt>
      <trkpt lat="46.37777" lon="-0.37951">
        <ele>35.2564</ele>
        <time>2011-06-02T13:21:39Z</time>
      </trkpt>
      <trkpt lat="46.37778" lon="-0.37953">
        <ele>35.2524</ele>
        <time>2011-06-02T13:21:40Z</time>
      </trkpt>
      <trkpt lat="46.37779" lon="-0.37954">
        <ele>35.2519</ele>
        <time>2011-06-02T13:21:41Z</time>
      </trkpt>
      <trkpt lat="46.37779" lon="-0.37955">
        <ele>35.253</ele>
        <time>2011-06-02T13:21:42Z</time>
      </trkpt>
      <trkpt lat="46.3778" lon="-0.37956">
        <ele>35.2535</ele>
        <time>2011-06-02T13:21:43Z</time>
      </trkpt>
      <trkpt lat="46.37781" lon="-0.37957">
        <ele>35.2529</ele>
        <time>2011-06-02T13:21:44Z</time>
      </trkpt>
      <trkpt lat="46.37782" lon="-0.37959">
        <ele>35.2556</ele>
        <time>2011-06-02T13:21:45Z</time>
      </trkpt>
      <trkpt lat="46.37783" lon="-0.3796">
        <ele>35.2588</ele>
        <time>2011-06-02T13:21:46Z</time>
      </trkpt>
      <trkpt lat="46.37783" lon="-0.37961">
        <ele>35.2643</ele>
        <time>2011-06-02T13:21:47Z</time>
      </trkpt>
      <trkpt lat="46.37785" lon="-0.37962">
        <ele>35.2698</ele>
        <time>2011-06-02T13:21:48Z</time>
      </trkpt>
      <trkpt lat="46.37785" lon="-0.37964">
        <ele>35.2838</ele>
        <time>2011-06-02T13:21:49Z</time>
      </trkpt>
      <trkpt lat="46.37786" lon="-0.37965">
        <ele>35.2962</ele>
        <time>2011-06-02T13:21:50Z</time>
      </trkpt>
      <trkpt lat="46.37787" lon="-0.37965">
        <ele>35.3062</ele>
        <time>2011-06-02T13:21:51Z</time>
      </trkpt>
      <trkpt lat="46.37788" lon="-0.37964">
        <ele>35.2766</ele>
        <time>2011-06-02T13:21:54Z</time>
      </trkpt>
      <trkpt lat="46.37789" lon="-0.37965">
        <ele>35.2623</ele>
        <time>2011-06-02T13:21:55Z</time>
      </trkpt>
      <trkpt lat="46.3779" lon="-0.37967">
        <ele>35.2501</ele>
        <time>2011-06-02T13:21:56Z</time>
      </trkpt>
      <trkpt lat="46.3779" lon="-0.37968">
        <ele>35.2344</ele>
        <time>2011-06-02T13:21:57Z</time>
      </trkpt>
      <trkpt lat="46.37791" lon="-0.3797">
        <ele>35.219</ele>
        <time>2011-06-02T13:21:58Z</time>
      </trkpt>
      <trkpt lat="46.37792" lon="-0.37972">
        <ele>35.2036</ele>
        <time>2011-06-02T13:21:59Z</time>
      </trkpt>
      <trkpt lat="46.37792" lon="-0.37973">
        <ele>35.1853</ele>
        <time>2011-06-02T13:22:00Z</time>
      </trkpt>
      <trkpt lat="46.37793" lon="-0.37975">
        <ele>35.1674</ele>
        <time>2011-06-02T13:22:01Z</time>
      </trkpt>
      <trkpt lat="46.37794" lon="-0.37976">
        <ele>35.149</ele>
        <time>2011-06-02T13:22:02Z</time>
      </trkpt>
      <trkpt lat="46.37794" lon="-0.37977">
        <ele>35.1304</ele>
        <time>2011-06-02T13:22:03Z</time>
      </trkpt>
      <trkpt lat="46.37795" lon="-0.37979">
        <ele>35.1133</ele>
        <time>2011-06-02T13:22:04Z</time>
      </trkpt>
      <trkpt lat="46.37795" lon="-0.3798">
        <ele>35.0973</ele>
        <time>2011-06-02T13:22:05Z</time>
      </trkpt>
      <trkpt lat="46.37796" lon="-0.37982">
        <ele>35.0808</ele>
        <time>2011-06-02T13:22:06Z</time>
      </trkpt>
      <trkpt lat="46.37796" lon="-0.37984">
        <ele>35.066</ele>
        <time>2011-06-02T13:22:07Z</time>
      </trkpt>
      <trkpt lat="46.37797" lon="-0.37986">
        <ele>35.0474</ele>
        <time>2011-06-02T13:22:08Z</time>
      </trkpt>
      <trkpt lat="46.37798" lon="-0.37987">
        <ele>35.0277</ele>
        <time>2011-06-02T13:22:09Z</time>
      </trkpt>
      <trkpt lat="46.37799" lon="-0.37989">
        <ele>35.007</ele>
        <time>2011-06-02T13:22:10Z</time>
      </trkpt>
      <trkpt lat="46.378" lon="-0.3799">
        <ele>34.9866</ele>
        <time>2011-06-02T13:22:11Z</time>
      </trkpt>
      <trkpt lat="46.37801" lon="-0.37992">
        <ele>34.9655</ele>
        <time>2011-06-02T13:22:12Z</time>
      </trkpt>
      <trkpt lat="46.37801" lon="-0.37993">
        <ele>34.9466</ele>
        <time>2011-06-02T13:22:13Z</time>
      </trkpt>
      <trkpt lat="46.37801" lon="-0.37994">
        <ele>34.9286</ele>
        <time>2011-06-02T13:22:14Z</time>
      </trkpt>
      <trkpt lat="46.37802" lon="-0.37995">
        <ele>34.9126</ele>
        <time>2011-06-02T13:22:15Z</time>
      </trkpt>
      <trkpt lat="46.37803" lon="-0.37996">
        <ele>34.9011</ele>
        <time>2011-06-02T13:22:16Z</time>
      </trkpt>
      <trkpt lat="46.37803" lon="-0.37997">
        <ele>34.884</ele>
        <time>2011-06-02T13:22:17Z</time>
      </trkpt>
      <trkpt lat="46.37804" lon="-0.37998">
        <ele>34.8691</ele>
        <time>2011-06-02T13:22:18Z</time>
      </trkpt>
      <trkpt lat="46.37804" lon="-0.38">
        <ele>34.8583</ele>
        <time>2011-06-02T13:22:19Z</time>
      </trkpt>
      <trkpt lat="46.37805" lon="-0.38001">
        <ele>34.856</ele>
        <time>2011-06-02T13:22:20Z</time>
      </trkpt>
      <trkpt lat="46.37806" lon="-0.38003">
        <ele>34.856</ele>
        <time>2011-06-02T13:22:21Z</time>
      </trkpt>
      <trkpt lat="46.37804" lon="-0.38002">
        <ele>34.857</ele>
        <time>2011-06-02T13:22:22Z</time>
      </trkpt>
      <trkpt lat="46.37804" lon="-0.38003">
        <ele>34.8577</ele>
        <time>2011-06-02T13:22:23Z</time>
      </trkpt>
      <trkpt lat="46.37805" lon="-0.38003">
        <ele>34.8477</ele>
        <time>2011-06-02T13:22:24Z</time>
      </trkpt>
      <trkpt lat="46.37806" lon="-0.38004">
        <ele>34.8358</ele>
        <time>2011-06-02T13:22:25Z</time>
      </trkpt>
      <trkpt lat="46.37806" lon="-0.38006">
        <ele>34.8241</ele>
        <time>2011-06-02T13:22:26Z</time>
      </trkpt>
      <trkpt lat="46.37807" lon="-0.38007">
        <ele>34.8058</ele>
        <time>2011-06-02T13:22:27Z</time>
      </trkpt>
      <trkpt lat="46.37808" lon="-0.38009">
        <ele>34.7813</ele>
        <time>2011-06-02T13:22:28Z</time>
      </trkpt>
      <trkpt lat="46.37809" lon="-0.38011">
        <ele>34.7586</ele>
        <time>2011-06-02T13:22:29Z</time>
      </trkpt>
      <trkpt lat="46.37809" lon="-0.38012">
        <ele>34.7327</ele>
        <time>2011-06-02T13:22:30Z</time>
      </trkpt>
      <trkpt lat="46.37809" lon="-0.38013">
        <ele>34.7066</ele>
        <time>2011-06-02T13:22:31Z</time>
      </trkpt>
      <trkpt lat="46.3781" lon="-0.38015">
        <ele>34.6817</ele>
        <time>2011-06-02T13:22:32Z</time>
      </trkpt>
      <trkpt lat="46.37811" lon="-0.38016">
        <ele>34.6565</ele>
        <time>2011-06-02T13:22:33Z</time>
      </trkpt>
      <trkpt lat="46.37811" lon="-0.38016">
        <ele>34.6387</ele>
        <time>2011-06-02T13:22:34Z</time>
      </trkpt>
      <trkpt lat="46.37812" lon="-0.38017">
        <ele>34.6215</ele>
        <time>2011-06-02T13:22:35Z</time>
      </trkpt>
      <trkpt lat="46.37812" lon="-0.38017">
        <ele>34.6037</ele>
        <time>2011-06-02T13:22:36Z</time>
      </trkpt>
      <trkpt lat="46.37813" lon="-0.38018">
        <ele>34.5856</ele>
        <time>2011-06-02T13:22:37Z</time>
      </trkpt>
      <trkpt lat="46.37814" lon="-0.38019">
        <ele>34.5735</ele>
        <time>2011-06-02T13:22:38Z</time>
      </trkpt>
      <trkpt lat="46.37814" lon="-0.38021">
        <ele>34.5604</ele>
        <time>2011-06-02T13:22:39Z</time>
      </trkpt>
      <trkpt lat="46.37814" lon="-0.38022">
        <ele>34.5483</ele>
        <time>2011-06-02T13:22:40Z</time>
      </trkpt>
      <trkpt lat="46.37815" lon="-0.38023">
        <ele>34.5406</ele>
        <time>2011-06-02T13:22:41Z</time>
      </trkpt>
      <trkpt lat="46.37816" lon="-0.38025">
        <ele>34.5339</ele>
        <time>2011-06-02T13:22:42Z</time>
      </trkpt>
      <trkpt lat="46.37816" lon="-0.38026">
        <ele>34.5258</ele>
        <time>2011-06-02T13:22:43Z</time>
      </trkpt>
      <trkpt lat="46.37817" lon="-0.38027">
        <ele>34.5206</ele>
        <time>2011-06-02T13:22:44Z</time>
      </trkpt>
      <trkpt lat="46.37817" lon="-0.38028">
        <ele>34.5174</ele>
        <time>2011-06-02T13:22:45Z</time>
      </trkpt>
      <trkpt lat="46.37818" lon="-0.3803">
        <ele>34.5155</ele>
        <time>2011-06-02T13:22:46Z</time>
      </trkpt>
      <trkpt lat="46.37818" lon="-0.38031">
        <ele>34.5267</ele>
        <time>2011-06-02T13:22:47Z</time>
      </trkpt>
      <trkpt lat="46.37819" lon="-0.38032">
        <ele>34.5384</ele>
        <time>2011-06-02T13:22:48Z</time>
      </trkpt>
      <trkpt lat="46.37819" lon="-0.38034">
        <ele>34.5512</ele>
        <time>2011-06-02T13:22:49Z</time>
      </trkpt>
      <trkpt lat="46.37819" lon="-0.38035">
        <ele>34.5643</ele>
        <time>2011-06-02T13:22:50Z</time>
      </trkpt>
      <trkpt lat="46.37819" lon="-0.38036">
        <ele>34.5778</ele>
        <time>2011-06-02T13:22:51Z</time>
      </trkpt>
      <trkpt lat="46.3782" lon="-0.38037">
        <ele>34.5982</ele>
        <time>2011-06-02T13:22:52Z</time>
      </trkpt>
      <trkpt lat="46.3782" lon="-0.38038">
        <ele>34.6259</ele>
        <time>2011-06-02T13:22:53Z</time>
      </trkpt>
      <trkpt lat="46.37821" lon="-0.38039">
        <ele>34.653</ele>
        <time>2011-06-02T13:22:54Z</time>
      </trkpt>
      <trkpt lat="46.37822" lon="-0.38041">
        <ele>34.6795</ele>
        <time>2011-06-02T13:22:55Z</time>
      </trkpt>
      <trkpt lat="46.37822" lon="-0.38042">
        <ele>34.7053</ele>
        <time>2011-06-02T13:22:56Z</time>
      </trkpt>
      <trkpt lat="46.37823" lon="-0.38044">
        <ele>34.7322</ele>
        <time>2011-06-02T13:22:57Z</time>
      </trkpt>
      <trkpt lat="46.37824" lon="-0.38045">
        <ele>34.7579</ele>
        <time>2011-06-02T13:22:58Z</time>
      </trkpt>
      <trkpt lat="46.37824" lon="-0.38047">
        <ele>34.7824</ele>
        <time>2011-06-02T13:22:59Z</time>
      </trkpt>
      <trkpt lat="46.37824" lon="-0.38048">
        <ele>34.8071</ele>
        <time>2011-06-02T13:23:00Z</time>
      </trkpt>
      <trkpt lat="46.37825" lon="-0.38049">
        <ele>34.8315</ele>
        <time>2011-06-02T13:23:01Z</time>
      </trkpt>
      <trkpt lat="46.37825" lon="-0.3805">
        <ele>34.856</ele>
        <time>2011-06-02T13:23:02Z</time>
      </trkpt>
      <trkpt lat="46.37825" lon="-0.38052">
        <ele>34.8813</ele>
        <time>2011-06-02T13:23:03Z</time>
      </trkpt>
      <trkpt lat="46.37825" lon="-0.38053">
        <ele>34.9105</ele>
        <time>2011-06-02T13:23:04Z</time>
      </trkpt>
      <trkpt lat="46.37826" lon="-0.38055">
        <ele>34.9424</ele>
        <time>2011-06-02T13:23:05Z</time>
      </trkpt>
      <trkpt lat="46.37827" lon="-0.38057">
        <ele>34.9782</ele>
        <time>2011-06-02T13:23:06Z</time>
      </trkpt>
      <trkpt lat="46.37827" lon="-0.38059">
        <ele>35.0119</ele>
        <time>2011-06-02T13:23:07Z</time>
      </trkpt>
      <trkpt lat="46.37827" lon="-0.3806">
        <ele>35.047</ele>
        <time>2011-06-02T13:23:08Z</time>
      </trkpt>
      <trkpt lat="46.37828" lon="-0.38062">
        <ele>35.0807</ele>
        <time>2011-06-02T13:23:09Z</time>
      </trkpt>
      <trkpt lat="46.37828" lon="-0.38064">
        <ele>35.1134</ele>
        <time>2011-06-02T13:23:10Z</time>
      </trkpt>
      <trkpt lat="46.37829" lon="-0.38065">
        <ele>35.1448</ele>
        <time>2011-06-02T13:23:11Z</time>
      </trkpt>
      <trkpt lat="46.37829" lon="-0.38067">
        <ele>35.1728</ele>
        <time>2011-06-02T13:23:12Z</time>
      </trkpt>
      <trkpt lat="46.3783" lon="-0.38068">
        <ele>35.1937</ele>
        <time>2011-06-02T13:23:13Z</time>
      </trkpt>
      <trkpt lat="46.37831" lon="-0.3807">
        <ele>35.237</ele>
        <time>2011-06-02T13:23:16Z</time>
      </trkpt>
      <trkpt lat="46.37831" lon="-0.38072">
        <ele>35.2573</ele>
        <time>2011-06-02T13:23:17Z</time>
      </trkpt>
      <trkpt lat="46.37832" lon="-0.38073">
        <ele>35.2809</ele>
        <time>2011-06-02T13:23:18Z</time>
      </trkpt>
      <trkpt lat="46.37832" lon="-0.38074">
        <ele>35.3041</ele>
        <time>2011-06-02T13:23:19Z</time>
      </trkpt>
      <trkpt lat="46.37833" lon="-0.38075">
        <ele>35.3263</ele>
        <time>2011-06-02T13:23:20Z</time>
      </trkpt>
      <trkpt lat="46.37833" lon="-0.38076">
        <ele>35.3539</ele>
        <time>2011-06-02T13:23:21Z</time>
      </trkpt>
      <trkpt lat="46.37834" lon="-0.38077">
        <ele>35.3802</ele>
        <time>2011-06-02T13:23:22Z</time>
      </trkpt>
      <trkpt lat="46.37834" lon="-0.38078">
        <ele>35.4065</ele>
        <time>2011-06-02T13:23:23Z</time>
      </trkpt>
      <trkpt lat="46.37834" lon="-0.3808">
        <ele>35.4321</ele>
        <time>2011-06-02T13:23:24Z</time>
      </trkpt>
      <trkpt lat="46.37835" lon="-0.38081">
        <ele>35.4633</ele>
        <time>2011-06-02T13:23:25Z</time>
      </trkpt>
      <trkpt lat="46.37835" lon="-0.38082">
        <ele>35.4937</ele>
        <time>2011-06-02T13:23:26Z</time>
      </trkpt>
      <trkpt lat="46.37835" lon="-0.38083">
        <ele>35.5261</ele>
        <time>2011-06-02T13:23:27Z</time>
      </trkpt>
      <trkpt lat="46.37836" lon="-0.38084">
        <ele>35.558</ele>
        <time>2011-06-02T13:23:28Z</time>
      </trkpt>
      <trkpt lat="46.37836" lon="-0.38085">
        <ele>35.5965</ele>
        <time>2011-06-02T13:23:29Z</time>
      </trkpt>
      <trkpt lat="46.37837" lon="-0.38087">
        <ele>35.6386</ele>
        <time>2011-06-02T13:23:30Z</time>
      </trkpt>
      <trkpt lat="46.37837" lon="-0.38089">
        <ele>35.686</ele>
        <time>2011-06-02T13:23:31Z</time>
      </trkpt>
      <trkpt lat="46.37837" lon="-0.3809">
        <ele>35.7333</ele>
        <time>2011-06-02T13:23:32Z</time>
      </trkpt>
      <trkpt lat="46.37838" lon="-0.38091">
        <ele>35.7831</ele>
        <time>2011-06-02T13:23:33Z</time>
      </trkpt>
      <trkpt lat="46.37838" lon="-0.38093">
        <ele>35.8323</ele>
        <time>2011-06-02T13:23:34Z</time>
      </trkpt>
      <trkpt lat="46.37838" lon="-0.38095">
        <ele>35.8798</ele>
        <time>2011-06-02T13:23:35Z</time>
      </trkpt>
      <trkpt lat="46.37838" lon="-0.38097">
        <ele>35.9328</ele>
        <time>2011-06-02T13:23:36Z</time>
      </trkpt>
      <trkpt lat="46.37839" lon="-0.38098">
        <ele>35.9911</ele>
        <time>2011-06-02T13:23:37Z</time>
      </trkpt>
      <trkpt lat="46.37839" lon="-0.381">
        <ele>36.0437</ele>
        <time>2011-06-02T13:23:38Z</time>
      </trkpt>
      <trkpt lat="46.3784" lon="-0.38101">
        <ele>36.0947</ele>
        <time>2011-06-02T13:23:39Z</time>
      </trkpt>
      <trkpt lat="46.3784" lon="-0.38103">
        <ele>36.1468</ele>
        <time>2011-06-02T13:23:40Z</time>
      </trkpt>
      <trkpt lat="46.37841" lon="-0.38105">
        <ele>36.2</ele>
        <time>2011-06-02T13:23:41Z</time>
      </trkpt>
      <trkpt lat="46.37841" lon="-0.38107">
        <ele>36.2548</ele>
        <time>2011-06-02T13:23:42Z</time>
      </trkpt>
      <trkpt lat="46.37841" lon="-0.38108">
        <ele>36.3096</ele>
        <time>2011-06-02T13:23:43Z</time>
      </trkpt>
      <trkpt lat="46.37841" lon="-0.3811">
        <ele>36.3681</ele>
        <time>2011-06-02T13:23:44Z</time>
      </trkpt>
      <trkpt lat="46.37842" lon="-0.38111">
        <ele>36.4215</ele>
        <time>2011-06-02T13:23:45Z</time>
      </trkpt>
      <trkpt lat="46.37842" lon="-0.38113">
        <ele>36.4748</ele>
        <time>2011-06-02T13:23:46Z</time>
      </trkpt>
      <trkpt lat="46.37842" lon="-0.38114">
        <ele>36.5258</ele>
        <time>2011-06-02T13:23:47Z</time>
      </trkpt>
      <trkpt lat="46.37842" lon="-0.38116">
        <ele>36.5791</ele>
        <time>2011-06-02T13:23:48Z</time>
      </trkpt>
      <trkpt lat="46.37842" lon="-0.38118">
        <ele>36.6211</ele>
        <time>2011-06-02T13:23:49Z</time>
      </trkpt>
      <trkpt lat="46.37842" lon="-0.3812">
        <ele>36.6549</ele>
        <time>2011-06-02T13:23:50Z</time>
      </trkpt>
      <trkpt lat="46.37842" lon="-0.38123">
        <ele>36.685</ele>
        <time>2011-06-02T13:23:51Z</time>
      </trkpt>
      <trkpt lat="46.37841" lon="-0.38125">
        <ele>36.71</ele>
        <time>2011-06-02T13:23:52Z</time>
      </trkpt>
      <trkpt lat="46.37841" lon="-0.38127">
        <ele>36.733</ele>
        <time>2011-06-02T13:23:53Z</time>
      </trkpt>
      <trkpt lat="46.37841" lon="-0.38129">
        <ele>36.7505</ele>
        <time>2011-06-02T13:23:54Z</time>
      </trkpt>
      <trkpt lat="46.37841" lon="-0.38131">
        <ele>36.7737</ele>
        <time>2011-06-02T13:23:55Z</time>
      </trkpt>
      <trkpt lat="46.37842" lon="-0.38132">
        <ele>36.796</ele>
        <time>2011-06-02T13:23:56Z</time>
      </trkpt>
      <trkpt lat="46.37842" lon="-0.38133">
        <ele>36.818</ele>
        <time>2011-06-02T13:23:57Z</time>
      </trkpt>
      <trkpt lat="46.37842" lon="-0.38134">
        <ele>36.8333</ele>
        <time>2011-06-02T13:23:58Z</time>
      </trkpt>
      <trkpt lat="46.37843" lon="-0.38135">
        <ele>36.8483</ele>
        <time>2011-06-02T13:23:59Z</time>
      </trkpt>
      <trkpt lat="46.37844" lon="-0.38137">
        <ele>36.8655</ele>
        <time>2011-06-02T13:24:00Z</time>
      </trkpt>
      <trkpt lat="46.37845" lon="-0.38139">
        <ele>36.8858</ele>
        <time>2011-06-02T13:24:01Z</time>
      </trkpt>
      <trkpt lat="46.37845" lon="-0.38142">
        <ele>36.9077</ele>
        <time>2011-06-02T13:24:02Z</time>
      </trkpt>
      <trkpt lat="46.37846" lon="-0.38144">
        <ele>36.9275</ele>
        <time>2011-06-02T13:24:03Z</time>
      </trkpt>
      <trkpt lat="46.37847" lon="-0.38146">
        <ele>36.9489</ele>
        <time>2011-06-02T13:24:04Z</time>
      </trkpt>
      <trkpt lat="46.37848" lon="-0.38148">
        <ele>36.9695</ele>
        <time>2011-06-02T13:24:05Z</time>
      </trkpt>
      <trkpt lat="46.37848" lon="-0.3815">
        <ele>36.9897</ele>
        <time>2011-06-02T13:24:06Z</time>
      </trkpt>
      <trkpt lat="46.37849" lon="-0.38151">
        <ele>37.0167</ele>
        <time>2011-06-02T13:24:07Z</time>
      </trkpt>
      <trkpt lat="46.3785" lon="-0.38153">
        <ele>37.0486</ele>
        <time>2011-06-02T13:24:08Z</time>
      </trkpt>
      <trkpt lat="46.37851" lon="-0.38154">
        <ele>37.091</ele>
        <time>2011-06-02T13:24:09Z</time>
      </trkpt>
      <trkpt lat="46.37852" lon="-0.38155">
        <ele>37.1327</ele>
        <time>2011-06-02T13:24:10Z</time>
      </trkpt>
      <trkpt lat="46.37853" lon="-0.38156">
        <ele>37.1734</ele>
        <time>2011-06-02T13:24:11Z</time>
      </trkpt>
      <trkpt lat="46.37853" lon="-0.38158">
        <ele>37.2147</ele>
        <time>2011-06-02T13:24:12Z</time>
      </trkpt>
      <trkpt lat="46.37854" lon="-0.38159">
        <ele>37.2576</ele>
        <time>2011-06-02T13:24:13Z</time>
      </trkpt>
      <trkpt lat="46.37854" lon="-0.38161">
        <ele>37.3015</ele>
        <time>2011-06-02T13:24:14Z</time>
      </trkpt>
      <trkpt lat="46.37855" lon="-0.38162">
        <ele>37.3478</ele>
        <time>2011-06-02T13:24:15Z</time>
      </trkpt>
      <trkpt lat="46.37856" lon="-0.38163">
        <ele>37.396</ele>
        <time>2011-06-02T13:24:16Z</time>
      </trkpt>
      <trkpt lat="46.37856" lon="-0.38164">
        <ele>37.4438</ele>
        <time>2011-06-02T13:24:17Z</time>
      </trkpt>
      <trkpt lat="46.37857" lon="-0.38165">
        <ele>37.4881</ele>
        <time>2011-06-02T13:24:18Z</time>
      </trkpt>
      <trkpt lat="46.37858" lon="-0.38166">
        <ele>37.5295</ele>
        <time>2011-06-02T13:24:19Z</time>
      </trkpt>
      <trkpt lat="46.37859" lon="-0.38167">
        <ele>37.5683</ele>
        <time>2011-06-02T13:24:20Z</time>
      </trkpt>
      <trkpt lat="46.3786" lon="-0.38168">
        <ele>37.6048</ele>
        <time>2011-06-02T13:24:21Z</time>
      </trkpt>
      <trkpt lat="46.37861" lon="-0.38169">
        <ele>37.6386</ele>
        <time>2011-06-02T13:24:22Z</time>
      </trkpt>
      <trkpt lat="46.37861" lon="-0.3817">
        <ele>37.6731</ele>
        <time>2011-06-02T13:24:23Z</time>
      </trkpt>
      <trkpt lat="46.37862" lon="-0.38171">
        <ele>37.7071</ele>
        <time>2011-06-02T13:24:24Z</time>
      </trkpt>
      <trkpt lat="46.37862" lon="-0.38172">
        <ele>37.7409</ele>
        <time>2011-06-02T13:24:25Z</time>
      </trkpt>
      <trkpt lat="46.37863" lon="-0.38173">
        <ele>37.7709</ele>
        <time>2011-06-02T13:24:26Z</time>
      </trkpt>
      <trkpt lat="46.37864" lon="-0.38173">
        <ele>37.7964</ele>
        <time>2011-06-02T13:24:27Z</time>
      </trkpt>
      <trkpt lat="46.37865" lon="-0.38174">
        <ele>37.8176</ele>
        <time>2011-06-02T13:24:28Z</time>
      </trkpt>
      <trkpt lat="46.37866" lon="-0.38175">
        <ele>37.8347</ele>
        <time>2011-06-02T13:24:29Z</time>
      </trkpt>
      <trkpt lat="46.37867" lon="-0.38176">
        <ele>37.8488</ele>
        <time>2011-06-02T13:24:30Z</time>
      </trkpt>
      <trkpt lat="46.37867" lon="-0.38178">
        <ele>37.861</ele>
        <time>2011-06-02T13:24:31Z</time>
      </trkpt>
      <trkpt lat="46.37868" lon="-0.38179">
        <ele>37.8731</ele>
        <time>2011-06-02T13:24:32Z</time>
      </trkpt>
      <trkpt lat="46.37869" lon="-0.3818">
        <ele>37.8846</ele>
        <time>2011-06-02T13:24:33Z</time>
      </trkpt>
      <trkpt lat="46.3787" lon="-0.38181">
        <ele>37.8958</ele>
        <time>2011-06-02T13:24:34Z</time>
      </trkpt>
      <trkpt lat="46.3787" lon="-0.38182">
        <ele>37.9061</ele>
        <time>2011-06-02T13:24:35Z</time>
      </trkpt>
      <trkpt lat="46.37871" lon="-0.38184">
        <ele>37.9162</ele>
        <time>2011-06-02T13:24:36Z</time>
      </trkpt>
      <trkpt lat="46.37871" lon="-0.38185">
        <ele>37.9267</ele>
        <time>2011-06-02T13:24:37Z</time>
      </trkpt>
      <trkpt lat="46.37872" lon="-0.38187">
        <ele>37.938</ele>
        <time>2011-06-02T13:24:38Z</time>
      </trkpt>
      <trkpt lat="46.37872" lon="-0.38188">
        <ele>37.9531</ele>
        <time>2011-06-02T13:24:39Z</time>
      </trkpt>
      <trkpt lat="46.37873" lon="-0.38189">
        <ele>37.9687</ele>
        <time>2011-06-02T13:24:40Z</time>
      </trkpt>
      <trkpt lat="46.37873" lon="-0.38189">
        <ele>38.0047</ele>
        <time>2011-06-02T13:24:43Z</time>
      </trkpt>
      <trkpt lat="46.37873" lon="-0.38188">
        <ele>38.0224</ele>
        <time>2011-06-02T13:24:44Z</time>
      </trkpt>
      <trkpt lat="46.37872" lon="-0.38183">
        <ele>38.0524</ele>
        <time>2011-06-02T13:24:55Z</time>
      </trkpt>
      <trkpt lat="46.37872" lon="-0.38183">
        <ele>38.0565</ele>
        <time>2011-06-02T13:24:56Z</time>
      </trkpt>
      <trkpt lat="46.37873" lon="-0.38184">
        <ele>38.0601</ele>
        <time>2011-06-02T13:24:57Z</time>
      </trkpt>
      <trkpt lat="46.37873" lon="-0.38186">
        <ele>38.0619</ele>
        <time>2011-06-02T13:24:58Z</time>
      </trkpt>
      <trkpt lat="46.37874" lon="-0.38186">
        <ele>38.0623</ele>
        <time>2011-06-02T13:24:59Z</time>
      </trkpt>
      <trkpt lat="46.37875" lon="-0.38187">
        <ele>38.0613</ele>
        <time>2011-06-02T13:25:00Z</time>
      </trkpt>
      <trkpt lat="46.37875" lon="-0.38188">
        <ele>38.0611</ele>
        <time>2011-06-02T13:25:01Z</time>
      </trkpt>
      <trkpt lat="46.37876" lon="-0.38189">
        <ele>38.0601</ele>
        <time>2011-06-02T13:25:02Z</time>
      </trkpt>
      <trkpt lat="46.37876" lon="-0.3819">
        <ele>38.0591</ele>
        <time>2011-06-02T13:25:03Z</time>
      </trkpt>
      <trkpt lat="46.37876" lon="-0.38191">
        <ele>38.0557</ele>
        <time>2011-06-02T13:25:04Z</time>
      </trkpt>
      <trkpt lat="46.37876" lon="-0.38192">
        <ele>38.0502</ele>
        <time>2011-06-02T13:25:05Z</time>
      </trkpt>
      <trkpt lat="46.37877" lon="-0.38194">
        <ele>38.0432</ele>
        <time>2011-06-02T13:25:06Z</time>
      </trkpt>
      <trkpt lat="46.37877" lon="-0.38195">
        <ele>38.0314</ele>
        <time>2011-06-02T13:25:07Z</time>
      </trkpt>
      <trkpt lat="46.37878" lon="-0.38196">
        <ele>38.0159</ele>
        <time>2011-06-02T13:25:08Z</time>
      </trkpt>
      <trkpt lat="46.37878" lon="-0.38198">
        <ele>38.0003</ele>
        <time>2011-06-02T13:25:09Z</time>
      </trkpt>
      <trkpt lat="46.37879" lon="-0.38199">
        <ele>37.9873</ele>
        <time>2011-06-02T13:25:10Z</time>
      </trkpt>
      <trkpt lat="46.3788" lon="-0.38201">
        <ele>37.9722</ele>
        <time>2011-06-02T13:25:11Z</time>
      </trkpt>
      <trkpt lat="46.3788" lon="-0.38202">
        <ele>37.9566</ele>
        <time>2011-06-02T13:25:12Z</time>
      </trkpt>
      <trkpt lat="46.37881" lon="-0.38204">
        <ele>37.9408</ele>
        <time>2011-06-02T13:25:13Z</time>
      </trkpt>
      <trkpt lat="46.37881" lon="-0.38205">
        <ele>37.925</ele>
        <time>2011-06-02T13:25:14Z</time>
      </trkpt>
      <trkpt lat="46.37882" lon="-0.38206">
        <ele>37.9118</ele>
        <time>2011-06-02T13:25:15Z</time>
      </trkpt>
      <trkpt lat="46.37882" lon="-0.38207">
        <ele>37.9039</ele>
        <time>2011-06-02T13:25:16Z</time>
      </trkpt>
      <trkpt lat="46.37882" lon="-0.38209">
        <ele>37.899</ele>
        <time>2011-06-02T13:25:17Z</time>
      </trkpt>
      <trkpt lat="46.37882" lon="-0.3821">
        <ele>37.8807</ele>
        <time>2011-06-02T13:25:18Z</time>
      </trkpt>
      <trkpt lat="46.37882" lon="-0.38211">
        <ele>37.8762</ele>
        <time>2011-06-02T13:25:19Z</time>
      </trkpt>
      <trkpt lat="46.37882" lon="-0.38213">
        <ele>37.8709</ele>
        <time>2011-06-02T13:25:20Z</time>
      </trkpt>
      <trkpt lat="46.37882" lon="-0.38214">
        <ele>37.8659</ele>
        <time>2011-06-02T13:25:21Z</time>
      </trkpt>
      <trkpt lat="46.37882" lon="-0.38215">
        <ele>37.8613</ele>
        <time>2011-06-02T13:25:22Z</time>
      </trkpt>
      <trkpt lat="46.37883" lon="-0.38216">
        <ele>37.8579</ele>
        <time>2011-06-02T13:25:23Z</time>
      </trkpt>
      <trkpt lat="46.37883" lon="-0.38217">
        <ele>37.8565</ele>
        <time>2011-06-02T13:25:24Z</time>
      </trkpt>
      <trkpt lat="46.37883" lon="-0.38218">
        <ele>37.8544</ele>
        <time>2011-06-02T13:25:25Z</time>
      </trkpt>
      <trkpt lat="46.37884" lon="-0.3822">
        <ele>37.8616</ele>
        <time>2011-06-02T13:25:26Z</time>
      </trkpt>
      <trkpt lat="46.37885" lon="-0.38222">
        <ele>37.8736</ele>
        <time>2011-06-02T13:25:27Z</time>
      </trkpt>
      <trkpt lat="46.37886" lon="-0.38223">
        <ele>37.8801</ele>
        <time>2011-06-02T13:25:28Z</time>
      </trkpt>
      <trkpt lat="46.37886" lon="-0.38225">
        <ele>37.8809</ele>
        <time>2011-06-02T13:25:29Z</time>
      </trkpt>
      <trkpt lat="46.37887" lon="-0.38226">
        <ele>37.8803</ele>
        <time>2011-06-02T13:25:30Z</time>
      </trkpt>
      <trkpt lat="46.37888" lon="-0.38228">
        <ele>37.8747</ele>
        <time>2011-06-02T13:25:31Z</time>
      </trkpt>
      <trkpt lat="46.37888" lon="-0.38229">
        <ele>37.8728</ele>
        <time>2011-06-02T13:25:32Z</time>
      </trkpt>
      <trkpt lat="46.37889" lon="-0.3823">
        <ele>37.8733</ele>
        <time>2011-06-02T13:25:33Z</time>
      </trkpt>
      <trkpt lat="46.3789" lon="-0.38231">
        <ele>37.8684</ele>
        <time>2011-06-02T13:25:34Z</time>
      </trkpt>
      <trkpt lat="46.3789" lon="-0.38232">
        <ele>37.8618</ele>
        <time>2011-06-02T13:25:35Z</time>
      </trkpt>
      <trkpt lat="46.37891" lon="-0.38233">
        <ele>37.8807</ele>
        <time>2011-06-02T13:25:36Z</time>
      </trkpt>
      <trkpt lat="46.37892" lon="-0.38234">
        <ele>37.8986</ele>
        <time>2011-06-02T13:25:37Z</time>
      </trkpt>
      <trkpt lat="46.37893" lon="-0.38235">
        <ele>37.9098</ele>
        <time>2011-06-02T13:25:38Z</time>
      </trkpt>
      <trkpt lat="46.37893" lon="-0.38237">
        <ele>37.9246</ele>
        <time>2011-06-02T13:25:39Z</time>
      </trkpt>
      <trkpt lat="46.37894" lon="-0.38238">
        <ele>37.9473</ele>
        <time>2011-06-02T13:25:40Z</time>
      </trkpt>
      <trkpt lat="46.37894" lon="-0.3824">
        <ele>37.9525</ele>
        <time>2011-06-02T13:25:41Z</time>
      </trkpt>
      <trkpt lat="46.37895" lon="-0.38241">
        <ele>37.955</ele>
        <time>2011-06-02T13:25:42Z</time>
      </trkpt>
      <trkpt lat="46.37895" lon="-0.38243">
        <ele>37.9459</ele>
        <time>2011-06-02T13:25:43Z</time>
      </trkpt>
      <trkpt lat="46.37896" lon="-0.38244">
        <ele>37.9416</ele>
        <time>2011-06-02T13:25:44Z</time>
      </trkpt>
      <trkpt lat="46.37896" lon="-0.38246">
        <ele>37.9381</ele>
        <time>2011-06-02T13:25:45Z</time>
      </trkpt>
      <trkpt lat="46.37897" lon="-0.38247">
        <ele>37.9268</ele>
        <time>2011-06-02T13:25:46Z</time>
      </trkpt>
      <trkpt lat="46.37897" lon="-0.38248">
        <ele>37.9135</ele>
        <time>2011-06-02T13:25:47Z</time>
      </trkpt>
      <trkpt lat="46.37898" lon="-0.38249">
        <ele>37.8956</ele>
        <time>2011-06-02T13:25:48Z</time>
      </trkpt>
      <trkpt lat="46.37898" lon="-0.38251">
        <ele>37.88</ele>
        <time>2011-06-02T13:25:49Z</time>
      </trkpt>
      <trkpt lat="46.37899" lon="-0.38252">
        <ele>37.909</ele>
        <time>2011-06-02T13:25:50Z</time>
      </trkpt>
      <trkpt lat="46.379" lon="-0.38254">
        <ele>37.9267</ele>
        <time>2011-06-02T13:25:51Z</time>
      </trkpt>
      <trkpt lat="46.37901" lon="-0.38256">
        <ele>37.9233</ele>
        <time>2011-06-02T13:25:52Z</time>
      </trkpt>
      <trkpt lat="46.37902" lon="-0.38258">
        <ele>37.919</ele>
        <time>2011-06-02T13:25:53Z</time>
      </trkpt>
      <trkpt lat="46.37903" lon="-0.38259">
        <ele>37.9122</ele>
        <time>2011-06-02T13:25:54Z</time>
      </trkpt>
      <trkpt lat="46.37904" lon="-0.3826">
        <ele>37.8799</ele>
        <time>2011-06-02T13:25:55Z</time>
      </trkpt>
      <trkpt lat="46.37905" lon="-0.38261">
        <ele>37.8462</ele>
        <time>2011-06-02T13:25:56Z</time>
      </trkpt>
      <trkpt lat="46.37906" lon="-0.38262">
        <ele>37.8078</ele>
        <time>2011-06-02T13:25:57Z</time>
      </trkpt>
      <trkpt lat="46.37907" lon="-0.38263">
        <ele>37.7682</ele>
        <time>2011-06-02T13:25:58Z</time>
      </trkpt>
      <trkpt lat="46.37907" lon="-0.38264">
        <ele>37.7246</ele>
        <time>2011-06-02T13:25:59Z</time>
      </trkpt>
      <trkpt lat="46.37908" lon="-0.38264">
        <ele>37.6815</ele>
        <time>2011-06-02T13:26:00Z</time>
      </trkpt>
      <trkpt lat="46.37908" lon="-0.38265">
        <ele>37.6398</ele>
        <time>2011-06-02T13:26:01Z</time>
      </trkpt>
      <trkpt lat="46.37909" lon="-0.38266">
        <ele>37.6052</ele>
        <time>2011-06-02T13:26:02Z</time>
      </trkpt>
      <trkpt lat="46.37909" lon="-0.38266">
        <ele>37.5734</ele>
        <time>2011-06-02T13:26:03Z</time>
      </trkpt>
      <trkpt lat="46.3791" lon="-0.38267">
        <ele>37.5396</ele>
        <time>2011-06-02T13:26:04Z</time>
      </trkpt>
      <trkpt lat="46.37911" lon="-0.38268">
        <ele>37.5012</ele>
        <time>2011-06-02T13:26:05Z</time>
      </trkpt>
      <trkpt lat="46.37911" lon="-0.38269">
        <ele>37.4598</ele>
        <time>2011-06-02T13:26:06Z</time>
      </trkpt>
      <trkpt lat="46.37912" lon="-0.3827">
        <ele>37.4213</ele>
        <time>2011-06-02T13:26:07Z</time>
      </trkpt>
      <trkpt lat="46.37912" lon="-0.38271">
        <ele>37.3802</ele>
        <time>2011-06-02T13:26:08Z</time>
      </trkpt>
      <trkpt lat="46.37913" lon="-0.38272">
        <ele>37.337</ele>
        <time>2011-06-02T13:26:09Z</time>
      </trkpt>
      <trkpt lat="46.37914" lon="-0.38273">
        <ele>37.2953</ele>
        <time>2011-06-02T13:26:10Z</time>
      </trkpt>
      <trkpt lat="46.37914" lon="-0.38274">
        <ele>37.2575</ele>
        <time>2011-06-02T13:26:11Z</time>
      </trkpt>
      <trkpt lat="46.37915" lon="-0.38275">
        <ele>37.2251</ele>
        <time>2011-06-02T13:26:12Z</time>
      </trkpt>
      <trkpt lat="46.37915" lon="-0.38276">
        <ele>37.1917</ele>
        <time>2011-06-02T13:26:13Z</time>
      </trkpt>
      <trkpt lat="46.37916" lon="-0.38277">
        <ele>37.1652</ele>
        <time>2011-06-02T13:26:14Z</time>
      </trkpt>
      <trkpt lat="46.37917" lon="-0.38278">
        <ele>37.138</ele>
        <time>2011-06-02T13:26:15Z</time>
      </trkpt>
      <trkpt lat="46.37917" lon="-0.38279">
        <ele>37.0991</ele>
        <time>2011-06-02T13:26:16Z</time>
      </trkpt>
      <trkpt lat="46.37917" lon="-0.3828">
        <ele>37.0507</ele>
        <time>2011-06-02T13:26:17Z</time>
      </trkpt>
      <trkpt lat="46.37917" lon="-0.38282">
        <ele>36.997</ele>
        <time>2011-06-02T13:26:18Z</time>
      </trkpt>
      <trkpt lat="46.37918" lon="-0.38283">
        <ele>36.9437</ele>
        <time>2011-06-02T13:26:19Z</time>
      </trkpt>
      <trkpt lat="46.37918" lon="-0.38284">
        <ele>36.8862</ele>
        <time>2011-06-02T13:26:20Z</time>
      </trkpt>
      <trkpt lat="46.37919" lon="-0.38286">
        <ele>36.8314</ele>
        <time>2011-06-02T13:26:21Z</time>
      </trkpt>
      <trkpt lat="46.37919" lon="-0.38287">
        <ele>36.7786</ele>
        <time>2011-06-02T13:26:22Z</time>
      </trkpt>
      <trkpt lat="46.3792" lon="-0.38289">
        <ele>36.7322</ele>
        <time>2011-06-02T13:26:23Z</time>
      </trkpt>
      <trkpt lat="46.3792" lon="-0.38291">
        <ele>36.69</ele>
        <time>2011-06-02T13:26:24Z</time>
      </trkpt>
      <trkpt lat="46.3792" lon="-0.38293">
        <ele>36.6453</ele>
        <time>2011-06-02T13:26:25Z</time>
      </trkpt>
      <trkpt lat="46.37921" lon="-0.38295">
        <ele>36.5954</ele>
        <time>2011-06-02T13:26:26Z</time>
      </trkpt>
      <trkpt lat="46.37921" lon="-0.38296">
        <ele>36.5457</ele>
        <time>2011-06-02T13:26:27Z</time>
      </trkpt>
      <trkpt lat="46.37921" lon="-0.38297">
        <ele>36.4987</ele>
        <time>2011-06-02T13:26:28Z</time>
      </trkpt>
      <trkpt lat="46.37922" lon="-0.38299">
        <ele>36.4479</ele>
        <time>2011-06-02T13:26:29Z</time>
      </trkpt>
      <trkpt lat="46.37922" lon="-0.383">
        <ele>36.4075</ele>
        <time>2011-06-02T13:26:30Z</time>
      </trkpt>
      <trkpt lat="46.37923" lon="-0.38302">
        <ele>36.3768</ele>
        <time>2011-06-02T13:26:31Z</time>
      </trkpt>
      <trkpt lat="46.37924" lon="-0.38304">
        <ele>36.3541</ele>
        <time>2011-06-02T13:26:32Z</time>
      </trkpt>
      <trkpt lat="46.37925" lon="-0.38306">
        <ele>36.3321</ele>
        <time>2011-06-02T13:26:33Z</time>
      </trkpt>
      <trkpt lat="46.37925" lon="-0.38308">
        <ele>36.3076</ele>
        <time>2011-06-02T13:26:34Z</time>
      </trkpt>
      <trkpt lat="46.37926" lon="-0.3831">
        <ele>36.2804</ele>
        <time>2011-06-02T13:26:35Z</time>
      </trkpt>
      <trkpt lat="46.37926" lon="-0.38311">
        <ele>36.2547</ele>
        <time>2011-06-02T13:26:36Z</time>
      </trkpt>
      <trkpt lat="46.37927" lon="-0.38312">
        <ele>36.2264</ele>
        <time>2011-06-02T13:26:37Z</time>
      </trkpt>
      <trkpt lat="46.37927" lon="-0.38314">
        <ele>36.1986</ele>
        <time>2011-06-02T13:26:38Z</time>
      </trkpt>
      <trkpt lat="46.37928" lon="-0.38316">
        <ele>36.1663</ele>
        <time>2011-06-02T13:26:39Z</time>
      </trkpt>
      <trkpt lat="46.37928" lon="-0.38317">
        <ele>36.135</ele>
        <time>2011-06-02T13:26:40Z</time>
      </trkpt>
      <trkpt lat="46.3793" lon="-0.38319">
        <ele>36.102</ele>
        <time>2011-06-02T13:26:41Z</time>
      </trkpt>
      <trkpt lat="46.37931" lon="-0.3832">
        <ele>36.0602</ele>
        <time>2011-06-02T13:26:42Z</time>
      </trkpt>
      <trkpt lat="46.37931" lon="-0.38322">
        <ele>36.0119</ele>
        <time>2011-06-02T13:26:43Z</time>
      </trkpt>
      <trkpt lat="46.37932" lon="-0.38323">
        <ele>35.9621</ele>
        <time>2011-06-02T13:26:44Z</time>
      </trkpt>
      <trkpt lat="46.37933" lon="-0.38325">
        <ele>35.9117</ele>
        <time>2011-06-02T13:26:45Z</time>
      </trkpt>
      <trkpt lat="46.37934" lon="-0.38326">
        <ele>35.8612</ele>
        <time>2011-06-02T13:26:46Z</time>
      </trkpt>
      <trkpt lat="46.37934" lon="-0.38327">
        <ele>35.81</ele>
        <time>2011-06-02T13:26:47Z</time>
      </trkpt>
      <trkpt lat="46.37935" lon="-0.38329">
        <ele>35.7652</ele>
        <time>2011-06-02T13:26:48Z</time>
      </trkpt>
      <trkpt lat="46.37936" lon="-0.3833">
        <ele>35.7207</ele>
        <time>2011-06-02T13:26:49Z</time>
      </trkpt>
      <trkpt lat="46.37936" lon="-0.38331">
        <ele>35.6764</ele>
        <time>2011-06-02T13:26:50Z</time>
      </trkpt>
      <trkpt lat="46.37937" lon="-0.38333">
        <ele>35.6325</ele>
        <time>2011-06-02T13:26:51Z</time>
      </trkpt>
      <trkpt lat="46.37937" lon="-0.38334">
        <ele>35.5892</ele>
        <time>2011-06-02T13:26:52Z</time>
      </trkpt>
      <trkpt lat="46.37938" lon="-0.38336">
        <ele>35.5482</ele>
        <time>2011-06-02T13:26:53Z</time>
      </trkpt>
      <trkpt lat="46.37938" lon="-0.38338">
        <ele>35.5105</ele>
        <time>2011-06-02T13:26:54Z</time>
      </trkpt>
      <trkpt lat="46.37938" lon="-0.3834">
        <ele>35.4759</ele>
        <time>2011-06-02T13:26:55Z</time>
      </trkpt>
      <trkpt lat="46.37939" lon="-0.38341">
        <ele>35.4424</ele>
        <time>2011-06-02T13:26:56Z</time>
      </trkpt>
      <trkpt lat="46.37939" lon="-0.38343">
        <ele>35.4126</ele>
        <time>2011-06-02T13:26:57Z</time>
      </trkpt>
      <trkpt lat="46.3794" lon="-0.38344">
        <ele>35.3834</ele>
        <time>2011-06-02T13:26:58Z</time>
      </trkpt>
      <trkpt lat="46.3794" lon="-0.38346">
        <ele>35.3566</ele>
        <time>2011-06-02T13:26:59Z</time>
      </trkpt>
      <trkpt lat="46.37941" lon="-0.38347">
        <ele>35.3349</ele>
        <time>2011-06-02T13:27:00Z</time>
      </trkpt>
      <trkpt lat="46.37941" lon="-0.38348">
        <ele>35.3153</ele>
        <time>2011-06-02T13:27:01Z</time>
      </trkpt>
      <trkpt lat="46.37943" lon="-0.38348">
        <ele>35.2949</ele>
        <time>2011-06-02T13:27:02Z</time>
      </trkpt>
      <trkpt lat="46.37944" lon="-0.38348">
        <ele>35.274</ele>
        <time>2011-06-02T13:27:03Z</time>
      </trkpt>
      <trkpt lat="46.37945" lon="-0.38348">
        <ele>35.2521</ele>
        <time>2011-06-02T13:27:04Z</time>
      </trkpt>
      <trkpt lat="46.37946" lon="-0.38348">
        <ele>35.2303</ele>
        <time>2011-06-02T13:27:05Z</time>
      </trkpt>
      <trkpt lat="46.37947" lon="-0.38347">
        <ele>35.2072</ele>
        <time>2011-06-02T13:27:06Z</time>
      </trkpt>
      <trkpt lat="46.37948" lon="-0.38346">
        <ele>35.1824</ele>
        <time>2011-06-02T13:27:07Z</time>
      </trkpt>
      <trkpt lat="46.37949" lon="-0.38345">
        <ele>35.1555</ele>
        <time>2011-06-02T13:27:08Z</time>
      </trkpt>
      <trkpt lat="46.37951" lon="-0.38344">
        <ele>35.1242</ele>
        <time>2011-06-02T13:27:09Z</time>
      </trkpt>
      <trkpt lat="46.37952" lon="-0.38343">
        <ele>35.0904</ele>
        <time>2011-06-02T13:27:10Z</time>
      </trkpt>
      <trkpt lat="46.37953" lon="-0.38342">
        <ele>35.0575</ele>
        <time>2011-06-02T13:27:11Z</time>
      </trkpt>
      <trkpt lat="46.37954" lon="-0.38341">
        <ele>35.0259</ele>
        <time>2011-06-02T13:27:12Z</time>
      </trkpt>
      <trkpt lat="46.37956" lon="-0.3834">
        <ele>34.9946</ele>
        <time>2011-06-02T13:27:13Z</time>
      </trkpt>
      <trkpt lat="46.37957" lon="-0.38339">
        <ele>34.9641</ele>
        <time>2011-06-02T13:27:14Z</time>
      </trkpt>
      <trkpt lat="46.37958" lon="-0.38338">
        <ele>34.9356</ele>
        <time>2011-06-02T13:27:15Z</time>
      </trkpt>
      <trkpt lat="46.37959" lon="-0.38337">
        <ele>34.9129</ele>
        <time>2011-06-02T13:27:16Z</time>
      </trkpt>
      <trkpt lat="46.3796" lon="-0.38336">
        <ele>34.8944</ele>
        <time>2011-06-02T13:27:17Z</time>
      </trkpt>
      <trkpt lat="46.3796" lon="-0.38334">
        <ele>34.881</ele>
        <time>2011-06-02T13:27:18Z</time>
      </trkpt>
      <trkpt lat="46.37962" lon="-0.38333">
        <ele>34.8705</ele>
        <time>2011-06-02T13:27:19Z</time>
      </trkpt>
      <trkpt lat="46.37963" lon="-0.38332">
        <ele>34.8626</ele>
        <time>2011-06-02T13:27:20Z</time>
      </trkpt>
      <trkpt lat="46.37964" lon="-0.38332">
        <ele>34.8579</ele>
        <time>2011-06-02T13:27:21Z</time>
      </trkpt>
      <trkpt lat="46.37965" lon="-0.38331">
        <ele>34.8519</ele>
        <time>2011-06-02T13:27:22Z</time>
      </trkpt>
      <trkpt lat="46.37965" lon="-0.3833">
        <ele>34.842</ele>
        <time>2011-06-02T13:27:23Z</time>
      </trkpt>
      <trkpt lat="46.37967" lon="-0.38329">
        <ele>34.8313</ele>
        <time>2011-06-02T13:27:24Z</time>
      </trkpt>
      <trkpt lat="46.37967" lon="-0.38328">
        <ele>34.8195</ele>
        <time>2011-06-02T13:27:25Z</time>
      </trkpt>
      <trkpt lat="46.37968" lon="-0.38328">
        <ele>34.8063</ele>
        <time>2011-06-02T13:27:26Z</time>
      </trkpt>
      <trkpt lat="46.3797" lon="-0.38327">
        <ele>34.7922</ele>
        <time>2011-06-02T13:27:27Z</time>
      </trkpt>
      <trkpt lat="46.3797" lon="-0.38326">
        <ele>34.7753</ele>
        <time>2011-06-02T13:27:28Z</time>
      </trkpt>
      <trkpt lat="46.37972" lon="-0.38325">
        <ele>34.759</ele>
        <time>2011-06-02T13:27:29Z</time>
      </trkpt>
      <trkpt lat="46.37972" lon="-0.38325">
        <ele>34.7442</ele>
        <time>2011-06-02T13:27:30Z</time>
      </trkpt>
      <trkpt lat="46.37973" lon="-0.38324">
        <ele>34.7349</ele>
        <time>2011-06-02T13:27:31Z</time>
      </trkpt>
      <trkpt lat="46.37974" lon="-0.38323">
        <ele>34.7319</ele>
        <time>2011-06-02T13:27:32Z</time>
      </trkpt>
      <trkpt lat="46.37975" lon="-0.38322">
        <ele>34.7269</ele>
        <time>2011-06-02T13:27:33Z</time>
      </trkpt>
      <trkpt lat="46.37976" lon="-0.38321">
        <ele>34.7218</ele>
        <time>2011-06-02T13:27:34Z</time>
      </trkpt>
      <trkpt lat="46.37976" lon="-0.3832">
        <ele>34.7163</ele>
        <time>2011-06-02T13:27:35Z</time>
      </trkpt>
      <trkpt lat="46.37977" lon="-0.38318">
        <ele>34.7093</ele>
        <time>2011-06-02T13:27:36Z</time>
      </trkpt>
      <trkpt lat="46.37977" lon="-0.38317">
        <ele>34.7028</ele>
        <time>2011-06-02T13:27:37Z</time>
      </trkpt>
      <trkpt lat="46.37978" lon="-0.38316">
        <ele>34.6952</ele>
        <time>2011-06-02T13:27:38Z</time>
      </trkpt>
      <trkpt lat="46.37979" lon="-0.38315">
        <ele>34.6855</ele>
        <time>2011-06-02T13:27:39Z</time>
      </trkpt>
      <trkpt lat="46.3798" lon="-0.38314">
        <ele>34.6756</ele>
        <time>2011-06-02T13:27:40Z</time>
      </trkpt>
      <trkpt lat="46.37981" lon="-0.38314">
        <ele>34.6648</ele>
        <time>2011-06-02T13:27:41Z</time>
      </trkpt>
      <trkpt lat="46.37981" lon="-0.38313">
        <ele>34.6542</ele>
        <time>2011-06-02T13:27:42Z</time>
      </trkpt>
      <trkpt lat="46.37982" lon="-0.38312">
        <ele>34.6408</ele>
        <time>2011-06-02T13:27:43Z</time>
      </trkpt>
      <trkpt lat="46.37983" lon="-0.38312">
        <ele>34.6243</ele>
        <time>2011-06-02T13:27:44Z</time>
      </trkpt>
      <trkpt lat="46.37984" lon="-0.38311">
        <ele>34.6077</ele>
        <time>2011-06-02T13:27:45Z</time>
      </trkpt>
      <trkpt lat="46.37985" lon="-0.3831">
        <ele>34.5912</ele>
        <time>2011-06-02T13:27:46Z</time>
      </trkpt>
      <trkpt lat="46.37986" lon="-0.38308">
        <ele>34.5746</ele>
        <time>2011-06-02T13:27:47Z</time>
      </trkpt>
      <trkpt lat="46.37986" lon="-0.38307">
        <ele>34.559</ele>
        <time>2011-06-02T13:27:48Z</time>
      </trkpt>
      <trkpt lat="46.37987" lon="-0.38305">
        <ele>34.5461</ele>
        <time>2011-06-02T13:27:49Z</time>
      </trkpt>
      <trkpt lat="46.37988" lon="-0.38304">
        <ele>34.5332</ele>
        <time>2011-06-02T13:27:50Z</time>
      </trkpt>
      <trkpt lat="46.37989" lon="-0.38303">
        <ele>34.5208</ele>
        <time>2011-06-02T13:27:51Z</time>
      </trkpt>
      <trkpt lat="46.3799" lon="-0.38302">
        <ele>34.5071</ele>
        <time>2011-06-02T13:27:52Z</time>
      </trkpt>
      <trkpt lat="46.37991" lon="-0.38301">
        <ele>34.4917</ele>
        <time>2011-06-02T13:27:53Z</time>
      </trkpt>
      <trkpt lat="46.37992" lon="-0.38299">
        <ele>34.4758</ele>
        <time>2011-06-02T13:27:54Z</time>
      </trkpt>
      <trkpt lat="46.37993" lon="-0.38298">
        <ele>34.4635</ele>
        <time>2011-06-02T13:27:55Z</time>
      </trkpt>
      <trkpt lat="46.37993" lon="-0.38298">
        <ele>34.4542</ele>
        <time>2011-06-02T13:27:56Z</time>
      </trkpt>
      <trkpt lat="46.37994" lon="-0.38297">
        <ele>34.4447</ele>
        <time>2011-06-02T13:27:57Z</time>
      </trkpt>
      <trkpt lat="46.37994" lon="-0.38296">
        <ele>34.437</ele>
        <time>2011-06-02T13:27:58Z</time>
      </trkpt>
      <trkpt lat="46.37995" lon="-0.38295">
        <ele>34.4295</ele>
        <time>2011-06-02T13:27:59Z</time>
      </trkpt>
      <trkpt lat="46.37996" lon="-0.38295">
        <ele>34.4172</ele>
        <time>2011-06-02T13:28:00Z</time>
      </trkpt>
      <trkpt lat="46.37997" lon="-0.38294">
        <ele>34.4027</ele>
        <time>2011-06-02T13:28:01Z</time>
      </trkpt>
      <trkpt lat="46.37997" lon="-0.38293">
        <ele>34.3889</ele>
        <time>2011-06-02T13:28:02Z</time>
      </trkpt>
      <trkpt lat="46.37998" lon="-0.38292">
        <ele>34.374</ele>
        <time>2011-06-02T13:28:03Z</time>
      </trkpt>
      <trkpt lat="46.37999" lon="-0.38292">
        <ele>34.3551</ele>
        <time>2011-06-02T13:28:04Z</time>
      </trkpt>
      <trkpt lat="46.37999" lon="-0.38291">
        <ele>34.3308</ele>
        <time>2011-06-02T13:28:05Z</time>
      </trkpt>
      <trkpt lat="46.38" lon="-0.3829">
        <ele>34.3077</ele>
        <time>2011-06-02T13:28:06Z</time>
      </trkpt>
      <trkpt lat="46.38001" lon="-0.3829">
        <ele>34.2856</ele>
        <time>2011-06-02T13:28:07Z</time>
      </trkpt>
      <trkpt lat="46.38002" lon="-0.38288">
        <ele>34.2636</ele>
        <time>2011-06-02T13:28:08Z</time>
      </trkpt>
      <trkpt lat="46.38003" lon="-0.38287">
        <ele>34.2407</ele>
        <time>2011-06-02T13:28:09Z</time>
      </trkpt>
      <trkpt lat="46.38004" lon="-0.38286">
        <ele>34.2178</ele>
        <time>2011-06-02T13:28:10Z</time>
      </trkpt>
      <trkpt lat="46.38004" lon="-0.38285">
        <ele>34.196</ele>
        <time>2011-06-02T13:28:11Z</time>
      </trkpt>
      <trkpt lat="46.38005" lon="-0.38284">
        <ele>34.1718</ele>
        <time>2011-06-02T13:28:12Z</time>
      </trkpt>
      <trkpt lat="46.38006" lon="-0.38282">
        <ele>34.153</ele>
        <time>2011-06-02T13:28:13Z</time>
      </trkpt>
      <trkpt lat="46.38007" lon="-0.38281">
        <ele>34.1443</ele>
        <time>2011-06-02T13:28:14Z</time>
      </trkpt>
      <trkpt lat="46.38008" lon="-0.38279">
        <ele>34.1443</ele>
        <time>2011-06-02T13:28:15Z</time>
      </trkpt>
      <trkpt lat="46.38009" lon="-0.38277">
        <ele>34.1442</ele>
        <time>2011-06-02T13:28:16Z</time>
      </trkpt>
      <trkpt lat="46.3801" lon="-0.38276">
        <ele>34.1444</ele>
        <time>2011-06-02T13:28:17Z</time>
      </trkpt>
      <trkpt lat="46.38011" lon="-0.38276">
        <ele>34.1457</ele>
        <time>2011-06-02T13:28:18Z</time>
      </trkpt>
      <trkpt lat="46.38012" lon="-0.38275">
        <ele>34.1472</ele>
        <time>2011-06-02T13:28:19Z</time>
      </trkpt>
      <trkpt lat="46.38013" lon="-0.38274">
        <ele>34.1494</ele>
        <time>2011-06-02T13:28:20Z</time>
      </trkpt>
      <trkpt lat="46.38014" lon="-0.38273">
        <ele>34.1534</ele>
        <time>2011-06-02T13:28:21Z</time>
      </trkpt>
      <trkpt lat="46.38014" lon="-0.38272">
        <ele>34.1538</ele>
        <time>2011-06-02T13:28:22Z</time>
      </trkpt>
      <trkpt lat="46.38015" lon="-0.3827">
        <ele>34.1506</ele>
        <time>2011-06-02T13:28:23Z</time>
      </trkpt>
      <trkpt lat="46.38015" lon="-0.3827">
        <ele>34.1432</ele>
        <time>2011-06-02T13:28:24Z</time>
      </trkpt>
      <trkpt lat="46.38016" lon="-0.38269">
        <ele>34.1312</ele>
        <time>2011-06-02T13:28:25Z</time>
      </trkpt>
      <trkpt lat="46.38017" lon="-0.38268">
        <ele>34.1199</ele>
        <time>2011-06-02T13:28:26Z</time>
      </trkpt>
      <trkpt lat="46.38018" lon="-0.38267">
        <ele>34.1092</ele>
        <time>2011-06-02T13:28:27Z</time>
      </trkpt>
      <trkpt lat="46.38019" lon="-0.38266">
        <ele>34.099</ele>
        <time>2011-06-02T13:28:28Z</time>
      </trkpt>
      <trkpt lat="46.3802" lon="-0.38265">
        <ele>34.0887</ele>
        <time>2011-06-02T13:28:29Z</time>
      </trkpt>
      <trkpt lat="46.3802" lon="-0.38264">
        <ele>34.0779</ele>
        <time>2011-06-02T13:28:30Z</time>
      </trkpt>
      <trkpt lat="46.3802" lon="-0.38263">
        <ele>34.0685</ele>
        <time>2011-06-02T13:28:31Z</time>
      </trkpt>
      <trkpt lat="46.38021" lon="-0.38261">
        <ele>34.0582</ele>
        <time>2011-06-02T13:28:32Z</time>
      </trkpt>
      <trkpt lat="46.38022" lon="-0.3826">
        <ele>34.0466</ele>
        <time>2011-06-02T13:28:33Z</time>
      </trkpt>
      <trkpt lat="46.38023" lon="-0.38259">
        <ele>34.0326</ele>
        <time>2011-06-02T13:28:34Z</time>
      </trkpt>
      <trkpt lat="46.38023" lon="-0.38258">
        <ele>34.019</ele>
        <time>2011-06-02T13:28:35Z</time>
      </trkpt>
      <trkpt lat="46.38024" lon="-0.38257">
        <ele>34.0077</ele>
        <time>2011-06-02T13:28:36Z</time>
      </trkpt>
      <trkpt lat="46.38025" lon="-0.38256">
        <ele>33.9963</ele>
        <time>2011-06-02T13:28:37Z</time>
      </trkpt>
      <trkpt lat="46.38026" lon="-0.38255">
        <ele>33.9807</ele>
        <time>2011-06-02T13:28:38Z</time>
      </trkpt>
      <trkpt lat="46.38026" lon="-0.38254">
        <ele>33.9608</ele>
        <time>2011-06-02T13:28:39Z</time>
      </trkpt>
      <trkpt lat="46.38026" lon="-0.38253">
        <ele>33.9434</ele>
        <time>2011-06-02T13:28:40Z</time>
      </trkpt>
      <trkpt lat="46.38027" lon="-0.38252">
        <ele>33.9307</ele>
        <time>2011-06-02T13:28:41Z</time>
      </trkpt>
      <trkpt lat="46.38028" lon="-0.38251">
        <ele>33.9186</ele>
        <time>2011-06-02T13:28:42Z</time>
      </trkpt>
      <trkpt lat="46.38028" lon="-0.3825">
        <ele>33.9057</ele>
        <time>2011-06-02T13:28:43Z</time>
      </trkpt>
      <trkpt lat="46.38029" lon="-0.38249">
        <ele>33.8917</ele>
        <time>2011-06-02T13:28:44Z</time>
      </trkpt>
      <trkpt lat="46.3803" lon="-0.38248">
        <ele>33.8781</ele>
        <time>2011-06-02T13:28:45Z</time>
      </trkpt>
      <trkpt lat="46.3803" lon="-0.38247">
        <ele>33.8313</ele>
        <time>2011-06-02T13:28:53Z</time>
      </trkpt>
      <trkpt lat="46.3803" lon="-0.38246">
        <ele>33.8138</ele>
        <time>2011-06-02T13:28:54Z</time>
      </trkpt>
      <trkpt lat="46.38031" lon="-0.38245">
        <ele>33.7962</ele>
        <time>2011-06-02T13:28:55Z</time>
      </trkpt>
      <trkpt lat="46.38031" lon="-0.38244">
        <ele>33.7781</ele>
        <time>2011-06-02T13:28:56Z</time>
      </trkpt>
      <trkpt lat="46.38031" lon="-0.38244">
        <ele>33.7583</ele>
        <time>2011-06-02T13:28:57Z</time>
      </trkpt>
      <trkpt lat="46.38032" lon="-0.38242">
        <ele>33.7372</ele>
        <time>2011-06-02T13:28:58Z</time>
      </trkpt>
      <trkpt lat="46.38033" lon="-0.38241">
        <ele>33.7156</ele>
        <time>2011-06-02T13:28:59Z</time>
      </trkpt>
      <trkpt lat="46.38034" lon="-0.3824">
        <ele>33.6949</ele>
        <time>2011-06-02T13:29:00Z</time>
      </trkpt>
      <trkpt lat="46.38035" lon="-0.38239">
        <ele>33.6756</ele>
        <time>2011-06-02T13:29:01Z</time>
      </trkpt>
      <trkpt lat="46.38036" lon="-0.38238">
        <ele>33.6572</ele>
        <time>2011-06-02T13:29:02Z</time>
      </trkpt>
      <trkpt lat="46.38037" lon="-0.38236">
        <ele>33.6424</ele>
        <time>2011-06-02T13:29:03Z</time>
      </trkpt>
      <trkpt lat="46.38038" lon="-0.38235">
        <ele>33.6277</ele>
        <time>2011-06-02T13:29:04Z</time>
      </trkpt>
      <trkpt lat="46.38038" lon="-0.38233">
        <ele>33.6168</ele>
        <time>2011-06-02T13:29:05Z</time>
      </trkpt>
      <trkpt lat="46.38038" lon="-0.3823">
        <ele>33.6039</ele>
        <time>2011-06-02T13:29:06Z</time>
      </trkpt>
      <trkpt lat="46.38038" lon="-0.38228">
        <ele>33.595</ele>
        <time>2011-06-02T13:29:07Z</time>
      </trkpt>
      <trkpt lat="46.38038" lon="-0.38225">
        <ele>33.5807</ele>
        <time>2011-06-02T13:29:08Z</time>
      </trkpt>
      <trkpt lat="46.38039" lon="-0.38223">
        <ele>33.5675</ele>
        <time>2011-06-02T13:29:09Z</time>
      </trkpt>
      <trkpt lat="46.38039" lon="-0.38221">
        <ele>33.5544</ele>
        <time>2011-06-02T13:29:10Z</time>
      </trkpt>
      <trkpt lat="46.38039" lon="-0.38219">
        <ele>33.5423</ele>
        <time>2011-06-02T13:29:11Z</time>
      </trkpt>
      <trkpt lat="46.38041" lon="-0.38218">
        <ele>33.4945</ele>
        <time>2011-06-02T13:29:16Z</time>
      </trkpt>
      <trkpt lat="46.38041" lon="-0.38217">
        <ele>33.471</ele>
        <time>2011-06-02T13:29:17Z</time>
      </trkpt>
      <trkpt lat="46.38041" lon="-0.38216">
        <ele>33.444</ele>
        <time>2011-06-02T13:29:18Z</time>
      </trkpt>
      <trkpt lat="46.38041" lon="-0.38214">
        <ele>33.4143</ele>
        <time>2011-06-02T13:29:19Z</time>
      </trkpt>
      <trkpt lat="46.38041" lon="-0.38213">
        <ele>33.3821</ele>
        <time>2011-06-02T13:29:20Z</time>
      </trkpt>
      <trkpt lat="46.38041" lon="-0.38211">
        <ele>33.3456</ele>
        <time>2011-06-02T13:29:21Z</time>
      </trkpt>
      <trkpt lat="46.38041" lon="-0.38209">
        <ele>33.3061</ele>
        <time>2011-06-02T13:29:22Z</time>
      </trkpt>
      <trkpt lat="46.38041" lon="-0.38208">
        <ele>33.2669</ele>
        <time>2011-06-02T13:29:23Z</time>
      </trkpt>
      <trkpt lat="46.38041" lon="-0.38208">
        <ele>33.2303</ele>
        <time>2011-06-02T13:29:24Z</time>
      </trkpt>
      <trkpt lat="46.38041" lon="-0.38207">
        <ele>33.1931</ele>
        <time>2011-06-02T13:29:25Z</time>
      </trkpt>
      <trkpt lat="46.3804" lon="-0.38207">
        <ele>33.1542</ele>
        <time>2011-06-02T13:29:26Z</time>
      </trkpt>
      <trkpt lat="46.3804" lon="-0.38207">
        <ele>32.943</ele>
        <time>2011-06-02T13:29:33Z</time>
      </trkpt>
      <trkpt lat="46.38039" lon="-0.38205">
        <ele>32.8626</ele>
        <time>2011-06-02T13:29:34Z</time>
      </trkpt>
      <trkpt lat="46.38039" lon="-0.38204">
        <ele>32.7798</ele>
        <time>2011-06-02T13:29:35Z</time>
      </trkpt>
      <trkpt lat="46.38039" lon="-0.38203">
        <ele>32.6987</ele>
        <time>2011-06-02T13:29:36Z</time>
      </trkpt>
      <trkpt lat="46.38039" lon="-0.38201">
        <ele>32.619</ele>
        <time>2011-06-02T13:29:37Z</time>
      </trkpt>
      <trkpt lat="46.38038" lon="-0.382">
        <ele>32.538</ele>
        <time>2011-06-02T13:29:38Z</time>
      </trkpt>
      <trkpt lat="46.38038" lon="-0.38198">
        <ele>32.461</ele>
        <time>2011-06-02T13:29:39Z</time>
      </trkpt>
      <trkpt lat="46.38038" lon="-0.38197">
        <ele>32.3853</ele>
        <time>2011-06-02T13:29:40Z</time>
      </trkpt>
      <trkpt lat="46.38038" lon="-0.38196">
        <ele>32.3083</ele>
        <time>2011-06-02T13:29:41Z</time>
      </trkpt>
      <trkpt lat="46.38037" lon="-0.38194">
        <ele>32.2311</ele>
        <time>2011-06-02T13:29:42Z</time>
      </trkpt>
      <trkpt lat="46.38036" lon="-0.38193">
        <ele>32.1525</ele>
        <time>2011-06-02T13:29:43Z</time>
      </trkpt>
      <trkpt lat="46.38036" lon="-0.38192">
        <ele>32.0719</ele>
        <time>2011-06-02T13:29:44Z</time>
      </trkpt>
      <trkpt lat="46.38035" lon="-0.3819">
        <ele>31.9909</ele>
        <time>2011-06-02T13:29:45Z</time>
      </trkpt>
      <trkpt lat="46.38034" lon="-0.38189">
        <ele>31.9101</ele>
        <time>2011-06-02T13:29:46Z</time>
      </trkpt>
      <trkpt lat="46.38034" lon="-0.38187">
        <ele>31.8294</ele>
        <time>2011-06-02T13:29:47Z</time>
      </trkpt>
      <trkpt lat="46.38034" lon="-0.38186">
        <ele>31.7507</ele>
        <time>2011-06-02T13:29:48Z</time>
      </trkpt>
      <trkpt lat="46.38034" lon="-0.38185">
        <ele>31.6739</ele>
        <time>2011-06-02T13:29:49Z</time>
      </trkpt>
      <trkpt lat="46.38034" lon="-0.38183">
        <ele>31.5964</ele>
        <time>2011-06-02T13:29:50Z</time>
      </trkpt>
      <trkpt lat="46.38034" lon="-0.38182">
        <ele>31.5117</ele>
        <time>2011-06-02T13:29:51Z</time>
      </trkpt>
      <trkpt lat="46.38033" lon="-0.38181">
        <ele>31.4219</ele>
        <time>2011-06-02T13:29:52Z</time>
      </trkpt>
      <trkpt lat="46.38033" lon="-0.3818">
        <ele>31.3256</ele>
        <time>2011-06-02T13:29:53Z</time>
      </trkpt>
      <trkpt lat="46.38034" lon="-0.38178">
        <ele>31.2253</ele>
        <time>2011-06-02T13:29:54Z</time>
      </trkpt>
      <trkpt lat="46.38034" lon="-0.38177">
        <ele>31.129</ele>
        <time>2011-06-02T13:29:55Z</time>
      </trkpt>
      <trkpt lat="46.38034" lon="-0.38176">
        <ele>31.0293</ele>
        <time>2011-06-02T13:29:56Z</time>
      </trkpt>
      <trkpt lat="46.38034" lon="-0.38175">
        <ele>30.929</ele>
        <time>2011-06-02T13:29:57Z</time>
      </trkpt>
      <trkpt lat="46.38034" lon="-0.38174">
        <ele>30.833</ele>
        <time>2011-06-02T13:29:58Z</time>
      </trkpt>
      <trkpt lat="46.38034" lon="-0.38173">
        <ele>30.7436</ele>
        <time>2011-06-02T13:29:59Z</time>
      </trkpt>
      <trkpt lat="46.38033" lon="-0.38171">
        <ele>30.6567</ele>
        <time>2011-06-02T13:30:00Z</time>
      </trkpt>
      <trkpt lat="46.38033" lon="-0.3817">
        <ele>30.559</ele>
        <time>2011-06-02T13:30:01Z</time>
      </trkpt>
      <trkpt lat="46.38033" lon="-0.38168">
        <ele>30.4712</ele>
        <time>2011-06-02T13:30:02Z</time>
      </trkpt>
      <trkpt lat="46.38033" lon="-0.38167">
        <ele>30.3865</ele>
        <time>2011-06-02T13:30:03Z</time>
      </trkpt>
      <trkpt lat="46.38033" lon="-0.38165">
        <ele>30.3008</ele>
        <time>2011-06-02T13:30:04Z</time>
      </trkpt>
      <trkpt lat="46.38033" lon="-0.38164">
        <ele>30.2183</ele>
        <time>2011-06-02T13:30:05Z</time>
      </trkpt>
      <trkpt lat="46.38033" lon="-0.38163">
        <ele>30.1402</ele>
        <time>2011-06-02T13:30:06Z</time>
      </trkpt>
      <trkpt lat="46.38033" lon="-0.38163">
        <ele>30.0703</ele>
        <time>2011-06-02T13:30:07Z</time>
      </trkpt>
      <trkpt lat="46.38033" lon="-0.38162">
        <ele>30.0066</ele>
        <time>2011-06-02T13:30:08Z</time>
      </trkpt>
      <trkpt lat="46.38033" lon="-0.38161">
        <ele>29.9472</ele>
        <time>2011-06-02T13:30:09Z</time>
      </trkpt>
      <trkpt lat="46.38033" lon="-0.3816">
        <ele>29.8915</ele>
        <time>2011-06-02T13:30:10Z</time>
      </trkpt>
      <trkpt lat="46.38033" lon="-0.38158">
        <ele>29.8465</ele>
        <time>2011-06-02T13:30:11Z</time>
      </trkpt>
      <trkpt lat="46.38033" lon="-0.38157">
        <ele>29.8085</ele>
        <time>2011-06-02T13:30:12Z</time>
      </trkpt>
      <trkpt lat="46.38033" lon="-0.38155">
        <ele>29.7735</ele>
        <time>2011-06-02T13:30:13Z</time>
      </trkpt>
      <trkpt lat="46.38033" lon="-0.38154">
        <ele>29.7421</ele>
        <time>2011-06-02T13:30:14Z</time>
      </trkpt>
      <trkpt lat="46.38033" lon="-0.38153">
        <ele>29.7163</ele>
        <time>2011-06-02T13:30:15Z</time>
      </trkpt>
      <trkpt lat="46.38034" lon="-0.38152">
        <ele>29.7023</ele>
        <time>2011-06-02T13:30:16Z</time>
      </trkpt>
      <trkpt lat="46.38034" lon="-0.3815">
        <ele>29.7024</ele>
        <time>2011-06-02T13:30:17Z</time>
      </trkpt>
      <trkpt lat="46.38035" lon="-0.38148">
        <ele>29.7184</ele>
        <time>2011-06-02T13:30:18Z</time>
      </trkpt>
      <trkpt lat="46.38036" lon="-0.38147">
        <ele>29.7443</ele>
        <time>2011-06-02T13:30:19Z</time>
      </trkpt>
      <trkpt lat="46.38038" lon="-0.38146">
        <ele>29.7764</ele>
        <time>2011-06-02T13:30:20Z</time>
      </trkpt>
      <trkpt lat="46.38039" lon="-0.38144">
        <ele>29.8158</ele>
        <time>2011-06-02T13:30:21Z</time>
      </trkpt>
      <trkpt lat="46.3804" lon="-0.38143">
        <ele>29.8605</ele>
        <time>2011-06-02T13:30:22Z</time>
      </trkpt>
      <trkpt lat="46.38041" lon="-0.38143">
        <ele>29.9036</ele>
        <time>2011-06-02T13:30:23Z</time>
      </trkpt>
      <trkpt lat="46.38042" lon="-0.38142">
        <ele>29.9505</ele>
        <time>2011-06-02T13:30:24Z</time>
      </trkpt>
      <trkpt lat="46.38042" lon="-0.38142">
        <ele>30.0027</ele>
        <time>2011-06-02T13:30:25Z</time>
      </trkpt>
      <trkpt lat="46.38043" lon="-0.38142">
        <ele>30.0579</ele>
        <time>2011-06-02T13:30:26Z</time>
      </trkpt>
      <trkpt lat="46.38044" lon="-0.38141">
        <ele>30.1164</ele>
        <time>2011-06-02T13:30:27Z</time>
      </trkpt>
      <trkpt lat="46.38045" lon="-0.3814">
        <ele>30.1745</ele>
        <time>2011-06-02T13:30:28Z</time>
      </trkpt>
      <trkpt lat="46.38046" lon="-0.3814">
        <ele>30.2318</ele>
        <time>2011-06-02T13:30:29Z</time>
      </trkpt>
      <trkpt lat="46.38046" lon="-0.38139">
        <ele>30.2875</ele>
        <time>2011-06-02T13:30:30Z</time>
      </trkpt>
      <trkpt lat="46.38047" lon="-0.38138">
        <ele>30.3448</ele>
        <time>2011-06-02T13:30:31Z</time>
      </trkpt>
      <trkpt lat="46.38047" lon="-0.38137">
        <ele>30.4018</ele>
        <time>2011-06-02T13:30:32Z</time>
      </trkpt>
      <trkpt lat="46.38048" lon="-0.38136">
        <ele>30.4599</ele>
        <time>2011-06-02T13:30:33Z</time>
      </trkpt>
      <trkpt lat="46.38048" lon="-0.38135">
        <ele>30.519</ele>
        <time>2011-06-02T13:30:34Z</time>
      </trkpt>
      <trkpt lat="46.38049" lon="-0.38134">
        <ele>30.5791</ele>
        <time>2011-06-02T13:30:35Z</time>
      </trkpt>
      <trkpt lat="46.38049" lon="-0.38133">
        <ele>30.6379</ele>
        <time>2011-06-02T13:30:36Z</time>
      </trkpt>
      <trkpt lat="46.3805" lon="-0.38132">
        <ele>30.6972</ele>
        <time>2011-06-02T13:30:37Z</time>
      </trkpt>
      <trkpt lat="46.38051" lon="-0.38132">
        <ele>30.7561</ele>
        <time>2011-06-02T13:30:38Z</time>
      </trkpt>
      <trkpt lat="46.38051" lon="-0.3813">
        <ele>30.8142</ele>
        <time>2011-06-02T13:30:39Z</time>
      </trkpt>
      <trkpt lat="46.38052" lon="-0.38129">
        <ele>30.872</ele>
        <time>2011-06-02T13:30:40Z</time>
      </trkpt>
      <trkpt lat="46.38054" lon="-0.38128">
        <ele>30.9284</ele>
        <time>2011-06-02T13:30:41Z</time>
      </trkpt>
      <trkpt lat="46.38054" lon="-0.38127">
        <ele>30.9838</ele>
        <time>2011-06-02T13:30:42Z</time>
      </trkpt>
      <trkpt lat="46.38055" lon="-0.38126">
        <ele>31.0391</ele>
        <time>2011-06-02T13:30:43Z</time>
      </trkpt>
      <trkpt lat="46.38056" lon="-0.38125">
        <ele>31.0921</ele>
        <time>2011-06-02T13:30:44Z</time>
      </trkpt>
      <trkpt lat="46.38057" lon="-0.38123">
        <ele>31.1442</ele>
        <time>2011-06-02T13:30:45Z</time>
      </trkpt>
      <trkpt lat="46.38057" lon="-0.38121">
        <ele>31.1941</ele>
        <time>2011-06-02T13:30:46Z</time>
      </trkpt>
      <trkpt lat="46.38058" lon="-0.3812">
        <ele>31.2415</ele>
        <time>2011-06-02T13:30:47Z</time>
      </trkpt>
      <trkpt lat="46.38058" lon="-0.38119">
        <ele>31.2902</ele>
        <time>2011-06-02T13:30:48Z</time>
      </trkpt>
      <trkpt lat="46.38059" lon="-0.38117">
        <ele>31.4387</ele>
        <time>2011-06-02T13:30:52Z</time>
      </trkpt>
      <trkpt lat="46.38059" lon="-0.38116">
        <ele>31.5122</ele>
        <time>2011-06-02T13:30:53Z</time>
      </trkpt>
      <trkpt lat="46.3806" lon="-0.38114">
        <ele>31.5866</ele>
        <time>2011-06-02T13:30:54Z</time>
      </trkpt>
      <trkpt lat="46.38061" lon="-0.38112">
        <ele>31.656</ele>
        <time>2011-06-02T13:30:55Z</time>
      </trkpt>
      <trkpt lat="46.38062" lon="-0.38111">
        <ele>31.7173</ele>
        <time>2011-06-02T13:30:56Z</time>
      </trkpt>
      <trkpt lat="46.38063" lon="-0.38109">
        <ele>31.7756</ele>
        <time>2011-06-02T13:30:57Z</time>
      </trkpt>
      <trkpt lat="46.38064" lon="-0.38108">
        <ele>31.8311</ele>
        <time>2011-06-02T13:30:58Z</time>
      </trkpt>
      <trkpt lat="46.38065" lon="-0.38107">
        <ele>31.8828</ele>
        <time>2011-06-02T13:30:59Z</time>
      </trkpt>
      <trkpt lat="46.38065" lon="-0.38106">
        <ele>31.9306</ele>
        <time>2011-06-02T13:31:00Z</time>
      </trkpt>
      <trkpt lat="46.38066" lon="-0.38105">
        <ele>31.9731</ele>
        <time>2011-06-02T13:31:01Z</time>
      </trkpt>
      <trkpt lat="46.38066" lon="-0.38105">
        <ele>32.0095</ele>
        <time>2011-06-02T13:31:02Z</time>
      </trkpt>
      <trkpt lat="46.38067" lon="-0.38104">
        <ele>32.0418</ele>
        <time>2011-06-02T13:31:03Z</time>
      </trkpt>
      <trkpt lat="46.38067" lon="-0.38103">
        <ele>32.0729</ele>
        <time>2011-06-02T13:31:04Z</time>
      </trkpt>
      <trkpt lat="46.38067" lon="-0.38103">
        <ele>32.1025</ele>
        <time>2011-06-02T13:31:05Z</time>
      </trkpt>
      <trkpt lat="46.38068" lon="-0.38101">
        <ele>32.1308</ele>
        <time>2011-06-02T13:31:06Z</time>
      </trkpt>
      <trkpt lat="46.38069" lon="-0.38099">
        <ele>32.1571</ele>
        <time>2011-06-02T13:31:07Z</time>
      </trkpt>
      <trkpt lat="46.38069" lon="-0.38097">
        <ele>32.1744</ele>
        <time>2011-06-02T13:31:08Z</time>
      </trkpt>
      <trkpt lat="46.38069" lon="-0.38095">
        <ele>32.1853</ele>
        <time>2011-06-02T13:31:09Z</time>
      </trkpt>
      <trkpt lat="46.38069" lon="-0.38093">
        <ele>32.1982</ele>
        <time>2011-06-02T13:31:10Z</time>
      </trkpt>
      <trkpt lat="46.38069" lon="-0.38091">
        <ele>32.2076</ele>
        <time>2011-06-02T13:31:11Z</time>
      </trkpt>
      <trkpt lat="46.38069" lon="-0.38088">
        <ele>32.2573</ele>
        <time>2011-06-02T13:31:15Z</time>
      </trkpt>
      <trkpt lat="46.38069" lon="-0.38087">
        <ele>32.2753</ele>
        <time>2011-06-02T13:31:16Z</time>
      </trkpt>
      <trkpt lat="46.38069" lon="-0.38086">
        <ele>32.3017</ele>
        <time>2011-06-02T13:31:20Z</time>
      </trkpt>
      <trkpt lat="46.38069" lon="-0.38086">
        <ele>32.3186</ele>
        <time>2011-06-02T13:31:21Z</time>
      </trkpt>
      <trkpt lat="46.38069" lon="-0.38085">
        <ele>32.3303</ele>
        <time>2011-06-02T13:31:22Z</time>
      </trkpt>
      <trkpt lat="46.3807" lon="-0.38085">
        <ele>32.3333</ele>
        <time>2011-06-02T13:31:23Z</time>
      </trkpt>
      <trkpt lat="46.38071" lon="-0.38084">
        <ele>32.3341</ele>
        <time>2011-06-02T13:31:24Z</time>
      </trkpt>
      <trkpt lat="46.38071" lon="-0.38082">
        <ele>32.3273</ele>
        <time>2011-06-02T13:31:25Z</time>
      </trkpt>
      <trkpt lat="46.38072" lon="-0.38079">
        <ele>32.3126</ele>
        <time>2011-06-02T13:31:26Z</time>
      </trkpt>
      <trkpt lat="46.38073" lon="-0.38078">
        <ele>32.2989</ele>
        <time>2011-06-02T13:31:27Z</time>
      </trkpt>
      <trkpt lat="46.38074" lon="-0.38076">
        <ele>32.2858</ele>
        <time>2011-06-02T13:31:28Z</time>
      </trkpt>
      <trkpt lat="46.38075" lon="-0.38075">
        <ele>32.2729</ele>
        <time>2011-06-02T13:31:30Z</time>
      </trkpt>
      <trkpt lat="46.38076" lon="-0.38075">
        <ele>32.2621</ele>
        <time>2011-06-02T13:31:31Z</time>
      </trkpt>
      <trkpt lat="46.38076" lon="-0.38074">
        <ele>32.2514</ele>
        <time>2011-06-02T13:31:32Z</time>
      </trkpt>
      <trkpt lat="46.38077" lon="-0.38073">
        <ele>32.2389</ele>
        <time>2011-06-02T13:31:33Z</time>
      </trkpt>
      <trkpt lat="46.38077" lon="-0.38073">
        <ele>32.2233</ele>
        <time>2011-06-02T13:31:34Z</time>
      </trkpt>
      <trkpt lat="46.38078" lon="-0.38073">
        <ele>32.2033</ele>
        <time>2011-06-02T13:31:37Z</time>
      </trkpt>
      <trkpt lat="46.38078" lon="-0.38072">
        <ele>32.1849</ele>
        <time>2011-06-02T13:31:38Z</time>
      </trkpt>
      <trkpt lat="46.38078" lon="-0.38072">
        <ele>32.1621</ele>
        <time>2011-06-02T13:31:39Z</time>
      </trkpt>
      <trkpt lat="46.38079" lon="-0.38072">
        <ele>32.1358</ele>
        <time>2011-06-02T13:31:40Z</time>
      </trkpt>
      <trkpt lat="46.3808" lon="-0.38071">
        <ele>32.1094</ele>
        <time>2011-06-02T13:31:41Z</time>
      </trkpt>
      <trkpt lat="46.38081" lon="-0.38071">
        <ele>32.0829</ele>
        <time>2011-06-02T13:31:42Z</time>
      </trkpt>
      <trkpt lat="46.38081" lon="-0.3807">
        <ele>32.0591</ele>
        <time>2011-06-02T13:31:43Z</time>
      </trkpt>
      <trkpt lat="46.38082" lon="-0.38069">
        <ele>32.0375</ele>
        <time>2011-06-02T13:31:44Z</time>
      </trkpt>
      <trkpt lat="46.38083" lon="-0.38069">
        <ele>32.0189</ele>
        <time>2011-06-02T13:31:45Z</time>
      </trkpt>
      <trkpt lat="46.38084" lon="-0.38068">
        <ele>32.0005</ele>
        <time>2011-06-02T13:31:46Z</time>
      </trkpt>
      <trkpt lat="46.38084" lon="-0.38068">
        <ele>31.9897</ele>
        <time>2011-06-02T13:31:47Z</time>
      </trkpt>
      <trkpt lat="46.38085" lon="-0.38067">
        <ele>31.9921</ele>
        <time>2011-06-02T13:31:48Z</time>
      </trkpt>
      <trkpt lat="46.38086" lon="-0.38066">
        <ele>31.9959</ele>
        <time>2011-06-02T13:31:49Z</time>
      </trkpt>
      <trkpt lat="46.38086" lon="-0.38064">
        <ele>31.9996</ele>
        <time>2011-06-02T13:31:50Z</time>
      </trkpt>
      <trkpt lat="46.38087" lon="-0.38063">
        <ele>32.002</ele>
        <time>2011-06-02T13:31:51Z</time>
      </trkpt>
      <trkpt lat="46.38088" lon="-0.3806">
        <ele>32.0046</ele>
        <time>2011-06-02T13:31:52Z</time>
      </trkpt>
      <trkpt lat="46.38088" lon="-0.38057">
        <ele>32.0009</ele>
        <time>2011-06-02T13:31:53Z</time>
      </trkpt>
      <trkpt lat="46.38089" lon="-0.38055">
        <ele>31.9967</ele>
        <time>2011-06-02T13:31:54Z</time>
      </trkpt>
      <trkpt lat="46.38091" lon="-0.38052">
        <ele>31.9815</ele>
        <time>2011-06-02T13:31:55Z</time>
      </trkpt>
      <trkpt lat="46.38092" lon="-0.38049">
        <ele>31.9639</ele>
        <time>2011-06-02T13:31:56Z</time>
      </trkpt>
      <trkpt lat="46.38094" lon="-0.38046">
        <ele>31.9415</ele>
        <time>2011-06-02T13:31:57Z</time>
      </trkpt>
      <trkpt lat="46.38096" lon="-0.38043">
        <ele>31.9336</ele>
        <time>2011-06-02T13:31:58Z</time>
      </trkpt>
      <trkpt lat="46.38097" lon="-0.38042">
        <ele>31.9428</ele>
        <time>2011-06-02T13:31:59Z</time>
      </trkpt>
      <trkpt lat="46.38098" lon="-0.3804">
        <ele>31.9711</ele>
        <time>2011-06-02T13:32:00Z</time>
      </trkpt>
      <trkpt lat="46.38099" lon="-0.38039">
        <ele>32.0025</ele>
        <time>2011-06-02T13:32:01Z</time>
      </trkpt>
      <trkpt lat="46.381" lon="-0.38038">
        <ele>32.0342</ele>
        <time>2011-06-02T13:32:02Z</time>
      </trkpt>
      <trkpt lat="46.38101" lon="-0.38037">
        <ele>32.0592</ele>
        <time>2011-06-02T13:32:03Z</time>
      </trkpt>
      <trkpt lat="46.38102" lon="-0.38035">
        <ele>32.0873</ele>
        <time>2011-06-02T13:32:04Z</time>
      </trkpt>
      <trkpt lat="46.38103" lon="-0.38032">
        <ele>32.1135</ele>
        <time>2011-06-02T13:32:05Z</time>
      </trkpt>
      <trkpt lat="46.38104" lon="-0.3803">
        <ele>32.1309</ele>
        <time>2011-06-02T13:32:06Z</time>
      </trkpt>
      <trkpt lat="46.38105" lon="-0.38028">
        <ele>32.1464</ele>
        <time>2011-06-02T13:32:07Z</time>
      </trkpt>
      <trkpt lat="46.38106" lon="-0.38025">
        <ele>32.1604</ele>
        <time>2011-06-02T13:32:08Z</time>
      </trkpt>
      <trkpt lat="46.38107" lon="-0.38023">
        <ele>32.1642</ele>
        <time>2011-06-02T13:32:09Z</time>
      </trkpt>
      <trkpt lat="46.38107" lon="-0.38021">
        <ele>32.1599</ele>
        <time>2011-06-02T13:32:10Z</time>
      </trkpt>
      <trkpt lat="46.38108" lon="-0.38019">
        <ele>32.1441</ele>
        <time>2011-06-02T13:32:11Z</time>
      </trkpt>
      <trkpt lat="46.38109" lon="-0.38017">
        <ele>32.1158</ele>
        <time>2011-06-02T13:32:12Z</time>
      </trkpt>
      <trkpt lat="46.38109" lon="-0.38015">
        <ele>32.0787</ele>
        <time>2011-06-02T13:32:13Z</time>
      </trkpt>
      <trkpt lat="46.3811" lon="-0.38014">
        <ele>32.0307</ele>
        <time>2011-06-02T13:32:14Z</time>
      </trkpt>
      <trkpt lat="46.3811" lon="-0.38013">
        <ele>31.9722</ele>
        <time>2011-06-02T13:32:15Z</time>
      </trkpt>
      <trkpt lat="46.38111" lon="-0.38012">
        <ele>31.9051</ele>
        <time>2011-06-02T13:32:16Z</time>
      </trkpt>
      <trkpt lat="46.38111" lon="-0.3801">
        <ele>31.8317</ele>
        <time>2011-06-02T13:32:17Z</time>
      </trkpt>
      <trkpt lat="46.38112" lon="-0.38009">
        <ele>31.7528</ele>
        <time>2011-06-02T13:32:18Z</time>
      </trkpt>
      <trkpt lat="46.38112" lon="-0.38009">
        <ele>31.668</ele>
        <time>2011-06-02T13:32:19Z</time>
      </trkpt>
      <trkpt lat="46.38112" lon="-0.38009">
        <ele>31.581</ele>
        <time>2011-06-02T13:32:20Z</time>
      </trkpt>
      <trkpt lat="46.38112" lon="-0.3801">
        <ele>31.4842</ele>
        <time>2011-06-02T13:32:22Z</time>
      </trkpt>
      <trkpt lat="46.38112" lon="-0.38009">
        <ele>31.397</ele>
        <time>2011-06-02T13:32:23Z</time>
      </trkpt>
      <trkpt lat="46.38112" lon="-0.38008">
        <ele>31.3111</ele>
        <time>2011-06-02T13:32:24Z</time>
      </trkpt>
      <trkpt lat="46.38113" lon="-0.38007">
        <ele>31.2291</ele>
        <time>2011-06-02T13:32:25Z</time>
      </trkpt>
      <trkpt lat="46.38113" lon="-0.38006">
        <ele>31.1492</ele>
        <time>2011-06-02T13:32:26Z</time>
      </trkpt>
      <trkpt lat="46.38114" lon="-0.38005">
        <ele>31.0739</ele>
        <time>2011-06-02T13:32:27Z</time>
      </trkpt>
      <trkpt lat="46.38115" lon="-0.38004">
        <ele>31.0023</ele>
        <time>2011-06-02T13:32:28Z</time>
      </trkpt>
      <trkpt lat="46.38116" lon="-0.38003">
        <ele>30.9255</ele>
        <time>2011-06-02T13:32:29Z</time>
      </trkpt>
      <trkpt lat="46.38116" lon="-0.38001">
        <ele>30.8497</ele>
        <time>2011-06-02T13:32:30Z</time>
      </trkpt>
      <trkpt lat="46.38117" lon="-0.38">
        <ele>30.7746</ele>
        <time>2011-06-02T13:32:31Z</time>
      </trkpt>
      <trkpt lat="46.38117" lon="-0.38">
        <ele>30.7163</ele>
        <time>2011-06-02T13:32:32Z</time>
      </trkpt>
      <trkpt lat="46.38118" lon="-0.37999">
        <ele>30.6724</ele>
        <time>2011-06-02T13:32:33Z</time>
      </trkpt>
      <trkpt lat="46.38119" lon="-0.37998">
        <ele>30.6301</ele>
        <time>2011-06-02T13:32:34Z</time>
      </trkpt>
      <trkpt lat="46.3812" lon="-0.37997">
        <ele>30.6046</ele>
        <time>2011-06-02T13:32:35Z</time>
      </trkpt>
      <trkpt lat="46.3812" lon="-0.37996">
        <ele>30.5663</ele>
        <time>2011-06-02T13:32:36Z</time>
      </trkpt>
      <trkpt lat="46.38121" lon="-0.37995">
        <ele>30.52</ele>
        <time>2011-06-02T13:32:37Z</time>
      </trkpt>
      <trkpt lat="46.38121" lon="-0.37994">
        <ele>30.478</ele>
        <time>2011-06-02T13:32:38Z</time>
      </trkpt>
      <trkpt lat="46.38122" lon="-0.37993">
        <ele>30.4381</ele>
        <time>2011-06-02T13:32:39Z</time>
      </trkpt>
      <trkpt lat="46.38123" lon="-0.37992">
        <ele>30.3958</ele>
        <time>2011-06-02T13:32:40Z</time>
      </trkpt>
      <trkpt lat="46.38124" lon="-0.37991">
        <ele>30.3433</ele>
        <time>2011-06-02T13:32:41Z</time>
      </trkpt>
      <trkpt lat="46.38124" lon="-0.3799">
        <ele>30.2795</ele>
        <time>2011-06-02T13:32:42Z</time>
      </trkpt>
      <trkpt lat="46.38125" lon="-0.37989">
        <ele>30.2096</ele>
        <time>2011-06-02T13:32:43Z</time>
      </trkpt>
      <trkpt lat="46.38126" lon="-0.37988">
        <ele>30.142</ele>
        <time>2011-06-02T13:32:44Z</time>
      </trkpt>
      <trkpt lat="46.38127" lon="-0.37987">
        <ele>30.0753</ele>
        <time>2011-06-02T13:32:45Z</time>
      </trkpt>
      <trkpt lat="46.38128" lon="-0.37986">
        <ele>30.0115</ele>
        <time>2011-06-02T13:32:46Z</time>
      </trkpt>
      <trkpt lat="46.38129" lon="-0.37985">
        <ele>29.9469</ele>
        <time>2011-06-02T13:32:47Z</time>
      </trkpt>
      <trkpt lat="46.3813" lon="-0.37984">
        <ele>29.8841</ele>
        <time>2011-06-02T13:32:48Z</time>
      </trkpt>
      <trkpt lat="46.38131" lon="-0.37983">
        <ele>29.817</ele>
        <time>2011-06-02T13:32:49Z</time>
      </trkpt>
      <trkpt lat="46.38131" lon="-0.37982">
        <ele>29.7473</ele>
        <time>2011-06-02T13:32:50Z</time>
      </trkpt>
      <trkpt lat="46.38133" lon="-0.3798">
        <ele>29.6773</ele>
        <time>2011-06-02T13:32:51Z</time>
      </trkpt>
      <trkpt lat="46.38134" lon="-0.37979">
        <ele>29.6033</ele>
        <time>2011-06-02T13:32:52Z</time>
      </trkpt>
      <trkpt lat="46.38134" lon="-0.37977">
        <ele>29.5262</ele>
        <time>2011-06-02T13:32:53Z</time>
      </trkpt>
      <trkpt lat="46.38135" lon="-0.37976">
        <ele>29.4461</ele>
        <time>2011-06-02T13:32:54Z</time>
      </trkpt>
      <trkpt lat="46.38136" lon="-0.37975">
        <ele>29.365</ele>
        <time>2011-06-02T13:32:55Z</time>
      </trkpt>
      <trkpt lat="46.38136" lon="-0.37974">
        <ele>29.2858</ele>
        <time>2011-06-02T13:32:56Z</time>
      </trkpt>
      <trkpt lat="46.38137" lon="-0.37973">
        <ele>29.2087</ele>
        <time>2011-06-02T13:32:57Z</time>
      </trkpt>
      <trkpt lat="46.38138" lon="-0.37972">
        <ele>29.1338</ele>
        <time>2011-06-02T13:32:58Z</time>
      </trkpt>
      <trkpt lat="46.38138" lon="-0.37971">
        <ele>29.0622</ele>
        <time>2011-06-02T13:32:59Z</time>
      </trkpt>
      <trkpt lat="46.38139" lon="-0.3797">
        <ele>28.9914</ele>
        <time>2011-06-02T13:33:00Z</time>
      </trkpt>
      <trkpt lat="46.38139" lon="-0.37969">
        <ele>28.9217</ele>
        <time>2011-06-02T13:33:01Z</time>
      </trkpt>
      <trkpt lat="46.3814" lon="-0.37968">
        <ele>28.8544</ele>
        <time>2011-06-02T13:33:02Z</time>
      </trkpt>
      <trkpt lat="46.38141" lon="-0.37968">
        <ele>28.7894</ele>
        <time>2011-06-02T13:33:03Z</time>
      </trkpt>
      <trkpt lat="46.38141" lon="-0.37967">
        <ele>28.7272</ele>
        <time>2011-06-02T13:33:04Z</time>
      </trkpt>
      <trkpt lat="46.38142" lon="-0.37966">
        <ele>28.6668</ele>
        <time>2011-06-02T13:33:05Z</time>
      </trkpt>
      <trkpt lat="46.38142" lon="-0.37964">
        <ele>28.6075</ele>
        <time>2011-06-02T13:33:06Z</time>
      </trkpt>
      <trkpt lat="46.38143" lon="-0.37963">
        <ele>28.5497</ele>
        <time>2011-06-02T13:33:07Z</time>
      </trkpt>
      <trkpt lat="46.38144" lon="-0.37962">
        <ele>28.4918</ele>
        <time>2011-06-02T13:33:08Z</time>
      </trkpt>
      <trkpt lat="46.38144" lon="-0.3796">
        <ele>28.435</ele>
        <time>2011-06-02T13:33:09Z</time>
      </trkpt>
      <trkpt lat="46.38144" lon="-0.37959">
        <ele>28.3801</ele>
        <time>2011-06-02T13:33:10Z</time>
      </trkpt>
      <trkpt lat="46.38145" lon="-0.37958">
        <ele>28.3269</ele>
        <time>2011-06-02T13:33:11Z</time>
      </trkpt>
      <trkpt lat="46.38146" lon="-0.37957">
        <ele>28.2749</ele>
        <time>2011-06-02T13:33:12Z</time>
      </trkpt>
      <trkpt lat="46.38146" lon="-0.37956">
        <ele>28.2234</ele>
        <time>2011-06-02T13:33:13Z</time>
      </trkpt>
      <trkpt lat="46.38147" lon="-0.37954">
        <ele>28.1728</ele>
        <time>2011-06-02T13:33:14Z</time>
      </trkpt>
      <trkpt lat="46.38147" lon="-0.37954">
        <ele>28.1207</ele>
        <time>2011-06-02T13:33:15Z</time>
      </trkpt>
      <trkpt lat="46.38148" lon="-0.37953">
        <ele>28.0702</ele>
        <time>2011-06-02T13:33:16Z</time>
      </trkpt>
      <trkpt lat="46.38149" lon="-0.37952">
        <ele>28.0194</ele>
        <time>2011-06-02T13:33:17Z</time>
      </trkpt>
      <trkpt lat="46.38149" lon="-0.37951">
        <ele>27.969</ele>
        <time>2011-06-02T13:33:18Z</time>
      </trkpt>
      <trkpt lat="46.38149" lon="-0.37949">
        <ele>27.9184</ele>
        <time>2011-06-02T13:33:19Z</time>
      </trkpt>
      <trkpt lat="46.3815" lon="-0.37949">
        <ele>27.8646</ele>
        <time>2011-06-02T13:33:20Z</time>
      </trkpt>
      <trkpt lat="46.3815" lon="-0.37949">
        <ele>27.81</ele>
        <time>2011-06-02T13:33:21Z</time>
      </trkpt>
      <trkpt lat="46.3815" lon="-0.37949">
        <ele>27.7563</ele>
        <time>2011-06-02T13:33:22Z</time>
      </trkpt>
      <trkpt lat="46.3815" lon="-0.37948">
        <ele>27.7054</ele>
        <time>2011-06-02T13:33:23Z</time>
      </trkpt>
      <trkpt lat="46.38151" lon="-0.37946">
        <ele>27.6538</ele>
        <time>2011-06-02T13:33:24Z</time>
      </trkpt>
      <trkpt lat="46.38152" lon="-0.37945">
        <ele>27.6014</ele>
        <time>2011-06-02T13:33:25Z</time>
      </trkpt>
      <trkpt lat="46.38152" lon="-0.37944">
        <ele>27.5419</ele>
        <time>2011-06-02T13:33:26Z</time>
      </trkpt>
      <trkpt lat="46.38152" lon="-0.37942">
        <ele>27.4903</ele>
        <time>2011-06-02T13:33:27Z</time>
      </trkpt>
      <trkpt lat="46.38152" lon="-0.37941">
        <ele>27.4343</ele>
        <time>2011-06-02T13:33:28Z</time>
      </trkpt>
      <trkpt lat="46.38153" lon="-0.37939">
        <ele>27.3819</ele>
        <time>2011-06-02T13:33:29Z</time>
      </trkpt>
      <trkpt lat="46.38154" lon="-0.37938">
        <ele>27.3297</ele>
        <time>2011-06-02T13:33:30Z</time>
      </trkpt>
      <trkpt lat="46.38155" lon="-0.37938">
        <ele>27.2729</ele>
        <time>2011-06-02T13:33:31Z</time>
      </trkpt>
      <trkpt lat="46.38156" lon="-0.37937">
        <ele>27.2175</ele>
        <time>2011-06-02T13:33:32Z</time>
      </trkpt>
      <trkpt lat="46.38157" lon="-0.37937">
        <ele>27.1596</ele>
        <time>2011-06-02T13:33:33Z</time>
      </trkpt>
      <trkpt lat="46.38158" lon="-0.37936">
        <ele>27.1024</ele>
        <time>2011-06-02T13:33:34Z</time>
      </trkpt>
      <trkpt lat="46.38159" lon="-0.37935">
        <ele>27.0487</ele>
        <time>2011-06-02T13:33:35Z</time>
      </trkpt>
      <trkpt lat="46.38159" lon="-0.37933">
        <ele>26.9929</ele>
        <time>2011-06-02T13:33:36Z</time>
      </trkpt>
      <trkpt lat="46.3816" lon="-0.37932">
        <ele>26.9355</ele>
        <time>2011-06-02T13:33:37Z</time>
      </trkpt>
      <trkpt lat="46.38161" lon="-0.37931">
        <ele>26.8799</ele>
        <time>2011-06-02T13:33:38Z</time>
      </trkpt>
      <trkpt lat="46.38162" lon="-0.3793">
        <ele>26.8261</ele>
        <time>2011-06-02T13:33:39Z</time>
      </trkpt>
      <trkpt lat="46.38163" lon="-0.37928">
        <ele>26.7758</ele>
        <time>2011-06-02T13:33:40Z</time>
      </trkpt>
      <trkpt lat="46.38163" lon="-0.37927">
        <ele>26.7275</ele>
        <time>2011-06-02T13:33:41Z</time>
      </trkpt>
      <trkpt lat="46.38165" lon="-0.37926">
        <ele>26.6815</ele>
        <time>2011-06-02T13:33:42Z</time>
      </trkpt>
      <trkpt lat="46.38165" lon="-0.37925">
        <ele>26.6353</ele>
        <time>2011-06-02T13:33:43Z</time>
      </trkpt>
      <trkpt lat="46.38166" lon="-0.37925">
        <ele>26.5896</ele>
        <time>2011-06-02T13:33:44Z</time>
      </trkpt>
      <trkpt lat="46.38167" lon="-0.37924">
        <ele>26.5451</ele>
        <time>2011-06-02T13:33:45Z</time>
      </trkpt>
      <trkpt lat="46.38168" lon="-0.37923">
        <ele>26.5024</ele>
        <time>2011-06-02T13:33:46Z</time>
      </trkpt>
      <trkpt lat="46.38169" lon="-0.37922">
        <ele>26.4599</ele>
        <time>2011-06-02T13:33:47Z</time>
      </trkpt>
      <trkpt lat="46.3817" lon="-0.37922">
        <ele>26.4189</ele>
        <time>2011-06-02T13:33:48Z</time>
      </trkpt>
      <trkpt lat="46.38171" lon="-0.37921">
        <ele>26.3788</ele>
        <time>2011-06-02T13:33:49Z</time>
      </trkpt>
      <trkpt lat="46.38171" lon="-0.3792">
        <ele>26.34</ele>
        <time>2011-06-02T13:33:50Z</time>
      </trkpt>
      <trkpt lat="46.38172" lon="-0.37919">
        <ele>26.3022</ele>
        <time>2011-06-02T13:33:51Z</time>
      </trkpt>
      <trkpt lat="46.38173" lon="-0.37918">
        <ele>26.267</ele>
        <time>2011-06-02T13:33:52Z</time>
      </trkpt>
      <trkpt lat="46.38173" lon="-0.37916">
        <ele>26.2314</ele>
        <time>2011-06-02T13:33:53Z</time>
      </trkpt>
      <trkpt lat="46.38174" lon="-0.37916">
        <ele>26.1946</ele>
        <time>2011-06-02T13:33:54Z</time>
      </trkpt>
      <trkpt lat="46.38175" lon="-0.37915">
        <ele>26.1577</ele>
        <time>2011-06-02T13:33:55Z</time>
      </trkpt>
      <trkpt lat="46.38176" lon="-0.37914">
        <ele>26.1224</ele>
        <time>2011-06-02T13:33:56Z</time>
      </trkpt>
      <trkpt lat="46.38176" lon="-0.37913">
        <ele>26.0873</ele>
        <time>2011-06-02T13:33:57Z</time>
      </trkpt>
      <trkpt lat="46.38177" lon="-0.37912">
        <ele>26.0515</ele>
        <time>2011-06-02T13:33:58Z</time>
      </trkpt>
      <trkpt lat="46.38177" lon="-0.37911">
        <ele>26.0165</ele>
        <time>2011-06-02T13:33:59Z</time>
      </trkpt>
      <trkpt lat="46.38178" lon="-0.37911">
        <ele>25.983</ele>
        <time>2011-06-02T13:34:00Z</time>
      </trkpt>
      <trkpt lat="46.38178" lon="-0.3791">
        <ele>25.9498</ele>
        <time>2011-06-02T13:34:01Z</time>
      </trkpt>
      <trkpt lat="46.38179" lon="-0.37909">
        <ele>25.919</ele>
        <time>2011-06-02T13:34:02Z</time>
      </trkpt>
      <trkpt lat="46.38179" lon="-0.37907">
        <ele>25.8993</ele>
        <time>2011-06-02T13:34:03Z</time>
      </trkpt>
      <trkpt lat="46.3818" lon="-0.37907">
        <ele>25.8859</ele>
        <time>2011-06-02T13:34:04Z</time>
      </trkpt>
      <trkpt lat="46.38181" lon="-0.37905">
        <ele>25.8838</ele>
        <time>2011-06-02T13:34:05Z</time>
      </trkpt>
      <trkpt lat="46.38182" lon="-0.37904">
        <ele>25.8899</ele>
        <time>2011-06-02T13:34:06Z</time>
      </trkpt>
      <trkpt lat="46.38182" lon="-0.37902">
        <ele>25.9027</ele>
        <time>2011-06-02T13:34:07Z</time>
      </trkpt>
      <trkpt lat="46.38183" lon="-0.37901">
        <ele>25.9183</ele>
        <time>2011-06-02T13:34:08Z</time>
      </trkpt>
      <trkpt lat="46.38184" lon="-0.379">
        <ele>25.9339</ele>
        <time>2011-06-02T13:34:09Z</time>
      </trkpt>
      <trkpt lat="46.38184" lon="-0.37899">
        <ele>25.9478</ele>
        <time>2011-06-02T13:34:10Z</time>
      </trkpt>
      <trkpt lat="46.38185" lon="-0.37898">
        <ele>25.9609</ele>
        <time>2011-06-02T13:34:11Z</time>
      </trkpt>
      <trkpt lat="46.38185" lon="-0.37897">
        <ele>25.9711</ele>
        <time>2011-06-02T13:34:12Z</time>
      </trkpt>
      <trkpt lat="46.38186" lon="-0.37896">
        <ele>25.9771</ele>
        <time>2011-06-02T13:34:13Z</time>
      </trkpt>
      <trkpt lat="46.38186" lon="-0.37894">
        <ele>25.9816</ele>
        <time>2011-06-02T13:34:14Z</time>
      </trkpt>
      <trkpt lat="46.38187" lon="-0.37893">
        <ele>25.9857</ele>
        <time>2011-06-02T13:34:15Z</time>
      </trkpt>
      <trkpt lat="46.38188" lon="-0.37892">
        <ele>25.9906</ele>
        <time>2011-06-02T13:34:16Z</time>
      </trkpt>
      <trkpt lat="46.38189" lon="-0.37891">
        <ele>25.9951</ele>
        <time>2011-06-02T13:34:17Z</time>
      </trkpt>
      <trkpt lat="46.38189" lon="-0.3789">
        <ele>26.0018</ele>
        <time>2011-06-02T13:34:18Z</time>
      </trkpt>
      <trkpt lat="46.3819" lon="-0.37889">
        <ele>26.0102</ele>
        <time>2011-06-02T13:34:19Z</time>
      </trkpt>
      <trkpt lat="46.38191" lon="-0.37888">
        <ele>26.0186</ele>
        <time>2011-06-02T13:34:20Z</time>
      </trkpt>
      <trkpt lat="46.38192" lon="-0.37887">
        <ele>26.0238</ele>
        <time>2011-06-02T13:34:21Z</time>
      </trkpt>
      <trkpt lat="46.38192" lon="-0.37885">
        <ele>26.0292</ele>
        <time>2011-06-02T13:34:22Z</time>
      </trkpt>
      <trkpt lat="46.38193" lon="-0.37884">
        <ele>26.0316</ele>
        <time>2011-06-02T13:34:23Z</time>
      </trkpt>
      <trkpt lat="46.38194" lon="-0.37883">
        <ele>26.0351</ele>
        <time>2011-06-02T13:34:24Z</time>
      </trkpt>
      <trkpt lat="46.38195" lon="-0.37882">
        <ele>26.0394</ele>
        <time>2011-06-02T13:34:25Z</time>
      </trkpt>
      <trkpt lat="46.38195" lon="-0.37881">
        <ele>26.0451</ele>
        <time>2011-06-02T13:34:26Z</time>
      </trkpt>
      <trkpt lat="46.38195" lon="-0.37879">
        <ele>26.0491</ele>
        <time>2011-06-02T13:34:27Z</time>
      </trkpt>
      <trkpt lat="46.38195" lon="-0.37878">
        <ele>26.0523</ele>
        <time>2011-06-02T13:34:28Z</time>
      </trkpt>
      <trkpt lat="46.38195" lon="-0.37877">
        <ele>26.0566</ele>
        <time>2011-06-02T13:34:29Z</time>
      </trkpt>
      <trkpt lat="46.38196" lon="-0.37876">
        <ele>26.0589</ele>
        <time>2011-06-02T13:34:30Z</time>
      </trkpt>
      <trkpt lat="46.38196" lon="-0.37875">
        <ele>26.0629</ele>
        <time>2011-06-02T13:34:31Z</time>
      </trkpt>
      <trkpt lat="46.38197" lon="-0.37874">
        <ele>26.0686</ele>
        <time>2011-06-02T13:34:32Z</time>
      </trkpt>
      <trkpt lat="46.38197" lon="-0.37873">
        <ele>26.0723</ele>
        <time>2011-06-02T13:34:33Z</time>
      </trkpt>
      <trkpt lat="46.38198" lon="-0.37872">
        <ele>26.0766</ele>
        <time>2011-06-02T13:34:34Z</time>
      </trkpt>
      <trkpt lat="46.38199" lon="-0.3787">
        <ele>26.0798</ele>
        <time>2011-06-02T13:34:35Z</time>
      </trkpt>
      <trkpt lat="46.38199" lon="-0.37869">
        <ele>26.0835</ele>
        <time>2011-06-02T13:34:36Z</time>
      </trkpt>
      <trkpt lat="46.382" lon="-0.37868">
        <ele>26.0901</ele>
        <time>2011-06-02T13:34:37Z</time>
      </trkpt>
      <trkpt lat="46.38201" lon="-0.37867">
        <ele>26.1011</ele>
        <time>2011-06-02T13:34:38Z</time>
      </trkpt>
      <trkpt lat="46.38202" lon="-0.37866">
        <ele>26.1167</ele>
        <time>2011-06-02T13:34:39Z</time>
      </trkpt>
      <trkpt lat="46.38203" lon="-0.37864">
        <ele>26.1348</ele>
        <time>2011-06-02T13:34:40Z</time>
      </trkpt>
      <trkpt lat="46.38204" lon="-0.37863">
        <ele>26.1564</ele>
        <time>2011-06-02T13:34:41Z</time>
      </trkpt>
      <trkpt lat="46.38205" lon="-0.37862">
        <ele>26.1821</ele>
        <time>2011-06-02T13:34:42Z</time>
      </trkpt>
      <trkpt lat="46.38206" lon="-0.37861">
        <ele>26.2115</ele>
        <time>2011-06-02T13:34:43Z</time>
      </trkpt>
      <trkpt lat="46.38207" lon="-0.37861">
        <ele>26.2439</ele>
        <time>2011-06-02T13:34:44Z</time>
      </trkpt>
      <trkpt lat="46.38208" lon="-0.3786">
        <ele>26.2783</ele>
        <time>2011-06-02T13:34:45Z</time>
      </trkpt>
      <trkpt lat="46.38208" lon="-0.3786">
        <ele>26.314</ele>
        <time>2011-06-02T13:34:46Z</time>
      </trkpt>
      <trkpt lat="46.38209" lon="-0.37859">
        <ele>26.3516</ele>
        <time>2011-06-02T13:34:47Z</time>
      </trkpt>
      <trkpt lat="46.3821" lon="-0.37858">
        <ele>26.3909</ele>
        <time>2011-06-02T13:34:48Z</time>
      </trkpt>
      <trkpt lat="46.3821" lon="-0.37857">
        <ele>26.4291</ele>
        <time>2011-06-02T13:34:49Z</time>
      </trkpt>
      <trkpt lat="46.38211" lon="-0.37856">
        <ele>26.4673</ele>
        <time>2011-06-02T13:34:50Z</time>
      </trkpt>
      <trkpt lat="46.38212" lon="-0.37855">
        <ele>26.5047</ele>
        <time>2011-06-02T13:34:51Z</time>
      </trkpt>
      <trkpt lat="46.38212" lon="-0.37853">
        <ele>26.5379</ele>
        <time>2011-06-02T13:34:52Z</time>
      </trkpt>
      <trkpt lat="46.38213" lon="-0.37852">
        <ele>26.5689</ele>
        <time>2011-06-02T13:34:53Z</time>
      </trkpt>
      <trkpt lat="46.38214" lon="-0.37851">
        <ele>26.5972</ele>
        <time>2011-06-02T13:34:54Z</time>
      </trkpt>
      <trkpt lat="46.38215" lon="-0.3785">
        <ele>26.6264</ele>
        <time>2011-06-02T13:34:55Z</time>
      </trkpt>
      <trkpt lat="46.38216" lon="-0.37848">
        <ele>26.6572</ele>
        <time>2011-06-02T13:34:56Z</time>
      </trkpt>
      <trkpt lat="46.38217" lon="-0.37847">
        <ele>26.6882</ele>
        <time>2011-06-02T13:34:57Z</time>
      </trkpt>
      <trkpt lat="46.38218" lon="-0.37846">
        <ele>26.7195</ele>
        <time>2011-06-02T13:34:58Z</time>
      </trkpt>
      <trkpt lat="46.38219" lon="-0.37845">
        <ele>26.7506</ele>
        <time>2011-06-02T13:34:59Z</time>
      </trkpt>
      <trkpt lat="46.3822" lon="-0.37845">
        <ele>26.7809</ele>
        <time>2011-06-02T13:35:00Z</time>
      </trkpt>
      <trkpt lat="46.3822" lon="-0.37844">
        <ele>26.8107</ele>
        <time>2011-06-02T13:35:01Z</time>
      </trkpt>
      <trkpt lat="46.38221" lon="-0.37842">
        <ele>26.8411</ele>
        <time>2011-06-02T13:35:02Z</time>
      </trkpt>
      <trkpt lat="46.38222" lon="-0.37841">
        <ele>26.8724</ele>
        <time>2011-06-02T13:35:03Z</time>
      </trkpt>
      <trkpt lat="46.38223" lon="-0.37839">
        <ele>26.8993</ele>
        <time>2011-06-02T13:35:04Z</time>
      </trkpt>
      <trkpt lat="46.38224" lon="-0.37838">
        <ele>26.9261</ele>
        <time>2011-06-02T13:35:05Z</time>
      </trkpt>
      <trkpt lat="46.38225" lon="-0.37836">
        <ele>26.9531</ele>
        <time>2011-06-02T13:35:06Z</time>
      </trkpt>
      <trkpt lat="46.38226" lon="-0.37835">
        <ele>26.9811</ele>
        <time>2011-06-02T13:35:07Z</time>
      </trkpt>
      <trkpt lat="46.38226" lon="-0.37833">
        <ele>27.008</ele>
        <time>2011-06-02T13:35:08Z</time>
      </trkpt>
      <trkpt lat="46.38226" lon="-0.37832">
        <ele>27.0345</ele>
        <time>2011-06-02T13:35:09Z</time>
      </trkpt>
      <trkpt lat="46.38227" lon="-0.37831">
        <ele>27.0612</ele>
        <time>2011-06-02T13:35:10Z</time>
      </trkpt>
      <trkpt lat="46.38227" lon="-0.37829">
        <ele>27.0841</ele>
        <time>2011-06-02T13:35:11Z</time>
      </trkpt>
      <trkpt lat="46.38227" lon="-0.37827">
        <ele>27.1059</ele>
        <time>2011-06-02T13:35:12Z</time>
      </trkpt>
      <trkpt lat="46.38227" lon="-0.37825">
        <ele>27.126</ele>
        <time>2011-06-02T13:35:13Z</time>
      </trkpt>
      <trkpt lat="46.38227" lon="-0.37824">
        <ele>27.1461</ele>
        <time>2011-06-02T13:35:14Z</time>
      </trkpt>
      <trkpt lat="46.38227" lon="-0.37822">
        <ele>27.165</ele>
        <time>2011-06-02T13:35:15Z</time>
      </trkpt>
      <trkpt lat="46.38227" lon="-0.37821">
        <ele>27.1833</ele>
        <time>2011-06-02T13:35:16Z</time>
      </trkpt>
      <trkpt lat="46.38227" lon="-0.3782">
        <ele>27.2057</ele>
        <time>2011-06-02T13:35:17Z</time>
      </trkpt>
      <trkpt lat="46.38227" lon="-0.37819">
        <ele>27.2354</ele>
        <time>2011-06-02T13:35:18Z</time>
      </trkpt>
      <trkpt lat="46.38227" lon="-0.37818">
        <ele>27.262</ele>
        <time>2011-06-02T13:35:19Z</time>
      </trkpt>
      <trkpt lat="46.38226" lon="-0.37816">
        <ele>27.287</ele>
        <time>2011-06-02T13:35:20Z</time>
      </trkpt>
      <trkpt lat="46.38226" lon="-0.37815">
        <ele>27.3118</ele>
        <time>2011-06-02T13:35:21Z</time>
      </trkpt>
      <trkpt lat="46.38226" lon="-0.37814">
        <ele>27.3365</ele>
        <time>2011-06-02T13:35:22Z</time>
      </trkpt>
      <trkpt lat="46.38225" lon="-0.37813">
        <ele>27.3599</ele>
        <time>2011-06-02T13:35:23Z</time>
      </trkpt>
      <trkpt lat="46.38225" lon="-0.37811">
        <ele>27.3826</ele>
        <time>2011-06-02T13:35:24Z</time>
      </trkpt>
      <trkpt lat="46.38225" lon="-0.3781">
        <ele>27.4021</ele>
        <time>2011-06-02T13:35:25Z</time>
      </trkpt>
      <trkpt lat="46.38224" lon="-0.37809">
        <ele>27.4219</ele>
        <time>2011-06-02T13:35:26Z</time>
      </trkpt>
      <trkpt lat="46.38224" lon="-0.37808">
        <ele>27.4405</ele>
        <time>2011-06-02T13:35:27Z</time>
      </trkpt>
      <trkpt lat="46.38223" lon="-0.37808">
        <ele>27.4612</ele>
        <time>2011-06-02T13:35:28Z</time>
      </trkpt>
      <trkpt lat="46.38223" lon="-0.37806">
        <ele>27.4828</ele>
        <time>2011-06-02T13:35:29Z</time>
      </trkpt>
      <trkpt lat="46.38223" lon="-0.37804">
        <ele>27.4916</ele>
        <time>2011-06-02T13:35:30Z</time>
      </trkpt>
      <trkpt lat="46.38223" lon="-0.37804">
        <ele>27.5106</ele>
        <time>2011-06-02T13:35:31Z</time>
      </trkpt>
      <trkpt lat="46.38224" lon="-0.37803">
        <ele>27.5153</ele>
        <time>2011-06-02T13:35:32Z</time>
      </trkpt>
      <trkpt lat="46.38219" lon="-0.37809">
        <ele>27.4166</ele>
        <time>2011-06-02T13:35:36Z</time>
      </trkpt>
      <trkpt lat="46.38218" lon="-0.37809">
        <ele>27.3793</ele>
        <time>2011-06-02T13:35:37Z</time>
      </trkpt>
      <trkpt lat="46.38216" lon="-0.37808">
        <ele>27.3494</ele>
        <time>2011-06-02T13:35:38Z</time>
      </trkpt>
      <trkpt lat="46.38215" lon="-0.37806">
        <ele>27.32</ele>
        <time>2011-06-02T13:35:39Z</time>
      </trkpt>
      <trkpt lat="46.38213" lon="-0.37805">
        <ele>27.2894</ele>
        <time>2011-06-02T13:35:40Z</time>
      </trkpt>
      <trkpt lat="46.38212" lon="-0.37804">
        <ele>27.2627</ele>
        <time>2011-06-02T13:35:41Z</time>
      </trkpt>
      <trkpt lat="46.38211" lon="-0.37804">
        <ele>27.2373</ele>
        <time>2011-06-02T13:35:42Z</time>
      </trkpt>
      <trkpt lat="46.38211" lon="-0.37803">
        <ele>27.2121</ele>
        <time>2011-06-02T13:35:43Z</time>
      </trkpt>
      <trkpt lat="46.3821" lon="-0.37802">
        <ele>27.1903</ele>
        <time>2011-06-02T13:35:44Z</time>
      </trkpt>
      <trkpt lat="46.38209" lon="-0.37801">
        <ele>27.1714</ele>
        <time>2011-06-02T13:35:45Z</time>
      </trkpt>
      <trkpt lat="46.38208" lon="-0.378">
        <ele>27.1594</ele>
        <time>2011-06-02T13:35:46Z</time>
      </trkpt>
      <trkpt lat="46.38207" lon="-0.37799">
        <ele>27.1512</ele>
        <time>2011-06-02T13:35:47Z</time>
      </trkpt>
      <trkpt lat="46.38206" lon="-0.37799">
        <ele>27.1399</ele>
        <time>2011-06-02T13:35:48Z</time>
      </trkpt>
      <trkpt lat="46.38205" lon="-0.37798">
        <ele>27.1327</ele>
        <time>2011-06-02T13:35:49Z</time>
      </trkpt>
      <trkpt lat="46.38204" lon="-0.37797">
        <ele>27.111</ele>
        <time>2011-06-02T13:35:50Z</time>
      </trkpt>
      <trkpt lat="46.38203" lon="-0.37796">
        <ele>27.0818</ele>
        <time>2011-06-02T13:35:51Z</time>
      </trkpt>
      <trkpt lat="46.38201" lon="-0.37795">
        <ele>27.0557</ele>
        <time>2011-06-02T13:35:52Z</time>
      </trkpt>
      <trkpt lat="46.382" lon="-0.37794">
        <ele>27.0356</ele>
        <time>2011-06-02T13:35:53Z</time>
      </trkpt>
      <trkpt lat="46.38199" lon="-0.37793">
        <ele>27.0187</ele>
        <time>2011-06-02T13:35:54Z</time>
      </trkpt>
      <trkpt lat="46.38198" lon="-0.37793">
        <ele>27.0055</ele>
        <time>2011-06-02T13:35:55Z</time>
      </trkpt>
      <trkpt lat="46.38197" lon="-0.37792">
        <ele>27.0002</ele>
        <time>2011-06-02T13:35:56Z</time>
      </trkpt>
      <trkpt lat="46.38196" lon="-0.37792">
        <ele>26.9983</ele>
        <time>2011-06-02T13:35:57Z</time>
      </trkpt>
      <trkpt lat="46.38195" lon="-0.3779">
        <ele>26.9959</ele>
        <time>2011-06-02T13:35:58Z</time>
      </trkpt>
      <trkpt lat="46.38194" lon="-0.37789">
        <ele>26.9953</ele>
        <time>2011-06-02T13:35:59Z</time>
      </trkpt>
      <trkpt lat="46.38193" lon="-0.37788">
        <ele>26.9941</ele>
        <time>2011-06-02T13:36:00Z</time>
      </trkpt>
      <trkpt lat="46.38193" lon="-0.37787">
        <ele>26.9958</ele>
        <time>2011-06-02T13:36:01Z</time>
      </trkpt>
      <trkpt lat="46.38192" lon="-0.37785">
        <ele>27.0055</ele>
        <time>2011-06-02T13:36:02Z</time>
      </trkpt>
      <trkpt lat="46.38192" lon="-0.37784">
        <ele>27.0165</ele>
        <time>2011-06-02T13:36:03Z</time>
      </trkpt>
      <trkpt lat="46.38191" lon="-0.37783">
        <ele>27.0313</ele>
        <time>2011-06-02T13:36:04Z</time>
      </trkpt>
      <trkpt lat="46.38191" lon="-0.37782">
        <ele>27.0455</ele>
        <time>2011-06-02T13:36:05Z</time>
      </trkpt>
      <trkpt lat="46.38189" lon="-0.37781">
        <ele>27.0594</ele>
        <time>2011-06-02T13:36:06Z</time>
      </trkpt>
      <trkpt lat="46.38189" lon="-0.3778">
        <ele>27.0752</ele>
        <time>2011-06-02T13:36:07Z</time>
      </trkpt>
      <trkpt lat="46.38188" lon="-0.37779">
        <ele>27.1002</ele>
        <time>2011-06-02T13:36:08Z</time>
      </trkpt>
      <trkpt lat="46.38187" lon="-0.37778">
        <ele>27.1108</ele>
        <time>2011-06-02T13:36:09Z</time>
      </trkpt>
      <trkpt lat="46.38186" lon="-0.37776">
        <ele>27.1215</ele>
        <time>2011-06-02T13:36:10Z</time>
      </trkpt>
      <trkpt lat="46.38186" lon="-0.37775">
        <ele>27.1307</ele>
        <time>2011-06-02T13:36:11Z</time>
      </trkpt>
      <trkpt lat="46.38186" lon="-0.37774">
        <ele>27.1405</ele>
        <time>2011-06-02T13:36:12Z</time>
      </trkpt>
      <trkpt lat="46.38185" lon="-0.37772">
        <ele>27.1524</ele>
        <time>2011-06-02T13:36:13Z</time>
      </trkpt>
      <trkpt lat="46.38185" lon="-0.3777">
        <ele>27.1655</ele>
        <time>2011-06-02T13:36:14Z</time>
      </trkpt>
      <trkpt lat="46.38184" lon="-0.37768">
        <ele>27.1823</ele>
        <time>2011-06-02T13:36:15Z</time>
      </trkpt>
      <trkpt lat="46.38184" lon="-0.37767">
        <ele>27.1996</ele>
        <time>2011-06-02T13:36:16Z</time>
      </trkpt>
      <trkpt lat="46.38184" lon="-0.37765">
        <ele>27.2164</ele>
        <time>2011-06-02T13:36:17Z</time>
      </trkpt>
      <trkpt lat="46.38183" lon="-0.37764">
        <ele>27.2337</ele>
        <time>2011-06-02T13:36:18Z</time>
      </trkpt>
      <trkpt lat="46.38183" lon="-0.37762">
        <ele>27.2549</ele>
        <time>2011-06-02T13:36:19Z</time>
      </trkpt>
      <trkpt lat="46.38182" lon="-0.3776">
        <ele>27.2747</ele>
        <time>2011-06-02T13:36:20Z</time>
      </trkpt>
      <trkpt lat="46.38182" lon="-0.37759">
        <ele>27.2942</ele>
        <time>2011-06-02T13:36:21Z</time>
      </trkpt>
      <trkpt lat="46.38181" lon="-0.37758">
        <ele>27.3135</ele>
        <time>2011-06-02T13:36:22Z</time>
      </trkpt>
      <trkpt lat="46.3818" lon="-0.37758">
        <ele>27.3438</ele>
        <time>2011-06-02T13:36:23Z</time>
      </trkpt>
      <trkpt lat="46.38179" lon="-0.37757">
        <ele>27.3736</ele>
        <time>2011-06-02T13:36:24Z</time>
      </trkpt>
      <trkpt lat="46.38178" lon="-0.37756">
        <ele>27.3904</ele>
        <time>2011-06-02T13:36:25Z</time>
      </trkpt>
      <trkpt lat="46.38177" lon="-0.37755">
        <ele>27.4026</ele>
        <time>2011-06-02T13:36:26Z</time>
      </trkpt>
      <trkpt lat="46.38176" lon="-0.37754">
        <ele>27.4061</ele>
        <time>2011-06-02T13:36:27Z</time>
      </trkpt>
      <trkpt lat="46.38175" lon="-0.37752">
        <ele>27.4091</ele>
        <time>2011-06-02T13:36:28Z</time>
      </trkpt>
      <trkpt lat="46.38174" lon="-0.37752">
        <ele>27.4104</ele>
        <time>2011-06-02T13:36:29Z</time>
      </trkpt>
      <trkpt lat="46.38173" lon="-0.37751">
        <ele>27.4103</ele>
        <time>2011-06-02T13:36:30Z</time>
      </trkpt>
      <trkpt lat="46.38172" lon="-0.37751">
        <ele>27.4045</ele>
        <time>2011-06-02T13:36:31Z</time>
      </trkpt>
      <trkpt lat="46.38171" lon="-0.3775">
        <ele>27.3974</ele>
        <time>2011-06-02T13:36:32Z</time>
      </trkpt>
      <trkpt lat="46.3817" lon="-0.37749">
        <ele>27.3916</ele>
        <time>2011-06-02T13:36:33Z</time>
      </trkpt>
      <trkpt lat="46.38169" lon="-0.37749">
        <ele>27.3858</ele>
        <time>2011-06-02T13:36:34Z</time>
      </trkpt>
      <trkpt lat="46.38168" lon="-0.37748">
        <ele>27.3848</ele>
        <time>2011-06-02T13:36:35Z</time>
      </trkpt>
      <trkpt lat="46.38167" lon="-0.37748">
        <ele>27.3859</ele>
        <time>2011-06-02T13:36:36Z</time>
      </trkpt>
      <trkpt lat="46.38166" lon="-0.37747">
        <ele>27.3943</ele>
        <time>2011-06-02T13:36:37Z</time>
      </trkpt>
      <trkpt lat="46.38165" lon="-0.37746">
        <ele>27.4048</ele>
        <time>2011-06-02T13:36:38Z</time>
      </trkpt>
      <trkpt lat="46.38164" lon="-0.37745">
        <ele>27.4147</ele>
        <time>2011-06-02T13:36:39Z</time>
      </trkpt>
      <trkpt lat="46.38163" lon="-0.37744">
        <ele>27.4271</ele>
        <time>2011-06-02T13:36:40Z</time>
      </trkpt>
      <trkpt lat="46.38162" lon="-0.37743">
        <ele>27.4408</ele>
        <time>2011-06-02T13:36:41Z</time>
      </trkpt>
      <trkpt lat="46.38162" lon="-0.37742">
        <ele>27.4566</ele>
        <time>2011-06-02T13:36:42Z</time>
      </trkpt>
      <trkpt lat="46.38161" lon="-0.37741">
        <ele>27.4725</ele>
        <time>2011-06-02T13:36:43Z</time>
      </trkpt>
      <trkpt lat="46.3816" lon="-0.3774">
        <ele>27.4931</ele>
        <time>2011-06-02T13:36:44Z</time>
      </trkpt>
      <trkpt lat="46.38159" lon="-0.37738">
        <ele>27.5138</ele>
        <time>2011-06-02T13:36:45Z</time>
      </trkpt>
      <trkpt lat="46.38158" lon="-0.37737">
        <ele>27.5351</ele>
        <time>2011-06-02T13:36:46Z</time>
      </trkpt>
      <trkpt lat="46.38157" lon="-0.37736">
        <ele>27.5556</ele>
        <time>2011-06-02T13:36:47Z</time>
      </trkpt>
      <trkpt lat="46.38157" lon="-0.37735">
        <ele>27.5775</ele>
        <time>2011-06-02T13:36:48Z</time>
      </trkpt>
      <trkpt lat="46.38156" lon="-0.37734">
        <ele>27.6003</ele>
        <time>2011-06-02T13:36:49Z</time>
      </trkpt>
      <trkpt lat="46.38156" lon="-0.37734">
        <ele>27.6225</ele>
        <time>2011-06-02T13:36:50Z</time>
      </trkpt>
      <trkpt lat="46.38155" lon="-0.37737">
        <ele>27.6546</ele>
        <time>2011-06-02T13:36:54Z</time>
      </trkpt>
      <trkpt lat="46.38155" lon="-0.37736">
        <ele>27.6839</ele>
        <time>2011-06-02T13:36:55Z</time>
      </trkpt>
      <trkpt lat="46.38155" lon="-0.37736">
        <ele>27.7171</ele>
        <time>2011-06-02T13:36:56Z</time>
      </trkpt>
      <trkpt lat="46.38156" lon="-0.37735">
        <ele>27.7515</ele>
        <time>2011-06-02T13:36:57Z</time>
      </trkpt>
      <trkpt lat="46.38155" lon="-0.37734">
        <ele>27.7853</ele>
        <time>2011-06-02T13:36:58Z</time>
      </trkpt>
      <trkpt lat="46.38154" lon="-0.37734">
        <ele>27.8189</ele>
        <time>2011-06-02T13:36:59Z</time>
      </trkpt>
      <trkpt lat="46.38153" lon="-0.37733">
        <ele>27.8523</ele>
        <time>2011-06-02T13:37:00Z</time>
      </trkpt>
      <trkpt lat="46.38152" lon="-0.37731">
        <ele>27.8805</ele>
        <time>2011-06-02T13:37:01Z</time>
      </trkpt>
      <trkpt lat="46.38152" lon="-0.37729">
        <ele>27.9094</ele>
        <time>2011-06-02T13:37:02Z</time>
      </trkpt>
      <trkpt lat="46.38151" lon="-0.37727">
        <ele>27.945</ele>
        <time>2011-06-02T13:37:03Z</time>
      </trkpt>
      <trkpt lat="46.3815" lon="-0.37725">
        <ele>27.9819</ele>
        <time>2011-06-02T13:37:04Z</time>
      </trkpt>
      <trkpt lat="46.38149" lon="-0.37724">
        <ele>28.0094</ele>
        <time>2011-06-02T13:37:05Z</time>
      </trkpt>
      <trkpt lat="46.38149" lon="-0.37723">
        <ele>28.0365</ele>
        <time>2011-06-02T13:37:06Z</time>
      </trkpt>
      <trkpt lat="46.38148" lon="-0.37722">
        <ele>28.0648</ele>
        <time>2011-06-02T13:37:07Z</time>
      </trkpt>
      <trkpt lat="46.38147" lon="-0.37721">
        <ele>28.0936</ele>
        <time>2011-06-02T13:37:08Z</time>
      </trkpt>
      <trkpt lat="46.38146" lon="-0.37719">
        <ele>28.1236</ele>
        <time>2011-06-02T13:37:09Z</time>
      </trkpt>
      <trkpt lat="46.38145" lon="-0.37718">
        <ele>28.1492</ele>
        <time>2011-06-02T13:37:10Z</time>
      </trkpt>
      <trkpt lat="46.38144" lon="-0.37716">
        <ele>28.176</ele>
        <time>2011-06-02T13:37:11Z</time>
      </trkpt>
      <trkpt lat="46.38144" lon="-0.37714">
        <ele>28.2034</ele>
        <time>2011-06-02T13:37:12Z</time>
      </trkpt>
      <trkpt lat="46.38143" lon="-0.37713">
        <ele>28.2338</ele>
        <time>2011-06-02T13:37:13Z</time>
      </trkpt>
      <trkpt lat="46.38143" lon="-0.37712">
        <ele>28.2642</ele>
        <time>2011-06-02T13:37:14Z</time>
      </trkpt>
      <trkpt lat="46.38142" lon="-0.3771">
        <ele>28.2953</ele>
        <time>2011-06-02T13:37:15Z</time>
      </trkpt>
      <trkpt lat="46.38142" lon="-0.37709">
        <ele>28.3278</ele>
        <time>2011-06-02T13:37:16Z</time>
      </trkpt>
      <trkpt lat="46.38141" lon="-0.37708">
        <ele>28.3629</ele>
        <time>2011-06-02T13:37:17Z</time>
      </trkpt>
      <trkpt lat="46.38141" lon="-0.37708">
        <ele>28.4051</ele>
        <time>2011-06-02T13:37:18Z</time>
      </trkpt>
      <trkpt lat="46.38141" lon="-0.37708">
        <ele>28.4465</ele>
        <time>2011-06-02T13:37:19Z</time>
      </trkpt>
      <trkpt lat="46.3814" lon="-0.37707">
        <ele>28.487</ele>
        <time>2011-06-02T13:37:20Z</time>
      </trkpt>
      <trkpt lat="46.38139" lon="-0.37706">
        <ele>28.5271</ele>
        <time>2011-06-02T13:37:21Z</time>
      </trkpt>
      <trkpt lat="46.38139" lon="-0.37705">
        <ele>28.5595</ele>
        <time>2011-06-02T13:37:22Z</time>
      </trkpt>
      <trkpt lat="46.38138" lon="-0.37703">
        <ele>28.5881</ele>
        <time>2011-06-02T13:37:23Z</time>
      </trkpt>
      <trkpt lat="46.38137" lon="-0.37701">
        <ele>28.617</ele>
        <time>2011-06-02T13:37:24Z</time>
      </trkpt>
      <trkpt lat="46.38137" lon="-0.377">
        <ele>28.6439</ele>
        <time>2011-06-02T13:37:25Z</time>
      </trkpt>
      <trkpt lat="46.38136" lon="-0.37698">
        <ele>28.6651</ele>
        <time>2011-06-02T13:37:26Z</time>
      </trkpt>
      <trkpt lat="46.38136" lon="-0.37696">
        <ele>28.6794</ele>
        <time>2011-06-02T13:37:27Z</time>
      </trkpt>
      <trkpt lat="46.38135" lon="-0.37695">
        <ele>28.6952</ele>
        <time>2011-06-02T13:37:28Z</time>
      </trkpt>
      <trkpt lat="46.38134" lon="-0.37695">
        <ele>28.7086</ele>
        <time>2011-06-02T13:37:29Z</time>
      </trkpt>
      <trkpt lat="46.38133" lon="-0.37695">
        <ele>28.7195</ele>
        <time>2011-06-02T13:37:30Z</time>
      </trkpt>
      <trkpt lat="46.38132" lon="-0.37696">
        <ele>28.7259</ele>
        <time>2011-06-02T13:37:31Z</time>
      </trkpt>
      <trkpt lat="46.3813" lon="-0.37698">
        <ele>28.7293</ele>
        <time>2011-06-02T13:37:34Z</time>
      </trkpt>
      <trkpt lat="46.38129" lon="-0.37698">
        <ele>28.7315</ele>
        <time>2011-06-02T13:37:35Z</time>
      </trkpt>
      <trkpt lat="46.38129" lon="-0.37698">
        <ele>28.7334</ele>
        <time>2011-06-02T13:37:36Z</time>
      </trkpt>
      <trkpt lat="46.38128" lon="-0.37697">
        <ele>28.7353</ele>
        <time>2011-06-02T13:37:37Z</time>
      </trkpt>
      <trkpt lat="46.38128" lon="-0.37697">
        <ele>28.7369</ele>
        <time>2011-06-02T13:37:38Z</time>
      </trkpt>
      <trkpt lat="46.38127" lon="-0.37696">
        <ele>28.7382</ele>
        <time>2011-06-02T13:37:39Z</time>
      </trkpt>
      <trkpt lat="46.38126" lon="-0.37695">
        <ele>28.7387</ele>
        <time>2011-06-02T13:37:40Z</time>
      </trkpt>
      <trkpt lat="46.38126" lon="-0.37694">
        <ele>28.7392</ele>
        <time>2011-06-02T13:37:41Z</time>
      </trkpt>
      <trkpt lat="46.38125" lon="-0.37693">
        <ele>28.7399</ele>
        <time>2011-06-02T13:37:42Z</time>
      </trkpt>
      <trkpt lat="46.38125" lon="-0.37692">
        <ele>28.7423</ele>
        <time>2011-06-02T13:37:43Z</time>
      </trkpt>
      <trkpt lat="46.38124" lon="-0.37692">
        <ele>28.7435</ele>
        <time>2011-06-02T13:37:44Z</time>
      </trkpt>
      <trkpt lat="46.38123" lon="-0.37691">
        <ele>28.7431</ele>
        <time>2011-06-02T13:37:45Z</time>
      </trkpt>
      <trkpt lat="46.38122" lon="-0.3769">
        <ele>28.7441</ele>
        <time>2011-06-02T13:37:46Z</time>
      </trkpt>
      <trkpt lat="46.38122" lon="-0.37689">
        <ele>28.7419</ele>
        <time>2011-06-02T13:37:47Z</time>
      </trkpt>
      <trkpt lat="46.38121" lon="-0.37688">
        <ele>28.7301</ele>
        <time>2011-06-02T13:37:48Z</time>
      </trkpt>
      <trkpt lat="46.38121" lon="-0.37688">
        <ele>28.717</ele>
        <time>2011-06-02T13:37:49Z</time>
      </trkpt>
      <trkpt lat="46.3812" lon="-0.37687">
        <ele>28.7027</ele>
        <time>2011-06-02T13:37:50Z</time>
      </trkpt>
      <trkpt lat="46.3812" lon="-0.37686">
        <ele>28.6902</ele>
        <time>2011-06-02T13:37:51Z</time>
      </trkpt>
      <trkpt lat="46.38119" lon="-0.37686">
        <ele>28.6715</ele>
        <time>2011-06-02T13:37:52Z</time>
      </trkpt>
      <trkpt lat="46.38118" lon="-0.37685">
        <ele>28.6469</ele>
        <time>2011-06-02T13:37:53Z</time>
      </trkpt>
      <trkpt lat="46.38118" lon="-0.37684">
        <ele>28.6168</ele>
        <time>2011-06-02T13:37:54Z</time>
      </trkpt>
      <trkpt lat="46.38117" lon="-0.37684">
        <ele>28.5829</ele>
        <time>2011-06-02T13:37:55Z</time>
      </trkpt>
      <trkpt lat="46.38117" lon="-0.37684">
        <ele>28.5627</ele>
        <time>2011-06-02T13:37:56Z</time>
      </trkpt>
      <trkpt lat="46.38116" lon="-0.37684">
        <ele>28.554</ele>
        <time>2011-06-02T13:37:57Z</time>
      </trkpt>
      <trkpt lat="46.38115" lon="-0.37684">
        <ele>28.5494</ele>
        <time>2011-06-02T13:37:58Z</time>
      </trkpt>
      <trkpt lat="46.38115" lon="-0.37684">
        <ele>28.5396</ele>
        <time>2011-06-02T13:37:59Z</time>
      </trkpt>
      <trkpt lat="46.38114" lon="-0.37684">
        <ele>28.5286</ele>
        <time>2011-06-02T13:38:00Z</time>
      </trkpt>
      <trkpt lat="46.38113" lon="-0.37684">
        <ele>28.5197</ele>
        <time>2011-06-02T13:38:01Z</time>
      </trkpt>
      <trkpt lat="46.38112" lon="-0.37684">
        <ele>28.5141</ele>
        <time>2011-06-02T13:38:02Z</time>
      </trkpt>
      <trkpt lat="46.38111" lon="-0.37684">
        <ele>28.5184</ele>
        <time>2011-06-02T13:38:03Z</time>
      </trkpt>
      <trkpt lat="46.3811" lon="-0.37684">
        <ele>28.5276</ele>
        <time>2011-06-02T13:38:04Z</time>
      </trkpt>
      <trkpt lat="46.38108" lon="-0.37683">
        <ele>28.5454</ele>
        <time>2011-06-02T13:38:05Z</time>
      </trkpt>
      <trkpt lat="46.38107" lon="-0.37682">
        <ele>28.5582</ele>
        <time>2011-06-02T13:38:06Z</time>
      </trkpt>
      <trkpt lat="46.38105" lon="-0.37682">
        <ele>28.5585</ele>
        <time>2011-06-02T13:38:07Z</time>
      </trkpt>
      <trkpt lat="46.38105" lon="-0.37681">
        <ele>28.5416</ele>
        <time>2011-06-02T13:38:08Z</time>
      </trkpt>
      <trkpt lat="46.38104" lon="-0.3768">
        <ele>28.5243</ele>
        <time>2011-06-02T13:38:09Z</time>
      </trkpt>
      <trkpt lat="46.38102" lon="-0.37679">
        <ele>28.505</ele>
        <time>2011-06-02T13:38:10Z</time>
      </trkpt>
      <trkpt lat="46.38102" lon="-0.37679">
        <ele>28.472</ele>
        <time>2011-06-02T13:38:11Z</time>
      </trkpt>
      <trkpt lat="46.38101" lon="-0.37678">
        <ele>28.4576</ele>
        <time>2011-06-02T13:38:12Z</time>
      </trkpt>
      <trkpt lat="46.381" lon="-0.37677">
        <ele>28.4476</ele>
        <time>2011-06-02T13:38:13Z</time>
      </trkpt>
      <trkpt lat="46.38099" lon="-0.37676">
        <ele>28.4396</ele>
        <time>2011-06-02T13:38:14Z</time>
      </trkpt>
      <trkpt lat="46.38099" lon="-0.37675">
        <ele>28.4383</ele>
        <time>2011-06-02T13:38:15Z</time>
      </trkpt>
      <trkpt lat="46.38098" lon="-0.37674">
        <ele>28.4395</ele>
        <time>2011-06-02T13:38:16Z</time>
      </trkpt>
      <trkpt lat="46.38097" lon="-0.37673">
        <ele>28.4515</ele>
        <time>2011-06-02T13:38:17Z</time>
      </trkpt>
      <trkpt lat="46.38096" lon="-0.37672">
        <ele>28.4645</ele>
        <time>2011-06-02T13:38:18Z</time>
      </trkpt>
      <trkpt lat="46.38094" lon="-0.37671">
        <ele>28.4782</ele>
        <time>2011-06-02T13:38:19Z</time>
      </trkpt>
      <trkpt lat="46.38094" lon="-0.3767">
        <ele>28.4908</ele>
        <time>2011-06-02T13:38:20Z</time>
      </trkpt>
      <trkpt lat="46.38093" lon="-0.37669">
        <ele>28.5106</ele>
        <time>2011-06-02T13:38:21Z</time>
      </trkpt>
      <trkpt lat="46.38092" lon="-0.37668">
        <ele>28.5321</ele>
        <time>2011-06-02T13:38:22Z</time>
      </trkpt>
      <trkpt lat="46.38091" lon="-0.37667">
        <ele>28.5516</ele>
        <time>2011-06-02T13:38:23Z</time>
      </trkpt>
      <trkpt lat="46.38091" lon="-0.37666">
        <ele>28.5722</ele>
        <time>2011-06-02T13:38:24Z</time>
      </trkpt>
      <trkpt lat="46.3809" lon="-0.37665">
        <ele>28.5946</ele>
        <time>2011-06-02T13:38:25Z</time>
      </trkpt>
      <trkpt lat="46.38089" lon="-0.37664">
        <ele>28.6207</ele>
        <time>2011-06-02T13:38:26Z</time>
      </trkpt>
      <trkpt lat="46.38088" lon="-0.37663">
        <ele>28.6501</ele>
        <time>2011-06-02T13:38:27Z</time>
      </trkpt>
      <trkpt lat="46.38088" lon="-0.37663">
        <ele>28.6783</ele>
        <time>2011-06-02T13:38:28Z</time>
      </trkpt>
      <trkpt lat="46.38087" lon="-0.37662">
        <ele>28.7032</ele>
        <time>2011-06-02T13:38:29Z</time>
      </trkpt>
      <trkpt lat="46.38086" lon="-0.37661">
        <ele>28.7352</ele>
        <time>2011-06-02T13:38:30Z</time>
      </trkpt>
      <trkpt lat="46.38085" lon="-0.3766">
        <ele>28.7656</ele>
        <time>2011-06-02T13:38:31Z</time>
      </trkpt>
      <trkpt lat="46.38084" lon="-0.37659">
        <ele>28.7899</ele>
        <time>2011-06-02T13:38:32Z</time>
      </trkpt>
      <trkpt lat="46.38083" lon="-0.37658">
        <ele>28.8124</ele>
        <time>2011-06-02T13:38:33Z</time>
      </trkpt>
      <trkpt lat="46.38082" lon="-0.37657">
        <ele>28.8329</ele>
        <time>2011-06-02T13:38:34Z</time>
      </trkpt>
      <trkpt lat="46.38081" lon="-0.37656">
        <ele>28.8563</ele>
        <time>2011-06-02T13:38:35Z</time>
      </trkpt>
      <trkpt lat="46.3808" lon="-0.37654">
        <ele>28.8819</ele>
        <time>2011-06-02T13:38:36Z</time>
      </trkpt>
      <trkpt lat="46.38079" lon="-0.37652">
        <ele>28.909</ele>
        <time>2011-06-02T13:38:37Z</time>
      </trkpt>
      <trkpt lat="46.38078" lon="-0.37651">
        <ele>28.9326</ele>
        <time>2011-06-02T13:38:38Z</time>
      </trkpt>
      <trkpt lat="46.38077" lon="-0.3765">
        <ele>28.9615</ele>
        <time>2011-06-02T13:38:39Z</time>
      </trkpt>
      <trkpt lat="46.38076" lon="-0.37648">
        <ele>29.0184</ele>
        <time>2011-06-02T13:38:40Z</time>
      </trkpt>
      <trkpt lat="46.38075" lon="-0.37646">
        <ele>29.0975</ele>
        <time>2011-06-02T13:38:41Z</time>
      </trkpt>
      <trkpt lat="46.38074" lon="-0.37644">
        <ele>29.1871</ele>
        <time>2011-06-02T13:38:42Z</time>
      </trkpt>
      <trkpt lat="46.38073" lon="-0.37643">
        <ele>29.2845</ele>
        <time>2011-06-02T13:38:43Z</time>
      </trkpt>
      <trkpt lat="46.38072" lon="-0.37642">
        <ele>29.3868</ele>
        <time>2011-06-02T13:38:44Z</time>
      </trkpt>
      <trkpt lat="46.38071" lon="-0.3764">
        <ele>29.49</ele>
        <time>2011-06-02T13:38:45Z</time>
      </trkpt>
      <trkpt lat="46.3807" lon="-0.3764">
        <ele>29.5926</ele>
        <time>2011-06-02T13:38:46Z</time>
      </trkpt>
      <trkpt lat="46.38069" lon="-0.37639">
        <ele>29.696</ele>
        <time>2011-06-02T13:38:47Z</time>
      </trkpt>
      <trkpt lat="46.38068" lon="-0.37639">
        <ele>29.7997</ele>
        <time>2011-06-02T13:38:48Z</time>
      </trkpt>
      <trkpt lat="46.38068" lon="-0.37638">
        <ele>29.9063</ele>
        <time>2011-06-02T13:38:49Z</time>
      </trkpt>
      <trkpt lat="46.38067" lon="-0.37638">
        <ele>30.0146</ele>
        <time>2011-06-02T13:38:50Z</time>
      </trkpt>
      <trkpt lat="46.38066" lon="-0.37637">
        <ele>30.1226</ele>
        <time>2011-06-02T13:38:51Z</time>
      </trkpt>
      <trkpt lat="46.38066" lon="-0.37636">
        <ele>30.2281</ele>
        <time>2011-06-02T13:38:52Z</time>
      </trkpt>
      <trkpt lat="46.38065" lon="-0.37636">
        <ele>30.3296</ele>
        <time>2011-06-02T13:38:53Z</time>
      </trkpt>
      <trkpt lat="46.38063" lon="-0.37635">
        <ele>30.4232</ele>
        <time>2011-06-02T13:38:54Z</time>
      </trkpt>
      <trkpt lat="46.38063" lon="-0.37635">
        <ele>30.515</ele>
        <time>2011-06-02T13:38:55Z</time>
      </trkpt>
      <trkpt lat="46.38062" lon="-0.37634">
        <ele>30.5964</ele>
        <time>2011-06-02T13:38:56Z</time>
      </trkpt>
      <trkpt lat="46.38062" lon="-0.37634">
        <ele>30.668</ele>
        <time>2011-06-02T13:38:57Z</time>
      </trkpt>
      <trkpt lat="46.38061" lon="-0.37633">
        <ele>30.7369</ele>
        <time>2011-06-02T13:38:58Z</time>
      </trkpt>
      <trkpt lat="46.38061" lon="-0.37632">
        <ele>30.8066</ele>
        <time>2011-06-02T13:38:59Z</time>
      </trkpt>
      <trkpt lat="46.38061" lon="-0.37631">
        <ele>30.8763</ele>
        <time>2011-06-02T13:39:00Z</time>
      </trkpt>
      <trkpt lat="46.3806" lon="-0.3763">
        <ele>30.9433</ele>
        <time>2011-06-02T13:39:01Z</time>
      </trkpt>
      <trkpt lat="46.3806" lon="-0.3763">
        <ele>31.0074</ele>
        <time>2011-06-02T13:39:02Z</time>
      </trkpt>
      <trkpt lat="46.38059" lon="-0.37629">
        <ele>31.0693</ele>
        <time>2011-06-02T13:39:03Z</time>
      </trkpt>
      <trkpt lat="46.38058" lon="-0.37628">
        <ele>31.1331</ele>
        <time>2011-06-02T13:39:04Z</time>
      </trkpt>
      <trkpt lat="46.38057" lon="-0.37627">
        <ele>31.1987</ele>
        <time>2011-06-02T13:39:05Z</time>
      </trkpt>
      <trkpt lat="46.38057" lon="-0.37626">
        <ele>31.2651</ele>
        <time>2011-06-02T13:39:06Z</time>
      </trkpt>
      <trkpt lat="46.38056" lon="-0.37625">
        <ele>31.3316</ele>
        <time>2011-06-02T13:39:07Z</time>
      </trkpt>
      <trkpt lat="46.38055" lon="-0.37624">
        <ele>31.3981</ele>
        <time>2011-06-02T13:39:08Z</time>
      </trkpt>
      <trkpt lat="46.38055" lon="-0.37624">
        <ele>31.4561</ele>
        <time>2011-06-02T13:39:09Z</time>
      </trkpt>
      <trkpt lat="46.38054" lon="-0.37623">
        <ele>31.5035</ele>
        <time>2011-06-02T13:39:10Z</time>
      </trkpt>
      <trkpt lat="46.38053" lon="-0.37623">
        <ele>31.5485</ele>
        <time>2011-06-02T13:39:11Z</time>
      </trkpt>
      <trkpt lat="46.38052" lon="-0.37622">
        <ele>31.5907</ele>
        <time>2011-06-02T13:39:12Z</time>
      </trkpt>
      <trkpt lat="46.38051" lon="-0.37621">
        <ele>31.6283</ele>
        <time>2011-06-02T13:39:13Z</time>
      </trkpt>
      <trkpt lat="46.38051" lon="-0.37621">
        <ele>31.6644</ele>
        <time>2011-06-02T13:39:14Z</time>
      </trkpt>
      <trkpt lat="46.3805" lon="-0.3762">
        <ele>31.7006</ele>
        <time>2011-06-02T13:39:15Z</time>
      </trkpt>
      <trkpt lat="46.38049" lon="-0.3762">
        <ele>31.7366</ele>
        <time>2011-06-02T13:39:16Z</time>
      </trkpt>
      <trkpt lat="46.38048" lon="-0.37619">
        <ele>31.7792</ele>
        <time>2011-06-02T13:39:17Z</time>
      </trkpt>
      <trkpt lat="46.38047" lon="-0.37619">
        <ele>31.8279</ele>
        <time>2011-06-02T13:39:18Z</time>
      </trkpt>
      <trkpt lat="46.38046" lon="-0.37618">
        <ele>31.8776</ele>
        <time>2011-06-02T13:39:19Z</time>
      </trkpt>
      <trkpt lat="46.38045" lon="-0.37618">
        <ele>31.9236</ele>
        <time>2011-06-02T13:39:20Z</time>
      </trkpt>
      <trkpt lat="46.38044" lon="-0.37617">
        <ele>31.9706</ele>
        <time>2011-06-02T13:39:21Z</time>
      </trkpt>
      <trkpt lat="46.38043" lon="-0.37616">
        <ele>32.0244</ele>
        <time>2011-06-02T13:39:22Z</time>
      </trkpt>
      <trkpt lat="46.38042" lon="-0.37615">
        <ele>32.0898</ele>
        <time>2011-06-02T13:39:23Z</time>
      </trkpt>
      <trkpt lat="46.38041" lon="-0.37614">
        <ele>32.1534</ele>
        <time>2011-06-02T13:39:24Z</time>
      </trkpt>
      <trkpt lat="46.38041" lon="-0.37612">
        <ele>32.2159</ele>
        <time>2011-06-02T13:39:25Z</time>
      </trkpt>
      <trkpt lat="46.38039" lon="-0.37611">
        <ele>32.2721</ele>
        <time>2011-06-02T13:39:26Z</time>
      </trkpt>
      <trkpt lat="46.38037" lon="-0.37611">
        <ele>32.3148</ele>
        <time>2011-06-02T13:39:27Z</time>
      </trkpt>
      <trkpt lat="46.38035" lon="-0.37611">
        <ele>32.3499</ele>
        <time>2011-06-02T13:39:28Z</time>
      </trkpt>
      <trkpt lat="46.38034" lon="-0.37611">
        <ele>32.3816</ele>
        <time>2011-06-02T13:39:29Z</time>
      </trkpt>
      <trkpt lat="46.38033" lon="-0.3761">
        <ele>32.4094</ele>
        <time>2011-06-02T13:39:30Z</time>
      </trkpt>
      <trkpt lat="46.38032" lon="-0.37609">
        <ele>32.4395</ele>
        <time>2011-06-02T13:39:31Z</time>
      </trkpt>
      <trkpt lat="46.38031" lon="-0.37608">
        <ele>32.4682</ele>
        <time>2011-06-02T13:39:32Z</time>
      </trkpt>
      <trkpt lat="46.3803" lon="-0.37607">
        <ele>32.496</ele>
        <time>2011-06-02T13:39:33Z</time>
      </trkpt>
      <trkpt lat="46.3803" lon="-0.37606">
        <ele>32.5247</ele>
        <time>2011-06-02T13:39:34Z</time>
      </trkpt>
      <trkpt lat="46.3803" lon="-0.37605">
        <ele>32.5506</ele>
        <time>2011-06-02T13:39:35Z</time>
      </trkpt>
      <trkpt lat="46.38029" lon="-0.37604">
        <ele>32.577</ele>
        <time>2011-06-02T13:39:36Z</time>
      </trkpt>
      <trkpt lat="46.38028" lon="-0.37603">
        <ele>32.6056</ele>
        <time>2011-06-02T13:39:37Z</time>
      </trkpt>
      <trkpt lat="46.38028" lon="-0.37603">
        <ele>32.6336</ele>
        <time>2011-06-02T13:39:38Z</time>
      </trkpt>
      <trkpt lat="46.38027" lon="-0.37603">
        <ele>32.658</ele>
        <time>2011-06-02T13:39:39Z</time>
      </trkpt>
      <trkpt lat="46.38026" lon="-0.37602">
        <ele>32.6802</ele>
        <time>2011-06-02T13:39:40Z</time>
      </trkpt>
      <trkpt lat="46.38025" lon="-0.37602">
        <ele>32.6999</ele>
        <time>2011-06-02T13:39:41Z</time>
      </trkpt>
      <trkpt lat="46.38024" lon="-0.37601">
        <ele>32.7189</ele>
        <time>2011-06-02T13:39:42Z</time>
      </trkpt>
      <trkpt lat="46.38023" lon="-0.376">
        <ele>32.7405</ele>
        <time>2011-06-02T13:39:43Z</time>
      </trkpt>
      <trkpt lat="46.38023" lon="-0.37599">
        <ele>32.7627</ele>
        <time>2011-06-02T13:39:44Z</time>
      </trkpt>
      <trkpt lat="46.38022" lon="-0.37598">
        <ele>32.7899</ele>
        <time>2011-06-02T13:39:45Z</time>
      </trkpt>
      <trkpt lat="46.38021" lon="-0.37597">
        <ele>32.8205</ele>
        <time>2011-06-02T13:39:46Z</time>
      </trkpt>
      <trkpt lat="46.3802" lon="-0.37596">
        <ele>32.8517</ele>
        <time>2011-06-02T13:39:47Z</time>
      </trkpt>
      <trkpt lat="46.3802" lon="-0.37594">
        <ele>32.8846</ele>
        <time>2011-06-02T13:39:48Z</time>
      </trkpt>
      <trkpt lat="46.38019" lon="-0.37593">
        <ele>32.9247</ele>
        <time>2011-06-02T13:39:49Z</time>
      </trkpt>
      <trkpt lat="46.38018" lon="-0.37589">
        <ele>33.0321</ele>
        <time>2011-06-02T13:39:52Z</time>
      </trkpt>
      <trkpt lat="46.38018" lon="-0.37588">
        <ele>33.0829</ele>
        <time>2011-06-02T13:39:53Z</time>
      </trkpt>
      <trkpt lat="46.38017" lon="-0.37587">
        <ele>33.1345</ele>
        <time>2011-06-02T13:39:54Z</time>
      </trkpt>
      <trkpt lat="46.38016" lon="-0.37587">
        <ele>33.1852</ele>
        <time>2011-06-02T13:39:55Z</time>
      </trkpt>
      <trkpt lat="46.38015" lon="-0.37586">
        <ele>33.2339</ele>
        <time>2011-06-02T13:39:56Z</time>
      </trkpt>
      <trkpt lat="46.38014" lon="-0.37584">
        <ele>33.2818</ele>
        <time>2011-06-02T13:39:57Z</time>
      </trkpt>
      <trkpt lat="46.38014" lon="-0.37584">
        <ele>33.3262</ele>
        <time>2011-06-02T13:39:58Z</time>
      </trkpt>
      <trkpt lat="46.38013" lon="-0.37583">
        <ele>33.3698</ele>
        <time>2011-06-02T13:39:59Z</time>
      </trkpt>
      <trkpt lat="46.38012" lon="-0.37582">
        <ele>33.4125</ele>
        <time>2011-06-02T13:40:00Z</time>
      </trkpt>
      <trkpt lat="46.38011" lon="-0.37582">
        <ele>33.4549</ele>
        <time>2011-06-02T13:40:01Z</time>
      </trkpt>
      <trkpt lat="46.3801" lon="-0.37582">
        <ele>33.4969</ele>
        <time>2011-06-02T13:40:02Z</time>
      </trkpt>
      <trkpt lat="46.38009" lon="-0.37581">
        <ele>33.5392</ele>
        <time>2011-06-02T13:40:03Z</time>
      </trkpt>
      <trkpt lat="46.38008" lon="-0.3758">
        <ele>33.5802</ele>
        <time>2011-06-02T13:40:04Z</time>
      </trkpt>
      <trkpt lat="46.38007" lon="-0.37579">
        <ele>33.6162</ele>
        <time>2011-06-02T13:40:05Z</time>
      </trkpt>
      <trkpt lat="46.38007" lon="-0.37578">
        <ele>33.6497</ele>
        <time>2011-06-02T13:40:06Z</time>
      </trkpt>
      <trkpt lat="46.38006" lon="-0.37577">
        <ele>33.6817</ele>
        <time>2011-06-02T13:40:07Z</time>
      </trkpt>
      <trkpt lat="46.38005" lon="-0.37576">
        <ele>33.7127</ele>
        <time>2011-06-02T13:40:08Z</time>
      </trkpt>
      <trkpt lat="46.38004" lon="-0.37575">
        <ele>33.747</ele>
        <time>2011-06-02T13:40:09Z</time>
      </trkpt>
      <trkpt lat="46.38003" lon="-0.37575">
        <ele>33.7815</ele>
        <time>2011-06-02T13:40:10Z</time>
      </trkpt>
      <trkpt lat="46.38002" lon="-0.37575">
        <ele>33.8165</ele>
        <time>2011-06-02T13:40:11Z</time>
      </trkpt>
      <trkpt lat="46.38001" lon="-0.37574">
        <ele>33.8491</ele>
        <time>2011-06-02T13:40:12Z</time>
      </trkpt>
      <trkpt lat="46.38" lon="-0.37573">
        <ele>33.8854</ele>
        <time>2011-06-02T13:40:13Z</time>
      </trkpt>
      <trkpt lat="46.37999" lon="-0.37573">
        <ele>33.9234</ele>
        <time>2011-06-02T13:40:14Z</time>
      </trkpt>
      <trkpt lat="46.37998" lon="-0.37573">
        <ele>33.9611</ele>
        <time>2011-06-02T13:40:15Z</time>
      </trkpt>
      <trkpt lat="46.37997" lon="-0.37572">
        <ele>33.9958</ele>
        <time>2011-06-02T13:40:16Z</time>
      </trkpt>
      <trkpt lat="46.37996" lon="-0.37571">
        <ele>34.0258</ele>
        <time>2011-06-02T13:40:17Z</time>
      </trkpt>
      <trkpt lat="46.37995" lon="-0.3757">
        <ele>34.0544</ele>
        <time>2011-06-02T13:40:18Z</time>
      </trkpt>
      <trkpt lat="46.37994" lon="-0.37569">
        <ele>34.0827</ele>
        <time>2011-06-02T13:40:19Z</time>
      </trkpt>
      <trkpt lat="46.37994" lon="-0.37568">
        <ele>34.1125</ele>
        <time>2011-06-02T13:40:20Z</time>
      </trkpt>
      <trkpt lat="46.37993" lon="-0.37568">
        <ele>34.1404</ele>
        <time>2011-06-02T13:40:21Z</time>
      </trkpt>
      <trkpt lat="46.37993" lon="-0.37568">
        <ele>34.1665</ele>
        <time>2011-06-02T13:40:22Z</time>
      </trkpt>
      <trkpt lat="46.37988" lon="-0.37565">
        <ele>34.2146</ele>
        <time>2011-06-02T13:40:37Z</time>
      </trkpt>
      <trkpt lat="46.37988" lon="-0.37565">
        <ele>34.2335</ele>
        <time>2011-06-02T13:40:40Z</time>
      </trkpt>
      <trkpt lat="46.37987" lon="-0.37563">
        <ele>34.2414</ele>
        <time>2011-06-02T13:40:41Z</time>
      </trkpt>
      <trkpt lat="46.37987" lon="-0.37562">
        <ele>34.2484</ele>
        <time>2011-06-02T13:40:42Z</time>
      </trkpt>
      <trkpt lat="46.37986" lon="-0.37561">
        <ele>34.2534</ele>
        <time>2011-06-02T13:40:43Z</time>
      </trkpt>
      <trkpt lat="46.37986" lon="-0.3756">
        <ele>34.2574</ele>
        <time>2011-06-02T13:40:44Z</time>
      </trkpt>
      <trkpt lat="46.37985" lon="-0.37558">
        <ele>34.2579</ele>
        <time>2011-06-02T13:40:45Z</time>
      </trkpt>
      <trkpt lat="46.37985" lon="-0.37557">
        <ele>34.2576</ele>
        <time>2011-06-02T13:40:46Z</time>
      </trkpt>
      <trkpt lat="46.37985" lon="-0.37556">
        <ele>34.26</ele>
        <time>2011-06-02T13:40:47Z</time>
      </trkpt>
      <trkpt lat="46.37984" lon="-0.37554">
        <ele>34.2649</ele>
        <time>2011-06-02T13:40:48Z</time>
      </trkpt>
      <trkpt lat="46.37984" lon="-0.37553">
        <ele>34.2707</ele>
        <time>2011-06-02T13:40:49Z</time>
      </trkpt>
      <trkpt lat="46.37983" lon="-0.37552">
        <ele>34.2762</ele>
        <time>2011-06-02T13:40:50Z</time>
      </trkpt>
      <trkpt lat="46.37983" lon="-0.37551">
        <ele>34.2814</ele>
        <time>2011-06-02T13:40:51Z</time>
      </trkpt>
      <trkpt lat="46.37983" lon="-0.37549">
        <ele>34.2902</ele>
        <time>2011-06-02T13:40:52Z</time>
      </trkpt>
      <trkpt lat="46.37983" lon="-0.37548">
        <ele>34.3042</ele>
        <time>2011-06-02T13:40:53Z</time>
      </trkpt>
      <trkpt lat="46.37983" lon="-0.37546">
        <ele>34.3314</ele>
        <time>2011-06-02T13:40:55Z</time>
      </trkpt>
      <trkpt lat="46.37982" lon="-0.37545">
        <ele>34.3637</ele>
        <time>2011-06-02T13:40:56Z</time>
      </trkpt>
      <trkpt lat="46.37982" lon="-0.37543">
        <ele>34.4036</ele>
        <time>2011-06-02T13:40:57Z</time>
      </trkpt>
      <trkpt lat="46.37981" lon="-0.37541">
        <ele>34.4444</ele>
        <time>2011-06-02T13:40:58Z</time>
      </trkpt>
      <trkpt lat="46.37981" lon="-0.37539">
        <ele>34.4892</ele>
        <time>2011-06-02T13:40:59Z</time>
      </trkpt>
      <trkpt lat="46.37981" lon="-0.37537">
        <ele>34.5432</ele>
        <time>2011-06-02T13:41:00Z</time>
      </trkpt>
      <trkpt lat="46.3798" lon="-0.37535">
        <ele>34.6053</ele>
        <time>2011-06-02T13:41:01Z</time>
      </trkpt>
      <trkpt lat="46.3798" lon="-0.37532">
        <ele>34.6723</ele>
        <time>2011-06-02T13:41:02Z</time>
      </trkpt>
      <trkpt lat="46.3798" lon="-0.37531">
        <ele>34.7418</ele>
        <time>2011-06-02T13:41:03Z</time>
      </trkpt>
      <trkpt lat="46.37979" lon="-0.3753">
        <ele>34.8164</ele>
        <time>2011-06-02T13:41:04Z</time>
      </trkpt>
      <trkpt lat="46.37979" lon="-0.37528">
        <ele>34.8937</ele>
        <time>2011-06-02T13:41:05Z</time>
      </trkpt>
      <trkpt lat="46.37978" lon="-0.37526">
        <ele>34.9708</ele>
        <time>2011-06-02T13:41:06Z</time>
      </trkpt>
      <trkpt lat="46.37978" lon="-0.37525">
        <ele>35.0449</ele>
        <time>2011-06-02T13:41:07Z</time>
      </trkpt>
      <trkpt lat="46.37977" lon="-0.37523">
        <ele>35.1185</ele>
        <time>2011-06-02T13:41:08Z</time>
      </trkpt>
      <trkpt lat="46.37977" lon="-0.37522">
        <ele>35.191</ele>
        <time>2011-06-02T13:41:09Z</time>
      </trkpt>
      <trkpt lat="46.37976" lon="-0.37521">
        <ele>35.2614</ele>
        <time>2011-06-02T13:41:10Z</time>
      </trkpt>
      <trkpt lat="46.37975" lon="-0.3752">
        <ele>35.3287</ele>
        <time>2011-06-02T13:41:11Z</time>
      </trkpt>
      <trkpt lat="46.37975" lon="-0.37519">
        <ele>35.3912</ele>
        <time>2011-06-02T13:41:12Z</time>
      </trkpt>
      <trkpt lat="46.37974" lon="-0.37518">
        <ele>35.4501</ele>
        <time>2011-06-02T13:41:13Z</time>
      </trkpt>
      <trkpt lat="46.37974" lon="-0.37517">
        <ele>35.5061</ele>
        <time>2011-06-02T13:41:14Z</time>
      </trkpt>
      <trkpt lat="46.37974" lon="-0.37516">
        <ele>35.56</ele>
        <time>2011-06-02T13:41:15Z</time>
      </trkpt>
      <trkpt lat="46.37973" lon="-0.37515">
        <ele>35.6127</ele>
        <time>2011-06-02T13:41:16Z</time>
      </trkpt>
      <trkpt lat="46.37973" lon="-0.37509">
        <ele>35.7489</ele>
        <time>2011-06-02T13:41:20Z</time>
      </trkpt>
      <trkpt lat="46.37972" lon="-0.37508">
        <ele>35.8122</ele>
        <time>2011-06-02T13:41:21Z</time>
      </trkpt>
      <trkpt lat="46.37972" lon="-0.37506">
        <ele>35.8781</ele>
        <time>2011-06-02T13:41:22Z</time>
      </trkpt>
      <trkpt lat="46.37972" lon="-0.37505">
        <ele>35.9461</ele>
        <time>2011-06-02T13:41:23Z</time>
      </trkpt>
      <trkpt lat="46.37972" lon="-0.37504">
        <ele>36.018</ele>
        <time>2011-06-02T13:41:24Z</time>
      </trkpt>
      <trkpt lat="46.37972" lon="-0.37503">
        <ele>36.0909</ele>
        <time>2011-06-02T13:41:25Z</time>
      </trkpt>
      <trkpt lat="46.37972" lon="-0.37502">
        <ele>36.1616</ele>
        <time>2011-06-02T13:41:26Z</time>
      </trkpt>
      <trkpt lat="46.37971" lon="-0.37501">
        <ele>36.234</ele>
        <time>2011-06-02T13:41:27Z</time>
      </trkpt>
      <trkpt lat="46.37971" lon="-0.375">
        <ele>36.3044</ele>
        <time>2011-06-02T13:41:28Z</time>
      </trkpt>
      <trkpt lat="46.3797" lon="-0.37499">
        <ele>36.3728</ele>
        <time>2011-06-02T13:41:29Z</time>
      </trkpt>
      <trkpt lat="46.37969" lon="-0.37499">
        <ele>36.4386</ele>
        <time>2011-06-02T13:41:30Z</time>
      </trkpt>
      <trkpt lat="46.37968" lon="-0.37498">
        <ele>36.5049</ele>
        <time>2011-06-02T13:41:31Z</time>
      </trkpt>
      <trkpt lat="46.37967" lon="-0.37497">
        <ele>36.5709</ele>
        <time>2011-06-02T13:41:32Z</time>
      </trkpt>
      <trkpt lat="46.37967" lon="-0.37496">
        <ele>36.6368</ele>
        <time>2011-06-02T13:41:33Z</time>
      </trkpt>
      <trkpt lat="46.37966" lon="-0.37495">
        <ele>36.7015</ele>
        <time>2011-06-02T13:41:34Z</time>
      </trkpt>
      <trkpt lat="46.37965" lon="-0.37494">
        <ele>36.7645</ele>
        <time>2011-06-02T13:41:35Z</time>
      </trkpt>
      <trkpt lat="46.37964" lon="-0.37493">
        <ele>36.8264</ele>
        <time>2011-06-02T13:41:36Z</time>
      </trkpt>
      <trkpt lat="46.37964" lon="-0.37492">
        <ele>36.8898</ele>
        <time>2011-06-02T13:41:37Z</time>
      </trkpt>
      <trkpt lat="46.37963" lon="-0.37485">
        <ele>37.1174</ele>
        <time>2011-06-02T13:41:41Z</time>
      </trkpt>
      <trkpt lat="46.37963" lon="-0.37483">
        <ele>37.2351</ele>
        <time>2011-06-02T13:41:42Z</time>
      </trkpt>
      <trkpt lat="46.37963" lon="-0.37481">
        <ele>37.3519</ele>
        <time>2011-06-02T13:41:43Z</time>
      </trkpt>
      <trkpt lat="46.37964" lon="-0.37481">
        <ele>37.4678</ele>
        <time>2011-06-02T13:41:44Z</time>
      </trkpt>
      <trkpt lat="46.37964" lon="-0.3748">
        <ele>37.5801</ele>
        <time>2011-06-02T13:41:45Z</time>
      </trkpt>
      <trkpt lat="46.37964" lon="-0.37479">
        <ele>37.6861</ele>
        <time>2011-06-02T13:41:46Z</time>
      </trkpt>
      <trkpt lat="46.37964" lon="-0.37477">
        <ele>37.7886</ele>
        <time>2011-06-02T13:41:47Z</time>
      </trkpt>
      <trkpt lat="46.37964" lon="-0.37476">
        <ele>37.89</ele>
        <time>2011-06-02T13:41:48Z</time>
      </trkpt>
      <trkpt lat="46.37964" lon="-0.37474">
        <ele>37.9889</ele>
        <time>2011-06-02T13:41:49Z</time>
      </trkpt>
      <trkpt lat="46.37964" lon="-0.37473">
        <ele>38.0874</ele>
        <time>2011-06-02T13:41:50Z</time>
      </trkpt>
      <trkpt lat="46.37964" lon="-0.37471">
        <ele>38.1838</ele>
        <time>2011-06-02T13:41:51Z</time>
      </trkpt>
      <trkpt lat="46.37963" lon="-0.3747">
        <ele>38.2798</ele>
        <time>2011-06-02T13:41:52Z</time>
      </trkpt>
      <trkpt lat="46.37963" lon="-0.37468">
        <ele>38.3741</ele>
        <time>2011-06-02T13:41:53Z</time>
      </trkpt>
      <trkpt lat="46.37962" lon="-0.37466">
        <ele>38.4692</ele>
        <time>2011-06-02T13:41:54Z</time>
      </trkpt>
      <trkpt lat="46.37961" lon="-0.37463">
        <ele>38.5628</ele>
        <time>2011-06-02T13:41:55Z</time>
      </trkpt>
      <trkpt lat="46.3796" lon="-0.37461">
        <ele>38.6537</ele>
        <time>2011-06-02T13:41:56Z</time>
      </trkpt>
      <trkpt lat="46.3796" lon="-0.37459">
        <ele>38.7427</ele>
        <time>2011-06-02T13:41:57Z</time>
      </trkpt>
      <trkpt lat="46.37959" lon="-0.37457">
        <ele>38.8305</ele>
        <time>2011-06-02T13:41:58Z</time>
      </trkpt>
      <trkpt lat="46.37959" lon="-0.37455">
        <ele>38.9163</ele>
        <time>2011-06-02T13:41:59Z</time>
      </trkpt>
      <trkpt lat="46.37958" lon="-0.37454">
        <ele>39.0011</ele>
        <time>2011-06-02T13:42:00Z</time>
      </trkpt>
      <trkpt lat="46.37957" lon="-0.37452">
        <ele>39.0832</ele>
        <time>2011-06-02T13:42:01Z</time>
      </trkpt>
      <trkpt lat="46.37957" lon="-0.37451">
        <ele>39.1611</ele>
        <time>2011-06-02T13:42:02Z</time>
      </trkpt>
      <trkpt lat="46.37956" lon="-0.3745">
        <ele>39.2351</ele>
        <time>2011-06-02T13:42:03Z</time>
      </trkpt>
      <trkpt lat="46.37956" lon="-0.37449">
        <ele>39.3057</ele>
        <time>2011-06-02T13:42:04Z</time>
      </trkpt>
      <trkpt lat="46.37956" lon="-0.37448">
        <ele>39.3753</ele>
        <time>2011-06-02T13:42:05Z</time>
      </trkpt>
      <trkpt lat="46.37956" lon="-0.37446">
        <ele>39.441</ele>
        <time>2011-06-02T13:42:06Z</time>
      </trkpt>
      <trkpt lat="46.37955" lon="-0.37445">
        <ele>39.5049</ele>
        <time>2011-06-02T13:42:07Z</time>
      </trkpt>
      <trkpt lat="46.37955" lon="-0.37443">
        <ele>39.5675</ele>
        <time>2011-06-02T13:42:08Z</time>
      </trkpt>
      <trkpt lat="46.37954" lon="-0.37442">
        <ele>39.6262</ele>
        <time>2011-06-02T13:42:09Z</time>
      </trkpt>
      <trkpt lat="46.37954" lon="-0.3744">
        <ele>39.6851</ele>
        <time>2011-06-02T13:42:10Z</time>
      </trkpt>
      <trkpt lat="46.37954" lon="-0.37438">
        <ele>39.7432</ele>
        <time>2011-06-02T13:42:11Z</time>
      </trkpt>
      <trkpt lat="46.37953" lon="-0.37437">
        <ele>39.8008</ele>
        <time>2011-06-02T13:42:12Z</time>
      </trkpt>
      <trkpt lat="46.37952" lon="-0.37436">
        <ele>39.8561</ele>
        <time>2011-06-02T13:42:13Z</time>
      </trkpt>
      <trkpt lat="46.37951" lon="-0.37434">
        <ele>39.9101</ele>
        <time>2011-06-02T13:42:14Z</time>
      </trkpt>
      <trkpt lat="46.37951" lon="-0.37433">
        <ele>39.965</ele>
        <time>2011-06-02T13:42:15Z</time>
      </trkpt>
      <trkpt lat="46.3795" lon="-0.37431">
        <ele>40.0212</ele>
        <time>2011-06-02T13:42:16Z</time>
      </trkpt>
      <trkpt lat="46.37949" lon="-0.3743">
        <ele>40.0765</ele>
        <time>2011-06-02T13:42:17Z</time>
      </trkpt>
      <trkpt lat="46.37949" lon="-0.37429">
        <ele>40.1308</ele>
        <time>2011-06-02T13:42:18Z</time>
      </trkpt>
      <trkpt lat="46.37948" lon="-0.37429">
        <ele>40.1829</ele>
        <time>2011-06-02T13:42:19Z</time>
      </trkpt>
      <trkpt lat="46.37948" lon="-0.37429">
        <ele>40.2315</ele>
        <time>2011-06-02T13:42:20Z</time>
      </trkpt>
      <trkpt lat="46.37948" lon="-0.37429">
        <ele>40.292</ele>
        <time>2011-06-02T13:42:24Z</time>
      </trkpt>
      <trkpt lat="46.37948" lon="-0.37428">
        <ele>40.3386</ele>
        <time>2011-06-02T13:42:25Z</time>
      </trkpt>
      <trkpt lat="46.37947" lon="-0.37427">
        <ele>40.3816</ele>
        <time>2011-06-02T13:42:26Z</time>
      </trkpt>
      <trkpt lat="46.37946" lon="-0.37426">
        <ele>40.422</ele>
        <time>2011-06-02T13:42:27Z</time>
      </trkpt>
      <trkpt lat="46.37946" lon="-0.37425">
        <ele>40.4611</ele>
        <time>2011-06-02T13:42:28Z</time>
      </trkpt>
      <trkpt lat="46.37944" lon="-0.37423">
        <ele>40.4996</ele>
        <time>2011-06-02T13:42:29Z</time>
      </trkpt>
      <trkpt lat="46.37944" lon="-0.37422">
        <ele>40.5364</ele>
        <time>2011-06-02T13:42:30Z</time>
      </trkpt>
      <trkpt lat="46.37943" lon="-0.37421">
        <ele>40.5709</ele>
        <time>2011-06-02T13:42:31Z</time>
      </trkpt>
      <trkpt lat="46.37942" lon="-0.3742">
        <ele>40.6053</ele>
        <time>2011-06-02T13:42:32Z</time>
      </trkpt>
      <trkpt lat="46.37941" lon="-0.37419">
        <ele>40.6384</ele>
        <time>2011-06-02T13:42:33Z</time>
      </trkpt>
      <trkpt lat="46.3794" lon="-0.37418">
        <ele>40.6703</ele>
        <time>2011-06-02T13:42:34Z</time>
      </trkpt>
      <trkpt lat="46.37939" lon="-0.37417">
        <ele>40.7</ele>
        <time>2011-06-02T13:42:35Z</time>
      </trkpt>
      <trkpt lat="46.37938" lon="-0.37417">
        <ele>40.7287</ele>
        <time>2011-06-02T13:42:36Z</time>
      </trkpt>
      <trkpt lat="46.37938" lon="-0.37416">
        <ele>40.7571</ele>
        <time>2011-06-02T13:42:37Z</time>
      </trkpt>
      <trkpt lat="46.37937" lon="-0.37416">
        <ele>40.7872</ele>
        <time>2011-06-02T13:42:38Z</time>
      </trkpt>
      <trkpt lat="46.37936" lon="-0.37416">
        <ele>40.8217</ele>
        <time>2011-06-02T13:42:39Z</time>
      </trkpt>
      <trkpt lat="46.37936" lon="-0.37417">
        <ele>40.8614</ele>
        <time>2011-06-02T13:42:40Z</time>
      </trkpt>
      <trkpt lat="46.37935" lon="-0.37416">
        <ele>40.9</ele>
        <time>2011-06-02T13:42:41Z</time>
      </trkpt>
      <trkpt lat="46.37935" lon="-0.37417">
        <ele>40.9494</ele>
        <time>2011-06-02T13:42:42Z</time>
      </trkpt>
      <trkpt lat="46.37934" lon="-0.37417">
        <ele>41.0008</ele>
        <time>2011-06-02T13:42:43Z</time>
      </trkpt>
      <trkpt lat="46.37933" lon="-0.37417">
        <ele>41.0557</ele>
        <time>2011-06-02T13:42:44Z</time>
      </trkpt>
      <trkpt lat="46.37933" lon="-0.37416">
        <ele>41.1119</ele>
        <time>2011-06-02T13:42:45Z</time>
      </trkpt>
      <trkpt lat="46.37932" lon="-0.37416">
        <ele>41.1692</ele>
        <time>2011-06-02T13:42:46Z</time>
      </trkpt>
      <trkpt lat="46.37929" lon="-0.37416">
        <ele>41.3493</ele>
        <time>2011-06-02T13:42:50Z</time>
      </trkpt>
      <trkpt lat="46.37928" lon="-0.37416">
        <ele>41.4077</ele>
        <time>2011-06-02T13:42:51Z</time>
      </trkpt>
      <trkpt lat="46.37928" lon="-0.37415">
        <ele>41.4648</ele>
        <time>2011-06-02T13:42:52Z</time>
      </trkpt>
      <trkpt lat="46.37927" lon="-0.37414">
        <ele>41.5194</ele>
        <time>2011-06-02T13:42:53Z</time>
      </trkpt>
      <trkpt lat="46.37927" lon="-0.37414">
        <ele>41.5638</ele>
        <time>2011-06-02T13:42:54Z</time>
      </trkpt>
      <trkpt lat="46.37926" lon="-0.37414">
        <ele>41.6071</ele>
        <time>2011-06-02T13:42:55Z</time>
      </trkpt>
      <trkpt lat="46.37922" lon="-0.37412">
        <ele>41.6476</ele>
        <time>2011-06-02T13:43:09Z</time>
      </trkpt>
      <trkpt lat="46.37921" lon="-0.3741">
        <ele>42.0609</ele>
        <time>2011-06-02T13:43:53Z</time>
      </trkpt>
      <trkpt lat="46.3792" lon="-0.3741">
        <ele>42.1206</ele>
        <time>2011-06-02T13:43:54Z</time>
      </trkpt>
      <trkpt lat="46.3792" lon="-0.3741">
        <ele>42.1792</ele>
        <time>2011-06-02T13:43:55Z</time>
      </trkpt>
      <trkpt lat="46.37919" lon="-0.37409">
        <ele>42.2341</ele>
        <time>2011-06-02T13:43:56Z</time>
      </trkpt>
      <trkpt lat="46.37918" lon="-0.37408">
        <ele>42.2886</ele>
        <time>2011-06-02T13:43:57Z</time>
      </trkpt>
      <trkpt lat="46.37917" lon="-0.37407">
        <ele>42.3426</ele>
        <time>2011-06-02T13:43:58Z</time>
      </trkpt>
      <trkpt lat="46.37916" lon="-0.37406">
        <ele>42.396</ele>
        <time>2011-06-02T13:43:59Z</time>
      </trkpt>
      <trkpt lat="46.37915" lon="-0.37406">
        <ele>42.4507</ele>
        <time>2011-06-02T13:44:00Z</time>
      </trkpt>
      <trkpt lat="46.37915" lon="-0.37405">
        <ele>42.5062</ele>
        <time>2011-06-02T13:44:01Z</time>
      </trkpt>
      <trkpt lat="46.37914" lon="-0.37404">
        <ele>42.5586</ele>
        <time>2011-06-02T13:44:02Z</time>
      </trkpt>
      <trkpt lat="46.37914" lon="-0.37402">
        <ele>42.6095</ele>
        <time>2011-06-02T13:44:03Z</time>
      </trkpt>
      <trkpt lat="46.37912" lon="-0.374">
        <ele>42.6572</ele>
        <time>2011-06-02T13:44:04Z</time>
      </trkpt>
      <trkpt lat="46.37911" lon="-0.37399">
        <ele>42.7001</ele>
        <time>2011-06-02T13:44:05Z</time>
      </trkpt>
      <trkpt lat="46.37911" lon="-0.37398">
        <ele>42.7422</ele>
        <time>2011-06-02T13:44:06Z</time>
      </trkpt>
      <trkpt lat="46.37909" lon="-0.37397">
        <ele>42.7815</ele>
        <time>2011-06-02T13:44:07Z</time>
      </trkpt>
      <trkpt lat="46.37909" lon="-0.37396">
        <ele>42.8201</ele>
        <time>2011-06-02T13:44:08Z</time>
      </trkpt>
      <trkpt lat="46.37908" lon="-0.37395">
        <ele>42.8575</ele>
        <time>2011-06-02T13:44:09Z</time>
      </trkpt>
      <trkpt lat="46.37907" lon="-0.37394">
        <ele>42.8945</ele>
        <time>2011-06-02T13:44:10Z</time>
      </trkpt>
      <trkpt lat="46.37906" lon="-0.37393">
        <ele>42.9342</ele>
        <time>2011-06-02T13:44:11Z</time>
      </trkpt>
      <trkpt lat="46.37905" lon="-0.37393">
        <ele>42.979</ele>
        <time>2011-06-02T13:44:12Z</time>
      </trkpt>
      <trkpt lat="46.37904" lon="-0.37392">
        <ele>43.0286</ele>
        <time>2011-06-02T13:44:13Z</time>
      </trkpt>
      <trkpt lat="46.37904" lon="-0.37391">
        <ele>43.0789</ele>
        <time>2011-06-02T13:44:14Z</time>
      </trkpt>
      <trkpt lat="46.37903" lon="-0.3739">
        <ele>43.1331</ele>
        <time>2011-06-02T13:44:15Z</time>
      </trkpt>
      <trkpt lat="46.37902" lon="-0.37389">
        <ele>43.1865</ele>
        <time>2011-06-02T13:44:16Z</time>
      </trkpt>
      <trkpt lat="46.37901" lon="-0.37389">
        <ele>43.2421</ele>
        <time>2011-06-02T13:44:17Z</time>
      </trkpt>
      <trkpt lat="46.37901" lon="-0.37388">
        <ele>43.2924</ele>
        <time>2011-06-02T13:44:18Z</time>
      </trkpt>
      <trkpt lat="46.379" lon="-0.37387">
        <ele>43.3417</ele>
        <time>2011-06-02T13:44:19Z</time>
      </trkpt>
      <trkpt lat="46.37899" lon="-0.37386">
        <ele>43.3902</ele>
        <time>2011-06-02T13:44:20Z</time>
      </trkpt>
      <trkpt lat="46.37898" lon="-0.37385">
        <ele>43.4398</ele>
        <time>2011-06-02T13:44:21Z</time>
      </trkpt>
      <trkpt lat="46.37897" lon="-0.37384">
        <ele>43.4901</ele>
        <time>2011-06-02T13:44:22Z</time>
      </trkpt>
      <trkpt lat="46.37896" lon="-0.37383">
        <ele>43.5428</ele>
        <time>2011-06-02T13:44:23Z</time>
      </trkpt>
      <trkpt lat="46.37895" lon="-0.37383">
        <ele>43.5955</ele>
        <time>2011-06-02T13:44:24Z</time>
      </trkpt>
      <trkpt lat="46.37893" lon="-0.37383">
        <ele>43.646</ele>
        <time>2011-06-02T13:44:25Z</time>
      </trkpt>
      <trkpt lat="46.37892" lon="-0.37383">
        <ele>43.6918</ele>
        <time>2011-06-02T13:44:26Z</time>
      </trkpt>
      <trkpt lat="46.37891" lon="-0.37383">
        <ele>43.7341</ele>
        <time>2011-06-02T13:44:27Z</time>
      </trkpt>
      <trkpt lat="46.37889" lon="-0.37383">
        <ele>43.7714</ele>
        <time>2011-06-02T13:44:28Z</time>
      </trkpt>
      <trkpt lat="46.37888" lon="-0.37383">
        <ele>43.8045</ele>
        <time>2011-06-02T13:44:29Z</time>
      </trkpt>
      <trkpt lat="46.37886" lon="-0.37383">
        <ele>43.8349</ele>
        <time>2011-06-02T13:44:30Z</time>
      </trkpt>
      <trkpt lat="46.37885" lon="-0.37382">
        <ele>43.8615</ele>
        <time>2011-06-02T13:44:31Z</time>
      </trkpt>
      <trkpt lat="46.37884" lon="-0.37381">
        <ele>43.8835</ele>
        <time>2011-06-02T13:44:32Z</time>
      </trkpt>
      <trkpt lat="46.37883" lon="-0.3738">
        <ele>43.9037</ele>
        <time>2011-06-02T13:44:33Z</time>
      </trkpt>
      <trkpt lat="46.37882" lon="-0.37379">
        <ele>43.9215</ele>
        <time>2011-06-02T13:44:34Z</time>
      </trkpt>
      <trkpt lat="46.37881" lon="-0.37378">
        <ele>43.9375</ele>
        <time>2011-06-02T13:44:35Z</time>
      </trkpt>
      <trkpt lat="46.37879" lon="-0.37377">
        <ele>43.9516</ele>
        <time>2011-06-02T13:44:36Z</time>
      </trkpt>
      <trkpt lat="46.37878" lon="-0.37376">
        <ele>43.9618</ele>
        <time>2011-06-02T13:44:37Z</time>
      </trkpt>
      <trkpt lat="46.37877" lon="-0.37376">
        <ele>43.9706</ele>
        <time>2011-06-02T13:44:38Z</time>
      </trkpt>
      <trkpt lat="46.37876" lon="-0.37376">
        <ele>43.9769</ele>
        <time>2011-06-02T13:44:39Z</time>
      </trkpt>
      <trkpt lat="46.37875" lon="-0.37376">
        <ele>43.9828</ele>
        <time>2011-06-02T13:44:40Z</time>
      </trkpt>
      <trkpt lat="46.37875" lon="-0.37376">
        <ele>43.9888</ele>
        <time>2011-06-02T13:44:41Z</time>
      </trkpt>
      <trkpt lat="46.37874" lon="-0.37375">
        <ele>43.9941</ele>
        <time>2011-06-02T13:44:42Z</time>
      </trkpt>
      <trkpt lat="46.37873" lon="-0.37376">
        <ele>43.999</ele>
        <time>2011-06-02T13:44:43Z</time>
      </trkpt>
      <trkpt lat="46.37872" lon="-0.37375">
        <ele>44.0036</ele>
        <time>2011-06-02T13:44:44Z</time>
      </trkpt>
      <trkpt lat="46.37871" lon="-0.37374">
        <ele>44.0066</ele>
        <time>2011-06-02T13:44:45Z</time>
      </trkpt>
      <trkpt lat="46.3787" lon="-0.37374">
        <ele>44.009</ele>
        <time>2011-06-02T13:44:46Z</time>
      </trkpt>
      <trkpt lat="46.3787" lon="-0.37373">
        <ele>44.0111</ele>
        <time>2011-06-02T13:44:47Z</time>
      </trkpt>
      <trkpt lat="46.37869" lon="-0.37373">
        <ele>44.0133</ele>
        <time>2011-06-02T13:44:48Z</time>
      </trkpt>
      <trkpt lat="46.37868" lon="-0.37372">
        <ele>44.0149</ele>
        <time>2011-06-02T13:44:49Z</time>
      </trkpt>
      <trkpt lat="46.37867" lon="-0.37372">
        <ele>44.0167</ele>
        <time>2011-06-02T13:44:50Z</time>
      </trkpt>
      <trkpt lat="46.37866" lon="-0.37372">
        <ele>44.0184</ele>
        <time>2011-06-02T13:44:51Z</time>
      </trkpt>
      <trkpt lat="46.37865" lon="-0.37371">
        <ele>44.0191</ele>
        <time>2011-06-02T13:44:52Z</time>
      </trkpt>
      <trkpt lat="46.37864" lon="-0.3737">
        <ele>44.0198</ele>
        <time>2011-06-02T13:44:53Z</time>
      </trkpt>
      <trkpt lat="46.37863" lon="-0.3737">
        <ele>44.0204</ele>
        <time>2011-06-02T13:44:54Z</time>
      </trkpt>
      <trkpt lat="46.37862" lon="-0.3737">
        <ele>44.021</ele>
        <time>2011-06-02T13:44:55Z</time>
      </trkpt>
      <trkpt lat="46.37861" lon="-0.3737">
        <ele>44.0218</ele>
        <time>2011-06-02T13:44:56Z</time>
      </trkpt>
      <trkpt lat="46.3786" lon="-0.37369">
        <ele>44.0222</ele>
        <time>2011-06-02T13:44:57Z</time>
      </trkpt>
      <trkpt lat="46.37859" lon="-0.37369">
        <ele>44.0225</ele>
        <time>2011-06-02T13:44:58Z</time>
      </trkpt>
      <trkpt lat="46.37858" lon="-0.37368">
        <ele>44.0216</ele>
        <time>2011-06-02T13:44:59Z</time>
      </trkpt>
      <trkpt lat="46.37857" lon="-0.37368">
        <ele>44.0196</ele>
        <time>2011-06-02T13:45:00Z</time>
      </trkpt>
      <trkpt lat="46.37856" lon="-0.37367">
        <ele>44.0177</ele>
        <time>2011-06-02T13:45:01Z</time>
      </trkpt>
      <trkpt lat="46.37855" lon="-0.37366">
        <ele>44.0163</ele>
        <time>2011-06-02T13:45:02Z</time>
      </trkpt>
      <trkpt lat="46.37854" lon="-0.37366">
        <ele>44.0156</ele>
        <time>2011-06-02T13:45:03Z</time>
      </trkpt>
      <trkpt lat="46.37853" lon="-0.37366">
        <ele>44.012</ele>
        <time>2011-06-02T13:45:04Z</time>
      </trkpt>
      <trkpt lat="46.37852" lon="-0.37365">
        <ele>44.0085</ele>
        <time>2011-06-02T13:45:05Z</time>
      </trkpt>
      <trkpt lat="46.37851" lon="-0.37365">
        <ele>43.9982</ele>
        <time>2011-06-02T13:45:06Z</time>
      </trkpt>
      <trkpt lat="46.3785" lon="-0.37365">
        <ele>43.9894</ele>
        <time>2011-06-02T13:45:07Z</time>
      </trkpt>
      <trkpt lat="46.37849" lon="-0.37364">
        <ele>43.9805</ele>
        <time>2011-06-02T13:45:08Z</time>
      </trkpt>
      <trkpt lat="46.37848" lon="-0.37364">
        <ele>43.9732</ele>
        <time>2011-06-02T13:45:09Z</time>
      </trkpt>
      <trkpt lat="46.37847" lon="-0.37364">
        <ele>43.9669</ele>
        <time>2011-06-02T13:45:10Z</time>
      </trkpt>
      <trkpt lat="46.37846" lon="-0.37364">
        <ele>43.9603</ele>
        <time>2011-06-02T13:45:11Z</time>
      </trkpt>
      <trkpt lat="46.37845" lon="-0.37364">
        <ele>43.9523</ele>
        <time>2011-06-02T13:45:12Z</time>
      </trkpt>
      <trkpt lat="46.37844" lon="-0.37364">
        <ele>43.9433</ele>
        <time>2011-06-02T13:45:13Z</time>
      </trkpt>
      <trkpt lat="46.37843" lon="-0.37363">
        <ele>43.936</ele>
        <time>2011-06-02T13:45:14Z</time>
      </trkpt>
      <trkpt lat="46.37843" lon="-0.37362">
        <ele>43.928</ele>
        <time>2011-06-02T13:45:15Z</time>
      </trkpt>
      <trkpt lat="46.37842" lon="-0.37362">
        <ele>43.919</ele>
        <time>2011-06-02T13:45:16Z</time>
      </trkpt>
      <trkpt lat="46.37841" lon="-0.37361">
        <ele>43.9077</ele>
        <time>2011-06-02T13:45:17Z</time>
      </trkpt>
      <trkpt lat="46.3784" lon="-0.37361">
        <ele>43.8929</ele>
        <time>2011-06-02T13:45:18Z</time>
      </trkpt>
      <trkpt lat="46.37839" lon="-0.3736">
        <ele>43.8819</ele>
        <time>2011-06-02T13:45:19Z</time>
      </trkpt>
      <trkpt lat="46.37838" lon="-0.37359">
        <ele>43.8712</ele>
        <time>2011-06-02T13:45:20Z</time>
      </trkpt>
      <trkpt lat="46.37838" lon="-0.37358">
        <ele>43.8602</ele>
        <time>2011-06-02T13:45:21Z</time>
      </trkpt>
      <trkpt lat="46.37837" lon="-0.37358">
        <ele>43.8496</ele>
        <time>2011-06-02T13:45:22Z</time>
      </trkpt>
      <trkpt lat="46.37835" lon="-0.37358">
        <ele>43.8399</ele>
        <time>2011-06-02T13:45:23Z</time>
      </trkpt>
      <trkpt lat="46.37835" lon="-0.37358">
        <ele>43.8295</ele>
        <time>2011-06-02T13:45:24Z</time>
      </trkpt>
      <trkpt lat="46.37833" lon="-0.37358">
        <ele>43.8146</ele>
        <time>2011-06-02T13:45:25Z</time>
      </trkpt>
      <trkpt lat="46.37832" lon="-0.37357">
        <ele>43.7969</ele>
        <time>2011-06-02T13:45:26Z</time>
      </trkpt>
      <trkpt lat="46.37831" lon="-0.37357">
        <ele>43.7794</ele>
        <time>2011-06-02T13:45:27Z</time>
      </trkpt>
      <trkpt lat="46.3783" lon="-0.37356">
        <ele>43.7557</ele>
        <time>2011-06-02T13:45:28Z</time>
      </trkpt>
      <trkpt lat="46.3783" lon="-0.37356">
        <ele>43.7298</ele>
        <time>2011-06-02T13:45:29Z</time>
      </trkpt>
      <trkpt lat="46.37829" lon="-0.37356">
        <ele>43.6991</ele>
        <time>2011-06-02T13:45:30Z</time>
      </trkpt>
      <trkpt lat="46.37828" lon="-0.37356">
        <ele>43.668</ele>
        <time>2011-06-02T13:45:31Z</time>
      </trkpt>
      <trkpt lat="46.37825" lon="-0.37351">
        <ele>43.5879</ele>
        <time>2011-06-02T13:45:35Z</time>
      </trkpt>
      <trkpt lat="46.37823" lon="-0.37349">
        <ele>43.5352</ele>
        <time>2011-06-02T13:45:38Z</time>
      </trkpt>
      <trkpt lat="46.37821" lon="-0.37349">
        <ele>43.5098</ele>
        <time>2011-06-02T13:45:39Z</time>
      </trkpt>
      <trkpt lat="46.3782" lon="-0.37348">
        <ele>43.4847</ele>
        <time>2011-06-02T13:45:40Z</time>
      </trkpt>
      <trkpt lat="46.37819" lon="-0.37347">
        <ele>43.4602</ele>
        <time>2011-06-02T13:45:41Z</time>
      </trkpt>
      <trkpt lat="46.37818" lon="-0.37345">
        <ele>43.4355</ele>
        <time>2011-06-02T13:45:42Z</time>
      </trkpt>
      <trkpt lat="46.37817" lon="-0.37344">
        <ele>43.4131</ele>
        <time>2011-06-02T13:45:43Z</time>
      </trkpt>
      <trkpt lat="46.37815" lon="-0.37341">
        <ele>43.3138</ele>
        <time>2011-06-02T13:45:48Z</time>
      </trkpt>
      <trkpt lat="46.37815" lon="-0.3734">
        <ele>43.2697</ele>
        <time>2011-06-02T13:45:49Z</time>
      </trkpt>
      <trkpt lat="46.37814" lon="-0.37339">
        <ele>43.2314</ele>
        <time>2011-06-02T13:45:50Z</time>
      </trkpt>
      <trkpt lat="46.37814" lon="-0.37337">
        <ele>43.1932</ele>
        <time>2011-06-02T13:45:51Z</time>
      </trkpt>
      <trkpt lat="46.37813" lon="-0.37336">
        <ele>43.153</ele>
        <time>2011-06-02T13:45:52Z</time>
      </trkpt>
      <trkpt lat="46.37812" lon="-0.37334">
        <ele>43.1154</ele>
        <time>2011-06-02T13:45:53Z</time>
      </trkpt>
      <trkpt lat="46.37811" lon="-0.37333">
        <ele>43.1644</ele>
        <time>2011-06-02T13:45:54Z</time>
      </trkpt>
      <trkpt lat="46.3781" lon="-0.37332">
        <ele>43.1748</ele>
        <time>2011-06-02T13:45:55Z</time>
      </trkpt>
      <trkpt lat="46.37809" lon="-0.3733">
        <ele>43.1628</ele>
        <time>2011-06-02T13:45:56Z</time>
      </trkpt>
      <trkpt lat="46.37808" lon="-0.3733">
        <ele>43.1628</ele>
        <time>2011-06-02T13:45:57Z</time>
      </trkpt>
      <trkpt lat="46.37808" lon="-0.37327">
        <ele>43.144</ele>
        <time>2011-06-02T13:45:58Z</time>
      </trkpt>
      <trkpt lat="46.37806" lon="-0.37326">
        <ele>43.11</ele>
        <time>2011-06-02T13:45:59Z</time>
      </trkpt>
      <trkpt lat="46.37806" lon="-0.37324">
        <ele>43.0797</ele>
        <time>2011-06-02T13:46:00Z</time>
      </trkpt>
      <trkpt lat="46.37805" lon="-0.37323">
        <ele>43.0447</ele>
        <time>2011-06-02T13:46:01Z</time>
      </trkpt>
      <trkpt lat="46.37805" lon="-0.37321">
        <ele>42.9962</ele>
        <time>2011-06-02T13:46:02Z</time>
      </trkpt>
      <trkpt lat="46.37804" lon="-0.3732">
        <ele>42.9664</ele>
        <time>2011-06-02T13:46:03Z</time>
      </trkpt>
      <trkpt lat="46.37804" lon="-0.37318">
        <ele>42.9482</ele>
        <time>2011-06-02T13:46:04Z</time>
      </trkpt>
      <trkpt lat="46.37803" lon="-0.37317">
        <ele>42.9274</ele>
        <time>2011-06-02T13:46:05Z</time>
      </trkpt>
      <trkpt lat="46.37801" lon="-0.37316">
        <ele>42.8996</ele>
        <time>2011-06-02T13:46:06Z</time>
      </trkpt>
      <trkpt lat="46.378" lon="-0.37315">
        <ele>42.8664</ele>
        <time>2011-06-02T13:46:07Z</time>
      </trkpt>
      <trkpt lat="46.378" lon="-0.37315">
        <ele>42.8322</ele>
        <time>2011-06-02T13:46:08Z</time>
      </trkpt>
      <trkpt lat="46.37799" lon="-0.37314">
        <ele>42.8108</ele>
        <time>2011-06-02T13:46:09Z</time>
      </trkpt>
      <trkpt lat="46.37799" lon="-0.37313">
        <ele>42.8014</ele>
        <time>2011-06-02T13:46:10Z</time>
      </trkpt>
      <trkpt lat="46.37798" lon="-0.37313">
        <ele>42.8062</ele>
        <time>2011-06-02T13:46:11Z</time>
      </trkpt>
      <trkpt lat="46.37798" lon="-0.37312">
        <ele>42.8115</ele>
        <time>2011-06-02T13:46:12Z</time>
      </trkpt>
      <trkpt lat="46.37797" lon="-0.37312">
        <ele>42.8137</ele>
        <time>2011-06-02T13:46:13Z</time>
      </trkpt>
      <trkpt lat="46.37797" lon="-0.37312">
        <ele>42.8262</ele>
        <time>2011-06-02T13:46:14Z</time>
      </trkpt>
      <trkpt lat="46.37797" lon="-0.37312">
        <ele>42.8198</ele>
        <time>2011-06-02T13:46:15Z</time>
      </trkpt>
      <trkpt lat="46.37796" lon="-0.37311">
        <ele>42.7978</ele>
        <time>2011-06-02T13:46:16Z</time>
      </trkpt>
      <trkpt lat="46.37796" lon="-0.37309">
        <ele>42.7707</ele>
        <time>2011-06-02T13:46:17Z</time>
      </trkpt>
      <trkpt lat="46.37795" lon="-0.37308">
        <ele>42.7479</ele>
        <time>2011-06-02T13:46:18Z</time>
      </trkpt>
      <trkpt lat="46.37795" lon="-0.37307">
        <ele>42.7273</ele>
        <time>2011-06-02T13:46:19Z</time>
      </trkpt>
      <trkpt lat="46.37794" lon="-0.37306">
        <ele>42.707</ele>
        <time>2011-06-02T13:46:20Z</time>
      </trkpt>
      <trkpt lat="46.37793" lon="-0.37304">
        <ele>42.6849</ele>
        <time>2011-06-02T13:46:21Z</time>
      </trkpt>
      <trkpt lat="46.37793" lon="-0.37303">
        <ele>42.6552</ele>
        <time>2011-06-02T13:46:22Z</time>
      </trkpt>
      <trkpt lat="46.37793" lon="-0.37301">
        <ele>42.6284</ele>
        <time>2011-06-02T13:46:23Z</time>
      </trkpt>
      <trkpt lat="46.37792" lon="-0.37299">
        <ele>42.6016</ele>
        <time>2011-06-02T13:46:24Z</time>
      </trkpt>
      <trkpt lat="46.37792" lon="-0.37297">
        <ele>42.5764</ele>
        <time>2011-06-02T13:46:25Z</time>
      </trkpt>
      <trkpt lat="46.37791" lon="-0.37295">
        <ele>42.5519</ele>
        <time>2011-06-02T13:46:26Z</time>
      </trkpt>
      <trkpt lat="46.3779" lon="-0.37294">
        <ele>42.5343</ele>
        <time>2011-06-02T13:46:27Z</time>
      </trkpt>
      <trkpt lat="46.3779" lon="-0.37292">
        <ele>42.5224</ele>
        <time>2011-06-02T13:46:28Z</time>
      </trkpt>
      <trkpt lat="46.37789" lon="-0.37291">
        <ele>42.514</ele>
        <time>2011-06-02T13:46:29Z</time>
      </trkpt>
      <trkpt lat="46.37788" lon="-0.3729">
        <ele>42.5002</ele>
        <time>2011-06-02T13:46:30Z</time>
      </trkpt>
      <trkpt lat="46.37788" lon="-0.37288">
        <ele>42.4848</ele>
        <time>2011-06-02T13:46:31Z</time>
      </trkpt>
      <trkpt lat="46.37787" lon="-0.37287">
        <ele>42.465</ele>
        <time>2011-06-02T13:46:32Z</time>
      </trkpt>
      <trkpt lat="46.37787" lon="-0.37286">
        <ele>42.4471</ele>
        <time>2011-06-02T13:46:33Z</time>
      </trkpt>
      <trkpt lat="46.37787" lon="-0.37286">
        <ele>42.4256</ele>
        <time>2011-06-02T13:46:34Z</time>
      </trkpt>
      <trkpt lat="46.37786" lon="-0.37285">
        <ele>42.4034</ele>
        <time>2011-06-02T13:46:35Z</time>
      </trkpt>
      <trkpt lat="46.37786" lon="-0.37284">
        <ele>42.3736</ele>
        <time>2011-06-02T13:46:36Z</time>
      </trkpt>
      <trkpt lat="46.37786" lon="-0.37283">
        <ele>42.3388</ele>
        <time>2011-06-02T13:46:37Z</time>
      </trkpt>
      <trkpt lat="46.37785" lon="-0.37281">
        <ele>42.3011</ele>
        <time>2011-06-02T13:46:38Z</time>
      </trkpt>
      <trkpt lat="46" lon="-0.3728">
        <ele>42.2646</ele>
        <time>2011-06-02T13:46:39Z</time>
      </trkpt>
      <trkpt lat="46.37784" lon="-0.37278">
        <ele>42.2284</ele>
        <time>2011-06-02T13:46:40Z</time>
      </trkpt>
      <trkpt lat="46.37784" lon="-0.37277">
        <ele>42.1951</ele>
        <time>2011-06-02T13:46:41Z</time>
      </trkpt>
      <trkpt lat="46.37783" lon="-0.37276">
        <ele>42.1617</ele>
        <time>2011-06-02T13:46:42Z</time>
      </trkpt>
      <trkpt lat="46.37783" lon="-0.37274">
        <ele>42.1295</ele>
        <time>2011-06-02T13:46:43Z</time>
      </trkpt>
      <trkpt lat="46.37782" lon="-0.37273">
        <ele>42.0981</ele>
        <time>2011-06-02T13:46:44Z</time>
      </trkpt>
      <trkpt lat="46.37782" lon="-0.37271">
        <ele>42.0672</ele>
        <time>2011-06-02T13:46:45Z</time>
      </trkpt>
      <trkpt lat="46.3778" lon="-0.3727">
        <ele>42.037</ele>
        <time>2011-06-02T13:46:46Z</time>
      </trkpt>
      <trkpt lat="46.37779" lon="-0.37269">
        <ele>42.006</ele>
        <time>2011-06-02T13:46:47Z</time>
      </trkpt>
      <trkpt lat="46.37779" lon="-0.37268">
        <ele>41.9712</ele>
        <time>2011-06-02T13:46:48Z</time>
      </trkpt>
      <trkpt lat="46.37777" lon="-0.37267">
        <ele>41.9387</ele>
        <time>2011-06-02T13:46:49Z</time>
      </trkpt>
      <trkpt lat="46.37777" lon="-0.37266">
        <ele>41.9086</ele>
        <time>2011-06-02T13:46:50Z</time>
      </trkpt>
      <trkpt lat="46.37776" lon="-0.37265">
        <ele>41.8874</ele>
        <time>2011-06-02T13:46:51Z</time>
      </trkpt>
      <trkpt lat="46.37776" lon="-0.37264">
        <ele>41.8671</ele>
        <time>2011-06-02T13:46:52Z</time>
      </trkpt>
      <trkpt lat="46.37775" lon="-0.37262">
        <ele>41.8556</ele>
        <time>2011-06-02T13:46:55Z</time>
      </trkpt>
      <trkpt lat="46.37775" lon="-0.37261">
        <ele>41.8508</ele>
        <time>2011-06-02T13:46:56Z</time>
      </trkpt>
      <trkpt lat="46.37775" lon="-0.37259">
        <ele>41.8481</ele>
        <time>2011-06-02T13:46:57Z</time>
      </trkpt>
      <trkpt lat="46.37774" lon="-0.37258">
        <ele>41.8454</ele>
        <time>2011-06-02T13:46:58Z</time>
      </trkpt>
      <trkpt lat="46.37774" lon="-0.37257">
        <ele>41.8416</ele>
        <time>2011-06-02T13:46:59Z</time>
      </trkpt>
      <trkpt lat="46.37773" lon="-0.37256">
        <ele>41.839</ele>
        <time>2011-06-02T13:47:00Z</time>
      </trkpt>
      <trkpt lat="46.37772" lon="-0.37255">
        <ele>41.8368</ele>
        <time>2011-06-02T13:47:01Z</time>
      </trkpt>
      <trkpt lat="46.37772" lon="-0.37254">
        <ele>41.8347</ele>
        <time>2011-06-02T13:47:02Z</time>
      </trkpt>
      <trkpt lat="46.37771" lon="-0.37252">
        <ele>41.8302</ele>
        <time>2011-06-02T13:47:03Z</time>
      </trkpt>
      <trkpt lat="46.37771" lon="-0.37251">
        <ele>41.827</ele>
        <time>2011-06-02T13:47:04Z</time>
      </trkpt>
      <trkpt lat="46.3777" lon="-0.3725">
        <ele>41.8287</ele>
        <time>2011-06-02T13:47:05Z</time>
      </trkpt>
      <trkpt lat="46.37769" lon="-0.37248">
        <ele>41.836</ele>
        <time>2011-06-02T13:47:06Z</time>
      </trkpt>
      <trkpt lat="46.37768" lon="-0.37247">
        <ele>41.8451</ele>
        <time>2011-06-02T13:47:07Z</time>
      </trkpt>
      <trkpt lat="46.37767" lon="-0.37245">
        <ele>41.8605</ele>
        <time>2011-06-02T13:47:08Z</time>
      </trkpt>
      <trkpt lat="46.37767" lon="-0.37244">
        <ele>41.8752</ele>
        <time>2011-06-02T13:47:09Z</time>
      </trkpt>
      <trkpt lat="46.37767" lon="-0.37243">
        <ele>41.8842</ele>
        <time>2011-06-02T13:47:10Z</time>
      </trkpt>
      <trkpt lat="46.37766" lon="-0.37241">
        <ele>41.8915</ele>
        <time>2011-06-02T13:47:11Z</time>
      </trkpt>
      <trkpt lat="46.37766" lon="-0.3724">
        <ele>41.8988</ele>
        <time>2011-06-02T13:47:12Z</time>
      </trkpt>
      <trkpt lat="46.37766" lon="-0.37239">
        <ele>41.9076</ele>
        <time>2011-06-02T13:47:13Z</time>
      </trkpt>
      <trkpt lat="46.37765" lon="-0.37237">
        <ele>41.9107</ele>
        <time>2011-06-02T13:47:14Z</time>
      </trkpt>
      <trkpt lat="46.37765" lon="-0.37235">
        <ele>41.9128</ele>
        <time>2011-06-02T13:47:15Z</time>
      </trkpt>
      <trkpt lat="46.37766" lon="-0.37233">
        <ele>41.9165</ele>
        <time>2011-06-02T13:47:16Z</time>
      </trkpt>
      <trkpt lat="46.37766" lon="-0.37231">
        <ele>41.9204</ele>
        <time>2011-06-02T13:47:17Z</time>
      </trkpt>
      <trkpt lat="46.37766" lon="-0.37229">
        <ele>41.9241</ele>
        <time>2011-06-02T13:47:18Z</time>
      </trkpt>
      <trkpt lat="46.37767" lon="-0.37228">
        <ele>41.9286</ele>
        <time>2011-06-02T13:47:19Z</time>
      </trkpt>
      <trkpt lat="46.37767" lon="-0.37226">
        <ele>41.9333</ele>
        <time>2011-06-02T13:47:20Z</time>
      </trkpt>
      <trkpt lat="46.37767" lon="-0.37225">
        <ele>41.9382</ele>
        <time>2011-06-02T13:47:21Z</time>
      </trkpt>
      <trkpt lat="46.37767" lon="-0.37223">
        <ele>41.9448</ele>
        <time>2011-06-02T13:47:22Z</time>
      </trkpt>
      <trkpt lat="46.37768" lon="-0.37221">
        <ele>41.9546</ele>
        <time>2011-06-02T13:47:23Z</time>
      </trkpt>
      <trkpt lat="46.37768" lon="-0.37219">
        <ele>41.963</ele>
        <time>2011-06-02T13:47:24Z</time>
      </trkpt>
      <trkpt lat="46.37769" lon="-0.37217">
        <ele>41.9725</ele>
        <time>2011-06-02T13:47:25Z</time>
      </trkpt>
      <trkpt lat="46.37769" lon="-0.37215">
        <ele>41.9819</ele>
        <time>2011-06-02T13:47:26Z</time>
      </trkpt>
      <trkpt lat="46.37769" lon="-0.37213">
        <ele>41.9881</ele>
        <time>2011-06-02T13:47:27Z</time>
      </trkpt>
      <trkpt lat="46.37769" lon="-0.37211">
        <ele>41.9954</ele>
        <time>2011-06-02T13:47:28Z</time>
      </trkpt>
      <trkpt lat="46.37769" lon="-0.37209">
        <ele>42.0015</ele>
        <time>2011-06-02T13:47:29Z</time>
      </trkpt>
      <trkpt lat="46.37769" lon="-0.37207">
        <ele>42.0071</ele>
        <time>2011-06-02T13:47:30Z</time>
      </trkpt>
      <trkpt lat="46.37769" lon="-0.37205">
        <ele>42.0133</ele>
        <time>2011-06-02T13:47:31Z</time>
      </trkpt>
      <trkpt lat="46.37769" lon="-0.37203">
        <ele>42.0191</ele>
        <time>2011-06-02T13:47:32Z</time>
      </trkpt>
      <trkpt lat="46.3777" lon="-0.37201">
        <ele>42.0204</ele>
        <time>2011-06-02T13:47:33Z</time>
      </trkpt>
      <trkpt lat="46.37771" lon="-0.372">
        <ele>42.0144</ele>
        <time>2011-06-02T13:47:34Z</time>
      </trkpt>
      <trkpt lat="46.37771" lon="-0.37199">
        <ele>42.0039</ele>
        <time>2011-06-02T13:47:35Z</time>
      </trkpt>
      <trkpt lat="46.37772" lon="-0.37199">
        <ele>41.9899</ele>
        <time>2011-06-02T13:47:36Z</time>
      </trkpt>
      <trkpt lat="46.37772" lon="-0.37197">
        <ele>41.9715</ele>
        <time>2011-06-02T13:47:37Z</time>
      </trkpt>
      <trkpt lat="46.37773" lon="-0.37196">
        <ele>41.9528</ele>
        <time>2011-06-02T13:47:38Z</time>
      </trkpt>
      <trkpt lat="46.37774" lon="-0.37195">
        <ele>41.9296</ele>
        <time>2011-06-02T13:47:39Z</time>
      </trkpt>
      <trkpt lat="46.37775" lon="-0.37194">
        <ele>41.9068</ele>
        <time>2011-06-02T13:47:40Z</time>
      </trkpt>
      <trkpt lat="46.37775" lon="-0.37193">
        <ele>41.8822</ele>
        <time>2011-06-02T13:47:41Z</time>
      </trkpt>
      <trkpt lat="46.37775" lon="-0.37191">
        <ele>41.8525</ele>
        <time>2011-06-02T13:47:42Z</time>
      </trkpt>
      <trkpt lat="46.37776" lon="-0.3719">
        <ele>41.8166</ele>
        <time>2011-06-02T13:47:43Z</time>
      </trkpt>
      <trkpt lat="46.37777" lon="-0.37188">
        <ele>41.7807</ele>
        <time>2011-06-02T13:47:44Z</time>
      </trkpt>
      <trkpt lat="46.37777" lon="-0.37187">
        <ele>41.7458</ele>
        <time>2011-06-02T13:47:45Z</time>
      </trkpt>
      <trkpt lat="46.37777" lon="-0.37185">
        <ele>41.7118</ele>
        <time>2011-06-02T13:47:46Z</time>
      </trkpt>
      <trkpt lat="46.37778" lon="-0.37184">
        <ele>41.6771</ele>
        <time>2011-06-02T13:47:47Z</time>
      </trkpt>
      <trkpt lat="46.37778" lon="-0.37183">
        <ele>41.6398</ele>
        <time>2011-06-02T13:47:48Z</time>
      </trkpt>
      <trkpt lat="46.37779" lon="-0.37184">
        <ele>41.5395</ele>
        <time>2011-06-02T13:47:52Z</time>
      </trkpt>
      <trkpt lat="46.37779" lon="-0.37184">
        <ele>41.4938</ele>
        <time>2011-06-02T13:47:53Z</time>
      </trkpt>
      <trkpt lat="46.3778" lon="-0.37183">
        <ele>41.4478</ele>
        <time>2011-06-02T13:47:54Z</time>
      </trkpt>
      <trkpt lat="46.3778" lon="-0.37182">
        <ele>41.4013</ele>
        <time>2011-06-02T13:47:55Z</time>
      </trkpt>
      <trkpt lat="46.3778" lon="-0.37181">
        <ele>41.3538</ele>
        <time>2011-06-02T13:47:56Z</time>
      </trkpt>
      <trkpt lat="46.37781" lon="-0.3718">
        <ele>41.3015</ele>
        <time>2011-06-02T13:47:57Z</time>
      </trkpt>
      <trkpt lat="46.37782" lon="-0.37179">
        <ele>41.2506</ele>
        <time>2011-06-02T13:47:58Z</time>
      </trkpt>
      <trkpt lat="46.37783" lon="-0.37178">
        <ele>41.2009</ele>
        <time>2011-06-02T13:47:59Z</time>
      </trkpt>
      <trkpt lat="46.37784" lon="-0.37177">
        <ele>41.1505</ele>
        <time>2011-06-02T13:48:00Z</time>
      </trkpt>
      <trkpt lat="46.37785" lon="-0.37176">
        <ele>41.0982</ele>
        <time>2011-06-02T13:48:01Z</time>
      </trkpt>
      <trkpt lat="46.37786" lon="-0.37175">
        <ele>41.0474</ele>
        <time>2011-06-02T13:48:02Z</time>
      </trkpt>
      <trkpt lat="46.37787" lon="-0.37174">
        <ele>40.998</ele>
        <time>2011-06-02T13:48:03Z</time>
      </trkpt>
      <trkpt lat="46.37788" lon="-0.37173">
        <ele>40.949</ele>
        <time>2011-06-02T13:48:04Z</time>
      </trkpt>
      <trkpt lat="46.37789" lon="-0.37171">
        <ele>40.9044</ele>
        <time>2011-06-02T13:48:05Z</time>
      </trkpt>
      <trkpt lat="46.37791" lon="-0.3717">
        <ele>40.8539</ele>
        <time>2011-06-02T13:48:06Z</time>
      </trkpt>
      <trkpt lat="46.37791" lon="-0.37168">
        <ele>40.8088</ele>
        <time>2011-06-02T13:48:07Z</time>
      </trkpt>
      <trkpt lat="46.37793" lon="-0.37168">
        <ele>40.7483</ele>
        <time>2011-06-02T13:48:08Z</time>
      </trkpt>
      <trkpt lat="46.37793" lon="-0.37167">
        <ele>40.6885</ele>
        <time>2011-06-02T13:48:09Z</time>
      </trkpt>
      <trkpt lat="46.37794" lon="-0.37167">
        <ele>40.631</ele>
        <time>2011-06-02T13:48:10Z</time>
      </trkpt>
      <trkpt lat="46.37795" lon="-0.37167">
        <ele>40.5756</ele>
        <time>2011-06-02T13:48:11Z</time>
      </trkpt>
      <trkpt lat="46.37795" lon="-0.37165">
        <ele>40.523</ele>
        <time>2011-06-02T13:48:12Z</time>
      </trkpt>
      <trkpt lat="46.37796" lon="-0.37164">
        <ele>40.4707</ele>
        <time>2011-06-02T13:48:13Z</time>
      </trkpt>
      <trkpt lat="46.37797" lon="-0.37162">
        <ele>40.4202</ele>
        <time>2011-06-02T13:48:14Z</time>
      </trkpt>
      <trkpt lat="46.37798" lon="-0.37161">
        <ele>40.3725</ele>
        <time>2011-06-02T13:48:15Z</time>
      </trkpt>
      <trkpt lat="46.37799" lon="-0.3716">
        <ele>40.3302</ele>
        <time>2011-06-02T13:48:16Z</time>
      </trkpt>
      <trkpt lat="46.378" lon="-0.37158">
        <ele>40.286</ele>
        <time>2011-06-02T13:48:17Z</time>
      </trkpt>
      <trkpt lat="46.37801" lon="-0.37157">
        <ele>40.2428</ele>
        <time>2011-06-02T13:48:18Z</time>
      </trkpt>
      <trkpt lat="46.37802" lon="-0.37155">
        <ele>40.1994</ele>
        <time>2011-06-02T13:48:19Z</time>
      </trkpt>
      <trkpt lat="46.37803" lon="-0.37153">
        <ele>40.156</ele>
        <time>2011-06-02T13:48:20Z</time>
      </trkpt>
      <trkpt lat="46.37804" lon="-0.37152">
        <ele>40.1157</ele>
        <time>2011-06-02T13:48:21Z</time>
      </trkpt>
      <trkpt lat="46.37804" lon="-0.37149">
        <ele>40.0739</ele>
        <time>2011-06-02T13:48:22Z</time>
      </trkpt>
      <trkpt lat="46.37805" lon="-0.37147">
        <ele>40.0361</ele>
        <time>2011-06-02T13:48:23Z</time>
      </trkpt>
      <trkpt lat="46.37804" lon="-0.37146">
        <ele>40.0022</ele>
        <time>2011-06-02T13:48:24Z</time>
      </trkpt>
      <trkpt lat="46.37804" lon="-0.37144">
        <ele>39.9629</ele>
        <time>2011-06-02T13:48:25Z</time>
      </trkpt>
      <trkpt lat="46.37804" lon="-0.37142">
        <ele>39.9133</ele>
        <time>2011-06-02T13:48:26Z</time>
      </trkpt>
      <trkpt lat="46.37804" lon="-0.3714">
        <ele>39.8566</ele>
        <time>2011-06-02T13:48:27Z</time>
      </trkpt>
      <trkpt lat="46.37803" lon="-0.37138">
        <ele>39.8018</ele>
        <time>2011-06-02T13:48:28Z</time>
      </trkpt>
      <trkpt lat="46.37803" lon="-0.37136">
        <ele>39.7514</ele>
        <time>2011-06-02T13:48:29Z</time>
      </trkpt>
      <trkpt lat="46.37803" lon="-0.37134">
        <ele>39.7028</ele>
        <time>2011-06-02T13:48:30Z</time>
      </trkpt>
      <trkpt lat="46.37803" lon="-0.37132">
        <ele>39.6527</ele>
        <time>2011-06-02T13:48:31Z</time>
      </trkpt>
      <trkpt lat="46.37802" lon="-0.37131">
        <ele>39.6012</ele>
        <time>2011-06-02T13:48:32Z</time>
      </trkpt>
      <trkpt lat="46.37802" lon="-0.37129">
        <ele>39.5461</ele>
        <time>2011-06-02T13:48:33Z</time>
      </trkpt>
      <trkpt lat="46.37802" lon="-0.37128">
        <ele>39.4925</ele>
        <time>2011-06-02T13:48:34Z</time>
      </trkpt>
      <trkpt lat="46.37801" lon="-0.37127">
        <ele>39.443</ele>
        <time>2011-06-02T13:48:35Z</time>
      </trkpt>
      <trkpt lat="46.37801" lon="-0.37126">
        <ele>39.3947</ele>
        <time>2011-06-02T13:48:36Z</time>
      </trkpt>
      <trkpt lat="46.378" lon="-0.37125">
        <ele>39.3474</ele>
        <time>2011-06-02T13:48:37Z</time>
      </trkpt>
      <trkpt lat="46.378" lon="-0.37124">
        <ele>39.3006</ele>
        <time>2011-06-02T13:48:38Z</time>
      </trkpt>
      <trkpt lat="46.378" lon="-0.37123">
        <ele>39.2514</ele>
        <time>2011-06-02T13:48:39Z</time>
      </trkpt>
      <trkpt lat="46.378" lon="-0.37121">
        <ele>39.2022</ele>
        <time>2011-06-02T13:48:40Z</time>
      </trkpt>
      <trkpt lat="46.378" lon="-0.3712">
        <ele>39.151</ele>
        <time>2011-06-02T13:48:41Z</time>
      </trkpt>
      <trkpt lat="46.378" lon="-0.37118">
        <ele>39.1018</ele>
        <time>2011-06-02T13:48:42Z</time>
      </trkpt>
      <trkpt lat="46.37799" lon="-0.37116">
        <ele>39.0496</ele>
        <time>2011-06-02T13:48:43Z</time>
      </trkpt>
      <trkpt lat="46.37799" lon="-0.37114">
        <ele>38.9934</ele>
        <time>2011-06-02T13:48:44Z</time>
      </trkpt>
      <trkpt lat="46.37798" lon="-0.37113">
        <ele>38.9377</ele>
        <time>2011-06-02T13:48:45Z</time>
      </trkpt>
      <trkpt lat="46.37798" lon="-0.37112">
        <ele>38.8824</ele>
        <time>2011-06-02T13:48:46Z</time>
      </trkpt>
      <trkpt lat="46.37797" lon="-0.3711">
        <ele>38.8239</ele>
        <time>2011-06-02T13:48:47Z</time>
      </trkpt>
      <trkpt lat="46.37797" lon="-0.37109">
        <ele>38.7667</ele>
        <time>2011-06-02T13:48:48Z</time>
      </trkpt>
      <trkpt lat="46.37796" lon="-0.37108">
        <ele>38.7105</ele>
        <time>2011-06-02T13:48:49Z</time>
      </trkpt>
      <trkpt lat="46.37796" lon="-0.37106">
        <ele>38.6549</ele>
        <time>2011-06-02T13:48:50Z</time>
      </trkpt>
      <trkpt lat="46.37796" lon="-0.37104">
        <ele>38.5999</ele>
        <time>2011-06-02T13:48:51Z</time>
      </trkpt>
      <trkpt lat="46.37795" lon="-0.37103">
        <ele>38.5429</ele>
        <time>2011-06-02T13:48:52Z</time>
      </trkpt>
      <trkpt lat="46.37795" lon="-0.37101">
        <ele>38.4859</ele>
        <time>2011-06-02T13:48:53Z</time>
      </trkpt>
      <trkpt lat="46.37795" lon="-0.371">
        <ele>38.4295</ele>
        <time>2011-06-02T13:48:54Z</time>
      </trkpt>
      <trkpt lat="46.37794" lon="-0.37098">
        <ele>38.3732</ele>
        <time>2011-06-02T13:48:55Z</time>
      </trkpt>
      <trkpt lat="46.37794" lon="-0.37097">
        <ele>38.3173</ele>
        <time>2011-06-02T13:48:56Z</time>
      </trkpt>
      <trkpt lat="46.37794" lon="-0.37096">
        <ele>38.2628</ele>
        <time>2011-06-02T13:48:57Z</time>
      </trkpt>
      <trkpt lat="46.37793" lon="-0.37095">
        <ele>38.212</ele>
        <time>2011-06-02T13:48:58Z</time>
      </trkpt>
      <trkpt lat="46.37793" lon="-0.37096">
        <ele>38.16</ele>
        <time>2011-06-02T13:49:01Z</time>
      </trkpt>
      <trkpt lat="46.37792" lon="-0.37095">
        <ele>38.1214</ele>
        <time>2011-06-02T13:49:02Z</time>
      </trkpt>
      <trkpt lat="46.37792" lon="-0.37094">
        <ele>38.0849</ele>
        <time>2011-06-02T13:49:03Z</time>
      </trkpt>
      <trkpt lat="46.37791" lon="-0.37093">
        <ele>38.049</ele>
        <time>2011-06-02T13:49:04Z</time>
      </trkpt>
      <trkpt lat="46.37791" lon="-0.37091">
        <ele>38.0154</ele>
        <time>2011-06-02T13:49:05Z</time>
      </trkpt>
      <trkpt lat="46.3779" lon="-0.3709">
        <ele>37.9824</ele>
        <time>2011-06-02T13:49:06Z</time>
      </trkpt>
      <trkpt lat="46.3779" lon="-0.37088">
        <ele>37.9493</ele>
        <time>2011-06-02T13:49:07Z</time>
      </trkpt>
      <trkpt lat="46.3779" lon="-0.37086">
        <ele>37.9195</ele>
        <time>2011-06-02T13:49:08Z</time>
      </trkpt>
      <trkpt lat="46.37789" lon="-0.37084">
        <ele>37.8926</ele>
        <time>2011-06-02T13:49:09Z</time>
      </trkpt>
      <trkpt lat="46.37788" lon="-0.37083">
        <ele>37.8658</ele>
        <time>2011-06-02T13:49:10Z</time>
      </trkpt>
      <trkpt lat="46.37788" lon="-0.37081">
        <ele>37.8406</ele>
        <time>2011-06-02T13:49:11Z</time>
      </trkpt>
      <trkpt lat="46.37788" lon="-0.3708">
        <ele>37.8129</ele>
        <time>2011-06-02T13:49:12Z</time>
      </trkpt>
      <trkpt lat="46.37787" lon="-0.37078">
        <ele>37.7887</ele>
        <time>2011-06-02T13:49:13Z</time>
      </trkpt>
      <trkpt lat="46.37787" lon="-0.37075">
        <ele>37.7669</ele>
        <time>2011-06-02T13:49:14Z</time>
      </trkpt>
      <trkpt lat="46.37787" lon="-0.37073">
        <ele>37.7468</ele>
        <time>2011-06-02T13:49:15Z</time>
      </trkpt>
      <trkpt lat="46.37787" lon="-0.37071">
        <ele>37.7284</ele>
        <time>2011-06-02T13:49:16Z</time>
      </trkpt>
      <trkpt lat="46.37787" lon="-0.37069">
        <ele>37.7039</ele>
        <time>2011-06-02T13:49:17Z</time>
      </trkpt>
      <trkpt lat="46.37787" lon="-0.37067">
        <ele>37.6763</ele>
        <time>2011-06-02T13:49:18Z</time>
      </trkpt>
      <trkpt lat="46.37787" lon="-0.37065">
        <ele>37.6463</ele>
        <time>2011-06-02T13:49:19Z</time>
      </trkpt>
      <trkpt lat="46.37787" lon="-0.37063">
        <ele>37.6134</ele>
        <time>2011-06-02T13:49:20Z</time>
      </trkpt>
      <trkpt lat="46.37788" lon="-0.37062">
        <ele>37.5728</ele>
        <time>2011-06-02T13:49:21Z</time>
      </trkpt>
      <trkpt lat="46.37788" lon="-0.37061">
        <ele>37.5261</ele>
        <time>2011-06-02T13:49:22Z</time>
      </trkpt>
      <trkpt lat="46.37788" lon="-0.3706">
        <ele>37.4815</ele>
        <time>2011-06-02T13:49:23Z</time>
      </trkpt>
      <trkpt lat="46.37789" lon="-0.37058">
        <ele>37.4379</ele>
        <time>2011-06-02T13:49:24Z</time>
      </trkpt>
      <trkpt lat="46.3779" lon="-0.37057">
        <ele>37.3934</ele>
        <time>2011-06-02T13:49:25Z</time>
      </trkpt>
      <trkpt lat="46.3779" lon="-0.37055">
        <ele>37.3486</ele>
        <time>2011-06-02T13:49:26Z</time>
      </trkpt>
      <trkpt lat="46.3779" lon="-0.37054">
        <ele>37.3028</ele>
        <time>2011-06-02T13:49:27Z</time>
      </trkpt>
      <trkpt lat="46.37791" lon="-0.37053">
        <ele>37.2562</ele>
        <time>2011-06-02T13:49:28Z</time>
      </trkpt>
      <trkpt lat="46.37792" lon="-0.37052">
        <ele>37.2091</ele>
        <time>2011-06-02T13:49:29Z</time>
      </trkpt>
      <trkpt lat="46.37793" lon="-0.3705">
        <ele>37.1621</ele>
        <time>2011-06-02T13:49:30Z</time>
      </trkpt>
      <trkpt lat="46.37795" lon="-0.37049">
        <ele>37.1144</ele>
        <time>2011-06-02T13:49:31Z</time>
      </trkpt>
      <trkpt lat="46.37796" lon="-0.37048">
        <ele>37.0703</ele>
        <time>2011-06-02T13:49:32Z</time>
      </trkpt>
      <trkpt lat="46.378" lon="-0.37052">
        <ele>37.0285</ele>
        <time>2011-06-02T13:49:38Z</time>
      </trkpt>
      <trkpt lat="46.37801" lon="-0.37051">
        <ele>36.9256</ele>
        <time>2011-06-02T13:49:39Z</time>
      </trkpt>
      <trkpt lat="46.37802" lon="-0.37051">
        <ele>36.8261</ele>
        <time>2011-06-02T13:49:40Z</time>
      </trkpt>
      <trkpt lat="46.37803" lon="-0.37049">
        <ele>36.7315</ele>
        <time>2011-06-02T13:49:41Z</time>
      </trkpt>
      <trkpt lat="46.37804" lon="-0.37048">
        <ele>36.6389</ele>
        <time>2011-06-02T13:49:42Z</time>
      </trkpt>
      <trkpt lat="46.37806" lon="-0.37047">
        <ele>36.5494</ele>
        <time>2011-06-02T13:49:43Z</time>
      </trkpt>
      <trkpt lat="46.37806" lon="-0.37045">
        <ele>36.4649</ele>
        <time>2011-06-02T13:49:44Z</time>
      </trkpt>
      <trkpt lat="46.37807" lon="-0.37044">
        <ele>36.3863</ele>
        <time>2011-06-02T13:49:45Z</time>
      </trkpt>
      <trkpt lat="46.37808" lon="-0.37044">
        <ele>36.308</ele>
        <time>2011-06-02T13:49:46Z</time>
      </trkpt>
      <trkpt lat="46.37809" lon="-0.37043">
        <ele>36.2293</ele>
        <time>2011-06-02T13:49:47Z</time>
      </trkpt>
      <trkpt lat="46.3781" lon="-0.37042">
        <ele>36.1531</ele>
        <time>2011-06-02T13:49:48Z</time>
      </trkpt>
      <trkpt lat="46.37811" lon="-0.37041">
        <ele>36.0835</ele>
        <time>2011-06-02T13:49:49Z</time>
      </trkpt>
      <trkpt lat="46.37812" lon="-0.37041">
        <ele>36.0173</ele>
        <time>2011-06-02T13:49:50Z</time>
      </trkpt>
      <trkpt lat="46.37812" lon="-0.37041">
        <ele>35.9528</ele>
        <time>2011-06-02T13:49:51Z</time>
      </trkpt>
      <trkpt lat="46.37813" lon="-0.37041">
        <ele>35.8899</ele>
        <time>2011-06-02T13:49:52Z</time>
      </trkpt>
      <trkpt lat="46.37813" lon="-0.37041">
        <ele>35.8264</ele>
        <time>2011-06-02T13:49:53Z</time>
      </trkpt>
      <trkpt lat="46.37814" lon="-0.37041">
        <ele>35.7648</ele>
        <time>2011-06-02T13:49:54Z</time>
      </trkpt>
      <trkpt lat="46.37814" lon="-0.37041">
        <ele>35.7023</ele>
        <time>2011-06-02T13:49:55Z</time>
      </trkpt>
      <trkpt lat="46.37815" lon="-0.3704">
        <ele>35.641</ele>
        <time>2011-06-02T13:49:56Z</time>
      </trkpt>
      <trkpt lat="46.37816" lon="-0.37039">
        <ele>35.5824</ele>
        <time>2011-06-02T13:49:57Z</time>
      </trkpt>
      <trkpt lat="46.37816" lon="-0.37038">
        <ele>35.5244</ele>
        <time>2011-06-02T13:49:58Z</time>
      </trkpt>
      <trkpt lat="46.37817" lon="-0.37037">
        <ele>35.4681</ele>
        <time>2011-06-02T13:49:59Z</time>
      </trkpt>
      <trkpt lat="46.37818" lon="-0.37037">
        <ele>35.4141</ele>
        <time>2011-06-02T13:50:00Z</time>
      </trkpt>
      <trkpt lat="46.37819" lon="-0.37036">
        <ele>35.3678</ele>
        <time>2011-06-02T13:50:01Z</time>
      </trkpt>
      <trkpt lat="46.3782" lon="-0.37035">
        <ele>35.3253</ele>
        <time>2011-06-02T13:50:02Z</time>
      </trkpt>
      <trkpt lat="46.3782" lon="-0.37034">
        <ele>35.28</ele>
        <time>2011-06-02T13:50:03Z</time>
      </trkpt>
      <trkpt lat="46.37821" lon="-0.37033">
        <ele>35.2361</ele>
        <time>2011-06-02T13:50:04Z</time>
      </trkpt>
      <trkpt lat="46.37822" lon="-0.37032">
        <ele>35.1934</ele>
        <time>2011-06-02T13:50:05Z</time>
      </trkpt>
      <trkpt lat="46.37822" lon="-0.37031">
        <ele>35.1538</ele>
        <time>2011-06-02T13:50:06Z</time>
      </trkpt>
      <trkpt lat="46.37824" lon="-0.37029">
        <ele>35.1189</ele>
        <time>2011-06-02T13:50:07Z</time>
      </trkpt>
      <trkpt lat="46.37824" lon="-0.37028">
        <ele>35.0853</ele>
        <time>2011-06-02T13:50:08Z</time>
      </trkpt>
      <trkpt lat="46.37825" lon="-0.37027">
        <ele>35.0538</ele>
        <time>2011-06-02T13:50:09Z</time>
      </trkpt>
      <trkpt lat="46.37825" lon="-0.37026">
        <ele>35.0237</ele>
        <time>2011-06-02T13:50:10Z</time>
      </trkpt>
      <trkpt lat="46.37826" lon="-0.37025">
        <ele>34.9964</ele>
        <time>2011-06-02T13:50:11Z</time>
      </trkpt>
      <trkpt lat="46.37826" lon="-0.37023">
        <ele>34.9721</ele>
        <time>2011-06-02T13:50:12Z</time>
      </trkpt>
      <trkpt lat="46.37826" lon="-0.37022">
        <ele>34.9502</ele>
        <time>2011-06-02T13:50:13Z</time>
      </trkpt>
      <trkpt lat="46.37825" lon="-0.3702">
        <ele>34.9304</ele>
        <time>2011-06-02T13:50:14Z</time>
      </trkpt>
      <trkpt lat="46.37825" lon="-0.37019">
        <ele>34.9119</ele>
        <time>2011-06-02T13:50:15Z</time>
      </trkpt>
      <trkpt lat="46.37825" lon="-0.37017">
        <ele>34.8945</ele>
        <time>2011-06-02T13:50:16Z</time>
      </trkpt>
      <trkpt lat="46.37825" lon="-0.37015">
        <ele>34.8803</ele>
        <time>2011-06-02T13:50:17Z</time>
      </trkpt>
      <trkpt lat="46.37825" lon="-0.37013">
        <ele>34.8668</ele>
        <time>2011-06-02T13:50:18Z</time>
      </trkpt>
      <trkpt lat="46.37825" lon="-0.37011">
        <ele>34.8548</ele>
        <time>2011-06-02T13:50:19Z</time>
      </trkpt>
      <trkpt lat="46.37825" lon="-0.3701">
        <ele>34.8438</ele>
        <time>2011-06-02T13:50:20Z</time>
      </trkpt>
      <trkpt lat="46.37825" lon="-0.37008">
        <ele>34.8428</ele>
        <time>2011-06-02T13:50:21Z</time>
      </trkpt>
      <trkpt lat="46.37825" lon="-0.37007">
        <ele>34.8497</ele>
        <time>2011-06-02T13:50:22Z</time>
      </trkpt>
      <trkpt lat="46.37824" lon="-0.37005">
        <ele>34.8632</ele>
        <time>2011-06-02T13:50:23Z</time>
      </trkpt>
      <trkpt lat="46.37824" lon="-0.37004">
        <ele>34.8802</ele>
        <time>2011-06-02T13:50:24Z</time>
      </trkpt>
      <trkpt lat="46.37824" lon="-0.37003">
        <ele>34.9045</ele>
        <time>2011-06-02T13:50:25Z</time>
      </trkpt>
      <trkpt lat="46.37823" lon="-0.37002">
        <ele>34.9319</ele>
        <time>2011-06-02T13:50:26Z</time>
      </trkpt>
      <trkpt lat="46.37823" lon="-0.36999">
        <ele>35.0059</ele>
        <time>2011-06-02T13:50:29Z</time>
      </trkpt>
      <trkpt lat="46.37823" lon="-0.36998">
        <ele>35.0536</ele>
        <time>2011-06-02T13:50:30Z</time>
      </trkpt>
      <trkpt lat="46.37823" lon="-0.36996">
        <ele>35.108</ele>
        <time>2011-06-02T13:50:31Z</time>
      </trkpt>
      <trkpt lat="46.37822" lon="-0.36995">
        <ele>35.1615</ele>
        <time>2011-06-02T13:50:32Z</time>
      </trkpt>
      <trkpt lat="46.37822" lon="-0.36994">
        <ele>35.2146</ele>
        <time>2011-06-02T13:50:33Z</time>
      </trkpt>
      <trkpt lat="46.37822" lon="-0.36992">
        <ele>35.266</ele>
        <time>2011-06-02T13:50:34Z</time>
      </trkpt>
      <trkpt lat="46.37822" lon="-0.36991">
        <ele>35.318</ele>
        <time>2011-06-02T13:50:35Z</time>
      </trkpt>
      <trkpt lat="46.37822" lon="-0.36989">
        <ele>35.3716</ele>
        <time>2011-06-02T13:50:36Z</time>
      </trkpt>
      <trkpt lat="46.37822" lon="-0.36987">
        <ele>35.426</ele>
        <time>2011-06-02T13:50:37Z</time>
      </trkpt>
      <trkpt lat="46.37822" lon="-0.36986">
        <ele>35.4813</ele>
        <time>2011-06-02T13:50:38Z</time>
      </trkpt>
      <trkpt lat="46.37821" lon="-0.36984">
        <ele>35.5365</ele>
        <time>2011-06-02T13:50:39Z</time>
      </trkpt>
      <trkpt lat="46.37821" lon="-0.36982">
        <ele>35.5883</ele>
        <time>2011-06-02T13:50:40Z</time>
      </trkpt>
      <trkpt lat="46.37821" lon="-0.36981">
        <ele>35.6397</ele>
        <time>2011-06-02T13:50:41Z</time>
      </trkpt>
      <trkpt lat="46.3782" lon="-0.36979">
        <ele>35.693</ele>
        <time>2011-06-02T13:50:42Z</time>
      </trkpt>
      <trkpt lat="46.3782" lon="-0.36977">
        <ele>35.7524</ele>
        <time>2011-06-02T13:50:43Z</time>
      </trkpt>
      <trkpt lat="46.3782" lon="-0.36974">
        <ele>35.8124</ele>
        <time>2011-06-02T13:50:44Z</time>
      </trkpt>
      <trkpt lat="46.3782" lon="-0.36972">
        <ele>35.8736</ele>
        <time>2011-06-02T13:50:45Z</time>
      </trkpt>
      <trkpt lat="46.37819" lon="-0.36969">
        <ele>35.9417</ele>
        <time>2011-06-02T13:50:46Z</time>
      </trkpt>
      <trkpt lat="46.3782" lon="-0.36966">
        <ele>36.0127</ele>
        <time>2011-06-02T13:50:47Z</time>
      </trkpt>
      <trkpt lat="46.37819" lon="-0.36963">
        <ele>36.0876</ele>
        <time>2011-06-02T13:50:48Z</time>
      </trkpt>
      <trkpt lat="46.37819" lon="-0.3696">
        <ele>36.1736</ele>
        <time>2011-06-02T13:50:49Z</time>
      </trkpt>
      <trkpt lat="46.37818" lon="-0.36958">
        <ele>36.2569</ele>
        <time>2011-06-02T13:50:50Z</time>
      </trkpt>
      <trkpt lat="46.37817" lon="-0.36955">
        <ele>36.3418</ele>
        <time>2011-06-02T13:50:51Z</time>
      </trkpt>
      <trkpt lat="46.37817" lon="-0.36953">
        <ele>36.4242</ele>
        <time>2011-06-02T13:50:52Z</time>
      </trkpt>
      <trkpt lat="46.37816" lon="-0.36951">
        <ele>36.5078</ele>
        <time>2011-06-02T13:50:53Z</time>
      </trkpt>
      <trkpt lat="46.37815" lon="-0.36949">
        <ele>36.588</ele>
        <time>2011-06-02T13:50:54Z</time>
      </trkpt>
      <trkpt lat="46.37814" lon="-0.36947">
        <ele>36.6631</ele>
        <time>2011-06-02T13:50:55Z</time>
      </trkpt>
      <trkpt lat="46.37814" lon="-0.36945">
        <ele>36.7363</ele>
        <time>2011-06-02T13:50:56Z</time>
      </trkpt>
      <trkpt lat="46.37814" lon="-0.36943">
        <ele>36.8066</ele>
        <time>2011-06-02T13:50:57Z</time>
      </trkpt>
      <trkpt lat="46.37813" lon="-0.36941">
        <ele>36.8743</ele>
        <time>2011-06-02T13:50:58Z</time>
      </trkpt>
      <trkpt lat="46.37813" lon="-0.36939">
        <ele>36.9405</ele>
        <time>2011-06-02T13:50:59Z</time>
      </trkpt>
      <trkpt lat="46.37813" lon="-0.36937">
        <ele>36.9999</ele>
        <time>2011-06-02T13:51:00Z</time>
      </trkpt>
      <trkpt lat="46.37813" lon="-0.36936">
        <ele>37.0553</ele>
        <time>2011-06-02T13:51:01Z</time>
      </trkpt>
      <trkpt lat="46.37813" lon="-0.36935">
        <ele>37.0997</ele>
        <time>2011-06-02T13:51:02Z</time>
      </trkpt>
      <trkpt lat="46.37812" lon="-0.36934">
        <ele>37.1342</ele>
        <time>2011-06-02T13:51:03Z</time>
      </trkpt>
      <trkpt lat="46.37812" lon="-0.36932">
        <ele>37.1664</ele>
        <time>2011-06-02T13:51:04Z</time>
      </trkpt>
      <trkpt lat="46.37812" lon="-0.36931">
        <ele>37.1934</ele>
        <time>2011-06-02T13:51:05Z</time>
      </trkpt>
      <trkpt lat="46.37811" lon="-0.36929">
        <ele>37.2145</ele>
        <time>2011-06-02T13:51:06Z</time>
      </trkpt>
      <trkpt lat="46.37811" lon="-0.36928">
        <ele>37.2326</ele>
        <time>2011-06-02T13:51:07Z</time>
      </trkpt>
      <trkpt lat="46.3781" lon="-0.36926">
        <ele>37.247</ele>
        <time>2011-06-02T13:51:08Z</time>
      </trkpt>
      <trkpt lat="46.37809" lon="-0.36925">
        <ele>37.2607</ele>
        <time>2011-06-02T13:51:09Z</time>
      </trkpt>
      <trkpt lat="46.37809" lon="-0.36924">
        <ele>37.2743</ele>
        <time>2011-06-02T13:51:10Z</time>
      </trkpt>
      <trkpt lat="46.37808" lon="-0.36923">
        <ele>37.2866</ele>
        <time>2011-06-02T13:51:11Z</time>
      </trkpt>
      <trkpt lat="46.37807" lon="-0.36922">
        <ele>37.2997</ele>
        <time>2011-06-02T13:51:12Z</time>
      </trkpt>
      <trkpt lat="46.37806" lon="-0.36921">
        <ele>37.3155</ele>
        <time>2011-06-02T13:51:13Z</time>
      </trkpt>
      <trkpt lat="46.37805" lon="-0.3692">
        <ele>37.3268</ele>
        <time>2011-06-02T13:51:14Z</time>
      </trkpt>
      <trkpt lat="46.37805" lon="-0.3692">
        <ele>37.3331</ele>
        <time>2011-06-02T13:51:15Z</time>
      </trkpt>
      <trkpt lat="46.37804" lon="-0.36919">
        <ele>37.339</ele>
        <time>2011-06-02T13:51:16Z</time>
      </trkpt>
      <trkpt lat="46.37804" lon="-0.36918">
        <ele>37.3457</ele>
        <time>2011-06-02T13:51:17Z</time>
      </trkpt>
      <trkpt lat="46.37803" lon="-0.36917">
        <ele>37.3527</ele>
        <time>2011-06-02T13:51:18Z</time>
      </trkpt>
      <trkpt lat="46.37803" lon="-0.36916">
        <ele>37.3602</ele>
        <time>2011-06-02T13:51:19Z</time>
      </trkpt>
      <trkpt lat="46.37802" lon="-0.36915">
        <ele>37.3674</ele>
        <time>2011-06-02T13:51:20Z</time>
      </trkpt>
      <trkpt lat="46.37801" lon="-0.36914">
        <ele>37.3741</ele>
        <time>2011-06-02T13:51:21Z</time>
      </trkpt>
      <trkpt lat="46.37801" lon="-0.36913">
        <ele>37.379</ele>
        <time>2011-06-02T13:51:22Z</time>
      </trkpt>
      <trkpt lat="46.37801" lon="-0.36911">
        <ele>37.3819</ele>
        <time>2011-06-02T13:51:23Z</time>
      </trkpt>
      <trkpt lat="46.378" lon="-0.3691">
        <ele>37.3807</ele>
        <time>2011-06-02T13:51:24Z</time>
      </trkpt>
      <trkpt lat="46.378" lon="-0.36909">
        <ele>37.3752</ele>
        <time>2011-06-02T13:51:25Z</time>
      </trkpt>
      <trkpt lat="46.37799" lon="-0.36908">
        <ele>37.3682</ele>
        <time>2011-06-02T13:51:26Z</time>
      </trkpt>
      <trkpt lat="46.37798" lon="-0.36907">
        <ele>37.3638</ele>
        <time>2011-06-02T13:51:27Z</time>
      </trkpt>
      <trkpt lat="46.37798" lon="-0.36906">
        <ele>37.3618</ele>
        <time>2011-06-02T13:51:28Z</time>
      </trkpt>
      <trkpt lat="46.37797" lon="-0.36905">
        <ele>37.3535</ele>
        <time>2011-06-02T13:51:29Z</time>
      </trkpt>
      <trkpt lat="46.37796" lon="-0.36904">
        <ele>37.3427</ele>
        <time>2011-06-02T13:51:30Z</time>
      </trkpt>
      <trkpt lat="46.37795" lon="-0.36902">
        <ele>37.3282</ele>
        <time>2011-06-02T13:51:31Z</time>
      </trkpt>
      <trkpt lat="46.37795" lon="-0.36901">
        <ele>37.3117</ele>
        <time>2011-06-02T13:51:32Z</time>
      </trkpt>
      <trkpt lat="46.37794" lon="-0.369">
        <ele>37.299</ele>
        <time>2011-06-02T13:51:33Z</time>
      </trkpt>
      <trkpt lat="46.37793" lon="-0.36899">
        <ele>37.2867</ele>
        <time>2011-06-02T13:51:34Z</time>
      </trkpt>
      <trkpt lat="46.37793" lon="-0.36897">
        <ele>37.2735</ele>
        <time>2011-06-02T13:51:35Z</time>
      </trkpt>
      <trkpt lat="46.37792" lon="-0.36896">
        <ele>37.2599</ele>
        <time>2011-06-02T13:51:36Z</time>
      </trkpt>
      <trkpt lat="46.37792" lon="-0.36894">
        <ele>37.2454</ele>
        <time>2011-06-02T13:51:37Z</time>
      </trkpt>
      <trkpt lat="46.37792" lon="-0.36892">
        <ele>37.2306</ele>
        <time>2011-06-02T13:51:38Z</time>
      </trkpt>
      <trkpt lat="46.37792" lon="-0.36891">
        <ele>37.214</ele>
        <time>2011-06-02T13:51:39Z</time>
      </trkpt>
      <trkpt lat="46.37788" lon="-0.36888">
        <ele>36.5816</ele>
        <time>2011-06-02T13:52:18Z</time>
      </trkpt>
      <trkpt lat="46.37787" lon="-0.36881">
        <ele>36.2242</ele>
        <time>2011-06-02T13:53:10Z</time>
      </trkpt>
      <trkpt lat="46.37785" lon="-0.36888">
        <ele>36.6441</ele>
        <time>2011-06-02T13:54:08Z</time>
      </trkpt>
      <trkpt lat="46.3779" lon="-0.36892">
        <ele>36.612</ele>
        <time>2011-06-02T13:54:34Z</time>
      </trkpt>
      <trkpt lat="46.37789" lon="-0.36885">
        <ele>36.4962</ele>
        <time>2011-06-02T13:55:37Z</time>
      </trkpt>
      <trkpt lat="46.37794" lon="-0.36887">
        <ele>36.5998</ele>
        <time>2011-06-02T13:56:10Z</time>
      </trkpt>
      <trkpt lat="46.3779" lon="-0.36884">
        <ele>36.5042</ele>
        <time>2011-06-02T13:56:45Z</time>
      </trkpt>
      <trkpt lat="46.37789" lon="-0.36886">
        <ele>36.2824</ele>
        <time>2011-06-02T13:57:00Z</time>
      </trkpt>
      <trkpt lat="46.37788" lon="-0.36885">
        <ele>36.1766</ele>
        <time>2011-06-02T13:57:01Z</time>
      </trkpt>
      <trkpt lat="46.37788" lon="-0.36884">
        <ele>36.0725</ele>
        <time>2011-06-02T13:57:02Z</time>
      </trkpt>
      <trkpt lat="46.37788" lon="-0.36883">
        <ele>35.972</ele>
        <time>2011-06-02T13:57:03Z</time>
      </trkpt>
      <trkpt lat="46.37787" lon="-0.36882">
        <ele>35.8738</ele>
        <time>2011-06-02T13:57:04Z</time>
      </trkpt>
      <trkpt lat="46.37787" lon="-0.36881">
        <ele>35.7792</ele>
        <time>2011-06-02T13:57:05Z</time>
      </trkpt>
      <trkpt lat="46.37787" lon="-0.3688">
        <ele>35.6862</ele>
        <time>2011-06-02T13:57:06Z</time>
      </trkpt>
      <trkpt lat="46.37787" lon="-0.36878">
        <ele>35.5983</ele>
        <time>2011-06-02T13:57:07Z</time>
      </trkpt>
      <trkpt lat="46.37786" lon="-0.36877">
        <ele>35.5119</ele>
        <time>2011-06-02T13:57:08Z</time>
      </trkpt>
      <trkpt lat="46.37786" lon="-0.36875">
        <ele>35.4266</ele>
        <time>2011-06-02T13:57:09Z</time>
      </trkpt>
      <trkpt lat="46.37786" lon="-0.36874">
        <ele>35.3404</ele>
        <time>2011-06-02T13:57:10Z</time>
      </trkpt>
      <trkpt lat="46.37786" lon="-0.36873">
        <ele>35.2591</ele>
        <time>2011-06-02T13:57:11Z</time>
      </trkpt>
      <trkpt lat="46.37785" lon="-0.36872">
        <ele>35.1796</ele>
        <time>2011-06-02T13:57:12Z</time>
      </trkpt>
      <trkpt lat="46.37785" lon="-0.3687">
        <ele>35.1003</ele>
        <time>2011-06-02T13:57:13Z</time>
      </trkpt>
      <trkpt lat="46.37785" lon="-0.36869">
        <ele>35.0181</ele>
        <time>2011-06-02T13:57:14Z</time>
      </trkpt>
      <trkpt lat="46.37784" lon="-0.36867">
        <ele>34.9377</ele>
        <time>2011-06-02T13:57:15Z</time>
      </trkpt>
      <trkpt lat="46.37784" lon="-0.36866">
        <ele>34.8595</ele>
        <time>2011-06-02T13:57:16Z</time>
      </trkpt>
      <trkpt lat="46.37783" lon="-0.36864">
        <ele>34.7828</ele>
        <time>2011-06-02T13:57:17Z</time>
      </trkpt>
      <trkpt lat="46.37783" lon="-0.36863">
        <ele>34.71</ele>
        <time>2011-06-02T13:57:18Z</time>
      </trkpt>
      <trkpt lat="46.37782" lon="-0.36862">
        <ele>34.642</ele>
        <time>2011-06-02T13:57:19Z</time>
      </trkpt>
      <trkpt lat="46.37781" lon="-0.3686">
        <ele>34.5798</ele>
        <time>2011-06-02T13:57:20Z</time>
      </trkpt>
      <trkpt lat="46.3778" lon="-0.36859">
        <ele>34.5199</ele>
        <time>2011-06-02T13:57:21Z</time>
      </trkpt>
      <trkpt lat="46.37779" lon="-0.36858">
        <ele>34.4613</ele>
        <time>2011-06-02T13:57:22Z</time>
      </trkpt>
      <trkpt lat="46.37779" lon="-0.36857">
        <ele>34.4052</ele>
        <time>2011-06-02T13:57:23Z</time>
      </trkpt>
      <trkpt lat="46.37779" lon="-0.36855">
        <ele>34.3495</ele>
        <time>2011-06-02T13:57:24Z</time>
      </trkpt>
      <trkpt lat="46.37778" lon="-0.36854">
        <ele>34.2953</ele>
        <time>2011-06-02T13:57:25Z</time>
      </trkpt>
      <trkpt lat="46.37778" lon="-0.36852">
        <ele>34.2388</ele>
        <time>2011-06-02T13:57:26Z</time>
      </trkpt>
      <trkpt lat="46.37777" lon="-0.3685">
        <ele>34.1804</ele>
        <time>2011-06-02T13:57:27Z</time>
      </trkpt>
      <trkpt lat="46.37777" lon="-0.36849">
        <ele>34.1246</ele>
        <time>2011-06-02T13:57:28Z</time>
      </trkpt>
      <trkpt lat="46.37777" lon="-0.36848">
        <ele>34.0726</ele>
        <time>2011-06-02T13:57:29Z</time>
      </trkpt>
      <trkpt lat="46.37776" lon="-0.36847">
        <ele>34.0236</ele>
        <time>2011-06-02T13:57:30Z</time>
      </trkpt>
      <trkpt lat="46.37775" lon="-0.36846">
        <ele>33.9761</ele>
        <time>2011-06-02T13:57:31Z</time>
      </trkpt>
      <trkpt lat="46.37775" lon="-0.36844">
        <ele>33.928</ele>
        <time>2011-06-02T13:57:32Z</time>
      </trkpt>
      <trkpt lat="46.37774" lon="-0.36842">
        <ele>33.8801</ele>
        <time>2011-06-02T13:57:33Z</time>
      </trkpt>
      <trkpt lat="46.37774" lon="-0.36841">
        <ele>33.8335</ele>
        <time>2011-06-02T13:57:34Z</time>
      </trkpt>
      <trkpt lat="46.37773" lon="-0.36839">
        <ele>33.7886</ele>
        <time>2011-06-02T13:57:35Z</time>
      </trkpt>
      <trkpt lat="46.37773" lon="-0.36837">
        <ele>33.7446</ele>
        <time>2011-06-02T13:57:36Z</time>
      </trkpt>
      <trkpt lat="46.37773" lon="-0.36836">
        <ele>33.7022</ele>
        <time>2011-06-02T13:57:37Z</time>
      </trkpt>
      <trkpt lat="46.37772" lon="-0.36835">
        <ele>33.6667</ele>
        <time>2011-06-02T13:57:38Z</time>
      </trkpt>
      <trkpt lat="46.37772" lon="-0.36833">
        <ele>33.6324</ele>
        <time>2011-06-02T13:57:39Z</time>
      </trkpt>
      <trkpt lat="46.37771" lon="-0.36832">
        <ele>33.5988</ele>
        <time>2011-06-02T13:57:40Z</time>
      </trkpt>
      <trkpt lat="46.37771" lon="-0.36831">
        <ele>33.5667</ele>
        <time>2011-06-02T13:57:41Z</time>
      </trkpt>
      <trkpt lat="46.37771" lon="-0.36829">
        <ele>33.5328</ele>
        <time>2011-06-02T13:57:42Z</time>
      </trkpt>
      <trkpt lat="46.37771" lon="-0.36828">
        <ele>33.4985</ele>
        <time>2011-06-02T13:57:43Z</time>
      </trkpt>
      <trkpt lat="46.37771" lon="-0.36826">
        <ele>33.4669</ele>
        <time>2011-06-02T13:57:44Z</time>
      </trkpt>
      <trkpt lat="46.37771" lon="-0.36824">
        <ele>33.437</ele>
        <time>2011-06-02T13:57:45Z</time>
      </trkpt>
      <trkpt lat="46.3777" lon="-0.36823">
        <ele>33.4072</ele>
        <time>2011-06-02T13:57:46Z</time>
      </trkpt>
      <trkpt lat="46.3777" lon="-0.36821">
        <ele>33.3679</ele>
        <time>2011-06-02T13:57:47Z</time>
      </trkpt>
      <trkpt lat="46.37769" lon="-0.36819">
        <ele>33.3287</ele>
        <time>2011-06-02T13:57:48Z</time>
      </trkpt>
      <trkpt lat="46.37769" lon="-0.36817">
        <ele>33.29</ele>
        <time>2011-06-02T13:57:49Z</time>
      </trkpt>
      <trkpt lat="46.37769" lon="-0.36816">
        <ele>33.2519</ele>
        <time>2011-06-02T13:57:50Z</time>
      </trkpt>
      <trkpt lat="46.37769" lon="-0.36815">
        <ele>33.2133</ele>
        <time>2011-06-02T13:57:51Z</time>
      </trkpt>
      <trkpt lat="46.37769" lon="-0.36814">
        <ele>33.1754</ele>
        <time>2011-06-02T13:57:52Z</time>
      </trkpt>
      <trkpt lat="46.37769" lon="-0.36812">
        <ele>33.1389</ele>
        <time>2011-06-02T13:57:53Z</time>
      </trkpt>
      <trkpt lat="46.37769" lon="-0.36811">
        <ele>33.1042</ele>
        <time>2011-06-02T13:57:54Z</time>
      </trkpt>
      <trkpt lat="46.3777" lon="-0.3681">
        <ele>33.0736</ele>
        <time>2011-06-02T13:57:55Z</time>
      </trkpt>
      <trkpt lat="46.3777" lon="-0.36808">
        <ele>33.0486</ele>
        <time>2011-06-02T13:57:56Z</time>
      </trkpt>
      <trkpt lat="46.3777" lon="-0.36806">
        <ele>33.0248</ele>
        <time>2011-06-02T13:57:57Z</time>
      </trkpt>
      <trkpt lat="46.3777" lon="-0.36804">
        <ele>33.0024</ele>
        <time>2011-06-02T13:57:58Z</time>
      </trkpt>
      <trkpt lat="46.3777" lon="-0.36802">
        <ele>32.9787</ele>
        <time>2011-06-02T13:57:59Z</time>
      </trkpt>
      <trkpt lat="46.3777" lon="-0.368">
        <ele>32.9585</ele>
        <time>2011-06-02T13:58:00Z</time>
      </trkpt>
      <trkpt lat="46.37771" lon="-0.36799">
        <ele>32.9419</ele>
        <time>2011-06-02T13:58:01Z</time>
      </trkpt>
      <trkpt lat="46.37771" lon="-0.36797">
        <ele>32.9308</ele>
        <time>2011-06-02T13:58:02Z</time>
      </trkpt>
      <trkpt lat="46.37771" lon="-0.36795">
        <ele>32.9205</ele>
        <time>2011-06-02T13:58:03Z</time>
      </trkpt>
      <trkpt lat="46.37772" lon="-0.36793">
        <ele>32.9118</ele>
        <time>2011-06-02T13:58:04Z</time>
      </trkpt>
      <trkpt lat="46.37772" lon="-0.36791">
        <ele>32.9079</ele>
        <time>2011-06-02T13:58:05Z</time>
      </trkpt>
      <trkpt lat="46.37772" lon="-0.36789">
        <ele>32.9067</ele>
        <time>2011-06-02T13:58:06Z</time>
      </trkpt>
      <trkpt lat="46.37773" lon="-0.36787">
        <ele>32.9101</ele>
        <time>2011-06-02T13:58:07Z</time>
      </trkpt>
      <trkpt lat="46.37773" lon="-0.36785">
        <ele>32.914</ele>
        <time>2011-06-02T13:58:08Z</time>
      </trkpt>
      <trkpt lat="46.37773" lon="-0.36783">
        <ele>32.9233</ele>
        <time>2011-06-02T13:58:09Z</time>
      </trkpt>
      <trkpt lat="46.37774" lon="-0.36782">
        <ele>32.9307</ele>
        <time>2011-06-02T13:58:10Z</time>
      </trkpt>
      <trkpt lat="46.37774" lon="-0.3678">
        <ele>32.9373</ele>
        <time>2011-06-02T13:58:11Z</time>
      </trkpt>
      <trkpt lat="46.37774" lon="-0.36779">
        <ele>32.9462</ele>
        <time>2011-06-02T13:58:12Z</time>
      </trkpt>
      <trkpt lat="46.37774" lon="-0.36777">
        <ele>32.9581</ele>
        <time>2011-06-02T13:58:13Z</time>
      </trkpt>
      <trkpt lat="46.37775" lon="-0.36775">
        <ele>32.9703</ele>
        <time>2011-06-02T13:58:14Z</time>
      </trkpt>
      <trkpt lat="46.37775" lon="-0.36773">
        <ele>32.9848</ele>
        <time>2011-06-02T13:58:15Z</time>
      </trkpt>
      <trkpt lat="46.37775" lon="-0.36771">
        <ele>33.0007</ele>
        <time>2011-06-02T13:58:16Z</time>
      </trkpt>
      <trkpt lat="46.37776" lon="-0.3677">
        <ele>33.0181</ele>
        <time>2011-06-02T13:58:17Z</time>
      </trkpt>
      <trkpt lat="46.37776" lon="-0.36768">
        <ele>33.0379</ele>
        <time>2011-06-02T13:58:18Z</time>
      </trkpt>
      <trkpt lat="46.37776" lon="-0.36767">
        <ele>33.0598</ele>
        <time>2011-06-02T13:58:19Z</time>
      </trkpt>
      <trkpt lat="46.37777" lon="-0.36765">
        <ele>33.0831</ele>
        <time>2011-06-02T13:58:20Z</time>
      </trkpt>
      <trkpt lat="46.37777" lon="-0.36764">
        <ele>33.1113</ele>
        <time>2011-06-02T13:58:21Z</time>
      </trkpt>
      <trkpt lat="46.37777" lon="-0.36762">
        <ele>33.1417</ele>
        <time>2011-06-02T13:58:22Z</time>
      </trkpt>
      <trkpt lat="46.37778" lon="-0.3676">
        <ele>33.1687</ele>
        <time>2011-06-02T13:58:23Z</time>
      </trkpt>
      <trkpt lat="46.37778" lon="-0.36759">
        <ele>33.1896</ele>
        <time>2011-06-02T13:58:24Z</time>
      </trkpt>
      <trkpt lat="46.37779" lon="-0.36757">
        <ele>33.2106</ele>
        <time>2011-06-02T13:58:25Z</time>
      </trkpt>
      <trkpt lat="46.37779" lon="-0.36756">
        <ele>33.2352</ele>
        <time>2011-06-02T13:58:26Z</time>
      </trkpt>
      <trkpt lat="46.37779" lon="-0.36755">
        <ele>33.2623</ele>
        <time>2011-06-02T13:58:27Z</time>
      </trkpt>
      <trkpt lat="46.37779" lon="-0.36753">
        <ele>33.2895</ele>
        <time>2011-06-02T13:58:28Z</time>
      </trkpt>
      <trkpt lat="46.37779" lon="-0.36752">
        <ele>33.3167</ele>
        <time>2011-06-02T13:58:29Z</time>
      </trkpt>
      <trkpt lat="46.37779" lon="-0.36751">
        <ele>33.343</ele>
        <time>2011-06-02T13:58:30Z</time>
      </trkpt>
      <trkpt lat="46.3778" lon="-0.36749">
        <ele>33.3745</ele>
        <time>2011-06-02T13:58:31Z</time>
      </trkpt>
      <trkpt lat="46.3778" lon="-0.36748">
        <ele>33.4059</ele>
        <time>2011-06-02T13:58:32Z</time>
      </trkpt>
      <trkpt lat="46.3778" lon="-0.36747">
        <ele>33.437</ele>
        <time>2011-06-02T13:58:33Z</time>
      </trkpt>
      <trkpt lat="46.3778" lon="-0.36746">
        <ele>33.468</ele>
        <time>2011-06-02T13:58:34Z</time>
      </trkpt>
      <trkpt lat="46.37781" lon="-0.36745">
        <ele>33.4985</ele>
        <time>2011-06-02T13:58:35Z</time>
      </trkpt>
      <trkpt lat="46.37781" lon="-0.36744">
        <ele>33.5258</ele>
        <time>2011-06-02T13:58:36Z</time>
      </trkpt>
      <trkpt lat="46.37781" lon="-0.36743">
        <ele>33.5518</ele>
        <time>2011-06-02T13:58:37Z</time>
      </trkpt>
      <trkpt lat="46.37781" lon="-0.36741">
        <ele>33.575</ele>
        <time>2011-06-02T13:58:38Z</time>
      </trkpt>
      <trkpt lat="46.37781" lon="-0.3674">
        <ele>33.5902</ele>
        <time>2011-06-02T13:58:39Z</time>
      </trkpt>
      <trkpt lat="46.37782" lon="-0.36739">
        <ele>33.605</ele>
        <time>2011-06-02T13:58:40Z</time>
      </trkpt>
      <trkpt lat="46.37782" lon="-0.36737">
        <ele>33.6206</ele>
        <time>2011-06-02T13:58:41Z</time>
      </trkpt>
      <trkpt lat="46.37782" lon="-0.36736">
        <ele>33.6357</ele>
        <time>2011-06-02T13:58:42Z</time>
      </trkpt>
      <trkpt lat="46.37782" lon="-0.36735">
        <ele>33.65</ele>
        <time>2011-06-02T13:58:43Z</time>
      </trkpt>
      <trkpt lat="46.37782" lon="-0.36733">
        <ele>33.6622</ele>
        <time>2011-06-02T13:58:44Z</time>
      </trkpt>
      <trkpt lat="46.37782" lon="-0.36732">
        <ele>33.6717</ele>
        <time>2011-06-02T13:58:45Z</time>
      </trkpt>
      <trkpt lat="46.37783" lon="-0.3673">
        <ele>33.6805</ele>
        <time>2011-06-02T13:58:46Z</time>
      </trkpt>
      <trkpt lat="46.37783" lon="-0.36729">
        <ele>33.6893</ele>
        <time>2011-06-02T13:58:47Z</time>
      </trkpt>
      <trkpt lat="46.37784" lon="-0.36727">
        <ele>33.6971</ele>
        <time>2011-06-02T13:58:48Z</time>
      </trkpt>
      <trkpt lat="46.37784" lon="-0.36726">
        <ele>33.7054</ele>
        <time>2011-06-02T13:58:49Z</time>
      </trkpt>
      <trkpt lat="46.37785" lon="-0.36724">
        <ele>33.715</ele>
        <time>2011-06-02T13:58:50Z</time>
      </trkpt>
      <trkpt lat="46.37785" lon="-0.36722">
        <ele>33.7156</ele>
        <time>2011-06-02T13:58:51Z</time>
      </trkpt>
      <trkpt lat="46.37786" lon="-0.36721">
        <ele>33.7055</ele>
        <time>2011-06-02T13:58:52Z</time>
      </trkpt>
      <trkpt lat="46.37787" lon="-0.36719">
        <ele>33.6826</ele>
        <time>2011-06-02T13:58:53Z</time>
      </trkpt>
      <trkpt lat="46.37788" lon="-0.36718">
        <ele>33.6521</ele>
        <time>2011-06-02T13:58:54Z</time>
      </trkpt>
      <trkpt lat="46.37788" lon="-0.36716">
        <ele>33.6216</ele>
        <time>2011-06-02T13:58:55Z</time>
      </trkpt>
      <trkpt lat="46.37789" lon="-0.36715">
        <ele>33.5919</ele>
        <time>2011-06-02T13:58:56Z</time>
      </trkpt>
      <trkpt lat="46.3779" lon="-0.36713">
        <ele>33.561</ele>
        <time>2011-06-02T13:58:57Z</time>
      </trkpt>
      <trkpt lat="46.3779" lon="-0.36712">
        <ele>33.5273</ele>
        <time>2011-06-02T13:58:58Z</time>
      </trkpt>
      <trkpt lat="46.3779" lon="-0.3671">
        <ele>33.4902</ele>
        <time>2011-06-02T13:59:00Z</time>
      </trkpt>
      <trkpt lat="46.37789" lon="-0.36709">
        <ele>33.4551</ele>
        <time>2011-06-02T13:59:01Z</time>
      </trkpt>
      <trkpt lat="46.37789" lon="-0.36708">
        <ele>33.4195</ele>
        <time>2011-06-02T13:59:02Z</time>
      </trkpt>
      <trkpt lat="46.37789" lon="-0.36706">
        <ele>33.3833</ele>
        <time>2011-06-02T13:59:03Z</time>
      </trkpt>
      <trkpt lat="46.3779" lon="-0.36705">
        <ele>33.349</ele>
        <time>2011-06-02T13:59:04Z</time>
      </trkpt>
      <trkpt lat="46.3779" lon="-0.36703">
        <ele>33.3154</ele>
        <time>2011-06-02T13:59:05Z</time>
      </trkpt>
      <trkpt lat="46.3779" lon="-0.36701">
        <ele>33.2842</ele>
        <time>2011-06-02T13:59:06Z</time>
      </trkpt>
      <trkpt lat="46.3779" lon="-0.36699">
        <ele>33.2522</ele>
        <time>2011-06-02T13:59:07Z</time>
      </trkpt>
      <trkpt lat="46.3779" lon="-0.36698">
        <ele>33.2215</ele>
        <time>2011-06-02T13:59:08Z</time>
      </trkpt>
      <trkpt lat="46.3779" lon="-0.36696">
        <ele>33.1908</ele>
        <time>2011-06-02T13:59:09Z</time>
      </trkpt>
      <trkpt lat="46.3779" lon="-0.36695">
        <ele>33.1614</ele>
        <time>2011-06-02T13:59:10Z</time>
      </trkpt>
      <trkpt lat="46.37791" lon="-0.36694">
        <ele>33.1261</ele>
        <time>2011-06-02T13:59:11Z</time>
      </trkpt>
      <trkpt lat="46.37791" lon="-0.36693">
        <ele>33.0898</ele>
        <time>2011-06-02T13:59:12Z</time>
      </trkpt>
      <trkpt lat="46.37791" lon="-0.36691">
        <ele>33.0533</ele>
        <time>2011-06-02T13:59:13Z</time>
      </trkpt>
      <trkpt lat="46.37792" lon="-0.3669">
        <ele>33.0259</ele>
        <time>2011-06-02T13:59:14Z</time>
      </trkpt>
      <trkpt lat="46.37793" lon="-0.36689">
        <ele>32.9962</ele>
        <time>2011-06-02T13:59:15Z</time>
      </trkpt>
      <trkpt lat="46.37793" lon="-0.36688">
        <ele>32.9688</ele>
        <time>2011-06-02T13:59:16Z</time>
      </trkpt>
      <trkpt lat="46.37794" lon="-0.36686">
        <ele>32.9421</ele>
        <time>2011-06-02T13:59:17Z</time>
      </trkpt>
      <trkpt lat="46.37795" lon="-0.36685">
        <ele>32.9149</ele>
        <time>2011-06-02T13:59:18Z</time>
      </trkpt>
      <trkpt lat="46.37795" lon="-0.36684">
        <ele>32.8901</ele>
        <time>2011-06-02T13:59:19Z</time>
      </trkpt>
      <trkpt lat="46.37795" lon="-0.36682">
        <ele>32.8659</ele>
        <time>2011-06-02T13:59:20Z</time>
      </trkpt>
      <trkpt lat="46.37795" lon="-0.36681">
        <ele>32.8437</ele>
        <time>2011-06-02T13:59:21Z</time>
      </trkpt>
      <trkpt lat="46.37796" lon="-0.3668">
        <ele>32.8227</ele>
        <time>2011-06-02T13:59:22Z</time>
      </trkpt>
      <trkpt lat="46.37796" lon="-0.36678">
        <ele>32.8023</ele>
        <time>2011-06-02T13:59:23Z</time>
      </trkpt>
      <trkpt lat="46.37796" lon="-0.36677">
        <ele>32.7786</ele>
        <time>2011-06-02T13:59:24Z</time>
      </trkpt>
      <trkpt lat="46.37797" lon="-0.36676">
        <ele>32.7554</ele>
        <time>2011-06-02T13:59:25Z</time>
      </trkpt>
      <trkpt lat="46.37798" lon="-0.36675">
        <ele>32.7346</ele>
        <time>2011-06-02T13:59:26Z</time>
      </trkpt>
      <trkpt lat="46.37798" lon="-0.36674">
        <ele>32.7098</ele>
        <time>2011-06-02T13:59:27Z</time>
      </trkpt>
      <trkpt lat="46.37798" lon="-0.36672">
        <ele>32.6866</ele>
        <time>2011-06-02T13:59:28Z</time>
      </trkpt>
      <trkpt lat="46.37799" lon="-0.36671">
        <ele>32.6651</ele>
        <time>2011-06-02T13:59:29Z</time>
      </trkpt>
      <trkpt lat="46.37799" lon="-0.3667">
        <ele>32.6481</ele>
        <time>2011-06-02T13:59:30Z</time>
      </trkpt>
      <trkpt lat="46.378" lon="-0.36669">
        <ele>32.633</ele>
        <time>2011-06-02T13:59:31Z</time>
      </trkpt>
      <trkpt lat="46.378" lon="-0.36668">
        <ele>32.6207</ele>
        <time>2011-06-02T13:59:32Z</time>
      </trkpt>
      <trkpt lat="46.378" lon="-0.36664">
        <ele>32.6727</ele>
        <time>2011-06-02T13:59:37Z</time>
      </trkpt>
      <trkpt lat="46.37801" lon="-0.36663">
        <ele>32.6971</ele>
        <time>2011-06-02T13:59:38Z</time>
      </trkpt>
      <trkpt lat="46.37801" lon="-0.36662">
        <ele>32.7204</ele>
        <time>2011-06-02T13:59:39Z</time>
      </trkpt>
      <trkpt lat="46.37802" lon="-0.36661">
        <ele>32.744</ele>
        <time>2011-06-02T13:59:40Z</time>
      </trkpt>
      <trkpt lat="46.37803" lon="-0.3666">
        <ele>32.7704</ele>
        <time>2011-06-02T13:59:41Z</time>
      </trkpt>
      <trkpt lat="46.37803" lon="-0.36658">
        <ele>32.7948</ele>
        <time>2011-06-02T13:59:42Z</time>
      </trkpt>
      <trkpt lat="46.37804" lon="-0.36657">
        <ele>32.8189</ele>
        <time>2011-06-02T13:59:43Z</time>
      </trkpt>
      <trkpt lat="46.37804" lon="-0.36656">
        <ele>32.8409</ele>
        <time>2011-06-02T13:59:44Z</time>
      </trkpt>
      <trkpt lat="46.37805" lon="-0.36654">
        <ele>32.8617</ele>
        <time>2011-06-02T13:59:45Z</time>
      </trkpt>
      <trkpt lat="46.37806" lon="-0.36653">
        <ele>32.886</ele>
        <time>2011-06-02T13:59:46Z</time>
      </trkpt>
      <trkpt lat="46.37806" lon="-0.36652">
        <ele>32.9106</ele>
        <time>2011-06-02T13:59:47Z</time>
      </trkpt>
      <trkpt lat="46.37807" lon="-0.36651">
        <ele>32.9363</ele>
        <time>2011-06-02T13:59:48Z</time>
      </trkpt>
      <trkpt lat="46.37808" lon="-0.36649">
        <ele>32.9628</ele>
        <time>2011-06-02T13:59:49Z</time>
      </trkpt>
      <trkpt lat="46.37808" lon="-0.36648">
        <ele>32.9907</ele>
        <time>2011-06-02T13:59:50Z</time>
      </trkpt>
      <trkpt lat="46.37809" lon="-0.36646">
        <ele>33.0206</ele>
        <time>2011-06-02T13:59:51Z</time>
      </trkpt>
      <trkpt lat="46.3781" lon="-0.36644">
        <ele>33.0508</ele>
        <time>2011-06-02T13:59:52Z</time>
      </trkpt>
      <trkpt lat="46.37811" lon="-0.36643">
        <ele>33.0831</ele>
        <time>2011-06-02T13:59:53Z</time>
      </trkpt>
      <trkpt lat="46.37812" lon="-0.36641">
        <ele>33.1169</ele>
        <time>2011-06-02T13:59:54Z</time>
      </trkpt>
      <trkpt lat="46.37812" lon="-0.36639">
        <ele>33.1494</ele>
        <time>2011-06-02T13:59:55Z</time>
      </trkpt>
      <trkpt lat="46.37813" lon="-0.36637">
        <ele>33.1823</ele>
        <time>2011-06-02T13:59:56Z</time>
      </trkpt>
      <trkpt lat="46.37814" lon="-0.36636">
        <ele>33.2155</ele>
        <time>2011-06-02T13:59:57Z</time>
      </trkpt>
      <trkpt lat="46.37814" lon="-0.36634">
        <ele>33.2494</ele>
        <time>2011-06-02T13:59:58Z</time>
      </trkpt>
      <trkpt lat="46.37815" lon="-0.36633">
        <ele>33.2815</ele>
        <time>2011-06-02T13:59:59Z</time>
      </trkpt>
      <trkpt lat="46.37816" lon="-0.36631">
        <ele>33.3152</ele>
        <time>2011-06-02T14:00:00Z</time>
      </trkpt>
      <trkpt lat="46.37817" lon="-0.3663">
        <ele>33.3498</ele>
        <time>2011-06-02T14:00:01Z</time>
      </trkpt>
      <trkpt lat="46.37817" lon="-0.36628">
        <ele>33.3858</ele>
        <time>2011-06-02T14:00:02Z</time>
      </trkpt>
      <trkpt lat="46.37817" lon="-0.36627">
        <ele>33.4221</ele>
        <time>2011-06-02T14:00:03Z</time>
      </trkpt>
      <trkpt lat="46.37818" lon="-0.36625">
        <ele>33.4639</ele>
        <time>2011-06-02T14:00:04Z</time>
      </trkpt>
      <trkpt lat="46.37819" lon="-0.36624">
        <ele>33.5157</ele>
        <time>2011-06-02T14:00:05Z</time>
      </trkpt>
      <trkpt lat="46.37819" lon="-0.36622">
        <ele>33.5691</ele>
        <time>2011-06-02T14:00:06Z</time>
      </trkpt>
      <trkpt lat="46.3782" lon="-0.3662">
        <ele>33.6219</ele>
        <time>2011-06-02T14:00:07Z</time>
      </trkpt>
      <trkpt lat="46.3782" lon="-0.36618">
        <ele>33.68</ele>
        <time>2011-06-02T14:00:08Z</time>
      </trkpt>
      <trkpt lat="46.3782" lon="-0.36616">
        <ele>33.7401</ele>
        <time>2011-06-02T14:00:09Z</time>
      </trkpt>
      <trkpt lat="46.3782" lon="-0.36614">
        <ele>33.8011</ele>
        <time>2011-06-02T14:00:10Z</time>
      </trkpt>
      <trkpt lat="46.37821" lon="-0.36613">
        <ele>33.8651</ele>
        <time>2011-06-02T14:00:11Z</time>
      </trkpt>
      <trkpt lat="46.37822" lon="-0.36612">
        <ele>33.9318</ele>
        <time>2011-06-02T14:00:12Z</time>
      </trkpt>
      <trkpt lat="46.37822" lon="-0.3661">
        <ele>33.9989</ele>
        <time>2011-06-02T14:00:13Z</time>
      </trkpt>
      <trkpt lat="46.37823" lon="-0.36608">
        <ele>34.0691</ele>
        <time>2011-06-02T14:00:14Z</time>
      </trkpt>
      <trkpt lat="46.37824" lon="-0.36606">
        <ele>34.1398</ele>
        <time>2011-06-02T14:00:15Z</time>
      </trkpt>
      <trkpt lat="46.37824" lon="-0.36604">
        <ele>34.2091</ele>
        <time>2011-06-02T14:00:16Z</time>
      </trkpt>
      <trkpt lat="46.37825" lon="-0.36603">
        <ele>34.2781</ele>
        <time>2011-06-02T14:00:17Z</time>
      </trkpt>
      <trkpt lat="46.37825" lon="-0.36602">
        <ele>34.3466</ele>
        <time>2011-06-02T14:00:18Z</time>
      </trkpt>
      <trkpt lat="46.37826" lon="-0.36601">
        <ele>34.4139</ele>
        <time>2011-06-02T14:00:19Z</time>
      </trkpt>
      <trkpt lat="46.37827" lon="-0.36599">
        <ele>34.4806</ele>
        <time>2011-06-02T14:00:20Z</time>
      </trkpt>
      <trkpt lat="46.37827" lon="-0.36598">
        <ele>34.5506</ele>
        <time>2011-06-02T14:00:21Z</time>
      </trkpt>
      <trkpt lat="46.37828" lon="-0.36596">
        <ele>34.6264</ele>
        <time>2011-06-02T14:00:22Z</time>
      </trkpt>
      <trkpt lat="46.37828" lon="-0.36595">
        <ele>34.7034</ele>
        <time>2011-06-02T14:00:23Z</time>
      </trkpt>
      <trkpt lat="46.37828" lon="-0.36594">
        <ele>34.7796</ele>
        <time>2011-06-02T14:00:24Z</time>
      </trkpt>
      <trkpt lat="46.37828" lon="-0.36593">
        <ele>34.8574</ele>
        <time>2011-06-02T14:00:25Z</time>
      </trkpt>
      <trkpt lat="46.37829" lon="-0.36592">
        <ele>34.9349</ele>
        <time>2011-06-02T14:00:26Z</time>
      </trkpt>
      <trkpt lat="46.37829" lon="-0.36591">
        <ele>35.013</ele>
        <time>2011-06-02T14:00:27Z</time>
      </trkpt>
      <trkpt lat="46.37829" lon="-0.3659">
        <ele>35.1002</ele>
        <time>2011-06-02T14:00:28Z</time>
      </trkpt>
      <trkpt lat="46.37829" lon="-0.36589">
        <ele>35.1852</ele>
        <time>2011-06-02T14:00:29Z</time>
      </trkpt>
      <trkpt lat="46.37827" lon="-0.36584">
        <ele>35.543</ele>
        <time>2011-06-02T14:00:37Z</time>
      </trkpt>
      <trkpt lat="46.37827" lon="-0.36583">
        <ele>35.6801</ele>
        <time>2011-06-02T14:00:38Z</time>
      </trkpt>
      <trkpt lat="46.37827" lon="-0.36582">
        <ele>35.8158</ele>
        <time>2011-06-02T14:00:39Z</time>
      </trkpt>
      <trkpt lat="46.37828" lon="-0.36581">
        <ele>35.9491</ele>
        <time>2011-06-02T14:00:40Z</time>
      </trkpt>
      <trkpt lat="46.37828" lon="-0.3658">
        <ele>36.0812</ele>
        <time>2011-06-02T14:00:41Z</time>
      </trkpt>
      <trkpt lat="46.37829" lon="-0.36579">
        <ele>36.2133</ele>
        <time>2011-06-02T14:00:42Z</time>
      </trkpt>
      <trkpt lat="46.37829" lon="-0.36578">
        <ele>36.3397</ele>
        <time>2011-06-02T14:00:43Z</time>
      </trkpt>
      <trkpt lat="46.3783" lon="-0.36576">
        <ele>36.4607</ele>
        <time>2011-06-02T14:00:44Z</time>
      </trkpt>
      <trkpt lat="46.3783" lon="-0.36576">
        <ele>36.5786</ele>
        <time>2011-06-02T14:00:45Z</time>
      </trkpt>
      <trkpt lat="46.37831" lon="-0.36575">
        <ele>36.6962</ele>
        <time>2011-06-02T14:00:46Z</time>
      </trkpt>
      <trkpt lat="46.37831" lon="-0.36573">
        <ele>36.8143</ele>
        <time>2011-06-02T14:00:47Z</time>
      </trkpt>
      <trkpt lat="46.37832" lon="-0.36572">
        <ele>36.9301</ele>
        <time>2011-06-02T14:00:48Z</time>
      </trkpt>
      <trkpt lat="46.37832" lon="-0.36571">
        <ele>37.0444</ele>
        <time>2011-06-02T14:00:49Z</time>
      </trkpt>
      <trkpt lat="46.37833" lon="-0.3657">
        <ele>37.155</ele>
        <time>2011-06-02T14:00:50Z</time>
      </trkpt>
      <trkpt lat="46.37833" lon="-0.36569">
        <ele>37.2629</ele>
        <time>2011-06-02T14:00:51Z</time>
      </trkpt>
      <trkpt lat="46.37834" lon="-0.36567">
        <ele>37.3703</ele>
        <time>2011-06-02T14:00:52Z</time>
      </trkpt>
      <trkpt lat="46.37834" lon="-0.36566">
        <ele>37.4739</ele>
        <time>2011-06-02T14:00:53Z</time>
      </trkpt>
      <trkpt lat="46.37835" lon="-0.36565">
        <ele>37.5756</ele>
        <time>2011-06-02T14:00:54Z</time>
      </trkpt>
      <trkpt lat="46.37835" lon="-0.36564">
        <ele>37.6755</ele>
        <time>2011-06-02T14:00:55Z</time>
      </trkpt>
      <trkpt lat="46.37836" lon="-0.36563">
        <ele>37.7736</ele>
        <time>2011-06-02T14:00:56Z</time>
      </trkpt>
      <trkpt lat="46.37836" lon="-0.36562">
        <ele>37.87</ele>
        <time>2011-06-02T14:00:57Z</time>
      </trkpt>
      <trkpt lat="46.37837" lon="-0.36561">
        <ele>37.9645</ele>
        <time>2011-06-02T14:00:58Z</time>
      </trkpt>
      <trkpt lat="46.37837" lon="-0.3656">
        <ele>38.0571</ele>
        <time>2011-06-02T14:00:59Z</time>
      </trkpt>
      <trkpt lat="46.37838" lon="-0.36559">
        <ele>38.1478</ele>
        <time>2011-06-02T14:01:00Z</time>
      </trkpt>
      <trkpt lat="46.37838" lon="-0.36558">
        <ele>38.2383</ele>
        <time>2011-06-02T14:01:01Z</time>
      </trkpt>
      <trkpt lat="46.37839" lon="-0.36556">
        <ele>38.3297</ele>
        <time>2011-06-02T14:01:02Z</time>
      </trkpt>
      <trkpt lat="46.37839" lon="-0.36555">
        <ele>38.4254</ele>
        <time>2011-06-02T14:01:03Z</time>
      </trkpt>
      <trkpt lat="46.3784" lon="-0.36554">
        <ele>38.52</ele>
        <time>2011-06-02T14:01:04Z</time>
      </trkpt>
      <trkpt lat="46.3784" lon="-0.36553">
        <ele>38.614</ele>
        <time>2011-06-02T14:01:05Z</time>
      </trkpt>
      <trkpt lat="46.37841" lon="-0.36552">
        <ele>38.7072</ele>
        <time>2011-06-02T14:01:06Z</time>
      </trkpt>
      <trkpt lat="46.37841" lon="-0.3655">
        <ele>38.7996</ele>
        <time>2011-06-02T14:01:07Z</time>
      </trkpt>
      <trkpt lat="46.37841" lon="-0.36549">
        <ele>38.8836</ele>
        <time>2011-06-02T14:01:08Z</time>
      </trkpt>
      <trkpt lat="46.37841" lon="-0.36548">
        <ele>38.963</ele>
        <time>2011-06-02T14:01:09Z</time>
      </trkpt>
      <trkpt lat="46.37842" lon="-0.36546">
        <ele>39.0407</ele>
        <time>2011-06-02T14:01:10Z</time>
      </trkpt>
      <trkpt lat="46.37843" lon="-0.36545">
        <ele>39.1208</ele>
        <time>2011-06-02T14:01:11Z</time>
      </trkpt>
      <trkpt lat="46.37843" lon="-0.36544">
        <ele>39.1995</ele>
        <time>2011-06-02T14:01:12Z</time>
      </trkpt>
      <trkpt lat="46.37843" lon="-0.36543">
        <ele>39.2815</ele>
        <time>2011-06-02T14:01:13Z</time>
      </trkpt>
      <trkpt lat="46.37844" lon="-0.36541">
        <ele>39.3688</ele>
        <time>2011-06-02T14:01:14Z</time>
      </trkpt>
      <trkpt lat="46.37844" lon="-0.36539">
        <ele>39.4609</ele>
        <time>2011-06-02T14:01:15Z</time>
      </trkpt>
      <trkpt lat="46.37845" lon="-0.36538">
        <ele>39.5564</ele>
        <time>2011-06-02T14:01:16Z</time>
      </trkpt>
      <trkpt lat="46.37845" lon="-0.36537">
        <ele>39.6552</ele>
        <time>2011-06-02T14:01:17Z</time>
      </trkpt>
      <trkpt lat="46.37845" lon="-0.36535">
        <ele>39.7531</ele>
        <time>2011-06-02T14:01:18Z</time>
      </trkpt>
      <trkpt lat="46.37845" lon="-0.36533">
        <ele>39.8522</ele>
        <time>2011-06-02T14:01:19Z</time>
      </trkpt>
      <trkpt lat="46.37846" lon="-0.36532">
        <ele>39.9514</ele>
        <time>2011-06-02T14:01:20Z</time>
      </trkpt>
      <trkpt lat="46.37846" lon="-0.3653">
        <ele>40.0487</ele>
        <time>2011-06-02T14:01:21Z</time>
      </trkpt>
      <trkpt lat="46.37847" lon="-0.36529">
        <ele>40.1434</ele>
        <time>2011-06-02T14:01:22Z</time>
      </trkpt>
      <trkpt lat="46.37847" lon="-0.36527">
        <ele>40.2359</ele>
        <time>2011-06-02T14:01:23Z</time>
      </trkpt>
      <trkpt lat="46.37848" lon="-0.36526">
        <ele>40.3281</ele>
        <time>2011-06-02T14:01:24Z</time>
      </trkpt>
      <trkpt lat="46.37848" lon="-0.36524">
        <ele>40.4196</ele>
        <time>2011-06-02T14:01:25Z</time>
      </trkpt>
      <trkpt lat="46.37848" lon="-0.36522">
        <ele>40.5097</ele>
        <time>2011-06-02T14:01:26Z</time>
      </trkpt>
      <trkpt lat="46.37849" lon="-0.3652">
        <ele>40.5996</ele>
        <time>2011-06-02T14:01:27Z</time>
      </trkpt>
      <trkpt lat="46.37849" lon="-0.36519">
        <ele>40.6916</ele>
        <time>2011-06-02T14:01:28Z</time>
      </trkpt>
      <trkpt lat="46.3785" lon="-0.36518">
        <ele>40.786</ele>
        <time>2011-06-02T14:01:29Z</time>
      </trkpt>
      <trkpt lat="46.3785" lon="-0.36517">
        <ele>40.8821</ele>
        <time>2011-06-02T14:01:30Z</time>
      </trkpt>
      <trkpt lat="46.37851" lon="-0.36515">
        <ele>40.9789</ele>
        <time>2011-06-02T14:01:31Z</time>
      </trkpt>
      <trkpt lat="46.37851" lon="-0.36514">
        <ele>41.0747</ele>
        <time>2011-06-02T14:01:32Z</time>
      </trkpt>
      <trkpt lat="46.37851" lon="-0.36513">
        <ele>41.1688</ele>
        <time>2011-06-02T14:01:33Z</time>
      </trkpt>
      <trkpt lat="46.37852" lon="-0.36511">
        <ele>41.2616</ele>
        <time>2011-06-02T14:01:34Z</time>
      </trkpt>
      <trkpt lat="46.37853" lon="-0.3651">
        <ele>41.3516</ele>
        <time>2011-06-02T14:01:35Z</time>
      </trkpt>
      <trkpt lat="46.37853" lon="-0.36509">
        <ele>41.444</ele>
        <time>2011-06-02T14:01:36Z</time>
      </trkpt>
      <trkpt lat="46.37854" lon="-0.36507">
        <ele>41.5355</ele>
        <time>2011-06-02T14:01:37Z</time>
      </trkpt>
      <trkpt lat="46.37854" lon="-0.36505">
        <ele>41.6295</ele>
        <time>2011-06-02T14:01:38Z</time>
      </trkpt>
      <trkpt lat="46.37854" lon="-0.36503">
        <ele>41.7208</ele>
        <time>2011-06-02T14:01:39Z</time>
      </trkpt>
      <trkpt lat="46.37855" lon="-0.36502">
        <ele>41.815</ele>
        <time>2011-06-02T14:01:40Z</time>
      </trkpt>
      <trkpt lat="46.37856" lon="-0.365">
        <ele>41.9192</ele>
        <time>2011-06-02T14:01:41Z</time>
      </trkpt>
      <trkpt lat="46.37856" lon="-0.36499">
        <ele>42.0274</ele>
        <time>2011-06-02T14:01:42Z</time>
      </trkpt>
      <trkpt lat="46.37857" lon="-0.36498">
        <ele>42.1348</ele>
        <time>2011-06-02T14:01:43Z</time>
      </trkpt>
      <trkpt lat="46.37857" lon="-0.36497">
        <ele>42.2408</ele>
        <time>2011-06-02T14:01:44Z</time>
      </trkpt>
      <trkpt lat="46.37858" lon="-0.36496">
        <ele>42.347</ele>
        <time>2011-06-02T14:01:45Z</time>
      </trkpt>
      <trkpt lat="46.37858" lon="-0.36496">
        <ele>42.4538</ele>
        <time>2011-06-02T14:01:46Z</time>
      </trkpt>
      <trkpt lat="46.37858" lon="-0.36496">
        <ele>42.5618</ele>
        <time>2011-06-02T14:01:47Z</time>
      </trkpt>
      <trkpt lat="46.37859" lon="-0.36495">
        <ele>42.667</ele>
        <time>2011-06-02T14:01:48Z</time>
      </trkpt>
      <trkpt lat="46.3786" lon="-0.36494">
        <ele>42.7707</ele>
        <time>2011-06-02T14:01:49Z</time>
      </trkpt>
      <trkpt lat="46.37861" lon="-0.36492">
        <ele>42.8736</ele>
        <time>2011-06-02T14:01:50Z</time>
      </trkpt>
      <trkpt lat="46.37861" lon="-0.36491">
        <ele>42.9745</ele>
        <time>2011-06-02T14:01:51Z</time>
      </trkpt>
      <trkpt lat="46.37862" lon="-0.36489">
        <ele>43.0723</ele>
        <time>2011-06-02T14:01:52Z</time>
      </trkpt>
      <trkpt lat="46.37863" lon="-0.36488">
        <ele>43.1684</ele>
        <time>2011-06-02T14:01:53Z</time>
      </trkpt>
      <trkpt lat="46.37863" lon="-0.36486">
        <ele>43.2638</ele>
        <time>2011-06-02T14:01:54Z</time>
      </trkpt>
      <trkpt lat="46.37864" lon="-0.36485">
        <ele>43.3591</ele>
        <time>2011-06-02T14:01:55Z</time>
      </trkpt>
      <trkpt lat="46.37864" lon="-0.36484">
        <ele>43.4548</ele>
        <time>2011-06-02T14:01:56Z</time>
      </trkpt>
      <trkpt lat="46.37864" lon="-0.36483">
        <ele>43.5513</ele>
        <time>2011-06-02T14:01:57Z</time>
      </trkpt>
      <trkpt lat="46.37864" lon="-0.36482">
        <ele>43.6496</ele>
        <time>2011-06-02T14:01:58Z</time>
      </trkpt>
      <trkpt lat="46.37865" lon="-0.36481">
        <ele>43.7485</ele>
        <time>2011-06-02T14:01:59Z</time>
      </trkpt>
      <trkpt lat="46.37865" lon="-0.3648">
        <ele>43.8485</ele>
        <time>2011-06-02T14:02:00Z</time>
      </trkpt>
      <trkpt lat="46.37865" lon="-0.36479">
        <ele>43.9484</ele>
        <time>2011-06-02T14:02:01Z</time>
      </trkpt>
      <trkpt lat="46.37865" lon="-0.36478">
        <ele>44.0489</ele>
        <time>2011-06-02T14:02:02Z</time>
      </trkpt>
      <trkpt lat="46.37865" lon="-0.36476">
        <ele>44.1491</ele>
        <time>2011-06-02T14:02:03Z</time>
      </trkpt>
      <trkpt lat="46.37865" lon="-0.36475">
        <ele>44.251</ele>
        <time>2011-06-02T14:02:04Z</time>
      </trkpt>
      <trkpt lat="46.37865" lon="-0.36474">
        <ele>44.3524</ele>
        <time>2011-06-02T14:02:05Z</time>
      </trkpt>
      <trkpt lat="46.37866" lon="-0.36472">
        <ele>44.452</ele>
        <time>2011-06-02T14:02:06Z</time>
      </trkpt>
      <trkpt lat="46.37867" lon="-0.36471">
        <ele>44.5512</ele>
        <time>2011-06-02T14:02:07Z</time>
      </trkpt>
      <trkpt lat="46.37867" lon="-0.3647">
        <ele>44.6471</ele>
        <time>2011-06-02T14:02:08Z</time>
      </trkpt>
      <trkpt lat="46.37868" lon="-0.36468">
        <ele>44.7402</ele>
        <time>2011-06-02T14:02:09Z</time>
      </trkpt>
      <trkpt lat="46.37869" lon="-0.36467">
        <ele>44.8315</ele>
        <time>2011-06-02T14:02:10Z</time>
      </trkpt>
      <trkpt lat="46.3787" lon="-0.36466">
        <ele>44.9197</ele>
        <time>2011-06-02T14:02:11Z</time>
      </trkpt>
      <trkpt lat="46.3787" lon="-0.36465">
        <ele>45.0053</ele>
        <time>2011-06-02T14:02:12Z</time>
      </trkpt>
      <trkpt lat="46.37871" lon="-0.36463">
        <ele>45.0893</ele>
        <time>2011-06-02T14:02:13Z</time>
      </trkpt>
      <trkpt lat="46.37871" lon="-0.36463">
        <ele>45.1723</ele>
        <time>2011-06-02T14:02:14Z</time>
      </trkpt>
      <trkpt lat="46.37872" lon="-0.36462">
        <ele>45.272</ele>
        <time>2011-06-02T14:02:17Z</time>
      </trkpt>
      <trkpt lat="46.3787" lon="-0.36462">
        <ele>45.392</ele>
        <time>2011-06-02T14:02:20Z</time>
      </trkpt>
      <trkpt lat="46.3787" lon="-0.36462">
        <ele>45.4931</ele>
        <time>2011-06-02T14:02:21Z</time>
      </trkpt>
      <trkpt lat="46.37869" lon="-0.36463">
        <ele>45.7182</ele>
        <time>2011-06-02T14:02:25Z</time>
      </trkpt>
      <trkpt lat="46.37869" lon="-0.36463">
        <ele>45.8142</ele>
        <time>2011-06-02T14:02:26Z</time>
      </trkpt>
      <trkpt lat="46.37869" lon="-0.36464">
        <ele>45.9104</ele>
        <time>2011-06-02T14:02:27Z</time>
      </trkpt>
      <trkpt lat="46.37869" lon="-0.36465">
        <ele>46.0039</ele>
        <time>2011-06-02T14:02:28Z</time>
      </trkpt>
      <trkpt lat="46.37869" lon="-0.36464">
        <ele>46.095</ele>
        <time>2011-06-02T14:02:29Z</time>
      </trkpt>
      <trkpt lat="46.37869" lon="-0.36464">
        <ele>46.184</ele>
        <time>2011-06-02T14:02:30Z</time>
      </trkpt>
      <trkpt lat="46.37869" lon="-0.36463">
        <ele>46.2762</ele>
        <time>2011-06-02T14:02:31Z</time>
      </trkpt>
      <trkpt lat="46.37869" lon="-0.36463">
        <ele>46.3725</ele>
        <time>2011-06-02T14:02:32Z</time>
      </trkpt>
      <trkpt lat="46.3787" lon="-0.36462">
        <ele>46.468</ele>
        <time>2011-06-02T14:02:33Z</time>
      </trkpt>
      <trkpt lat="46.3787" lon="-0.3646">
        <ele>46.551</ele>
        <time>2011-06-02T14:02:34Z</time>
      </trkpt>
      <trkpt lat="46.37871" lon="-0.36459">
        <ele>46.6278</ele>
        <time>2011-06-02T14:02:35Z</time>
      </trkpt>
      <trkpt lat="46.37872" lon="-0.36457">
        <ele>46.6883</ele>
        <time>2011-06-02T14:02:36Z</time>
      </trkpt>
      <trkpt lat="46.37872" lon="-0.36455">
        <ele>46.7442</ele>
        <time>2011-06-02T14:02:37Z</time>
      </trkpt>
      <trkpt lat="46.37872" lon="-0.36454">
        <ele>46.7978</ele>
        <time>2011-06-02T14:02:38Z</time>
      </trkpt>
      <trkpt lat="46.37872" lon="-0.36453">
        <ele>46.7978</ele>
        <time>2011-06-02T14:02:39Z</time>
      </trkpt>
      <trkpt lat="46.37872" lon="-0.36451">
        <ele>46.8451</ele>
        <time>2011-06-02T14:02:40Z</time>
      </trkpt>
      <trkpt lat="46.37873" lon="-0.36449">
        <ele>46.8885</ele>
        <time>2011-06-02T14:02:41Z</time>
      </trkpt>
      <trkpt lat="46.37874" lon="-0.36447">
        <ele>46.9304</ele>
        <time>2011-06-02T14:02:42Z</time>
      </trkpt>
      <trkpt lat="46.37874" lon="-0.36446">
        <ele>46.9782</ele>
        <time>2011-06-02T14:02:43Z</time>
      </trkpt>
      <trkpt lat="46.37875" lon="-0.36444">
        <ele>47.0304</ele>
        <time>2011-06-02T14:02:44Z</time>
      </trkpt>
      <trkpt lat="46.37875" lon="-0.36443">
        <ele>47.0856</ele>
        <time>2011-06-02T14:02:45Z</time>
      </trkpt>
      <trkpt lat="46.37876" lon="-0.36441">
        <ele>47.1447</ele>
        <time>2011-06-02T14:02:46Z</time>
      </trkpt>
      <trkpt lat="46.37877" lon="-0.3644">
        <ele>47.2099</ele>
        <time>2011-06-02T14:02:47Z</time>
      </trkpt>
      <trkpt lat="46.37877" lon="-0.36439">
        <ele>47.2779</ele>
        <time>2011-06-02T14:02:48Z</time>
      </trkpt>
      <trkpt lat="46.37878" lon="-0.36437">
        <ele>47.3478</ele>
        <time>2011-06-02T14:02:49Z</time>
      </trkpt>
      <trkpt lat="46.37879" lon="-0.36436">
        <ele>47.4188</ele>
        <time>2011-06-02T14:02:50Z</time>
      </trkpt>
      <trkpt lat="46.3788" lon="-0.36435">
        <ele>47.4919</ele>
        <time>2011-06-02T14:02:51Z</time>
      </trkpt>
      <trkpt lat="46.37881" lon="-0.36433">
        <ele>47.563</ele>
        <time>2011-06-02T14:02:52Z</time>
      </trkpt>
      <trkpt lat="46.37881" lon="-0.36431">
        <ele>47.6337</ele>
        <time>2011-06-02T14:02:53Z</time>
      </trkpt>
      <trkpt lat="46.37881" lon="-0.3643">
        <ele>47.7051</ele>
        <time>2011-06-02T14:02:54Z</time>
      </trkpt>
      <trkpt lat="46.37881" lon="-0.36429">
        <ele>47.7716</ele>
        <time>2011-06-02T14:02:55Z</time>
      </trkpt>
      <trkpt lat="46.37881" lon="-0.36428">
        <ele>47.8337</ele>
        <time>2011-06-02T14:02:56Z</time>
      </trkpt>
      <trkpt lat="46.37881" lon="-0.36427">
        <ele>47.8946</ele>
        <time>2011-06-02T14:02:57Z</time>
      </trkpt>
      <trkpt lat="46.37882" lon="-0.36425">
        <ele>47.9546</ele>
        <time>2011-06-02T14:02:58Z</time>
      </trkpt>
      <trkpt lat="46.37882" lon="-0.36424">
        <ele>48.0158</ele>
        <time>2011-06-02T14:02:59Z</time>
      </trkpt>
      <trkpt lat="46.37881" lon="-0.36422">
        <ele>48.0788</ele>
        <time>2011-06-02T14:03:00Z</time>
      </trkpt>
      <trkpt lat="46.37881" lon="-0.3642">
        <ele>48.1417</ele>
        <time>2011-06-02T14:03:01Z</time>
      </trkpt>
      <trkpt lat="46.37881" lon="-0.36418">
        <ele>48.2038</ele>
        <time>2011-06-02T14:03:02Z</time>
      </trkpt>
      <trkpt lat="46.37881" lon="-0.36416">
        <ele>48.2656</ele>
        <time>2011-06-02T14:03:03Z</time>
      </trkpt>
      <trkpt lat="46.37881" lon="-0.36415">
        <ele>48.3258</ele>
        <time>2011-06-02T14:03:04Z</time>
      </trkpt>
      <trkpt lat="46.37881" lon="-0.36413">
        <ele>48.3852</ele>
        <time>2011-06-02T14:03:05Z</time>
      </trkpt>
      <trkpt lat="46.37881" lon="-0.36411">
        <ele>48.4433</ele>
        <time>2011-06-02T14:03:06Z</time>
      </trkpt>
      <trkpt lat="46.37881" lon="-0.3641">
        <ele>48.5</ele>
        <time>2011-06-02T14:03:07Z</time>
      </trkpt>
      <trkpt lat="46.37881" lon="-0.36408">
        <ele>48.5554</ele>
        <time>2011-06-02T14:03:08Z</time>
      </trkpt>
      <trkpt lat="46.3788" lon="-0.36406">
        <ele>48.6122</ele>
        <time>2011-06-02T14:03:09Z</time>
      </trkpt>
      <trkpt lat="46.3788" lon="-0.36405">
        <ele>48.6679</ele>
        <time>2011-06-02T14:03:10Z</time>
      </trkpt>
      <trkpt lat="46.3788" lon="-0.36404">
        <ele>48.7196</ele>
        <time>2011-06-02T14:03:11Z</time>
      </trkpt>
      <trkpt lat="46.3788" lon="-0.36402">
        <ele>48.7691</ele>
        <time>2011-06-02T14:03:12Z</time>
      </trkpt>
      <trkpt lat="46.37879" lon="-0.36401">
        <ele>48.8184</ele>
        <time>2011-06-02T14:03:13Z</time>
      </trkpt>
      <trkpt lat="46.37879" lon="-0.36399">
        <ele>48.8674</ele>
        <time>2011-06-02T14:03:14Z</time>
      </trkpt>
      <trkpt lat="46.37879" lon="-0.36398">
        <ele>48.9157</ele>
        <time>2011-06-02T14:03:15Z</time>
      </trkpt>
      <trkpt lat="46.3788" lon="-0.36396">
        <ele>48.9628</ele>
        <time>2011-06-02T14:03:16Z</time>
      </trkpt>
      <trkpt lat="46.37879" lon="-0.36395">
        <ele>49.0107</ele>
        <time>2011-06-02T14:03:17Z</time>
      </trkpt>
      <trkpt lat="46.37879" lon="-0.36394">
        <ele>49.0573</ele>
        <time>2011-06-02T14:03:18Z</time>
      </trkpt>
      <trkpt lat="46.3788" lon="-0.36392">
        <ele>49.1024</ele>
        <time>2011-06-02T14:03:19Z</time>
      </trkpt>
      <trkpt lat="46.3788" lon="-0.36391">
        <ele>49.1489</ele>
        <time>2011-06-02T14:03:20Z</time>
      </trkpt>
      <trkpt lat="46.3788" lon="-0.36389">
        <ele>49.1957</ele>
        <time>2011-06-02T14:03:21Z</time>
      </trkpt>
      <trkpt lat="46.3788" lon="-0.36387">
        <ele>49.2407</ele>
        <time>2011-06-02T14:03:22Z</time>
      </trkpt>
      <trkpt lat="46.3788" lon="-0.36385">
        <ele>49.2863</ele>
        <time>2011-06-02T14:03:23Z</time>
      </trkpt>
      <trkpt lat="46.3788" lon="-0.36383">
        <ele>49.3318</ele>
        <time>2011-06-02T14:03:24Z</time>
      </trkpt>
      <trkpt lat="46.3788" lon="-0.36382">
        <ele>49.376</ele>
        <time>2011-06-02T14:03:25Z</time>
      </trkpt>
      <trkpt lat="46.3788" lon="-0.3638">
        <ele>49.4192</ele>
        <time>2011-06-02T14:03:26Z</time>
      </trkpt>
      <trkpt lat="46.3788" lon="-0.36378">
        <ele>49.4626</ele>
        <time>2011-06-02T14:03:27Z</time>
      </trkpt>
      <trkpt lat="46.3788" lon="-0.36377">
        <ele>49.5073</ele>
        <time>2011-06-02T14:03:28Z</time>
      </trkpt>
      <trkpt lat="46.3788" lon="-0.36375">
        <ele>49.5494</ele>
        <time>2011-06-02T14:03:29Z</time>
      </trkpt>
      <trkpt lat="46.37881" lon="-0.36374">
        <ele>49.5881</ele>
        <time>2011-06-02T14:03:30Z</time>
      </trkpt>
      <trkpt lat="46.37881" lon="-0.36372">
        <ele>49.6213</ele>
        <time>2011-06-02T14:03:31Z</time>
      </trkpt>
      <trkpt lat="46.3788" lon="-0.3637">
        <ele>49.6552</ele>
        <time>2011-06-02T14:03:32Z</time>
      </trkpt>
      <trkpt lat="46.3788" lon="-0.36368">
        <ele>49.6897</ele>
        <time>2011-06-02T14:03:33Z</time>
      </trkpt>
      <trkpt lat="46.3788" lon="-0.36367">
        <ele>49.7245</ele>
        <time>2011-06-02T14:03:34Z</time>
      </trkpt>
      <trkpt lat="46.3788" lon="-0.36365">
        <ele>49.7591</ele>
        <time>2011-06-02T14:03:35Z</time>
      </trkpt>
      <trkpt lat="46.3788" lon="-0.36363">
        <ele>49.7952</ele>
        <time>2011-06-02T14:03:36Z</time>
      </trkpt>
      <trkpt lat="46.3788" lon="-0.36361">
        <ele>49.8329</ele>
        <time>2011-06-02T14:03:37Z</time>
      </trkpt>
      <trkpt lat="46.3788" lon="-0.3636">
        <ele>49.8743</ele>
        <time>2011-06-02T14:03:38Z</time>
      </trkpt>
      <trkpt lat="46.3788" lon="-0.36359">
        <ele>49.9151</ele>
        <time>2011-06-02T14:03:39Z</time>
      </trkpt>
      <trkpt lat="46.3788" lon="-0.36357">
        <ele>49.9546</ele>
        <time>2011-06-02T14:03:40Z</time>
      </trkpt>
      <trkpt lat="46.3788" lon="-0.36356">
        <ele>49.9945</ele>
        <time>2011-06-02T14:03:41Z</time>
      </trkpt>
      <trkpt lat="46.3788" lon="-0.36354">
        <ele>50.0353</ele>
        <time>2011-06-02T14:03:42Z</time>
      </trkpt>
      <trkpt lat="46.3788" lon="-0.36353">
        <ele>50.0766</ele>
        <time>2011-06-02T14:03:43Z</time>
      </trkpt>
      <trkpt lat="46.3788" lon="-0.36352">
        <ele>50.1201</ele>
        <time>2011-06-02T14:03:44Z</time>
      </trkpt>
      <trkpt lat="46.37881" lon="-0.3635">
        <ele>50.1661</ele>
        <time>2011-06-02T14:03:45Z</time>
      </trkpt>
      <trkpt lat="46.37881" lon="-0.36349">
        <ele>50.2144</ele>
        <time>2011-06-02T14:03:46Z</time>
      </trkpt>
      <trkpt lat="46.37881" lon="-0.36347">
        <ele>50.2635</ele>
        <time>2011-06-02T14:03:47Z</time>
      </trkpt>
      <trkpt lat="46.37881" lon="-0.36346">
        <ele>50.3165</ele>
        <time>2011-06-02T14:03:48Z</time>
      </trkpt>
      <trkpt lat="46.37881" lon="-0.36344">
        <ele>50.374</ele>
        <time>2011-06-02T14:03:49Z</time>
      </trkpt>
      <trkpt lat="46.37881" lon="-0.36342">
        <ele>50.4343</ele>
        <time>2011-06-02T14:03:50Z</time>
      </trkpt>
      <trkpt lat="46.37881" lon="-0.36339">
        <ele>50.4995</ele>
        <time>2011-06-02T14:03:51Z</time>
      </trkpt>
      <trkpt lat="46.37881" lon="-0.36337">
        <ele>50.5665</ele>
        <time>2011-06-02T14:03:52Z</time>
      </trkpt>
      <trkpt lat="46.37881" lon="-0.36336">
        <ele>50.6341</ele>
        <time>2011-06-02T14:03:53Z</time>
      </trkpt>
      <trkpt lat="46.37882" lon="-0.36334">
        <ele>50.7018</ele>
        <time>2011-06-02T14:03:54Z</time>
      </trkpt>
      <trkpt lat="46.37882" lon="-0.36332">
        <ele>50.7721</ele>
        <time>2011-06-02T14:03:55Z</time>
      </trkpt>
      <trkpt lat="46.37882" lon="-0.36331">
        <ele>50.8442</ele>
        <time>2011-06-02T14:03:56Z</time>
      </trkpt>
      <trkpt lat="46.37882" lon="-0.3633">
        <ele>50.9173</ele>
        <time>2011-06-02T14:03:57Z</time>
      </trkpt>
      <trkpt lat="46.37882" lon="-0.36328">
        <ele>50.9924</ele>
        <time>2011-06-02T14:03:58Z</time>
      </trkpt>
      <trkpt lat="46.37881" lon="-0.36327">
        <ele>51.0662</ele>
        <time>2011-06-02T14:03:59Z</time>
      </trkpt>
      <trkpt lat="46.37881" lon="-0.36326">
        <ele>51.1381</ele>
        <time>2011-06-02T14:04:00Z</time>
      </trkpt>
      <trkpt lat="46.3788" lon="-0.36325">
        <ele>51.2124</ele>
        <time>2011-06-02T14:04:01Z</time>
      </trkpt>
      <trkpt lat="46.3788" lon="-0.36323">
        <ele>51.2918</ele>
        <time>2011-06-02T14:04:02Z</time>
      </trkpt>
      <trkpt lat="46.37879" lon="-0.36321">
        <ele>51.3714</ele>
        <time>2011-06-02T14:04:03Z</time>
      </trkpt>
      <trkpt lat="46.37878" lon="-0.3632">
        <ele>51.4502</ele>
        <time>2011-06-02T14:04:04Z</time>
      </trkpt>
      <trkpt lat="46.37878" lon="-0.36318">
        <ele>51.5315</ele>
        <time>2011-06-02T14:04:05Z</time>
      </trkpt>
      <trkpt lat="46.37878" lon="-0.36317">
        <ele>51.6123</ele>
        <time>2011-06-02T14:04:06Z</time>
      </trkpt>
      <trkpt lat="46.37877" lon="-0.36316">
        <ele>51.6928</ele>
        <time>2011-06-02T14:04:07Z</time>
      </trkpt>
      <trkpt lat="46.37877" lon="-0.36315">
        <ele>51.7717</ele>
        <time>2011-06-02T14:04:08Z</time>
      </trkpt>
      <trkpt lat="46.37877" lon="-0.36314">
        <ele>51.8482</ele>
        <time>2011-06-02T14:04:09Z</time>
      </trkpt>
      <trkpt lat="46.37877" lon="-0.36312">
        <ele>51.9257</ele>
        <time>2011-06-02T14:04:10Z</time>
      </trkpt>
      <trkpt lat="46.37876" lon="-0.3631">
        <ele>52.0042</ele>
        <time>2011-06-02T14:04:11Z</time>
      </trkpt>
      <trkpt lat="46.37877" lon="-0.36309">
        <ele>52.0841</ele>
        <time>2011-06-02T14:04:12Z</time>
      </trkpt>
      <trkpt lat="46.37877" lon="-0.36307">
        <ele>52.1626</ele>
        <time>2011-06-02T14:04:13Z</time>
      </trkpt>
      <trkpt lat="46.37877" lon="-0.36306">
        <ele>52.2398</ele>
        <time>2011-06-02T14:04:14Z</time>
      </trkpt>
      <trkpt lat="46.37877" lon="-0.36304">
        <ele>52.316</ele>
        <time>2011-06-02T14:04:15Z</time>
      </trkpt>
      <trkpt lat="46.37877" lon="-0.36303">
        <ele>52.3903</ele>
        <time>2011-06-02T14:04:16Z</time>
      </trkpt>
      <trkpt lat="46.37877" lon="-0.36301">
        <ele>52.464</ele>
        <time>2011-06-02T14:04:17Z</time>
      </trkpt>
      <trkpt lat="46.37877" lon="-0.363">
        <ele>52.5382</ele>
        <time>2011-06-02T14:04:18Z</time>
      </trkpt>
      <trkpt lat="46.37878" lon="-0.36298">
        <ele>52.6121</ele>
        <time>2011-06-02T14:04:19Z</time>
      </trkpt>
      <trkpt lat="46.37878" lon="-0.36296">
        <ele>52.6861</ele>
        <time>2011-06-02T14:04:20Z</time>
      </trkpt>
      <trkpt lat="46.37878" lon="-0.36295">
        <ele>52.76</ele>
        <time>2011-06-02T14:04:21Z</time>
      </trkpt>
      <trkpt lat="46.37878" lon="-0.36293">
        <ele>52.8326</ele>
        <time>2011-06-02T14:04:22Z</time>
      </trkpt>
      <trkpt lat="46.37878" lon="-0.36291">
        <ele>52.904</ele>
        <time>2011-06-02T14:04:23Z</time>
      </trkpt>
      <trkpt lat="46.37878" lon="-0.3629">
        <ele>52.9745</ele>
        <time>2011-06-02T14:04:24Z</time>
      </trkpt>
      <trkpt lat="46.37878" lon="-0.36288">
        <ele>53.0435</ele>
        <time>2011-06-02T14:04:25Z</time>
      </trkpt>
      <trkpt lat="46.37878" lon="-0.36286">
        <ele>53.1127</ele>
        <time>2011-06-02T14:04:26Z</time>
      </trkpt>
      <trkpt lat="46.37879" lon="-0.36284">
        <ele>53.1855</ele>
        <time>2011-06-02T14:04:27Z</time>
      </trkpt>
      <trkpt lat="46.37879" lon="-0.36283">
        <ele>53.2566</ele>
        <time>2011-06-02T14:04:28Z</time>
      </trkpt>
      <trkpt lat="46.37879" lon="-0.36281">
        <ele>53.3266</ele>
        <time>2011-06-02T14:04:29Z</time>
      </trkpt>
      <trkpt lat="46.3788" lon="-0.36279">
        <ele>53.3984</ele>
        <time>2011-06-02T14:04:30Z</time>
      </trkpt>
      <trkpt lat="46.3788" lon="-0.36276">
        <ele>53.4739</ele>
        <time>2011-06-02T14:04:31Z</time>
      </trkpt>
      <trkpt lat="46.3788" lon="-0.36274">
        <ele>53.5493</ele>
        <time>2011-06-02T14:04:32Z</time>
      </trkpt>
      <trkpt lat="46.3788" lon="-0.36273">
        <ele>53.6295</ele>
        <time>2011-06-02T14:04:33Z</time>
      </trkpt>
      <trkpt lat="46.3788" lon="-0.36273">
        <ele>53.7079</ele>
        <time>2011-06-02T14:04:34Z</time>
      </trkpt>
      <trkpt lat="46.37881" lon="-0.36273">
        <ele>53.7838</ele>
        <time>2011-06-02T14:04:35Z</time>
      </trkpt>
      <trkpt lat="46.37881" lon="-0.36272">
        <ele>53.8583</ele>
        <time>2011-06-02T14:04:36Z</time>
      </trkpt>
      <trkpt lat="46.37882" lon="-0.36271">
        <ele>53.9389</ele>
        <time>2011-06-02T14:04:37Z</time>
      </trkpt>
      <trkpt lat="46.37882" lon="-0.36269">
        <ele>54.0185</ele>
        <time>2011-06-02T14:04:38Z</time>
      </trkpt>
      <trkpt lat="46.37883" lon="-0.36267">
        <ele>54.0678</ele>
        <time>2011-06-02T14:04:39Z</time>
      </trkpt>
      <trkpt lat="46.37883" lon="-0.36264">
        <ele>54.1189</ele>
        <time>2011-06-02T14:04:40Z</time>
      </trkpt>
      <trkpt lat="46.37883" lon="-0.36261">
        <ele>54.1869</ele>
        <time>2011-06-02T14:04:41Z</time>
      </trkpt>
      <trkpt lat="46.37884" lon="-0.36258">
        <ele>54.2567</ele>
        <time>2011-06-02T14:04:42Z</time>
      </trkpt>
      <trkpt lat="46.37885" lon="-0.36255">
        <ele>54.3365</ele>
        <time>2011-06-02T14:04:43Z</time>
      </trkpt>
      <trkpt lat="46.37885" lon="-0.36251">
        <ele>54.41</ele>
        <time>2011-06-02T14:04:44Z</time>
      </trkpt>
      <trkpt lat="46.37886" lon="-0.36249">
        <ele>54.4712</ele>
        <time>2011-06-02T14:04:45Z</time>
      </trkpt>
      <trkpt lat="46.37886" lon="-0.36248">
        <ele>54.4928</ele>
        <time>2011-06-02T14:04:46Z</time>
      </trkpt>
      <trkpt lat="46.37887" lon="-0.36247">
        <ele>54.5257</ele>
        <time>2011-06-02T14:04:47Z</time>
      </trkpt>
      <trkpt lat="46.37887" lon="-0.36246">
        <ele>54.5743</ele>
        <time>2011-06-02T14:04:48Z</time>
      </trkpt>
      <trkpt lat="46.37888" lon="-0.36246">
        <ele>54.6155</ele>
        <time>2011-06-02T14:04:49Z</time>
      </trkpt>
      <trkpt lat="46.37888" lon="-0.36245">
        <ele>54.5625</ele>
        <time>2011-06-02T14:04:58Z</time>
      </trkpt>
      <trkpt lat="46.37891" lon="-0.36242">
        <ele>54.6492</ele>
        <time>2011-06-02T14:05:20Z</time>
      </trkpt>
      <trkpt lat="46.37891" lon="-0.36241">
        <ele>54.653</ele>
        <time>2011-06-02T14:05:21Z</time>
      </trkpt>
      <trkpt lat="46.37891" lon="-0.3624">
        <ele>54.675</ele>
        <time>2011-06-02T14:05:22Z</time>
      </trkpt>
      <trkpt lat="46.37891" lon="-0.36239">
        <ele>54.6932</ele>
        <time>2011-06-02T14:05:23Z</time>
      </trkpt>
      <trkpt lat="46.37891" lon="-0.36238">
        <ele>54.7082</ele>
        <time>2011-06-02T14:05:24Z</time>
      </trkpt>
      <trkpt lat="46.37891" lon="-0.36237">
        <ele>54.7398</ele>
        <time>2011-06-02T14:05:25Z</time>
      </trkpt>
      <trkpt lat="46.37891" lon="-0.36236">
        <ele>54.7739</ele>
        <time>2011-06-02T14:05:26Z</time>
      </trkpt>
      <trkpt lat="46.37891" lon="-0.36234">
        <ele>54.8097</ele>
        <time>2011-06-02T14:05:27Z</time>
      </trkpt>
      <trkpt lat="46.37892" lon="-0.36232">
        <ele>54.84</ele>
        <time>2011-06-02T14:05:28Z</time>
      </trkpt>
      <trkpt lat="46.37893" lon="-0.36231">
        <ele>54.8703</ele>
        <time>2011-06-02T14:05:29Z</time>
      </trkpt>
      <trkpt lat="46.37893" lon="-0.3623">
        <ele>54.8967</ele>
        <time>2011-06-02T14:05:30Z</time>
      </trkpt>
      <trkpt lat="46.37893" lon="-0.36229">
        <ele>54.9198</ele>
        <time>2011-06-02T14:05:31Z</time>
      </trkpt>
      <trkpt lat="46.37894" lon="-0.36229">
        <ele>54.9327</ele>
        <time>2011-06-02T14:05:32Z</time>
      </trkpt>
      <trkpt lat="46.37894" lon="-0.36227">
        <ele>54.991</ele>
        <time>2011-06-02T14:05:35Z</time>
      </trkpt>
      <trkpt lat="46.37896" lon="-0.36225">
        <ele>55.0507</ele>
        <time>2011-06-02T14:05:36Z</time>
      </trkpt>
      <trkpt lat="46.37896" lon="-0.36222">
        <ele>55.1105</ele>
        <time>2011-06-02T14:05:37Z</time>
      </trkpt>
      <trkpt lat="46.37897" lon="-0.36221">
        <ele>55.1542</ele>
        <time>2011-06-02T14:05:38Z</time>
      </trkpt>
      <trkpt lat="46.37898" lon="-0.3622">
        <ele>55.1857</ele>
        <time>2011-06-02T14:05:39Z</time>
      </trkpt>
      <trkpt lat="46.37898" lon="-0.36219">
        <ele>55.216</ele>
        <time>2011-06-02T14:05:40Z</time>
      </trkpt>
      <trkpt lat="46.37898" lon="-0.36218">
        <ele>55.2476</ele>
        <time>2011-06-02T14:05:41Z</time>
      </trkpt>
      <trkpt lat="46.37898" lon="-0.36216">
        <ele>55.261</ele>
        <time>2011-06-02T14:05:42Z</time>
      </trkpt>
      <trkpt lat="46.37899" lon="-0.36215">
        <ele>55.2449</ele>
        <time>2011-06-02T14:05:43Z</time>
      </trkpt>
      <trkpt lat="46.379" lon="-0.36213">
        <ele>55.1893</ele>
        <time>2011-06-02T14:05:44Z</time>
      </trkpt>
      <trkpt lat="46.37901" lon="-0.36211">
        <ele>55.1125</ele>
        <time>2011-06-02T14:05:45Z</time>
      </trkpt>
      <trkpt lat="46.37902" lon="-0.36209">
        <ele>55.0207</ele>
        <time>2011-06-02T14:05:46Z</time>
      </trkpt>
      <trkpt lat="46.37903" lon="-0.36208">
        <ele>54.9336</ele>
        <time>2011-06-02T14:05:47Z</time>
      </trkpt>
      <trkpt lat="46.37903" lon="-0.36207">
        <ele>54.8466</ele>
        <time>2011-06-02T14:05:48Z</time>
      </trkpt>
      <trkpt lat="46.37903" lon="-0.36206">
        <ele>54.7641</ele>
        <time>2011-06-02T14:05:49Z</time>
      </trkpt>
      <trkpt lat="46.37903" lon="-0.36205">
        <ele>54.6845</ele>
        <time>2011-06-02T14:05:50Z</time>
      </trkpt>
      <trkpt lat="46.37903" lon="-0.36205">
        <ele>54.5815</ele>
        <time>2011-06-02T14:05:51Z</time>
      </trkpt>
      <trkpt lat="46.37903" lon="-0.36204">
        <ele>54.4842</ele>
        <time>2011-06-02T14:05:52Z</time>
      </trkpt>
      <trkpt lat="46.37904" lon="-0.36203">
        <ele>54.3914</ele>
        <time>2011-06-02T14:05:53Z</time>
      </trkpt>
      <trkpt lat="46.37904" lon="-0.36202">
        <ele>54.3042</ele>
        <time>2011-06-02T14:05:54Z</time>
      </trkpt>
      <trkpt lat="46.37904" lon="-0.362">
        <ele>54.2119</ele>
        <time>2011-06-02T14:05:55Z</time>
      </trkpt>
      <trkpt lat="46.37905" lon="-0.36199">
        <ele>54.1159</ele>
        <time>2011-06-02T14:05:56Z</time>
      </trkpt>
      <trkpt lat="46.37906" lon="-0.36197">
        <ele>54.0188</ele>
        <time>2011-06-02T14:05:57Z</time>
      </trkpt>
      <trkpt lat="46.37906" lon="-0.36194">
        <ele>53.9255</ele>
        <time>2011-06-02T14:05:58Z</time>
      </trkpt>
      <trkpt lat="46.37907" lon="-0.36192">
        <ele>53.8332</ele>
        <time>2011-06-02T14:05:59Z</time>
      </trkpt>
      <trkpt lat="46.37907" lon="-0.3619">
        <ele>53.7397</ele>
        <time>2011-06-02T14:06:00Z</time>
      </trkpt>
      <trkpt lat="46.37908" lon="-0.36189">
        <ele>53.6489</ele>
        <time>2011-06-02T14:06:01Z</time>
      </trkpt>
      <trkpt lat="46.37909" lon="-0.36188">
        <ele>53.5625</ele>
        <time>2011-06-02T14:06:02Z</time>
      </trkpt>
      <trkpt lat="46.37909" lon="-0.36186">
        <ele>53.4759</ele>
        <time>2011-06-02T14:06:03Z</time>
      </trkpt>
      <trkpt lat="46.37909" lon="-0.36185">
        <ele>53.3922</ele>
        <time>2011-06-02T14:06:04Z</time>
      </trkpt>
      <trkpt lat="46.37909" lon="-0.36184">
        <ele>53.3564</ele>
        <time>2011-06-02T14:06:05Z</time>
      </trkpt>
      <trkpt lat="46.3791" lon="-0.36182">
        <ele>53.3249</ele>
        <time>2011-06-02T14:06:06Z</time>
      </trkpt>
      <trkpt lat="46.37911" lon="-0.36179">
        <ele>53.3004</ele>
        <time>2011-06-02T14:06:07Z</time>
      </trkpt>
      <trkpt lat="46.37911" lon="-0.36177">
        <ele>53.2928</ele>
        <time>2011-06-02T14:06:08Z</time>
      </trkpt>
      <trkpt lat="46.37911" lon="-0.36175">
        <ele>53.2852</ele>
        <time>2011-06-02T14:06:09Z</time>
      </trkpt>
      <trkpt lat="46.3791" lon="-0.36173">
        <ele>53.2852</ele>
        <time>2011-06-02T14:06:10Z</time>
      </trkpt>
      <trkpt lat="46.37912" lon="-0.36172">
        <ele>53.2867</ele>
        <time>2011-06-02T14:06:11Z</time>
      </trkpt>
      <trkpt lat="46.37912" lon="-0.36171">
        <ele>53.2875</ele>
        <time>2011-06-02T14:06:12Z</time>
      </trkpt>
      <trkpt lat="46.37913" lon="-0.36172">
        <ele>53.306</ele>
        <time>2011-06-02T14:06:17Z</time>
      </trkpt>
      <trkpt lat="46.37913" lon="-0.36171">
        <ele>53.3236</ele>
        <time>2011-06-02T14:06:18Z</time>
      </trkpt>
      <trkpt lat="46.37914" lon="-0.3617">
        <ele>53.3566</ele>
        <time>2011-06-02T14:06:21Z</time>
      </trkpt>
      <trkpt lat="46.37914" lon="-0.36169">
        <ele>53.367</ele>
        <time>2011-06-02T14:06:24Z</time>
      </trkpt>
      <trkpt lat="46.37915" lon="-0.36167">
        <ele>53.3679</ele>
        <time>2011-06-02T14:06:25Z</time>
      </trkpt>
      <trkpt lat="46.37915" lon="-0.36166">
        <ele>53.3741</ele>
        <time>2011-06-02T14:06:26Z</time>
      </trkpt>
      <trkpt lat="46.37916" lon="-0.36165">
        <ele>53.3702</ele>
        <time>2011-06-02T14:06:27Z</time>
      </trkpt>
      <trkpt lat="46.37917" lon="-0.36163">
        <ele>53.3573</ele>
        <time>2011-06-02T14:06:28Z</time>
      </trkpt>
      <trkpt lat="46.37917" lon="-0.36162">
        <ele>53.3387</ele>
        <time>2011-06-02T14:06:29Z</time>
      </trkpt>
      <trkpt lat="46.37919" lon="-0.3616">
        <ele>53.3127</ele>
        <time>2011-06-02T14:06:30Z</time>
      </trkpt>
      <trkpt lat="46.37919" lon="-0.36159">
        <ele>53.2751</ele>
        <time>2011-06-02T14:06:31Z</time>
      </trkpt>
      <trkpt lat="46.3792" lon="-0.36157">
        <ele>53.2483</ele>
        <time>2011-06-02T14:06:32Z</time>
      </trkpt>
      <trkpt lat="46.3792" lon="-0.36155">
        <ele>53.2201</ele>
        <time>2011-06-02T14:06:33Z</time>
      </trkpt>
      <trkpt lat="46.37921" lon="-0.36153">
        <ele>53.1938</ele>
        <time>2011-06-02T14:06:34Z</time>
      </trkpt>
      <trkpt lat="46.37922" lon="-0.36151">
        <ele>53.1647</ele>
        <time>2011-06-02T14:06:35Z</time>
      </trkpt>
      <trkpt lat="46.37922" lon="-0.36149">
        <ele>53.1382</ele>
        <time>2011-06-02T14:06:36Z</time>
      </trkpt>
      <trkpt lat="46.37922" lon="-0.36148">
        <ele>53.101</ele>
        <time>2011-06-02T14:06:37Z</time>
      </trkpt>
      <trkpt lat="46.37923" lon="-0.36146">
        <ele>53.0496</ele>
        <time>2011-06-02T14:06:38Z</time>
      </trkpt>
      <trkpt lat="46.37923" lon="-0.36145">
        <ele>53.0088</ele>
        <time>2011-06-02T14:06:39Z</time>
      </trkpt>
      <trkpt lat="46.37924" lon="-0.36144">
        <ele>52.9782</ele>
        <time>2011-06-02T14:06:40Z</time>
      </trkpt>
      <trkpt lat="46.37925" lon="-0.36142">
        <ele>52.9407</ele>
        <time>2011-06-02T14:06:41Z</time>
      </trkpt>
      <trkpt lat="46.37925" lon="-0.36141">
        <ele>52.9055</ele>
        <time>2011-06-02T14:06:42Z</time>
      </trkpt>
      <trkpt lat="46.37926" lon="-0.3614">
        <ele>52.8683</ele>
        <time>2011-06-02T14:06:43Z</time>
      </trkpt>
      <trkpt lat="46.37927" lon="-0.36139">
        <ele>52.82</ele>
        <time>2011-06-02T14:06:44Z</time>
      </trkpt>
      <trkpt lat="46.37928" lon="-0.36138">
        <ele>52.7719</ele>
        <time>2011-06-02T14:06:45Z</time>
      </trkpt>
      <trkpt lat="46.37929" lon="-0.36136">
        <ele>52.7201</ele>
        <time>2011-06-02T14:06:46Z</time>
      </trkpt>
      <trkpt lat="46.3793" lon="-0.36135">
        <ele>52.6674</ele>
        <time>2011-06-02T14:06:47Z</time>
      </trkpt>
      <trkpt lat="46.37931" lon="-0.36134">
        <ele>52.6191</ele>
        <time>2011-06-02T14:06:48Z</time>
      </trkpt>
      <trkpt lat="46.37931" lon="-0.36132">
        <ele>52.5598</ele>
        <time>2011-06-02T14:06:49Z</time>
      </trkpt>
      <trkpt lat="46.37932" lon="-0.3613">
        <ele>52.5015</ele>
        <time>2011-06-02T14:06:50Z</time>
      </trkpt>
      <trkpt lat="46.37933" lon="-0.36129">
        <ele>52.4484</ele>
        <time>2011-06-02T14:06:51Z</time>
      </trkpt>
      <trkpt lat="46.37934" lon="-0.36128">
        <ele>52.3997</ele>
        <time>2011-06-02T14:06:52Z</time>
      </trkpt>
      <trkpt lat="46.37935" lon="-0.36127">
        <ele>52.3503</ele>
        <time>2011-06-02T14:06:53Z</time>
      </trkpt>
      <trkpt lat="46.37935" lon="-0.36126">
        <ele>52.3092</ele>
        <time>2011-06-02T14:06:54Z</time>
      </trkpt>
      <trkpt lat="46.37936" lon="-0.36125">
        <ele>52.268</ele>
        <time>2011-06-02T14:06:55Z</time>
      </trkpt>
      <trkpt lat="46.37937" lon="-0.36123">
        <ele>52.2255</ele>
        <time>2011-06-02T14:06:56Z</time>
      </trkpt>
      <trkpt lat="46.37938" lon="-0.36122">
        <ele>52.184</ele>
        <time>2011-06-02T14:06:57Z</time>
      </trkpt>
      <trkpt lat="46.37939" lon="-0.36121">
        <ele>52.1487</ele>
        <time>2011-06-02T14:06:58Z</time>
      </trkpt>
      <trkpt lat="46.3794" lon="-0.3612">
        <ele>52.1183</ele>
        <time>2011-06-02T14:06:59Z</time>
      </trkpt>
      <trkpt lat="46.37941" lon="-0.36119">
        <ele>52.0926</ele>
        <time>2011-06-02T14:07:00Z</time>
      </trkpt>
      <trkpt lat="46.37941" lon="-0.36119">
        <ele>52.0767</ele>
        <time>2011-06-02T14:07:01Z</time>
      </trkpt>
      <trkpt lat="46.37943" lon="-0.36118">
        <ele>52.0708</ele>
        <time>2011-06-02T14:07:02Z</time>
      </trkpt>
      <trkpt lat="46.37943" lon="-0.36117">
        <ele>52.0664</ele>
        <time>2011-06-02T14:07:03Z</time>
      </trkpt>
      <trkpt lat="46.37944" lon="-0.36116">
        <ele>52.0628</ele>
        <time>2011-06-02T14:07:04Z</time>
      </trkpt>
      <trkpt lat="46.37945" lon="-0.36116">
        <ele>52.0605</ele>
        <time>2011-06-02T14:07:05Z</time>
      </trkpt>
      <trkpt lat="46.37946" lon="-0.36115">
        <ele>52.0649</ele>
        <time>2011-06-02T14:07:06Z</time>
      </trkpt>
      <trkpt lat="46.37947" lon="-0.36114">
        <ele>52.0721</ele>
        <time>2011-06-02T14:07:07Z</time>
      </trkpt>
      <trkpt lat="46.37948" lon="-0.36114">
        <ele>52.0829</ele>
        <time>2011-06-02T14:07:09Z</time>
      </trkpt>
      <trkpt lat="46.37948" lon="-0.36113">
        <ele>52.0642</ele>
        <time>2011-06-02T14:07:10Z</time>
      </trkpt>
      <trkpt lat="46.37948" lon="-0.36112">
        <ele>52.0218</ele>
        <time>2011-06-02T14:07:11Z</time>
      </trkpt>
      <trkpt lat="46.37949" lon="-0.36111">
        <ele>51.9276</ele>
        <time>2011-06-02T14:07:15Z</time>
      </trkpt>
      <trkpt lat="46.37949" lon="-0.3611">
        <ele>51.8906</ele>
        <time>2011-06-02T14:07:16Z</time>
      </trkpt>
      <trkpt lat="46.3795" lon="-0.36109">
        <ele>51.8583</ele>
        <time>2011-06-02T14:07:17Z</time>
      </trkpt>
      <trkpt lat="46.37951" lon="-0.36108">
        <ele>51.8275</ele>
        <time>2011-06-02T14:07:18Z</time>
      </trkpt>
      <trkpt lat="46.37952" lon="-0.36108">
        <ele>51.8152</ele>
        <time>2011-06-02T14:07:19Z</time>
      </trkpt>
      <trkpt lat="46.37953" lon="-0.36107">
        <ele>51.8002</ele>
        <time>2011-06-02T14:07:20Z</time>
      </trkpt>
      <trkpt lat="46.37954" lon="-0.36106">
        <ele>51.7949</ele>
        <time>2011-06-02T14:07:21Z</time>
      </trkpt>
      <trkpt lat="46.37955" lon="-0.36106">
        <ele>51.7911</ele>
        <time>2011-06-02T14:07:22Z</time>
      </trkpt>
      <trkpt lat="46.37957" lon="-0.36105">
        <ele>51.7835</ele>
        <time>2011-06-02T14:07:23Z</time>
      </trkpt>
      <trkpt lat="46.37958" lon="-0.36104">
        <ele>51.7741</ele>
        <time>2011-06-02T14:07:24Z</time>
      </trkpt>
      <trkpt lat="46.37959" lon="-0.36103">
        <ele>51.7615</ele>
        <time>2011-06-02T14:07:25Z</time>
      </trkpt>
      <trkpt lat="46.3796" lon="-0.36103">
        <ele>51.756</ele>
        <time>2011-06-02T14:07:26Z</time>
      </trkpt>
      <trkpt lat="46.37962" lon="-0.36102">
        <ele>51.6848</ele>
        <time>2011-06-02T14:07:30Z</time>
      </trkpt>
      <trkpt lat="46.37962" lon="-0.36102">
        <ele>51.6482</ele>
        <time>2011-06-02T14:07:31Z</time>
      </trkpt>
      <trkpt lat="46.37964" lon="-0.36101">
        <ele>51.6336</ele>
        <time>2011-06-02T14:07:32Z</time>
      </trkpt>
      <trkpt lat="46.37965" lon="-0.36099">
        <ele>51.6421</ele>
        <time>2011-06-02T14:07:33Z</time>
      </trkpt>
      <trkpt lat="46.37967" lon="-0.36098">
        <ele>51.6525</ele>
        <time>2011-06-02T14:07:34Z</time>
      </trkpt>
      <trkpt lat="46.37969" lon="-0.36097">
        <ele>51.6682</ele>
        <time>2011-06-02T14:07:35Z</time>
      </trkpt>
      <trkpt lat="46.37971" lon="-0.36096">
        <ele>51.6928</ele>
        <time>2011-06-02T14:07:36Z</time>
      </trkpt>
      <trkpt lat="46.37973" lon="-0.36095">
        <ele>51.7225</ele>
        <time>2011-06-02T14:07:37Z</time>
      </trkpt>
      <trkpt lat="46.37975" lon="-0.36093">
        <ele>51.7543</ele>
        <time>2011-06-02T14:07:38Z</time>
      </trkpt>
      <trkpt lat="46.37976" lon="-0.36092">
        <ele>51.7786</ele>
        <time>2011-06-02T14:07:39Z</time>
      </trkpt>
      <trkpt lat="46.37978" lon="-0.3609">
        <ele>51.805</ele>
        <time>2011-06-02T14:07:40Z</time>
      </trkpt>
      <trkpt lat="46.37979" lon="-0.36089">
        <ele>51.8292</ele>
        <time>2011-06-02T14:07:41Z</time>
      </trkpt>
      <trkpt lat="46.3798" lon="-0.36087">
        <ele>51.8587</ele>
        <time>2011-06-02T14:07:42Z</time>
      </trkpt>
      <trkpt lat="46.3798" lon="-0.36086">
        <ele>51.8957</ele>
        <time>2011-06-02T14:07:43Z</time>
      </trkpt>
      <trkpt lat="46.37981" lon="-0.36086">
        <ele>51.9412</ele>
        <time>2011-06-02T14:07:44Z</time>
      </trkpt>
      <trkpt lat="46.37982" lon="-0.36085">
        <ele>51.9872</ele>
        <time>2011-06-02T14:07:45Z</time>
      </trkpt>
      <trkpt lat="46.37984" lon="-0.36084">
        <ele>52.0406</ele>
        <time>2011-06-02T14:07:46Z</time>
      </trkpt>
      <trkpt lat="46.37985" lon="-0.36083">
        <ele>52.1052</ele>
        <time>2011-06-02T14:07:47Z</time>
      </trkpt>
      <trkpt lat="46.37987" lon="-0.36083">
        <ele>52.1796</ele>
        <time>2011-06-02T14:07:48Z</time>
      </trkpt>
      <trkpt lat="46.37988" lon="-0.36082">
        <ele>52.2612</ele>
        <time>2011-06-02T14:07:49Z</time>
      </trkpt>
      <trkpt lat="46.3799" lon="-0.36081">
        <ele>52.3443</ele>
        <time>2011-06-02T14:07:50Z</time>
      </trkpt>
      <trkpt lat="46.37991" lon="-0.3608">
        <ele>52.4317</ele>
        <time>2011-06-02T14:07:51Z</time>
      </trkpt>
      <trkpt lat="46.37992" lon="-0.3608">
        <ele>52.5198</ele>
        <time>2011-06-02T14:07:52Z</time>
      </trkpt>
      <trkpt lat="46.37993" lon="-0.3608">
        <ele>52.5862</ele>
        <time>2011-06-02T14:07:53Z</time>
      </trkpt>
      <trkpt lat="46.37992" lon="-0.36081">
        <ele>52.6844</ele>
        <time>2011-06-02T14:07:54Z</time>
      </trkpt>
      <trkpt lat="46.37991" lon="-0.36082">
        <ele>52.7219</ele>
        <time>2011-06-02T14:07:55Z</time>
      </trkpt>
      <trkpt lat="46.37991" lon="-0.36083">
        <ele>52.7517</ele>
        <time>2011-06-02T14:07:56Z</time>
      </trkpt>
      <trkpt lat="46.37991" lon="-0.36083">
        <ele>52.7754</ele>
        <time>2011-06-02T14:07:57Z</time>
      </trkpt>
      <trkpt lat="46.37991" lon="-0.36082">
        <ele>52.7864</ele>
        <time>2011-06-02T14:07:58Z</time>
      </trkpt>
      <trkpt lat="46.37992" lon="-0.36082">
        <ele>52.808</ele>
        <time>2011-06-02T14:07:59Z</time>
      </trkpt>
      <trkpt lat="46.37993" lon="-0.36081">
        <ele>52.8339</ele>
        <time>2011-06-02T14:08:00Z</time>
      </trkpt>
      <trkpt lat="46.37994" lon="-0.3608">
        <ele>52.8582</ele>
        <time>2011-06-02T14:08:01Z</time>
      </trkpt>
      <trkpt lat="46.37996" lon="-0.3608">
        <ele>52.8841</ele>
        <time>2011-06-02T14:08:02Z</time>
      </trkpt>
      <trkpt lat="46.37997" lon="-0.3608">
        <ele>52.913</ele>
        <time>2011-06-02T14:08:03Z</time>
      </trkpt>
      <trkpt lat="46.37998" lon="-0.36079">
        <ele>52.9517</ele>
        <time>2011-06-02T14:08:04Z</time>
      </trkpt>
      <trkpt lat="46.38" lon="-0.36078">
        <ele>52.9889</ele>
        <time>2011-06-02T14:08:05Z</time>
      </trkpt>
      <trkpt lat="46.38001" lon="-0.36077">
        <ele>53.0267</ele>
        <time>2011-06-02T14:08:06Z</time>
      </trkpt>
      <trkpt lat="46.38003" lon="-0.36076">
        <ele>53.067</ele>
        <time>2011-06-02T14:08:07Z</time>
      </trkpt>
      <trkpt lat="46.38004" lon="-0.36076">
        <ele>53.1054</ele>
        <time>2011-06-02T14:08:08Z</time>
      </trkpt>
      <trkpt lat="46.38005" lon="-0.36075">
        <ele>53.1449</ele>
        <time>2011-06-02T14:08:09Z</time>
      </trkpt>
      <trkpt lat="46.38007" lon="-0.36074">
        <ele>53.1857</ele>
        <time>2011-06-02T14:08:10Z</time>
      </trkpt>
      <trkpt lat="46.38009" lon="-0.36073">
        <ele>53.2284</ele>
        <time>2011-06-02T14:08:11Z</time>
      </trkpt>
      <trkpt lat="46.3801" lon="-0.36073">
        <ele>53.2693</ele>
        <time>2011-06-02T14:08:12Z</time>
      </trkpt>
      <trkpt lat="46.38011" lon="-0.36072">
        <ele>53.3131</ele>
        <time>2011-06-02T14:08:13Z</time>
      </trkpt>
      <trkpt lat="46.38012" lon="-0.36072">
        <ele>53.3563</ele>
        <time>2011-06-02T14:08:14Z</time>
      </trkpt>
      <trkpt lat="46.38014" lon="-0.36071">
        <ele>53.4015</ele>
        <time>2011-06-02T14:08:15Z</time>
      </trkpt>
      <trkpt lat="46.38015" lon="-0.3607">
        <ele>53.4426</ele>
        <time>2011-06-02T14:08:16Z</time>
      </trkpt>
      <trkpt lat="46.38015" lon="-0.36069">
        <ele>53.4755</ele>
        <time>2011-06-02T14:08:17Z</time>
      </trkpt>
      <trkpt lat="46.38017" lon="-0.36069">
        <ele>53.4943</ele>
        <time>2011-06-02T14:08:18Z</time>
      </trkpt>
      <trkpt lat="46.38018" lon="-0.36068">
        <ele>53.5102</ele>
        <time>2011-06-02T14:08:19Z</time>
      </trkpt>
      <trkpt lat="46.38019" lon="-0.36067">
        <ele>53.5267</ele>
        <time>2011-06-02T14:08:20Z</time>
      </trkpt>
      <trkpt lat="46.3802" lon="-0.36067">
        <ele>53.5424</ele>
        <time>2011-06-02T14:08:21Z</time>
      </trkpt>
      <trkpt lat="46.38021" lon="-0.36066">
        <ele>53.5582</ele>
        <time>2011-06-02T14:08:22Z</time>
      </trkpt>
      <trkpt lat="46.38022" lon="-0.36066">
        <ele>53.5762</ele>
        <time>2011-06-02T14:08:23Z</time>
      </trkpt>
      <trkpt lat="46.38023" lon="-0.36065">
        <ele>53.5946</ele>
        <time>2011-06-02T14:08:24Z</time>
      </trkpt>
      <trkpt lat="46.38024" lon="-0.36064">
        <ele>53.6139</ele>
        <time>2011-06-02T14:08:25Z</time>
      </trkpt>
      <trkpt lat="46.38025" lon="-0.36063">
        <ele>53.6328</ele>
        <time>2011-06-02T14:08:26Z</time>
      </trkpt>
      <trkpt lat="46.38026" lon="-0.36063">
        <ele>53.6521</ele>
        <time>2011-06-02T14:08:27Z</time>
      </trkpt>
      <trkpt lat="46.38027" lon="-0.36062">
        <ele>53.6706</ele>
        <time>2011-06-02T14:08:28Z</time>
      </trkpt>
      <trkpt lat="46.38028" lon="-0.36062">
        <ele>53.6898</ele>
        <time>2011-06-02T14:08:29Z</time>
      </trkpt>
      <trkpt lat="46.38029" lon="-0.36061">
        <ele>53.7106</ele>
        <time>2011-06-02T14:08:30Z</time>
      </trkpt>
      <trkpt lat="46.38031" lon="-0.3606">
        <ele>53.731</ele>
        <time>2011-06-02T14:08:31Z</time>
      </trkpt>
      <trkpt lat="46.38032" lon="-0.36059">
        <ele>53.7503</ele>
        <time>2011-06-02T14:08:32Z</time>
      </trkpt>
      <trkpt lat="46.38033" lon="-0.36058">
        <ele>53.7686</ele>
        <time>2011-06-02T14:08:33Z</time>
      </trkpt>
      <trkpt lat="46.38034" lon="-0.36057">
        <ele>53.7866</ele>
        <time>2011-06-02T14:08:34Z</time>
      </trkpt>
      <trkpt lat="46.38034" lon="-0.36057">
        <ele>53.8036</ele>
        <time>2011-06-02T14:08:35Z</time>
      </trkpt>
      <trkpt lat="46.38034" lon="-0.36056">
        <ele>53.8221</ele>
        <time>2011-06-02T14:08:37Z</time>
      </trkpt>
      <trkpt lat="46.38035" lon="-0.36056">
        <ele>53.8397</ele>
        <time>2011-06-02T14:08:38Z</time>
      </trkpt>
      <trkpt lat="46.38036" lon="-0.36055">
        <ele>53.8578</ele>
        <time>2011-06-02T14:08:39Z</time>
      </trkpt>
      <trkpt lat="46.38037" lon="-0.36054">
        <ele>53.8748</ele>
        <time>2011-06-02T14:08:40Z</time>
      </trkpt>
      <trkpt lat="46.38038" lon="-0.36053">
        <ele>53.8907</ele>
        <time>2011-06-02T14:08:41Z</time>
      </trkpt>
      <trkpt lat="46.38039" lon="-0.36052">
        <ele>53.9071</ele>
        <time>2011-06-02T14:08:42Z</time>
      </trkpt>
      <trkpt lat="46.3804" lon="-0.36052">
        <ele>53.9262</ele>
        <time>2011-06-02T14:08:43Z</time>
      </trkpt>
      <trkpt lat="46.38041" lon="-0.36051">
        <ele>53.9488</ele>
        <time>2011-06-02T14:08:44Z</time>
      </trkpt>
      <trkpt lat="46.38042" lon="-0.36051">
        <ele>53.9714</ele>
        <time>2011-06-02T14:08:45Z</time>
      </trkpt>
      <trkpt lat="46.38043" lon="-0.3605">
        <ele>53.9943</ele>
        <time>2011-06-02T14:08:46Z</time>
      </trkpt>
      <trkpt lat="46.38044" lon="-0.36049">
        <ele>54.0177</ele>
        <time>2011-06-02T14:08:47Z</time>
      </trkpt>
      <trkpt lat="46.38045" lon="-0.36048">
        <ele>54.0408</ele>
        <time>2011-06-02T14:08:48Z</time>
      </trkpt>
      <trkpt lat="46.38046" lon="-0.36048">
        <ele>54.0681</ele>
        <time>2011-06-02T14:08:49Z</time>
      </trkpt>
      <trkpt lat="46.38047" lon="-0.36047">
        <ele>54.0959</ele>
        <time>2011-06-02T14:08:50Z</time>
      </trkpt>
      <trkpt lat="46.38049" lon="-0.36047">
        <ele>54.1278</ele>
        <time>2011-06-02T14:08:51Z</time>
      </trkpt>
      <trkpt lat="46.3805" lon="-0.36047">
        <ele>54.1615</ele>
        <time>2011-06-02T14:08:52Z</time>
      </trkpt>
      <trkpt lat="46.38052" lon="-0.36046">
        <ele>54.2</ele>
        <time>2011-06-02T14:08:53Z</time>
      </trkpt>
      <trkpt lat="46.38053" lon="-0.36046">
        <ele>54.2389</ele>
        <time>2011-06-02T14:08:54Z</time>
      </trkpt>
      <trkpt lat="46.38054" lon="-0.36045">
        <ele>54.2749</ele>
        <time>2011-06-02T14:08:55Z</time>
      </trkpt>
      <trkpt lat="46.38055" lon="-0.36045">
        <ele>54.311</ele>
        <time>2011-06-02T14:08:56Z</time>
      </trkpt>
      <trkpt lat="46.38057" lon="-0.36045">
        <ele>54.3472</ele>
        <time>2011-06-02T14:08:57Z</time>
      </trkpt>
      <trkpt lat="46.38058" lon="-0.36044">
        <ele>54.3843</ele>
        <time>2011-06-02T14:08:58Z</time>
      </trkpt>
      <trkpt lat="46.38059" lon="-0.36043">
        <ele>54.4234</ele>
        <time>2011-06-02T14:08:59Z</time>
      </trkpt>
      <trkpt lat="46.3806" lon="-0.36042">
        <ele>54.4665</ele>
        <time>2011-06-02T14:09:00Z</time>
      </trkpt>
      <trkpt lat="46.38062" lon="-0.36042">
        <ele>54.5142</ele>
        <time>2011-06-02T14:09:01Z</time>
      </trkpt>
      <trkpt lat="46.38063" lon="-0.36041">
        <ele>54.5657</ele>
        <time>2011-06-02T14:09:02Z</time>
      </trkpt>
      <trkpt lat="46.38065" lon="-0.36041">
        <ele>54.621</ele>
        <time>2011-06-02T14:09:03Z</time>
      </trkpt>
      <trkpt lat="46.38066" lon="-0.3604">
        <ele>54.6807</ele>
        <time>2011-06-02T14:09:04Z</time>
      </trkpt>
      <trkpt lat="46.38068" lon="-0.3604">
        <ele>54.7428</ele>
        <time>2011-06-02T14:09:05Z</time>
      </trkpt>
      <trkpt lat="46.38069" lon="-0.36039">
        <ele>54.8082</ele>
        <time>2011-06-02T14:09:06Z</time>
      </trkpt>
      <trkpt lat="46.3807" lon="-0.36038">
        <ele>54.8785</ele>
        <time>2011-06-02T14:09:07Z</time>
      </trkpt>
      <trkpt lat="46.38071" lon="-0.36038">
        <ele>54.9512</ele>
        <time>2011-06-02T14:09:08Z</time>
      </trkpt>
      <trkpt lat="46.38072" lon="-0.36037">
        <ele>55.0257</ele>
        <time>2011-06-02T14:09:09Z</time>
      </trkpt>
      <trkpt lat="46.38073" lon="-0.36036">
        <ele>55.1026</ele>
        <time>2011-06-02T14:09:10Z</time>
      </trkpt>
      <trkpt lat="46.38075" lon="-0.36035">
        <ele>55.1807</ele>
        <time>2011-06-02T14:09:11Z</time>
      </trkpt>
      <trkpt lat="46.38076" lon="-0.36035">
        <ele>55.2602</ele>
        <time>2011-06-02T14:09:12Z</time>
      </trkpt>
      <trkpt lat="46.38076" lon="-0.36034">
        <ele>55.3375</ele>
        <time>2011-06-02T14:09:13Z</time>
      </trkpt>
      <trkpt lat="46.38078" lon="-0.36033">
        <ele>55.4126</ele>
        <time>2011-06-02T14:09:14Z</time>
      </trkpt>
      <trkpt lat="46.38079" lon="-0.36033">
        <ele>55.484</ele>
        <time>2011-06-02T14:09:15Z</time>
      </trkpt>
      <trkpt lat="46.3808" lon="-0.36032">
        <ele>55.5528</ele>
        <time>2011-06-02T14:09:16Z</time>
      </trkpt>
      <trkpt lat="46.38082" lon="-0.36032">
        <ele>55.621</ele>
        <time>2011-06-02T14:09:17Z</time>
      </trkpt>
      <trkpt lat="46.38083" lon="-0.36031">
        <ele>55.688</ele>
        <time>2011-06-02T14:09:18Z</time>
      </trkpt>
      <trkpt lat="46.38084" lon="-0.3603">
        <ele>55.7549</ele>
        <time>2011-06-02T14:09:19Z</time>
      </trkpt>
      <trkpt lat="46.38085" lon="-0.36029">
        <ele>55.8204</ele>
        <time>2011-06-02T14:09:20Z</time>
      </trkpt>
      <trkpt lat="46.38085" lon="-0.36029">
        <ele>55.8927</ele>
        <time>2011-06-02T14:09:22Z</time>
      </trkpt>
      <trkpt lat="46.38086" lon="-0.36029">
        <ele>55.9545</ele>
        <time>2011-06-02T14:09:23Z</time>
      </trkpt>
      <trkpt lat="46.38087" lon="-0.36028">
        <ele>56.0146</ele>
        <time>2011-06-02T14:09:24Z</time>
      </trkpt>
      <trkpt lat="46.38088" lon="-0.36028">
        <ele>56.0726</ele>
        <time>2011-06-02T14:09:25Z</time>
      </trkpt>
      <trkpt lat="46.38089" lon="-0.36027">
        <ele>56.13</ele>
        <time>2011-06-02T14:09:26Z</time>
      </trkpt>
      <trkpt lat="46.38091" lon="-0.36027">
        <ele>56.1877</ele>
        <time>2011-06-02T14:09:27Z</time>
      </trkpt>
      <trkpt lat="46.38091" lon="-0.36026">
        <ele>56.2445</ele>
        <time>2011-06-02T14:09:28Z</time>
      </trkpt>
      <trkpt lat="46.38092" lon="-0.36025">
        <ele>56.3011</ele>
        <time>2011-06-02T14:09:29Z</time>
      </trkpt>
      <trkpt lat="46.38094" lon="-0.36024">
        <ele>56.3614</ele>
        <time>2011-06-02T14:09:30Z</time>
      </trkpt>
      <trkpt lat="46.38095" lon="-0.36022">
        <ele>56.4235</ele>
        <time>2011-06-02T14:09:31Z</time>
      </trkpt>
      <trkpt lat="46.38096" lon="-0.36021">
        <ele>56.4854</ele>
        <time>2011-06-02T14:09:32Z</time>
      </trkpt>
      <trkpt lat="46.38097" lon="-0.36021">
        <ele>56.5444</ele>
        <time>2011-06-02T14:09:33Z</time>
      </trkpt>
      <trkpt lat="46.38099" lon="-0.3602">
        <ele>56.6029</ele>
        <time>2011-06-02T14:09:34Z</time>
      </trkpt>
      <trkpt lat="46.381" lon="-0.36019">
        <ele>56.6606</ele>
        <time>2011-06-02T14:09:35Z</time>
      </trkpt>
      <trkpt lat="46.38101" lon="-0.36018">
        <ele>56.7153</ele>
        <time>2011-06-02T14:09:36Z</time>
      </trkpt>
      <trkpt lat="46.38102" lon="-0.36017">
        <ele>56.7671</ele>
        <time>2011-06-02T14:09:37Z</time>
      </trkpt>
      <trkpt lat="46.38103" lon="-0.36016">
        <ele>56.8169</ele>
        <time>2011-06-02T14:09:38Z</time>
      </trkpt>
      <trkpt lat="46.38104" lon="-0.36015">
        <ele>56.8667</ele>
        <time>2011-06-02T14:09:39Z</time>
      </trkpt>
      <trkpt lat="46.38104" lon="-0.36015">
        <ele>56.9186</ele>
        <time>2011-06-02T14:09:40Z</time>
      </trkpt>
      <trkpt lat="46.38105" lon="-0.36014">
        <ele>56.9728</ele>
        <time>2011-06-02T14:09:41Z</time>
      </trkpt>
      <trkpt lat="46.38106" lon="-0.36013">
        <ele>57.0265</ele>
        <time>2011-06-02T14:09:42Z</time>
      </trkpt>
      <trkpt lat="46.38107" lon="-0.36012">
        <ele>57.0804</ele>
        <time>2011-06-02T14:09:43Z</time>
      </trkpt>
      <trkpt lat="46.38107" lon="-0.36012">
        <ele>57.1353</ele>
        <time>2011-06-02T14:09:44Z</time>
      </trkpt>
      <trkpt lat="46.38107" lon="-0.36011">
        <ele>57.192</ele>
        <time>2011-06-02T14:09:45Z</time>
      </trkpt>
      <trkpt lat="46.38107" lon="-0.36011">
        <ele>57.2454</ele>
        <time>2011-06-02T14:09:46Z</time>
      </trkpt>
      <trkpt lat="46.38108" lon="-0.36009">
        <ele>57.3002</ele>
        <time>2011-06-02T14:09:47Z</time>
      </trkpt>
      <trkpt lat="46.38108" lon="-0.36008">
        <ele>57.3556</ele>
        <time>2011-06-02T14:09:48Z</time>
      </trkpt>
      <trkpt lat="46.3811" lon="-0.36007">
        <ele>57.4139</ele>
        <time>2011-06-02T14:09:49Z</time>
      </trkpt>
      <trkpt lat="46.3811" lon="-0.36006">
        <ele>57.4747</ele>
        <time>2011-06-02T14:09:50Z</time>
      </trkpt>
      <trkpt lat="46.38112" lon="-0.36005">
        <ele>57.5351</ele>
        <time>2011-06-02T14:09:51Z</time>
      </trkpt>
      <trkpt lat="46.38112" lon="-0.36004">
        <ele>57.5985</ele>
        <time>2011-06-02T14:09:52Z</time>
      </trkpt>
      <trkpt lat="46.38113" lon="-0.36002">
        <ele>57.6646</ele>
        <time>2011-06-02T14:09:53Z</time>
      </trkpt>
      <trkpt lat="46.38114" lon="-0.36001">
        <ele>57.7319</ele>
        <time>2011-06-02T14:09:54Z</time>
      </trkpt>
      <trkpt lat="46.38115" lon="-0.36">
        <ele>57.8021</ele>
        <time>2011-06-02T14:09:55Z</time>
      </trkpt>
      <trkpt lat="46.38116" lon="-0.35998">
        <ele>57.8801</ele>
        <time>2011-06-02T14:09:56Z</time>
      </trkpt>
      <trkpt lat="46.38117" lon="-0.35997">
        <ele>57.9684</ele>
        <time>2011-06-02T14:09:57Z</time>
      </trkpt>
      <trkpt lat="46.38118" lon="-0.35996">
        <ele>58.0607</ele>
        <time>2011-06-02T14:09:58Z</time>
      </trkpt>
      <trkpt lat="46.38119" lon="-0.35995">
        <ele>58.1518</ele>
        <time>2011-06-02T14:09:59Z</time>
      </trkpt>
      <trkpt lat="46.3812" lon="-0.35993">
        <ele>58.2428</ele>
        <time>2011-06-02T14:10:00Z</time>
      </trkpt>
      <trkpt lat="46.3812" lon="-0.35992">
        <ele>58.3319</ele>
        <time>2011-06-02T14:10:01Z</time>
      </trkpt>
      <trkpt lat="46.38121" lon="-0.35991">
        <ele>58.4181</ele>
        <time>2011-06-02T14:10:02Z</time>
      </trkpt>
      <trkpt lat="46.38122" lon="-0.35989">
        <ele>58.4975</ele>
        <time>2011-06-02T14:10:03Z</time>
      </trkpt>
      <trkpt lat="46.38123" lon="-0.35988">
        <ele>58.5756</ele>
        <time>2011-06-02T14:10:04Z</time>
      </trkpt>
      <trkpt lat="46.38124" lon="-0.35986">
        <ele>58.6548</ele>
        <time>2011-06-02T14:10:05Z</time>
      </trkpt>
      <trkpt lat="46.38125" lon="-0.35984">
        <ele>58.7352</ele>
        <time>2011-06-02T14:10:06Z</time>
      </trkpt>
      <trkpt lat="46.38126" lon="-0.35983">
        <ele>58.815</ele>
        <time>2011-06-02T14:10:07Z</time>
      </trkpt>
      <trkpt lat="46.38127" lon="-0.35981">
        <ele>58.8937</ele>
        <time>2011-06-02T14:10:08Z</time>
      </trkpt>
      <trkpt lat="46.38128" lon="-0.35979">
        <ele>58.9739</ele>
        <time>2011-06-02T14:10:09Z</time>
      </trkpt>
      <trkpt lat="46.38128" lon="-0.35978">
        <ele>59.0509</ele>
        <time>2011-06-02T14:10:10Z</time>
      </trkpt>
      <trkpt lat="46.38129" lon="-0.35976">
        <ele>59.12</ele>
        <time>2011-06-02T14:10:11Z</time>
      </trkpt>
      <trkpt lat="46.3813" lon="-0.35975">
        <ele>59.1888</ele>
        <time>2011-06-02T14:10:12Z</time>
      </trkpt>
      <trkpt lat="46.3813" lon="-0.35974">
        <ele>59.2563</ele>
        <time>2011-06-02T14:10:13Z</time>
      </trkpt>
      <trkpt lat="46.38131" lon="-0.35973">
        <ele>59.3209</ele>
        <time>2011-06-02T14:10:14Z</time>
      </trkpt>
      <trkpt lat="46.38131" lon="-0.35972">
        <ele>59.3846</ele>
        <time>2011-06-02T14:10:15Z</time>
      </trkpt>
      <trkpt lat="46.38131" lon="-0.3597">
        <ele>59.4506</ele>
        <time>2011-06-02T14:10:16Z</time>
      </trkpt>
      <trkpt lat="46.38133" lon="-0.35968">
        <ele>59.5186</ele>
        <time>2011-06-02T14:10:17Z</time>
      </trkpt>
      <trkpt lat="46.38133" lon="-0.35966">
        <ele>59.5889</ele>
        <time>2011-06-02T14:10:18Z</time>
      </trkpt>
      <trkpt lat="46.38134" lon="-0.35964">
        <ele>59.6626</ele>
        <time>2011-06-02T14:10:19Z</time>
      </trkpt>
      <trkpt lat="46.38134" lon="-0.35962">
        <ele>59.7366</ele>
        <time>2011-06-02T14:10:20Z</time>
      </trkpt>
      <trkpt lat="46.38135" lon="-0.35961">
        <ele>59.8098</ele>
        <time>2011-06-02T14:10:21Z</time>
      </trkpt>
      <trkpt lat="46.38136" lon="-0.3596">
        <ele>59.8815</ele>
        <time>2011-06-02T14:10:22Z</time>
      </trkpt>
      <trkpt lat="46.38136" lon="-0.35959">
        <ele>59.9502</ele>
        <time>2011-06-02T14:10:23Z</time>
      </trkpt>
      <trkpt lat="46.38136" lon="-0.35957">
        <ele>60.0164</ele>
        <time>2011-06-02T14:10:24Z</time>
      </trkpt>
      <trkpt lat="46.38137" lon="-0.35955">
        <ele>60.0791</ele>
        <time>2011-06-02T14:10:25Z</time>
      </trkpt>
      <trkpt lat="46.38138" lon="-0.35953">
        <ele>60.1377</ele>
        <time>2011-06-02T14:10:26Z</time>
      </trkpt>
      <trkpt lat="46.38138" lon="-0.35951">
        <ele>60.1899</ele>
        <time>2011-06-02T14:10:27Z</time>
      </trkpt>
      <trkpt lat="46.38139" lon="-0.3595">
        <ele>60.2395</ele>
        <time>2011-06-02T14:10:28Z</time>
      </trkpt>
      <trkpt lat="46.38139" lon="-0.35948">
        <ele>60.2847</ele>
        <time>2011-06-02T14:10:29Z</time>
      </trkpt>
      <trkpt lat="46.38139" lon="-0.35947">
        <ele>60.3278</ele>
        <time>2011-06-02T14:10:30Z</time>
      </trkpt>
      <trkpt lat="46.3814" lon="-0.35946">
        <ele>60.3636</ele>
        <time>2011-06-02T14:10:31Z</time>
      </trkpt>
      <trkpt lat="46.3814" lon="-0.35944">
        <ele>60.3929</ele>
        <time>2011-06-02T14:10:32Z</time>
      </trkpt>
      <trkpt lat="46.38141" lon="-0.35943">
        <ele>60.416</ele>
        <time>2011-06-02T14:10:33Z</time>
      </trkpt>
      <trkpt lat="46.38141" lon="-0.35942">
        <ele>60.4332</ele>
        <time>2011-06-02T14:10:34Z</time>
      </trkpt>
      <trkpt lat="46.38141" lon="-0.3594">
        <ele>60.4455</ele>
        <time>2011-06-02T14:10:35Z</time>
      </trkpt>
      <trkpt lat="46.38142" lon="-0.35938">
        <ele>60.4546</ele>
        <time>2011-06-02T14:10:36Z</time>
      </trkpt>
      <trkpt lat="46.38142" lon="-0.35937">
        <ele>60.4605</ele>
        <time>2011-06-02T14:10:37Z</time>
      </trkpt>
      <trkpt lat="46.38143" lon="-0.35935">
        <ele>60.4624</ele>
        <time>2011-06-02T14:10:38Z</time>
      </trkpt>
      <trkpt lat="46.38143" lon="-0.35934">
        <ele>60.4603</ele>
        <time>2011-06-02T14:10:39Z</time>
      </trkpt>
      <trkpt lat="46.38144" lon="-0.35932">
        <ele>60.4537</ele>
        <time>2011-06-02T14:10:40Z</time>
      </trkpt>
      <trkpt lat="46.38144" lon="-0.35931">
        <ele>60.4434</ele>
        <time>2011-06-02T14:10:41Z</time>
      </trkpt>
      <trkpt lat="46.38145" lon="-0.35929">
        <ele>60.4333</ele>
        <time>2011-06-02T14:10:42Z</time>
      </trkpt>
      <trkpt lat="46.38145" lon="-0.35928">
        <ele>60.419</ele>
        <time>2011-06-02T14:10:43Z</time>
      </trkpt>
      <trkpt lat="46.38146" lon="-0.35926">
        <ele>60.4014</ele>
        <time>2011-06-02T14:10:44Z</time>
      </trkpt>
      <trkpt lat="46.38146" lon="-0.35924">
        <ele>60.3815</ele>
        <time>2011-06-02T14:10:45Z</time>
      </trkpt>
      <trkpt lat="46.38147" lon="-0.35923">
        <ele>60.3595</ele>
        <time>2011-06-02T14:10:46Z</time>
      </trkpt>
      <trkpt lat="46.38147" lon="-0.35921">
        <ele>60.3349</ele>
        <time>2011-06-02T14:10:47Z</time>
      </trkpt>
      <trkpt lat="46.38147" lon="-0.35919">
        <ele>60.311</ele>
        <time>2011-06-02T14:10:48Z</time>
      </trkpt>
      <trkpt lat="46.38148" lon="-0.35917">
        <ele>60.285</ele>
        <time>2011-06-02T14:10:49Z</time>
      </trkpt>
      <trkpt lat="46.38149" lon="-0.35915">
        <ele>60.2573</ele>
        <time>2011-06-02T14:10:50Z</time>
      </trkpt>
      <trkpt lat="46.38149" lon="-0.35914">
        <ele>60.2301</ele>
        <time>2011-06-02T14:10:51Z</time>
      </trkpt>
      <trkpt lat="46.3815" lon="-0.35912">
        <ele>60.2025</ele>
        <time>2011-06-02T14:10:52Z</time>
      </trkpt>
      <trkpt lat="46.3815" lon="-0.35911">
        <ele>60.1751</ele>
        <time>2011-06-02T14:10:53Z</time>
      </trkpt>
      <trkpt lat="46.38151" lon="-0.35909">
        <ele>60.1474</ele>
        <time>2011-06-02T14:10:54Z</time>
      </trkpt>
      <trkpt lat="46.38151" lon="-0.35907">
        <ele>60.1224</ele>
        <time>2011-06-02T14:10:55Z</time>
      </trkpt>
      <trkpt lat="46.38151" lon="-0.35906">
        <ele>60.0971</ele>
        <time>2011-06-02T14:10:56Z</time>
      </trkpt>
      <trkpt lat="46.38152" lon="-0.35905">
        <ele>60.0727</ele>
        <time>2011-06-02T14:10:57Z</time>
      </trkpt>
      <trkpt lat="46.38152" lon="-0.35904">
        <ele>60.048</ele>
        <time>2011-06-02T14:10:58Z</time>
      </trkpt>
      <trkpt lat="46.38152" lon="-0.35902">
        <ele>60.0233</ele>
        <time>2011-06-02T14:10:59Z</time>
      </trkpt>
      <trkpt lat="46.38153" lon="-0.35901">
        <ele>60.0001</ele>
        <time>2011-06-02T14:11:00Z</time>
      </trkpt>
      <trkpt lat="46.38153" lon="-0.35899">
        <ele>59.9781</ele>
        <time>2011-06-02T14:11:01Z</time>
      </trkpt>
      <trkpt lat="46.38153" lon="-0.35898">
        <ele>59.9581</ele>
        <time>2011-06-02T14:11:02Z</time>
      </trkpt>
      <trkpt lat="46.38153" lon="-0.35896">
        <ele>59.9387</ele>
        <time>2011-06-02T14:11:03Z</time>
      </trkpt>
      <trkpt lat="46.38154" lon="-0.35895">
        <ele>59.9192</ele>
        <time>2011-06-02T14:11:04Z</time>
      </trkpt>
      <trkpt lat="46.38154" lon="-0.35893">
        <ele>59.8988</ele>
        <time>2011-06-02T14:11:05Z</time>
      </trkpt>
      <trkpt lat="46.38154" lon="-0.35892">
        <ele>59.8786</ele>
        <time>2011-06-02T14:11:06Z</time>
      </trkpt>
      <trkpt lat="46.38154" lon="-0.35891">
        <ele>59.8572</ele>
        <time>2011-06-02T14:11:07Z</time>
      </trkpt>
      <trkpt lat="46.38155" lon="-0.35889">
        <ele>59.8349</ele>
        <time>2011-06-02T14:11:08Z</time>
      </trkpt>
      <trkpt lat="46.38155" lon="-0.35888">
        <ele>59.8121</ele>
        <time>2011-06-02T14:11:09Z</time>
      </trkpt>
      <trkpt lat="46.38153" lon="-0.35888">
        <ele>59.8021</ele>
        <time>2011-06-02T14:11:12Z</time>
      </trkpt>
      <trkpt lat="46.38153" lon="-0.35887">
        <ele>59.7925</ele>
        <time>2011-06-02T14:11:13Z</time>
      </trkpt>
      <trkpt lat="46.38153" lon="-0.35885">
        <ele>59.7796</ele>
        <time>2011-06-02T14:11:14Z</time>
      </trkpt>
      <trkpt lat="46.38154" lon="-0.35884">
        <ele>59.7674</ele>
        <time>2011-06-02T14:11:15Z</time>
      </trkpt>
      <trkpt lat="46.38154" lon="-0.35883">
        <ele>59.757</ele>
        <time>2011-06-02T14:11:16Z</time>
      </trkpt>
      <trkpt lat="46.38155" lon="-0.35881">
        <ele>59.7486</ele>
        <time>2011-06-02T14:11:17Z</time>
      </trkpt>
      <trkpt lat="46.38155" lon="-0.3588">
        <ele>59.7423</ele>
        <time>2011-06-02T14:11:18Z</time>
      </trkpt>
      <trkpt lat="46.38156" lon="-0.35879">
        <ele>59.7371</ele>
        <time>2011-06-02T14:11:19Z</time>
      </trkpt>
      <trkpt lat="46.38156" lon="-0.35877">
        <ele>59.7318</ele>
        <time>2011-06-02T14:11:20Z</time>
      </trkpt>
      <trkpt lat="46.38157" lon="-0.35876">
        <ele>59.7242</ele>
        <time>2011-06-02T14:11:21Z</time>
      </trkpt>
      <trkpt lat="46.38157" lon="-0.35875">
        <ele>59.7126</ele>
        <time>2011-06-02T14:11:22Z</time>
      </trkpt>
      <trkpt lat="46.38157" lon="-0.35873">
        <ele>59.6996</ele>
        <time>2011-06-02T14:11:23Z</time>
      </trkpt>
      <trkpt lat="46.38158" lon="-0.35872">
        <ele>59.6858</ele>
        <time>2011-06-02T14:11:24Z</time>
      </trkpt>
      <trkpt lat="46.38158" lon="-0.35871">
        <ele>59.6692</ele>
        <time>2011-06-02T14:11:25Z</time>
      </trkpt>
      <trkpt lat="46.38159" lon="-0.35869">
        <ele>59.6169</ele>
        <time>2011-06-02T14:11:31Z</time>
      </trkpt>
      <trkpt lat="46.38159" lon="-0.35868">
        <ele>59.594</ele>
        <time>2011-06-02T14:11:32Z</time>
      </trkpt>
      <trkpt lat="46.3816" lon="-0.35867">
        <ele>59.5714</ele>
        <time>2011-06-02T14:11:33Z</time>
      </trkpt>
      <trkpt lat="46.3816" lon="-0.35866">
        <ele>59.5504</ele>
        <time>2011-06-02T14:11:34Z</time>
      </trkpt>
      <trkpt lat="46.3816" lon="-0.35865">
        <ele>59.5299</ele>
        <time>2011-06-02T14:11:35Z</time>
      </trkpt>
      <trkpt lat="46.3816" lon="-0.35864">
        <ele>59.5074</ele>
        <time>2011-06-02T14:11:36Z</time>
      </trkpt>
      <trkpt lat="46.38161" lon="-0.35862">
        <ele>59.4858</ele>
        <time>2011-06-02T14:11:37Z</time>
      </trkpt>
      <trkpt lat="46.38162" lon="-0.35861">
        <ele>59.4648</ele>
        <time>2011-06-02T14:11:38Z</time>
      </trkpt>
      <trkpt lat="46.38162" lon="-0.35859">
        <ele>59.4445</ele>
        <time>2011-06-02T14:11:39Z</time>
      </trkpt>
      <trkpt lat="46.38162" lon="-0.35858">
        <ele>59.4245</ele>
        <time>2011-06-02T14:11:40Z</time>
      </trkpt>
      <trkpt lat="46.38163" lon="-0.35856">
        <ele>59.4058</ele>
        <time>2011-06-02T14:11:41Z</time>
      </trkpt>
      <trkpt lat="46.38163" lon="-0.35855">
        <ele>59.3886</ele>
        <time>2011-06-02T14:11:42Z</time>
      </trkpt>
      <trkpt lat="46.38164" lon="-0.35853">
        <ele>59.3718</ele>
        <time>2011-06-02T14:11:43Z</time>
      </trkpt>
      <trkpt lat="46.38164" lon="-0.35851">
        <ele>59.3545</ele>
        <time>2011-06-02T14:11:44Z</time>
      </trkpt>
      <trkpt lat="46.38165" lon="-0.3585">
        <ele>59.3342</ele>
        <time>2011-06-02T14:11:45Z</time>
      </trkpt>
      <trkpt lat="46.38165" lon="-0.35848">
        <ele>59.3108</ele>
        <time>2011-06-02T14:11:46Z</time>
      </trkpt>
      <trkpt lat="46.38165" lon="-0.35846">
        <ele>59.2896</ele>
        <time>2011-06-02T14:11:47Z</time>
      </trkpt>
      <trkpt lat="46.38166" lon="-0.35845">
        <ele>59.2661</ele>
        <time>2011-06-02T14:11:48Z</time>
      </trkpt>
      <trkpt lat="46.38166" lon="-0.35843">
        <ele>59.2445</ele>
        <time>2011-06-02T14:11:49Z</time>
      </trkpt>
      <trkpt lat="46.38167" lon="-0.35841">
        <ele>59.226</ele>
        <time>2011-06-02T14:11:50Z</time>
      </trkpt>
      <trkpt lat="46.38168" lon="-0.3584">
        <ele>59.2083</ele>
        <time>2011-06-02T14:11:51Z</time>
      </trkpt>
      <trkpt lat="46.38168" lon="-0.35838">
        <ele>59.192</ele>
        <time>2011-06-02T14:11:52Z</time>
      </trkpt>
      <trkpt lat="46.38168" lon="-0.35837">
        <ele>59.178</ele>
        <time>2011-06-02T14:11:53Z</time>
      </trkpt>
      <trkpt lat="46.38169" lon="-0.35835">
        <ele>59.1633</ele>
        <time>2011-06-02T14:11:54Z</time>
      </trkpt>
      <trkpt lat="46.3817" lon="-0.35833">
        <ele>59.1511</ele>
        <time>2011-06-02T14:11:55Z</time>
      </trkpt>
      <trkpt lat="46.3817" lon="-0.35831">
        <ele>59.1397</ele>
        <time>2011-06-02T14:11:56Z</time>
      </trkpt>
      <trkpt lat="46.38171" lon="-0.3583">
        <ele>59.1294</ele>
        <time>2011-06-02T14:11:57Z</time>
      </trkpt>
      <trkpt lat="46.38172" lon="-0.35828">
        <ele>59.1201</ele>
        <time>2011-06-02T14:11:58Z</time>
      </trkpt>
      <trkpt lat="46.38173" lon="-0.35826">
        <ele>59.1161</ele>
        <time>2011-06-02T14:11:59Z</time>
      </trkpt>
      <trkpt lat="46.38173" lon="-0.35825">
        <ele>59.1132</ele>
        <time>2011-06-02T14:12:00Z</time>
      </trkpt>
      <trkpt lat="46.38173" lon="-0.35824">
        <ele>59.1113</ele>
        <time>2011-06-02T14:12:01Z</time>
      </trkpt>
      <trkpt lat="46.38174" lon="-0.35823">
        <ele>59.1104</ele>
        <time>2011-06-02T14:12:02Z</time>
      </trkpt>
      <trkpt lat="46.38174" lon="-0.35822">
        <ele>59.1127</ele>
        <time>2011-06-02T14:12:03Z</time>
      </trkpt>
      <trkpt lat="46.38174" lon="-0.3582">
        <ele>59.1191</ele>
        <time>2011-06-02T14:12:04Z</time>
      </trkpt>
      <trkpt lat="46.38174" lon="-0.35819">
        <ele>59.1351</ele>
        <time>2011-06-02T14:12:05Z</time>
      </trkpt>
      <trkpt lat="46.38175" lon="-0.35817">
        <ele>59.153</ele>
        <time>2011-06-02T14:12:06Z</time>
      </trkpt>
      <trkpt lat="46.38175" lon="-0.35816">
        <ele>59.1732</ele>
        <time>2011-06-02T14:12:07Z</time>
      </trkpt>
      <trkpt lat="46.38175" lon="-0.35815">
        <ele>59.1958</ele>
        <time>2011-06-02T14:12:08Z</time>
      </trkpt>
      <trkpt lat="46.38176" lon="-0.35814">
        <ele>59.2166</ele>
        <time>2011-06-02T14:12:09Z</time>
      </trkpt>
      <trkpt lat="46.38176" lon="-0.35813">
        <ele>59.2381</ele>
        <time>2011-06-02T14:12:10Z</time>
      </trkpt>
      <trkpt lat="46.38176" lon="-0.35811">
        <ele>59.2602</ele>
        <time>2011-06-02T14:12:11Z</time>
      </trkpt>
      <trkpt lat="46.38176" lon="-0.3581">
        <ele>59.2812</ele>
        <time>2011-06-02T14:12:12Z</time>
      </trkpt>
      <trkpt lat="46.38176" lon="-0.35808">
        <ele>59.3</ele>
        <time>2011-06-02T14:12:13Z</time>
      </trkpt>
      <trkpt lat="46.38177" lon="-0.35806">
        <ele>59.3124</ele>
        <time>2011-06-02T14:12:14Z</time>
      </trkpt>
      <trkpt lat="46.38178" lon="-0.35804">
        <ele>59.3162</ele>
        <time>2011-06-02T14:12:15Z</time>
      </trkpt>
      <trkpt lat="46.38179" lon="-0.35801">
        <ele>59.3146</ele>
        <time>2011-06-02T14:12:16Z</time>
      </trkpt>
      <trkpt lat="46.3818" lon="-0.358">
        <ele>59.3117</ele>
        <time>2011-06-02T14:12:17Z</time>
      </trkpt>
      <trkpt lat="46.38181" lon="-0.35798">
        <ele>59.3215</ele>
        <time>2011-06-02T14:12:18Z</time>
      </trkpt>
      <trkpt lat="46.38181" lon="-0.35797">
        <ele>59.3428</ele>
        <time>2011-06-02T14:12:19Z</time>
      </trkpt>
      <trkpt lat="46.38181" lon="-0.35796">
        <ele>59.3703</ele>
        <time>2011-06-02T14:12:20Z</time>
      </trkpt>
      <trkpt lat="46.38181" lon="-0.35795">
        <ele>59.4131</ele>
        <time>2011-06-02T14:12:21Z</time>
      </trkpt>
      <trkpt lat="46.38181" lon="-0.35793">
        <ele>59.4669</ele>
        <time>2011-06-02T14:12:22Z</time>
      </trkpt>
      <trkpt lat="46.38181" lon="-0.35792">
        <ele>59.5231</ele>
        <time>2011-06-02T14:12:23Z</time>
      </trkpt>
      <trkpt lat="46.38181" lon="-0.3579">
        <ele>59.5808</ele>
        <time>2011-06-02T14:12:24Z</time>
      </trkpt>
      <trkpt lat="46.38182" lon="-0.35789">
        <ele>59.6447</ele>
        <time>2011-06-02T14:12:25Z</time>
      </trkpt>
      <trkpt lat="46.38182" lon="-0.35787">
        <ele>59.7089</ele>
        <time>2011-06-02T14:12:26Z</time>
      </trkpt>
      <trkpt lat="46.38182" lon="-0.35785">
        <ele>59.7689</ele>
        <time>2011-06-02T14:12:27Z</time>
      </trkpt>
      <trkpt lat="46.38182" lon="-0.35784">
        <ele>59.8308</ele>
        <time>2011-06-02T14:12:28Z</time>
      </trkpt>
      <trkpt lat="46.38182" lon="-0.35782">
        <ele>59.8935</ele>
        <time>2011-06-02T14:12:29Z</time>
      </trkpt>
      <trkpt lat="46.38183" lon="-0.3578">
        <ele>59.948</ele>
        <time>2011-06-02T14:12:30Z</time>
      </trkpt>
      <trkpt lat="46.38183" lon="-0.35779">
        <ele>59.9938</ele>
        <time>2011-06-02T14:12:31Z</time>
      </trkpt>
      <trkpt lat="46.38183" lon="-0.35777">
        <ele>60.0263</ele>
        <time>2011-06-02T14:12:32Z</time>
      </trkpt>
      <trkpt lat="46.38184" lon="-0.35776">
        <ele>60.0564</ele>
        <time>2011-06-02T14:12:33Z</time>
      </trkpt>
      <trkpt lat="46.38184" lon="-0.35774">
        <ele>60.0838</ele>
        <time>2011-06-02T14:12:34Z</time>
      </trkpt>
      <trkpt lat="46.38185" lon="-0.35773">
        <ele>60.1101</ele>
        <time>2011-06-02T14:12:35Z</time>
      </trkpt>
      <trkpt lat="46.38185" lon="-0.35771">
        <ele>60.1361</ele>
        <time>2011-06-02T14:12:36Z</time>
      </trkpt>
      <trkpt lat="46.38186" lon="-0.3577">
        <ele>60.1612</ele>
        <time>2011-06-02T14:12:37Z</time>
      </trkpt>
      <trkpt lat="46.38186" lon="-0.35768">
        <ele>60.1887</ele>
        <time>2011-06-02T14:12:38Z</time>
      </trkpt>
      <trkpt lat="46.38187" lon="-0.35766">
        <ele>60.2148</ele>
        <time>2011-06-02T14:12:39Z</time>
      </trkpt>
      <trkpt lat="46.38187" lon="-0.35765">
        <ele>60.2383</ele>
        <time>2011-06-02T14:12:40Z</time>
      </trkpt>
      <trkpt lat="46.38187" lon="-0.35763">
        <ele>60.2527</ele>
        <time>2011-06-02T14:12:41Z</time>
      </trkpt>
      <trkpt lat="46.38188" lon="-0.35762">
        <ele>60.2559</ele>
        <time>2011-06-02T14:12:42Z</time>
      </trkpt>
      <trkpt lat="46.38189" lon="-0.35761">
        <ele>60.2584</ele>
        <time>2011-06-02T14:12:43Z</time>
      </trkpt>
      <trkpt lat="46.38189" lon="-0.35759">
        <ele>60.2566</ele>
        <time>2011-06-02T14:12:44Z</time>
      </trkpt>
      <trkpt lat="46.38189" lon="-0.35758">
        <ele>60.252</ele>
        <time>2011-06-02T14:12:45Z</time>
      </trkpt>
      <trkpt lat="46.3819" lon="-0.35756">
        <ele>60.2422</ele>
        <time>2011-06-02T14:12:46Z</time>
      </trkpt>
      <trkpt lat="46.38191" lon="-0.35755">
        <ele>60.234</ele>
        <time>2011-06-02T14:12:47Z</time>
      </trkpt>
      <trkpt lat="46.38191" lon="-0.35754">
        <ele>60.2244</ele>
        <time>2011-06-02T14:12:48Z</time>
      </trkpt>
      <trkpt lat="46.38192" lon="-0.35753">
        <ele>60.2055</ele>
        <time>2011-06-02T14:12:49Z</time>
      </trkpt>
      <trkpt lat="46.38192" lon="-0.35751">
        <ele>60.1795</ele>
        <time>2011-06-02T14:12:50Z</time>
      </trkpt>
      <trkpt lat="46.38192" lon="-0.3575">
        <ele>60.1539</ele>
        <time>2011-06-02T14:12:51Z</time>
      </trkpt>
      <trkpt lat="46.38193" lon="-0.35747">
        <ele>60.1292</ele>
        <time>2011-06-02T14:12:52Z</time>
      </trkpt>
      <trkpt lat="46.38194" lon="-0.35744">
        <ele>60.1047</ele>
        <time>2011-06-02T14:12:53Z</time>
      </trkpt>
      <trkpt lat="46.38195" lon="-0.35741">
        <ele>60.0827</ele>
        <time>2011-06-02T14:12:54Z</time>
      </trkpt>
      <trkpt lat="46.38195" lon="-0.3574">
        <ele>60.0638</ele>
        <time>2011-06-02T14:12:55Z</time>
      </trkpt>
      <trkpt lat="46.38195" lon="-0.35739">
        <ele>60.0309</ele>
        <time>2011-06-02T14:12:56Z</time>
      </trkpt>
      <trkpt lat="46.38196" lon="-0.35738">
        <ele>60.0255</ele>
        <time>2011-06-02T14:12:57Z</time>
      </trkpt>
      <trkpt lat="46.38196" lon="-0.35737">
        <ele>60.0013</ele>
        <time>2011-06-02T14:12:58Z</time>
      </trkpt>
      <trkpt lat="46.38195" lon="-0.35737">
        <ele>59.9802</ele>
        <time>2011-06-02T14:12:59Z</time>
      </trkpt>
      <trkpt lat="46.38196" lon="-0.35737">
        <ele>59.9284</ele>
        <time>2011-06-02T14:13:00Z</time>
      </trkpt>
      <trkpt lat="46.38196" lon="-0.35737">
        <ele>59.9732</ele>
        <time>2011-06-02T14:13:01Z</time>
      </trkpt>
      <trkpt lat="46.38196" lon="-0.35738">
        <ele>60.0139</ele>
        <time>2011-06-02T14:13:02Z</time>
      </trkpt>
      <trkpt lat="46.38196" lon="-0.35737">
        <ele>60.0413</ele>
        <time>2011-06-02T14:13:03Z</time>
      </trkpt>
      <trkpt lat="46.38196" lon="-0.35736">
        <ele>60.0608</ele>
        <time>2011-06-02T14:13:04Z</time>
      </trkpt>
      <trkpt lat="46.38196" lon="-0.35735">
        <ele>60.0759</ele>
        <time>2011-06-02T14:13:05Z</time>
      </trkpt>
      <trkpt lat="46.38196" lon="-0.35734">
        <ele>60.0906</ele>
        <time>2011-06-02T14:13:06Z</time>
      </trkpt>
      <trkpt lat="46.38196" lon="-0.35733">
        <ele>60.1068</ele>
        <time>2011-06-02T14:13:07Z</time>
      </trkpt>
      <trkpt lat="46.38196" lon="-0.35731">
        <ele>60.1251</ele>
        <time>2011-06-02T14:13:08Z</time>
      </trkpt>
      <trkpt lat="46.38195" lon="-0.35729">
        <ele>60.1486</ele>
        <time>2011-06-02T14:13:09Z</time>
      </trkpt>
      <trkpt lat="46.38195" lon="-0.35727">
        <ele>60.1631</ele>
        <time>2011-06-02T14:13:10Z</time>
      </trkpt>
      <trkpt lat="46.38195" lon="-0.35726">
        <ele>60.1776</ele>
        <time>2011-06-02T14:13:11Z</time>
      </trkpt>
      <trkpt lat="46.38195" lon="-0.35724">
        <ele>60.1835</ele>
        <time>2011-06-02T14:13:12Z</time>
      </trkpt>
      <trkpt lat="46.38195" lon="-0.35722">
        <ele>60.1911</ele>
        <time>2011-06-02T14:13:13Z</time>
      </trkpt>
      <trkpt lat="46.38195" lon="-0.35721">
        <ele>60.1968</ele>
        <time>2011-06-02T14:13:14Z</time>
      </trkpt>
      <trkpt lat="46.38194" lon="-0.3572">
        <ele>60.1946</ele>
        <time>2011-06-02T14:13:15Z</time>
      </trkpt>
      <trkpt lat="46.38194" lon="-0.35718">
        <ele>60.1895</ele>
        <time>2011-06-02T14:13:16Z</time>
      </trkpt>
      <trkpt lat="46.38195" lon="-0.35716">
        <ele>60.1826</ele>
        <time>2011-06-02T14:13:17Z</time>
      </trkpt>
      <trkpt lat="46.38195" lon="-0.35715">
        <ele>60.1778</ele>
        <time>2011-06-02T14:13:18Z</time>
      </trkpt>
      <trkpt lat="46.38195" lon="-0.35713">
        <ele>60.1735</ele>
        <time>2011-06-02T14:13:19Z</time>
      </trkpt>
      <trkpt lat="46.38195" lon="-0.35711">
        <ele>60.1697</ele>
        <time>2011-06-02T14:13:20Z</time>
      </trkpt>
      <trkpt lat="46.38195" lon="-0.3571">
        <ele>60.1601</ele>
        <time>2011-06-02T14:13:21Z</time>
      </trkpt>
      <trkpt lat="46.38195" lon="-0.35709">
        <ele>60.1611</ele>
        <time>2011-06-02T14:13:22Z</time>
      </trkpt>
      <trkpt lat="46.38195" lon="-0.35708">
        <ele>60.176</ele>
        <time>2011-06-02T14:13:23Z</time>
      </trkpt>
      <trkpt lat="46.38196" lon="-0.35703">
        <ele>60.2376</ele>
        <time>2011-06-02T14:13:30Z</time>
      </trkpt>
      <trkpt lat="46.38196" lon="-0.35702">
        <ele>60.2554</ele>
        <time>2011-06-02T14:13:31Z</time>
      </trkpt>
      <trkpt lat="46.38196" lon="-0.35701">
        <ele>60.2723</ele>
        <time>2011-06-02T14:13:32Z</time>
      </trkpt>
      <trkpt lat="46.38196" lon="-0.357">
        <ele>60.2882</ele>
        <time>2011-06-02T14:13:33Z</time>
      </trkpt>
      <trkpt lat="46.38196" lon="-0.35699">
        <ele>60.3033</ele>
        <time>2011-06-02T14:13:34Z</time>
      </trkpt>
      <trkpt lat="46.38196" lon="-0.35697">
        <ele>60.3186</ele>
        <time>2011-06-02T14:13:35Z</time>
      </trkpt>
      <trkpt lat="46.38196" lon="-0.35696">
        <ele>60.3337</ele>
        <time>2011-06-02T14:13:36Z</time>
      </trkpt>
      <trkpt lat="46.38196" lon="-0.35695">
        <ele>60.3493</ele>
        <time>2011-06-02T14:13:37Z</time>
      </trkpt>
      <trkpt lat="46.38196" lon="-0.35694">
        <ele>60.3646</ele>
        <time>2011-06-02T14:13:38Z</time>
      </trkpt>
      <trkpt lat="46.38196" lon="-0.35693">
        <ele>60.3796</ele>
        <time>2011-06-02T14:13:39Z</time>
      </trkpt>
      <trkpt lat="46.38195" lon="-0.35691">
        <ele>60.3961</ele>
        <time>2011-06-02T14:13:40Z</time>
      </trkpt>
      <trkpt lat="46.38195" lon="-0.3569">
        <ele>60.4127</ele>
        <time>2011-06-02T14:13:41Z</time>
      </trkpt>
      <trkpt lat="46.38195" lon="-0.35689">
        <ele>60.4268</ele>
        <time>2011-06-02T14:13:42Z</time>
      </trkpt>
      <trkpt lat="46.38196" lon="-0.35687">
        <ele>60.4414</ele>
        <time>2011-06-02T14:13:43Z</time>
      </trkpt>
      <trkpt lat="46.38196" lon="-0.35685">
        <ele>60.4554</ele>
        <time>2011-06-02T14:13:44Z</time>
      </trkpt>
      <trkpt lat="46.38196" lon="-0.35683">
        <ele>60.4695</ele>
        <time>2011-06-02T14:13:45Z</time>
      </trkpt>
      <trkpt lat="46.38195" lon="-0.35681">
        <ele>60.4846</ele>
        <time>2011-06-02T14:13:46Z</time>
      </trkpt>
      <trkpt lat="46.38195" lon="-0.3568">
        <ele>60.495</ele>
        <time>2011-06-02T14:13:47Z</time>
      </trkpt>
      <trkpt lat="46.38195" lon="-0.35679">
        <ele>60.4988</ele>
        <time>2011-06-02T14:13:48Z</time>
      </trkpt>
      <trkpt lat="46.38195" lon="-0.35677">
        <ele>60.4984</ele>
        <time>2011-06-02T14:13:49Z</time>
      </trkpt>
      <trkpt lat="46.38195" lon="-0.35676">
        <ele>60.4965</ele>
        <time>2011-06-02T14:13:50Z</time>
      </trkpt>
      <trkpt lat="46.38195" lon="-0.35675">
        <ele>60.4956</ele>
        <time>2011-06-02T14:13:51Z</time>
      </trkpt>
      <trkpt lat="46.38195" lon="-0.35674">
        <ele>60.4937</ele>
        <time>2011-06-02T14:13:52Z</time>
      </trkpt>
      <trkpt lat="46.38195" lon="-0.35673">
        <ele>60.4868</ele>
        <time>2011-06-02T14:13:53Z</time>
      </trkpt>
      <trkpt lat="46.38195" lon="-0.35671">
        <ele>60.47</ele>
        <time>2011-06-02T14:13:54Z</time>
      </trkpt>
      <trkpt lat="46.38195" lon="-0.3567">
        <ele>60.4514</ele>
        <time>2011-06-02T14:13:55Z</time>
      </trkpt>
      <trkpt lat="46.38195" lon="-0.35668">
        <ele>60.4339</ele>
        <time>2011-06-02T14:13:56Z</time>
      </trkpt>
      <trkpt lat="46.38195" lon="-0.35667">
        <ele>60.4169</ele>
        <time>2011-06-02T14:13:57Z</time>
      </trkpt>
      <trkpt lat="46.38195" lon="-0.35665">
        <ele>60.401</ele>
        <time>2011-06-02T14:13:58Z</time>
      </trkpt>
      <trkpt lat="46.38195" lon="-0.35664">
        <ele>60.3864</ele>
        <time>2011-06-02T14:13:59Z</time>
      </trkpt>
      <trkpt lat="46.38195" lon="-0.35663">
        <ele>60.3692</ele>
        <time>2011-06-02T14:14:00Z</time>
      </trkpt>
      <trkpt lat="46.38195" lon="-0.35661">
        <ele>60.3519</ele>
        <time>2011-06-02T14:14:01Z</time>
      </trkpt>
      <trkpt lat="46.38195" lon="-0.3566">
        <ele>60.335</ele>
        <time>2011-06-02T14:14:02Z</time>
      </trkpt>
      <trkpt lat="46.38195" lon="-0.35658">
        <ele>60.3206</ele>
        <time>2011-06-02T14:14:03Z</time>
      </trkpt>
      <trkpt lat="46.38195" lon="-0.35656">
        <ele>60.3069</ele>
        <time>2011-06-02T14:14:04Z</time>
      </trkpt>
      <trkpt lat="46.38195" lon="-0.35654">
        <ele>60.2924</ele>
        <time>2011-06-02T14:14:05Z</time>
      </trkpt>
      <trkpt lat="46.38195" lon="-0.35653">
        <ele>60.2779</ele>
        <time>2011-06-02T14:14:06Z</time>
      </trkpt>
      <trkpt lat="46.38194" lon="-0.35652">
        <ele>60.2611</ele>
        <time>2011-06-02T14:14:07Z</time>
      </trkpt>
      <trkpt lat="46.38194" lon="-0.35651">
        <ele>60.2454</ele>
        <time>2011-06-02T14:14:08Z</time>
      </trkpt>
      <trkpt lat="46.38194" lon="-0.3565">
        <ele>60.2313</ele>
        <time>2011-06-02T14:14:09Z</time>
      </trkpt>
      <trkpt lat="46.38194" lon="-0.35648">
        <ele>60.2181</ele>
        <time>2011-06-02T14:14:10Z</time>
      </trkpt>
      <trkpt lat="46.38194" lon="-0.35647">
        <ele>60.2061</ele>
        <time>2011-06-02T14:14:11Z</time>
      </trkpt>
      <trkpt lat="46.38194" lon="-0.35645">
        <ele>60.1941</ele>
        <time>2011-06-02T14:14:12Z</time>
      </trkpt>
      <trkpt lat="46.38194" lon="-0.35644">
        <ele>60.1822</ele>
        <time>2011-06-02T14:14:13Z</time>
      </trkpt>
      <trkpt lat="46.38194" lon="-0.35642">
        <ele>60.1694</ele>
        <time>2011-06-02T14:14:14Z</time>
      </trkpt>
      <trkpt lat="46.38194" lon="-0.3564">
        <ele>60.1579</ele>
        <time>2011-06-02T14:14:15Z</time>
      </trkpt>
      <trkpt lat="46.38194" lon="-0.35638">
        <ele>60.1469</ele>
        <time>2011-06-02T14:14:16Z</time>
      </trkpt>
      <trkpt lat="46.38195" lon="-0.35636">
        <ele>60.138</ele>
        <time>2011-06-02T14:14:17Z</time>
      </trkpt>
      <trkpt lat="46.38195" lon="-0.35634">
        <ele>60.1336</ele>
        <time>2011-06-02T14:14:18Z</time>
      </trkpt>
      <trkpt lat="46.38195" lon="-0.35632">
        <ele>60.132</ele>
        <time>2011-06-02T14:14:19Z</time>
      </trkpt>
      <trkpt lat="46.38195" lon="-0.3563">
        <ele>60.133</ele>
        <time>2011-06-02T14:14:20Z</time>
      </trkpt>
      <trkpt lat="46.38195" lon="-0.35629">
        <ele>60.134</ele>
        <time>2011-06-02T14:14:21Z</time>
      </trkpt>
      <trkpt lat="46.38196" lon="-0.35627">
        <ele>60.1394</ele>
        <time>2011-06-02T14:14:22Z</time>
      </trkpt>
      <trkpt lat="46.38196" lon="-0.35625">
        <ele>60.1492</ele>
        <time>2011-06-02T14:14:23Z</time>
      </trkpt>
      <trkpt lat="46.38196" lon="-0.35623">
        <ele>60.1593</ele>
        <time>2011-06-02T14:14:24Z</time>
      </trkpt>
      <trkpt lat="46.38197" lon="-0.35622">
        <ele>60.1671</ele>
        <time>2011-06-02T14:14:25Z</time>
      </trkpt>
      <trkpt lat="46.38197" lon="-0.3562">
        <ele>60.1766</ele>
        <time>2011-06-02T14:14:26Z</time>
      </trkpt>
      <trkpt lat="46.38197" lon="-0.35619">
        <ele>60.1872</ele>
        <time>2011-06-02T14:14:27Z</time>
      </trkpt>
      <trkpt lat="46.38197" lon="-0.35617">
        <ele>60.1987</ele>
        <time>2011-06-02T14:14:28Z</time>
      </trkpt>
      <trkpt lat="46.38196" lon="-0.35616">
        <ele>60.2097</ele>
        <time>2011-06-02T14:14:29Z</time>
      </trkpt>
      <trkpt lat="46.38197" lon="-0.35615">
        <ele>60.2188</ele>
        <time>2011-06-02T14:14:30Z</time>
      </trkpt>
      <trkpt lat="46.38196" lon="-0.35614">
        <ele>60.2294</ele>
        <time>2011-06-02T14:14:31Z</time>
      </trkpt>
      <trkpt lat="46.38196" lon="-0.35613">
        <ele>60.2368</ele>
        <time>2011-06-02T14:14:32Z</time>
      </trkpt>
      <trkpt lat="46.38196" lon="-0.35613">
        <ele>60.2441</ele>
        <time>2011-06-02T14:14:33Z</time>
      </trkpt>
      <trkpt lat="46.38196" lon="-0.35611">
        <ele>60.2529</ele>
        <time>2011-06-02T14:14:34Z</time>
      </trkpt>
      <trkpt lat="46.38196" lon="-0.3561">
        <ele>60.262</ele>
        <time>2011-06-02T14:14:35Z</time>
      </trkpt>
      <trkpt lat="46.38195" lon="-0.35609">
        <ele>60.2694</ele>
        <time>2011-06-02T14:14:36Z</time>
      </trkpt>
      <trkpt lat="46.38196" lon="-0.35608">
        <ele>60.2739</ele>
        <time>2011-06-02T14:14:37Z</time>
      </trkpt>
      <trkpt lat="46.38195" lon="-0.35607">
        <ele>60.2786</ele>
        <time>2011-06-02T14:14:38Z</time>
      </trkpt>
      <trkpt lat="46.38195" lon="-0.35605">
        <ele>60.2842</ele>
        <time>2011-06-02T14:14:39Z</time>
      </trkpt>
      <trkpt lat="46.38195" lon="-0.35603">
        <ele>60.291</ele>
        <time>2011-06-02T14:14:40Z</time>
      </trkpt>
      <trkpt lat="46.38195" lon="-0.35601">
        <ele>60.2997</ele>
        <time>2011-06-02T14:14:41Z</time>
      </trkpt>
      <trkpt lat="46.38195" lon="-0.35599">
        <ele>60.3277</ele>
        <time>2011-06-02T14:14:42Z</time>
      </trkpt>
      <trkpt lat="46.38195" lon="-0.35598">
        <ele>60.3277</ele>
        <time>2011-06-02T14:14:43Z</time>
      </trkpt>
      <trkpt lat="46.38196" lon="-0.35597">
        <ele>60.3442</ele>
        <time>2011-06-02T14:14:44Z</time>
      </trkpt>
      <trkpt lat="46.38197" lon="-0.35595">
        <ele>60.3742</ele>
        <time>2011-06-02T14:14:45Z</time>
      </trkpt>
      <trkpt lat="46.38197" lon="-0.35594">
        <ele>60.3988</ele>
        <time>2011-06-02T14:14:46Z</time>
      </trkpt>
      <trkpt lat="46.38197" lon="-0.35592">
        <ele>60.4189</ele>
        <time>2011-06-02T14:14:47Z</time>
      </trkpt>
      <trkpt lat="46.38198" lon="-0.35591">
        <ele>60.4135</ele>
        <time>2011-06-02T14:14:48Z</time>
      </trkpt>
      <trkpt lat="46.38199" lon="-0.3559">
        <ele>60.3956</ele>
        <time>2011-06-02T14:14:49Z</time>
      </trkpt>
      <trkpt lat="46.38199" lon="-0.35588">
        <ele>60.391</ele>
        <time>2011-06-02T14:14:50Z</time>
      </trkpt>
      <trkpt lat="46.38199" lon="-0.35587">
        <ele>60.3783</ele>
        <time>2011-06-02T14:14:51Z</time>
      </trkpt>
      <trkpt lat="46.38199" lon="-0.35585">
        <ele>60.3679</ele>
        <time>2011-06-02T14:14:52Z</time>
      </trkpt>
      <trkpt lat="46.382" lon="-0.35583">
        <ele>60.3558</ele>
        <time>2011-06-02T14:14:53Z</time>
      </trkpt>
      <trkpt lat="46.382" lon="-0.35581">
        <ele>60.3524</ele>
        <time>2011-06-02T14:14:54Z</time>
      </trkpt>
      <trkpt lat="46.38201" lon="-0.3558">
        <ele>60.3506</ele>
        <time>2011-06-02T14:14:55Z</time>
      </trkpt>
      <trkpt lat="46.38201" lon="-0.35577">
        <ele>60.3487</ele>
        <time>2011-06-02T14:14:56Z</time>
      </trkpt>
      <trkpt lat="46.38202" lon="-0.35575">
        <ele>60.3269</ele>
        <time>2011-06-02T14:14:57Z</time>
      </trkpt>
      <trkpt lat="46.38202" lon="-0.35573">
        <ele>60.3167</ele>
        <time>2011-06-02T14:14:58Z</time>
      </trkpt>
      <trkpt lat="46.38203" lon="-0.35571">
        <ele>60.3069</ele>
        <time>2011-06-02T14:14:59Z</time>
      </trkpt>
      <trkpt lat="46.38203" lon="-0.35569">
        <ele>60.2985</ele>
        <time>2011-06-02T14:15:00Z</time>
      </trkpt>
      <trkpt lat="46.38204" lon="-0.35567">
        <ele>60.2969</ele>
        <time>2011-06-02T14:15:01Z</time>
      </trkpt>
      <trkpt lat="46.38204" lon="-0.35565">
        <ele>60.2871</ele>
        <time>2011-06-02T14:15:02Z</time>
      </trkpt>
      <trkpt lat="46.38204" lon="-0.35563">
        <ele>60.2777</ele>
        <time>2011-06-02T14:15:03Z</time>
      </trkpt>
      <trkpt lat="46.38204" lon="-0.35562">
        <ele>60.2773</ele>
        <time>2011-06-02T14:15:04Z</time>
      </trkpt>
      <trkpt lat="46.38205" lon="-0.3556">
        <ele>60.289</ele>
        <time>2011-06-02T14:15:05Z</time>
      </trkpt>
      <trkpt lat="46.38205" lon="-0.35559">
        <ele>60.296</ele>
        <time>2011-06-02T14:15:06Z</time>
      </trkpt>
      <trkpt lat="46.38205" lon="-0.35558">
        <ele>60.3026</ele>
        <time>2011-06-02T14:15:07Z</time>
      </trkpt>
      <trkpt lat="46.38205" lon="-0.35556">
        <ele>60.3072</ele>
        <time>2011-06-02T14:15:08Z</time>
      </trkpt>
      <trkpt lat="46.38205" lon="-0.35555">
        <ele>60.3141</ele>
        <time>2011-06-02T14:15:09Z</time>
      </trkpt>
      <trkpt lat="46.38205" lon="-0.35554">
        <ele>60.3135</ele>
        <time>2011-06-02T14:15:10Z</time>
      </trkpt>
      <trkpt lat="46.38205" lon="-0.35552">
        <ele>60.3094</ele>
        <time>2011-06-02T14:15:11Z</time>
      </trkpt>
      <trkpt lat="46.38205" lon="-0.35551">
        <ele>60.3063</ele>
        <time>2011-06-02T14:15:12Z</time>
      </trkpt>
      <trkpt lat="46.38206" lon="-0.3555">
        <ele>60.3109</ele>
        <time>2011-06-02T14:15:13Z</time>
      </trkpt>
      <trkpt lat="46.38206" lon="-0.35548">
        <ele>60.3161</ele>
        <time>2011-06-02T14:15:14Z</time>
      </trkpt>
      <trkpt lat="46.38206" lon="-0.35547">
        <ele>60.3191</ele>
        <time>2011-06-02T14:15:15Z</time>
      </trkpt>
      <trkpt lat="46.38206" lon="-0.35546">
        <ele>60.3212</ele>
        <time>2011-06-02T14:15:16Z</time>
      </trkpt>
      <trkpt lat="46.38206" lon="-0.35545">
        <ele>60.3262</ele>
        <time>2011-06-02T14:15:17Z</time>
      </trkpt>
      <trkpt lat="46.38207" lon="-0.35543">
        <ele>60.3315</ele>
        <time>2011-06-02T14:15:18Z</time>
      </trkpt>
      <trkpt lat="46.38207" lon="-0.35541">
        <ele>60.3362</ele>
        <time>2011-06-02T14:15:19Z</time>
      </trkpt>
      <trkpt lat="46.38208" lon="-0.3554">
        <ele>60.3401</ele>
        <time>2011-06-02T14:15:20Z</time>
      </trkpt>
      <trkpt lat="46.38208" lon="-0.35539">
        <ele>60.3349</ele>
        <time>2011-06-02T14:15:21Z</time>
      </trkpt>
      <trkpt lat="46.38208" lon="-0.35538">
        <ele>60.3281</ele>
        <time>2011-06-02T14:15:22Z</time>
      </trkpt>
      <trkpt lat="46.38208" lon="-0.35536">
        <ele>60.3231</ele>
        <time>2011-06-02T14:15:23Z</time>
      </trkpt>
      <trkpt lat="46.38208" lon="-0.35535">
        <ele>60.3175</ele>
        <time>2011-06-02T14:15:24Z</time>
      </trkpt>
      <trkpt lat="46.38208" lon="-0.35534">
        <ele>60.3127</ele>
        <time>2011-06-02T14:15:25Z</time>
      </trkpt>
      <trkpt lat="46.38209" lon="-0.35533">
        <ele>60.3006</ele>
        <time>2011-06-02T14:15:26Z</time>
      </trkpt>
      <trkpt lat="46.38209" lon="-0.35531">
        <ele>60.2815</ele>
        <time>2011-06-02T14:15:27Z</time>
      </trkpt>
      <trkpt lat="46.38209" lon="-0.3553">
        <ele>60.2596</ele>
        <time>2011-06-02T14:15:28Z</time>
      </trkpt>
      <trkpt lat="46.38209" lon="-0.35528">
        <ele>60.2355</ele>
        <time>2011-06-02T14:15:29Z</time>
      </trkpt>
      <trkpt lat="46.38209" lon="-0.35527">
        <ele>60.209</ele>
        <time>2011-06-02T14:15:30Z</time>
      </trkpt>
      <trkpt lat="46.38209" lon="-0.35526">
        <ele>60.1757</ele>
        <time>2011-06-02T14:15:31Z</time>
      </trkpt>
      <trkpt lat="46.3821" lon="-0.35524">
        <ele>60.1423</ele>
        <time>2011-06-02T14:15:32Z</time>
      </trkpt>
      <trkpt lat="46.3821" lon="-0.35523">
        <ele>60.1103</ele>
        <time>2011-06-02T14:15:33Z</time>
      </trkpt>
      <trkpt lat="46.3821" lon="-0.35521">
        <ele>60.0769</ele>
        <time>2011-06-02T14:15:34Z</time>
      </trkpt>
      <trkpt lat="46.3821" lon="-0.3552">
        <ele>60.0406</ele>
        <time>2011-06-02T14:15:35Z</time>
      </trkpt>
      <trkpt lat="46.3821" lon="-0.35518">
        <ele>60.0045</ele>
        <time>2011-06-02T14:15:36Z</time>
      </trkpt>
      <trkpt lat="46.3821" lon="-0.35517">
        <ele>59.9705</ele>
        <time>2011-06-02T14:15:37Z</time>
      </trkpt>
      <trkpt lat="46.38211" lon="-0.35515">
        <ele>59.9343</ele>
        <time>2011-06-02T14:15:38Z</time>
      </trkpt>
      <trkpt lat="46.38211" lon="-0.35514">
        <ele>59.8966</ele>
        <time>2011-06-02T14:15:39Z</time>
      </trkpt>
      <trkpt lat="46.38211" lon="-0.35512">
        <ele>59.8578</ele>
        <time>2011-06-02T14:15:40Z</time>
      </trkpt>
      <trkpt lat="46.38211" lon="-0.35511">
        <ele>59.817</ele>
        <time>2011-06-02T14:15:41Z</time>
      </trkpt>
      <trkpt lat="46.38211" lon="-0.35509">
        <ele>59.7774</ele>
        <time>2011-06-02T14:15:42Z</time>
      </trkpt>
      <trkpt lat="46.38211" lon="-0.35508">
        <ele>59.7383</ele>
        <time>2011-06-02T14:15:43Z</time>
      </trkpt>
      <trkpt lat="46.38211" lon="-0.35506">
        <ele>59.7042</ele>
        <time>2011-06-02T14:15:44Z</time>
      </trkpt>
      <trkpt lat="46.38211" lon="-0.35505">
        <ele>59.6758</ele>
        <time>2011-06-02T14:15:45Z</time>
      </trkpt>
      <trkpt lat="46.38211" lon="-0.35503">
        <ele>59.6506</ele>
        <time>2011-06-02T14:15:46Z</time>
      </trkpt>
      <trkpt lat="46.38211" lon="-0.35502">
        <ele>59.6306</ele>
        <time>2011-06-02T14:15:47Z</time>
      </trkpt>
      <trkpt lat="46.38211" lon="-0.35501">
        <ele>59.6109</ele>
        <time>2011-06-02T14:15:48Z</time>
      </trkpt>
      <trkpt lat="46.38211" lon="-0.355">
        <ele>59.5921</ele>
        <time>2011-06-02T14:15:49Z</time>
      </trkpt>
      <trkpt lat="46.38211" lon="-0.35498">
        <ele>59.573</ele>
        <time>2011-06-02T14:15:50Z</time>
      </trkpt>
      <trkpt lat="46.38211" lon="-0.35497">
        <ele>59.5543</ele>
        <time>2011-06-02T14:15:51Z</time>
      </trkpt>
      <trkpt lat="46.38211" lon="-0.35495">
        <ele>59.5331</ele>
        <time>2011-06-02T14:15:52Z</time>
      </trkpt>
      <trkpt lat="46.38211" lon="-0.35494">
        <ele>59.5118</ele>
        <time>2011-06-02T14:15:53Z</time>
      </trkpt>
      <trkpt lat="46.38211" lon="-0.35492">
        <ele>59.5003</ele>
        <time>2011-06-02T14:15:54Z</time>
      </trkpt>
      <trkpt lat="46.38211" lon="-0.3549">
        <ele>59.488</ele>
        <time>2011-06-02T14:15:55Z</time>
      </trkpt>
      <trkpt lat="46.38211" lon="-0.35489">
        <ele>59.4756</ele>
        <time>2011-06-02T14:15:56Z</time>
      </trkpt>
      <trkpt lat="46.38211" lon="-0.35487">
        <ele>59.4651</ele>
        <time>2011-06-02T14:15:57Z</time>
      </trkpt>
      <trkpt lat="46.38211" lon="-0.35486">
        <ele>59.4576</ele>
        <time>2011-06-02T14:15:58Z</time>
      </trkpt>
      <trkpt lat="46.38211" lon="-0.35484">
        <ele>59.4522</ele>
        <time>2011-06-02T14:15:59Z</time>
      </trkpt>
      <trkpt lat="46.38211" lon="-0.35483">
        <ele>59.4475</ele>
        <time>2011-06-02T14:16:00Z</time>
      </trkpt>
      <trkpt lat="46.38211" lon="-0.35481">
        <ele>59.4491</ele>
        <time>2011-06-02T14:16:01Z</time>
      </trkpt>
      <trkpt lat="46.38211" lon="-0.35479">
        <ele>59.4523</ele>
        <time>2011-06-02T14:16:03Z</time>
      </trkpt>
      <trkpt lat="46.38211" lon="-0.35478">
        <ele>59.4543</ele>
        <time>2011-06-02T14:16:04Z</time>
      </trkpt>
      <trkpt lat="46.38212" lon="-0.35477">
        <ele>59.4561</ele>
        <time>2011-06-02T14:16:05Z</time>
      </trkpt>
      <trkpt lat="46.38212" lon="-0.35475">
        <ele>59.4559</ele>
        <time>2011-06-02T14:16:06Z</time>
      </trkpt>
      <trkpt lat="46.38212" lon="-0.35474">
        <ele>59.4564</ele>
        <time>2011-06-02T14:16:07Z</time>
      </trkpt>
      <trkpt lat="46.38212" lon="-0.35472">
        <ele>59.4576</ele>
        <time>2011-06-02T14:16:08Z</time>
      </trkpt>
      <trkpt lat="46.38213" lon="-0.3547">
        <ele>59.4602</ele>
        <time>2011-06-02T14:16:09Z</time>
      </trkpt>
      <trkpt lat="46.38213" lon="-0.35468">
        <ele>59.4638</ele>
        <time>2011-06-02T14:16:10Z</time>
      </trkpt>
      <trkpt lat="46.38213" lon="-0.35466">
        <ele>59.4671</ele>
        <time>2011-06-02T14:16:11Z</time>
      </trkpt>
      <trkpt lat="46.38213" lon="-0.35464">
        <ele>59.4736</ele>
        <time>2011-06-02T14:16:12Z</time>
      </trkpt>
      <trkpt lat="46.38213" lon="-0.35463">
        <ele>59.4791</ele>
        <time>2011-06-02T14:16:13Z</time>
      </trkpt>
      <trkpt lat="46.38213" lon="-0.35461">
        <ele>59.4843</ele>
        <time>2011-06-02T14:16:14Z</time>
      </trkpt>
      <trkpt lat="46.38213" lon="-0.35459">
        <ele>59.4895</ele>
        <time>2011-06-02T14:16:15Z</time>
      </trkpt>
      <trkpt lat="46.38212" lon="-0.35457">
        <ele>59.494</ele>
        <time>2011-06-02T14:16:16Z</time>
      </trkpt>
      <trkpt lat="46.38212" lon="-0.35455">
        <ele>59.4965</ele>
        <time>2011-06-02T14:16:17Z</time>
      </trkpt>
      <trkpt lat="46.38212" lon="-0.35453">
        <ele>59.4999</ele>
        <time>2011-06-02T14:16:18Z</time>
      </trkpt>
      <trkpt lat="46.38212" lon="-0.35451">
        <ele>59.5047</ele>
        <time>2011-06-02T14:16:19Z</time>
      </trkpt>
      <trkpt lat="46.38212" lon="-0.35449">
        <ele>59.5081</ele>
        <time>2011-06-02T14:16:20Z</time>
      </trkpt>
      <trkpt lat="46.38213" lon="-0.35448">
        <ele>59.5144</ele>
        <time>2011-06-02T14:16:21Z</time>
      </trkpt>
      <trkpt lat="46.38213" lon="-0.35446">
        <ele>59.5202</ele>
        <time>2011-06-02T14:16:22Z</time>
      </trkpt>
      <trkpt lat="46.38213" lon="-0.35444">
        <ele>59.5239</ele>
        <time>2011-06-02T14:16:23Z</time>
      </trkpt>
      <trkpt lat="46.38214" lon="-0.35442">
        <ele>59.5286</ele>
        <time>2011-06-02T14:16:24Z</time>
      </trkpt>
      <trkpt lat="46.38214" lon="-0.3544">
        <ele>59.5325</ele>
        <time>2011-06-02T14:16:25Z</time>
      </trkpt>
      <trkpt lat="46.38215" lon="-0.35438">
        <ele>59.5351</ele>
        <time>2011-06-02T14:16:26Z</time>
      </trkpt>
      <trkpt lat="46.38215" lon="-0.35436">
        <ele>59.534</ele>
        <time>2011-06-02T14:16:27Z</time>
      </trkpt>
      <trkpt lat="46.38216" lon="-0.35435">
        <ele>59.5326</ele>
        <time>2011-06-02T14:16:28Z</time>
      </trkpt>
      <trkpt lat="46.38216" lon="-0.35433">
        <ele>59.5314</ele>
        <time>2011-06-02T14:16:29Z</time>
      </trkpt>
      <trkpt lat="46.38216" lon="-0.35431">
        <ele>59.5329</ele>
        <time>2011-06-02T14:16:30Z</time>
      </trkpt>
      <trkpt lat="46.38217" lon="-0.3543">
        <ele>59.5344</ele>
        <time>2011-06-02T14:16:31Z</time>
      </trkpt>
      <trkpt lat="46.38216" lon="-0.35429">
        <ele>59.5359</ele>
        <time>2011-06-02T14:16:32Z</time>
      </trkpt>
      <trkpt lat="46.38216" lon="-0.35427">
        <ele>59.5291</ele>
        <time>2011-06-02T14:16:33Z</time>
      </trkpt>
      <trkpt lat="46.38216" lon="-0.35426">
        <ele>59.5219</ele>
        <time>2011-06-02T14:16:34Z</time>
      </trkpt>
      <trkpt lat="46.38217" lon="-0.35425">
        <ele>59.5121</ele>
        <time>2011-06-02T14:16:35Z</time>
      </trkpt>
      <trkpt lat="46.38217" lon="-0.35423">
        <ele>59.5237</ele>
        <time>2011-06-02T14:16:37Z</time>
      </trkpt>
      <trkpt lat="46.38218" lon="-0.35422">
        <ele>59.5328</ele>
        <time>2011-06-02T14:16:38Z</time>
      </trkpt>
      <trkpt lat="46.38218" lon="-0.3542">
        <ele>59.5396</ele>
        <time>2011-06-02T14:16:39Z</time>
      </trkpt>
      <trkpt lat="46.38218" lon="-0.35419">
        <ele>59.5463</ele>
        <time>2011-06-02T14:16:40Z</time>
      </trkpt>
      <trkpt lat="46.38219" lon="-0.35418">
        <ele>59.5759</ele>
        <time>2011-06-02T14:16:41Z</time>
      </trkpt>
      <trkpt lat="46.38219" lon="-0.35415">
        <ele>59.6048</ele>
        <time>2011-06-02T14:16:42Z</time>
      </trkpt>
      <trkpt lat="46.38219" lon="-0.35413">
        <ele>59.6317</ele>
        <time>2011-06-02T14:16:43Z</time>
      </trkpt>
      <trkpt lat="46.38218" lon="-0.35411">
        <ele>59.6317</ele>
        <time>2011-06-02T14:16:44Z</time>
      </trkpt>
      <trkpt lat="46.3822" lon="-0.35409">
        <ele>59.6568</ele>
        <time>2011-06-02T14:16:45Z</time>
      </trkpt>
      <trkpt lat="46.3822" lon="-0.35407">
        <ele>59.673</ele>
        <time>2011-06-02T14:16:46Z</time>
      </trkpt>
      <trkpt lat="46.3822" lon="-0.35405">
        <ele>59.6877</ele>
        <time>2011-06-02T14:16:47Z</time>
      </trkpt>
      <trkpt lat="46.3822" lon="-0.35403">
        <ele>59.701</ele>
        <time>2011-06-02T14:16:48Z</time>
      </trkpt>
      <trkpt lat="46.3822" lon="-0.354">
        <ele>59.7069</ele>
        <time>2011-06-02T14:16:49Z</time>
      </trkpt>
      <trkpt lat="46.38221" lon="-0.35399">
        <ele>59.7108</ele>
        <time>2011-06-02T14:16:50Z</time>
      </trkpt>
      <trkpt lat="46.38221" lon="-0.35397">
        <ele>59.71</ele>
        <time>2011-06-02T14:16:51Z</time>
      </trkpt>
      <trkpt lat="46.38221" lon="-0.35395">
        <ele>59.7096</ele>
        <time>2011-06-02T14:16:52Z</time>
      </trkpt>
      <trkpt lat="46.38221" lon="-0.35393">
        <ele>59.7089</ele>
        <time>2011-06-02T14:16:53Z</time>
      </trkpt>
      <trkpt lat="46.38223" lon="-0.35387">
        <ele>59.7294</ele>
        <time>2011-06-02T14:17:00Z</time>
      </trkpt>
      <trkpt lat="46.38218" lon="-0.35389">
        <ele>59.5357</ele>
        <time>2011-06-02T14:17:11Z</time>
      </trkpt>
      <trkpt lat="46.38218" lon="-0.35383">
        <ele>58.4703</ele>
        <time>2011-06-02T14:17:37Z</time>
      </trkpt>
      <trkpt lat="46.38218" lon="-0.35383">
        <ele>58.3608</ele>
        <time>2011-06-02T14:17:38Z</time>
      </trkpt>
      <trkpt lat="46.3822" lon="-0.3539">
        <ele>58.1671</ele>
        <time>2011-06-02T14:17:45Z</time>
      </trkpt>
      <trkpt lat="46.38221" lon="-0.35395">
        <ele>57.5493</ele>
        <time>2011-06-02T14:18:03Z</time>
      </trkpt>
      <trkpt lat="46.38221" lon="-0.35393">
        <ele>57.3802</ele>
        <time>2011-06-02T14:18:04Z</time>
      </trkpt>
      <trkpt lat="46.38221" lon="-0.35392">
        <ele>57.2163</ele>
        <time>2011-06-02T14:18:05Z</time>
      </trkpt>
      <trkpt lat="46.38221" lon="-0.35389">
        <ele>57.0374</ele>
        <time>2011-06-02T14:18:08Z</time>
      </trkpt>
      <trkpt lat="46.38221" lon="-0.35387">
        <ele>56.8915</ele>
        <time>2011-06-02T14:18:09Z</time>
      </trkpt>
      <trkpt lat="46.38221" lon="-0.35385">
        <ele>56.7507</ele>
        <time>2011-06-02T14:18:10Z</time>
      </trkpt>
      <trkpt lat="46.38221" lon="-0.35383">
        <ele>56.6161</ele>
        <time>2011-06-02T14:18:11Z</time>
      </trkpt>
      <trkpt lat="46.38221" lon="-0.35381">
        <ele>56.4979</ele>
        <time>2011-06-02T14:18:12Z</time>
      </trkpt>
      <trkpt lat="46.38221" lon="-0.35379">
        <ele>56.3895</ele>
        <time>2011-06-02T14:18:13Z</time>
      </trkpt>
      <trkpt lat="46.3822" lon="-0.35378">
        <ele>56.288</ele>
        <time>2011-06-02T14:18:14Z</time>
      </trkpt>
      <trkpt lat="46.38221" lon="-0.35376">
        <ele>56.1921</ele>
        <time>2011-06-02T14:18:15Z</time>
      </trkpt>
      <trkpt lat="46.3822" lon="-0.35375">
        <ele>56.0987</ele>
        <time>2011-06-02T14:18:16Z</time>
      </trkpt>
      <trkpt lat="46.3822" lon="-0.35373">
        <ele>56.0108</ele>
        <time>2011-06-02T14:18:17Z</time>
      </trkpt>
      <trkpt lat="46.3822" lon="-0.35372">
        <ele>55.9236</ele>
        <time>2011-06-02T14:18:18Z</time>
      </trkpt>
      <trkpt lat="46.3822" lon="-0.35371">
        <ele>55.8414</ele>
        <time>2011-06-02T14:18:19Z</time>
      </trkpt>
      <trkpt lat="46.3822" lon="-0.35369">
        <ele>55.7609</ele>
        <time>2011-06-02T14:18:20Z</time>
      </trkpt>
      <trkpt lat="46.38221" lon="-0.35367">
        <ele>55.7046</ele>
        <time>2011-06-02T14:18:21Z</time>
      </trkpt>
      <trkpt lat="46.38221" lon="-0.35366">
        <ele>55.679</ele>
        <time>2011-06-02T14:18:22Z</time>
      </trkpt>
      <trkpt lat="46.38221" lon="-0.35365">
        <ele>55.6599</ele>
        <time>2011-06-02T14:18:23Z</time>
      </trkpt>
      <trkpt lat="46.38221" lon="-0.35364">
        <ele>55.6406</ele>
        <time>2011-06-02T14:18:24Z</time>
      </trkpt>
      <trkpt lat="46.38221" lon="-0.35362">
        <ele>55.629</ele>
        <time>2011-06-02T14:18:25Z</time>
      </trkpt>
      <trkpt lat="46.38221" lon="-0.35361">
        <ele>55.6172</ele>
        <time>2011-06-02T14:18:26Z</time>
      </trkpt>
      <trkpt lat="46.38222" lon="-0.35359">
        <ele>55.6995</ele>
        <time>2011-06-02T14:18:27Z</time>
      </trkpt>
      <trkpt lat="46.38223" lon="-0.35357">
        <ele>55.792</ele>
        <time>2011-06-02T14:18:28Z</time>
      </trkpt>
      <trkpt lat="46.38223" lon="-0.35356">
        <ele>55.792</ele>
        <time>2011-06-02T14:18:29Z</time>
      </trkpt>
      <trkpt lat="46.38223" lon="-0.35355">
        <ele>55.8828</ele>
        <time>2011-06-02T14:18:30Z</time>
      </trkpt>
      <trkpt lat="46.38223" lon="-0.35353">
        <ele>55.9807</ele>
        <time>2011-06-02T14:18:31Z</time>
      </trkpt>
      <trkpt lat="46.38223" lon="-0.35351">
        <ele>56.0821</ele>
        <time>2011-06-02T14:18:32Z</time>
      </trkpt>
      <trkpt lat="46.38222" lon="-0.35349">
        <ele>56.1856</ele>
        <time>2011-06-02T14:18:33Z</time>
      </trkpt>
      <trkpt lat="46.38222" lon="-0.35348">
        <ele>56.2877</ele>
        <time>2011-06-02T14:18:34Z</time>
      </trkpt>
      <trkpt lat="46.38222" lon="-0.35346">
        <ele>56.4014</ele>
        <time>2011-06-02T14:18:35Z</time>
      </trkpt>
      <trkpt lat="46.38221" lon="-0.35345">
        <ele>56.5095</ele>
        <time>2011-06-02T14:18:36Z</time>
      </trkpt>
      <trkpt lat="46.38221" lon="-0.35343">
        <ele>56.6158</ele>
        <time>2011-06-02T14:18:37Z</time>
      </trkpt>
      <trkpt lat="46.38222" lon="-0.35342">
        <ele>56.7064</ele>
        <time>2011-06-02T14:18:38Z</time>
      </trkpt>
      <trkpt lat="46.38222" lon="-0.3534">
        <ele>56.802</ele>
        <time>2011-06-02T14:18:39Z</time>
      </trkpt>
      <trkpt lat="46.38222" lon="-0.35339">
        <ele>56.8951</ele>
        <time>2011-06-02T14:18:40Z</time>
      </trkpt>
      <trkpt lat="46.38223" lon="-0.35337">
        <ele>56.976</ele>
        <time>2011-06-02T14:18:41Z</time>
      </trkpt>
      <trkpt lat="46.38223" lon="-0.35336">
        <ele>57.0519</ele>
        <time>2011-06-02T14:18:42Z</time>
      </trkpt>
      <trkpt lat="46.38223" lon="-0.35334">
        <ele>57.1246</ele>
        <time>2011-06-02T14:18:43Z</time>
      </trkpt>
      <trkpt lat="46.38223" lon="-0.35332">
        <ele>57.1914</ele>
        <time>2011-06-02T14:18:44Z</time>
      </trkpt>
      <trkpt lat="46.38223" lon="-0.3533">
        <ele>57.2505</ele>
        <time>2011-06-02T14:18:45Z</time>
      </trkpt>
      <trkpt lat="46.38223" lon="-0.35328">
        <ele>57.3095</ele>
        <time>2011-06-02T14:18:46Z</time>
      </trkpt>
      <trkpt lat="46.38223" lon="-0.35327">
        <ele>57.3687</ele>
        <time>2011-06-02T14:18:47Z</time>
      </trkpt>
      <trkpt lat="46.38223" lon="-0.35325">
        <ele>57.4177</ele>
        <time>2011-06-02T14:18:48Z</time>
      </trkpt>
      <trkpt lat="46.38224" lon="-0.35324">
        <ele>57.4712</ele>
        <time>2011-06-02T14:18:49Z</time>
      </trkpt>
      <trkpt lat="46.38224" lon="-0.35322">
        <ele>57.5196</ele>
        <time>2011-06-02T14:18:50Z</time>
      </trkpt>
      <trkpt lat="46.38224" lon="-0.35321">
        <ele>57.5687</ele>
        <time>2011-06-02T14:18:51Z</time>
      </trkpt>
      <trkpt lat="46.38224" lon="-0.35319">
        <ele>57.6173</ele>
        <time>2011-06-02T14:18:52Z</time>
      </trkpt>
      <trkpt lat="46.38224" lon="-0.35318">
        <ele>57.6686</ele>
        <time>2011-06-02T14:18:53Z</time>
      </trkpt>
      <trkpt lat="46.38223" lon="-0.35317">
        <ele>57.7209</ele>
        <time>2011-06-02T14:18:54Z</time>
      </trkpt>
      <trkpt lat="46.38224" lon="-0.35315">
        <ele>57.7645</ele>
        <time>2011-06-02T14:18:55Z</time>
      </trkpt>
      <trkpt lat="46.38224" lon="-0.35314">
        <ele>57.8072</ele>
        <time>2011-06-02T14:18:56Z</time>
      </trkpt>
      <trkpt lat="46.38224" lon="-0.35312">
        <ele>57.8487</ele>
        <time>2011-06-02T14:18:57Z</time>
      </trkpt>
      <trkpt lat="46.38224" lon="-0.3531">
        <ele>57.8909</ele>
        <time>2011-06-02T14:18:58Z</time>
      </trkpt>
      <trkpt lat="46.38224" lon="-0.35309">
        <ele>57.9325</ele>
        <time>2011-06-02T14:18:59Z</time>
      </trkpt>
      <trkpt lat="46.38224" lon="-0.35307">
        <ele>57.9756</ele>
        <time>2011-06-02T14:19:00Z</time>
      </trkpt>
      <trkpt lat="46.38224" lon="-0.35305">
        <ele>58.015</ele>
        <time>2011-06-02T14:19:01Z</time>
      </trkpt>
      <trkpt lat="46.38224" lon="-0.35303">
        <ele>58.0504</ele>
        <time>2011-06-02T14:19:02Z</time>
      </trkpt>
      <trkpt lat="46.38224" lon="-0.35302">
        <ele>58.0742</ele>
        <time>2011-06-02T14:19:03Z</time>
      </trkpt>
      <trkpt lat="46.38224" lon="-0.353">
        <ele>58.0997</ele>
        <time>2011-06-02T14:19:04Z</time>
      </trkpt>
      <trkpt lat="46.38224" lon="-0.35299">
        <ele>58.1236</ele>
        <time>2011-06-02T14:19:05Z</time>
      </trkpt>
      <trkpt lat="46.38225" lon="-0.35298">
        <ele>58.1455</ele>
        <time>2011-06-02T14:19:06Z</time>
      </trkpt>
      <trkpt lat="46.38224" lon="-0.35296">
        <ele>58.1668</ele>
        <time>2011-06-02T14:19:07Z</time>
      </trkpt>
      <trkpt lat="46.38225" lon="-0.35294">
        <ele>58.1881</ele>
        <time>2011-06-02T14:19:08Z</time>
      </trkpt>
      <trkpt lat="46.38225" lon="-0.35293">
        <ele>58.2107</ele>
        <time>2011-06-02T14:19:09Z</time>
      </trkpt>
      <trkpt lat="46.38224" lon="-0.35291">
        <ele>58.2309</ele>
        <time>2011-06-02T14:19:10Z</time>
      </trkpt>
      <trkpt lat="46.38224" lon="-0.35289">
        <ele>58.2506</ele>
        <time>2011-06-02T14:19:11Z</time>
      </trkpt>
      <trkpt lat="46.38225" lon="-0.35287">
        <ele>58.2705</ele>
        <time>2011-06-02T14:19:12Z</time>
      </trkpt>
      <trkpt lat="46.38225" lon="-0.35285">
        <ele>58.2905</ele>
        <time>2011-06-02T14:19:13Z</time>
      </trkpt>
      <trkpt lat="46.38225" lon="-0.35284">
        <ele>58.3102</ele>
        <time>2011-06-02T14:19:14Z</time>
      </trkpt>
      <trkpt lat="46.38225" lon="-0.35282">
        <ele>58.33</ele>
        <time>2011-06-02T14:19:15Z</time>
      </trkpt>
      <trkpt lat="46.38224" lon="-0.35281">
        <ele>58.3496</ele>
        <time>2011-06-02T14:19:16Z</time>
      </trkpt>
      <trkpt lat="46.38224" lon="-0.35279">
        <ele>58.3716</ele>
        <time>2011-06-02T14:19:17Z</time>
      </trkpt>
      <trkpt lat="46.38224" lon="-0.35278">
        <ele>58.3955</ele>
        <time>2011-06-02T14:19:18Z</time>
      </trkpt>
      <trkpt lat="46.38224" lon="-0.35277">
        <ele>58.4193</ele>
        <time>2011-06-02T14:19:19Z</time>
      </trkpt>
      <trkpt lat="46.38224" lon="-0.35275">
        <ele>58.4427</ele>
        <time>2011-06-02T14:19:20Z</time>
      </trkpt>
      <trkpt lat="46.38224" lon="-0.35273">
        <ele>58.4663</ele>
        <time>2011-06-02T14:19:21Z</time>
      </trkpt>
      <trkpt lat="46.38223" lon="-0.35272">
        <ele>58.4829</ele>
        <time>2011-06-02T14:19:22Z</time>
      </trkpt>
      <trkpt lat="46.38224" lon="-0.35267">
        <ele>58.5297</ele>
        <time>2011-06-02T14:19:49Z</time>
      </trkpt>
      <trkpt lat="46.38224" lon="-0.35266">
        <ele>58.5708</ele>
        <time>2011-06-02T14:19:50Z</time>
      </trkpt>
      <trkpt lat="46.38224" lon="-0.35265">
        <ele>58.6083</ele>
        <time>2011-06-02T14:19:51Z</time>
      </trkpt>
      <trkpt lat="46.38223" lon="-0.35264">
        <ele>58.6444</ele>
        <time>2011-06-02T14:19:52Z</time>
      </trkpt>
      <trkpt lat="46.38223" lon="-0.35263">
        <ele>58.6855</ele>
        <time>2011-06-02T14:19:53Z</time>
      </trkpt>
      <trkpt lat="46.38223" lon="-0.35262">
        <ele>58.7179</ele>
        <time>2011-06-02T14:19:54Z</time>
      </trkpt>
      <trkpt lat="46.38224" lon="-0.35261">
        <ele>58.7386</ele>
        <time>2011-06-02T14:19:55Z</time>
      </trkpt>
      <trkpt lat="46.38224" lon="-0.3526">
        <ele>58.7567</ele>
        <time>2011-06-02T14:19:56Z</time>
      </trkpt>
      <trkpt lat="46.38224" lon="-0.35258">
        <ele>58.7739</ele>
        <time>2011-06-02T14:19:57Z</time>
      </trkpt>
      <trkpt lat="46.38224" lon="-0.35256">
        <ele>58.7962</ele>
        <time>2011-06-02T14:19:58Z</time>
      </trkpt>
      <trkpt lat="46.38224" lon="-0.35254">
        <ele>58.8174</ele>
        <time>2011-06-02T14:19:59Z</time>
      </trkpt>
      <trkpt lat="46.38224" lon="-0.35253">
        <ele>58.842</ele>
        <time>2011-06-02T14:20:00Z</time>
      </trkpt>
      <trkpt lat="46.38223" lon="-0.35252">
        <ele>58.8689</ele>
        <time>2011-06-02T14:20:01Z</time>
      </trkpt>
      <trkpt lat="46.38222" lon="-0.35251">
        <ele>58.9011</ele>
        <time>2011-06-02T14:20:02Z</time>
      </trkpt>
      <trkpt lat="46.38222" lon="-0.35249">
        <ele>58.9244</ele>
        <time>2011-06-02T14:20:03Z</time>
      </trkpt>
      <trkpt lat="46.38221" lon="-0.35247">
        <ele>58.9447</ele>
        <time>2011-06-02T14:20:04Z</time>
      </trkpt>
      <trkpt lat="46.38221" lon="-0.35245">
        <ele>58.96</ele>
        <time>2011-06-02T14:20:05Z</time>
      </trkpt>
      <trkpt lat="46.38221" lon="-0.35243">
        <ele>58.9771</ele>
        <time>2011-06-02T14:20:06Z</time>
      </trkpt>
      <trkpt lat="46.38221" lon="-0.35242">
        <ele>58.9961</ele>
        <time>2011-06-02T14:20:07Z</time>
      </trkpt>
      <trkpt lat="46.3822" lon="-0.3524">
        <ele>59.0147</ele>
        <time>2011-06-02T14:20:08Z</time>
      </trkpt>
      <trkpt lat="46.3822" lon="-0.35239">
        <ele>59.0313</ele>
        <time>2011-06-02T14:20:09Z</time>
      </trkpt>
      <trkpt lat="46.3822" lon="-0.35237">
        <ele>59.0462</ele>
        <time>2011-06-02T14:20:10Z</time>
      </trkpt>
      <trkpt lat="46.3822" lon="-0.35235">
        <ele>59.0617</ele>
        <time>2011-06-02T14:20:11Z</time>
      </trkpt>
      <trkpt lat="46.38219" lon="-0.35234">
        <ele>59.0792</ele>
        <time>2011-06-02T14:20:12Z</time>
      </trkpt>
      <trkpt lat="46.38219" lon="-0.35232">
        <ele>59.0962</ele>
        <time>2011-06-02T14:20:13Z</time>
      </trkpt>
      <trkpt lat="46.38219" lon="-0.3523">
        <ele>59.1109</ele>
        <time>2011-06-02T14:20:14Z</time>
      </trkpt>
      <trkpt lat="46.38219" lon="-0.35229">
        <ele>59.1248</ele>
        <time>2011-06-02T14:20:15Z</time>
      </trkpt>
      <trkpt lat="46.38218" lon="-0.35227">
        <ele>59.143</ele>
        <time>2011-06-02T14:20:16Z</time>
      </trkpt>
      <trkpt lat="46.38218" lon="-0.35226">
        <ele>59.1606</ele>
        <time>2011-06-02T14:20:17Z</time>
      </trkpt>
      <trkpt lat="46.38218" lon="-0.35224">
        <ele>59.1791</ele>
        <time>2011-06-02T14:20:18Z</time>
      </trkpt>
      <trkpt lat="46.38218" lon="-0.35223">
        <ele>59.1973</ele>
        <time>2011-06-02T14:20:19Z</time>
      </trkpt>
      <trkpt lat="46.38218" lon="-0.35221">
        <ele>59.2137</ele>
        <time>2011-06-02T14:20:20Z</time>
      </trkpt>
      <trkpt lat="46.38217" lon="-0.35219">
        <ele>59.2321</ele>
        <time>2011-06-02T14:20:21Z</time>
      </trkpt>
      <trkpt lat="46.38216" lon="-0.35218">
        <ele>59.2478</ele>
        <time>2011-06-02T14:20:22Z</time>
      </trkpt>
      <trkpt lat="46.38215" lon="-0.35216">
        <ele>59.2739</ele>
        <time>2011-06-02T14:20:23Z</time>
      </trkpt>
      <trkpt lat="46.38215" lon="-0.35215">
        <ele>59.3095</ele>
        <time>2011-06-02T14:20:24Z</time>
      </trkpt>
      <trkpt lat="46.38214" lon="-0.35213">
        <ele>59.3483</ele>
        <time>2011-06-02T14:20:25Z</time>
      </trkpt>
      <trkpt lat="46.38213" lon="-0.35212">
        <ele>59.3784</ele>
        <time>2011-06-02T14:20:26Z</time>
      </trkpt>
      <trkpt lat="46.38213" lon="-0.3521">
        <ele>59.4049</ele>
        <time>2011-06-02T14:20:27Z</time>
      </trkpt>
      <trkpt lat="46.38212" lon="-0.35208">
        <ele>59.4291</ele>
        <time>2011-06-02T14:20:28Z</time>
      </trkpt>
      <trkpt lat="46.38211" lon="-0.35207">
        <ele>59.4522</ele>
        <time>2011-06-02T14:20:29Z</time>
      </trkpt>
      <trkpt lat="46.38211" lon="-0.35205">
        <ele>59.4769</ele>
        <time>2011-06-02T14:20:30Z</time>
      </trkpt>
      <trkpt lat="46.38211" lon="-0.35204">
        <ele>59.4997</ele>
        <time>2011-06-02T14:20:31Z</time>
      </trkpt>
      <trkpt lat="46.3821" lon="-0.35202">
        <ele>59.5204</ele>
        <time>2011-06-02T14:20:32Z</time>
      </trkpt>
      <trkpt lat="46.3821" lon="-0.35201">
        <ele>59.5353</ele>
        <time>2011-06-02T14:20:33Z</time>
      </trkpt>
      <trkpt lat="46.38209" lon="-0.35199">
        <ele>59.5499</ele>
        <time>2011-06-02T14:20:34Z</time>
      </trkpt>
      <trkpt lat="46.38209" lon="-0.35198">
        <ele>59.5669</ele>
        <time>2011-06-02T14:20:35Z</time>
      </trkpt>
      <trkpt lat="46.38208" lon="-0.35196">
        <ele>59.5862</ele>
        <time>2011-06-02T14:20:36Z</time>
      </trkpt>
      <trkpt lat="46.38207" lon="-0.35194">
        <ele>59.6002</ele>
        <time>2011-06-02T14:20:37Z</time>
      </trkpt>
      <trkpt lat="46.38207" lon="-0.35192">
        <ele>59.6157</ele>
        <time>2011-06-02T14:20:38Z</time>
      </trkpt>
      <trkpt lat="46.38207" lon="-0.35191">
        <ele>59.6207</ele>
        <time>2011-06-02T14:20:39Z</time>
      </trkpt>
      <trkpt lat="46.38206" lon="-0.3519">
        <ele>59.6221</ele>
        <time>2011-06-02T14:20:40Z</time>
      </trkpt>
      <trkpt lat="46.38207" lon="-0.35188">
        <ele>59.6236</ele>
        <time>2011-06-02T14:20:41Z</time>
      </trkpt>
      <trkpt lat="46.38207" lon="-0.35186">
        <ele>59.6252</ele>
        <time>2011-06-02T14:20:42Z</time>
      </trkpt>
      <trkpt lat="46.38206" lon="-0.35184">
        <ele>59.6281</ele>
        <time>2011-06-02T14:20:43Z</time>
      </trkpt>
      <trkpt lat="46.38207" lon="-0.35183">
        <ele>59.6298</ele>
        <time>2011-06-02T14:20:44Z</time>
      </trkpt>
      <trkpt lat="46.38207" lon="-0.35181">
        <ele>59.6249</ele>
        <time>2011-06-02T14:20:45Z</time>
      </trkpt>
      <trkpt lat="46.38207" lon="-0.35179">
        <ele>59.6252</ele>
        <time>2011-06-02T14:20:46Z</time>
      </trkpt>
      <trkpt lat="46.38206" lon="-0.35178">
        <ele>59.6236</ele>
        <time>2011-06-02T14:20:47Z</time>
      </trkpt>
      <trkpt lat="46.38206" lon="-0.35176">
        <ele>59.6173</ele>
        <time>2011-06-02T14:20:48Z</time>
      </trkpt>
      <trkpt lat="46.38205" lon="-0.35174">
        <ele>59.6062</ele>
        <time>2011-06-02T14:20:49Z</time>
      </trkpt>
      <trkpt lat="46.38205" lon="-0.35173">
        <ele>59.5953</ele>
        <time>2011-06-02T14:20:50Z</time>
      </trkpt>
      <trkpt lat="46.38205" lon="-0.35171">
        <ele>59.5891</ele>
        <time>2011-06-02T14:20:51Z</time>
      </trkpt>
      <trkpt lat="46.38204" lon="-0.3517">
        <ele>59.5887</ele>
        <time>2011-06-02T14:20:52Z</time>
      </trkpt>
      <trkpt lat="46.38204" lon="-0.35169">
        <ele>59.5885</ele>
        <time>2011-06-02T14:20:53Z</time>
      </trkpt>
      <trkpt lat="46.38204" lon="-0.35168">
        <ele>59.5881</ele>
        <time>2011-06-02T14:20:54Z</time>
      </trkpt>
      <trkpt lat="46.38204" lon="-0.35167">
        <ele>59.5891</ele>
        <time>2011-06-02T14:20:55Z</time>
      </trkpt>
      <trkpt lat="46.38204" lon="-0.35165">
        <ele>59.5876</ele>
        <time>2011-06-02T14:20:56Z</time>
      </trkpt>
      <trkpt lat="46.38203" lon="-0.35164">
        <ele>59.5805</ele>
        <time>2011-06-02T14:20:57Z</time>
      </trkpt>
      <trkpt lat="46.38203" lon="-0.35162">
        <ele>59.5706</ele>
        <time>2011-06-02T14:20:58Z</time>
      </trkpt>
      <trkpt lat="46.38203" lon="-0.35161">
        <ele>59.5592</ele>
        <time>2011-06-02T14:20:59Z</time>
      </trkpt>
      <trkpt lat="46.38203" lon="-0.3516">
        <ele>59.5452</ele>
        <time>2011-06-02T14:21:00Z</time>
      </trkpt>
      <trkpt lat="46.38202" lon="-0.35159">
        <ele>59.5278</ele>
        <time>2011-06-02T14:21:01Z</time>
      </trkpt>
      <trkpt lat="46.38202" lon="-0.35157">
        <ele>59.5088</ele>
        <time>2011-06-02T14:21:02Z</time>
      </trkpt>
      <trkpt lat="46.38201" lon="-0.35156">
        <ele>59.4897</ele>
        <time>2011-06-02T14:21:03Z</time>
      </trkpt>
      <trkpt lat="46.38201" lon="-0.35155">
        <ele>59.4685</ele>
        <time>2011-06-02T14:21:04Z</time>
      </trkpt>
      <trkpt lat="46.38201" lon="-0.35153">
        <ele>59.4476</ele>
        <time>2011-06-02T14:21:05Z</time>
      </trkpt>
      <trkpt lat="46.38201" lon="-0.35151">
        <ele>59.4235</ele>
        <time>2011-06-02T14:21:06Z</time>
      </trkpt>
      <trkpt lat="46.38201" lon="-0.3515">
        <ele>59.398</ele>
        <time>2011-06-02T14:21:07Z</time>
      </trkpt>
      <trkpt lat="46.38201" lon="-0.35148">
        <ele>59.3705</ele>
        <time>2011-06-02T14:21:08Z</time>
      </trkpt>
      <trkpt lat="46.382" lon="-0.35146">
        <ele>59.3443</ele>
        <time>2011-06-02T14:21:09Z</time>
      </trkpt>
      <trkpt lat="46.382" lon="-0.35145">
        <ele>59.3172</ele>
        <time>2011-06-02T14:21:10Z</time>
      </trkpt>
      <trkpt lat="46.382" lon="-0.35143">
        <ele>59.2913</ele>
        <time>2011-06-02T14:21:11Z</time>
      </trkpt>
      <trkpt lat="46.382" lon="-0.35141">
        <ele>59.2645</ele>
        <time>2011-06-02T14:21:12Z</time>
      </trkpt>
      <trkpt lat="46.382" lon="-0.3514">
        <ele>59.2387</ele>
        <time>2011-06-02T14:21:13Z</time>
      </trkpt>
      <trkpt lat="46.382" lon="-0.35137">
        <ele>59.2224</ele>
        <time>2011-06-02T14:21:14Z</time>
      </trkpt>
      <trkpt lat="46.382" lon="-0.35135">
        <ele>59.206</ele>
        <time>2011-06-02T14:21:15Z</time>
      </trkpt>
      <trkpt lat="46.382" lon="-0.35134">
        <ele>59.192</ele>
        <time>2011-06-02T14:21:16Z</time>
      </trkpt>
      <trkpt lat="46.38199" lon="-0.35132">
        <ele>59.1803</ele>
        <time>2011-06-02T14:21:17Z</time>
      </trkpt>
      <trkpt lat="46.38199" lon="-0.3513">
        <ele>59.1693</ele>
        <time>2011-06-02T14:21:18Z</time>
      </trkpt>
      <trkpt lat="46.38198" lon="-0.35129">
        <ele>59.1594</ele>
        <time>2011-06-02T14:21:19Z</time>
      </trkpt>
      <trkpt lat="46.38198" lon="-0.35127">
        <ele>59.1448</ele>
        <time>2011-06-02T14:21:20Z</time>
      </trkpt>
      <trkpt lat="46.38198" lon="-0.35125">
        <ele>59.1249</ele>
        <time>2011-06-02T14:21:21Z</time>
      </trkpt>
      <trkpt lat="46.38197" lon="-0.35124">
        <ele>59.0999</ele>
        <time>2011-06-02T14:21:22Z</time>
      </trkpt>
      <trkpt lat="46.38197" lon="-0.35122">
        <ele>59.0748</ele>
        <time>2011-06-02T14:21:23Z</time>
      </trkpt>
      <trkpt lat="46.38197" lon="-0.3512">
        <ele>59.0488</ele>
        <time>2011-06-02T14:21:24Z</time>
      </trkpt>
      <trkpt lat="46.38197" lon="-0.35118">
        <ele>59.0212</ele>
        <time>2011-06-02T14:21:25Z</time>
      </trkpt>
      <trkpt lat="46.38197" lon="-0.35117">
        <ele>58.9883</ele>
        <time>2011-06-02T14:21:26Z</time>
      </trkpt>
      <trkpt lat="46.38197" lon="-0.35115">
        <ele>58.9561</ele>
        <time>2011-06-02T14:21:27Z</time>
      </trkpt>
      <trkpt lat="46.38197" lon="-0.35114">
        <ele>58.9252</ele>
        <time>2011-06-02T14:21:28Z</time>
      </trkpt>
      <trkpt lat="46.38196" lon="-0.35113">
        <ele>58.8946</ele>
        <time>2011-06-02T14:21:29Z</time>
      </trkpt>
      <trkpt lat="46.38195" lon="-0.35113">
        <ele>58.8635</ele>
        <time>2011-06-02T14:21:30Z</time>
      </trkpt>
      <trkpt lat="46.38195" lon="-0.35112">
        <ele>58.8331</ele>
        <time>2011-06-02T14:21:31Z</time>
      </trkpt>
      <trkpt lat="46.38195" lon="-0.35111">
        <ele>58.803</ele>
        <time>2011-06-02T14:21:32Z</time>
      </trkpt>
      <trkpt lat="46.38194" lon="-0.35109">
        <ele>58.7749</ele>
        <time>2011-06-02T14:21:33Z</time>
      </trkpt>
      <trkpt lat="46.38194" lon="-0.35107">
        <ele>58.7486</ele>
        <time>2011-06-02T14:21:34Z</time>
      </trkpt>
      <trkpt lat="46.38193" lon="-0.35106">
        <ele>58.7229</ele>
        <time>2011-06-02T14:21:35Z</time>
      </trkpt>
      <trkpt lat="46.38193" lon="-0.35105">
        <ele>58.7028</ele>
        <time>2011-06-02T14:21:36Z</time>
      </trkpt>
      <trkpt lat="46.38192" lon="-0.35104">
        <ele>58.684</ele>
        <time>2011-06-02T14:21:37Z</time>
      </trkpt>
      <trkpt lat="46.38191" lon="-0.35103">
        <ele>58.6662</ele>
        <time>2011-06-02T14:21:38Z</time>
      </trkpt>
      <trkpt lat="46.3819" lon="-0.35103">
        <ele>58.6492</ele>
        <time>2011-06-02T14:21:39Z</time>
      </trkpt>
      <trkpt lat="46.38189" lon="-0.35103">
        <ele>58.6339</ele>
        <time>2011-06-02T14:21:40Z</time>
      </trkpt>
      <trkpt lat="46.38189" lon="-0.35103">
        <ele>58.6166</ele>
        <time>2011-06-02T14:21:41Z</time>
      </trkpt>
      <trkpt lat="46.38188" lon="-0.35103">
        <ele>58.5961</ele>
        <time>2011-06-02T14:21:42Z</time>
      </trkpt>
      <trkpt lat="46.38187" lon="-0.35104">
        <ele>58.5741</ele>
        <time>2011-06-02T14:21:43Z</time>
      </trkpt>
      <trkpt lat="46.38186" lon="-0.35104">
        <ele>58.5523</ele>
        <time>2011-06-02T14:21:44Z</time>
      </trkpt>
      <trkpt lat="46.38186" lon="-0.35104">
        <ele>58.5322</ele>
        <time>2011-06-02T14:21:45Z</time>
      </trkpt>
      <trkpt lat="46.38185" lon="-0.35104">
        <ele>58.5129</ele>
        <time>2011-06-02T14:21:46Z</time>
      </trkpt>
      <trkpt lat="46.38184" lon="-0.35104">
        <ele>58.4967</ele>
        <time>2011-06-02T14:21:47Z</time>
      </trkpt>
      <trkpt lat="46.38183" lon="-0.35104">
        <ele>58.4822</ele>
        <time>2011-06-02T14:21:48Z</time>
      </trkpt>
      <trkpt lat="46.38182" lon="-0.35105">
        <ele>58.4734</ele>
        <time>2011-06-02T14:21:49Z</time>
      </trkpt>
      <trkpt lat="46.38181" lon="-0.35105">
        <ele>58.4647</ele>
        <time>2011-06-02T14:21:50Z</time>
      </trkpt>
      <trkpt lat="46.38181" lon="-0.35105">
        <ele>58.4523</ele>
        <time>2011-06-02T14:21:51Z</time>
      </trkpt>
      <trkpt lat="46.3818" lon="-0.35106">
        <ele>58.4366</ele>
        <time>2011-06-02T14:21:52Z</time>
      </trkpt>
      <trkpt lat="46.38179" lon="-0.35106">
        <ele>58.4204</ele>
        <time>2011-06-02T14:21:53Z</time>
      </trkpt>
      <trkpt lat="46.38178" lon="-0.35106">
        <ele>58.4005</ele>
        <time>2011-06-02T14:21:54Z</time>
      </trkpt>
      <trkpt lat="46.38177" lon="-0.35106">
        <ele>58.382</ele>
        <time>2011-06-02T14:21:55Z</time>
      </trkpt>
      <trkpt lat="46.38176" lon="-0.35106">
        <ele>58.3667</ele>
        <time>2011-06-02T14:21:56Z</time>
      </trkpt>
      <trkpt lat="46.38175" lon="-0.35107">
        <ele>58.352</ele>
        <time>2011-06-02T14:21:57Z</time>
      </trkpt>
      <trkpt lat="46.38174" lon="-0.35107">
        <ele>58.338</ele>
        <time>2011-06-02T14:21:58Z</time>
      </trkpt>
      <trkpt lat="46.38173" lon="-0.35107">
        <ele>58.3245</ele>
        <time>2011-06-02T14:21:59Z</time>
      </trkpt>
      <trkpt lat="46.38173" lon="-0.35108">
        <ele>58.309</ele>
        <time>2011-06-02T14:22:00Z</time>
      </trkpt>
      <trkpt lat="46.38172" lon="-0.35108">
        <ele>58.2925</ele>
        <time>2011-06-02T14:22:01Z</time>
      </trkpt>
      <trkpt lat="46.38171" lon="-0.35109">
        <ele>58.2766</ele>
        <time>2011-06-02T14:22:02Z</time>
      </trkpt>
      <trkpt lat="46.3817" lon="-0.35109">
        <ele>58.253</ele>
        <time>2011-06-02T14:22:03Z</time>
      </trkpt>
      <trkpt lat="46.3817" lon="-0.35109">
        <ele>58.2269</ele>
        <time>2011-06-02T14:22:04Z</time>
      </trkpt>
      <trkpt lat="46.38169" lon="-0.35109">
        <ele>58.2019</ele>
        <time>2011-06-02T14:22:05Z</time>
      </trkpt>
      <trkpt lat="46.38168" lon="-0.35109">
        <ele>58.1796</ele>
        <time>2011-06-02T14:22:06Z</time>
      </trkpt>
      <trkpt lat="46.38168" lon="-0.35109">
        <ele>58.1599</ele>
        <time>2011-06-02T14:22:07Z</time>
      </trkpt>
      <trkpt lat="46.38167" lon="-0.35109">
        <ele>58.1405</ele>
        <time>2011-06-02T14:22:08Z</time>
      </trkpt>
      <trkpt lat="46.38166" lon="-0.35109">
        <ele>58.1155</ele>
        <time>2011-06-02T14:22:09Z</time>
      </trkpt>
      <trkpt lat="46.38165" lon="-0.3511">
        <ele>58.0776</ele>
        <time>2011-06-02T14:22:10Z</time>
      </trkpt>
      <trkpt lat="46.38164" lon="-0.3511">
        <ele>58.0365</ele>
        <time>2011-06-02T14:22:11Z</time>
      </trkpt>
      <trkpt lat="46.38163" lon="-0.35111">
        <ele>57.9945</ele>
        <time>2011-06-02T14:22:12Z</time>
      </trkpt>
      <trkpt lat="46.38162" lon="-0.35111">
        <ele>57.9609</ele>
        <time>2011-06-02T14:22:13Z</time>
      </trkpt>
      <trkpt lat="46.3816" lon="-0.35111">
        <ele>57.9277</ele>
        <time>2011-06-02T14:22:14Z</time>
      </trkpt>
      <trkpt lat="46.38159" lon="-0.35111">
        <ele>57.8966</ele>
        <time>2011-06-02T14:22:15Z</time>
      </trkpt>
      <trkpt lat="46.38158" lon="-0.35111">
        <ele>57.8752</ele>
        <time>2011-06-02T14:22:16Z</time>
      </trkpt>
      <trkpt lat="46.38157" lon="-0.35112">
        <ele>57.8698</ele>
        <time>2011-06-02T14:22:17Z</time>
      </trkpt>
      <trkpt lat="46.38155" lon="-0.35113">
        <ele>57.8759</ele>
        <time>2011-06-02T14:22:18Z</time>
      </trkpt>
      <trkpt lat="46.38154" lon="-0.35115">
        <ele>57.8984</ele>
        <time>2011-06-02T14:22:19Z</time>
      </trkpt>
      <trkpt lat="46.38152" lon="-0.35117">
        <ele>57.9297</ele>
        <time>2011-06-02T14:22:20Z</time>
      </trkpt>
      <trkpt lat="46.3815" lon="-0.35118">
        <ele>57.956</ele>
        <time>2011-06-02T14:22:21Z</time>
      </trkpt>
      <trkpt lat="46.38149" lon="-0.35118">
        <ele>57.983</ele>
        <time>2011-06-02T14:22:22Z</time>
      </trkpt>
      <trkpt lat="46.38147" lon="-0.35119">
        <ele>58.0035</ele>
        <time>2011-06-02T14:22:23Z</time>
      </trkpt>
      <trkpt lat="46.38146" lon="-0.3512">
        <ele>58.027</ele>
        <time>2011-06-02T14:22:24Z</time>
      </trkpt>
      <trkpt lat="46.38145" lon="-0.35121">
        <ele>58.0515</ele>
        <time>2011-06-02T14:22:25Z</time>
      </trkpt>
      <trkpt lat="46.38144" lon="-0.35121">
        <ele>58.0708</ele>
        <time>2011-06-02T14:22:26Z</time>
      </trkpt>
      <trkpt lat="46.38143" lon="-0.35122">
        <ele>58.0868</ele>
        <time>2011-06-02T14:22:27Z</time>
      </trkpt>
      <trkpt lat="46.38142" lon="-0.35123">
        <ele>58.0975</ele>
        <time>2011-06-02T14:22:28Z</time>
      </trkpt>
      <trkpt lat="46.38141" lon="-0.35124">
        <ele>58.1016</ele>
        <time>2011-06-02T14:22:29Z</time>
      </trkpt>
      <trkpt lat="46.3814" lon="-0.35124">
        <ele>58.1028</ele>
        <time>2011-06-02T14:22:30Z</time>
      </trkpt>
      <trkpt lat="46.38139" lon="-0.35124">
        <ele>58.1082</ele>
        <time>2011-06-02T14:22:31Z</time>
      </trkpt>
      <trkpt lat="46.38138" lon="-0.35124">
        <ele>58.1154</ele>
        <time>2011-06-02T14:22:32Z</time>
      </trkpt>
      <trkpt lat="46.38137" lon="-0.35125">
        <ele>58.1247</ele>
        <time>2011-06-02T14:22:33Z</time>
      </trkpt>
      <trkpt lat="46.38136" lon="-0.35125">
        <ele>58.133</ele>
        <time>2011-06-02T14:22:34Z</time>
      </trkpt>
      <trkpt lat="46.38136" lon="-0.35126">
        <ele>58.1427</ele>
        <time>2011-06-02T14:22:35Z</time>
      </trkpt>
      <trkpt lat="46.38134" lon="-0.35127">
        <ele>58.1549</ele>
        <time>2011-06-02T14:22:36Z</time>
      </trkpt>
      <trkpt lat="46.38133" lon="-0.35127">
        <ele>58.1618</ele>
        <time>2011-06-02T14:22:37Z</time>
      </trkpt>
      <trkpt lat="46.38133" lon="-0.35127">
        <ele>58.1668</ele>
        <time>2011-06-02T14:22:38Z</time>
      </trkpt>
      <trkpt lat="46.38131" lon="-0.35128">
        <ele>58.1761</ele>
        <time>2011-06-02T14:22:39Z</time>
      </trkpt>
      <trkpt lat="46.3813" lon="-0.35128">
        <ele>58.1777</ele>
        <time>2011-06-02T14:22:40Z</time>
      </trkpt>
      <trkpt lat="46.38129" lon="-0.35129">
        <ele>58.1728</ele>
        <time>2011-06-02T14:22:41Z</time>
      </trkpt>
      <trkpt lat="46.38128" lon="-0.35129">
        <ele>58.1595</ele>
        <time>2011-06-02T14:22:42Z</time>
      </trkpt>
      <trkpt lat="46.38127" lon="-0.35129">
        <ele>58.1368</ele>
        <time>2011-06-02T14:22:43Z</time>
      </trkpt>
      <trkpt lat="46.38126" lon="-0.3513">
        <ele>58.1032</ele>
        <time>2011-06-02T14:22:44Z</time>
      </trkpt>
      <trkpt lat="46.38124" lon="-0.3513">
        <ele>58.0659</ele>
        <time>2011-06-02T14:22:45Z</time>
      </trkpt>
      <trkpt lat="46.38123" lon="-0.35131">
        <ele>58.0277</ele>
        <time>2011-06-02T14:22:46Z</time>
      </trkpt>
      <trkpt lat="46.38122" lon="-0.35131">
        <ele>57.99</ele>
        <time>2011-06-02T14:22:47Z</time>
      </trkpt>
      <trkpt lat="46.38121" lon="-0.35132">
        <ele>57.9444</ele>
        <time>2011-06-02T14:22:48Z</time>
      </trkpt>
      <trkpt lat="46.38119" lon="-0.35132">
        <ele>57.8921</ele>
        <time>2011-06-02T14:22:49Z</time>
      </trkpt>
      <trkpt lat="46.38118" lon="-0.35132">
        <ele>57.8344</ele>
        <time>2011-06-02T14:22:50Z</time>
      </trkpt>
      <trkpt lat="46.38117" lon="-0.35133">
        <ele>57.7775</ele>
        <time>2011-06-02T14:22:51Z</time>
      </trkpt>
      <trkpt lat="46.38116" lon="-0.35133">
        <ele>57.7233</ele>
        <time>2011-06-02T14:22:52Z</time>
      </trkpt>
      <trkpt lat="46.38115" lon="-0.35133">
        <ele>57.6694</ele>
        <time>2011-06-02T14:22:53Z</time>
      </trkpt>
      <trkpt lat="46.38114" lon="-0.35134">
        <ele>57.6182</ele>
        <time>2011-06-02T14:22:54Z</time>
      </trkpt>
      <trkpt lat="46.38113" lon="-0.35134">
        <ele>57.5683</ele>
        <time>2011-06-02T14:22:55Z</time>
      </trkpt>
      <trkpt lat="46.38112" lon="-0.35135">
        <ele>57.5254</ele>
        <time>2011-06-02T14:22:56Z</time>
      </trkpt>
      <trkpt lat="46.38111" lon="-0.35135">
        <ele>57.4846</ele>
        <time>2011-06-02T14:22:57Z</time>
      </trkpt>
      <trkpt lat="46.38109" lon="-0.35136">
        <ele>57.4451</ele>
        <time>2011-06-02T14:22:58Z</time>
      </trkpt>
      <trkpt lat="46.38108" lon="-0.35136">
        <ele>57.4089</ele>
        <time>2011-06-02T14:22:59Z</time>
      </trkpt>
      <trkpt lat="46.38106" lon="-0.35137">
        <ele>57.3735</ele>
        <time>2011-06-02T14:23:00Z</time>
      </trkpt>
      <trkpt lat="46.38105" lon="-0.35137">
        <ele>57.3394</ele>
        <time>2011-06-02T14:23:01Z</time>
      </trkpt>
      <trkpt lat="46.38104" lon="-0.35138">
        <ele>57.306</ele>
        <time>2011-06-02T14:23:02Z</time>
      </trkpt>
      <trkpt lat="46.38103" lon="-0.35138">
        <ele>57.2719</ele>
        <time>2011-06-02T14:23:03Z</time>
      </trkpt>
      <trkpt lat="46.38102" lon="-0.35138">
        <ele>57.2354</ele>
        <time>2011-06-02T14:23:04Z</time>
      </trkpt>
      <trkpt lat="46.38101" lon="-0.35139">
        <ele>57.199</ele>
        <time>2011-06-02T14:23:05Z</time>
      </trkpt>
      <trkpt lat="46.381" lon="-0.35139">
        <ele>57.168</ele>
        <time>2011-06-02T14:23:06Z</time>
      </trkpt>
      <trkpt lat="46.38099" lon="-0.35139">
        <ele>57.1348</ele>
        <time>2011-06-02T14:23:07Z</time>
      </trkpt>
      <trkpt lat="46.38097" lon="-0.3514">
        <ele>57.0952</ele>
        <time>2011-06-02T14:23:08Z</time>
      </trkpt>
      <trkpt lat="46.38096" lon="-0.3514">
        <ele>57.0482</ele>
        <time>2011-06-02T14:23:09Z</time>
      </trkpt>
      <trkpt lat="46.38095" lon="-0.3514">
        <ele>57.004</ele>
        <time>2011-06-02T14:23:10Z</time>
      </trkpt>
      <trkpt lat="46.38094" lon="-0.3514">
        <ele>56.9536</ele>
        <time>2011-06-02T14:23:11Z</time>
      </trkpt>
      <trkpt lat="46.38093" lon="-0.3514">
        <ele>56.897</ele>
        <time>2011-06-02T14:23:12Z</time>
      </trkpt>
      <trkpt lat="46.38092" lon="-0.35139">
        <ele>56.8296</ele>
        <time>2011-06-02T14:23:13Z</time>
      </trkpt>
      <trkpt lat="46.3809" lon="-0.35139">
        <ele>56.7648</ele>
        <time>2011-06-02T14:23:14Z</time>
      </trkpt>
      <trkpt lat="46.38089" lon="-0.35139">
        <ele>56.6904</ele>
        <time>2011-06-02T14:23:15Z</time>
      </trkpt>
      <trkpt lat="46.38088" lon="-0.35138">
        <ele>56.6114</ele>
        <time>2011-06-02T14:23:16Z</time>
      </trkpt>
      <trkpt lat="46.38086" lon="-0.35138">
        <ele>56.5283</ele>
        <time>2011-06-02T14:23:17Z</time>
      </trkpt>
      <trkpt lat="46.38084" lon="-0.35138">
        <ele>56.4429</ele>
        <time>2011-06-02T14:23:18Z</time>
      </trkpt>
      <trkpt lat="46.38083" lon="-0.35139">
        <ele>56.3565</ele>
        <time>2011-06-02T14:23:19Z</time>
      </trkpt>
      <trkpt lat="46.38082" lon="-0.35139">
        <ele>56.2715</ele>
        <time>2011-06-02T14:23:20Z</time>
      </trkpt>
      <trkpt lat="46.38081" lon="-0.35139">
        <ele>56.1878</ele>
        <time>2011-06-02T14:23:21Z</time>
      </trkpt>
      <trkpt lat="46.38081" lon="-0.3514">
        <ele>56.1045</ele>
        <time>2011-06-02T14:23:22Z</time>
      </trkpt>
      <trkpt lat="46.3808" lon="-0.35141">
        <ele>56.0231</ele>
        <time>2011-06-02T14:23:23Z</time>
      </trkpt>
      <trkpt lat="46.38079" lon="-0.35142">
        <ele>55.9435</ele>
        <time>2011-06-02T14:23:24Z</time>
      </trkpt>
      <trkpt lat="46.38078" lon="-0.35141">
        <ele>55.8633</ele>
        <time>2011-06-02T14:23:25Z</time>
      </trkpt>
      <trkpt lat="46.38078" lon="-0.35141">
        <ele>55.7851</ele>
        <time>2011-06-02T14:23:26Z</time>
      </trkpt>
      <trkpt lat="46.38077" lon="-0.35141">
        <ele>55.7067</ele>
        <time>2011-06-02T14:23:27Z</time>
      </trkpt>
      <trkpt lat="46.38076" lon="-0.35141">
        <ele>55.6274</ele>
        <time>2011-06-02T14:23:28Z</time>
      </trkpt>
      <trkpt lat="46.38076" lon="-0.35141">
        <ele>55.5518</ele>
        <time>2011-06-02T14:23:29Z</time>
      </trkpt>
      <trkpt lat="46.38075" lon="-0.35142">
        <ele>55.4749</ele>
        <time>2011-06-02T14:23:30Z</time>
      </trkpt>
      <trkpt lat="46.38075" lon="-0.35142">
        <ele>55.3981</ele>
        <time>2011-06-02T14:23:31Z</time>
      </trkpt>
      <trkpt lat="46.38074" lon="-0.35142">
        <ele>55.3236</ele>
        <time>2011-06-02T14:23:32Z</time>
      </trkpt>
      <trkpt lat="46.38073" lon="-0.35142">
        <ele>55.2529</ele>
        <time>2011-06-02T14:23:33Z</time>
      </trkpt>
      <trkpt lat="46.38073" lon="-0.35143">
        <ele>55.1821</ele>
        <time>2011-06-02T14:23:34Z</time>
      </trkpt>
      <trkpt lat="46.38072" lon="-0.35143">
        <ele>55.1119</ele>
        <time>2011-06-02T14:23:35Z</time>
      </trkpt>
      <trkpt lat="46.38071" lon="-0.35143">
        <ele>55.0445</ele>
        <time>2011-06-02T14:23:36Z</time>
      </trkpt>
      <trkpt lat="46.38071" lon="-0.35143">
        <ele>54.9802</ele>
        <time>2011-06-02T14:23:37Z</time>
      </trkpt>
      <trkpt lat="46.3807" lon="-0.35143">
        <ele>54.9175</ele>
        <time>2011-06-02T14:23:38Z</time>
      </trkpt>
      <trkpt lat="46.3807" lon="-0.35143">
        <ele>54.858</ele>
        <time>2011-06-02T14:23:39Z</time>
      </trkpt>
      <trkpt lat="46.38069" lon="-0.35143">
        <ele>54.8015</ele>
        <time>2011-06-02T14:23:40Z</time>
      </trkpt>
      <trkpt lat="46.38068" lon="-0.35143">
        <ele>54.7447</ele>
        <time>2011-06-02T14:23:41Z</time>
      </trkpt>
      <trkpt lat="46.38068" lon="-0.35143">
        <ele>54.6912</ele>
        <time>2011-06-02T14:23:42Z</time>
      </trkpt>
      <trkpt lat="46.38067" lon="-0.35143">
        <ele>54.6411</ele>
        <time>2011-06-02T14:23:43Z</time>
      </trkpt>
      <trkpt lat="46.38067" lon="-0.35143">
        <ele>54.5935</ele>
        <time>2011-06-02T14:23:44Z</time>
      </trkpt>
      <trkpt lat="46.38066" lon="-0.35143">
        <ele>54.5461</ele>
        <time>2011-06-02T14:23:45Z</time>
      </trkpt>
      <trkpt lat="46.38065" lon="-0.35143">
        <ele>54.4954</ele>
        <time>2011-06-02T14:23:46Z</time>
      </trkpt>
      <trkpt lat="46.38064" lon="-0.35143">
        <ele>54.4456</ele>
        <time>2011-06-02T14:23:47Z</time>
      </trkpt>
      <trkpt lat="46.38063" lon="-0.35143">
        <ele>54.3982</ele>
        <time>2011-06-02T14:23:48Z</time>
      </trkpt>
      <trkpt lat="46.38063" lon="-0.35143">
        <ele>54.352</ele>
        <time>2011-06-02T14:23:49Z</time>
      </trkpt>
      <trkpt lat="46.38062" lon="-0.35143">
        <ele>54.3001</ele>
        <time>2011-06-02T14:23:50Z</time>
      </trkpt>
      <trkpt lat="46.38061" lon="-0.35143">
        <ele>54.25</ele>
        <time>2011-06-02T14:23:51Z</time>
      </trkpt>
      <trkpt lat="46.3806" lon="-0.35143">
        <ele>54.1993</ele>
        <time>2011-06-02T14:23:52Z</time>
      </trkpt>
      <trkpt lat="46.38059" lon="-0.35144">
        <ele>54.1464</ele>
        <time>2011-06-02T14:23:53Z</time>
      </trkpt>
      <trkpt lat="46.38059" lon="-0.35144">
        <ele>54.0926</ele>
        <time>2011-06-02T14:23:54Z</time>
      </trkpt>
      <trkpt lat="46.38058" lon="-0.35144">
        <ele>54.0408</ele>
        <time>2011-06-02T14:23:55Z</time>
      </trkpt>
      <trkpt lat="46.38057" lon="-0.35144">
        <ele>53.9859</ele>
        <time>2011-06-02T14:23:56Z</time>
      </trkpt>
      <trkpt lat="46.38056" lon="-0.35145">
        <ele>53.9272</ele>
        <time>2011-06-02T14:23:57Z</time>
      </trkpt>
      <trkpt lat="46.38055" lon="-0.35145">
        <ele>53.8723</ele>
        <time>2011-06-02T14:23:58Z</time>
      </trkpt>
      <trkpt lat="46.38054" lon="-0.35145">
        <ele>53.8191</ele>
        <time>2011-06-02T14:23:59Z</time>
      </trkpt>
      <trkpt lat="46.38054" lon="-0.35146">
        <ele>53.7679</ele>
        <time>2011-06-02T14:24:00Z</time>
      </trkpt>
      <trkpt lat="46.38052" lon="-0.35146">
        <ele>53.7175</ele>
        <time>2011-06-02T14:24:01Z</time>
      </trkpt>
      <trkpt lat="46.38052" lon="-0.35146">
        <ele>53.6503</ele>
        <time>2011-06-02T14:24:02Z</time>
      </trkpt>
      <trkpt lat="46.38051" lon="-0.35146">
        <ele>53.5633</ele>
        <time>2011-06-02T14:24:03Z</time>
      </trkpt>
      <trkpt lat="46.38049" lon="-0.35146">
        <ele>53.4668</ele>
        <time>2011-06-02T14:24:04Z</time>
      </trkpt>
      <trkpt lat="46.38048" lon="-0.35147">
        <ele>53.3737</ele>
        <time>2011-06-02T14:24:05Z</time>
      </trkpt>
      <trkpt lat="46.38047" lon="-0.35147">
        <ele>53.2829</ele>
        <time>2011-06-02T14:24:06Z</time>
      </trkpt>
      <trkpt lat="46.38046" lon="-0.35148">
        <ele>53.1872</ele>
        <time>2011-06-02T14:24:07Z</time>
      </trkpt>
      <trkpt lat="46.38045" lon="-0.35148">
        <ele>53.0921</ele>
        <time>2011-06-02T14:24:08Z</time>
      </trkpt>
      <trkpt lat="46.38044" lon="-0.35148">
        <ele>52.9983</ele>
        <time>2011-06-02T14:24:09Z</time>
      </trkpt>
      <trkpt lat="46.38042" lon="-0.35148">
        <ele>52.906</ele>
        <time>2011-06-02T14:24:10Z</time>
      </trkpt>
      <trkpt lat="46.38041" lon="-0.35149">
        <ele>52.8129</ele>
        <time>2011-06-02T14:24:11Z</time>
      </trkpt>
      <trkpt lat="46.38041" lon="-0.35148">
        <ele>52.725</ele>
        <time>2011-06-02T14:24:12Z</time>
      </trkpt>
      <trkpt lat="46.38039" lon="-0.35148">
        <ele>52.6363</ele>
        <time>2011-06-02T14:24:13Z</time>
      </trkpt>
      <trkpt lat="46.38038" lon="-0.35148">
        <ele>52.5461</ele>
        <time>2011-06-02T14:24:14Z</time>
      </trkpt>
      <trkpt lat="46.38037" lon="-0.35148">
        <ele>52.4539</ele>
        <time>2011-06-02T14:24:15Z</time>
      </trkpt>
      <trkpt lat="46.38036" lon="-0.35148">
        <ele>52.3616</ele>
        <time>2011-06-02T14:24:16Z</time>
      </trkpt>
      <trkpt lat="46.38034" lon="-0.35149">
        <ele>52.2724</ele>
        <time>2011-06-02T14:24:17Z</time>
      </trkpt>
      <trkpt lat="46.38033" lon="-0.35149">
        <ele>52.1807</ele>
        <time>2011-06-02T14:24:18Z</time>
      </trkpt>
      <trkpt lat="46.38032" lon="-0.3515">
        <ele>52.0778</ele>
        <time>2011-06-02T14:24:19Z</time>
      </trkpt>
      <trkpt lat="46.38031" lon="-0.35151">
        <ele>51.9778</ele>
        <time>2011-06-02T14:24:20Z</time>
      </trkpt>
      <trkpt lat="46.3803" lon="-0.35151">
        <ele>51.867</ele>
        <time>2011-06-02T14:24:21Z</time>
      </trkpt>
      <trkpt lat="46.38029" lon="-0.35152">
        <ele>51.7524</ele>
        <time>2011-06-02T14:24:22Z</time>
      </trkpt>
      <trkpt lat="46.38028" lon="-0.35153">
        <ele>51.6405</ele>
        <time>2011-06-02T14:24:23Z</time>
      </trkpt>
      <trkpt lat="46.38026" lon="-0.35154">
        <ele>51.5295</ele>
        <time>2011-06-02T14:24:24Z</time>
      </trkpt>
      <trkpt lat="46.38025" lon="-0.35154">
        <ele>51.4196</ele>
        <time>2011-06-02T14:24:25Z</time>
      </trkpt>
      <trkpt lat="46.38025" lon="-0.35155">
        <ele>51.3148</ele>
        <time>2011-06-02T14:24:26Z</time>
      </trkpt>
      <trkpt lat="46.38024" lon="-0.35155">
        <ele>51.215</ele>
        <time>2011-06-02T14:24:27Z</time>
      </trkpt>
      <trkpt lat="46.38023" lon="-0.35156">
        <ele>51.1164</ele>
        <time>2011-06-02T14:24:28Z</time>
      </trkpt>
      <trkpt lat="46.38022" lon="-0.35156">
        <ele>51.0181</ele>
        <time>2011-06-02T14:24:29Z</time>
      </trkpt>
      <trkpt lat="46.38022" lon="-0.35156">
        <ele>50.9228</ele>
        <time>2011-06-02T14:24:30Z</time>
      </trkpt>
      <trkpt lat="46.38021" lon="-0.35157">
        <ele>50.8313</ele>
        <time>2011-06-02T14:24:31Z</time>
      </trkpt>
      <trkpt lat="46.3802" lon="-0.35157">
        <ele>50.7433</ele>
        <time>2011-06-02T14:24:32Z</time>
      </trkpt>
      <trkpt lat="46.38018" lon="-0.35157">
        <ele>50.6693</ele>
        <time>2011-06-02T14:24:33Z</time>
      </trkpt>
      <trkpt lat="46.38018" lon="-0.35158">
        <ele>50.6047</ele>
        <time>2011-06-02T14:24:34Z</time>
      </trkpt>
      <trkpt lat="46.38016" lon="-0.35159">
        <ele>50.5381</ele>
        <time>2011-06-02T14:24:35Z</time>
      </trkpt>
      <trkpt lat="46.38015" lon="-0.3516">
        <ele>50.4537</ele>
        <time>2011-06-02T14:24:36Z</time>
      </trkpt>
      <trkpt lat="46.38014" lon="-0.35161">
        <ele>50.3645</ele>
        <time>2011-06-02T14:24:37Z</time>
      </trkpt>
      <trkpt lat="46.38013" lon="-0.35162">
        <ele>50.2815</ele>
        <time>2011-06-02T14:24:38Z</time>
      </trkpt>
      <trkpt lat="46.38012" lon="-0.35162">
        <ele>50.1949</ele>
        <time>2011-06-02T14:24:39Z</time>
      </trkpt>
      <trkpt lat="46.38012" lon="-0.35163">
        <ele>50.1082</ele>
        <time>2011-06-02T14:24:40Z</time>
      </trkpt>
      <trkpt lat="46.38011" lon="-0.35163">
        <ele>50.012</ele>
        <time>2011-06-02T14:24:41Z</time>
      </trkpt>
      <trkpt lat="46.3801" lon="-0.35164">
        <ele>49.9212</ele>
        <time>2011-06-02T14:24:42Z</time>
      </trkpt>
      <trkpt lat="46.38008" lon="-0.35165">
        <ele>49.693</ele>
        <time>2011-06-02T14:24:46Z</time>
      </trkpt>
      <trkpt lat="46.38007" lon="-0.35165">
        <ele>49.5925</ele>
        <time>2011-06-02T14:24:47Z</time>
      </trkpt>
      <trkpt lat="46.38006" lon="-0.35165">
        <ele>49.4982</ele>
        <time>2011-06-02T14:24:48Z</time>
      </trkpt>
      <trkpt lat="46.38005" lon="-0.35165">
        <ele>49.4023</ele>
        <time>2011-06-02T14:24:49Z</time>
      </trkpt>
      <trkpt lat="46.38004" lon="-0.35165">
        <ele>49.3116</ele>
        <time>2011-06-02T14:24:50Z</time>
      </trkpt>
      <trkpt lat="46.38003" lon="-0.35165">
        <ele>49.2271</ele>
        <time>2011-06-02T14:24:51Z</time>
      </trkpt>
      <trkpt lat="46.38002" lon="-0.35165">
        <ele>49.1434</ele>
        <time>2011-06-02T14:24:52Z</time>
      </trkpt>
      <trkpt lat="46.38001" lon="-0.35165">
        <ele>49.0509</ele>
        <time>2011-06-02T14:24:53Z</time>
      </trkpt>
      <trkpt lat="46.38001" lon="-0.35165">
        <ele>48.9577</ele>
        <time>2011-06-02T14:24:54Z</time>
      </trkpt>
      <trkpt lat="46.38" lon="-0.35165">
        <ele>48.8677</ele>
        <time>2011-06-02T14:24:55Z</time>
      </trkpt>
      <trkpt lat="46.37999" lon="-0.35165">
        <ele>48.7818</ele>
        <time>2011-06-02T14:24:56Z</time>
      </trkpt>
      <trkpt lat="46.37997" lon="-0.35165">
        <ele>48.6954</ele>
        <time>2011-06-02T14:24:57Z</time>
      </trkpt>
      <trkpt lat="46.37996" lon="-0.35165">
        <ele>48.61</ele>
        <time>2011-06-02T14:24:58Z</time>
      </trkpt>
      <trkpt lat="46.37995" lon="-0.35166">
        <ele>48.5149</ele>
        <time>2011-06-02T14:24:59Z</time>
      </trkpt>
      <trkpt lat="46.37994" lon="-0.35166">
        <ele>48.4251</ele>
        <time>2011-06-02T14:25:00Z</time>
      </trkpt>
      <trkpt lat="46.37993" lon="-0.35166">
        <ele>48.3357</ele>
        <time>2011-06-02T14:25:01Z</time>
      </trkpt>
      <trkpt lat="46.37991" lon="-0.35166">
        <ele>48.2388</ele>
        <time>2011-06-02T14:25:02Z</time>
      </trkpt>
      <trkpt lat="46.3799" lon="-0.35167">
        <ele>48.1471</ele>
        <time>2011-06-02T14:25:03Z</time>
      </trkpt>
      <trkpt lat="46.37989" lon="-0.35167">
        <ele>48.0563</ele>
        <time>2011-06-02T14:25:04Z</time>
      </trkpt>
      <trkpt lat="46.37988" lon="-0.35168">
        <ele>47.9629</ele>
        <time>2011-06-02T14:25:05Z</time>
      </trkpt>
      <trkpt lat="46.37987" lon="-0.35168">
        <ele>47.8707</ele>
        <time>2011-06-02T14:25:06Z</time>
      </trkpt>
      <trkpt lat="46.37986" lon="-0.35168">
        <ele>47.782</ele>
        <time>2011-06-02T14:25:07Z</time>
      </trkpt>
      <trkpt lat="46.37985" lon="-0.35169">
        <ele>47.6928</ele>
        <time>2011-06-02T14:25:08Z</time>
      </trkpt>
      <trkpt lat="46.37985" lon="-0.35169">
        <ele>47.6075</ele>
        <time>2011-06-02T14:25:09Z</time>
      </trkpt>
      <trkpt lat="46.37984" lon="-0.3517">
        <ele>47.5261</ele>
        <time>2011-06-02T14:25:10Z</time>
      </trkpt>
      <trkpt lat="46.37983" lon="-0.3517">
        <ele>47.4446</ele>
        <time>2011-06-02T14:25:11Z</time>
      </trkpt>
      <trkpt lat="46.37982" lon="-0.3517">
        <ele>47.3637</ele>
        <time>2011-06-02T14:25:12Z</time>
      </trkpt>
      <trkpt lat="46.37981" lon="-0.3517">
        <ele>47.2702</ele>
        <time>2011-06-02T14:25:13Z</time>
      </trkpt>
      <trkpt lat="46.3798" lon="-0.3517">
        <ele>47.177</ele>
        <time>2011-06-02T14:25:14Z</time>
      </trkpt>
      <trkpt lat="46.37979" lon="-0.3517">
        <ele>47.082</ele>
        <time>2011-06-02T14:25:15Z</time>
      </trkpt>
      <trkpt lat="46.37978" lon="-0.35169">
        <ele>46.9855</ele>
        <time>2011-06-02T14:25:16Z</time>
      </trkpt>
      <trkpt lat="46.37977" lon="-0.35169">
        <ele>46.8938</ele>
        <time>2011-06-02T14:25:17Z</time>
      </trkpt>
      <trkpt lat="46.37975" lon="-0.35169">
        <ele>46.8044</ele>
        <time>2011-06-02T14:25:18Z</time>
      </trkpt>
      <trkpt lat="46.37975" lon="-0.35169">
        <ele>46.7184</ele>
        <time>2011-06-02T14:25:19Z</time>
      </trkpt>
      <trkpt lat="46.37973" lon="-0.3517">
        <ele>46.6525</ele>
        <time>2011-06-02T14:25:20Z</time>
      </trkpt>
      <trkpt lat="46.37972" lon="-0.35171">
        <ele>46.5802</ele>
        <time>2011-06-02T14:25:21Z</time>
      </trkpt>
      <trkpt lat="46.37971" lon="-0.35171">
        <ele>46.5091</ele>
        <time>2011-06-02T14:25:22Z</time>
      </trkpt>
      <trkpt lat="46.3797" lon="-0.35171">
        <ele>46.4345</ele>
        <time>2011-06-02T14:25:23Z</time>
      </trkpt>
      <trkpt lat="46.37969" lon="-0.35171">
        <ele>46.3718</ele>
        <time>2011-06-02T14:25:24Z</time>
      </trkpt>
      <trkpt lat="46.37968" lon="-0.35171">
        <ele>46.3749</ele>
        <time>2011-06-02T14:25:25Z</time>
      </trkpt>
      <trkpt lat="46.37966" lon="-0.35173">
        <ele>46.385</ele>
        <time>2011-06-02T14:25:26Z</time>
      </trkpt>
      <trkpt lat="46.37964" lon="-0.35174">
        <ele>46.3735</ele>
        <time>2011-06-02T14:25:27Z</time>
      </trkpt>
      <trkpt lat="46.37962" lon="-0.35175">
        <ele>46.3219</ele>
        <time>2011-06-02T14:25:28Z</time>
      </trkpt>
      <trkpt lat="46.37959" lon="-0.35175">
        <ele>46.2261</ele>
        <time>2011-06-02T14:25:29Z</time>
      </trkpt>
      <trkpt lat="46.37954" lon="-0.35175">
        <ele>46.1727</ele>
        <time>2011-06-02T14:25:33Z</time>
      </trkpt>
      <trkpt lat="46.37951" lon="-0.35175">
        <ele>45.8895</ele>
        <time>2011-06-02T14:25:36Z</time>
      </trkpt>
      <trkpt lat="46.37951" lon="-0.35176">
        <ele>45.7542</ele>
        <time>2011-06-02T14:25:37Z</time>
      </trkpt>
      <trkpt lat="46.37949" lon="-0.35176">
        <ele>45.6209</ele>
        <time>2011-06-02T14:25:38Z</time>
      </trkpt>
      <trkpt lat="46.37949" lon="-0.35177">
        <ele>45.4917</ele>
        <time>2011-06-02T14:25:39Z</time>
      </trkpt>
      <trkpt lat="46.37949" lon="-0.35178">
        <ele>45.3668</ele>
        <time>2011-06-02T14:25:40Z</time>
      </trkpt>
      <trkpt lat="46.37951" lon="-0.3518">
        <ele>44.4747</ele>
        <time>2011-06-02T14:25:59Z</time>
      </trkpt>
      <trkpt lat="46.37952" lon="-0.3518">
        <ele>44.2861</ele>
        <time>2011-06-02T14:26:00Z</time>
      </trkpt>
      <trkpt lat="46.37951" lon="-0.3518">
        <ele>44.1039</ele>
        <time>2011-06-02T14:26:01Z</time>
      </trkpt>
      <trkpt lat="46.37951" lon="-0.35181">
        <ele>43.9239</ele>
        <time>2011-06-02T14:26:02Z</time>
      </trkpt>
      <trkpt lat="46.3795" lon="-0.35181">
        <ele>43.7476</ele>
        <time>2011-06-02T14:26:03Z</time>
      </trkpt>
      <trkpt lat="46.37949" lon="-0.35181">
        <ele>43.57</ele>
        <time>2011-06-02T14:26:04Z</time>
      </trkpt>
      <trkpt lat="46.37948" lon="-0.35181">
        <ele>43.3924</ele>
        <time>2011-06-02T14:26:05Z</time>
      </trkpt>
      <trkpt lat="46.37947" lon="-0.35181">
        <ele>43.2239</ele>
        <time>2011-06-02T14:26:06Z</time>
      </trkpt>
      <trkpt lat="46.37946" lon="-0.35181">
        <ele>43.0509</ele>
        <time>2011-06-02T14:26:07Z</time>
      </trkpt>
      <trkpt lat="46.37945" lon="-0.35182">
        <ele>43.0509</ele>
        <time>2011-06-02T14:26:08Z</time>
      </trkpt>
      <trkpt lat="46.37944" lon="-0.35181">
        <ele>42.8834</ele>
        <time>2011-06-02T14:26:09Z</time>
      </trkpt>
      <trkpt lat="46.37943" lon="-0.35181">
        <ele>42.7181</ele>
        <time>2011-06-02T14:26:10Z</time>
      </trkpt>
      <trkpt lat="46.37941" lon="-0.3518">
        <ele>42.5572</ele>
        <time>2011-06-02T14:26:11Z</time>
      </trkpt>
      <trkpt lat="46.3794" lon="-0.3518">
        <ele>42.3985</ele>
        <time>2011-06-02T14:26:12Z</time>
      </trkpt>
      <trkpt lat="46.37939" lon="-0.35179">
        <ele>42.2389</ele>
        <time>2011-06-02T14:26:13Z</time>
      </trkpt>
      <trkpt lat="46.37938" lon="-0.3518">
        <ele>42.0842</ele>
        <time>2011-06-02T14:26:14Z</time>
      </trkpt>
      <trkpt lat="46.37937" lon="-0.3518">
        <ele>41.9381</ele>
        <time>2011-06-02T14:26:15Z</time>
      </trkpt>
      <trkpt lat="46.37937" lon="-0.3518">
        <ele>41.8008</ele>
        <time>2011-06-02T14:26:16Z</time>
      </trkpt>
      <trkpt lat="46.37936" lon="-0.3518">
        <ele>41.6681</ele>
        <time>2011-06-02T14:26:17Z</time>
      </trkpt>
      <trkpt lat="46.37935" lon="-0.3518">
        <ele>41.5388</ele>
        <time>2011-06-02T14:26:18Z</time>
      </trkpt>
      <trkpt lat="46.37934" lon="-0.3518">
        <ele>41.4176</ele>
        <time>2011-06-02T14:26:19Z</time>
      </trkpt>
      <trkpt lat="46.37933" lon="-0.35181">
        <ele>41.2985</ele>
        <time>2011-06-02T14:26:20Z</time>
      </trkpt>
      <trkpt lat="46.37933" lon="-0.35181">
        <ele>41.1832</ele>
        <time>2011-06-02T14:26:21Z</time>
      </trkpt>
      <trkpt lat="46.37932" lon="-0.35181">
        <ele>41.07</ele>
        <time>2011-06-02T14:26:22Z</time>
      </trkpt>
      <trkpt lat="46.37931" lon="-0.35181">
        <ele>40.9624</ele>
        <time>2011-06-02T14:26:23Z</time>
      </trkpt>
      <trkpt lat="46.37931" lon="-0.35181">
        <ele>40.8555</ele>
        <time>2011-06-02T14:26:24Z</time>
      </trkpt>
      <trkpt lat="46.3793" lon="-0.35181">
        <ele>40.7521</ele>
        <time>2011-06-02T14:26:25Z</time>
      </trkpt>
      <trkpt lat="46.3793" lon="-0.35181">
        <ele>40.6503</ele>
        <time>2011-06-02T14:26:26Z</time>
      </trkpt>
      <trkpt lat="46.37928" lon="-0.35182">
        <ele>40.5497</ele>
        <time>2011-06-02T14:26:27Z</time>
      </trkpt>
      <trkpt lat="46.37928" lon="-0.35182">
        <ele>40.4484</ele>
        <time>2011-06-02T14:26:28Z</time>
      </trkpt>
      <trkpt lat="46.37927" lon="-0.35182">
        <ele>40.3449</ele>
        <time>2011-06-02T14:26:29Z</time>
      </trkpt>
      <trkpt lat="46.37926" lon="-0.35183">
        <ele>40.2441</ele>
        <time>2011-06-02T14:26:30Z</time>
      </trkpt>
      <trkpt lat="46.37925" lon="-0.35184">
        <ele>40.1381</ele>
        <time>2011-06-02T14:26:31Z</time>
      </trkpt>
      <trkpt lat="46.37924" lon="-0.35184">
        <ele>40.0278</ele>
        <time>2011-06-02T14:26:32Z</time>
      </trkpt>
      <trkpt lat="46.37923" lon="-0.35184">
        <ele>39.9196</ele>
        <time>2011-06-02T14:26:33Z</time>
      </trkpt>
      <trkpt lat="46.37922" lon="-0.35185">
        <ele>39.8169</ele>
        <time>2011-06-02T14:26:34Z</time>
      </trkpt>
      <trkpt lat="46.37922" lon="-0.35186">
        <ele>39.7178</ele>
        <time>2011-06-02T14:26:35Z</time>
      </trkpt>
      <trkpt lat="46.3792" lon="-0.35186">
        <ele>39.627</ele>
        <time>2011-06-02T14:26:36Z</time>
      </trkpt>
      <trkpt lat="46.3792" lon="-0.35187">
        <ele>39.5389</ele>
        <time>2011-06-02T14:26:37Z</time>
      </trkpt>
      <trkpt lat="46.37919" lon="-0.35188">
        <ele>39.4553</ele>
        <time>2011-06-02T14:26:38Z</time>
      </trkpt>
      <trkpt lat="46.37918" lon="-0.35188">
        <ele>39.3756</ele>
        <time>2011-06-02T14:26:39Z</time>
      </trkpt>
      <trkpt lat="46.37917" lon="-0.35188">
        <ele>39.3005</ele>
        <time>2011-06-02T14:26:40Z</time>
      </trkpt>
      <trkpt lat="46.37917" lon="-0.35188">
        <ele>39.2285</ele>
        <time>2011-06-02T14:26:41Z</time>
      </trkpt>
      <trkpt lat="46.37915" lon="-0.35188">
        <ele>39.1574</ele>
        <time>2011-06-02T14:26:42Z</time>
      </trkpt>
      <trkpt lat="46.37915" lon="-0.35189">
        <ele>39.0898</ele>
        <time>2011-06-02T14:26:43Z</time>
      </trkpt>
      <trkpt lat="46.37914" lon="-0.3519">
        <ele>39.023</ele>
        <time>2011-06-02T14:26:44Z</time>
      </trkpt>
      <trkpt lat="46.37913" lon="-0.3519">
        <ele>38.9658</ele>
        <time>2011-06-02T14:26:45Z</time>
      </trkpt>
      <trkpt lat="46.37912" lon="-0.3519">
        <ele>38.9164</ele>
        <time>2011-06-02T14:26:46Z</time>
      </trkpt>
      <trkpt lat="46.37911" lon="-0.3519">
        <ele>38.8606</ele>
        <time>2011-06-02T14:26:47Z</time>
      </trkpt>
      <trkpt lat="46.37909" lon="-0.3519">
        <ele>38.8099</ele>
        <time>2011-06-02T14:26:48Z</time>
      </trkpt>
      <trkpt lat="46.37908" lon="-0.3519">
        <ele>38.7633</ele>
        <time>2011-06-02T14:26:49Z</time>
      </trkpt>
      <trkpt lat="46.37907" lon="-0.35191">
        <ele>38.7179</ele>
        <time>2011-06-02T14:26:50Z</time>
      </trkpt>
      <trkpt lat="46.37906" lon="-0.35191">
        <ele>38.6783</ele>
        <time>2011-06-02T14:26:51Z</time>
      </trkpt>
      <trkpt lat="46.37905" lon="-0.35192">
        <ele>38.6328</ele>
        <time>2011-06-02T14:26:52Z</time>
      </trkpt>
      <trkpt lat="46.37904" lon="-0.35192">
        <ele>38.5911</ele>
        <time>2011-06-02T14:26:53Z</time>
      </trkpt>
      <trkpt lat="46.37903" lon="-0.35193">
        <ele>38.5455</ele>
        <time>2011-06-02T14:26:54Z</time>
      </trkpt>
      <trkpt lat="46.37902" lon="-0.35193">
        <ele>38.4888</ele>
        <time>2011-06-02T14:26:55Z</time>
      </trkpt>
      <trkpt lat="46.379" lon="-0.35193">
        <ele>38.4344</ele>
        <time>2011-06-02T14:26:56Z</time>
      </trkpt>
      <trkpt lat="46.37899" lon="-0.35194">
        <ele>38.3812</ele>
        <time>2011-06-02T14:26:57Z</time>
      </trkpt>
      <trkpt lat="46.37898" lon="-0.35194">
        <ele>38.3258</ele>
        <time>2011-06-02T14:26:58Z</time>
      </trkpt>
      <trkpt lat="46.37897" lon="-0.35195">
        <ele>38.2666</ele>
        <time>2011-06-02T14:26:59Z</time>
      </trkpt>
      <trkpt lat="46.37896" lon="-0.35195">
        <ele>38.2078</ele>
        <time>2011-06-02T14:27:00Z</time>
      </trkpt>
      <trkpt lat="46.37896" lon="-0.35196">
        <ele>38.1503</ele>
        <time>2011-06-02T14:27:01Z</time>
      </trkpt>
      <trkpt lat="46.37895" lon="-0.35196">
        <ele>38.0848</ele>
        <time>2011-06-02T14:27:02Z</time>
      </trkpt>
      <trkpt lat="46.37894" lon="-0.35197">
        <ele>38.0236</ele>
        <time>2011-06-02T14:27:03Z</time>
      </trkpt>
      <trkpt lat="46.37893" lon="-0.35198">
        <ele>37.9544</ele>
        <time>2011-06-02T14:27:04Z</time>
      </trkpt>
      <trkpt lat="46.37892" lon="-0.35199">
        <ele>37.8876</ele>
        <time>2011-06-02T14:27:05Z</time>
      </trkpt>
      <trkpt lat="46.37891" lon="-0.35199">
        <ele>37.8231</ele>
        <time>2011-06-02T14:27:06Z</time>
      </trkpt>
      <trkpt lat="46.3789" lon="-0.352">
        <ele>37.7645</ele>
        <time>2011-06-02T14:27:07Z</time>
      </trkpt>
      <trkpt lat="46.37889" lon="-0.352">
        <ele>37.7005</ele>
        <time>2011-06-02T14:27:08Z</time>
      </trkpt>
      <trkpt lat="46.37888" lon="-0.35201">
        <ele>37.6318</ele>
        <time>2011-06-02T14:27:09Z</time>
      </trkpt>
      <trkpt lat="46.37887" lon="-0.35201">
        <ele>37.5662</ele>
        <time>2011-06-02T14:27:10Z</time>
      </trkpt>
      <trkpt lat="46.37885" lon="-0.35201">
        <ele>37.5004</ele>
        <time>2011-06-02T14:27:11Z</time>
      </trkpt>
      <trkpt lat="46.37884" lon="-0.35202">
        <ele>37.4346</ele>
        <time>2011-06-02T14:27:12Z</time>
      </trkpt>
      <trkpt lat="46.37883" lon="-0.35202">
        <ele>37.3644</ele>
        <time>2011-06-02T14:27:13Z</time>
      </trkpt>
      <trkpt lat="46.37882" lon="-0.35203">
        <ele>37.2884</ele>
        <time>2011-06-02T14:27:14Z</time>
      </trkpt>
      <trkpt lat="46.37881" lon="-0.35204">
        <ele>37.2088</ele>
        <time>2011-06-02T14:27:15Z</time>
      </trkpt>
      <trkpt lat="46.3788" lon="-0.35205">
        <ele>37.1351</ele>
        <time>2011-06-02T14:27:16Z</time>
      </trkpt>
      <trkpt lat="46.37878" lon="-0.35205">
        <ele>37.0662</ele>
        <time>2011-06-02T14:27:17Z</time>
      </trkpt>
      <trkpt lat="46.37877" lon="-0.35206">
        <ele>36.9997</ele>
        <time>2011-06-02T14:27:18Z</time>
      </trkpt>
      <trkpt lat="46.37876" lon="-0.35206">
        <ele>36.9441</ele>
        <time>2011-06-02T14:27:19Z</time>
      </trkpt>
      <trkpt lat="46.37875" lon="-0.35206">
        <ele>36.8914</ele>
        <time>2011-06-02T14:27:20Z</time>
      </trkpt>
      <trkpt lat="46.37874" lon="-0.35206">
        <ele>36.8455</ele>
        <time>2011-06-02T14:27:21Z</time>
      </trkpt>
      <trkpt lat="46.37873" lon="-0.35207">
        <ele>36.7974</ele>
        <time>2011-06-02T14:27:22Z</time>
      </trkpt>
      <trkpt lat="46.37872" lon="-0.35207">
        <ele>36.7519</ele>
        <time>2011-06-02T14:27:23Z</time>
      </trkpt>
      <trkpt lat="46.3787" lon="-0.35208">
        <ele>36.7108</ele>
        <time>2011-06-02T14:27:24Z</time>
      </trkpt>
      <trkpt lat="46.37869" lon="-0.35208">
        <ele>36.6721</ele>
        <time>2011-06-02T14:27:25Z</time>
      </trkpt>
      <trkpt lat="46.37868" lon="-0.35208">
        <ele>36.6351</ele>
        <time>2011-06-02T14:27:26Z</time>
      </trkpt>
      <trkpt lat="46.37867" lon="-0.35209">
        <ele>36.5925</ele>
        <time>2011-06-02T14:27:27Z</time>
      </trkpt>
      <trkpt lat="46.37866" lon="-0.3521">
        <ele>36.558</ele>
        <time>2011-06-02T14:27:28Z</time>
      </trkpt>
      <trkpt lat="46.37865" lon="-0.3521">
        <ele>36.526</ele>
        <time>2011-06-02T14:27:29Z</time>
      </trkpt>
      <trkpt lat="46.37864" lon="-0.35211">
        <ele>36.4933</ele>
        <time>2011-06-02T14:27:30Z</time>
      </trkpt>
      <trkpt lat="46.37862" lon="-0.35211">
        <ele>36.4609</ele>
        <time>2011-06-02T14:27:31Z</time>
      </trkpt>
      <trkpt lat="46.37862" lon="-0.35212">
        <ele>36.4291</ele>
        <time>2011-06-02T14:27:32Z</time>
      </trkpt>
      <trkpt lat="46.37861" lon="-0.35211">
        <ele>36.3919</ele>
        <time>2011-06-02T14:27:33Z</time>
      </trkpt>
      <trkpt lat="46.37859" lon="-0.35211">
        <ele>36.348</ele>
        <time>2011-06-02T14:27:34Z</time>
      </trkpt>
      <trkpt lat="46.37858" lon="-0.35211">
        <ele>36.3051</ele>
        <time>2011-06-02T14:27:35Z</time>
      </trkpt>
      <trkpt lat="46.37857" lon="-0.35211">
        <ele>36.2626</ele>
        <time>2011-06-02T14:27:36Z</time>
      </trkpt>
      <trkpt lat="46.37855" lon="-0.35211">
        <ele>36.222</ele>
        <time>2011-06-02T14:27:37Z</time>
      </trkpt>
      <trkpt lat="46.37854" lon="-0.35212">
        <ele>36.1861</ele>
        <time>2011-06-02T14:27:38Z</time>
      </trkpt>
      <trkpt lat="46.37853" lon="-0.35212">
        <ele>36.1533</ele>
        <time>2011-06-02T14:27:39Z</time>
      </trkpt>
      <trkpt lat="46.37852" lon="-0.35213">
        <ele>36.1241</ele>
        <time>2011-06-02T14:27:40Z</time>
      </trkpt>
      <trkpt lat="46.37851" lon="-0.35213">
        <ele>36.0995</ele>
        <time>2011-06-02T14:27:41Z</time>
      </trkpt>
      <trkpt lat="46.37849" lon="-0.35213">
        <ele>36.0795</ele>
        <time>2011-06-02T14:27:42Z</time>
      </trkpt>
      <trkpt lat="46.37849" lon="-0.35213">
        <ele>36.0637</ele>
        <time>2011-06-02T14:27:43Z</time>
      </trkpt>
      <trkpt lat="46.37848" lon="-0.35214">
        <ele>36.0552</ele>
        <time>2011-06-02T14:27:44Z</time>
      </trkpt>
      <trkpt lat="46.37846" lon="-0.35214">
        <ele>36.0454</ele>
        <time>2011-06-02T14:27:45Z</time>
      </trkpt>
      <trkpt lat="46.37845" lon="-0.35215">
        <ele>36.0342</ele>
        <time>2011-06-02T14:27:46Z</time>
      </trkpt>
      <trkpt lat="46.37845" lon="-0.35216">
        <ele>36.0236</ele>
        <time>2011-06-02T14:27:47Z</time>
      </trkpt>
      <trkpt lat="46.37843" lon="-0.35217">
        <ele>36.0092</ele>
        <time>2011-06-02T14:27:48Z</time>
      </trkpt>
      <trkpt lat="46.37843" lon="-0.35218">
        <ele>35.9994</ele>
        <time>2011-06-02T14:27:49Z</time>
      </trkpt>
      <trkpt lat="46.37841" lon="-0.35218">
        <ele>35.9924</ele>
        <time>2011-06-02T14:27:50Z</time>
      </trkpt>
      <trkpt lat="46.37841" lon="-0.35219">
        <ele>35.9838</ele>
        <time>2011-06-02T14:27:51Z</time>
      </trkpt>
      <trkpt lat="46.3784" lon="-0.3522">
        <ele>35.9731</ele>
        <time>2011-06-02T14:27:52Z</time>
      </trkpt>
      <trkpt lat="46.37839" lon="-0.3522">
        <ele>35.9643</ele>
        <time>2011-06-02T14:27:53Z</time>
      </trkpt>
      <trkpt lat="46.37838" lon="-0.35221">
        <ele>35.9598</ele>
        <time>2011-06-02T14:27:54Z</time>
      </trkpt>
      <trkpt lat="46.37837" lon="-0.35221">
        <ele>35.9547</ele>
        <time>2011-06-02T14:27:55Z</time>
      </trkpt>
      <trkpt lat="46.37835" lon="-0.35222">
        <ele>35.9502</ele>
        <time>2011-06-02T14:27:56Z</time>
      </trkpt>
      <trkpt lat="46.37834" lon="-0.35222">
        <ele>35.9506</ele>
        <time>2011-06-02T14:27:57Z</time>
      </trkpt>
      <trkpt lat="46.37833" lon="-0.35222">
        <ele>35.9505</ele>
        <time>2011-06-02T14:27:58Z</time>
      </trkpt>
      <trkpt lat="46.37832" lon="-0.35222">
        <ele>35.9482</ele>
        <time>2011-06-02T14:27:59Z</time>
      </trkpt>
      <trkpt lat="46.37831" lon="-0.35222">
        <ele>35.9499</ele>
        <time>2011-06-02T14:28:00Z</time>
      </trkpt>
      <trkpt lat="46.37829" lon="-0.35222">
        <ele>35.953</ele>
        <time>2011-06-02T14:28:01Z</time>
      </trkpt>
      <trkpt lat="46.37828" lon="-0.35223">
        <ele>35.9436</ele>
        <time>2011-06-02T14:28:02Z</time>
      </trkpt>
      <trkpt lat="46.37827" lon="-0.35223">
        <ele>35.9233</ele>
        <time>2011-06-02T14:28:03Z</time>
      </trkpt>
      <trkpt lat="46.37826" lon="-0.35224">
        <ele>35.9058</ele>
        <time>2011-06-02T14:28:04Z</time>
      </trkpt>
      <trkpt lat="46.37825" lon="-0.35224">
        <ele>35.8853</ele>
        <time>2011-06-02T14:28:05Z</time>
      </trkpt>
      <trkpt lat="46.37824" lon="-0.35225">
        <ele>35.8694</ele>
        <time>2011-06-02T14:28:06Z</time>
      </trkpt>
      <trkpt lat="46.37824" lon="-0.35226">
        <ele>35.8589</ele>
        <time>2011-06-02T14:28:07Z</time>
      </trkpt>
      <trkpt lat="46.37823" lon="-0.35226">
        <ele>35.8474</ele>
        <time>2011-06-02T14:28:08Z</time>
      </trkpt>
      <trkpt lat="46.37822" lon="-0.35227">
        <ele>35.8379</ele>
        <time>2011-06-02T14:28:09Z</time>
      </trkpt>
      <trkpt lat="46.3782" lon="-0.35227">
        <ele>35.8174</ele>
        <time>2011-06-02T14:28:10Z</time>
      </trkpt>
      <trkpt lat="46.37819" lon="-0.35229">
        <ele>35.812</ele>
        <time>2011-06-02T14:28:11Z</time>
      </trkpt>
      <trkpt lat="46.37818" lon="-0.3523">
        <ele>35.8125</ele>
        <time>2011-06-02T14:28:12Z</time>
      </trkpt>
      <trkpt lat="46.37817" lon="-0.35232">
        <ele>35.8109</ele>
        <time>2011-06-02T14:28:13Z</time>
      </trkpt>
      <trkpt lat="46.37815" lon="-0.35233">
        <ele>35.8037</ele>
        <time>2011-06-02T14:28:14Z</time>
      </trkpt>
      <trkpt lat="46.37814" lon="-0.35234">
        <ele>35.7917</ele>
        <time>2011-06-02T14:28:15Z</time>
      </trkpt>
      <trkpt lat="46.37812" lon="-0.35235">
        <ele>35.7739</ele>
        <time>2011-06-02T14:28:16Z</time>
      </trkpt>
      <trkpt lat="46.37811" lon="-0.35235">
        <ele>35.7498</ele>
        <time>2011-06-02T14:28:17Z</time>
      </trkpt>
      <trkpt lat="46.3781" lon="-0.35235">
        <ele>35.7214</ele>
        <time>2011-06-02T14:28:18Z</time>
      </trkpt>
      <trkpt lat="46.37809" lon="-0.35235">
        <ele>35.6901</ele>
        <time>2011-06-02T14:28:19Z</time>
      </trkpt>
      <trkpt lat="46.37808" lon="-0.35236">
        <ele>35.6564</ele>
        <time>2011-06-02T14:28:20Z</time>
      </trkpt>
      <trkpt lat="46.37806" lon="-0.35236">
        <ele>35.62</ele>
        <time>2011-06-02T14:28:21Z</time>
      </trkpt>
      <trkpt lat="46.37805" lon="-0.35236">
        <ele>35.5873</ele>
        <time>2011-06-02T14:28:22Z</time>
      </trkpt>
      <trkpt lat="46.37804" lon="-0.35236">
        <ele>35.5583</ele>
        <time>2011-06-02T14:28:23Z</time>
      </trkpt>
      <trkpt lat="46.37803" lon="-0.35237">
        <ele>35.5241</ele>
        <time>2011-06-02T14:28:24Z</time>
      </trkpt>
      <trkpt lat="46.37802" lon="-0.35238">
        <ele>35.4855</ele>
        <time>2011-06-02T14:28:25Z</time>
      </trkpt>
      <trkpt lat="46.37801" lon="-0.35238">
        <ele>35.441</ele>
        <time>2011-06-02T14:28:26Z</time>
      </trkpt>
      <trkpt lat="46.378" lon="-0.35239">
        <ele>35.3938</ele>
        <time>2011-06-02T14:28:27Z</time>
      </trkpt>
      <trkpt lat="46.37798" lon="-0.3524">
        <ele>35.3452</ele>
        <time>2011-06-02T14:28:28Z</time>
      </trkpt>
      <trkpt lat="46.37797" lon="-0.3524">
        <ele>35.2938</ele>
        <time>2011-06-02T14:28:29Z</time>
      </trkpt>
      <trkpt lat="46.37796" lon="-0.35241">
        <ele>35.2381</ele>
        <time>2011-06-02T14:28:30Z</time>
      </trkpt>
      <trkpt lat="46.37795" lon="-0.35242">
        <ele>35.1805</ele>
        <time>2011-06-02T14:28:31Z</time>
      </trkpt>
      <trkpt lat="46.37794" lon="-0.35242">
        <ele>35.1221</ele>
        <time>2011-06-02T14:28:32Z</time>
      </trkpt>
      <trkpt lat="46.37793" lon="-0.35243">
        <ele>35.0605</ele>
        <time>2011-06-02T14:28:33Z</time>
      </trkpt>
      <trkpt lat="46.37792" lon="-0.35243">
        <ele>35.0005</ele>
        <time>2011-06-02T14:28:34Z</time>
      </trkpt>
      <trkpt lat="46.37791" lon="-0.35244">
        <ele>34.9458</ele>
        <time>2011-06-02T14:28:35Z</time>
      </trkpt>
      <trkpt lat="46.3779" lon="-0.35245">
        <ele>34.8961</ele>
        <time>2011-06-02T14:28:36Z</time>
      </trkpt>
      <trkpt lat="46.37789" lon="-0.35246">
        <ele>34.8496</ele>
        <time>2011-06-02T14:28:37Z</time>
      </trkpt>
      <trkpt lat="46.37788" lon="-0.35247">
        <ele>34.8056</ele>
        <time>2011-06-02T14:28:38Z</time>
      </trkpt>
      <trkpt lat="46.37787" lon="-0.35247">
        <ele>34.7613</ele>
        <time>2011-06-02T14:28:39Z</time>
      </trkpt>
      <trkpt lat="46.37785" lon="-0.35247">
        <ele>34.715</ele>
        <time>2011-06-02T14:28:40Z</time>
      </trkpt>
      <trkpt lat="46.37785" lon="-0.35248">
        <ele>34.6678</ele>
        <time>2011-06-02T14:28:41Z</time>
      </trkpt>
      <trkpt lat="46.37784" lon="-0.35248">
        <ele>34.6236</ele>
        <time>2011-06-02T14:28:42Z</time>
      </trkpt>
      <trkpt lat="46.37783" lon="-0.35248">
        <ele>34.5781</ele>
        <time>2011-06-02T14:28:43Z</time>
      </trkpt>
      <trkpt lat="46.37782" lon="-0.35248">
        <ele>34.5329</ele>
        <time>2011-06-02T14:28:44Z</time>
      </trkpt>
      <trkpt lat="46.37782" lon="-0.35248">
        <ele>34.4889</ele>
        <time>2011-06-02T14:28:45Z</time>
      </trkpt>
      <trkpt lat="46.37781" lon="-0.35248">
        <ele>34.4354</ele>
        <time>2011-06-02T14:28:46Z</time>
      </trkpt>
      <trkpt lat="46.3778" lon="-0.35249">
        <ele>34.3856</ele>
        <time>2011-06-02T14:28:47Z</time>
      </trkpt>
      <trkpt lat="46.37779" lon="-0.35249">
        <ele>34.3369</ele>
        <time>2011-06-02T14:28:48Z</time>
      </trkpt>
      <trkpt lat="46.37779" lon="-0.35249">
        <ele>34.2943</ele>
        <time>2011-06-02T14:28:49Z</time>
      </trkpt>
      <trkpt lat="46.37777" lon="-0.35249">
        <ele>34.2536</ele>
        <time>2011-06-02T14:28:50Z</time>
      </trkpt>
      <trkpt lat="46.37776" lon="-0.35249">
        <ele>34.2105</ele>
        <time>2011-06-02T14:28:51Z</time>
      </trkpt>
      <trkpt lat="46.37775" lon="-0.35249">
        <ele>34.1702</ele>
        <time>2011-06-02T14:28:52Z</time>
      </trkpt>
      <trkpt lat="46.37774" lon="-0.3525">
        <ele>34.1324</ele>
        <time>2011-06-02T14:28:53Z</time>
      </trkpt>
      <trkpt lat="46.37774" lon="-0.3525">
        <ele>34.0931</ele>
        <time>2011-06-02T14:28:54Z</time>
      </trkpt>
      <trkpt lat="46.37772" lon="-0.3525">
        <ele>34.0595</ele>
        <time>2011-06-02T14:28:55Z</time>
      </trkpt>
      <trkpt lat="46.37772" lon="-0.35251">
        <ele>34.0247</ele>
        <time>2011-06-02T14:28:56Z</time>
      </trkpt>
      <trkpt lat="46.37771" lon="-0.35251">
        <ele>33.9903</ele>
        <time>2011-06-02T14:28:57Z</time>
      </trkpt>
      <trkpt lat="46.37769" lon="-0.35251">
        <ele>33.9604</ele>
        <time>2011-06-02T14:28:58Z</time>
      </trkpt>
      <trkpt lat="46.37768" lon="-0.35252">
        <ele>33.9389</ele>
        <time>2011-06-02T14:28:59Z</time>
      </trkpt>
      <trkpt lat="46.37767" lon="-0.35253">
        <ele>33.9277</ele>
        <time>2011-06-02T14:29:00Z</time>
      </trkpt>
      <trkpt lat="46.37766" lon="-0.35254">
        <ele>33.9175</ele>
        <time>2011-06-02T14:29:01Z</time>
      </trkpt>
      <trkpt lat="46.37765" lon="-0.35254">
        <ele>33.9085</ele>
        <time>2011-06-02T14:29:02Z</time>
      </trkpt>
      <trkpt lat="46.37764" lon="-0.35255">
        <ele>33.8977</ele>
        <time>2011-06-02T14:29:03Z</time>
      </trkpt>
      <trkpt lat="46.37763" lon="-0.35255">
        <ele>33.8891</ele>
        <time>2011-06-02T14:29:04Z</time>
      </trkpt>
      <trkpt lat="46.37762" lon="-0.35255">
        <ele>33.8755</ele>
        <time>2011-06-02T14:29:05Z</time>
      </trkpt>
      <trkpt lat="46.37761" lon="-0.35255">
        <ele>33.8628</ele>
        <time>2011-06-02T14:29:06Z</time>
      </trkpt>
      <trkpt lat="46.3776" lon="-0.35256">
        <ele>33.8513</ele>
        <time>2011-06-02T14:29:07Z</time>
      </trkpt>
      <trkpt lat="46.37759" lon="-0.35256">
        <ele>33.8408</ele>
        <time>2011-06-02T14:29:08Z</time>
      </trkpt>
      <trkpt lat="46.37758" lon="-0.35256">
        <ele>33.8328</ele>
        <time>2011-06-02T14:29:09Z</time>
      </trkpt>
      <trkpt lat="46.37757" lon="-0.35256">
        <ele>33.8245</ele>
        <time>2011-06-02T14:29:10Z</time>
      </trkpt>
      <trkpt lat="46.37756" lon="-0.35256">
        <ele>33.8164</ele>
        <time>2011-06-02T14:29:11Z</time>
      </trkpt>
      <trkpt lat="46.37755" lon="-0.35256">
        <ele>33.8095</ele>
        <time>2011-06-02T14:29:12Z</time>
      </trkpt>
      <trkpt lat="46.37754" lon="-0.35257">
        <ele>33.8027</ele>
        <time>2011-06-02T14:29:13Z</time>
      </trkpt>
      <trkpt lat="46.37753" lon="-0.35257">
        <ele>33.7964</ele>
        <time>2011-06-02T14:29:14Z</time>
      </trkpt>
      <trkpt lat="46.37752" lon="-0.35257">
        <ele>33.7929</ele>
        <time>2011-06-02T14:29:15Z</time>
      </trkpt>
      <trkpt lat="46.37751" lon="-0.35258">
        <ele>33.7944</ele>
        <time>2011-06-02T14:29:16Z</time>
      </trkpt>
      <trkpt lat="46.3775" lon="-0.35258">
        <ele>33.7919</ele>
        <time>2011-06-02T14:29:17Z</time>
      </trkpt>
      <trkpt lat="46.37749" lon="-0.35258">
        <ele>33.7947</ele>
        <time>2011-06-02T14:29:18Z</time>
      </trkpt>
      <trkpt lat="46.37748" lon="-0.35259">
        <ele>33.793</ele>
        <time>2011-06-02T14:29:19Z</time>
      </trkpt>
      <trkpt lat="46.37746" lon="-0.35259">
        <ele>33.7898</ele>
        <time>2011-06-02T14:29:20Z</time>
      </trkpt>
      <trkpt lat="46.37745" lon="-0.35259">
        <ele>33.7872</ele>
        <time>2011-06-02T14:29:21Z</time>
      </trkpt>
      <trkpt lat="46.37744" lon="-0.35259">
        <ele>33.7814</ele>
        <time>2011-06-02T14:29:22Z</time>
      </trkpt>
      <trkpt lat="46.37743" lon="-0.35259">
        <ele>33.7756</ele>
        <time>2011-06-02T14:29:23Z</time>
      </trkpt>
      <trkpt lat="46.37742" lon="-0.35259">
        <ele>33.7662</ele>
        <time>2011-06-02T14:29:24Z</time>
      </trkpt>
      <trkpt lat="46.37741" lon="-0.3526">
        <ele>33.7587</ele>
        <time>2011-06-02T14:29:25Z</time>
      </trkpt>
      <trkpt lat="46.3774" lon="-0.3526">
        <ele>33.7508</ele>
        <time>2011-06-02T14:29:26Z</time>
      </trkpt>
      <trkpt lat="46.37738" lon="-0.35261">
        <ele>33.7399</ele>
        <time>2011-06-02T14:29:27Z</time>
      </trkpt>
      <trkpt lat="46.37737" lon="-0.35261">
        <ele>33.7302</ele>
        <time>2011-06-02T14:29:28Z</time>
      </trkpt>
      <trkpt lat="46.37737" lon="-0.35261">
        <ele>33.7227</ele>
        <time>2011-06-02T14:29:29Z</time>
      </trkpt>
      <trkpt lat="46.37736" lon="-0.35262">
        <ele>33.7192</ele>
        <time>2011-06-02T14:29:30Z</time>
      </trkpt>
      <trkpt lat="46.37735" lon="-0.35262">
        <ele>33.7178</ele>
        <time>2011-06-02T14:29:31Z</time>
      </trkpt>
      <trkpt lat="46.37734" lon="-0.35263">
        <ele>33.7207</ele>
        <time>2011-06-02T14:29:32Z</time>
      </trkpt>
      <trkpt lat="46.37733" lon="-0.35263">
        <ele>33.7135</ele>
        <time>2011-06-02T14:29:33Z</time>
      </trkpt>
      <trkpt lat="46.37732" lon="-0.35264">
        <ele>33.707</ele>
        <time>2011-06-02T14:29:34Z</time>
      </trkpt>
      <trkpt lat="46.3773" lon="-0.35264">
        <ele>33.7071</ele>
        <time>2011-06-02T14:29:35Z</time>
      </trkpt>
      <trkpt lat="46.3773" lon="-0.35265">
        <ele>33.6913</ele>
        <time>2011-06-02T14:29:36Z</time>
      </trkpt>
      <trkpt lat="46.37729" lon="-0.35266">
        <ele>33.6801</ele>
        <time>2011-06-02T14:29:37Z</time>
      </trkpt>
      <trkpt lat="46.37728" lon="-0.35266">
        <ele>33.669</ele>
        <time>2011-06-02T14:29:38Z</time>
      </trkpt>
      <trkpt lat="46.37727" lon="-0.35267">
        <ele>33.6599</ele>
        <time>2011-06-02T14:29:39Z</time>
      </trkpt>
      <trkpt lat="46.37727" lon="-0.35267">
        <ele>33.6512</ele>
        <time>2011-06-02T14:29:40Z</time>
      </trkpt>
      <trkpt lat="46.37725" lon="-0.35267">
        <ele>33.6444</ele>
        <time>2011-06-02T14:29:41Z</time>
      </trkpt>
      <trkpt lat="46.37725" lon="-0.35267">
        <ele>33.6395</ele>
        <time>2011-06-02T14:29:42Z</time>
      </trkpt>
      <trkpt lat="46.37724" lon="-0.35268">
        <ele>33.632</ele>
        <time>2011-06-02T14:29:43Z</time>
      </trkpt>
      <trkpt lat="46.37723" lon="-0.35269">
        <ele>33.6379</ele>
        <time>2011-06-02T14:29:44Z</time>
      </trkpt>
      <trkpt lat="46.37722" lon="-0.3527">
        <ele>33.6455</ele>
        <time>2011-06-02T14:29:45Z</time>
      </trkpt>
      <trkpt lat="46.37721" lon="-0.35271">
        <ele>33.6557</ele>
        <time>2011-06-02T14:29:46Z</time>
      </trkpt>
      <trkpt lat="46.37721" lon="-0.35272">
        <ele>33.6662</ele>
        <time>2011-06-02T14:29:47Z</time>
      </trkpt>
      <trkpt lat="46.37721" lon="-0.35273">
        <ele>33.6734</ele>
        <time>2011-06-02T14:29:48Z</time>
      </trkpt>
      <trkpt lat="46.37719" lon="-0.35279">
        <ele>33.6852</ele>
        <time>2011-06-02T14:29:52Z</time>
      </trkpt>
      <trkpt lat="46.37715" lon="-0.35283">
        <ele>33.6704</ele>
        <time>2011-06-02T14:29:56Z</time>
      </trkpt>
      <trkpt lat="46.37696" lon="-0.3528">
        <ele>31.1377</ele>
        <time>2011-06-02T14:42:08Z</time>
      </trkpt>
      <trkpt lat="46.37697" lon="-0.35281">
        <ele>31.0693</ele>
        <time>2011-06-02T14:42:09Z</time>
      </trkpt>
      <trkpt lat="46.37697" lon="-0.35281">
        <ele>31.0026</ele>
        <time>2011-06-02T14:42:10Z</time>
      </trkpt>
      <trkpt lat="46.37698" lon="-0.35281">
        <ele>30.94</ele>
        <time>2011-06-02T14:42:11Z</time>
      </trkpt>
      <trkpt lat="46.37698" lon="-0.35281">
        <ele>30.8796</ele>
        <time>2011-06-02T14:42:12Z</time>
      </trkpt>
      <trkpt lat="46.37699" lon="-0.35281">
        <ele>30.8195</ele>
        <time>2011-06-02T14:42:13Z</time>
      </trkpt>
      <trkpt lat="46.377" lon="-0.3528">
        <ele>30.7614</ele>
        <time>2011-06-02T14:42:14Z</time>
      </trkpt>
      <trkpt lat="46.377" lon="-0.35279">
        <ele>30.7019</ele>
        <time>2011-06-02T14:42:15Z</time>
      </trkpt>
      <trkpt lat="46.37701" lon="-0.35278">
        <ele>30.6437</ele>
        <time>2011-06-02T14:42:16Z</time>
      </trkpt>
      <trkpt lat="46.37702" lon="-0.35278">
        <ele>30.5842</ele>
        <time>2011-06-02T14:42:17Z</time>
      </trkpt>
      <trkpt lat="46.37703" lon="-0.35277">
        <ele>30.5218</ele>
        <time>2011-06-02T14:42:18Z</time>
      </trkpt>
      <trkpt lat="46.37704" lon="-0.35277">
        <ele>30.4594</ele>
        <time>2011-06-02T14:42:19Z</time>
      </trkpt>
      <trkpt lat="46.37705" lon="-0.35277">
        <ele>30.3983</ele>
        <time>2011-06-02T14:42:20Z</time>
      </trkpt>
      <trkpt lat="46.37705" lon="-0.35277">
        <ele>30.3332</ele>
        <time>2011-06-02T14:42:21Z</time>
      </trkpt>
      <trkpt lat="46.37706" lon="-0.35277">
        <ele>30.2654</ele>
        <time>2011-06-02T14:42:22Z</time>
      </trkpt>
      <trkpt lat="46.37707" lon="-0.35277">
        <ele>30.1955</ele>
        <time>2011-06-02T14:42:23Z</time>
      </trkpt>
      <trkpt lat="46.37708" lon="-0.35276">
        <ele>30.125</ele>
        <time>2011-06-02T14:42:24Z</time>
      </trkpt>
      <trkpt lat="46.37709" lon="-0.35277">
        <ele>30.0511</ele>
        <time>2011-06-02T14:42:25Z</time>
      </trkpt>
      <trkpt lat="46.37709" lon="-0.35276">
        <ele>29.9786</ele>
        <time>2011-06-02T14:42:26Z</time>
      </trkpt>
      <trkpt lat="46.3771" lon="-0.35276">
        <ele>29.9073</ele>
        <time>2011-06-02T14:42:27Z</time>
      </trkpt>
      <trkpt lat="46.37711" lon="-0.35277">
        <ele>29.836</ele>
        <time>2011-06-02T14:42:28Z</time>
      </trkpt>
      <trkpt lat="46.37712" lon="-0.35276">
        <ele>29.7658</ele>
        <time>2011-06-02T14:42:29Z</time>
      </trkpt>
      <trkpt lat="46.37713" lon="-0.35276">
        <ele>29.6969</ele>
        <time>2011-06-02T14:42:30Z</time>
      </trkpt>
      <trkpt lat="46.37714" lon="-0.35276">
        <ele>29.6283</ele>
        <time>2011-06-02T14:42:31Z</time>
      </trkpt>
      <trkpt lat="46.37715" lon="-0.35275">
        <ele>29.5602</ele>
        <time>2011-06-02T14:42:32Z</time>
      </trkpt>
      <trkpt lat="46.37716" lon="-0.35275">
        <ele>29.4926</ele>
        <time>2011-06-02T14:42:33Z</time>
      </trkpt>
      <trkpt lat="46.37717" lon="-0.35275">
        <ele>29.424</ele>
        <time>2011-06-02T14:42:34Z</time>
      </trkpt>
      <trkpt lat="46.37718" lon="-0.35275">
        <ele>29.3539</ele>
        <time>2011-06-02T14:42:35Z</time>
      </trkpt>
      <trkpt lat="46.37719" lon="-0.35275">
        <ele>29.2854</ele>
        <time>2011-06-02T14:42:36Z</time>
      </trkpt>
      <trkpt lat="46.3772" lon="-0.35275">
        <ele>29.2198</ele>
        <time>2011-06-02T14:42:37Z</time>
      </trkpt>
      <trkpt lat="46.37721" lon="-0.35274">
        <ele>29.1527</ele>
        <time>2011-06-02T14:42:38Z</time>
      </trkpt>
      <trkpt lat="46.37722" lon="-0.35274">
        <ele>29.0831</ele>
        <time>2011-06-02T14:42:39Z</time>
      </trkpt>
      <trkpt lat="46.37724" lon="-0.35274">
        <ele>29.0114</ele>
        <time>2011-06-02T14:42:40Z</time>
      </trkpt>
      <trkpt lat="46.37725" lon="-0.35272">
        <ele>28.9374</ele>
        <time>2011-06-02T14:42:41Z</time>
      </trkpt>
      <trkpt lat="46.37727" lon="-0.35272">
        <ele>28.8616</ele>
        <time>2011-06-02T14:42:42Z</time>
      </trkpt>
      <trkpt lat="46.37727" lon="-0.35272">
        <ele>28.788</ele>
        <time>2011-06-02T14:42:43Z</time>
      </trkpt>
      <trkpt lat="46.37729" lon="-0.35271">
        <ele>28.717</ele>
        <time>2011-06-02T14:42:44Z</time>
      </trkpt>
      <trkpt lat="46.37729" lon="-0.3527">
        <ele>28.6442</ele>
        <time>2011-06-02T14:42:45Z</time>
      </trkpt>
      <trkpt lat="46.3773" lon="-0.3527">
        <ele>28.5699</ele>
        <time>2011-06-02T14:42:46Z</time>
      </trkpt>
      <trkpt lat="46.37731" lon="-0.35268">
        <ele>28.5005</ele>
        <time>2011-06-02T14:42:47Z</time>
      </trkpt>
      <trkpt lat="46.37732" lon="-0.35267">
        <ele>28.4311</ele>
        <time>2011-06-02T14:42:48Z</time>
      </trkpt>
      <trkpt lat="46.37733" lon="-0.35265">
        <ele>28.3605</ele>
        <time>2011-06-02T14:42:49Z</time>
      </trkpt>
      <trkpt lat="46.37734" lon="-0.35264">
        <ele>28.2924</ele>
        <time>2011-06-02T14:42:50Z</time>
      </trkpt>
      <trkpt lat="46.37734" lon="-0.35263">
        <ele>28.2349</ele>
        <time>2011-06-02T14:42:51Z</time>
      </trkpt>
      <trkpt lat="46.37735" lon="-0.35261">
        <ele>28.1865</ele>
        <time>2011-06-02T14:42:52Z</time>
      </trkpt>
      <trkpt lat="46.37735" lon="-0.3526">
        <ele>28.1395</ele>
        <time>2011-06-02T14:42:53Z</time>
      </trkpt>
      <trkpt lat="46.37735" lon="-0.35258">
        <ele>28.0944</ele>
        <time>2011-06-02T14:42:54Z</time>
      </trkpt>
      <trkpt lat="46.37735" lon="-0.35256">
        <ele>28.0508</ele>
        <time>2011-06-02T14:42:55Z</time>
      </trkpt>
      <trkpt lat="46.37735" lon="-0.35254">
        <ele>28.0095</ele>
        <time>2011-06-02T14:42:56Z</time>
      </trkpt>
      <trkpt lat="46.37736" lon="-0.35252">
        <ele>27.9695</ele>
        <time>2011-06-02T14:42:57Z</time>
      </trkpt>
      <trkpt lat="46.37736" lon="-0.3525">
        <ele>27.931</ele>
        <time>2011-06-02T14:42:58Z</time>
      </trkpt>
      <trkpt lat="46.37736" lon="-0.35249">
        <ele>27.8951</ele>
        <time>2011-06-02T14:42:59Z</time>
      </trkpt>
      <trkpt lat="46.37736" lon="-0.35247">
        <ele>27.8647</ele>
        <time>2011-06-02T14:43:00Z</time>
      </trkpt>
      <trkpt lat="46.37737" lon="-0.35246">
        <ele>27.8437</ele>
        <time>2011-06-02T14:43:01Z</time>
      </trkpt>
      <trkpt lat="46.37737" lon="-0.35244">
        <ele>27.8285</ele>
        <time>2011-06-02T14:43:02Z</time>
      </trkpt>
      <trkpt lat="46.37737" lon="-0.35243">
        <ele>27.8124</ele>
        <time>2011-06-02T14:43:03Z</time>
      </trkpt>
      <trkpt lat="46.37736" lon="-0.35241">
        <ele>27.7961</ele>
        <time>2011-06-02T14:43:04Z</time>
      </trkpt>
      <trkpt lat="46.37735" lon="-0.35239">
        <ele>27.7809</ele>
        <time>2011-06-02T14:43:05Z</time>
      </trkpt>
      <trkpt lat="46.37735" lon="-0.35238">
        <ele>27.7713</ele>
        <time>2011-06-02T14:43:06Z</time>
      </trkpt>
      <trkpt lat="46.37735" lon="-0.35236">
        <ele>27.7616</ele>
        <time>2011-06-02T14:43:07Z</time>
      </trkpt>
      <trkpt lat="46.37735" lon="-0.35235">
        <ele>27.7519</ele>
        <time>2011-06-02T14:43:08Z</time>
      </trkpt>
      <trkpt lat="46.37735" lon="-0.35234">
        <ele>27.7426</ele>
        <time>2011-06-02T14:43:09Z</time>
      </trkpt>
      <trkpt lat="46.37734" lon="-0.35233">
        <ele>27.7333</ele>
        <time>2011-06-02T14:43:10Z</time>
      </trkpt>
      <trkpt lat="46.37734" lon="-0.35232">
        <ele>27.7228</ele>
        <time>2011-06-02T14:43:11Z</time>
      </trkpt>
      <trkpt lat="46.37734" lon="-0.35231">
        <ele>27.7121</ele>
        <time>2011-06-02T14:43:12Z</time>
      </trkpt>
      <trkpt lat="46.37734" lon="-0.3523">
        <ele>27.7019</ele>
        <time>2011-06-02T14:43:13Z</time>
      </trkpt>
      <trkpt lat="46.37734" lon="-0.35229">
        <ele>27.6924</ele>
        <time>2011-06-02T14:43:14Z</time>
      </trkpt>
      <trkpt lat="46.37734" lon="-0.35227">
        <ele>27.6854</ele>
        <time>2011-06-02T14:43:15Z</time>
      </trkpt>
      <trkpt lat="46.37733" lon="-0.35226">
        <ele>27.68</ele>
        <time>2011-06-02T14:43:16Z</time>
      </trkpt>
      <trkpt lat="46.37733" lon="-0.35225">
        <ele>27.675</ele>
        <time>2011-06-02T14:43:17Z</time>
      </trkpt>
      <trkpt lat="46.37733" lon="-0.35224">
        <ele>27.6688</ele>
        <time>2011-06-02T14:43:18Z</time>
      </trkpt>
      <trkpt lat="46.37733" lon="-0.35223">
        <ele>27.6701</ele>
        <time>2011-06-02T14:43:19Z</time>
      </trkpt>
      <trkpt lat="46.37732" lon="-0.35221">
        <ele>27.677</ele>
        <time>2011-06-02T14:43:20Z</time>
      </trkpt>
      <trkpt lat="46.37732" lon="-0.3522">
        <ele>27.6906</ele>
        <time>2011-06-02T14:43:21Z</time>
      </trkpt>
      <trkpt lat="46.37731" lon="-0.35218">
        <ele>27.7042</ele>
        <time>2011-06-02T14:43:22Z</time>
      </trkpt>
      <trkpt lat="46.37731" lon="-0.35217">
        <ele>27.7184</ele>
        <time>2011-06-02T14:43:23Z</time>
      </trkpt>
      <trkpt lat="46.37731" lon="-0.35215">
        <ele>27.7332</ele>
        <time>2011-06-02T14:43:24Z</time>
      </trkpt>
      <trkpt lat="46.37731" lon="-0.35214">
        <ele>27.7505</ele>
        <time>2011-06-02T14:43:25Z</time>
      </trkpt>
      <trkpt lat="46.3773" lon="-0.35212">
        <ele>27.7717</ele>
        <time>2011-06-02T14:43:26Z</time>
      </trkpt>
      <trkpt lat="46.3773" lon="-0.35211">
        <ele>27.7917</ele>
        <time>2011-06-02T14:43:27Z</time>
      </trkpt>
      <trkpt lat="46.3773" lon="-0.35209">
        <ele>27.8172</ele>
        <time>2011-06-02T14:43:28Z</time>
      </trkpt>
      <trkpt lat="46.3773" lon="-0.35208">
        <ele>27.8422</ele>
        <time>2011-06-02T14:43:29Z</time>
      </trkpt>
      <trkpt lat="46.37729" lon="-0.35207">
        <ele>27.8653</ele>
        <time>2011-06-02T14:43:30Z</time>
      </trkpt>
      <trkpt lat="46.37729" lon="-0.35205">
        <ele>27.8887</ele>
        <time>2011-06-02T14:43:31Z</time>
      </trkpt>
      <trkpt lat="46.37729" lon="-0.35203">
        <ele>27.9109</ele>
        <time>2011-06-02T14:43:32Z</time>
      </trkpt>
      <trkpt lat="46.37729" lon="-0.35202">
        <ele>27.9333</ele>
        <time>2011-06-02T14:43:33Z</time>
      </trkpt>
      <trkpt lat="46.37729" lon="-0.352">
        <ele>27.9555</ele>
        <time>2011-06-02T14:43:34Z</time>
      </trkpt>
      <trkpt lat="46.37728" lon="-0.35199">
        <ele>27.9774</ele>
        <time>2011-06-02T14:43:35Z</time>
      </trkpt>
      <trkpt lat="46.37728" lon="-0.35198">
        <ele>27.9978</ele>
        <time>2011-06-02T14:43:36Z</time>
      </trkpt>
      <trkpt lat="46.37727" lon="-0.35196">
        <ele>28.0151</ele>
        <time>2011-06-02T14:43:37Z</time>
      </trkpt>
      <trkpt lat="46.37727" lon="-0.35195">
        <ele>28.0314</ele>
        <time>2011-06-02T14:43:38Z</time>
      </trkpt>
      <trkpt lat="46.37727" lon="-0.35194">
        <ele>28.0498</ele>
        <time>2011-06-02T14:43:39Z</time>
      </trkpt>
      <trkpt lat="46.37727" lon="-0.35193">
        <ele>28.0625</ele>
        <time>2011-06-02T14:43:40Z</time>
      </trkpt>
      <trkpt lat="46.37726" lon="-0.35192">
        <ele>28.0751</ele>
        <time>2011-06-02T14:43:41Z</time>
      </trkpt>
      <trkpt lat="46.37726" lon="-0.35191">
        <ele>28.0869</ele>
        <time>2011-06-02T14:43:42Z</time>
      </trkpt>
      <trkpt lat="46.37726" lon="-0.3519">
        <ele>28.0993</ele>
        <time>2011-06-02T14:43:43Z</time>
      </trkpt>
      <trkpt lat="46.37726" lon="-0.35188">
        <ele>28.1148</ele>
        <time>2011-06-02T14:43:44Z</time>
      </trkpt>
      <trkpt lat="46.37725" lon="-0.35187">
        <ele>28.129</ele>
        <time>2011-06-02T14:43:45Z</time>
      </trkpt>
      <trkpt lat="46.37725" lon="-0.35186">
        <ele>28.1433</ele>
        <time>2011-06-02T14:43:46Z</time>
      </trkpt>
      <trkpt lat="46.37725" lon="-0.35185">
        <ele>28.1563</ele>
        <time>2011-06-02T14:43:47Z</time>
      </trkpt>
      <trkpt lat="46.37725" lon="-0.35184">
        <ele>28.1688</ele>
        <time>2011-06-02T14:43:48Z</time>
      </trkpt>
      <trkpt lat="46.37725" lon="-0.35182">
        <ele>28.1797</ele>
        <time>2011-06-02T14:43:49Z</time>
      </trkpt>
      <trkpt lat="46.37725" lon="-0.35181">
        <ele>28.1898</ele>
        <time>2011-06-02T14:43:50Z</time>
      </trkpt>
      <trkpt lat="46.37725" lon="-0.35179">
        <ele>28.2087</ele>
        <time>2011-06-02T14:43:51Z</time>
      </trkpt>
      <trkpt lat="46.37725" lon="-0.35177">
        <ele>28.2421</ele>
        <time>2011-06-02T14:43:52Z</time>
      </trkpt>
      <trkpt lat="46.37724" lon="-0.35176">
        <ele>28.2777</ele>
        <time>2011-06-02T14:43:53Z</time>
      </trkpt>
      <trkpt lat="46.37724" lon="-0.35174">
        <ele>28.3136</ele>
        <time>2011-06-02T14:43:54Z</time>
      </trkpt>
      <trkpt lat="46.37724" lon="-0.35173">
        <ele>28.3569</ele>
        <time>2011-06-02T14:43:55Z</time>
      </trkpt>
      <trkpt lat="46.37724" lon="-0.35171">
        <ele>28.4556</ele>
        <time>2011-06-02T14:43:58Z</time>
      </trkpt>
      <trkpt lat="46.37723" lon="-0.3517">
        <ele>28.5018</ele>
        <time>2011-06-02T14:43:59Z</time>
      </trkpt>
      <trkpt lat="46.37723" lon="-0.35168">
        <ele>28.5477</ele>
        <time>2011-06-02T14:44:00Z</time>
      </trkpt>
      <trkpt lat="46.37722" lon="-0.35167">
        <ele>28.5915</ele>
        <time>2011-06-02T14:44:01Z</time>
      </trkpt>
      <trkpt lat="46.3772" lon="-0.35161">
        <ele>28.726</ele>
        <time>2011-06-02T14:44:15Z</time>
      </trkpt>
      <trkpt lat="46.3772" lon="-0.3516">
        <ele>28.7844</ele>
        <time>2011-06-02T14:44:16Z</time>
      </trkpt>
      <trkpt lat="46.37719" lon="-0.35159">
        <ele>28.8274</ele>
        <time>2011-06-02T14:44:17Z</time>
      </trkpt>
      <trkpt lat="46.37718" lon="-0.35157">
        <ele>28.8667</ele>
        <time>2011-06-02T14:44:18Z</time>
      </trkpt>
      <trkpt lat="46.37717" lon="-0.35156">
        <ele>28.8973</ele>
        <time>2011-06-02T14:44:19Z</time>
      </trkpt>
      <trkpt lat="46.37717" lon="-0.35155">
        <ele>28.9112</ele>
        <time>2011-06-02T14:44:20Z</time>
      </trkpt>
      <trkpt lat="46.37716" lon="-0.35154">
        <ele>28.9235</ele>
        <time>2011-06-02T14:44:21Z</time>
      </trkpt>
      <trkpt lat="46.37716" lon="-0.35154">
        <ele>28.9334</ele>
        <time>2011-06-02T14:44:22Z</time>
      </trkpt>
      <trkpt lat="46.37716" lon="-0.35155">
        <ele>28.9342</ele>
        <time>2011-06-02T14:44:30Z</time>
      </trkpt>
      <trkpt lat="46.37716" lon="-0.35154">
        <ele>28.9338</ele>
        <time>2011-06-02T14:44:31Z</time>
      </trkpt>
      <trkpt lat="46.37716" lon="-0.35152">
        <ele>28.9348</ele>
        <time>2011-06-02T14:44:32Z</time>
      </trkpt>
      <trkpt lat="46.37716" lon="-0.3515">
        <ele>28.9377</ele>
        <time>2011-06-02T14:44:33Z</time>
      </trkpt>
      <trkpt lat="46.37716" lon="-0.35148">
        <ele>28.9434</ele>
        <time>2011-06-02T14:44:34Z</time>
      </trkpt>
      <trkpt lat="46.37716" lon="-0.35146">
        <ele>28.949</ele>
        <time>2011-06-02T14:44:35Z</time>
      </trkpt>
      <trkpt lat="46.37716" lon="-0.35144">
        <ele>28.9544</ele>
        <time>2011-06-02T14:44:36Z</time>
      </trkpt>
      <trkpt lat="46.37716" lon="-0.35142">
        <ele>28.9644</ele>
        <time>2011-06-02T14:44:37Z</time>
      </trkpt>
      <trkpt lat="46.37716" lon="-0.3514">
        <ele>28.9799</ele>
        <time>2011-06-02T14:44:38Z</time>
      </trkpt>
      <trkpt lat="46.37716" lon="-0.35139">
        <ele>29.0006</ele>
        <time>2011-06-02T14:44:39Z</time>
      </trkpt>
      <trkpt lat="46.37716" lon="-0.35137">
        <ele>29.0206</ele>
        <time>2011-06-02T14:44:40Z</time>
      </trkpt>
      <trkpt lat="46.37715" lon="-0.35135">
        <ele>29.0388</ele>
        <time>2011-06-02T14:44:41Z</time>
      </trkpt>
      <trkpt lat="46.37715" lon="-0.35134">
        <ele>29.0566</ele>
        <time>2011-06-02T14:44:42Z</time>
      </trkpt>
      <trkpt lat="46.37714" lon="-0.35132">
        <ele>29.0746</ele>
        <time>2011-06-02T14:44:43Z</time>
      </trkpt>
      <trkpt lat="46.37714" lon="-0.35131">
        <ele>29.0922</ele>
        <time>2011-06-02T14:44:44Z</time>
      </trkpt>
      <trkpt lat="46.37713" lon="-0.35129">
        <ele>29.1115</ele>
        <time>2011-06-02T14:44:45Z</time>
      </trkpt>
      <trkpt lat="46.37713" lon="-0.35128">
        <ele>29.1295</ele>
        <time>2011-06-02T14:44:46Z</time>
      </trkpt>
      <trkpt lat="46.37713" lon="-0.35126">
        <ele>29.1463</ele>
        <time>2011-06-02T14:44:47Z</time>
      </trkpt>
      <trkpt lat="46.37713" lon="-0.35124">
        <ele>29.165</ele>
        <time>2011-06-02T14:44:48Z</time>
      </trkpt>
      <trkpt lat="46.37713" lon="-0.35122">
        <ele>29.1857</ele>
        <time>2011-06-02T14:44:49Z</time>
      </trkpt>
      <trkpt lat="46.37713" lon="-0.35119">
        <ele>29.207</ele>
        <time>2011-06-02T14:44:50Z</time>
      </trkpt>
      <trkpt lat="46.37713" lon="-0.35117">
        <ele>29.2281</ele>
        <time>2011-06-02T14:44:51Z</time>
      </trkpt>
      <trkpt lat="46.37713" lon="-0.35115">
        <ele>29.2479</ele>
        <time>2011-06-02T14:44:52Z</time>
      </trkpt>
      <trkpt lat="46.37713" lon="-0.35113">
        <ele>29.2664</ele>
        <time>2011-06-02T14:44:53Z</time>
      </trkpt>
      <trkpt lat="46.37713" lon="-0.35112">
        <ele>29.2847</ele>
        <time>2011-06-02T14:44:54Z</time>
      </trkpt>
      <trkpt lat="46.37713" lon="-0.35111">
        <ele>29.3026</ele>
        <time>2011-06-02T14:44:55Z</time>
      </trkpt>
      <trkpt lat="46.37713" lon="-0.3511">
        <ele>29.3197</ele>
        <time>2011-06-02T14:44:56Z</time>
      </trkpt>
      <trkpt lat="46.37712" lon="-0.35109">
        <ele>29.334</ele>
        <time>2011-06-02T14:44:57Z</time>
      </trkpt>
      <trkpt lat="46.37712" lon="-0.35108">
        <ele>29.3473</ele>
        <time>2011-06-02T14:44:58Z</time>
      </trkpt>
      <trkpt lat="46.37711" lon="-0.35108">
        <ele>29.3629</ele>
        <time>2011-06-02T14:44:59Z</time>
      </trkpt>
      <trkpt lat="46.37711" lon="-0.35107">
        <ele>29.3802</ele>
        <time>2011-06-02T14:45:00Z</time>
      </trkpt>
      <trkpt lat="46.37711" lon="-0.35107">
        <ele>29.3923</ele>
        <time>2011-06-02T14:45:01Z</time>
      </trkpt>
      <trkpt lat="46.3771" lon="-0.35106">
        <ele>29.3977</ele>
        <time>2011-06-02T14:45:02Z</time>
      </trkpt>
      <trkpt lat="46.37709" lon="-0.35105">
        <ele>29.4025</ele>
        <time>2011-06-02T14:45:03Z</time>
      </trkpt>
      <trkpt lat="46.37709" lon="-0.35103">
        <ele>29.4019</ele>
        <time>2011-06-02T14:45:04Z</time>
      </trkpt>
      <trkpt lat="46.3771" lon="-0.35101">
        <ele>29.4032</ele>
        <time>2011-06-02T14:45:05Z</time>
      </trkpt>
      <trkpt lat="46.3771" lon="-0.351">
        <ele>29.4084</ele>
        <time>2011-06-02T14:45:06Z</time>
      </trkpt>
      <trkpt lat="46.3771" lon="-0.35098">
        <ele>29.4162</ele>
        <time>2011-06-02T14:45:07Z</time>
      </trkpt>
      <trkpt lat="46.3771" lon="-0.35097">
        <ele>29.4124</ele>
        <time>2011-06-02T14:45:08Z</time>
      </trkpt>
      <trkpt lat="46.3771" lon="-0.35095">
        <ele>29.4085</ele>
        <time>2011-06-02T14:45:09Z</time>
      </trkpt>
      <trkpt lat="46.3771" lon="-0.35094">
        <ele>29.404</ele>
        <time>2011-06-02T14:45:10Z</time>
      </trkpt>
      <trkpt lat="46.3771" lon="-0.35092">
        <ele>29.3985</ele>
        <time>2011-06-02T14:45:11Z</time>
      </trkpt>
      <trkpt lat="46.3771" lon="-0.3509">
        <ele>29.3922</ele>
        <time>2011-06-02T14:45:12Z</time>
      </trkpt>
      <trkpt lat="46.3771" lon="-0.35089">
        <ele>29.3867</ele>
        <time>2011-06-02T14:45:13Z</time>
      </trkpt>
      <trkpt lat="46.37709" lon="-0.35087">
        <ele>29.3884</ele>
        <time>2011-06-02T14:45:14Z</time>
      </trkpt>
      <trkpt lat="46.37709" lon="-0.35086">
        <ele>29.3934</ele>
        <time>2011-06-02T14:45:15Z</time>
      </trkpt>
      <trkpt lat="46.37709" lon="-0.35086">
        <ele>29.3991</ele>
        <time>2011-06-02T14:45:16Z</time>
      </trkpt>
      <trkpt lat="46.37709" lon="-0.35084">
        <ele>29.4048</ele>
        <time>2011-06-02T14:45:17Z</time>
      </trkpt>
      <trkpt lat="46.37708" lon="-0.35083">
        <ele>29.4105</ele>
        <time>2011-06-02T14:45:18Z</time>
      </trkpt>
      <trkpt lat="46.37708" lon="-0.35082">
        <ele>29.4201</ele>
        <time>2011-06-02T14:45:19Z</time>
      </trkpt>
      <trkpt lat="46.37708" lon="-0.3508">
        <ele>29.4441</ele>
        <time>2011-06-02T14:45:20Z</time>
      </trkpt>
      <trkpt lat="46.37708" lon="-0.35079">
        <ele>29.472</ele>
        <time>2011-06-02T14:45:21Z</time>
      </trkpt>
      <trkpt lat="46.37706" lon="-0.35077">
        <ele>29.5003</ele>
        <time>2011-06-02T14:45:22Z</time>
      </trkpt>
      <trkpt lat="46.37706" lon="-0.35076">
        <ele>29.523</ele>
        <time>2011-06-02T14:45:23Z</time>
      </trkpt>
      <trkpt lat="46.37705" lon="-0.35075">
        <ele>29.5445</ele>
        <time>2011-06-02T14:45:24Z</time>
      </trkpt>
      <trkpt lat="46.37705" lon="-0.35074">
        <ele>29.5694</ele>
        <time>2011-06-02T14:45:25Z</time>
      </trkpt>
      <trkpt lat="46.37704" lon="-0.35073">
        <ele>29.5952</ele>
        <time>2011-06-02T14:45:26Z</time>
      </trkpt>
      <trkpt lat="46.37704" lon="-0.35072">
        <ele>29.6271</ele>
        <time>2011-06-02T14:45:27Z</time>
      </trkpt>
      <trkpt lat="46.37703" lon="-0.35071">
        <ele>29.6589</ele>
        <time>2011-06-02T14:45:28Z</time>
      </trkpt>
      <trkpt lat="46.37704" lon="-0.35069">
        <ele>29.6931</ele>
        <time>2011-06-02T14:45:29Z</time>
      </trkpt>
      <trkpt lat="46.37704" lon="-0.35067">
        <ele>29.7284</ele>
        <time>2011-06-02T14:45:30Z</time>
      </trkpt>
      <trkpt lat="46.37704" lon="-0.35066">
        <ele>29.7532</ele>
        <time>2011-06-02T14:45:31Z</time>
      </trkpt>
      <trkpt lat="46.37704" lon="-0.35064">
        <ele>29.7753</ele>
        <time>2011-06-02T14:45:32Z</time>
      </trkpt>
      <trkpt lat="46.37704" lon="-0.35063">
        <ele>29.7885</ele>
        <time>2011-06-02T14:45:33Z</time>
      </trkpt>
      <trkpt lat="46.37703" lon="-0.35061">
        <ele>29.8017</ele>
        <time>2011-06-02T14:45:34Z</time>
      </trkpt>
      <trkpt lat="46.37703" lon="-0.3506">
        <ele>29.8076</ele>
        <time>2011-06-02T14:45:35Z</time>
      </trkpt>
      <trkpt lat="46.37703" lon="-0.35058">
        <ele>29.8051</ele>
        <time>2011-06-02T14:45:36Z</time>
      </trkpt>
      <trkpt lat="46.37703" lon="-0.35056">
        <ele>29.8046</ele>
        <time>2011-06-02T14:45:37Z</time>
      </trkpt>
      <trkpt lat="46.37703" lon="-0.35055">
        <ele>29.8068</ele>
        <time>2011-06-02T14:45:38Z</time>
      </trkpt>
      <trkpt lat="46.37703" lon="-0.35054">
        <ele>29.8098</ele>
        <time>2011-06-02T14:45:39Z</time>
      </trkpt>
      <trkpt lat="46.37703" lon="-0.35053">
        <ele>29.8147</ele>
        <time>2011-06-02T14:45:40Z</time>
      </trkpt>
      <trkpt lat="46.37702" lon="-0.35052">
        <ele>29.8251</ele>
        <time>2011-06-02T14:45:41Z</time>
      </trkpt>
      <trkpt lat="46.37701" lon="-0.3505">
        <ele>29.8421</ele>
        <time>2011-06-02T14:45:42Z</time>
      </trkpt>
      <trkpt lat="46.37701" lon="-0.35049">
        <ele>29.8509</ele>
        <time>2011-06-02T14:45:43Z</time>
      </trkpt>
      <trkpt lat="46.37701" lon="-0.35048">
        <ele>29.855</ele>
        <time>2011-06-02T14:45:44Z</time>
      </trkpt>
      <trkpt lat="46.377" lon="-0.35046">
        <ele>29.8549</ele>
        <time>2011-06-02T14:45:45Z</time>
      </trkpt>
      <trkpt lat="46.377" lon="-0.35045">
        <ele>29.8541</ele>
        <time>2011-06-02T14:45:46Z</time>
      </trkpt>
      <trkpt lat="46.377" lon="-0.35044">
        <ele>29.8522</ele>
        <time>2011-06-02T14:45:47Z</time>
      </trkpt>
      <trkpt lat="46.377" lon="-0.35042">
        <ele>29.8494</ele>
        <time>2011-06-02T14:45:48Z</time>
      </trkpt>
      <trkpt lat="46.377" lon="-0.35041">
        <ele>29.848</ele>
        <time>2011-06-02T14:45:49Z</time>
      </trkpt>
      <trkpt lat="46.377" lon="-0.35039">
        <ele>29.8474</ele>
        <time>2011-06-02T14:45:50Z</time>
      </trkpt>
      <trkpt lat="46.37699" lon="-0.35037">
        <ele>29.8466</ele>
        <time>2011-06-02T14:45:51Z</time>
      </trkpt>
      <trkpt lat="46.37699" lon="-0.35036">
        <ele>29.857</ele>
        <time>2011-06-02T14:45:52Z</time>
      </trkpt>
      <trkpt lat="46.37698" lon="-0.35035">
        <ele>29.8738</ele>
        <time>2011-06-02T14:45:53Z</time>
      </trkpt>
      <trkpt lat="46.37698" lon="-0.35033">
        <ele>29.8992</ele>
        <time>2011-06-02T14:45:54Z</time>
      </trkpt>
      <trkpt lat="46.37697" lon="-0.35032">
        <ele>29.9248</ele>
        <time>2011-06-02T14:45:55Z</time>
      </trkpt>
      <trkpt lat="46.37697" lon="-0.35031">
        <ele>29.9501</ele>
        <time>2011-06-02T14:45:56Z</time>
      </trkpt>
      <trkpt lat="46.37695" lon="-0.35029">
        <ele>30.1766</ele>
        <time>2011-06-02T14:46:01Z</time>
      </trkpt>
      <trkpt lat="46.37695" lon="-0.35028">
        <ele>30.2371</ele>
        <time>2011-06-02T14:46:02Z</time>
      </trkpt>
      <trkpt lat="46.37695" lon="-0.35027">
        <ele>30.2976</ele>
        <time>2011-06-02T14:46:03Z</time>
      </trkpt>
      <trkpt lat="46.37694" lon="-0.35026">
        <ele>30.3614</ele>
        <time>2011-06-02T14:46:04Z</time>
      </trkpt>
      <trkpt lat="46.37693" lon="-0.35025">
        <ele>30.4226</ele>
        <time>2011-06-02T14:46:05Z</time>
      </trkpt>
      <trkpt lat="46.37692" lon="-0.35022">
        <ele>30.7125</ele>
        <time>2011-06-02T14:46:26Z</time>
      </trkpt>
      <trkpt lat="46.37692" lon="-0.35021">
        <ele>30.7511</ele>
        <time>2011-06-02T14:46:27Z</time>
      </trkpt>
      <trkpt lat="46.37691" lon="-0.3502">
        <ele>30.7873</ele>
        <time>2011-06-02T14:46:28Z</time>
      </trkpt>
      <trkpt lat="46.3769" lon="-0.35018">
        <ele>30.8223</ele>
        <time>2011-06-02T14:46:29Z</time>
      </trkpt>
      <trkpt lat="46.3769" lon="-0.35017">
        <ele>30.8566</ele>
        <time>2011-06-02T14:46:30Z</time>
      </trkpt>
      <trkpt lat="46.37689" lon="-0.35016">
        <ele>30.8953</ele>
        <time>2011-06-02T14:46:31Z</time>
      </trkpt>
      <trkpt lat="46.37689" lon="-0.35014">
        <ele>30.9386</ele>
        <time>2011-06-02T14:46:32Z</time>
      </trkpt>
      <trkpt lat="46.37689" lon="-0.35013">
        <ele>30.9817</ele>
        <time>2011-06-02T14:46:33Z</time>
      </trkpt>
      <trkpt lat="46.37688" lon="-0.35012">
        <ele>31.0246</ele>
        <time>2011-06-02T14:46:34Z</time>
      </trkpt>
      <trkpt lat="46.37688" lon="-0.3501">
        <ele>31.0676</ele>
        <time>2011-06-02T14:46:35Z</time>
      </trkpt>
      <trkpt lat="46.37688" lon="-0.35009">
        <ele>31.1102</ele>
        <time>2011-06-02T14:46:36Z</time>
      </trkpt>
      <trkpt lat="46.37687" lon="-0.35008">
        <ele>31.1519</ele>
        <time>2011-06-02T14:46:37Z</time>
      </trkpt>
      <trkpt lat="46.37687" lon="-0.35006">
        <ele>31.1948</ele>
        <time>2011-06-02T14:46:38Z</time>
      </trkpt>
      <trkpt lat="46.37687" lon="-0.35005">
        <ele>31.2378</ele>
        <time>2011-06-02T14:46:39Z</time>
      </trkpt>
      <trkpt lat="46.37686" lon="-0.35003">
        <ele>31.2772</ele>
        <time>2011-06-02T14:46:40Z</time>
      </trkpt>
      <trkpt lat="46.37685" lon="-0.35002">
        <ele>31.3152</ele>
        <time>2011-06-02T14:46:41Z</time>
      </trkpt>
      <trkpt lat="46.37685" lon="-0.35001">
        <ele>31.3492</ele>
        <time>2011-06-02T14:46:42Z</time>
      </trkpt>
      <trkpt lat="46.37684" lon="-0.35">
        <ele>31.3855</ele>
        <time>2011-06-02T14:46:43Z</time>
      </trkpt>
      <trkpt lat="46.37684" lon="-0.34998">
        <ele>31.4256</ele>
        <time>2011-06-02T14:46:44Z</time>
      </trkpt>
      <trkpt lat="46.37684" lon="-0.34997">
        <ele>31.4644</ele>
        <time>2011-06-02T14:46:45Z</time>
      </trkpt>
      <trkpt lat="46.37683" lon="-0.34996">
        <ele>31.5031</ele>
        <time>2011-06-02T14:46:46Z</time>
      </trkpt>
      <trkpt lat="46.37683" lon="-0.34995">
        <ele>31.541</ele>
        <time>2011-06-02T14:46:47Z</time>
      </trkpt>
      <trkpt lat="46.37683" lon="-0.34994">
        <ele>31.5774</ele>
        <time>2011-06-02T14:46:48Z</time>
      </trkpt>
      <trkpt lat="46.37682" lon="-0.34992">
        <ele>31.6115</ele>
        <time>2011-06-02T14:46:49Z</time>
      </trkpt>
      <trkpt lat="46.37682" lon="-0.3499">
        <ele>31.6452</ele>
        <time>2011-06-02T14:46:50Z</time>
      </trkpt>
      <trkpt lat="46.37682" lon="-0.34989">
        <ele>31.6797</ele>
        <time>2011-06-02T14:46:51Z</time>
      </trkpt>
      <trkpt lat="46.37682" lon="-0.34987">
        <ele>31.7191</ele>
        <time>2011-06-02T14:46:52Z</time>
      </trkpt>
      <trkpt lat="46.37682" lon="-0.34986">
        <ele>31.763</ele>
        <time>2011-06-02T14:46:53Z</time>
      </trkpt>
      <trkpt lat="46.37682" lon="-0.34984">
        <ele>31.8081</ele>
        <time>2011-06-02T14:46:54Z</time>
      </trkpt>
      <trkpt lat="46.37681" lon="-0.34983">
        <ele>31.8536</ele>
        <time>2011-06-02T14:46:55Z</time>
      </trkpt>
      <trkpt lat="46.37682" lon="-0.34982">
        <ele>31.908</ele>
        <time>2011-06-02T14:46:56Z</time>
      </trkpt>
      <trkpt lat="46.37682" lon="-0.3498">
        <ele>31.9572</ele>
        <time>2011-06-02T14:46:57Z</time>
      </trkpt>
      <trkpt lat="46.37682" lon="-0.34978">
        <ele>32.0032</ele>
        <time>2011-06-02T14:46:58Z</time>
      </trkpt>
      <trkpt lat="46.37682" lon="-0.34977">
        <ele>32.049</ele>
        <time>2011-06-02T14:46:59Z</time>
      </trkpt>
      <trkpt lat="46.37682" lon="-0.34975">
        <ele>32.0954</ele>
        <time>2011-06-02T14:47:00Z</time>
      </trkpt>
      <trkpt lat="46.37682" lon="-0.34973">
        <ele>32.1362</ele>
        <time>2011-06-02T14:47:01Z</time>
      </trkpt>
      <trkpt lat="46.37682" lon="-0.34971">
        <ele>32.1754</ele>
        <time>2011-06-02T14:47:02Z</time>
      </trkpt>
      <trkpt lat="46.37682" lon="-0.34969">
        <ele>32.2135</ele>
        <time>2011-06-02T14:47:03Z</time>
      </trkpt>
      <trkpt lat="46.37682" lon="-0.34967">
        <ele>32.2503</ele>
        <time>2011-06-02T14:47:04Z</time>
      </trkpt>
      <trkpt lat="46.37682" lon="-0.34965">
        <ele>32.2844</ele>
        <time>2011-06-02T14:47:05Z</time>
      </trkpt>
      <trkpt lat="46.37682" lon="-0.34964">
        <ele>32.3168</ele>
        <time>2011-06-02T14:47:06Z</time>
      </trkpt>
      <trkpt lat="46.37682" lon="-0.34963">
        <ele>32.3462</ele>
        <time>2011-06-02T14:47:07Z</time>
      </trkpt>
      <trkpt lat="46.37682" lon="-0.34961">
        <ele>32.3748</ele>
        <time>2011-06-02T14:47:08Z</time>
      </trkpt>
      <trkpt lat="46.37682" lon="-0.3496">
        <ele>32.3951</ele>
        <time>2011-06-02T14:47:09Z</time>
      </trkpt>
      <trkpt lat="46.37682" lon="-0.34958">
        <ele>32.4149</ele>
        <time>2011-06-02T14:47:10Z</time>
      </trkpt>
      <trkpt lat="46.37682" lon="-0.34956">
        <ele>32.4304</ele>
        <time>2011-06-02T14:47:11Z</time>
      </trkpt>
      <trkpt lat="46.37682" lon="-0.34955">
        <ele>32.4448</ele>
        <time>2011-06-02T14:47:12Z</time>
      </trkpt>
      <trkpt lat="46.37682" lon="-0.34953">
        <ele>32.4585</ele>
        <time>2011-06-02T14:47:13Z</time>
      </trkpt>
      <trkpt lat="46.37682" lon="-0.34952">
        <ele>32.4734</ele>
        <time>2011-06-02T14:47:14Z</time>
      </trkpt>
      <trkpt lat="46.37682" lon="-0.3495">
        <ele>32.4899</ele>
        <time>2011-06-02T14:47:15Z</time>
      </trkpt>
      <trkpt lat="46.37682" lon="-0.34949">
        <ele>32.5109</ele>
        <time>2011-06-02T14:47:16Z</time>
      </trkpt>
      <trkpt lat="46.37681" lon="-0.34947">
        <ele>32.5325</ele>
        <time>2011-06-02T14:47:17Z</time>
      </trkpt>
      <trkpt lat="46.37681" lon="-0.34946">
        <ele>32.5535</ele>
        <time>2011-06-02T14:47:18Z</time>
      </trkpt>
      <trkpt lat="46.37681" lon="-0.34945">
        <ele>32.5747</ele>
        <time>2011-06-02T14:47:19Z</time>
      </trkpt>
      <trkpt lat="46.3768" lon="-0.34943">
        <ele>32.5894</ele>
        <time>2011-06-02T14:47:20Z</time>
      </trkpt>
      <trkpt lat="46.3768" lon="-0.34942">
        <ele>32.6043</ele>
        <time>2011-06-02T14:47:21Z</time>
      </trkpt>
      <trkpt lat="46.3768" lon="-0.34941">
        <ele>32.6235</ele>
        <time>2011-06-02T14:47:22Z</time>
      </trkpt>
      <trkpt lat="46.37679" lon="-0.3494">
        <ele>32.6467</ele>
        <time>2011-06-02T14:47:23Z</time>
      </trkpt>
      <trkpt lat="46.37679" lon="-0.34938">
        <ele>32.6692</ele>
        <time>2011-06-02T14:47:24Z</time>
      </trkpt>
      <trkpt lat="46.37679" lon="-0.34937">
        <ele>32.6866</ele>
        <time>2011-06-02T14:47:25Z</time>
      </trkpt>
      <trkpt lat="46.37678" lon="-0.34936">
        <ele>32.6992</ele>
        <time>2011-06-02T14:47:26Z</time>
      </trkpt>
      <trkpt lat="46.37677" lon="-0.34935">
        <ele>32.7102</ele>
        <time>2011-06-02T14:47:27Z</time>
      </trkpt>
      <trkpt lat="46.37677" lon="-0.34934">
        <ele>32.7217</ele>
        <time>2011-06-02T14:47:28Z</time>
      </trkpt>
      <trkpt lat="46.37677" lon="-0.34932">
        <ele>32.7357</ele>
        <time>2011-06-02T14:47:29Z</time>
      </trkpt>
      <trkpt lat="46.37677" lon="-0.34931">
        <ele>32.7479</ele>
        <time>2011-06-02T14:47:30Z</time>
      </trkpt>
      <trkpt lat="46.37676" lon="-0.34929">
        <ele>32.7609</ele>
        <time>2011-06-02T14:47:31Z</time>
      </trkpt>
      <trkpt lat="46.37676" lon="-0.34927">
        <ele>32.7669</ele>
        <time>2011-06-02T14:47:32Z</time>
      </trkpt>
      <trkpt lat="46.37676" lon="-0.34926">
        <ele>32.7765</ele>
        <time>2011-06-02T14:47:33Z</time>
      </trkpt>
      <trkpt lat="46.37676" lon="-0.34924">
        <ele>32.7865</ele>
        <time>2011-06-02T14:47:34Z</time>
      </trkpt>
      <trkpt lat="46.37676" lon="-0.34922">
        <ele>32.7966</ele>
        <time>2011-06-02T14:47:35Z</time>
      </trkpt>
      <trkpt lat="46.37676" lon="-0.3492">
        <ele>32.8114</ele>
        <time>2011-06-02T14:47:36Z</time>
      </trkpt>
      <trkpt lat="46.37675" lon="-0.34919">
        <ele>32.8273</ele>
        <time>2011-06-02T14:47:37Z</time>
      </trkpt>
      <trkpt lat="46.37675" lon="-0.34917">
        <ele>32.8432</ele>
        <time>2011-06-02T14:47:38Z</time>
      </trkpt>
      <trkpt lat="46.37675" lon="-0.34915">
        <ele>32.8613</ele>
        <time>2011-06-02T14:47:39Z</time>
      </trkpt>
      <trkpt lat="46.37674" lon="-0.34913">
        <ele>32.8787</ele>
        <time>2011-06-02T14:47:40Z</time>
      </trkpt>
      <trkpt lat="46.37673" lon="-0.34912">
        <ele>32.8947</ele>
        <time>2011-06-02T14:47:41Z</time>
      </trkpt>
      <trkpt lat="46.37672" lon="-0.3491">
        <ele>32.9098</ele>
        <time>2011-06-02T14:47:42Z</time>
      </trkpt>
      <trkpt lat="46.37672" lon="-0.34909">
        <ele>32.9236</ele>
        <time>2011-06-02T14:47:43Z</time>
      </trkpt>
      <trkpt lat="46.37672" lon="-0.34907">
        <ele>32.9424</ele>
        <time>2011-06-02T14:47:44Z</time>
      </trkpt>
      <trkpt lat="46.37671" lon="-0.34906">
        <ele>32.9612</ele>
        <time>2011-06-02T14:47:45Z</time>
      </trkpt>
      <trkpt lat="46.37671" lon="-0.34904">
        <ele>32.9798</ele>
        <time>2011-06-02T14:47:46Z</time>
      </trkpt>
      <trkpt lat="46.37671" lon="-0.34903">
        <ele>32.9978</ele>
        <time>2011-06-02T14:47:47Z</time>
      </trkpt>
      <trkpt lat="46.37671" lon="-0.34901">
        <ele>33.0157</ele>
        <time>2011-06-02T14:47:48Z</time>
      </trkpt>
      <trkpt lat="46.37671" lon="-0.349">
        <ele>33.0314</ele>
        <time>2011-06-02T14:47:49Z</time>
      </trkpt>
      <trkpt lat="46.3767" lon="-0.34898">
        <ele>33.0408</ele>
        <time>2011-06-02T14:47:50Z</time>
      </trkpt>
      <trkpt lat="46.3767" lon="-0.34897">
        <ele>33.0471</ele>
        <time>2011-06-02T14:47:51Z</time>
      </trkpt>
      <trkpt lat="46.37669" lon="-0.34896">
        <ele>33.0532</ele>
        <time>2011-06-02T14:47:52Z</time>
      </trkpt>
      <trkpt lat="46.37669" lon="-0.34894">
        <ele>33.0585</ele>
        <time>2011-06-02T14:47:53Z</time>
      </trkpt>
      <trkpt lat="46.37669" lon="-0.34893">
        <ele>33.0635</ele>
        <time>2011-06-02T14:47:54Z</time>
      </trkpt>
      <trkpt lat="46.37669" lon="-0.34891">
        <ele>33.0674</ele>
        <time>2011-06-02T14:47:55Z</time>
      </trkpt>
      <trkpt lat="46.37669" lon="-0.34889">
        <ele>33.0723</ele>
        <time>2011-06-02T14:47:56Z</time>
      </trkpt>
      <trkpt lat="46.37669" lon="-0.34887">
        <ele>33.0767</ele>
        <time>2011-06-02T14:47:57Z</time>
      </trkpt>
      <trkpt lat="46.37668" lon="-0.34886">
        <ele>33.0812</ele>
        <time>2011-06-02T14:47:58Z</time>
      </trkpt>
      <trkpt lat="46.37668" lon="-0.34884">
        <ele>33.0849</ele>
        <time>2011-06-02T14:47:59Z</time>
      </trkpt>
      <trkpt lat="46.37668" lon="-0.34882">
        <ele>33.0862</ele>
        <time>2011-06-02T14:48:00Z</time>
      </trkpt>
      <trkpt lat="46.37668" lon="-0.3488">
        <ele>33.0866</ele>
        <time>2011-06-02T14:48:01Z</time>
      </trkpt>
      <trkpt lat="46.37668" lon="-0.34878">
        <ele>33.0872</ele>
        <time>2011-06-02T14:48:02Z</time>
      </trkpt>
      <trkpt lat="46.37668" lon="-0.34876">
        <ele>33.0958</ele>
        <time>2011-06-02T14:48:03Z</time>
      </trkpt>
      <trkpt lat="46.37667" lon="-0.34874">
        <ele>33.1043</ele>
        <time>2011-06-02T14:48:04Z</time>
      </trkpt>
      <trkpt lat="46.37666" lon="-0.34873">
        <ele>33.1116</ele>
        <time>2011-06-02T14:48:05Z</time>
      </trkpt>
      <trkpt lat="46.37666" lon="-0.34871">
        <ele>33.1214</ele>
        <time>2011-06-02T14:48:06Z</time>
      </trkpt>
      <trkpt lat="46.37665" lon="-0.3487">
        <ele>33.1329</ele>
        <time>2011-06-02T14:48:07Z</time>
      </trkpt>
      <trkpt lat="46.37665" lon="-0.34869">
        <ele>33.1509</ele>
        <time>2011-06-02T14:48:08Z</time>
      </trkpt>
      <trkpt lat="46.37664" lon="-0.34867">
        <ele>33.1689</ele>
        <time>2011-06-02T14:48:09Z</time>
      </trkpt>
      <trkpt lat="46.37664" lon="-0.34866">
        <ele>33.1952</ele>
        <time>2011-06-02T14:48:10Z</time>
      </trkpt>
      <trkpt lat="46.37663" lon="-0.34865">
        <ele>33.2217</ele>
        <time>2011-06-02T14:48:11Z</time>
      </trkpt>
      <trkpt lat="46.37663" lon="-0.34864">
        <ele>33.251</ele>
        <time>2011-06-02T14:48:12Z</time>
      </trkpt>
      <trkpt lat="46.37663" lon="-0.34863">
        <ele>33.2788</ele>
        <time>2011-06-02T14:48:13Z</time>
      </trkpt>
      <trkpt lat="46.37662" lon="-0.34862">
        <ele>33.3091</ele>
        <time>2011-06-02T14:48:14Z</time>
      </trkpt>
      <trkpt lat="46.37661" lon="-0.34862">
        <ele>33.4135</ele>
        <time>2011-06-02T14:48:19Z</time>
      </trkpt>
      <trkpt lat="46.37661" lon="-0.34861">
        <ele>33.4568</ele>
        <time>2011-06-02T14:48:20Z</time>
      </trkpt>
      <trkpt lat="46.37662" lon="-0.34859">
        <ele>33.4569</ele>
        <time>2011-06-02T14:48:23Z</time>
      </trkpt>
      <trkpt lat="46.37662" lon="-0.34858">
        <ele>33.458</ele>
        <time>2011-06-02T14:48:24Z</time>
      </trkpt>
      <trkpt lat="46.37662" lon="-0.34856">
        <ele>33.4607</ele>
        <time>2011-06-02T14:48:25Z</time>
      </trkpt>
      <trkpt lat="46.37663" lon="-0.34855">
        <ele>33.4653</ele>
        <time>2011-06-02T14:48:26Z</time>
      </trkpt>
      <trkpt lat="46.37663" lon="-0.34854">
        <ele>33.4633</ele>
        <time>2011-06-02T14:48:27Z</time>
      </trkpt>
      <trkpt lat="46.37662" lon="-0.34853">
        <ele>33.4604</ele>
        <time>2011-06-02T14:48:28Z</time>
      </trkpt>
      <trkpt lat="46.37662" lon="-0.34852">
        <ele>33.4557</ele>
        <time>2011-06-02T14:48:29Z</time>
      </trkpt>
      <trkpt lat="46.37662" lon="-0.3485">
        <ele>33.4583</ele>
        <time>2011-06-02T14:48:30Z</time>
      </trkpt>
      <trkpt lat="46.37662" lon="-0.34849">
        <ele>33.4602</ele>
        <time>2011-06-02T14:48:31Z</time>
      </trkpt>
      <trkpt lat="46.37662" lon="-0.34848">
        <ele>33.459</ele>
        <time>2011-06-02T14:48:32Z</time>
      </trkpt>
      <trkpt lat="46.37662" lon="-0.34848">
        <ele>33.4595</ele>
        <time>2011-06-02T14:48:33Z</time>
      </trkpt>
      <trkpt lat="46.37662" lon="-0.34847">
        <ele>33.4565</ele>
        <time>2011-06-02T14:48:34Z</time>
      </trkpt>
      <trkpt lat="46.37662" lon="-0.34846">
        <ele>33.4532</ele>
        <time>2011-06-02T14:48:35Z</time>
      </trkpt>
      <trkpt lat="46.37662" lon="-0.34844">
        <ele>33.4489</ele>
        <time>2011-06-02T14:48:36Z</time>
      </trkpt>
      <trkpt lat="46.37662" lon="-0.34843">
        <ele>33.4457</ele>
        <time>2011-06-02T14:48:37Z</time>
      </trkpt>
      <trkpt lat="46.37661" lon="-0.34842">
        <ele>33.4354</ele>
        <time>2011-06-02T14:48:38Z</time>
      </trkpt>
      <trkpt lat="46.37661" lon="-0.34841">
        <ele>33.4246</ele>
        <time>2011-06-02T14:48:39Z</time>
      </trkpt>
      <trkpt lat="46.3766" lon="-0.34839">
        <ele>33.4032</ele>
        <time>2011-06-02T14:48:40Z</time>
      </trkpt>
      <trkpt lat="46.3766" lon="-0.34838">
        <ele>33.3819</ele>
        <time>2011-06-02T14:48:41Z</time>
      </trkpt>
      <trkpt lat="46.37659" lon="-0.34836">
        <ele>33.3621</ele>
        <time>2011-06-02T14:48:42Z</time>
      </trkpt>
      <trkpt lat="46.37658" lon="-0.34835">
        <ele>33.3402</ele>
        <time>2011-06-02T14:48:43Z</time>
      </trkpt>
      <trkpt lat="46.37658" lon="-0.34833">
        <ele>33.3184</ele>
        <time>2011-06-02T14:48:44Z</time>
      </trkpt>
      <trkpt lat="46.37657" lon="-0.34832">
        <ele>33.2977</ele>
        <time>2011-06-02T14:48:45Z</time>
      </trkpt>
      <trkpt lat="46.37657" lon="-0.3483">
        <ele>33.2776</ele>
        <time>2011-06-02T14:48:46Z</time>
      </trkpt>
      <trkpt lat="46.37656" lon="-0.34829">
        <ele>33.2664</ele>
        <time>2011-06-02T14:48:47Z</time>
      </trkpt>
      <trkpt lat="46.37656" lon="-0.34828">
        <ele>33.2595</ele>
        <time>2011-06-02T14:48:48Z</time>
      </trkpt>
      <trkpt lat="46.37655" lon="-0.34826">
        <ele>33.2535</ele>
        <time>2011-06-02T14:48:49Z</time>
      </trkpt>
      <trkpt lat="46.37655" lon="-0.34824">
        <ele>33.2433</ele>
        <time>2011-06-02T14:48:50Z</time>
      </trkpt>
      <trkpt lat="46.37655" lon="-0.34822">
        <ele>33.2272</ele>
        <time>2011-06-02T14:48:51Z</time>
      </trkpt>
      <trkpt lat="46.37654" lon="-0.3482">
        <ele>33.21</ele>
        <time>2011-06-02T14:48:52Z</time>
      </trkpt>
      <trkpt lat="46.37654" lon="-0.34819">
        <ele>33.1913</ele>
        <time>2011-06-02T14:48:53Z</time>
      </trkpt>
      <trkpt lat="46.37654" lon="-0.34818">
        <ele>33.1693</ele>
        <time>2011-06-02T14:48:54Z</time>
      </trkpt>
      <trkpt lat="46.37653" lon="-0.34817">
        <ele>33.1481</ele>
        <time>2011-06-02T14:48:55Z</time>
      </trkpt>
      <trkpt lat="46.37653" lon="-0.34815">
        <ele>33.1273</ele>
        <time>2011-06-02T14:48:56Z</time>
      </trkpt>
      <trkpt lat="46.37653" lon="-0.34813">
        <ele>33.1069</ele>
        <time>2011-06-02T14:48:57Z</time>
      </trkpt>
      <trkpt lat="46.37652" lon="-0.34811">
        <ele>33.0865</ele>
        <time>2011-06-02T14:48:58Z</time>
      </trkpt>
      <trkpt lat="46.37652" lon="-0.34809">
        <ele>33.0613</ele>
        <time>2011-06-02T14:48:59Z</time>
      </trkpt>
      <trkpt lat="46.37652" lon="-0.34808">
        <ele>33.0364</ele>
        <time>2011-06-02T14:49:00Z</time>
      </trkpt>
      <trkpt lat="46.37652" lon="-0.34805">
        <ele>33.0116</ele>
        <time>2011-06-02T14:49:01Z</time>
      </trkpt>
      <trkpt lat="46.37652" lon="-0.34804">
        <ele>32.9845</ele>
        <time>2011-06-02T14:49:02Z</time>
      </trkpt>
      <trkpt lat="46.37652" lon="-0.34802">
        <ele>32.9526</ele>
        <time>2011-06-02T14:49:03Z</time>
      </trkpt>
      <trkpt lat="46.37652" lon="-0.34801">
        <ele>32.9215</ele>
        <time>2011-06-02T14:49:04Z</time>
      </trkpt>
      <trkpt lat="46.37651" lon="-0.348">
        <ele>32.8904</ele>
        <time>2011-06-02T14:49:05Z</time>
      </trkpt>
      <trkpt lat="46.37651" lon="-0.34799">
        <ele>32.8594</ele>
        <time>2011-06-02T14:49:06Z</time>
      </trkpt>
      <trkpt lat="46.37651" lon="-0.34798">
        <ele>32.831</ele>
        <time>2011-06-02T14:49:07Z</time>
      </trkpt>
      <trkpt lat="46.37651" lon="-0.34797">
        <ele>32.8054</ele>
        <time>2011-06-02T14:49:08Z</time>
      </trkpt>
      <trkpt lat="46.3765" lon="-0.34795">
        <ele>32.7806</ele>
        <time>2011-06-02T14:49:09Z</time>
      </trkpt>
      <trkpt lat="46.3765" lon="-0.34794">
        <ele>32.7524</ele>
        <time>2011-06-02T14:49:10Z</time>
      </trkpt>
      <trkpt lat="46.3765" lon="-0.34793">
        <ele>32.7245</ele>
        <time>2011-06-02T14:49:11Z</time>
      </trkpt>
      <trkpt lat="46.3765" lon="-0.34792">
        <ele>32.6938</ele>
        <time>2011-06-02T14:49:12Z</time>
      </trkpt>
      <trkpt lat="46.3765" lon="-0.3479">
        <ele>32.6615</ele>
        <time>2011-06-02T14:49:13Z</time>
      </trkpt>
      <trkpt lat="46.3765" lon="-0.34788">
        <ele>32.6306</ele>
        <time>2011-06-02T14:49:14Z</time>
      </trkpt>
      <trkpt lat="46.3765" lon="-0.34787">
        <ele>32.6038</ele>
        <time>2011-06-02T14:49:15Z</time>
      </trkpt>
      <trkpt lat="46.3765" lon="-0.34785">
        <ele>32.5796</ele>
        <time>2011-06-02T14:49:16Z</time>
      </trkpt>
      <trkpt lat="46.37649" lon="-0.34784">
        <ele>32.553</ele>
        <time>2011-06-02T14:49:17Z</time>
      </trkpt>
      <trkpt lat="46.37649" lon="-0.34782">
        <ele>32.5183</ele>
        <time>2011-06-02T14:49:18Z</time>
      </trkpt>
      <trkpt lat="46.37648" lon="-0.34781">
        <ele>32.4832</ele>
        <time>2011-06-02T14:49:19Z</time>
      </trkpt>
      <trkpt lat="46.37648" lon="-0.34779">
        <ele>32.4427</ele>
        <time>2011-06-02T14:49:20Z</time>
      </trkpt>
      <trkpt lat="46.37648" lon="-0.34777">
        <ele>32.4031</ele>
        <time>2011-06-02T14:49:21Z</time>
      </trkpt>
      <trkpt lat="46.37648" lon="-0.34775">
        <ele>32.3605</ele>
        <time>2011-06-02T14:49:22Z</time>
      </trkpt>
      <trkpt lat="46.37647" lon="-0.34773">
        <ele>32.3158</ele>
        <time>2011-06-02T14:49:23Z</time>
      </trkpt>
      <trkpt lat="46.37647" lon="-0.34771">
        <ele>32.2715</ele>
        <time>2011-06-02T14:49:24Z</time>
      </trkpt>
      <trkpt lat="46.37647" lon="-0.34769">
        <ele>32.2305</ele>
        <time>2011-06-02T14:49:25Z</time>
      </trkpt>
      <trkpt lat="46.37647" lon="-0.34767">
        <ele>32.1903</ele>
        <time>2011-06-02T14:49:26Z</time>
      </trkpt>
      <trkpt lat="46.37647" lon="-0.34765">
        <ele>32.1479</ele>
        <time>2011-06-02T14:49:27Z</time>
      </trkpt>
      <trkpt lat="46.37646" lon="-0.34763">
        <ele>32.1058</ele>
        <time>2011-06-02T14:49:28Z</time>
      </trkpt>
      <trkpt lat="46.37646" lon="-0.34761">
        <ele>32.0655</ele>
        <time>2011-06-02T14:49:29Z</time>
      </trkpt>
      <trkpt lat="46.37646" lon="-0.3476">
        <ele>32.0272</ele>
        <time>2011-06-02T14:49:30Z</time>
      </trkpt>
      <trkpt lat="46.37645" lon="-0.34758">
        <ele>31.9903</ele>
        <time>2011-06-02T14:49:31Z</time>
      </trkpt>
      <trkpt lat="46.37645" lon="-0.34757">
        <ele>31.9497</ele>
        <time>2011-06-02T14:49:32Z</time>
      </trkpt>
      <trkpt lat="46.37645" lon="-0.34755">
        <ele>31.9102</ele>
        <time>2011-06-02T14:49:33Z</time>
      </trkpt>
      <trkpt lat="46.37645" lon="-0.34753">
        <ele>31.8749</ele>
        <time>2011-06-02T14:49:34Z</time>
      </trkpt>
      <trkpt lat="46.37644" lon="-0.34752">
        <ele>31.8405</ele>
        <time>2011-06-02T14:49:35Z</time>
      </trkpt>
      <trkpt lat="46.37642" lon="-0.34749">
        <ele>31.7451</ele>
        <time>2011-06-02T14:49:43Z</time>
      </trkpt>
      <trkpt lat="46.37642" lon="-0.34748">
        <ele>31.6984</ele>
        <time>2011-06-02T14:49:44Z</time>
      </trkpt>
      <trkpt lat="46.37642" lon="-0.34747">
        <ele>31.6525</ele>
        <time>2011-06-02T14:49:45Z</time>
      </trkpt>
      <trkpt lat="46.37641" lon="-0.34746">
        <ele>31.601</ele>
        <time>2011-06-02T14:49:46Z</time>
      </trkpt>
      <trkpt lat="46.3764" lon="-0.34746">
        <ele>31.5525</ele>
        <time>2011-06-02T14:49:47Z</time>
      </trkpt>
      <trkpt lat="46.3764" lon="-0.34745">
        <ele>31.5042</ele>
        <time>2011-06-02T14:49:48Z</time>
      </trkpt>
      <trkpt lat="46.37639" lon="-0.34744">
        <ele>31.4573</ele>
        <time>2011-06-02T14:49:49Z</time>
      </trkpt>
      <trkpt lat="46.37639" lon="-0.34744">
        <ele>31.4109</ele>
        <time>2011-06-02T14:49:50Z</time>
      </trkpt>
      <trkpt lat="46.37639" lon="-0.34743">
        <ele>31.3661</ele>
        <time>2011-06-02T14:49:51Z</time>
      </trkpt>
      <trkpt lat="46.37639" lon="-0.34741">
        <ele>31.3191</ele>
        <time>2011-06-02T14:49:52Z</time>
      </trkpt>
      <trkpt lat="46.37638" lon="-0.34741">
        <ele>31.2737</ele>
        <time>2011-06-02T14:49:53Z</time>
      </trkpt>
      <trkpt lat="46.37637" lon="-0.3474">
        <ele>31.2296</ele>
        <time>2011-06-02T14:49:54Z</time>
      </trkpt>
      <trkpt lat="46.37637" lon="-0.34739">
        <ele>31.1834</ele>
        <time>2011-06-02T14:49:55Z</time>
      </trkpt>
      <trkpt lat="46.37637" lon="-0.34737">
        <ele>31.1378</ele>
        <time>2011-06-02T14:49:56Z</time>
      </trkpt>
      <trkpt lat="46.37637" lon="-0.34736">
        <ele>31.0946</ele>
        <time>2011-06-02T14:49:57Z</time>
      </trkpt>
      <trkpt lat="46.37637" lon="-0.34734">
        <ele>31.0517</ele>
        <time>2011-06-02T14:49:58Z</time>
      </trkpt>
      <trkpt lat="46.37636" lon="-0.34733">
        <ele>31.0053</ele>
        <time>2011-06-02T14:49:59Z</time>
      </trkpt>
      <trkpt lat="46.37636" lon="-0.34731">
        <ele>30.9602</ele>
        <time>2011-06-02T14:50:00Z</time>
      </trkpt>
      <trkpt lat="46.37635" lon="-0.3473">
        <ele>30.9162</ele>
        <time>2011-06-02T14:50:01Z</time>
      </trkpt>
      <trkpt lat="46.37635" lon="-0.34728">
        <ele>30.8763</ele>
        <time>2011-06-02T14:50:02Z</time>
      </trkpt>
      <trkpt lat="46.37635" lon="-0.34727">
        <ele>30.8368</ele>
        <time>2011-06-02T14:50:03Z</time>
      </trkpt>
      <trkpt lat="46.37635" lon="-0.34725">
        <ele>30.8002</ele>
        <time>2011-06-02T14:50:04Z</time>
      </trkpt>
      <trkpt lat="46.37635" lon="-0.34723">
        <ele>30.7645</ele>
        <time>2011-06-02T14:50:05Z</time>
      </trkpt>
      <trkpt lat="46.37635" lon="-0.34721">
        <ele>30.7344</ele>
        <time>2011-06-02T14:50:06Z</time>
      </trkpt>
      <trkpt lat="46.37634" lon="-0.34719">
        <ele>30.7084</ele>
        <time>2011-06-02T14:50:07Z</time>
      </trkpt>
      <trkpt lat="46.37634" lon="-0.34717">
        <ele>30.6851</ele>
        <time>2011-06-02T14:50:08Z</time>
      </trkpt>
      <trkpt lat="46.37634" lon="-0.34716">
        <ele>30.6627</ele>
        <time>2011-06-02T14:50:09Z</time>
      </trkpt>
      <trkpt lat="46.37634" lon="-0.34714">
        <ele>30.6412</ele>
        <time>2011-06-02T14:50:10Z</time>
      </trkpt>
      <trkpt lat="46.37634" lon="-0.34712">
        <ele>30.6214</ele>
        <time>2011-06-02T14:50:11Z</time>
      </trkpt>
      <trkpt lat="46.37634" lon="-0.34711">
        <ele>30.598</ele>
        <time>2011-06-02T14:50:12Z</time>
      </trkpt>
      <trkpt lat="46.37634" lon="-0.34709">
        <ele>30.5759</ele>
        <time>2011-06-02T14:50:13Z</time>
      </trkpt>
      <trkpt lat="46.37634" lon="-0.34707">
        <ele>30.5537</ele>
        <time>2011-06-02T14:50:14Z</time>
      </trkpt>
      <trkpt lat="46.37634" lon="-0.34705">
        <ele>30.5306</ele>
        <time>2011-06-02T14:50:15Z</time>
      </trkpt>
      <trkpt lat="46.37634" lon="-0.34703">
        <ele>30.5075</ele>
        <time>2011-06-02T14:50:16Z</time>
      </trkpt>
      <trkpt lat="46.37634" lon="-0.34702">
        <ele>30.4841</ele>
        <time>2011-06-02T14:50:17Z</time>
      </trkpt>
      <trkpt lat="46.37634" lon="-0.347">
        <ele>30.4567</ele>
        <time>2011-06-02T14:50:18Z</time>
      </trkpt>
      <trkpt lat="46.37633" lon="-0.34699">
        <ele>30.4302</ele>
        <time>2011-06-02T14:50:19Z</time>
      </trkpt>
      <trkpt lat="46.37633" lon="-0.34697">
        <ele>30.402</ele>
        <time>2011-06-02T14:50:20Z</time>
      </trkpt>
      <trkpt lat="46.37632" lon="-0.34696">
        <ele>30.3179</ele>
        <time>2011-06-02T14:50:23Z</time>
      </trkpt>
      <trkpt lat="46.37631" lon="-0.34695">
        <ele>30.2706</ele>
        <time>2011-06-02T14:50:24Z</time>
      </trkpt>
      <trkpt lat="46.37631" lon="-0.34693">
        <ele>30.2249</ele>
        <time>2011-06-02T14:50:25Z</time>
      </trkpt>
      <trkpt lat="46.37631" lon="-0.34692">
        <ele>30.1791</ele>
        <time>2011-06-02T14:50:26Z</time>
      </trkpt>
      <trkpt lat="46.3763" lon="-0.34691">
        <ele>30.1371</ele>
        <time>2011-06-02T14:50:27Z</time>
      </trkpt>
      <trkpt lat="46.3763" lon="-0.34689">
        <ele>30.1015</ele>
        <time>2011-06-02T14:50:28Z</time>
      </trkpt>
      <trkpt lat="46.3763" lon="-0.34688">
        <ele>30.0611</ele>
        <time>2011-06-02T14:50:29Z</time>
      </trkpt>
      <trkpt lat="46.3763" lon="-0.34686">
        <ele>30.0158</ele>
        <time>2011-06-02T14:50:30Z</time>
      </trkpt>
      <trkpt lat="46.3763" lon="-0.34685">
        <ele>29.9707</ele>
        <time>2011-06-02T14:50:31Z</time>
      </trkpt>
      <trkpt lat="46.3763" lon="-0.34684">
        <ele>29.9266</ele>
        <time>2011-06-02T14:50:32Z</time>
      </trkpt>
      <trkpt lat="46.3763" lon="-0.34683">
        <ele>29.8883</ele>
        <time>2011-06-02T14:50:33Z</time>
      </trkpt>
      <trkpt lat="46.3763" lon="-0.34682">
        <ele>29.8532</ele>
        <time>2011-06-02T14:50:34Z</time>
      </trkpt>
      <trkpt lat="46.3763" lon="-0.34681">
        <ele>29.8141</ele>
        <time>2011-06-02T14:50:35Z</time>
      </trkpt>
      <trkpt lat="46.37629" lon="-0.3468">
        <ele>29.7757</ele>
        <time>2011-06-02T14:50:36Z</time>
      </trkpt>
      <trkpt lat="46.37629" lon="-0.34679">
        <ele>29.7384</ele>
        <time>2011-06-02T14:50:37Z</time>
      </trkpt>
      <trkpt lat="46.37628" lon="-0.34678">
        <ele>29.6991</ele>
        <time>2011-06-02T14:50:38Z</time>
      </trkpt>
      <trkpt lat="46.37628" lon="-0.34677">
        <ele>29.6595</ele>
        <time>2011-06-02T14:50:39Z</time>
      </trkpt>
      <trkpt lat="46.37628" lon="-0.34675">
        <ele>29.6213</ele>
        <time>2011-06-02T14:50:40Z</time>
      </trkpt>
      <trkpt lat="46.37628" lon="-0.34674">
        <ele>29.5837</ele>
        <time>2011-06-02T14:50:41Z</time>
      </trkpt>
      <trkpt lat="46.37629" lon="-0.34672">
        <ele>29.5465</ele>
        <time>2011-06-02T14:50:42Z</time>
      </trkpt>
      <trkpt lat="46.37629" lon="-0.3467">
        <ele>29.5093</ele>
        <time>2011-06-02T14:50:43Z</time>
      </trkpt>
      <trkpt lat="46.37628" lon="-0.34669">
        <ele>29.4704</ele>
        <time>2011-06-02T14:50:44Z</time>
      </trkpt>
      <trkpt lat="46.37628" lon="-0.34667">
        <ele>29.4318</ele>
        <time>2011-06-02T14:50:45Z</time>
      </trkpt>
      <trkpt lat="46.37627" lon="-0.34665">
        <ele>29.3912</ele>
        <time>2011-06-02T14:50:46Z</time>
      </trkpt>
      <trkpt lat="46.37627" lon="-0.34663">
        <ele>29.3563</ele>
        <time>2011-06-02T14:50:47Z</time>
      </trkpt>
      <trkpt lat="46.37626" lon="-0.34661">
        <ele>29.3182</ele>
        <time>2011-06-02T14:50:48Z</time>
      </trkpt>
      <trkpt lat="46.37626" lon="-0.34659">
        <ele>29.2806</ele>
        <time>2011-06-02T14:50:49Z</time>
      </trkpt>
      <trkpt lat="46.37625" lon="-0.34657">
        <ele>29.2379</ele>
        <time>2011-06-02T14:50:50Z</time>
      </trkpt>
      <trkpt lat="46.37624" lon="-0.34656">
        <ele>29.1981</ele>
        <time>2011-06-02T14:50:51Z</time>
      </trkpt>
      <trkpt lat="46.37624" lon="-0.34655">
        <ele>29.1602</ele>
        <time>2011-06-02T14:50:52Z</time>
      </trkpt>
      <trkpt lat="46.37624" lon="-0.34653">
        <ele>29.123</ele>
        <time>2011-06-02T14:50:53Z</time>
      </trkpt>
      <trkpt lat="46.37623" lon="-0.34651">
        <ele>29.0858</ele>
        <time>2011-06-02T14:50:54Z</time>
      </trkpt>
      <trkpt lat="46.37623" lon="-0.3465">
        <ele>29.04</ele>
        <time>2011-06-02T14:50:55Z</time>
      </trkpt>
      <trkpt lat="46.37622" lon="-0.34648">
        <ele>28.9886</ele>
        <time>2011-06-02T14:50:56Z</time>
      </trkpt>
      <trkpt lat="46.37622" lon="-0.34646">
        <ele>28.9398</ele>
        <time>2011-06-02T14:50:57Z</time>
      </trkpt>
      <trkpt lat="46.37622" lon="-0.34644">
        <ele>28.8983</ele>
        <time>2011-06-02T14:50:58Z</time>
      </trkpt>
      <trkpt lat="46.37621" lon="-0.34642">
        <ele>28.8644</ele>
        <time>2011-06-02T14:50:59Z</time>
      </trkpt>
      <trkpt lat="46.37621" lon="-0.34641">
        <ele>28.8329</ele>
        <time>2011-06-02T14:51:00Z</time>
      </trkpt>
      <trkpt lat="46.3762" lon="-0.34639">
        <ele>28.8079</ele>
        <time>2011-06-02T14:51:01Z</time>
      </trkpt>
      <trkpt lat="46.3762" lon="-0.34638">
        <ele>28.7838</ele>
        <time>2011-06-02T14:51:02Z</time>
      </trkpt>
      <trkpt lat="46.3762" lon="-0.34636">
        <ele>28.7513</ele>
        <time>2011-06-02T14:51:03Z</time>
      </trkpt>
      <trkpt lat="46.37619" lon="-0.34634">
        <ele>28.7304</ele>
        <time>2011-06-02T14:51:04Z</time>
      </trkpt>
      <trkpt lat="46.37619" lon="-0.34632">
        <ele>28.7232</ele>
        <time>2011-06-02T14:51:05Z</time>
      </trkpt>
      <trkpt lat="46.37618" lon="-0.34631">
        <ele>28.7328</ele>
        <time>2011-06-02T14:51:06Z</time>
      </trkpt>
      <trkpt lat="46.37618" lon="-0.34629">
        <ele>28.753</ele>
        <time>2011-06-02T14:51:07Z</time>
      </trkpt>
      <trkpt lat="46.37618" lon="-0.34628">
        <ele>28.7792</ele>
        <time>2011-06-02T14:51:08Z</time>
      </trkpt>
      <trkpt lat="46.37617" lon="-0.34626">
        <ele>28.8056</ele>
        <time>2011-06-02T14:51:09Z</time>
      </trkpt>
      <trkpt lat="46.37616" lon="-0.34625">
        <ele>28.8313</ele>
        <time>2011-06-02T14:51:10Z</time>
      </trkpt>
      <trkpt lat="46.37616" lon="-0.34623">
        <ele>28.8566</ele>
        <time>2011-06-02T14:51:11Z</time>
      </trkpt>
      <trkpt lat="46.37616" lon="-0.34622">
        <ele>28.8814</ele>
        <time>2011-06-02T14:51:12Z</time>
      </trkpt>
      <trkpt lat="46.37616" lon="-0.34621">
        <ele>28.9062</ele>
        <time>2011-06-02T14:51:13Z</time>
      </trkpt>
      <trkpt lat="46.37615" lon="-0.3462">
        <ele>28.931</ele>
        <time>2011-06-02T14:51:14Z</time>
      </trkpt>
      <trkpt lat="46.37615" lon="-0.34618">
        <ele>28.9578</ele>
        <time>2011-06-02T14:51:15Z</time>
      </trkpt>
      <trkpt lat="46.37615" lon="-0.34617">
        <ele>28.9816</ele>
        <time>2011-06-02T14:51:16Z</time>
      </trkpt>
      <trkpt lat="46.37615" lon="-0.34616">
        <ele>29.0085</ele>
        <time>2011-06-02T14:51:17Z</time>
      </trkpt>
      <trkpt lat="46.37615" lon="-0.34615">
        <ele>29.0363</ele>
        <time>2011-06-02T14:51:18Z</time>
      </trkpt>
      <trkpt lat="46.37614" lon="-0.34613">
        <ele>29.0602</ele>
        <time>2011-06-02T14:51:19Z</time>
      </trkpt>
      <trkpt lat="46.37614" lon="-0.34612">
        <ele>29.0725</ele>
        <time>2011-06-02T14:51:20Z</time>
      </trkpt>
      <trkpt lat="46.37614" lon="-0.3461">
        <ele>29.0837</ele>
        <time>2011-06-02T14:51:21Z</time>
      </trkpt>
      <trkpt lat="46.37614" lon="-0.34609">
        <ele>29.0943</ele>
        <time>2011-06-02T14:51:22Z</time>
      </trkpt>
      <trkpt lat="46.37614" lon="-0.34607">
        <ele>29.1041</ele>
        <time>2011-06-02T14:51:23Z</time>
      </trkpt>
      <trkpt lat="46.37614" lon="-0.34605">
        <ele>29.1114</ele>
        <time>2011-06-02T14:51:24Z</time>
      </trkpt>
      <trkpt lat="46.37614" lon="-0.34604">
        <ele>29.119</ele>
        <time>2011-06-02T14:51:25Z</time>
      </trkpt>
      <trkpt lat="46.37614" lon="-0.34603">
        <ele>29.1281</ele>
        <time>2011-06-02T14:51:26Z</time>
      </trkpt>
      <trkpt lat="46.37614" lon="-0.34601">
        <ele>29.139</ele>
        <time>2011-06-02T14:51:27Z</time>
      </trkpt>
      <trkpt lat="46.37614" lon="-0.34599">
        <ele>29.1505</ele>
        <time>2011-06-02T14:51:28Z</time>
      </trkpt>
      <trkpt lat="46.37614" lon="-0.34598">
        <ele>29.1569</ele>
        <time>2011-06-02T14:51:29Z</time>
      </trkpt>
      <trkpt lat="46.37613" lon="-0.34596">
        <ele>29.163</ele>
        <time>2011-06-02T14:51:30Z</time>
      </trkpt>
      <trkpt lat="46.37613" lon="-0.34594">
        <ele>29.1555</ele>
        <time>2011-06-02T14:51:31Z</time>
      </trkpt>
      <trkpt lat="46.37613" lon="-0.34592">
        <ele>29.1478</ele>
        <time>2011-06-02T14:51:32Z</time>
      </trkpt>
      <trkpt lat="46.37613" lon="-0.34589">
        <ele>29.1366</ele>
        <time>2011-06-02T14:51:33Z</time>
      </trkpt>
      <trkpt lat="46.37612" lon="-0.34587">
        <ele>29.1274</ele>
        <time>2011-06-02T14:51:34Z</time>
      </trkpt>
      <trkpt lat="46.37611" lon="-0.34585">
        <ele>29.1184</ele>
        <time>2011-06-02T14:51:35Z</time>
      </trkpt>
      <trkpt lat="46.37611" lon="-0.34584">
        <ele>29.11</ele>
        <time>2011-06-02T14:51:36Z</time>
      </trkpt>
      <trkpt lat="46.3761" lon="-0.34582">
        <ele>29.1013</ele>
        <time>2011-06-02T14:51:37Z</time>
      </trkpt>
      <trkpt lat="46.3761" lon="-0.34581">
        <ele>29.0933</ele>
        <time>2011-06-02T14:51:38Z</time>
      </trkpt>
      <trkpt lat="46.37609" lon="-0.3458">
        <ele>29.0853</ele>
        <time>2011-06-02T14:51:39Z</time>
      </trkpt>
      <trkpt lat="46.37608" lon="-0.34578">
        <ele>29.0689</ele>
        <time>2011-06-02T14:51:40Z</time>
      </trkpt>
      <trkpt lat="46.37608" lon="-0.34577">
        <ele>29.0521</ele>
        <time>2011-06-02T14:51:41Z</time>
      </trkpt>
      <trkpt lat="46.37608" lon="-0.34577">
        <ele>29.0354</ele>
        <time>2011-06-02T14:51:42Z</time>
      </trkpt>
      <trkpt lat="46.37608" lon="-0.34576">
        <ele>29.02</ele>
        <time>2011-06-02T14:51:43Z</time>
      </trkpt>
      <trkpt lat="46.37607" lon="-0.34574">
        <ele>29.0034</ele>
        <time>2011-06-02T14:51:44Z</time>
      </trkpt>
      <trkpt lat="46.37607" lon="-0.34573">
        <ele>28.9872</ele>
        <time>2011-06-02T14:51:45Z</time>
      </trkpt>
      <trkpt lat="46.37606" lon="-0.34571">
        <ele>28.9714</ele>
        <time>2011-06-02T14:51:46Z</time>
      </trkpt>
      <trkpt lat="46.37606" lon="-0.3457">
        <ele>28.9553</ele>
        <time>2011-06-02T14:51:47Z</time>
      </trkpt>
      <trkpt lat="46.37606" lon="-0.34569">
        <ele>28.9398</ele>
        <time>2011-06-02T14:51:48Z</time>
      </trkpt>
      <trkpt lat="46.37605" lon="-0.34568">
        <ele>28.9227</ele>
        <time>2011-06-02T14:51:49Z</time>
      </trkpt>
      <trkpt lat="46.37605" lon="-0.34567">
        <ele>28.9033</ele>
        <time>2011-06-02T14:51:50Z</time>
      </trkpt>
      <trkpt lat="46.37605" lon="-0.34566">
        <ele>28.8811</ele>
        <time>2011-06-02T14:51:51Z</time>
      </trkpt>
      <trkpt lat="46.37605" lon="-0.34564">
        <ele>28.8592</ele>
        <time>2011-06-02T14:51:52Z</time>
      </trkpt>
      <trkpt lat="46.37605" lon="-0.34563">
        <ele>28.8275</ele>
        <time>2011-06-02T14:51:53Z</time>
      </trkpt>
      <trkpt lat="46.37604" lon="-0.34562">
        <ele>28.7893</ele>
        <time>2011-06-02T14:51:54Z</time>
      </trkpt>
      <trkpt lat="46.37604" lon="-0.3456">
        <ele>28.7517</ele>
        <time>2011-06-02T14:51:55Z</time>
      </trkpt>
      <trkpt lat="46.37603" lon="-0.34558">
        <ele>28.7186</ele>
        <time>2011-06-02T14:51:56Z</time>
      </trkpt>
      <trkpt lat="46.37603" lon="-0.34556">
        <ele>28.6848</ele>
        <time>2011-06-02T14:51:57Z</time>
      </trkpt>
      <trkpt lat="46.37603" lon="-0.34555">
        <ele>28.6528</ele>
        <time>2011-06-02T14:51:58Z</time>
      </trkpt>
      <trkpt lat="46.37603" lon="-0.34553">
        <ele>28.6209</ele>
        <time>2011-06-02T14:51:59Z</time>
      </trkpt>
      <trkpt lat="46.37603" lon="-0.34552">
        <ele>28.5898</ele>
        <time>2011-06-02T14:52:00Z</time>
      </trkpt>
      <trkpt lat="46.37603" lon="-0.3455">
        <ele>28.5613</ele>
        <time>2011-06-02T14:52:01Z</time>
      </trkpt>
      <trkpt lat="46.37603" lon="-0.34549">
        <ele>28.5333</ele>
        <time>2011-06-02T14:52:02Z</time>
      </trkpt>
      <trkpt lat="46.37602" lon="-0.34547">
        <ele>28.5062</ele>
        <time>2011-06-02T14:52:03Z</time>
      </trkpt>
      <trkpt lat="46.37602" lon="-0.34546">
        <ele>28.4844</ele>
        <time>2011-06-02T14:52:04Z</time>
      </trkpt>
      <trkpt lat="46.37602" lon="-0.34544">
        <ele>28.4643</ele>
        <time>2011-06-02T14:52:05Z</time>
      </trkpt>
      <trkpt lat="46.37601" lon="-0.34542">
        <ele>28.4534</ele>
        <time>2011-06-02T14:52:06Z</time>
      </trkpt>
      <trkpt lat="46.376" lon="-0.34541">
        <ele>28.4428</ele>
        <time>2011-06-02T14:52:07Z</time>
      </trkpt>
      <trkpt lat="46.376" lon="-0.3454">
        <ele>28.4298</ele>
        <time>2011-06-02T14:52:08Z</time>
      </trkpt>
      <trkpt lat="46.376" lon="-0.34538">
        <ele>28.4163</ele>
        <time>2011-06-02T14:52:09Z</time>
      </trkpt>
      <trkpt lat="46.376" lon="-0.34536">
        <ele>28.4029</ele>
        <time>2011-06-02T14:52:10Z</time>
      </trkpt>
      <trkpt lat="46.37599" lon="-0.34535">
        <ele>28.3879</ele>
        <time>2011-06-02T14:52:11Z</time>
      </trkpt>
      <trkpt lat="46.37599" lon="-0.34533">
        <ele>28.373</ele>
        <time>2011-06-02T14:52:12Z</time>
      </trkpt>
      <trkpt lat="46.37598" lon="-0.34532">
        <ele>28.3579</ele>
        <time>2011-06-02T14:52:13Z</time>
      </trkpt>
      <trkpt lat="46.37598" lon="-0.3453">
        <ele>28.3433</ele>
        <time>2011-06-02T14:52:14Z</time>
      </trkpt>
      <trkpt lat="46.37598" lon="-0.34529">
        <ele>28.3293</ele>
        <time>2011-06-02T14:52:15Z</time>
      </trkpt>
      <trkpt lat="46.37597" lon="-0.34528">
        <ele>28.3158</ele>
        <time>2011-06-02T14:52:16Z</time>
      </trkpt>
      <trkpt lat="46.37597" lon="-0.34526">
        <ele>28.3025</ele>
        <time>2011-06-02T14:52:17Z</time>
      </trkpt>
      <trkpt lat="46.37597" lon="-0.34524">
        <ele>28.2894</ele>
        <time>2011-06-02T14:52:18Z</time>
      </trkpt>
      <trkpt lat="46.37596" lon="-0.34523">
        <ele>28.2721</ele>
        <time>2011-06-02T14:52:19Z</time>
      </trkpt>
      <trkpt lat="46.37596" lon="-0.34521">
        <ele>28.2543</ele>
        <time>2011-06-02T14:52:20Z</time>
      </trkpt>
      <trkpt lat="46.37595" lon="-0.3452">
        <ele>28.2358</ele>
        <time>2011-06-02T14:52:21Z</time>
      </trkpt>
      <trkpt lat="46.37595" lon="-0.34518">
        <ele>28.22</ele>
        <time>2011-06-02T14:52:22Z</time>
      </trkpt>
      <trkpt lat="46.37595" lon="-0.34516">
        <ele>28.2011</ele>
        <time>2011-06-02T14:52:23Z</time>
      </trkpt>
      <trkpt lat="46.37595" lon="-0.34515">
        <ele>28.1799</ele>
        <time>2011-06-02T14:52:24Z</time>
      </trkpt>
      <trkpt lat="46.37594" lon="-0.34513">
        <ele>28.1587</ele>
        <time>2011-06-02T14:52:25Z</time>
      </trkpt>
      <trkpt lat="46.37594" lon="-0.34511">
        <ele>28.1388</ele>
        <time>2011-06-02T14:52:26Z</time>
      </trkpt>
      <trkpt lat="46.37594" lon="-0.34509">
        <ele>28.1108</ele>
        <time>2011-06-02T14:52:27Z</time>
      </trkpt>
      <trkpt lat="46.37593" lon="-0.34507">
        <ele>28.076</ele>
        <time>2011-06-02T14:52:28Z</time>
      </trkpt>
      <trkpt lat="46.37592" lon="-0.34505">
        <ele>28.0407</ele>
        <time>2011-06-02T14:52:29Z</time>
      </trkpt>
      <trkpt lat="46.37592" lon="-0.34503">
        <ele>28.0096</ele>
        <time>2011-06-02T14:52:30Z</time>
      </trkpt>
      <trkpt lat="46.37591" lon="-0.34501">
        <ele>27.9815</ele>
        <time>2011-06-02T14:52:31Z</time>
      </trkpt>
      <trkpt lat="46.37591" lon="-0.34499">
        <ele>27.9549</ele>
        <time>2011-06-02T14:52:32Z</time>
      </trkpt>
      <trkpt lat="46.3759" lon="-0.34498">
        <ele>27.9309</ele>
        <time>2011-06-02T14:52:33Z</time>
      </trkpt>
      <trkpt lat="46.3759" lon="-0.34496">
        <ele>27.9071</ele>
        <time>2011-06-02T14:52:34Z</time>
      </trkpt>
      <trkpt lat="46.3759" lon="-0.34495">
        <ele>27.8824</ele>
        <time>2011-06-02T14:52:35Z</time>
      </trkpt>
      <trkpt lat="46.37589" lon="-0.34493">
        <ele>27.8578</ele>
        <time>2011-06-02T14:52:36Z</time>
      </trkpt>
      <trkpt lat="46.37589" lon="-0.34492">
        <ele>27.83</ele>
        <time>2011-06-02T14:52:37Z</time>
      </trkpt>
      <trkpt lat="46.37589" lon="-0.3449">
        <ele>27.804</ele>
        <time>2011-06-02T14:52:38Z</time>
      </trkpt>
      <trkpt lat="46.37589" lon="-0.34489">
        <ele>27.7819</ele>
        <time>2011-06-02T14:52:39Z</time>
      </trkpt>
      <trkpt lat="46.37588" lon="-0.34487">
        <ele>27.76</ele>
        <time>2011-06-02T14:52:40Z</time>
      </trkpt>
      <trkpt lat="46.37588" lon="-0.34486">
        <ele>27.7388</ele>
        <time>2011-06-02T14:52:41Z</time>
      </trkpt>
      <trkpt lat="46.37588" lon="-0.34484">
        <ele>27.7191</ele>
        <time>2011-06-02T14:52:42Z</time>
      </trkpt>
      <trkpt lat="46.37588" lon="-0.34483">
        <ele>27.6987</ele>
        <time>2011-06-02T14:52:43Z</time>
      </trkpt>
      <trkpt lat="46.37587" lon="-0.34481">
        <ele>27.6776</ele>
        <time>2011-06-02T14:52:44Z</time>
      </trkpt>
      <trkpt lat="46.37587" lon="-0.3448">
        <ele>27.6567</ele>
        <time>2011-06-02T14:52:45Z</time>
      </trkpt>
      <trkpt lat="46.37587" lon="-0.34479">
        <ele>27.6394</ele>
        <time>2011-06-02T14:52:46Z</time>
      </trkpt>
      <trkpt lat="46.37586" lon="-0.34477">
        <ele>27.6224</ele>
        <time>2011-06-02T14:52:47Z</time>
      </trkpt>
      <trkpt lat="46.37586" lon="-0.34476">
        <ele>27.605</ele>
        <time>2011-06-02T14:52:48Z</time>
      </trkpt>
      <trkpt lat="46.37586" lon="-0.34475">
        <ele>27.6004</ele>
        <time>2011-06-02T14:52:49Z</time>
      </trkpt>
      <trkpt lat="46.37585" lon="-0.34473">
        <ele>27.5954</ele>
        <time>2011-06-02T14:52:50Z</time>
      </trkpt>
      <trkpt lat="46.37585" lon="-0.34472">
        <ele>27.591</ele>
        <time>2011-06-02T14:52:51Z</time>
      </trkpt>
      <trkpt lat="46.37585" lon="-0.3447">
        <ele>27.5976</ele>
        <time>2011-06-02T14:52:52Z</time>
      </trkpt>
      <trkpt lat="46.37585" lon="-0.34469">
        <ele>27.604</ele>
        <time>2011-06-02T14:52:53Z</time>
      </trkpt>
      <trkpt lat="46.37584" lon="-0.34468">
        <ele>27.6099</ele>
        <time>2011-06-02T14:52:54Z</time>
      </trkpt>
      <trkpt lat="46.37584" lon="-0.34466">
        <ele>27.6163</ele>
        <time>2011-06-02T14:52:55Z</time>
      </trkpt>
      <trkpt lat="46.37584" lon="-0.34465">
        <ele>27.6218</ele>
        <time>2011-06-02T14:52:56Z</time>
      </trkpt>
      <trkpt lat="46.37583" lon="-0.34463">
        <ele>27.6233</ele>
        <time>2011-06-02T14:52:57Z</time>
      </trkpt>
      <trkpt lat="46.37583" lon="-0.34462">
        <ele>27.6245</ele>
        <time>2011-06-02T14:52:58Z</time>
      </trkpt>
      <trkpt lat="46.37583" lon="-0.34461">
        <ele>27.6252</ele>
        <time>2011-06-02T14:52:59Z</time>
      </trkpt>
      <trkpt lat="46.37583" lon="-0.34459">
        <ele>27.6274</ele>
        <time>2011-06-02T14:53:00Z</time>
      </trkpt>
      <trkpt lat="46.37583" lon="-0.34458">
        <ele>27.6318</ele>
        <time>2011-06-02T14:53:01Z</time>
      </trkpt>
      <trkpt lat="46.37582" lon="-0.34457">
        <ele>27.6368</ele>
        <time>2011-06-02T14:53:02Z</time>
      </trkpt>
      <trkpt lat="46.37582" lon="-0.34455">
        <ele>27.6415</ele>
        <time>2011-06-02T14:53:03Z</time>
      </trkpt>
      <trkpt lat="46.37582" lon="-0.34454">
        <ele>27.6457</ele>
        <time>2011-06-02T14:53:04Z</time>
      </trkpt>
      <trkpt lat="46.37582" lon="-0.34452">
        <ele>27.6538</ele>
        <time>2011-06-02T14:53:05Z</time>
      </trkpt>
      <trkpt lat="46.37581" lon="-0.34451">
        <ele>27.6619</ele>
        <time>2011-06-02T14:53:06Z</time>
      </trkpt>
      <trkpt lat="46.37581" lon="-0.34449">
        <ele>27.6666</ele>
        <time>2011-06-02T14:53:07Z</time>
      </trkpt>
      <trkpt lat="46.37581" lon="-0.34448">
        <ele>27.6722</ele>
        <time>2011-06-02T14:53:08Z</time>
      </trkpt>
      <trkpt lat="46.37581" lon="-0.34446">
        <ele>27.6824</ele>
        <time>2011-06-02T14:53:09Z</time>
      </trkpt>
      <trkpt lat="46.3758" lon="-0.34444">
        <ele>27.6928</ele>
        <time>2011-06-02T14:53:10Z</time>
      </trkpt>
      <trkpt lat="46.3758" lon="-0.34443">
        <ele>27.7043</ele>
        <time>2011-06-02T14:53:11Z</time>
      </trkpt>
      <trkpt lat="46.37579" lon="-0.34441">
        <ele>27.715</ele>
        <time>2011-06-02T14:53:12Z</time>
      </trkpt>
      <trkpt lat="46.37579" lon="-0.34439">
        <ele>27.7264</ele>
        <time>2011-06-02T14:53:13Z</time>
      </trkpt>
      <trkpt lat="46.37579" lon="-0.34438">
        <ele>27.7387</ele>
        <time>2011-06-02T14:53:14Z</time>
      </trkpt>
      <trkpt lat="46.37579" lon="-0.34437">
        <ele>27.753</ele>
        <time>2011-06-02T14:53:15Z</time>
      </trkpt>
      <trkpt lat="46.37578" lon="-0.34435">
        <ele>27.7663</ele>
        <time>2011-06-02T14:53:16Z</time>
      </trkpt>
      <trkpt lat="46.37578" lon="-0.34433">
        <ele>27.7785</ele>
        <time>2011-06-02T14:53:17Z</time>
      </trkpt>
      <trkpt lat="46.37577" lon="-0.34432">
        <ele>27.7937</ele>
        <time>2011-06-02T14:53:18Z</time>
      </trkpt>
      <trkpt lat="46.37577" lon="-0.34431">
        <ele>27.8086</ele>
        <time>2011-06-02T14:53:19Z</time>
      </trkpt>
      <trkpt lat="46.37577" lon="-0.3443">
        <ele>27.8231</ele>
        <time>2011-06-02T14:53:20Z</time>
      </trkpt>
      <trkpt lat="46.37577" lon="-0.34428">
        <ele>27.8366</ele>
        <time>2011-06-02T14:53:21Z</time>
      </trkpt>
      <trkpt lat="46.37577" lon="-0.34427">
        <ele>27.8507</ele>
        <time>2011-06-02T14:53:22Z</time>
      </trkpt>
      <trkpt lat="46.37576" lon="-0.34426">
        <ele>27.8646</ele>
        <time>2011-06-02T14:53:23Z</time>
      </trkpt>
      <trkpt lat="46.37576" lon="-0.34424">
        <ele>27.8758</ele>
        <time>2011-06-02T14:53:24Z</time>
      </trkpt>
      <trkpt lat="46.37575" lon="-0.34422">
        <ele>27.8913</ele>
        <time>2011-06-02T14:53:25Z</time>
      </trkpt>
      <trkpt lat="46.37575" lon="-0.3442">
        <ele>27.8942</ele>
        <time>2011-06-02T14:53:26Z</time>
      </trkpt>
      <trkpt lat="46.37574" lon="-0.34418">
        <ele>27.893</ele>
        <time>2011-06-02T14:53:27Z</time>
      </trkpt>
      <trkpt lat="46.37574" lon="-0.34417">
        <ele>27.8846</ele>
        <time>2011-06-02T14:53:28Z</time>
      </trkpt>
      <trkpt lat="46.37574" lon="-0.34415">
        <ele>27.88</ele>
        <time>2011-06-02T14:53:29Z</time>
      </trkpt>
      <trkpt lat="46.37573" lon="-0.34413">
        <ele>27.8756</ele>
        <time>2011-06-02T14:53:30Z</time>
      </trkpt>
      <trkpt lat="46.37573" lon="-0.34411">
        <ele>27.864</ele>
        <time>2011-06-02T14:53:31Z</time>
      </trkpt>
      <trkpt lat="46.37573" lon="-0.3441">
        <ele>27.849</ele>
        <time>2011-06-02T14:53:32Z</time>
      </trkpt>
      <trkpt lat="46.37573" lon="-0.34408">
        <ele>27.8358</ele>
        <time>2011-06-02T14:53:33Z</time>
      </trkpt>
      <trkpt lat="46.37573" lon="-0.34407">
        <ele>27.8235</ele>
        <time>2011-06-02T14:53:34Z</time>
      </trkpt>
      <trkpt lat="46.37572" lon="-0.34406">
        <ele>27.814</ele>
        <time>2011-06-02T14:53:35Z</time>
      </trkpt>
      <trkpt lat="46.37572" lon="-0.34404">
        <ele>27.807</ele>
        <time>2011-06-02T14:53:36Z</time>
      </trkpt>
      <trkpt lat="46.37571" lon="-0.34403">
        <ele>27.7951</ele>
        <time>2011-06-02T14:53:37Z</time>
      </trkpt>
      <trkpt lat="46.37572" lon="-0.34401">
        <ele>27.7864</ele>
        <time>2011-06-02T14:53:38Z</time>
      </trkpt>
      <trkpt lat="46.37572" lon="-0.34399">
        <ele>27.7776</ele>
        <time>2011-06-02T14:53:39Z</time>
      </trkpt>
      <trkpt lat="46.37572" lon="-0.34398">
        <ele>27.7672</ele>
        <time>2011-06-02T14:53:40Z</time>
      </trkpt>
      <trkpt lat="46.37572" lon="-0.34396">
        <ele>27.7591</ele>
        <time>2011-06-02T14:53:41Z</time>
      </trkpt>
      <trkpt lat="46.37571" lon="-0.34394">
        <ele>27.7509</ele>
        <time>2011-06-02T14:53:42Z</time>
      </trkpt>
      <trkpt lat="46.37571" lon="-0.34392">
        <ele>27.7429</ele>
        <time>2011-06-02T14:53:43Z</time>
      </trkpt>
      <trkpt lat="46.3757" lon="-0.34391">
        <ele>27.7347</ele>
        <time>2011-06-02T14:53:44Z</time>
      </trkpt>
      <trkpt lat="46.3757" lon="-0.3439">
        <ele>27.7262</ele>
        <time>2011-06-02T14:53:45Z</time>
      </trkpt>
      <trkpt lat="46.37569" lon="-0.34389">
        <ele>27.7181</ele>
        <time>2011-06-02T14:53:46Z</time>
      </trkpt>
      <trkpt lat="46.37569" lon="-0.34388">
        <ele>27.7125</ele>
        <time>2011-06-02T14:53:47Z</time>
      </trkpt>
      <trkpt lat="46.37569" lon="-0.34386">
        <ele>27.7066</ele>
        <time>2011-06-02T14:53:48Z</time>
      </trkpt>
      <trkpt lat="46.37568" lon="-0.34385">
        <ele>27.7014</ele>
        <time>2011-06-02T14:53:49Z</time>
      </trkpt>
      <trkpt lat="46.37568" lon="-0.34383">
        <ele>27.6967</ele>
        <time>2011-06-02T14:53:50Z</time>
      </trkpt>
      <trkpt lat="46.37568" lon="-0.34381">
        <ele>27.6924</ele>
        <time>2011-06-02T14:53:51Z</time>
      </trkpt>
      <trkpt lat="46.37567" lon="-0.3438">
        <ele>27.6892</ele>
        <time>2011-06-02T14:53:52Z</time>
      </trkpt>
      <trkpt lat="46.37567" lon="-0.34378">
        <ele>27.6822</ele>
        <time>2011-06-02T14:53:53Z</time>
      </trkpt>
      <trkpt lat="46.37567" lon="-0.34377">
        <ele>27.6768</ele>
        <time>2011-06-02T14:53:54Z</time>
      </trkpt>
      <trkpt lat="46.37566" lon="-0.34375">
        <ele>27.6732</ele>
        <time>2011-06-02T14:53:55Z</time>
      </trkpt>
      <trkpt lat="46.37566" lon="-0.34374">
        <ele>27.6683</ele>
        <time>2011-06-02T14:53:56Z</time>
      </trkpt>
      <trkpt lat="46.37566" lon="-0.34372">
        <ele>27.6599</ele>
        <time>2011-06-02T14:53:57Z</time>
      </trkpt>
      <trkpt lat="46.37566" lon="-0.34371">
        <ele>27.6494</ele>
        <time>2011-06-02T14:53:58Z</time>
      </trkpt>
      <trkpt lat="46.37566" lon="-0.3437">
        <ele>27.6398</ele>
        <time>2011-06-02T14:53:59Z</time>
      </trkpt>
      <trkpt lat="46.37566" lon="-0.34368">
        <ele>27.6354</ele>
        <time>2011-06-02T14:54:00Z</time>
      </trkpt>
      <trkpt lat="46.37566" lon="-0.34367">
        <ele>27.6314</ele>
        <time>2011-06-02T14:54:01Z</time>
      </trkpt>
      <trkpt lat="46.37565" lon="-0.34366">
        <ele>27.6262</ele>
        <time>2011-06-02T14:54:02Z</time>
      </trkpt>
      <trkpt lat="46.37565" lon="-0.34365">
        <ele>27.6212</ele>
        <time>2011-06-02T14:54:03Z</time>
      </trkpt>
      <trkpt lat="46.37565" lon="-0.34363">
        <ele>27.6178</ele>
        <time>2011-06-02T14:54:04Z</time>
      </trkpt>
      <trkpt lat="46.37565" lon="-0.34362">
        <ele>27.6148</ele>
        <time>2011-06-02T14:54:05Z</time>
      </trkpt>
      <trkpt lat="46.37564" lon="-0.3436">
        <ele>27.6121</ele>
        <time>2011-06-02T14:54:06Z</time>
      </trkpt>
      <trkpt lat="46.37564" lon="-0.34359">
        <ele>27.6085</ele>
        <time>2011-06-02T14:54:07Z</time>
      </trkpt>
      <trkpt lat="46.37564" lon="-0.34358">
        <ele>27.6063</ele>
        <time>2011-06-02T14:54:08Z</time>
      </trkpt>
      <trkpt lat="46.37563" lon="-0.34357">
        <ele>27.603</ele>
        <time>2011-06-02T14:54:09Z</time>
      </trkpt>
      <trkpt lat="46.37563" lon="-0.34355">
        <ele>27.6004</ele>
        <time>2011-06-02T14:54:10Z</time>
      </trkpt>
      <trkpt lat="46.37563" lon="-0.34354">
        <ele>27.5977</ele>
        <time>2011-06-02T14:54:11Z</time>
      </trkpt>
      <trkpt lat="46.37562" lon="-0.34352">
        <ele>27.5935</ele>
        <time>2011-06-02T14:54:12Z</time>
      </trkpt>
      <trkpt lat="46.37562" lon="-0.34351">
        <ele>27.5879</ele>
        <time>2011-06-02T14:54:13Z</time>
      </trkpt>
      <trkpt lat="46.37562" lon="-0.3435">
        <ele>27.5822</ele>
        <time>2011-06-02T14:54:14Z</time>
      </trkpt>
      <trkpt lat="46.37562" lon="-0.34349">
        <ele>27.577</ele>
        <time>2011-06-02T14:54:15Z</time>
      </trkpt>
      <trkpt lat="46.37562" lon="-0.34347">
        <ele>27.5732</ele>
        <time>2011-06-02T14:54:16Z</time>
      </trkpt>
      <trkpt lat="46.37561" lon="-0.34346">
        <ele>27.5699</ele>
        <time>2011-06-02T14:54:17Z</time>
      </trkpt>
      <trkpt lat="46.37561" lon="-0.34344">
        <ele>27.5711</ele>
        <time>2011-06-02T14:54:18Z</time>
      </trkpt>
      <trkpt lat="46.37561" lon="-0.34343">
        <ele>27.5744</ele>
        <time>2011-06-02T14:54:19Z</time>
      </trkpt>
      <trkpt lat="46.37561" lon="-0.34341">
        <ele>27.5861</ele>
        <time>2011-06-02T14:54:20Z</time>
      </trkpt>
      <trkpt lat="46.37561" lon="-0.3434">
        <ele>27.6024</ele>
        <time>2011-06-02T14:54:21Z</time>
      </trkpt>
      <trkpt lat="46.3756" lon="-0.34338">
        <ele>27.6219</ele>
        <time>2011-06-02T14:54:22Z</time>
      </trkpt>
      <trkpt lat="46.3756" lon="-0.34337">
        <ele>27.6409</ele>
        <time>2011-06-02T14:54:23Z</time>
      </trkpt>
      <trkpt lat="46.3756" lon="-0.34335">
        <ele>27.6616</ele>
        <time>2011-06-02T14:54:24Z</time>
      </trkpt>
      <trkpt lat="46.3756" lon="-0.34334">
        <ele>27.6776</ele>
        <time>2011-06-02T14:54:25Z</time>
      </trkpt>
      <trkpt lat="46.3756" lon="-0.34333">
        <ele>27.6913</ele>
        <time>2011-06-02T14:54:26Z</time>
      </trkpt>
      <trkpt lat="46.37559" lon="-0.34331">
        <ele>27.7012</ele>
        <time>2011-06-02T14:54:27Z</time>
      </trkpt>
      <trkpt lat="46.37559" lon="-0.3433">
        <ele>27.7052</ele>
        <time>2011-06-02T14:54:28Z</time>
      </trkpt>
      <trkpt lat="46.37558" lon="-0.34328">
        <ele>27.7086</ele>
        <time>2011-06-02T14:54:29Z</time>
      </trkpt>
      <trkpt lat="46.37558" lon="-0.34326">
        <ele>27.7108</ele>
        <time>2011-06-02T14:54:30Z</time>
      </trkpt>
      <trkpt lat="46.37558" lon="-0.34325">
        <ele>27.7107</ele>
        <time>2011-06-02T14:54:31Z</time>
      </trkpt>
      <trkpt lat="46.37558" lon="-0.34323">
        <ele>27.7099</ele>
        <time>2011-06-02T14:54:32Z</time>
      </trkpt>
      <trkpt lat="46.37557" lon="-0.34321">
        <ele>27.7095</ele>
        <time>2011-06-02T14:54:33Z</time>
      </trkpt>
      <trkpt lat="46.37557" lon="-0.3432">
        <ele>27.7123</ele>
        <time>2011-06-02T14:54:34Z</time>
      </trkpt>
      <trkpt lat="46.37557" lon="-0.34318">
        <ele>27.7157</ele>
        <time>2011-06-02T14:54:35Z</time>
      </trkpt>
      <trkpt lat="46.37556" lon="-0.34317">
        <ele>27.7185</ele>
        <time>2011-06-02T14:54:36Z</time>
      </trkpt>
      <trkpt lat="46.37556" lon="-0.34314">
        <ele>27.7208</ele>
        <time>2011-06-02T14:54:37Z</time>
      </trkpt>
      <trkpt lat="46.37556" lon="-0.34312">
        <ele>27.7245</ele>
        <time>2011-06-02T14:54:38Z</time>
      </trkpt>
      <trkpt lat="46.37555" lon="-0.34311">
        <ele>27.7282</ele>
        <time>2011-06-02T14:54:39Z</time>
      </trkpt>
      <trkpt lat="46.37555" lon="-0.34309">
        <ele>27.7335</ele>
        <time>2011-06-02T14:54:40Z</time>
      </trkpt>
      <trkpt lat="46.37554" lon="-0.34307">
        <ele>27.7379</ele>
        <time>2011-06-02T14:54:41Z</time>
      </trkpt>
      <trkpt lat="46.37554" lon="-0.34306">
        <ele>27.7432</ele>
        <time>2011-06-02T14:54:42Z</time>
      </trkpt>
      <trkpt lat="46.37553" lon="-0.34305">
        <ele>27.7512</ele>
        <time>2011-06-02T14:54:43Z</time>
      </trkpt>
      <trkpt lat="46.37553" lon="-0.34303">
        <ele>27.759</ele>
        <time>2011-06-02T14:54:44Z</time>
      </trkpt>
      <trkpt lat="46.37553" lon="-0.34302">
        <ele>27.7667</ele>
        <time>2011-06-02T14:54:45Z</time>
      </trkpt>
      <trkpt lat="46.37553" lon="-0.343">
        <ele>27.7736</ele>
        <time>2011-06-02T14:54:46Z</time>
      </trkpt>
      <trkpt lat="46.37553" lon="-0.34299">
        <ele>27.7827</ele>
        <time>2011-06-02T14:54:47Z</time>
      </trkpt>
      <trkpt lat="46.37552" lon="-0.34298">
        <ele>27.7894</ele>
        <time>2011-06-02T14:54:48Z</time>
      </trkpt>
      <trkpt lat="46.37552" lon="-0.34297">
        <ele>27.7951</ele>
        <time>2011-06-02T14:54:49Z</time>
      </trkpt>
      <trkpt lat="46.37552" lon="-0.34296">
        <ele>27.8003</ele>
        <time>2011-06-02T14:54:50Z</time>
      </trkpt>
      <trkpt lat="46.37552" lon="-0.34295">
        <ele>27.808</ele>
        <time>2011-06-02T14:54:51Z</time>
      </trkpt>
      <trkpt lat="46.37552" lon="-0.34294">
        <ele>27.8164</ele>
        <time>2011-06-02T14:54:52Z</time>
      </trkpt>
      <trkpt lat="46.37551" lon="-0.34292">
        <ele>27.8264</ele>
        <time>2011-06-02T14:54:53Z</time>
      </trkpt>
      <trkpt lat="46.37551" lon="-0.34291">
        <ele>27.8371</ele>
        <time>2011-06-02T14:54:54Z</time>
      </trkpt>
      <trkpt lat="46.3755" lon="-0.3429">
        <ele>27.8472</ele>
        <time>2011-06-02T14:54:55Z</time>
      </trkpt>
      <trkpt lat="46.3755" lon="-0.34288">
        <ele>27.8585</ele>
        <time>2011-06-02T14:54:56Z</time>
      </trkpt>
      <trkpt lat="46.37549" lon="-0.34287">
        <ele>27.8693</ele>
        <time>2011-06-02T14:54:57Z</time>
      </trkpt>
      <trkpt lat="46.37548" lon="-0.34285">
        <ele>27.8809</ele>
        <time>2011-06-02T14:54:58Z</time>
      </trkpt>
      <trkpt lat="46.37548" lon="-0.34284">
        <ele>27.8912</ele>
        <time>2011-06-02T14:54:59Z</time>
      </trkpt>
      <trkpt lat="46.37547" lon="-0.34283">
        <ele>27.9021</ele>
        <time>2011-06-02T14:55:00Z</time>
      </trkpt>
      <trkpt lat="46.37546" lon="-0.34282">
        <ele>27.9131</ele>
        <time>2011-06-02T14:55:01Z</time>
      </trkpt>
      <trkpt lat="46.37546" lon="-0.3428">
        <ele>27.9206</ele>
        <time>2011-06-02T14:55:02Z</time>
      </trkpt>
      <trkpt lat="46.37546" lon="-0.34279">
        <ele>27.9279</ele>
        <time>2011-06-02T14:55:03Z</time>
      </trkpt>
      <trkpt lat="46.37545" lon="-0.34277">
        <ele>27.9349</ele>
        <time>2011-06-02T14:55:04Z</time>
      </trkpt>
      <trkpt lat="46.37544" lon="-0.34276">
        <ele>27.9406</ele>
        <time>2011-06-02T14:55:05Z</time>
      </trkpt>
      <trkpt lat="46.37544" lon="-0.34275">
        <ele>27.9468</ele>
        <time>2011-06-02T14:55:06Z</time>
      </trkpt>
      <trkpt lat="46.37543" lon="-0.34273">
        <ele>27.9535</ele>
        <time>2011-06-02T14:55:07Z</time>
      </trkpt>
      <trkpt lat="46.37542" lon="-0.34272">
        <ele>27.9617</ele>
        <time>2011-06-02T14:55:08Z</time>
      </trkpt>
      <trkpt lat="46.37542" lon="-0.34271">
        <ele>27.9698</ele>
        <time>2011-06-02T14:55:09Z</time>
      </trkpt>
      <trkpt lat="46.37541" lon="-0.3427">
        <ele>27.9771</ele>
        <time>2011-06-02T14:55:10Z</time>
      </trkpt>
      <trkpt lat="46.3754" lon="-0.34269">
        <ele>27.9867</ele>
        <time>2011-06-02T14:55:11Z</time>
      </trkpt>
      <trkpt lat="46.3754" lon="-0.34268">
        <ele>27.9955</ele>
        <time>2011-06-02T14:55:12Z</time>
      </trkpt>
      <trkpt lat="46.37539" lon="-0.34267">
        <ele>28.0012</ele>
        <time>2011-06-02T14:55:13Z</time>
      </trkpt>
      <trkpt lat="46.37539" lon="-0.34267">
        <ele>28.0034</ele>
        <time>2011-06-02T14:55:14Z</time>
      </trkpt>
      <trkpt lat="46.3754" lon="-0.34266">
        <ele>28.0017</ele>
        <time>2011-06-02T14:55:15Z</time>
      </trkpt>
      <trkpt lat="46.37538" lon="-0.34266">
        <ele>27.9971</ele>
        <time>2011-06-02T14:55:21Z</time>
      </trkpt>
      <trkpt lat="46.37538" lon="-0.34265">
        <ele>27.9908</ele>
        <time>2011-06-02T14:55:22Z</time>
      </trkpt>
      <trkpt lat="46.37537" lon="-0.34264">
        <ele>27.9917</ele>
        <time>2011-06-02T14:55:23Z</time>
      </trkpt>
      <trkpt lat="46.37537" lon="-0.34263">
        <ele>27.9929</ele>
        <time>2011-06-02T14:55:24Z</time>
      </trkpt>
      <trkpt lat="46.37536" lon="-0.34262">
        <ele>27.9932</ele>
        <time>2011-06-02T14:55:25Z</time>
      </trkpt>
      <trkpt lat="46.37536" lon="-0.3426">
        <ele>27.9939</ele>
        <time>2011-06-02T14:55:26Z</time>
      </trkpt>
      <trkpt lat="46.37536" lon="-0.34258">
        <ele>27.9949</ele>
        <time>2011-06-02T14:55:27Z</time>
      </trkpt>
      <trkpt lat="46.37535" lon="-0.34257">
        <ele>27.997</ele>
        <time>2011-06-02T14:55:28Z</time>
      </trkpt>
      <trkpt lat="46.37534" lon="-0.34255">
        <ele>27.9991</ele>
        <time>2011-06-02T14:55:29Z</time>
      </trkpt>
      <trkpt lat="46.37534" lon="-0.34253">
        <ele>28.0007</ele>
        <time>2011-06-02T14:55:30Z</time>
      </trkpt>
      <trkpt lat="46.37534" lon="-0.34252">
        <ele>28.0035</ele>
        <time>2011-06-02T14:55:31Z</time>
      </trkpt>
      <trkpt lat="46.37533" lon="-0.3425">
        <ele>28.0012</ele>
        <time>2011-06-02T14:55:32Z</time>
      </trkpt>
      <trkpt lat="46.37532" lon="-0.34249">
        <ele>27.995</ele>
        <time>2011-06-02T14:55:33Z</time>
      </trkpt>
      <trkpt lat="46.37532" lon="-0.34247">
        <ele>27.9884</ele>
        <time>2011-06-02T14:55:34Z</time>
      </trkpt>
      <trkpt lat="46.37531" lon="-0.34246">
        <ele>27.9672</ele>
        <time>2011-06-02T14:55:35Z</time>
      </trkpt>
      <trkpt lat="46.37531" lon="-0.34244">
        <ele>27.9454</ele>
        <time>2011-06-02T14:55:36Z</time>
      </trkpt>
      <trkpt lat="46.37531" lon="-0.34243">
        <ele>27.9172</ele>
        <time>2011-06-02T14:55:37Z</time>
      </trkpt>
      <trkpt lat="46.37531" lon="-0.34241">
        <ele>27.882</ele>
        <time>2011-06-02T14:55:38Z</time>
      </trkpt>
      <trkpt lat="46.37531" lon="-0.3424">
        <ele>27.8427</ele>
        <time>2011-06-02T14:55:39Z</time>
      </trkpt>
      <trkpt lat="46.3753" lon="-0.34239">
        <ele>27.8041</ele>
        <time>2011-06-02T14:55:40Z</time>
      </trkpt>
      <trkpt lat="46.3753" lon="-0.34238">
        <ele>27.7643</ele>
        <time>2011-06-02T14:55:41Z</time>
      </trkpt>
      <trkpt lat="46.37529" lon="-0.34236">
        <ele>27.7199</ele>
        <time>2011-06-02T14:55:42Z</time>
      </trkpt>
      <trkpt lat="46.37529" lon="-0.34234">
        <ele>27.6775</ele>
        <time>2011-06-02T14:55:43Z</time>
      </trkpt>
      <trkpt lat="46.37528" lon="-0.34233">
        <ele>27.6346</ele>
        <time>2011-06-02T14:55:44Z</time>
      </trkpt>
      <trkpt lat="46.37528" lon="-0.34231">
        <ele>27.5941</ele>
        <time>2011-06-02T14:55:45Z</time>
      </trkpt>
      <trkpt lat="46.37527" lon="-0.3423">
        <ele>27.5553</ele>
        <time>2011-06-02T14:55:46Z</time>
      </trkpt>
      <trkpt lat="46.37527" lon="-0.34229">
        <ele>27.5165</ele>
        <time>2011-06-02T14:55:47Z</time>
      </trkpt>
      <trkpt lat="46.37526" lon="-0.34228">
        <ele>27.4705</ele>
        <time>2011-06-02T14:55:48Z</time>
      </trkpt>
      <trkpt lat="46.37526" lon="-0.34227">
        <ele>27.4263</ele>
        <time>2011-06-02T14:55:49Z</time>
      </trkpt>
      <trkpt lat="46.37525" lon="-0.34225">
        <ele>27.3839</ele>
        <time>2011-06-02T14:55:50Z</time>
      </trkpt>
      <trkpt lat="46.37524" lon="-0.34224">
        <ele>27.3458</ele>
        <time>2011-06-02T14:55:51Z</time>
      </trkpt>
      <trkpt lat="46.37524" lon="-0.34223">
        <ele>27.2892</ele>
        <time>2011-06-02T14:55:55Z</time>
      </trkpt>
      <trkpt lat="46.37523" lon="-0.34222">
        <ele>27.2493</ele>
        <time>2011-06-02T14:55:57Z</time>
      </trkpt>
      <trkpt lat="46.37522" lon="-0.34221">
        <ele>27.2155</ele>
        <time>2011-06-02T14:55:58Z</time>
      </trkpt>
      <trkpt lat="46.37521" lon="-0.34219">
        <ele>27.1836</ele>
        <time>2011-06-02T14:55:59Z</time>
      </trkpt>
      <trkpt lat="46.3752" lon="-0.34218">
        <ele>27.159</ele>
        <time>2011-06-02T14:56:00Z</time>
      </trkpt>
      <trkpt lat="46.3752" lon="-0.34217">
        <ele>27.135</ele>
        <time>2011-06-02T14:56:01Z</time>
      </trkpt>
      <trkpt lat="46.37518" lon="-0.34216">
        <ele>27.1071</ele>
        <time>2011-06-02T14:56:02Z</time>
      </trkpt>
      <trkpt lat="46.37517" lon="-0.34215">
        <ele>27.0807</ele>
        <time>2011-06-02T14:56:03Z</time>
      </trkpt>
      <trkpt lat="46.37516" lon="-0.34215">
        <ele>27.0455</ele>
        <time>2011-06-02T14:56:04Z</time>
      </trkpt>
      <trkpt lat="46.37515" lon="-0.34215">
        <ele>27.0102</ele>
        <time>2011-06-02T14:56:05Z</time>
      </trkpt>
      <trkpt lat="46.37513" lon="-0.34214">
        <ele>26.9763</ele>
        <time>2011-06-02T14:56:06Z</time>
      </trkpt>
      <trkpt lat="46.37512" lon="-0.34214">
        <ele>26.9444</ele>
        <time>2011-06-02T14:56:07Z</time>
      </trkpt>
      <trkpt lat="46.37511" lon="-0.34214">
        <ele>26.9198</ele>
        <time>2011-06-02T14:56:08Z</time>
      </trkpt>
      <trkpt lat="46.37509" lon="-0.34214">
        <ele>26.8965</ele>
        <time>2011-06-02T14:56:09Z</time>
      </trkpt>
      <trkpt lat="46.37508" lon="-0.34213">
        <ele>26.869</ele>
        <time>2011-06-02T14:56:10Z</time>
      </trkpt>
      <trkpt lat="46.37507" lon="-0.34213">
        <ele>26.8346</ele>
        <time>2011-06-02T14:56:11Z</time>
      </trkpt>
      <trkpt lat="46.37506" lon="-0.34213">
        <ele>26.8007</ele>
        <time>2011-06-02T14:56:12Z</time>
      </trkpt>
      <trkpt lat="46.37505" lon="-0.34213">
        <ele>26.7732</ele>
        <time>2011-06-02T14:56:13Z</time>
      </trkpt>
      <trkpt lat="46.37504" lon="-0.34213">
        <ele>26.7459</ele>
        <time>2011-06-02T14:56:14Z</time>
      </trkpt>
      <trkpt lat="46.37503" lon="-0.34213">
        <ele>26.714</ele>
        <time>2011-06-02T14:56:15Z</time>
      </trkpt>
      <trkpt lat="46.37502" lon="-0.34214">
        <ele>26.6803</ele>
        <time>2011-06-02T14:56:16Z</time>
      </trkpt>
      <trkpt lat="46.375" lon="-0.34214">
        <ele>26.6452</ele>
        <time>2011-06-02T14:56:17Z</time>
      </trkpt>
      <trkpt lat="46.37499" lon="-0.34213">
        <ele>26.6119</ele>
        <time>2011-06-02T14:56:18Z</time>
      </trkpt>
      <trkpt lat="46.37498" lon="-0.34213">
        <ele>26.5796</ele>
        <time>2011-06-02T14:56:19Z</time>
      </trkpt>
      <trkpt lat="46.37497" lon="-0.34213">
        <ele>26.5469</ele>
        <time>2011-06-02T14:56:20Z</time>
      </trkpt>
      <trkpt lat="46.37495" lon="-0.34213">
        <ele>26.5187</ele>
        <time>2011-06-02T14:56:21Z</time>
      </trkpt>
      <trkpt lat="46.37494" lon="-0.34214">
        <ele>26.4915</ele>
        <time>2011-06-02T14:56:22Z</time>
      </trkpt>
      <trkpt lat="46.37493" lon="-0.34214">
        <ele>26.4649</ele>
        <time>2011-06-02T14:56:23Z</time>
      </trkpt>
      <trkpt lat="46.37491" lon="-0.34214">
        <ele>26.4558</ele>
        <time>2011-06-02T14:56:24Z</time>
      </trkpt>
      <trkpt lat="46.3749" lon="-0.34215">
        <ele>26.4462</ele>
        <time>2011-06-02T14:56:25Z</time>
      </trkpt>
      <trkpt lat="46.37489" lon="-0.34215">
        <ele>26.4263</ele>
        <time>2011-06-02T14:56:26Z</time>
      </trkpt>
      <trkpt lat="46.37488" lon="-0.34215">
        <ele>26.4039</ele>
        <time>2011-06-02T14:56:27Z</time>
      </trkpt>
      <trkpt lat="46.37486" lon="-0.34217">
        <ele>26.3641</ele>
        <time>2011-06-02T14:56:30Z</time>
      </trkpt>
      <trkpt lat="46.37485" lon="-0.34218">
        <ele>26.3493</ele>
        <time>2011-06-02T14:56:31Z</time>
      </trkpt>
      <trkpt lat="46.37484" lon="-0.34218">
        <ele>26.34</ele>
        <time>2011-06-02T14:56:32Z</time>
      </trkpt>
      <trkpt lat="46.37483" lon="-0.34219">
        <ele>26.337</ele>
        <time>2011-06-02T14:56:33Z</time>
      </trkpt>
      <trkpt lat="46.37481" lon="-0.34219">
        <ele>26.3256</ele>
        <time>2011-06-02T14:56:34Z</time>
      </trkpt>
      <trkpt lat="46.3748" lon="-0.34219">
        <ele>26.31</ele>
        <time>2011-06-02T14:56:35Z</time>
      </trkpt>
      <trkpt lat="46.37479" lon="-0.34218">
        <ele>26.2938</ele>
        <time>2011-06-02T14:56:36Z</time>
      </trkpt>
      <trkpt lat="46.37478" lon="-0.34218">
        <ele>26.277</ele>
        <time>2011-06-02T14:56:37Z</time>
      </trkpt>
      <trkpt lat="46.37477" lon="-0.34219">
        <ele>26.2618</ele>
        <time>2011-06-02T14:56:38Z</time>
      </trkpt>
      <trkpt lat="46.37476" lon="-0.34219">
        <ele>26.213</ele>
        <time>2011-06-02T14:56:39Z</time>
      </trkpt>
      <trkpt lat="46.37475" lon="-0.34219">
        <ele>26.1631</ele>
        <time>2011-06-02T14:56:40Z</time>
      </trkpt>
      <trkpt lat="46.37474" lon="-0.3422">
        <ele>26.1143</ele>
        <time>2011-06-02T14:56:41Z</time>
      </trkpt>
      <trkpt lat="46.37473" lon="-0.34221">
        <ele>26.0587</ele>
        <time>2011-06-02T14:56:42Z</time>
      </trkpt>
      <trkpt lat="46.37472" lon="-0.34221">
        <ele>26.0133</ele>
        <time>2011-06-02T14:56:43Z</time>
      </trkpt>
      <trkpt lat="46.37471" lon="-0.34222">
        <ele>25.969</ele>
        <time>2011-06-02T14:56:44Z</time>
      </trkpt>
      <trkpt lat="46.3747" lon="-0.34222">
        <ele>25.9221</ele>
        <time>2011-06-02T14:56:45Z</time>
      </trkpt>
      <trkpt lat="46.37469" lon="-0.34223">
        <ele>25.8729</ele>
        <time>2011-06-02T14:56:46Z</time>
      </trkpt>
      <trkpt lat="46.37468" lon="-0.34224">
        <ele>25.8316</ele>
        <time>2011-06-02T14:56:47Z</time>
      </trkpt>
      <trkpt lat="46.37466" lon="-0.34224">
        <ele>25.7791</ele>
        <time>2011-06-02T14:56:48Z</time>
      </trkpt>
      <trkpt lat="46.37465" lon="-0.34224">
        <ele>25.7275</ele>
        <time>2011-06-02T14:56:49Z</time>
      </trkpt>
      <trkpt lat="46.37464" lon="-0.34225">
        <ele>25.6674</ele>
        <time>2011-06-02T14:56:50Z</time>
      </trkpt>
      <trkpt lat="46.37463" lon="-0.34225">
        <ele>25.6192</ele>
        <time>2011-06-02T14:56:51Z</time>
      </trkpt>
      <trkpt lat="46.37462" lon="-0.34225">
        <ele>25.5684</ele>
        <time>2011-06-02T14:56:52Z</time>
      </trkpt>
      <trkpt lat="46.37461" lon="-0.34225">
        <ele>25.5187</ele>
        <time>2011-06-02T14:56:53Z</time>
      </trkpt>
      <trkpt lat="46.3746" lon="-0.34226">
        <ele>25.4654</ele>
        <time>2011-06-02T14:56:54Z</time>
      </trkpt>
      <trkpt lat="46.37459" lon="-0.34227">
        <ele>25.3751</ele>
        <time>2011-06-02T14:56:55Z</time>
      </trkpt>
      <trkpt lat="46.37458" lon="-0.34228">
        <ele>25.2695</ele>
        <time>2011-06-02T14:56:56Z</time>
      </trkpt>
      <trkpt lat="46.37458" lon="-0.34229">
        <ele>25.1546</ele>
        <time>2011-06-02T14:56:57Z</time>
      </trkpt>
      <trkpt lat="46.37457" lon="-0.34229">
        <ele>25.0426</ele>
        <time>2011-06-02T14:56:58Z</time>
      </trkpt>
      <trkpt lat="46.37456" lon="-0.34229">
        <ele>24.9378</ele>
        <time>2011-06-02T14:56:59Z</time>
      </trkpt>
      <trkpt lat="46.37455" lon="-0.34229">
        <ele>24.827</ele>
        <time>2011-06-02T14:57:00Z</time>
      </trkpt>
      <trkpt lat="46.37454" lon="-0.3423">
        <ele>24.7068</ele>
        <time>2011-06-02T14:57:01Z</time>
      </trkpt>
      <trkpt lat="46.37452" lon="-0.34231">
        <ele>24.5905</ele>
        <time>2011-06-02T14:57:02Z</time>
      </trkpt>
      <trkpt lat="46.37452" lon="-0.34232">
        <ele>24.4756</ele>
        <time>2011-06-02T14:57:03Z</time>
      </trkpt>
      <trkpt lat="46.37451" lon="-0.34233">
        <ele>24.3611</ele>
        <time>2011-06-02T14:57:04Z</time>
      </trkpt>
      <trkpt lat="46.3745" lon="-0.34234">
        <ele>24.1625</ele>
        <time>2011-06-02T14:57:07Z</time>
      </trkpt>
      <trkpt lat="46.3745" lon="-0.34236">
        <ele>24.0719</ele>
        <time>2011-06-02T14:57:08Z</time>
      </trkpt>
      <trkpt lat="46.37449" lon="-0.34237">
        <ele>23.9844</ele>
        <time>2011-06-02T14:57:09Z</time>
      </trkpt>
      <trkpt lat="46.37448" lon="-0.34238">
        <ele>23.909</ele>
        <time>2011-06-02T14:57:10Z</time>
      </trkpt>
      <trkpt lat="46.37447" lon="-0.34238">
        <ele>23.835</ele>
        <time>2011-06-02T14:57:11Z</time>
      </trkpt>
      <trkpt lat="46.37446" lon="-0.34239">
        <ele>23.7603</ele>
        <time>2011-06-02T14:57:12Z</time>
      </trkpt>
      <trkpt lat="46.37445" lon="-0.3424">
        <ele>23.6912</ele>
        <time>2011-06-02T14:57:13Z</time>
      </trkpt>
      <trkpt lat="46.37444" lon="-0.34241">
        <ele>23.6318</ele>
        <time>2011-06-02T14:57:14Z</time>
      </trkpt>
      <trkpt lat="46.37443" lon="-0.34242">
        <ele>23.579</ele>
        <time>2011-06-02T14:57:15Z</time>
      </trkpt>
      <trkpt lat="46.37442" lon="-0.34243">
        <ele>23.5326</ele>
        <time>2011-06-02T14:57:16Z</time>
      </trkpt>
      <trkpt lat="46.37441" lon="-0.34244">
        <ele>23.4785</ele>
        <time>2011-06-02T14:57:17Z</time>
      </trkpt>
      <trkpt lat="46.37441" lon="-0.34244">
        <ele>23.436</ele>
        <time>2011-06-02T14:57:18Z</time>
      </trkpt>
      <trkpt lat="46.37439" lon="-0.34245">
        <ele>23.3967</ele>
        <time>2011-06-02T14:57:19Z</time>
      </trkpt>
      <trkpt lat="46.37438" lon="-0.34245">
        <ele>23.3564</ele>
        <time>2011-06-02T14:57:20Z</time>
      </trkpt>
      <trkpt lat="46.37437" lon="-0.34246">
        <ele>23.3335</ele>
        <time>2011-06-02T14:57:21Z</time>
      </trkpt>
      <trkpt lat="46.37436" lon="-0.34247">
        <ele>23.3313</ele>
        <time>2011-06-02T14:57:22Z</time>
      </trkpt>
      <trkpt lat="46.37435" lon="-0.34248">
        <ele>23.3627</ele>
        <time>2011-06-02T14:57:23Z</time>
      </trkpt>
      <trkpt lat="46.37434" lon="-0.34249">
        <ele>23.3982</ele>
        <time>2011-06-02T14:57:24Z</time>
      </trkpt>
      <trkpt lat="46.37433" lon="-0.34251">
        <ele>23.4398</ele>
        <time>2011-06-02T14:57:25Z</time>
      </trkpt>
      <trkpt lat="46.37432" lon="-0.34252">
        <ele>23.4768</ele>
        <time>2011-06-02T14:57:26Z</time>
      </trkpt>
      <trkpt lat="46.37431" lon="-0.34253">
        <ele>23.5211</ele>
        <time>2011-06-02T14:57:27Z</time>
      </trkpt>
      <trkpt lat="46.3743" lon="-0.34254">
        <ele>23.5613</ele>
        <time>2011-06-02T14:57:28Z</time>
      </trkpt>
      <trkpt lat="46.37429" lon="-0.34254">
        <ele>23.5973</ele>
        <time>2011-06-02T14:57:29Z</time>
      </trkpt>
      <trkpt lat="46.37429" lon="-0.34255">
        <ele>23.6281</ele>
        <time>2011-06-02T14:57:30Z</time>
      </trkpt>
      <trkpt lat="46.37431" lon="-0.3426">
        <ele>23.9459</ele>
        <time>2011-06-02T14:57:54Z</time>
      </trkpt>
      <trkpt lat="46.37432" lon="-0.34264">
        <ele>24.3521</ele>
        <time>2011-06-02T14:58:06Z</time>
      </trkpt>
      <trkpt lat="46.37431" lon="-0.34264">
        <ele>24.4208</ele>
        <time>2011-06-02T14:58:07Z</time>
      </trkpt>
      <trkpt lat="46.3743" lon="-0.34265">
        <ele>24.4927</ele>
        <time>2011-06-02T14:58:08Z</time>
      </trkpt>
      <trkpt lat="46.37429" lon="-0.34265">
        <ele>24.5519</ele>
        <time>2011-06-02T14:58:09Z</time>
      </trkpt>
      <trkpt lat="46.37429" lon="-0.34266">
        <ele>24.6097</ele>
        <time>2011-06-02T14:58:10Z</time>
      </trkpt>
      <trkpt lat="46.37428" lon="-0.34266">
        <ele>24.666</ele>
        <time>2011-06-02T14:58:11Z</time>
      </trkpt>
      <trkpt lat="46.37427" lon="-0.34266">
        <ele>24.7469</ele>
        <time>2011-06-02T14:58:12Z</time>
      </trkpt>
      <trkpt lat="46.37426" lon="-0.34266">
        <ele>24.8271</ele>
        <time>2011-06-02T14:58:13Z</time>
      </trkpt>
      <trkpt lat="46.37425" lon="-0.34266">
        <ele>24.9048</ele>
        <time>2011-06-02T14:58:14Z</time>
      </trkpt>
      <trkpt lat="46.37425" lon="-0.34266">
        <ele>24.9829</ele>
        <time>2011-06-02T14:58:15Z</time>
      </trkpt>
      <trkpt lat="46.37424" lon="-0.34267">
        <ele>25.0712</ele>
        <time>2011-06-02T14:58:16Z</time>
      </trkpt>
      <trkpt lat="46.37423" lon="-0.34267">
        <ele>25.1578</ele>
        <time>2011-06-02T14:58:17Z</time>
      </trkpt>
      <trkpt lat="46.37422" lon="-0.34268">
        <ele>25.239</ele>
        <time>2011-06-02T14:58:18Z</time>
      </trkpt>
      <trkpt lat="46.37421" lon="-0.34269">
        <ele>25.3214</ele>
        <time>2011-06-02T14:58:19Z</time>
      </trkpt>
      <trkpt lat="46.37421" lon="-0.34269">
        <ele>25.3838</ele>
        <time>2011-06-02T14:58:20Z</time>
      </trkpt>
      <trkpt lat="46.3742" lon="-0.34269">
        <ele>25.4399</ele>
        <time>2011-06-02T14:58:21Z</time>
      </trkpt>
      <trkpt lat="46.37419" lon="-0.34269">
        <ele>25.4913</ele>
        <time>2011-06-02T14:58:22Z</time>
      </trkpt>
      <trkpt lat="46.37418" lon="-0.34269">
        <ele>25.5352</ele>
        <time>2011-06-02T14:58:23Z</time>
      </trkpt>
      <trkpt lat="46.37417" lon="-0.34268">
        <ele>25.5807</ele>
        <time>2011-06-02T14:58:24Z</time>
      </trkpt>
      <trkpt lat="46.37416" lon="-0.34268">
        <ele>25.625</ele>
        <time>2011-06-02T14:58:25Z</time>
      </trkpt>
      <trkpt lat="46.37415" lon="-0.34269">
        <ele>25.6567</ele>
        <time>2011-06-02T14:58:26Z</time>
      </trkpt>
      <trkpt lat="46.37415" lon="-0.3427">
        <ele>25.6937</ele>
        <time>2011-06-02T14:58:27Z</time>
      </trkpt>
      <trkpt lat="46.37413" lon="-0.3427">
        <ele>25.7326</ele>
        <time>2011-06-02T14:58:28Z</time>
      </trkpt>
      <trkpt lat="46.37413" lon="-0.34271">
        <ele>25.7798</ele>
        <time>2011-06-02T14:58:29Z</time>
      </trkpt>
      <trkpt lat="46.37412" lon="-0.34271">
        <ele>25.8276</ele>
        <time>2011-06-02T14:58:30Z</time>
      </trkpt>
      <trkpt lat="46.3741" lon="-0.34272">
        <ele>25.8688</ele>
        <time>2011-06-02T14:58:31Z</time>
      </trkpt>
      <trkpt lat="46.37409" lon="-0.34273">
        <ele>25.9178</ele>
        <time>2011-06-02T14:58:32Z</time>
      </trkpt>
      <trkpt lat="46.37408" lon="-0.34273">
        <ele>25.9814</ele>
        <time>2011-06-02T14:58:33Z</time>
      </trkpt>
      <trkpt lat="46.37407" lon="-0.34274">
        <ele>26.0656</ele>
        <time>2011-06-02T14:58:34Z</time>
      </trkpt>
      <trkpt lat="46.37406" lon="-0.34274">
        <ele>26.2018</ele>
        <time>2011-06-02T14:58:35Z</time>
      </trkpt>
      <trkpt lat="46.37405" lon="-0.34275">
        <ele>26.3484</ele>
        <time>2011-06-02T14:58:36Z</time>
      </trkpt>
      <trkpt lat="46.37404" lon="-0.34276">
        <ele>26.495</ele>
        <time>2011-06-02T14:58:37Z</time>
      </trkpt>
      <trkpt lat="46.37402" lon="-0.34276">
        <ele>26.64</ele>
        <time>2011-06-02T14:58:38Z</time>
      </trkpt>
      <trkpt lat="46.37402" lon="-0.34277">
        <ele>26.7707</ele>
        <time>2011-06-02T14:58:39Z</time>
      </trkpt>
      <trkpt lat="46.374" lon="-0.34278">
        <ele>26.906</ele>
        <time>2011-06-02T14:58:40Z</time>
      </trkpt>
      <trkpt lat="46.37399" lon="-0.34279">
        <ele>27.0236</ele>
        <time>2011-06-02T14:58:41Z</time>
      </trkpt>
      <trkpt lat="46.37398" lon="-0.3428">
        <ele>27.1357</ele>
        <time>2011-06-02T14:58:42Z</time>
      </trkpt>
      <trkpt lat="46.37397" lon="-0.34281">
        <ele>27.2159</ele>
        <time>2011-06-02T14:58:43Z</time>
      </trkpt>
      <trkpt lat="46.37395" lon="-0.34282">
        <ele>27.2627</ele>
        <time>2011-06-02T14:58:44Z</time>
      </trkpt>
      <trkpt lat="46.37394" lon="-0.34284">
        <ele>27.3184</ele>
        <time>2011-06-02T14:58:45Z</time>
      </trkpt>
      <trkpt lat="46.37392" lon="-0.34285">
        <ele>27.3736</ele>
        <time>2011-06-02T14:58:46Z</time>
      </trkpt>
      <trkpt lat="46.37392" lon="-0.34286">
        <ele>27.4643</ele>
        <time>2011-06-02T14:58:47Z</time>
      </trkpt>
      <trkpt lat="46.37391" lon="-0.34288">
        <ele>27.551</ele>
        <time>2011-06-02T14:58:48Z</time>
      </trkpt>
      <trkpt lat="46.37391" lon="-0.34289">
        <ele>27.639</ele>
        <time>2011-06-02T14:58:49Z</time>
      </trkpt>
      <trkpt lat="46.3739" lon="-0.34289">
        <ele>27.7328</ele>
        <time>2011-06-02T14:58:50Z</time>
      </trkpt>
      <trkpt lat="46.37389" lon="-0.3429">
        <ele>27.8261</ele>
        <time>2011-06-02T14:58:51Z</time>
      </trkpt>
      <trkpt lat="46.37388" lon="-0.3429">
        <ele>27.9237</ele>
        <time>2011-06-02T14:58:52Z</time>
      </trkpt>
      <trkpt lat="46.37387" lon="-0.34291">
        <ele>28.013</ele>
        <time>2011-06-02T14:58:53Z</time>
      </trkpt>
      <trkpt lat="46.37386" lon="-0.34292">
        <ele>28.0904</ele>
        <time>2011-06-02T14:58:54Z</time>
      </trkpt>
      <trkpt lat="46.37385" lon="-0.34293">
        <ele>28.1336</ele>
        <time>2011-06-02T14:58:55Z</time>
      </trkpt>
      <trkpt lat="46.37384" lon="-0.34294">
        <ele>28.1948</ele>
        <time>2011-06-02T14:58:56Z</time>
      </trkpt>
      <trkpt lat="46.37383" lon="-0.34295">
        <ele>28.2392</ele>
        <time>2011-06-02T14:58:57Z</time>
      </trkpt>
      <trkpt lat="46.37381" lon="-0.34295">
        <ele>28.255</ele>
        <time>2011-06-02T14:58:58Z</time>
      </trkpt>
      <trkpt lat="46.37381" lon="-0.34296">
        <ele>28.2659</ele>
        <time>2011-06-02T14:58:59Z</time>
      </trkpt>
      <trkpt lat="46.3738" lon="-0.34297">
        <ele>28.2511</ele>
        <time>2011-06-02T14:59:00Z</time>
      </trkpt>
      <trkpt lat="46.37379" lon="-0.34298">
        <ele>28.2382</ele>
        <time>2011-06-02T14:59:01Z</time>
      </trkpt>
      <trkpt lat="46.37378" lon="-0.34299">
        <ele>28.2349</ele>
        <time>2011-06-02T14:59:02Z</time>
      </trkpt>
      <trkpt lat="46.37377" lon="-0.343">
        <ele>28.2247</ele>
        <time>2011-06-02T14:59:03Z</time>
      </trkpt>
      <trkpt lat="46.37376" lon="-0.34301">
        <ele>28.2239</ele>
        <time>2011-06-02T14:59:04Z</time>
      </trkpt>
      <trkpt lat="46.37375" lon="-0.34303">
        <ele>28.2482</ele>
        <time>2011-06-02T14:59:05Z</time>
      </trkpt>
      <trkpt lat="46.37371" lon="-0.34305">
        <ele>28.4244</ele>
        <time>2011-06-02T14:59:10Z</time>
      </trkpt>
      <trkpt lat="46.3737" lon="-0.34305">
        <ele>28.4967</ele>
        <time>2011-06-02T14:59:11Z</time>
      </trkpt>
      <trkpt lat="46.37368" lon="-0.34305">
        <ele>28.5712</ele>
        <time>2011-06-02T14:59:12Z</time>
      </trkpt>
      <trkpt lat="46.37367" lon="-0.34306">
        <ele>28.629</ele>
        <time>2011-06-02T14:59:13Z</time>
      </trkpt>
      <trkpt lat="46.37366" lon="-0.34306">
        <ele>28.6884</ele>
        <time>2011-06-02T14:59:14Z</time>
      </trkpt>
      <trkpt lat="46.37365" lon="-0.34307">
        <ele>28.7514</ele>
        <time>2011-06-02T14:59:15Z</time>
      </trkpt>
      <trkpt lat="46.37363" lon="-0.34307">
        <ele>28.8128</ele>
        <time>2011-06-02T14:59:16Z</time>
      </trkpt>
      <trkpt lat="46.37362" lon="-0.34307">
        <ele>28.8524</ele>
        <time>2011-06-02T14:59:17Z</time>
      </trkpt>
      <trkpt lat="46.3736" lon="-0.34308">
        <ele>28.9258</ele>
        <time>2011-06-02T14:59:18Z</time>
      </trkpt>
      <trkpt lat="46.37359" lon="-0.34308">
        <ele>29.0281</ele>
        <time>2011-06-02T14:59:19Z</time>
      </trkpt>
      <trkpt lat="46.37358" lon="-0.34309">
        <ele>29.1321</ele>
        <time>2011-06-02T14:59:20Z</time>
      </trkpt>
      <trkpt lat="46.37357" lon="-0.3431">
        <ele>29.2356</ele>
        <time>2011-06-02T14:59:21Z</time>
      </trkpt>
      <trkpt lat="46.37356" lon="-0.34311">
        <ele>29.3507</ele>
        <time>2011-06-02T14:59:22Z</time>
      </trkpt>
      <trkpt lat="46.37355" lon="-0.34312">
        <ele>29.4627</ele>
        <time>2011-06-02T14:59:23Z</time>
      </trkpt>
      <trkpt lat="46.37354" lon="-0.34313">
        <ele>29.5565</ele>
        <time>2011-06-02T14:59:24Z</time>
      </trkpt>
      <trkpt lat="46.37353" lon="-0.34314">
        <ele>29.6468</ele>
        <time>2011-06-02T14:59:25Z</time>
      </trkpt>
      <trkpt lat="46.37352" lon="-0.34315">
        <ele>29.7277</ele>
        <time>2011-06-02T14:59:26Z</time>
      </trkpt>
      <trkpt lat="46.37349" lon="-0.34321">
        <ele>30.0927</ele>
        <time>2011-06-02T14:59:32Z</time>
      </trkpt>
      <trkpt lat="46.37349" lon="-0.34322">
        <ele>30.1653</ele>
        <time>2011-06-02T14:59:33Z</time>
      </trkpt>
      <trkpt lat="46.37347" lon="-0.34324">
        <ele>30.3208</ele>
        <time>2011-06-02T14:59:35Z</time>
      </trkpt>
      <trkpt lat="46.37347" lon="-0.34325">
        <ele>30.4006</ele>
        <time>2011-06-02T14:59:36Z</time>
      </trkpt>
      <trkpt lat="46.37346" lon="-0.34326">
        <ele>30.4774</ele>
        <time>2011-06-02T14:59:37Z</time>
      </trkpt>
      <trkpt lat="46.37346" lon="-0.34327">
        <ele>30.5712</ele>
        <time>2011-06-02T14:59:38Z</time>
      </trkpt>
      <trkpt lat="46.37344" lon="-0.34328">
        <ele>30.6576</ele>
        <time>2011-06-02T14:59:39Z</time>
      </trkpt>
      <trkpt lat="46.37343" lon="-0.34328">
        <ele>30.7434</ele>
        <time>2011-06-02T14:59:40Z</time>
      </trkpt>
      <trkpt lat="46.37343" lon="-0.34329">
        <ele>30.8301</ele>
        <time>2011-06-02T14:59:41Z</time>
      </trkpt>
      <trkpt lat="46.37341" lon="-0.3433">
        <ele>30.9114</ele>
        <time>2011-06-02T14:59:42Z</time>
      </trkpt>
      <trkpt lat="46.37341" lon="-0.34332">
        <ele>30.997</ele>
        <time>2011-06-02T14:59:43Z</time>
      </trkpt>
      <trkpt lat="46.3734" lon="-0.34334">
        <ele>31.0765</ele>
        <time>2011-06-02T14:59:44Z</time>
      </trkpt>
      <trkpt lat="46.37339" lon="-0.34336">
        <ele>31.1556</ele>
        <time>2011-06-02T14:59:45Z</time>
      </trkpt>
      <trkpt lat="46.37338" lon="-0.34337">
        <ele>31.2358</ele>
        <time>2011-06-02T14:59:46Z</time>
      </trkpt>
      <trkpt lat="46.37337" lon="-0.34339">
        <ele>31.3154</ele>
        <time>2011-06-02T14:59:47Z</time>
      </trkpt>
      <trkpt lat="46.37336" lon="-0.3434">
        <ele>31.3957</ele>
        <time>2011-06-02T14:59:48Z</time>
      </trkpt>
      <trkpt lat="46.37335" lon="-0.34342">
        <ele>31.4715</ele>
        <time>2011-06-02T14:59:49Z</time>
      </trkpt>
      <trkpt lat="46.37334" lon="-0.34344">
        <ele>31.5439</ele>
        <time>2011-06-02T14:59:50Z</time>
      </trkpt>
      <trkpt lat="46.37333" lon="-0.34345">
        <ele>31.6129</ele>
        <time>2011-06-02T14:59:51Z</time>
      </trkpt>
      <trkpt lat="46.37332" lon="-0.34346">
        <ele>31.6783</ele>
        <time>2011-06-02T14:59:52Z</time>
      </trkpt>
      <trkpt lat="46.37331" lon="-0.34347">
        <ele>31.7427</ele>
        <time>2011-06-02T14:59:53Z</time>
      </trkpt>
      <trkpt lat="46.37331" lon="-0.34348">
        <ele>31.8061</ele>
        <time>2011-06-02T14:59:54Z</time>
      </trkpt>
      <trkpt lat="46.3733" lon="-0.34349">
        <ele>31.8729</ele>
        <time>2011-06-02T14:59:55Z</time>
      </trkpt>
      <trkpt lat="46.37329" lon="-0.3435">
        <ele>31.9426</ele>
        <time>2011-06-02T14:59:56Z</time>
      </trkpt>
      <trkpt lat="46.37328" lon="-0.34351">
        <ele>32.0108</ele>
        <time>2011-06-02T14:59:57Z</time>
      </trkpt>
      <trkpt lat="46.37327" lon="-0.34352">
        <ele>32.0814</ele>
        <time>2011-06-02T14:59:58Z</time>
      </trkpt>
      <trkpt lat="46.37326" lon="-0.34353">
        <ele>32.1508</ele>
        <time>2011-06-02T14:59:59Z</time>
      </trkpt>
      <trkpt lat="46.37325" lon="-0.34353">
        <ele>32.2263</ele>
        <time>2011-06-02T15:00:00Z</time>
      </trkpt>
      <trkpt lat="46.37324" lon="-0.34354">
        <ele>32.3017</ele>
        <time>2011-06-02T15:00:01Z</time>
      </trkpt>
      <trkpt lat="46.37323" lon="-0.34354">
        <ele>32.3751</ele>
        <time>2011-06-02T15:00:02Z</time>
      </trkpt>
      <trkpt lat="46.37322" lon="-0.34355">
        <ele>32.4519</ele>
        <time>2011-06-02T15:00:03Z</time>
      </trkpt>
      <trkpt lat="46.37321" lon="-0.34357">
        <ele>32.548</ele>
        <time>2011-06-02T15:00:05Z</time>
      </trkpt>
      <trkpt lat="46.3732" lon="-0.34358">
        <ele>32.6419</ele>
        <time>2011-06-02T15:00:06Z</time>
      </trkpt>
      <trkpt lat="46.37319" lon="-0.34359">
        <ele>32.7355</ele>
        <time>2011-06-02T15:00:07Z</time>
      </trkpt>
      <trkpt lat="46.37318" lon="-0.3436">
        <ele>32.8306</ele>
        <time>2011-06-02T15:00:08Z</time>
      </trkpt>
      <trkpt lat="46.37318" lon="-0.3436">
        <ele>32.9268</ele>
        <time>2011-06-02T15:00:09Z</time>
      </trkpt>
      <trkpt lat="46.37316" lon="-0.34361">
        <ele>33.024</ele>
        <time>2011-06-02T15:00:10Z</time>
      </trkpt>
      <trkpt lat="46.37315" lon="-0.34362">
        <ele>33.1218</ele>
        <time>2011-06-02T15:00:11Z</time>
      </trkpt>
      <trkpt lat="46.37315" lon="-0.34363">
        <ele>33.2189</ele>
        <time>2011-06-02T15:00:12Z</time>
      </trkpt>
      <trkpt lat="46.37314" lon="-0.34363">
        <ele>33.3142</ele>
        <time>2011-06-02T15:00:13Z</time>
      </trkpt>
      <trkpt lat="46.37313" lon="-0.34363">
        <ele>33.4071</ele>
        <time>2011-06-02T15:00:14Z</time>
      </trkpt>
      <trkpt lat="46.37312" lon="-0.34364">
        <ele>33.4999</ele>
        <time>2011-06-02T15:00:15Z</time>
      </trkpt>
      <trkpt lat="46.37312" lon="-0.34364">
        <ele>33.5964</ele>
        <time>2011-06-02T15:00:16Z</time>
      </trkpt>
      <trkpt lat="46.37311" lon="-0.34365">
        <ele>33.6936</ele>
        <time>2011-06-02T15:00:17Z</time>
      </trkpt>
      <trkpt lat="46.3731" lon="-0.34366">
        <ele>33.7899</ele>
        <time>2011-06-02T15:00:18Z</time>
      </trkpt>
      <trkpt lat="46.37309" lon="-0.34367">
        <ele>33.8836</ele>
        <time>2011-06-02T15:00:19Z</time>
      </trkpt>
      <trkpt lat="46.37308" lon="-0.34368">
        <ele>33.9743</ele>
        <time>2011-06-02T15:00:20Z</time>
      </trkpt>
      <trkpt lat="46.37306" lon="-0.34368">
        <ele>34.061</ele>
        <time>2011-06-02T15:00:21Z</time>
      </trkpt>
      <trkpt lat="46.37305" lon="-0.34368">
        <ele>34.1471</ele>
        <time>2011-06-02T15:00:22Z</time>
      </trkpt>
      <trkpt lat="46.37304" lon="-0.34369">
        <ele>34.231</ele>
        <time>2011-06-02T15:00:23Z</time>
      </trkpt>
      <trkpt lat="46.37303" lon="-0.3437">
        <ele>34.3135</ele>
        <time>2011-06-02T15:00:24Z</time>
      </trkpt>
      <trkpt lat="46.37302" lon="-0.3437">
        <ele>34.3959</ele>
        <time>2011-06-02T15:00:25Z</time>
      </trkpt>
      <trkpt lat="46.37301" lon="-0.34371">
        <ele>34.478</ele>
        <time>2011-06-02T15:00:26Z</time>
      </trkpt>
      <trkpt lat="46.373" lon="-0.34371">
        <ele>34.5637</ele>
        <time>2011-06-02T15:00:27Z</time>
      </trkpt>
      <trkpt lat="46.37299" lon="-0.34372">
        <ele>34.6455</ele>
        <time>2011-06-02T15:00:28Z</time>
      </trkpt>
      <trkpt lat="46.37298" lon="-0.34372">
        <ele>34.7293</ele>
        <time>2011-06-02T15:00:29Z</time>
      </trkpt>
      <trkpt lat="46.37297" lon="-0.34373">
        <ele>34.8122</ele>
        <time>2011-06-02T15:00:30Z</time>
      </trkpt>
      <trkpt lat="46.37296" lon="-0.34373">
        <ele>34.8954</ele>
        <time>2011-06-02T15:00:31Z</time>
      </trkpt>
      <trkpt lat="46.37295" lon="-0.34374">
        <ele>34.9766</ele>
        <time>2011-06-02T15:00:32Z</time>
      </trkpt>
      <trkpt lat="46.37294" lon="-0.34374">
        <ele>35.0549</ele>
        <time>2011-06-02T15:00:33Z</time>
      </trkpt>
      <trkpt lat="46.37293" lon="-0.34375">
        <ele>35.1308</ele>
        <time>2011-06-02T15:00:34Z</time>
      </trkpt>
      <trkpt lat="46.37292" lon="-0.34375">
        <ele>35.2034</ele>
        <time>2011-06-02T15:00:35Z</time>
      </trkpt>
      <trkpt lat="46.3729" lon="-0.34376">
        <ele>35.2734</ele>
        <time>2011-06-02T15:00:36Z</time>
      </trkpt>
      <trkpt lat="46.37289" lon="-0.34377">
        <ele>35.3401</ele>
        <time>2011-06-02T15:00:37Z</time>
      </trkpt>
      <trkpt lat="46.37288" lon="-0.34377">
        <ele>35.4055</ele>
        <time>2011-06-02T15:00:38Z</time>
      </trkpt>
      <trkpt lat="46.37287" lon="-0.34378">
        <ele>35.4681</ele>
        <time>2011-06-02T15:00:39Z</time>
      </trkpt>
      <trkpt lat="46.37286" lon="-0.34379">
        <ele>35.5298</ele>
        <time>2011-06-02T15:00:40Z</time>
      </trkpt>
      <trkpt lat="46.37285" lon="-0.34379">
        <ele>35.5941</ele>
        <time>2011-06-02T15:00:41Z</time>
      </trkpt>
      <trkpt lat="46.37284" lon="-0.3438">
        <ele>35.6495</ele>
        <time>2011-06-02T15:00:42Z</time>
      </trkpt>
      <trkpt lat="46.37283" lon="-0.34381">
        <ele>35.6946</ele>
        <time>2011-06-02T15:00:43Z</time>
      </trkpt>
      <trkpt lat="46.37282" lon="-0.34381">
        <ele>35.7324</ele>
        <time>2011-06-02T15:00:44Z</time>
      </trkpt>
      <trkpt lat="46.37281" lon="-0.34382">
        <ele>35.7614</ele>
        <time>2011-06-02T15:00:45Z</time>
      </trkpt>
      <trkpt lat="46.3728" lon="-0.34382">
        <ele>35.7833</ele>
        <time>2011-06-02T15:00:46Z</time>
      </trkpt>
      <trkpt lat="46.37279" lon="-0.34383">
        <ele>35.7975</ele>
        <time>2011-06-02T15:00:47Z</time>
      </trkpt>
      <trkpt lat="46.37278" lon="-0.34383">
        <ele>35.8082</ele>
        <time>2011-06-02T15:00:48Z</time>
      </trkpt>
      <trkpt lat="46.37277" lon="-0.34384">
        <ele>35.8158</ele>
        <time>2011-06-02T15:00:49Z</time>
      </trkpt>
      <trkpt lat="46.37277" lon="-0.34384">
        <ele>35.8219</ele>
        <time>2011-06-02T15:00:50Z</time>
      </trkpt>
      <trkpt lat="46.37276" lon="-0.34385">
        <ele>35.8302</ele>
        <time>2011-06-02T15:00:51Z</time>
      </trkpt>
      <trkpt lat="46.37275" lon="-0.34386">
        <ele>35.8405</ele>
        <time>2011-06-02T15:00:52Z</time>
      </trkpt>
      <trkpt lat="46.37274" lon="-0.34387">
        <ele>35.8549</ele>
        <time>2011-06-02T15:00:53Z</time>
      </trkpt>
      <trkpt lat="46.37273" lon="-0.34388">
        <ele>35.8734</ele>
        <time>2011-06-02T15:00:54Z</time>
      </trkpt>
      <trkpt lat="46.37273" lon="-0.34388">
        <ele>35.8924</ele>
        <time>2011-06-02T15:00:55Z</time>
      </trkpt>
      <trkpt lat="46.37272" lon="-0.34389">
        <ele>35.9126</ele>
        <time>2011-06-02T15:00:56Z</time>
      </trkpt>
      <trkpt lat="46.37271" lon="-0.3439">
        <ele>35.9333</ele>
        <time>2011-06-02T15:00:57Z</time>
      </trkpt>
      <trkpt lat="46.3727" lon="-0.3439">
        <ele>35.959</ele>
        <time>2011-06-02T15:00:58Z</time>
      </trkpt>
      <trkpt lat="46.37269" lon="-0.3439">
        <ele>35.989</ele>
        <time>2011-06-02T15:00:59Z</time>
      </trkpt>
      <trkpt lat="46.37268" lon="-0.34391">
        <ele>36.018</ele>
        <time>2011-06-02T15:01:00Z</time>
      </trkpt>
      <trkpt lat="46.37267" lon="-0.3439">
        <ele>36.0763</ele>
        <time>2011-06-02T15:01:03Z</time>
      </trkpt>
      <trkpt lat="46.37265" lon="-0.3439">
        <ele>36.1029</ele>
        <time>2011-06-02T15:01:04Z</time>
      </trkpt>
      <trkpt lat="46.37264" lon="-0.3439">
        <ele>36.1299</ele>
        <time>2011-06-02T15:01:05Z</time>
      </trkpt>
      <trkpt lat="46.37263" lon="-0.3439">
        <ele>36.1567</ele>
        <time>2011-06-02T15:01:06Z</time>
      </trkpt>
      <trkpt lat="46.37262" lon="-0.34391">
        <ele>36.1833</ele>
        <time>2011-06-02T15:01:07Z</time>
      </trkpt>
      <trkpt lat="46.37261" lon="-0.34392">
        <ele>36.2094</ele>
        <time>2011-06-02T15:01:08Z</time>
      </trkpt>
      <trkpt lat="46.3726" lon="-0.34392">
        <ele>36.2352</ele>
        <time>2011-06-02T15:01:09Z</time>
      </trkpt>
      <trkpt lat="46.37258" lon="-0.34393">
        <ele>36.2619</ele>
        <time>2011-06-02T15:01:10Z</time>
      </trkpt>
      <trkpt lat="46.37257" lon="-0.34393">
        <ele>36.2882</ele>
        <time>2011-06-02T15:01:11Z</time>
      </trkpt>
      <trkpt lat="46.37256" lon="-0.34393">
        <ele>36.3138</ele>
        <time>2011-06-02T15:01:12Z</time>
      </trkpt>
      <trkpt lat="46.37255" lon="-0.34393">
        <ele>36.3395</ele>
        <time>2011-06-02T15:01:13Z</time>
      </trkpt>
      <trkpt lat="46.37254" lon="-0.34395">
        <ele>36.3909</ele>
        <time>2011-06-02T15:01:16Z</time>
      </trkpt>
      <trkpt lat="46.37253" lon="-0.34397">
        <ele>36.4154</ele>
        <time>2011-06-02T15:01:17Z</time>
      </trkpt>
      <trkpt lat="46.37253" lon="-0.34398">
        <ele>36.4388</ele>
        <time>2011-06-02T15:01:18Z</time>
      </trkpt>
      <trkpt lat="46.37252" lon="-0.34399">
        <ele>36.4611</ele>
        <time>2011-06-02T15:01:19Z</time>
      </trkpt>
      <trkpt lat="46.37251" lon="-0.344">
        <ele>36.483</ele>
        <time>2011-06-02T15:01:20Z</time>
      </trkpt>
      <trkpt lat="46.3725" lon="-0.34401">
        <ele>36.5041</ele>
        <time>2011-06-02T15:01:21Z</time>
      </trkpt>
      <trkpt lat="46.37249" lon="-0.34403">
        <ele>36.5245</ele>
        <time>2011-06-02T15:01:22Z</time>
      </trkpt>
      <trkpt lat="46.37249" lon="-0.34403">
        <ele>36.5428</ele>
        <time>2011-06-02T15:01:23Z</time>
      </trkpt>
      <trkpt lat="46.37248" lon="-0.34404">
        <ele>36.5606</ele>
        <time>2011-06-02T15:01:24Z</time>
      </trkpt>
      <trkpt lat="46.37247" lon="-0.34404">
        <ele>36.5798</ele>
        <time>2011-06-02T15:01:25Z</time>
      </trkpt>
      <trkpt lat="46.37247" lon="-0.34405">
        <ele>36.5973</ele>
        <time>2011-06-02T15:01:29Z</time>
      </trkpt>
      <trkpt lat="46.37246" lon="-0.34406">
        <ele>36.6008</ele>
        <time>2011-06-02T15:01:30Z</time>
      </trkpt>
      <trkpt lat="46.37245" lon="-0.34407">
        <ele>36.5992</ele>
        <time>2011-06-02T15:01:31Z</time>
      </trkpt>
      <trkpt lat="46.37244" lon="-0.34408">
        <ele>36.5962</ele>
        <time>2011-06-02T15:01:32Z</time>
      </trkpt>
      <trkpt lat="46.37243" lon="-0.34408">
        <ele>36.5909</ele>
        <time>2011-06-02T15:01:33Z</time>
      </trkpt>
      <trkpt lat="46.37243" lon="-0.34409">
        <ele>36.579</ele>
        <time>2011-06-02T15:01:34Z</time>
      </trkpt>
      <trkpt lat="46.37242" lon="-0.3441">
        <ele>36.5603</ele>
        <time>2011-06-02T15:01:35Z</time>
      </trkpt>
      <trkpt lat="46.37241" lon="-0.34411">
        <ele>36.5363</ele>
        <time>2011-06-02T15:01:36Z</time>
      </trkpt>
      <trkpt lat="46.37241" lon="-0.34411">
        <ele>36.5056</ele>
        <time>2011-06-02T15:01:37Z</time>
      </trkpt>
      <trkpt lat="46.37241" lon="-0.34412">
        <ele>36.465</ele>
        <time>2011-06-02T15:01:38Z</time>
      </trkpt>
      <trkpt lat="46.37241" lon="-0.34413">
        <ele>36.4219</ele>
        <time>2011-06-02T15:01:39Z</time>
      </trkpt>
      <trkpt lat="46.37241" lon="-0.34413">
        <ele>36.3768</ele>
        <time>2011-06-02T15:01:40Z</time>
      </trkpt>
      <trkpt lat="46.37241" lon="-0.34414">
        <ele>36.3257</ele>
        <time>2011-06-02T15:01:41Z</time>
      </trkpt>
      <trkpt lat="46.3724" lon="-0.34415">
        <ele>36.2729</ele>
        <time>2011-06-02T15:01:42Z</time>
      </trkpt>
      <trkpt lat="46.3724" lon="-0.34416">
        <ele>36.2149</ele>
        <time>2011-06-02T15:01:43Z</time>
      </trkpt>
      <trkpt lat="46.3724" lon="-0.34417">
        <ele>36.1608</ele>
        <time>2011-06-02T15:01:44Z</time>
      </trkpt>
      <trkpt lat="46.3724" lon="-0.34419">
        <ele>36.1108</ele>
        <time>2011-06-02T15:01:45Z</time>
      </trkpt>
      <trkpt lat="46.37239" lon="-0.3442">
        <ele>36.0657</ele>
        <time>2011-06-02T15:01:46Z</time>
      </trkpt>
      <trkpt lat="46.37238" lon="-0.34421">
        <ele>36.0241</ele>
        <time>2011-06-02T15:01:47Z</time>
      </trkpt>
      <trkpt lat="46.37237" lon="-0.34423">
        <ele>35.9861</ele>
        <time>2011-06-02T15:01:48Z</time>
      </trkpt>
      <trkpt lat="46.37237" lon="-0.34424">
        <ele>35.9502</ele>
        <time>2011-06-02T15:01:49Z</time>
      </trkpt>
      <trkpt lat="46.37236" lon="-0.34425">
        <ele>35.9165</ele>
        <time>2011-06-02T15:01:50Z</time>
      </trkpt>
      <trkpt lat="46.37235" lon="-0.34426">
        <ele>35.8787</ele>
        <time>2011-06-02T15:01:51Z</time>
      </trkpt>
      <trkpt lat="46.37235" lon="-0.34427">
        <ele>35.8488</ele>
        <time>2011-06-02T15:01:52Z</time>
      </trkpt>
      <trkpt lat="46.37234" lon="-0.34428">
        <ele>35.8299</ele>
        <time>2011-06-02T15:01:53Z</time>
      </trkpt>
      <trkpt lat="46.37233" lon="-0.34429">
        <ele>35.8189</ele>
        <time>2011-06-02T15:01:54Z</time>
      </trkpt>
      <trkpt lat="46.37233" lon="-0.34431">
        <ele>35.8162</ele>
        <time>2011-06-02T15:01:55Z</time>
      </trkpt>
      <trkpt lat="46.37232" lon="-0.34433">
        <ele>35.8223</ele>
        <time>2011-06-02T15:01:56Z</time>
      </trkpt>
      <trkpt lat="46.37231" lon="-0.34434">
        <ele>35.832</ele>
        <time>2011-06-02T15:01:57Z</time>
      </trkpt>
      <trkpt lat="46.3723" lon="-0.34435">
        <ele>35.8427</ele>
        <time>2011-06-02T15:01:58Z</time>
      </trkpt>
      <trkpt lat="46.37229" lon="-0.34436">
        <ele>35.854</ele>
        <time>2011-06-02T15:01:59Z</time>
      </trkpt>
      <trkpt lat="46.37228" lon="-0.34437">
        <ele>35.8624</ele>
        <time>2011-06-02T15:02:00Z</time>
      </trkpt>
      <trkpt lat="46.37227" lon="-0.34438">
        <ele>35.8669</ele>
        <time>2011-06-02T15:02:01Z</time>
      </trkpt>
      <trkpt lat="46.37226" lon="-0.34439">
        <ele>35.869</ele>
        <time>2011-06-02T15:02:02Z</time>
      </trkpt>
      <trkpt lat="46.37225" lon="-0.3444">
        <ele>35.8702</ele>
        <time>2011-06-02T15:02:03Z</time>
      </trkpt>
      <trkpt lat="46.37225" lon="-0.34441">
        <ele>35.8684</ele>
        <time>2011-06-02T15:02:04Z</time>
      </trkpt>
      <trkpt lat="46.37224" lon="-0.34442">
        <ele>35.8647</ele>
        <time>2011-06-02T15:02:05Z</time>
      </trkpt>
      <trkpt lat="46.37223" lon="-0.34443">
        <ele>35.8622</ele>
        <time>2011-06-02T15:02:06Z</time>
      </trkpt>
      <trkpt lat="46.37222" lon="-0.34444">
        <ele>35.8602</ele>
        <time>2011-06-02T15:02:07Z</time>
      </trkpt>
      <trkpt lat="46.37222" lon="-0.34445">
        <ele>35.8577</ele>
        <time>2011-06-02T15:02:08Z</time>
      </trkpt>
      <trkpt lat="46.37221" lon="-0.34446">
        <ele>35.8531</ele>
        <time>2011-06-02T15:02:09Z</time>
      </trkpt>
      <trkpt lat="46.37221" lon="-0.34446">
        <ele>35.8451</ele>
        <time>2011-06-02T15:02:10Z</time>
      </trkpt>
      <trkpt lat="46.37221" lon="-0.34447">
        <ele>35.8347</ele>
        <time>2011-06-02T15:02:11Z</time>
      </trkpt>
      <trkpt lat="46.3722" lon="-0.34449">
        <ele>35.8195</ele>
        <time>2011-06-02T15:02:12Z</time>
      </trkpt>
      <trkpt lat="46.37221" lon="-0.3445">
        <ele>35.7998</ele>
        <time>2011-06-02T15:02:13Z</time>
      </trkpt>
      <trkpt lat="46.37221" lon="-0.34451">
        <ele>35.7799</ele>
        <time>2011-06-02T15:02:14Z</time>
      </trkpt>
      <trkpt lat="46.3722" lon="-0.34452">
        <ele>35.7605</ele>
        <time>2011-06-02T15:02:15Z</time>
      </trkpt>
      <trkpt lat="46.37221" lon="-0.34452">
        <ele>35.7425</ele>
        <time>2011-06-02T15:02:16Z</time>
      </trkpt>
      <trkpt lat="46.37221" lon="-0.34452">
        <ele>35.7277</ele>
        <time>2011-06-02T15:02:17Z</time>
      </trkpt>
      <trkpt lat="46.37219" lon="-0.34452">
        <ele>35.7172</ele>
        <time>2011-06-02T15:02:32Z</time>
      </trkpt>
      <trkpt lat="46.37219" lon="-0.34453">
        <ele>35.7233</ele>
        <time>2011-06-02T15:02:33Z</time>
      </trkpt>
      <trkpt lat="46.37219" lon="-0.34454">
        <ele>35.7346</ele>
        <time>2011-06-02T15:02:34Z</time>
      </trkpt>
      <trkpt lat="46.3722" lon="-0.34455">
        <ele>35.75</ele>
        <time>2011-06-02T15:02:35Z</time>
      </trkpt>
      <trkpt lat="46.3722" lon="-0.34457">
        <ele>35.7641</ele>
        <time>2011-06-02T15:02:36Z</time>
      </trkpt>
      <trkpt lat="46.3722" lon="-0.34458">
        <ele>35.7767</ele>
        <time>2011-06-02T15:02:37Z</time>
      </trkpt>
      <trkpt lat="46.3722" lon="-0.3446">
        <ele>35.7913</ele>
        <time>2011-06-02T15:02:38Z</time>
      </trkpt>
      <trkpt lat="46.37221" lon="-0.34462">
        <ele>35.8062</ele>
        <time>2011-06-02T15:02:39Z</time>
      </trkpt>
      <trkpt lat="46.37221" lon="-0.34464">
        <ele>35.8192</ele>
        <time>2011-06-02T15:02:40Z</time>
      </trkpt>
      <trkpt lat="46.37221" lon="-0.34466">
        <ele>35.8303</ele>
        <time>2011-06-02T15:02:41Z</time>
      </trkpt>
      <trkpt lat="46.37222" lon="-0.34468">
        <ele>35.8411</ele>
        <time>2011-06-02T15:02:42Z</time>
      </trkpt>
      <trkpt lat="46.37222" lon="-0.34469">
        <ele>35.8496</ele>
        <time>2011-06-02T15:02:43Z</time>
      </trkpt>
      <trkpt lat="46.37223" lon="-0.3447">
        <ele>35.8576</ele>
        <time>2011-06-02T15:02:44Z</time>
      </trkpt>
      <trkpt lat="46.37224" lon="-0.34471">
        <ele>35.8691</ele>
        <time>2011-06-02T15:02:48Z</time>
      </trkpt>
      <trkpt lat="46.37225" lon="-0.34472">
        <ele>35.8743</ele>
        <time>2011-06-02T15:02:49Z</time>
      </trkpt>
      <trkpt lat="46.37225" lon="-0.34473">
        <ele>35.8769</ele>
        <time>2011-06-02T15:02:50Z</time>
      </trkpt>
      <trkpt lat="46.37226" lon="-0.34474">
        <ele>35.8748</ele>
        <time>2011-06-02T15:02:51Z</time>
      </trkpt>
      <trkpt lat="46.37227" lon="-0.34475">
        <ele>35.8634</ele>
        <time>2011-06-02T15:02:52Z</time>
      </trkpt>
      <trkpt lat="46.37227" lon="-0.34477">
        <ele>35.8525</ele>
        <time>2011-06-02T15:02:53Z</time>
      </trkpt>
      <trkpt lat="46.37228" lon="-0.34478">
        <ele>35.8431</ele>
        <time>2011-06-02T15:02:54Z</time>
      </trkpt>
      <trkpt lat="46.37228" lon="-0.34479">
        <ele>35.8341</ele>
        <time>2011-06-02T15:02:55Z</time>
      </trkpt>
      <trkpt lat="46.37228" lon="-0.3448">
        <ele>35.8253</ele>
        <time>2011-06-02T15:02:56Z</time>
      </trkpt>
      <trkpt lat="46.37229" lon="-0.34482">
        <ele>35.8186</ele>
        <time>2011-06-02T15:02:57Z</time>
      </trkpt>
      <trkpt lat="46.3723" lon="-0.34483">
        <ele>35.8096</ele>
        <time>2011-06-02T15:02:58Z</time>
      </trkpt>
      <trkpt lat="46.3723" lon="-0.34485">
        <ele>35.7983</ele>
        <time>2011-06-02T15:02:59Z</time>
      </trkpt>
      <trkpt lat="46.37231" lon="-0.34486">
        <ele>35.7871</ele>
        <time>2011-06-02T15:03:00Z</time>
      </trkpt>
      <trkpt lat="46.37232" lon="-0.34487">
        <ele>35.7758</ele>
        <time>2011-06-02T15:03:01Z</time>
      </trkpt>
      <trkpt lat="46.37232" lon="-0.34488">
        <ele>35.7666</ele>
        <time>2011-06-02T15:03:02Z</time>
      </trkpt>
      <trkpt lat="46.37233" lon="-0.34489">
        <ele>35.7576</ele>
        <time>2011-06-02T15:03:03Z</time>
      </trkpt>
      <trkpt lat="46.37234" lon="-0.3449">
        <ele>35.7484</ele>
        <time>2011-06-02T15:03:04Z</time>
      </trkpt>
      <trkpt lat="46.37235" lon="-0.34491">
        <ele>35.7424</ele>
        <time>2011-06-02T15:03:05Z</time>
      </trkpt>
      <trkpt lat="46.37236" lon="-0.34492">
        <ele>35.7387</ele>
        <time>2011-06-02T15:03:06Z</time>
      </trkpt>
      <trkpt lat="46.37237" lon="-0.34492">
        <ele>35.735</ele>
        <time>2011-06-02T15:03:07Z</time>
      </trkpt>
      <trkpt lat="46.37238" lon="-0.34493">
        <ele>35.7291</ele>
        <time>2011-06-02T15:03:08Z</time>
      </trkpt>
      <trkpt lat="46.37239" lon="-0.34494">
        <ele>35.7224</ele>
        <time>2011-06-02T15:03:09Z</time>
      </trkpt>
      <trkpt lat="46.3724" lon="-0.34495">
        <ele>35.7149</ele>
        <time>2011-06-02T15:03:10Z</time>
      </trkpt>
      <trkpt lat="46.3724" lon="-0.34496">
        <ele>35.7084</ele>
        <time>2011-06-02T15:03:11Z</time>
      </trkpt>
      <trkpt lat="46.3724" lon="-0.34497">
        <ele>35.7027</ele>
        <time>2011-06-02T15:03:12Z</time>
      </trkpt>
      <trkpt lat="46.37241" lon="-0.34499">
        <ele>35.6992</ele>
        <time>2011-06-02T15:03:13Z</time>
      </trkpt>
      <trkpt lat="46.37241" lon="-0.345">
        <ele>35.6977</ele>
        <time>2011-06-02T15:03:14Z</time>
      </trkpt>
      <trkpt lat="46.37241" lon="-0.34501">
        <ele>35.6975</ele>
        <time>2011-06-02T15:03:15Z</time>
      </trkpt>
      <trkpt lat="46.37241" lon="-0.34503">
        <ele>35.6986</ele>
        <time>2011-06-02T15:03:16Z</time>
      </trkpt>
      <trkpt lat="46.37242" lon="-0.34503">
        <ele>35.6993</ele>
        <time>2011-06-02T15:03:17Z</time>
      </trkpt>
      <trkpt lat="46.37243" lon="-0.34504">
        <ele>35.7005</ele>
        <time>2011-06-02T15:03:18Z</time>
      </trkpt>
      <trkpt lat="46.37243" lon="-0.34505">
        <ele>35.6997</ele>
        <time>2011-06-02T15:03:19Z</time>
      </trkpt>
      <trkpt lat="46.37244" lon="-0.34506">
        <ele>35.6981</ele>
        <time>2011-06-02T15:03:20Z</time>
      </trkpt>
      <trkpt lat="46.37244" lon="-0.34507">
        <ele>35.6948</ele>
        <time>2011-06-02T15:03:21Z</time>
      </trkpt>
      <trkpt lat="46.37245" lon="-0.34508">
        <ele>35.6903</ele>
        <time>2011-06-02T15:03:22Z</time>
      </trkpt>
      <trkpt lat="46.37245" lon="-0.34509">
        <ele>35.6847</ele>
        <time>2011-06-02T15:03:23Z</time>
      </trkpt>
      <trkpt lat="46.37246" lon="-0.3451">
        <ele>35.68</ele>
        <time>2011-06-02T15:03:24Z</time>
      </trkpt>
      <trkpt lat="46.37246" lon="-0.3451">
        <ele>35.6757</ele>
        <time>2011-06-02T15:03:25Z</time>
      </trkpt>
      <trkpt lat="46.37247" lon="-0.34511">
        <ele>35.6699</ele>
        <time>2011-06-02T15:03:26Z</time>
      </trkpt>
      <trkpt lat="46.37248" lon="-0.34511">
        <ele>35.6617</ele>
        <time>2011-06-02T15:03:27Z</time>
      </trkpt>
      <trkpt lat="46.37248" lon="-0.34512">
        <ele>35.6528</ele>
        <time>2011-06-02T15:03:28Z</time>
      </trkpt>
      <trkpt lat="46.37249" lon="-0.34513">
        <ele>35.6448</ele>
        <time>2011-06-02T15:03:29Z</time>
      </trkpt>
      <trkpt lat="46.37251" lon="-0.34514">
        <ele>35.6377</ele>
        <time>2011-06-02T15:03:30Z</time>
      </trkpt>
      <trkpt lat="46.37252" lon="-0.34515">
        <ele>35.6306</ele>
        <time>2011-06-02T15:03:31Z</time>
      </trkpt>
      <trkpt lat="46.37253" lon="-0.34516">
        <ele>35.6227</ele>
        <time>2011-06-02T15:03:32Z</time>
      </trkpt>
      <trkpt lat="46.37254" lon="-0.34517">
        <ele>35.613</ele>
        <time>2011-06-02T15:03:33Z</time>
      </trkpt>
      <trkpt lat="46.37255" lon="-0.34519">
        <ele>35.603</ele>
        <time>2011-06-02T15:03:34Z</time>
      </trkpt>
      <trkpt lat="46.37256" lon="-0.3452">
        <ele>35.5931</ele>
        <time>2011-06-02T15:03:35Z</time>
      </trkpt>
      <trkpt lat="46.37257" lon="-0.34521">
        <ele>35.5845</ele>
        <time>2011-06-02T15:03:36Z</time>
      </trkpt>
      <trkpt lat="46.37257" lon="-0.34522">
        <ele>35.5806</ele>
        <time>2011-06-02T15:03:37Z</time>
      </trkpt>
      <trkpt lat="46.37259" lon="-0.34523">
        <ele>35.5786</ele>
        <time>2011-06-02T15:03:38Z</time>
      </trkpt>
      <trkpt lat="46.37259" lon="-0.34524">
        <ele>35.5765</ele>
        <time>2011-06-02T15:03:39Z</time>
      </trkpt>
      <trkpt lat="46.3726" lon="-0.34525">
        <ele>35.5743</ele>
        <time>2011-06-02T15:03:40Z</time>
      </trkpt>
      <trkpt lat="46.37262" lon="-0.34526">
        <ele>35.5728</ele>
        <time>2011-06-02T15:03:41Z</time>
      </trkpt>
      <trkpt lat="46.37263" lon="-0.34526">
        <ele>35.574</ele>
        <time>2011-06-02T15:03:42Z</time>
      </trkpt>
      <trkpt lat="46.37264" lon="-0.34527">
        <ele>35.5751</ele>
        <time>2011-06-02T15:03:43Z</time>
      </trkpt>
      <trkpt lat="46.37264" lon="-0.34528">
        <ele>35.5755</ele>
        <time>2011-06-02T15:03:44Z</time>
      </trkpt>
      <trkpt lat="46.37265" lon="-0.34529">
        <ele>35.5778</ele>
        <time>2011-06-02T15:03:45Z</time>
      </trkpt>
      <trkpt lat="46.37267" lon="-0.3453">
        <ele>35.5777</ele>
        <time>2011-06-02T15:03:46Z</time>
      </trkpt>
      <trkpt lat="46.37268" lon="-0.34532">
        <ele>35.5775</ele>
        <time>2011-06-02T15:03:47Z</time>
      </trkpt>
      <trkpt lat="46.37268" lon="-0.34533">
        <ele>35.5797</ele>
        <time>2011-06-02T15:03:48Z</time>
      </trkpt>
      <trkpt lat="46.3727" lon="-0.34534">
        <ele>35.582</ele>
        <time>2011-06-02T15:03:49Z</time>
      </trkpt>
      <trkpt lat="46.3727" lon="-0.34534">
        <ele>35.5776</ele>
        <time>2011-06-02T15:03:50Z</time>
      </trkpt>
      <trkpt lat="46.37272" lon="-0.34535">
        <ele>35.5638</ele>
        <time>2011-06-02T15:03:51Z</time>
      </trkpt>
      <trkpt lat="46.37272" lon="-0.34536">
        <ele>35.5425</ele>
        <time>2011-06-02T15:03:52Z</time>
      </trkpt>
      <trkpt lat="46.37273" lon="-0.34537">
        <ele>35.5211</ele>
        <time>2011-06-02T15:03:53Z</time>
      </trkpt>
      <trkpt lat="46.37274" lon="-0.34538">
        <ele>35.4982</ele>
        <time>2011-06-02T15:03:54Z</time>
      </trkpt>
      <trkpt lat="46.37274" lon="-0.34538">
        <ele>35.4722</ele>
        <time>2011-06-02T15:03:56Z</time>
      </trkpt>
      <trkpt lat="46.37275" lon="-0.34539">
        <ele>35.4507</ele>
        <time>2011-06-02T15:03:57Z</time>
      </trkpt>
      <trkpt lat="46.37276" lon="-0.3454">
        <ele>35.4311</ele>
        <time>2011-06-02T15:03:58Z</time>
      </trkpt>
      <trkpt lat="46.37277" lon="-0.34541">
        <ele>35.4115</ele>
        <time>2011-06-02T15:03:59Z</time>
      </trkpt>
      <trkpt lat="46.37277" lon="-0.34542">
        <ele>35.3956</ele>
        <time>2011-06-02T15:04:00Z</time>
      </trkpt>
      <trkpt lat="46.37278" lon="-0.34543">
        <ele>35.3804</ele>
        <time>2011-06-02T15:04:01Z</time>
      </trkpt>
      <trkpt lat="46.37278" lon="-0.34544">
        <ele>35.3706</ele>
        <time>2011-06-02T15:04:02Z</time>
      </trkpt>
      <trkpt lat="46.3728" lon="-0.34547">
        <ele>35.3572</ele>
        <time>2011-06-02T15:04:06Z</time>
      </trkpt>
      <trkpt lat="46.37281" lon="-0.34548">
        <ele>35.3371</ele>
        <time>2011-06-02T15:04:07Z</time>
      </trkpt>
      <trkpt lat="46.37281" lon="-0.34548">
        <ele>35.3097</ele>
        <time>2011-06-02T15:04:08Z</time>
      </trkpt>
      <trkpt lat="46.37282" lon="-0.3455">
        <ele>35.2673</ele>
        <time>2011-06-02T15:04:11Z</time>
      </trkpt>
      <trkpt lat="46.37283" lon="-0.3455">
        <ele>35.2286</ele>
        <time>2011-06-02T15:04:12Z</time>
      </trkpt>
      <trkpt lat="46.37283" lon="-0.34551">
        <ele>35.1908</ele>
        <time>2011-06-02T15:04:13Z</time>
      </trkpt>
      <trkpt lat="46.37284" lon="-0.34552">
        <ele>35.1536</ele>
        <time>2011-06-02T15:04:14Z</time>
      </trkpt>
      <trkpt lat="46.37285" lon="-0.34553">
        <ele>35.1235</ele>
        <time>2011-06-02T15:04:15Z</time>
      </trkpt>
      <trkpt lat="46.37285" lon="-0.34554">
        <ele>35.0971</ele>
        <time>2011-06-02T15:04:16Z</time>
      </trkpt>
      <trkpt lat="46.37286" lon="-0.34555">
        <ele>35.0725</ele>
        <time>2011-06-02T15:04:17Z</time>
      </trkpt>
      <trkpt lat="46.37287" lon="-0.34556">
        <ele>35.0501</ele>
        <time>2011-06-02T15:04:18Z</time>
      </trkpt>
      <trkpt lat="46.37288" lon="-0.34557">
        <ele>35.036</ele>
        <time>2011-06-02T15:04:19Z</time>
      </trkpt>
      <trkpt lat="46.37289" lon="-0.34558">
        <ele>35.0195</ele>
        <time>2011-06-02T15:04:20Z</time>
      </trkpt>
      <trkpt lat="46.37289" lon="-0.34559">
        <ele>34.9943</ele>
        <time>2011-06-02T15:04:21Z</time>
      </trkpt>
      <trkpt lat="46.3729" lon="-0.3456">
        <ele>34.9707</ele>
        <time>2011-06-02T15:04:22Z</time>
      </trkpt>
      <trkpt lat="46.37291" lon="-0.34561">
        <ele>34.9576</ele>
        <time>2011-06-02T15:04:23Z</time>
      </trkpt>
      <trkpt lat="46.37291" lon="-0.34562">
        <ele>34.9648</ele>
        <time>2011-06-02T15:04:24Z</time>
      </trkpt>
      <trkpt lat="46.37292" lon="-0.34563">
        <ele>34.9785</ele>
        <time>2011-06-02T15:04:25Z</time>
      </trkpt>
      <trkpt lat="46.37292" lon="-0.34565">
        <ele>34.9917</ele>
        <time>2011-06-02T15:04:26Z</time>
      </trkpt>
      <trkpt lat="46.37293" lon="-0.34566">
        <ele>35.0038</ele>
        <time>2011-06-02T15:04:27Z</time>
      </trkpt>
      <trkpt lat="46.37293" lon="-0.34568">
        <ele>35.0154</ele>
        <time>2011-06-02T15:04:28Z</time>
      </trkpt>
      <trkpt lat="46.37293" lon="-0.34569">
        <ele>35.0263</ele>
        <time>2011-06-02T15:04:29Z</time>
      </trkpt>
      <trkpt lat="46.37293" lon="-0.34571">
        <ele>35.0369</ele>
        <time>2011-06-02T15:04:30Z</time>
      </trkpt>
      <trkpt lat="46.37293" lon="-0.34572">
        <ele>35.0475</ele>
        <time>2011-06-02T15:04:31Z</time>
      </trkpt>
      <trkpt lat="46.37293" lon="-0.34574">
        <ele>35.0578</ele>
        <time>2011-06-02T15:04:32Z</time>
      </trkpt>
      <trkpt lat="46.37293" lon="-0.34575">
        <ele>35.0681</ele>
        <time>2011-06-02T15:04:33Z</time>
      </trkpt>
      <trkpt lat="46.37293" lon="-0.34577">
        <ele>35.0786</ele>
        <time>2011-06-02T15:04:34Z</time>
      </trkpt>
      <trkpt lat="46.37293" lon="-0.34578">
        <ele>35.0897</ele>
        <time>2011-06-02T15:04:35Z</time>
      </trkpt>
      <trkpt lat="46.37293" lon="-0.34579">
        <ele>35.1011</ele>
        <time>2011-06-02T15:04:36Z</time>
      </trkpt>
      <trkpt lat="46.37293" lon="-0.34581">
        <ele>35.1132</ele>
        <time>2011-06-02T15:04:37Z</time>
      </trkpt>
      <trkpt lat="46.37293" lon="-0.34582">
        <ele>35.1245</ele>
        <time>2011-06-02T15:04:38Z</time>
      </trkpt>
      <trkpt lat="46.37293" lon="-0.34584">
        <ele>35.1345</ele>
        <time>2011-06-02T15:04:39Z</time>
      </trkpt>
      <trkpt lat="46.37293" lon="-0.34585">
        <ele>35.1285</ele>
        <time>2011-06-02T15:04:40Z</time>
      </trkpt>
      <trkpt lat="46.37294" lon="-0.34588">
        <ele>35.0364</ele>
        <time>2011-06-02T15:04:45Z</time>
      </trkpt>
      <trkpt lat="46.37293" lon="-0.34589">
        <ele>34.9897</ele>
        <time>2011-06-02T15:04:46Z</time>
      </trkpt>
      <trkpt lat="46.37293" lon="-0.3459">
        <ele>34.9414</ele>
        <time>2011-06-02T15:04:47Z</time>
      </trkpt>
      <trkpt lat="46.37293" lon="-0.34591">
        <ele>34.8874</ele>
        <time>2011-06-02T15:04:48Z</time>
      </trkpt>
      <trkpt lat="46.37293" lon="-0.34592">
        <ele>34.8339</ele>
        <time>2011-06-02T15:04:49Z</time>
      </trkpt>
      <trkpt lat="46.37292" lon="-0.34593">
        <ele>34.7771</ele>
        <time>2011-06-02T15:04:50Z</time>
      </trkpt>
      <trkpt lat="46.37292" lon="-0.34594">
        <ele>34.7164</ele>
        <time>2011-06-02T15:04:51Z</time>
      </trkpt>
      <trkpt lat="46.37291" lon="-0.34595">
        <ele>34.6605</ele>
        <time>2011-06-02T15:04:52Z</time>
      </trkpt>
      <trkpt lat="46.37291" lon="-0.34604">
        <ele>34.5412</ele>
        <time>2011-06-02T15:04:57Z</time>
      </trkpt>
      <trkpt lat="46.37291" lon="-0.34606">
        <ele>34.4969</ele>
        <time>2011-06-02T15:04:58Z</time>
      </trkpt>
      <trkpt lat="46.37291" lon="-0.34608">
        <ele>34.454</ele>
        <time>2011-06-02T15:04:59Z</time>
      </trkpt>
      <trkpt lat="46.37291" lon="-0.3461">
        <ele>34.4115</ele>
        <time>2011-06-02T15:05:00Z</time>
      </trkpt>
      <trkpt lat="46.3729" lon="-0.34612">
        <ele>34.373</ele>
        <time>2011-06-02T15:05:01Z</time>
      </trkpt>
      <trkpt lat="46.3729" lon="-0.34614">
        <ele>34.3351</ele>
        <time>2011-06-02T15:05:02Z</time>
      </trkpt>
      <trkpt lat="46.3729" lon="-0.34616">
        <ele>34.2966</ele>
        <time>2011-06-02T15:05:03Z</time>
      </trkpt>
      <trkpt lat="46.37289" lon="-0.34618">
        <ele>34.2612</ele>
        <time>2011-06-02T15:05:04Z</time>
      </trkpt>
      <trkpt lat="46.37289" lon="-0.3462">
        <ele>34.2266</ele>
        <time>2011-06-02T15:05:05Z</time>
      </trkpt>
      <trkpt lat="46.37289" lon="-0.34622">
        <ele>34.1965</ele>
        <time>2011-06-02T15:05:06Z</time>
      </trkpt>
      <trkpt lat="46.37288" lon="-0.34624">
        <ele>34.1679</ele>
        <time>2011-06-02T15:05:07Z</time>
      </trkpt>
      <trkpt lat="46.37288" lon="-0.34626">
        <ele>34.1459</ele>
        <time>2011-06-02T15:05:08Z</time>
      </trkpt>
      <trkpt lat="46.37288" lon="-0.34628">
        <ele>34.1252</ele>
        <time>2011-06-02T15:05:09Z</time>
      </trkpt>
      <trkpt lat="46.37287" lon="-0.34629">
        <ele>34.1094</ele>
        <time>2011-06-02T15:05:10Z</time>
      </trkpt>
      <trkpt lat="46.37287" lon="-0.3463">
        <ele>34.0978</ele>
        <time>2011-06-02T15:05:11Z</time>
      </trkpt>
      <trkpt lat="46.37286" lon="-0.34632">
        <ele>34.0883</ele>
        <time>2011-06-02T15:05:12Z</time>
      </trkpt>
      <trkpt lat="46.37286" lon="-0.34633">
        <ele>34.0786</ele>
        <time>2011-06-02T15:05:13Z</time>
      </trkpt>
      <trkpt lat="46.37286" lon="-0.34634">
        <ele>34.07</ele>
        <time>2011-06-02T15:05:14Z</time>
      </trkpt>
      <trkpt lat="46.37286" lon="-0.34635">
        <ele>34.0632</ele>
        <time>2011-06-02T15:05:15Z</time>
      </trkpt>
      <trkpt lat="46.37286" lon="-0.34636">
        <ele>34.0494</ele>
        <time>2011-06-02T15:05:16Z</time>
      </trkpt>
      <trkpt lat="46.37286" lon="-0.34638">
        <ele>34.0292</ele>
        <time>2011-06-02T15:05:17Z</time>
      </trkpt>
      <trkpt lat="46.37286" lon="-0.34639">
        <ele>34.0139</ele>
        <time>2011-06-02T15:05:18Z</time>
      </trkpt>
      <trkpt lat="46.37286" lon="-0.3464">
        <ele>33.9779</ele>
        <time>2011-06-02T15:05:19Z</time>
      </trkpt>
      <trkpt lat="46.37286" lon="-0.34641">
        <ele>33.9269</ele>
        <time>2011-06-02T15:05:20Z</time>
      </trkpt>
      <trkpt lat="46.37285" lon="-0.34643">
        <ele>33.8657</ele>
        <time>2011-06-02T15:05:21Z</time>
      </trkpt>
      <trkpt lat="46.37285" lon="-0.34645">
        <ele>33.8</ele>
        <time>2011-06-02T15:05:22Z</time>
      </trkpt>
      <trkpt lat="46.37285" lon="-0.34646">
        <ele>33.7397</ele>
        <time>2011-06-02T15:05:23Z</time>
      </trkpt>
      <trkpt lat="46.37284" lon="-0.34647">
        <ele>33.6843</ele>
        <time>2011-06-02T15:05:24Z</time>
      </trkpt>
      <trkpt lat="46.37283" lon="-0.34649">
        <ele>33.6286</ele>
        <time>2011-06-02T15:05:25Z</time>
      </trkpt>
      <trkpt lat="46.37281" lon="-0.34654">
        <ele>33.5609</ele>
        <time>2011-06-02T15:05:31Z</time>
      </trkpt>
      <trkpt lat="46.37279" lon="-0.34657">
        <ele>33.4338</ele>
        <time>2011-06-02T15:05:44Z</time>
      </trkpt>
      <trkpt lat="46.37279" lon="-0.34657">
        <ele>33.3669</ele>
        <time>2011-06-02T15:05:45Z</time>
      </trkpt>
      <trkpt lat="46.37279" lon="-0.34659">
        <ele>33.303</ele>
        <time>2011-06-02T15:05:46Z</time>
      </trkpt>
      <trkpt lat="46.37279" lon="-0.3466">
        <ele>33.2404</ele>
        <time>2011-06-02T15:05:47Z</time>
      </trkpt>
      <trkpt lat="46.3728" lon="-0.34662">
        <ele>33.1792</ele>
        <time>2011-06-02T15:05:48Z</time>
      </trkpt>
      <trkpt lat="46.37279" lon="-0.34663">
        <ele>33.12</ele>
        <time>2011-06-02T15:05:49Z</time>
      </trkpt>
      <trkpt lat="46.37279" lon="-0.34664">
        <ele>33.0635</ele>
        <time>2011-06-02T15:05:50Z</time>
      </trkpt>
      <trkpt lat="46.37279" lon="-0.34666">
        <ele>33.008</ele>
        <time>2011-06-02T15:05:51Z</time>
      </trkpt>
      <trkpt lat="46.37279" lon="-0.34667">
        <ele>32.9537</ele>
        <time>2011-06-02T15:05:52Z</time>
      </trkpt>
      <trkpt lat="46.37279" lon="-0.34669">
        <ele>32.9023</ele>
        <time>2011-06-02T15:05:53Z</time>
      </trkpt>
      <trkpt lat="46.37279" lon="-0.3467">
        <ele>32.8518</ele>
        <time>2011-06-02T15:05:54Z</time>
      </trkpt>
      <trkpt lat="46.37279" lon="-0.34671">
        <ele>32.8035</ele>
        <time>2011-06-02T15:05:55Z</time>
      </trkpt>
      <trkpt lat="46.37278" lon="-0.34673">
        <ele>32.7569</ele>
        <time>2011-06-02T15:05:56Z</time>
      </trkpt>
      <trkpt lat="46.37278" lon="-0.34674">
        <ele>32.7213</ele>
        <time>2011-06-02T15:05:57Z</time>
      </trkpt>
      <trkpt lat="46.37278" lon="-0.34675">
        <ele>32.6852</ele>
        <time>2011-06-02T15:05:58Z</time>
      </trkpt>
      <trkpt lat="46.37278" lon="-0.34677">
        <ele>32.6509</ele>
        <time>2011-06-02T15:05:59Z</time>
      </trkpt>
      <trkpt lat="46.37277" lon="-0.34678">
        <ele>32.6189</ele>
        <time>2011-06-02T15:06:00Z</time>
      </trkpt>
      <trkpt lat="46.37277" lon="-0.34679">
        <ele>32.5883</ele>
        <time>2011-06-02T15:06:01Z</time>
      </trkpt>
      <trkpt lat="46.37277" lon="-0.34681">
        <ele>32.5604</ele>
        <time>2011-06-02T15:06:02Z</time>
      </trkpt>
      <trkpt lat="46.37277" lon="-0.34682">
        <ele>32.5346</ele>
        <time>2011-06-02T15:06:03Z</time>
      </trkpt>
      <trkpt lat="46.37277" lon="-0.34684">
        <ele>32.5102</ele>
        <time>2011-06-02T15:06:04Z</time>
      </trkpt>
      <trkpt lat="46.37276" lon="-0.34686">
        <ele>32.4879</ele>
        <time>2011-06-02T15:06:05Z</time>
      </trkpt>
      <trkpt lat="46.37276" lon="-0.34687">
        <ele>32.4674</ele>
        <time>2011-06-02T15:06:06Z</time>
      </trkpt>
      <trkpt lat="46.37276" lon="-0.34689">
        <ele>32.4487</ele>
        <time>2011-06-02T15:06:07Z</time>
      </trkpt>
      <trkpt lat="46.37276" lon="-0.3469">
        <ele>32.4314</ele>
        <time>2011-06-02T15:06:08Z</time>
      </trkpt>
      <trkpt lat="46.37275" lon="-0.34692">
        <ele>32.4109</ele>
        <time>2011-06-02T15:06:09Z</time>
      </trkpt>
      <trkpt lat="46.37275" lon="-0.34693">
        <ele>32.3919</ele>
        <time>2011-06-02T15:06:10Z</time>
      </trkpt>
      <trkpt lat="46.37274" lon="-0.34694">
        <ele>32.3725</ele>
        <time>2011-06-02T15:06:11Z</time>
      </trkpt>
      <trkpt lat="46.37274" lon="-0.34696">
        <ele>32.3549</ele>
        <time>2011-06-02T15:06:12Z</time>
      </trkpt>
      <trkpt lat="46.37273" lon="-0.34696">
        <ele>32.3457</ele>
        <time>2011-06-02T15:06:13Z</time>
      </trkpt>
      <trkpt lat="46.37273" lon="-0.34697">
        <ele>32.3347</ele>
        <time>2011-06-02T15:06:14Z</time>
      </trkpt>
      <trkpt lat="46.37273" lon="-0.34698">
        <ele>32.3158</ele>
        <time>2011-06-02T15:06:15Z</time>
      </trkpt>
      <trkpt lat="46.37273" lon="-0.34699">
        <ele>32.2948</ele>
        <time>2011-06-02T15:06:16Z</time>
      </trkpt>
      <trkpt lat="46.37274" lon="-0.34706">
        <ele>32.3287</ele>
        <time>2011-06-02T15:06:26Z</time>
      </trkpt>
      <trkpt lat="46.37274" lon="-0.34707">
        <ele>32.3437</ele>
        <time>2011-06-02T15:06:27Z</time>
      </trkpt>
      <trkpt lat="46.37275" lon="-0.34711">
        <ele>32.3663</ele>
        <time>2011-06-02T15:06:33Z</time>
      </trkpt>
      <trkpt lat="46.37275" lon="-0.34711">
        <ele>32.3806</ele>
        <time>2011-06-02T15:06:34Z</time>
      </trkpt>
      <trkpt lat="46.37275" lon="-0.34712">
        <ele>32.3948</ele>
        <time>2011-06-02T15:06:35Z</time>
      </trkpt>
      <trkpt lat="46.37275" lon="-0.34714">
        <ele>32.4081</ele>
        <time>2011-06-02T15:06:36Z</time>
      </trkpt>
      <trkpt lat="46.37275" lon="-0.34715">
        <ele>32.4208</ele>
        <time>2011-06-02T15:06:37Z</time>
      </trkpt>
      <trkpt lat="46.37275" lon="-0.34716">
        <ele>32.4341</ele>
        <time>2011-06-02T15:06:38Z</time>
      </trkpt>
      <trkpt lat="46.37276" lon="-0.34717">
        <ele>32.448</ele>
        <time>2011-06-02T15:06:39Z</time>
      </trkpt>
      <trkpt lat="46.37276" lon="-0.34719">
        <ele>32.4605</ele>
        <time>2011-06-02T15:06:40Z</time>
      </trkpt>
      <trkpt lat="46.37275" lon="-0.3472">
        <ele>32.4739</ele>
        <time>2011-06-02T15:06:41Z</time>
      </trkpt>
      <trkpt lat="46.37275" lon="-0.34721">
        <ele>32.4733</ele>
        <time>2011-06-02T15:06:42Z</time>
      </trkpt>
      <trkpt lat="46.37274" lon="-0.34723">
        <ele>32.4704</ele>
        <time>2011-06-02T15:06:43Z</time>
      </trkpt>
      <trkpt lat="46.37273" lon="-0.34724">
        <ele>32.4458</ele>
        <time>2011-06-02T15:06:44Z</time>
      </trkpt>
      <trkpt lat="46.37273" lon="-0.34726">
        <ele>32.4194</ele>
        <time>2011-06-02T15:06:45Z</time>
      </trkpt>
      <trkpt lat="46.37273" lon="-0.34727">
        <ele>32.3709</ele>
        <time>2011-06-02T15:06:46Z</time>
      </trkpt>
      <trkpt lat="46.37273" lon="-0.34727">
        <ele>32.2872</ele>
        <time>2011-06-02T15:06:47Z</time>
      </trkpt>
      <trkpt lat="46.37273" lon="-0.34729">
        <ele>32.1555</ele>
        <time>2011-06-02T15:06:48Z</time>
      </trkpt>
      <trkpt lat="46.37273" lon="-0.3473">
        <ele>32.0281</ele>
        <time>2011-06-02T15:06:49Z</time>
      </trkpt>
      <trkpt lat="46.37273" lon="-0.34731">
        <ele>31.9031</ele>
        <time>2011-06-02T15:06:50Z</time>
      </trkpt>
      <trkpt lat="46.37273" lon="-0.34732">
        <ele>31.7803</ele>
        <time>2011-06-02T15:06:51Z</time>
      </trkpt>
      <trkpt lat="46.37274" lon="-0.34734">
        <ele>31.6606</ele>
        <time>2011-06-02T15:06:52Z</time>
      </trkpt>
      <trkpt lat="46.37274" lon="-0.34736">
        <ele>31.5471</ele>
        <time>2011-06-02T15:06:53Z</time>
      </trkpt>
      <trkpt lat="46.37274" lon="-0.34737">
        <ele>31.4353</ele>
        <time>2011-06-02T15:06:54Z</time>
      </trkpt>
      <trkpt lat="46.37274" lon="-0.34739">
        <ele>31.3268</ele>
        <time>2011-06-02T15:06:55Z</time>
      </trkpt>
      <trkpt lat="46.37274" lon="-0.3474">
        <ele>31.2262</ele>
        <time>2011-06-02T15:06:56Z</time>
      </trkpt>
      <trkpt lat="46.37274" lon="-0.34741">
        <ele>31.1272</ele>
        <time>2011-06-02T15:06:57Z</time>
      </trkpt>
      <trkpt lat="46.37275" lon="-0.34744">
        <ele>30.7846</ele>
        <time>2011-06-02T15:07:02Z</time>
      </trkpt>
      <trkpt lat="46.37275" lon="-0.34746">
        <ele>30.6821</ele>
        <time>2011-06-02T15:07:03Z</time>
      </trkpt>
      <trkpt lat="46.37275" lon="-0.34747">
        <ele>30.5835</ele>
        <time>2011-06-02T15:07:04Z</time>
      </trkpt>
      <trkpt lat="46.37275" lon="-0.34748">
        <ele>30.487</ele>
        <time>2011-06-02T15:07:05Z</time>
      </trkpt>
      <trkpt lat="46.37275" lon="-0.34749">
        <ele>30.3934</ele>
        <time>2011-06-02T15:07:06Z</time>
      </trkpt>
      <trkpt lat="46.37275" lon="-0.3475">
        <ele>30.3211</ele>
        <time>2011-06-02T15:07:07Z</time>
      </trkpt>
      <trkpt lat="46.37275" lon="-0.34751">
        <ele>30.2559</ele>
        <time>2011-06-02T15:07:08Z</time>
      </trkpt>
      <trkpt lat="46.37275" lon="-0.34753">
        <ele>30.199</ele>
        <time>2011-06-02T15:07:09Z</time>
      </trkpt>
      <trkpt lat="46.37275" lon="-0.34754">
        <ele>30.1477</ele>
        <time>2011-06-02T15:07:10Z</time>
      </trkpt>
      <trkpt lat="46.37275" lon="-0.34756">
        <ele>30.0982</ele>
        <time>2011-06-02T15:07:11Z</time>
      </trkpt>
      <trkpt lat="46.37275" lon="-0.34757">
        <ele>30.0561</ele>
        <time>2011-06-02T15:07:12Z</time>
      </trkpt>
      <trkpt lat="46.37274" lon="-0.34762">
        <ele>29.9257</ele>
        <time>2011-06-02T15:07:16Z</time>
      </trkpt>
      <trkpt lat="46.37275" lon="-0.34763">
        <ele>29.8927</ele>
        <time>2011-06-02T15:07:17Z</time>
      </trkpt>
      <trkpt lat="46.37275" lon="-0.34765">
        <ele>29.8651</ele>
        <time>2011-06-02T15:07:18Z</time>
      </trkpt>
      <trkpt lat="46.37275" lon="-0.34766">
        <ele>29.8477</ele>
        <time>2011-06-02T15:07:19Z</time>
      </trkpt>
      <trkpt lat="46.37275" lon="-0.34768">
        <ele>29.8327</ele>
        <time>2011-06-02T15:07:20Z</time>
      </trkpt>
      <trkpt lat="46.37276" lon="-0.34769">
        <ele>29.8352</ele>
        <time>2011-06-02T15:07:21Z</time>
      </trkpt>
      <trkpt lat="46.37276" lon="-0.3477">
        <ele>29.8379</ele>
        <time>2011-06-02T15:07:22Z</time>
      </trkpt>
      <trkpt lat="46.37276" lon="-0.34772">
        <ele>29.8478</ele>
        <time>2011-06-02T15:07:23Z</time>
      </trkpt>
      <trkpt lat="46.37276" lon="-0.34773">
        <ele>29.8591</ele>
        <time>2011-06-02T15:07:24Z</time>
      </trkpt>
      <trkpt lat="46.37276" lon="-0.34774">
        <ele>29.8708</ele>
        <time>2011-06-02T15:07:25Z</time>
      </trkpt>
      <trkpt lat="46.37277" lon="-0.34776">
        <ele>29.8775</ele>
        <time>2011-06-02T15:07:26Z</time>
      </trkpt>
      <trkpt lat="46.37276" lon="-0.34777">
        <ele>29.8773</ele>
        <time>2011-06-02T15:07:27Z</time>
      </trkpt>
      <trkpt lat="46.37276" lon="-0.34779">
        <ele>29.8779</ele>
        <time>2011-06-02T15:07:28Z</time>
      </trkpt>
      <trkpt lat="46.37277" lon="-0.34781">
        <ele>29.876</ele>
        <time>2011-06-02T15:07:29Z</time>
      </trkpt>
      <trkpt lat="46.37276" lon="-0.34782">
        <ele>29.8703</ele>
        <time>2011-06-02T15:07:30Z</time>
      </trkpt>
      <trkpt lat="46.37276" lon="-0.34784">
        <ele>29.8662</ele>
        <time>2011-06-02T15:07:31Z</time>
      </trkpt>
      <trkpt lat="46.37276" lon="-0.34785">
        <ele>29.8623</ele>
        <time>2011-06-02T15:07:32Z</time>
      </trkpt>
      <trkpt lat="46.37276" lon="-0.34787">
        <ele>29.8677</ele>
        <time>2011-06-02T15:07:33Z</time>
      </trkpt>
      <trkpt lat="46.37276" lon="-0.34789">
        <ele>29.8767</ele>
        <time>2011-06-02T15:07:34Z</time>
      </trkpt>
      <trkpt lat="46.37276" lon="-0.3479">
        <ele>29.8885</ele>
        <time>2011-06-02T15:07:35Z</time>
      </trkpt>
      <trkpt lat="46.37275" lon="-0.34792">
        <ele>29.9024</ele>
        <time>2011-06-02T15:07:36Z</time>
      </trkpt>
      <trkpt lat="46.37275" lon="-0.34794">
        <ele>29.9166</ele>
        <time>2011-06-02T15:07:37Z</time>
      </trkpt>
      <trkpt lat="46.37275" lon="-0.34795">
        <ele>29.9227</ele>
        <time>2011-06-02T15:07:38Z</time>
      </trkpt>
      <trkpt lat="46.37275" lon="-0.34797">
        <ele>29.9239</ele>
        <time>2011-06-02T15:07:39Z</time>
      </trkpt>
      <trkpt lat="46.37275" lon="-0.34799">
        <ele>29.9279</ele>
        <time>2011-06-02T15:07:40Z</time>
      </trkpt>
      <trkpt lat="46.37275" lon="-0.348">
        <ele>29.9324</ele>
        <time>2011-06-02T15:07:41Z</time>
      </trkpt>
      <trkpt lat="46.37275" lon="-0.34801">
        <ele>29.9387</ele>
        <time>2011-06-02T15:07:42Z</time>
      </trkpt>
      <trkpt lat="46.37275" lon="-0.34803">
        <ele>29.9455</ele>
        <time>2011-06-02T15:07:43Z</time>
      </trkpt>
      <trkpt lat="46.37274" lon="-0.34805">
        <ele>29.9578</ele>
        <time>2011-06-02T15:07:44Z</time>
      </trkpt>
      <trkpt lat="46.37274" lon="-0.34806">
        <ele>29.9844</ele>
        <time>2011-06-02T15:07:45Z</time>
      </trkpt>
      <trkpt lat="46.37274" lon="-0.34808">
        <ele>30.0191</ele>
        <time>2011-06-02T15:07:46Z</time>
      </trkpt>
      <trkpt lat="46.37273" lon="-0.3481">
        <ele>30.0529</ele>
        <time>2011-06-02T15:07:47Z</time>
      </trkpt>
      <trkpt lat="46.37273" lon="-0.34813">
        <ele>30.1712</ele>
        <time>2011-06-02T15:07:50Z</time>
      </trkpt>
      <trkpt lat="46.37272" lon="-0.34815">
        <ele>30.2379</ele>
        <time>2011-06-02T15:07:51Z</time>
      </trkpt>
      <trkpt lat="46.37272" lon="-0.34816">
        <ele>30.305</ele>
        <time>2011-06-02T15:07:52Z</time>
      </trkpt>
      <trkpt lat="46.37272" lon="-0.34818">
        <ele>30.3761</ele>
        <time>2011-06-02T15:07:53Z</time>
      </trkpt>
      <trkpt lat="46.37272" lon="-0.34819">
        <ele>30.4507</ele>
        <time>2011-06-02T15:07:54Z</time>
      </trkpt>
      <trkpt lat="46.37272" lon="-0.3482">
        <ele>30.5257</ele>
        <time>2011-06-02T15:07:55Z</time>
      </trkpt>
      <trkpt lat="46.37272" lon="-0.34822">
        <ele>30.6002</ele>
        <time>2011-06-02T15:07:56Z</time>
      </trkpt>
      <trkpt lat="46.37271" lon="-0.34823">
        <ele>30.679</ele>
        <time>2011-06-02T15:07:57Z</time>
      </trkpt>
      <trkpt lat="46.37271" lon="-0.34824">
        <ele>30.7582</ele>
        <time>2011-06-02T15:07:58Z</time>
      </trkpt>
      <trkpt lat="46.3727" lon="-0.34826">
        <ele>30.8382</ele>
        <time>2011-06-02T15:07:59Z</time>
      </trkpt>
      <trkpt lat="46.3727" lon="-0.34827">
        <ele>30.9169</ele>
        <time>2011-06-02T15:08:00Z</time>
      </trkpt>
      <trkpt lat="46.3727" lon="-0.34828">
        <ele>30.9949</ele>
        <time>2011-06-02T15:08:01Z</time>
      </trkpt>
      <trkpt lat="46.37269" lon="-0.3483">
        <ele>31.0712</ele>
        <time>2011-06-02T15:08:02Z</time>
      </trkpt>
      <trkpt lat="46.37269" lon="-0.34831">
        <ele>31.1527</ele>
        <time>2011-06-02T15:08:03Z</time>
      </trkpt>
      <trkpt lat="46.37269" lon="-0.34832">
        <ele>31.2382</ele>
        <time>2011-06-02T15:08:04Z</time>
      </trkpt>
      <trkpt lat="46.37268" lon="-0.34833">
        <ele>31.3268</ele>
        <time>2011-06-02T15:08:05Z</time>
      </trkpt>
      <trkpt lat="46.37268" lon="-0.34835">
        <ele>31.4154</ele>
        <time>2011-06-02T15:08:06Z</time>
      </trkpt>
      <trkpt lat="46.37268" lon="-0.34836">
        <ele>31.5056</ele>
        <time>2011-06-02T15:08:07Z</time>
      </trkpt>
      <trkpt lat="46.37268" lon="-0.34837">
        <ele>31.5978</ele>
        <time>2011-06-02T15:08:08Z</time>
      </trkpt>
      <trkpt lat="46.37267" lon="-0.34838">
        <ele>31.6908</ele>
        <time>2011-06-02T15:08:09Z</time>
      </trkpt>
      <trkpt lat="46.37267" lon="-0.3484">
        <ele>31.7853</ele>
        <time>2011-06-02T15:08:10Z</time>
      </trkpt>
      <trkpt lat="46.37266" lon="-0.34841">
        <ele>31.878</ele>
        <time>2011-06-02T15:08:11Z</time>
      </trkpt>
      <trkpt lat="46.37266" lon="-0.34843">
        <ele>31.9768</ele>
        <time>2011-06-02T15:08:12Z</time>
      </trkpt>
      <trkpt lat="46.37265" lon="-0.34844">
        <ele>32.0826</ele>
        <time>2011-06-02T15:08:13Z</time>
      </trkpt>
      <trkpt lat="46.37265" lon="-0.34846">
        <ele>32.1947</ele>
        <time>2011-06-02T15:08:14Z</time>
      </trkpt>
      <trkpt lat="46.37265" lon="-0.34847">
        <ele>32.3112</ele>
        <time>2011-06-02T15:08:15Z</time>
      </trkpt>
      <trkpt lat="46.37264" lon="-0.34849">
        <ele>32.4272</ele>
        <time>2011-06-02T15:08:16Z</time>
      </trkpt>
      <trkpt lat="46.37264" lon="-0.3485">
        <ele>32.5523</ele>
        <time>2011-06-02T15:08:17Z</time>
      </trkpt>
      <trkpt lat="46.37264" lon="-0.34852">
        <ele>32.6921</ele>
        <time>2011-06-02T15:08:18Z</time>
      </trkpt>
      <trkpt lat="46.37263" lon="-0.34854">
        <ele>32.8356</ele>
        <time>2011-06-02T15:08:19Z</time>
      </trkpt>
      <trkpt lat="46.37262" lon="-0.34855">
        <ele>32.9848</ele>
        <time>2011-06-02T15:08:20Z</time>
      </trkpt>
      <trkpt lat="46.37262" lon="-0.34857">
        <ele>33.1389</ele>
        <time>2011-06-02T15:08:21Z</time>
      </trkpt>
      <trkpt lat="46.37261" lon="-0.34859">
        <ele>33.298</ele>
        <time>2011-06-02T15:08:22Z</time>
      </trkpt>
      <trkpt lat="46.37261" lon="-0.34861">
        <ele>33.4613</ele>
        <time>2011-06-02T15:08:23Z</time>
      </trkpt>
      <trkpt lat="46.37261" lon="-0.34862">
        <ele>33.6281</ele>
        <time>2011-06-02T15:08:24Z</time>
      </trkpt>
      <trkpt lat="46.37261" lon="-0.34864">
        <ele>33.7987</ele>
        <time>2011-06-02T15:08:25Z</time>
      </trkpt>
      <trkpt lat="46.3726" lon="-0.34866">
        <ele>33.9716</ele>
        <time>2011-06-02T15:08:26Z</time>
      </trkpt>
      <trkpt lat="46.3726" lon="-0.34867">
        <ele>34.1462</ele>
        <time>2011-06-02T15:08:27Z</time>
      </trkpt>
      <trkpt lat="46.3726" lon="-0.34868">
        <ele>34.3226</ele>
        <time>2011-06-02T15:08:28Z</time>
      </trkpt>
      <trkpt lat="46.37259" lon="-0.3487">
        <ele>34.5014</ele>
        <time>2011-06-02T15:08:29Z</time>
      </trkpt>
      <trkpt lat="46.37259" lon="-0.34871">
        <ele>34.6807</ele>
        <time>2011-06-02T15:08:30Z</time>
      </trkpt>
      <trkpt lat="46.37258" lon="-0.34872">
        <ele>34.8624</ele>
        <time>2011-06-02T15:08:31Z</time>
      </trkpt>
      <trkpt lat="46.37257" lon="-0.34873">
        <ele>35.0425</ele>
        <time>2011-06-02T15:08:32Z</time>
      </trkpt>
      <trkpt lat="46.37257" lon="-0.34874">
        <ele>35.2224</ele>
        <time>2011-06-02T15:08:33Z</time>
      </trkpt>
      <trkpt lat="46.37256" lon="-0.34875">
        <ele>35.4016</ele>
        <time>2011-06-02T15:08:34Z</time>
      </trkpt>
      <trkpt lat="46.37256" lon="-0.34876">
        <ele>35.5828</ele>
        <time>2011-06-02T15:08:35Z</time>
      </trkpt>
      <trkpt lat="46.37255" lon="-0.34877">
        <ele>35.7681</ele>
        <time>2011-06-02T15:08:36Z</time>
      </trkpt>
      <trkpt lat="46.37255" lon="-0.34879">
        <ele>35.9538</ele>
        <time>2011-06-02T15:08:37Z</time>
      </trkpt>
      <trkpt lat="46.37254" lon="-0.3488">
        <ele>36.1398</ele>
        <time>2011-06-02T15:08:38Z</time>
      </trkpt>
      <trkpt lat="46.37254" lon="-0.34881">
        <ele>36.3259</ele>
        <time>2011-06-02T15:08:39Z</time>
      </trkpt>
      <trkpt lat="46.37253" lon="-0.34882">
        <ele>36.5108</ele>
        <time>2011-06-02T15:08:40Z</time>
      </trkpt>
      <trkpt lat="46.37253" lon="-0.34883">
        <ele>36.6939</ele>
        <time>2011-06-02T15:08:41Z</time>
      </trkpt>
      <trkpt lat="46.37252" lon="-0.34885">
        <ele>36.874</ele>
        <time>2011-06-02T15:08:42Z</time>
      </trkpt>
      <trkpt lat="46.37251" lon="-0.34886">
        <ele>37.0527</ele>
        <time>2011-06-02T15:08:43Z</time>
      </trkpt>
      <trkpt lat="46.37251" lon="-0.34887">
        <ele>37.2308</ele>
        <time>2011-06-02T15:08:44Z</time>
      </trkpt>
      <trkpt lat="46.3725" lon="-0.34888">
        <ele>37.4097</ele>
        <time>2011-06-02T15:08:45Z</time>
      </trkpt>
      <trkpt lat="46.37249" lon="-0.3489">
        <ele>37.5893</ele>
        <time>2011-06-02T15:08:46Z</time>
      </trkpt>
      <trkpt lat="46.37249" lon="-0.34892">
        <ele>37.7692</ele>
        <time>2011-06-02T15:08:47Z</time>
      </trkpt>
      <trkpt lat="46.37248" lon="-0.34894">
        <ele>37.9492</ele>
        <time>2011-06-02T15:08:48Z</time>
      </trkpt>
      <trkpt lat="46.37248" lon="-0.34895">
        <ele>38.13</ele>
        <time>2011-06-02T15:08:49Z</time>
      </trkpt>
      <trkpt lat="46.37247" lon="-0.34897">
        <ele>38.3112</ele>
        <time>2011-06-02T15:08:50Z</time>
      </trkpt>
      <trkpt lat="46.37246" lon="-0.34898">
        <ele>38.4933</ele>
        <time>2011-06-02T15:08:51Z</time>
      </trkpt>
      <trkpt lat="46.37246" lon="-0.34899">
        <ele>38.6727</ele>
        <time>2011-06-02T15:08:52Z</time>
      </trkpt>
      <trkpt lat="46.37246" lon="-0.34901">
        <ele>38.8505</ele>
        <time>2011-06-02T15:08:53Z</time>
      </trkpt>
      <trkpt lat="46.37245" lon="-0.34902">
        <ele>39.0299</ele>
        <time>2011-06-02T15:08:54Z</time>
      </trkpt>
      <trkpt lat="46.37245" lon="-0.34904">
        <ele>39.209</ele>
        <time>2011-06-02T15:08:55Z</time>
      </trkpt>
      <trkpt lat="46.37245" lon="-0.34906">
        <ele>39.3863</ele>
        <time>2011-06-02T15:08:56Z</time>
      </trkpt>
      <trkpt lat="46.37245" lon="-0.34907">
        <ele>39.5623</ele>
        <time>2011-06-02T15:08:57Z</time>
      </trkpt>
      <trkpt lat="46.37244" lon="-0.34909">
        <ele>39.7363</ele>
        <time>2011-06-02T15:08:58Z</time>
      </trkpt>
      <trkpt lat="46.37244" lon="-0.3491">
        <ele>39.909</ele>
        <time>2011-06-02T15:08:59Z</time>
      </trkpt>
      <trkpt lat="46.37244" lon="-0.34912">
        <ele>40.0803</ele>
        <time>2011-06-02T15:09:00Z</time>
      </trkpt>
      <trkpt lat="46.37244" lon="-0.34913">
        <ele>40.2484</ele>
        <time>2011-06-02T15:09:01Z</time>
      </trkpt>
      <trkpt lat="46.37243" lon="-0.34914">
        <ele>40.4125</ele>
        <time>2011-06-02T15:09:02Z</time>
      </trkpt>
      <trkpt lat="46.37243" lon="-0.34916">
        <ele>40.5733</ele>
        <time>2011-06-02T15:09:03Z</time>
      </trkpt>
      <trkpt lat="46.37243" lon="-0.34917">
        <ele>40.7322</ele>
        <time>2011-06-02T15:09:04Z</time>
      </trkpt>
      <trkpt lat="46.37242" lon="-0.34919">
        <ele>40.8862</ele>
        <time>2011-06-02T15:09:05Z</time>
      </trkpt>
      <trkpt lat="46.37242" lon="-0.3492">
        <ele>41.037</ele>
        <time>2011-06-02T15:09:06Z</time>
      </trkpt>
      <trkpt lat="46.37241" lon="-0.34921">
        <ele>41.1844</ele>
        <time>2011-06-02T15:09:07Z</time>
      </trkpt>
      <trkpt lat="46.37241" lon="-0.34923">
        <ele>41.328</ele>
        <time>2011-06-02T15:09:08Z</time>
      </trkpt>
      <trkpt lat="46.37241" lon="-0.34924">
        <ele>41.4663</ele>
        <time>2011-06-02T15:09:09Z</time>
      </trkpt>
      <trkpt lat="46.3724" lon="-0.34925">
        <ele>41.6009</ele>
        <time>2011-06-02T15:09:10Z</time>
      </trkpt>
      <trkpt lat="46.3724" lon="-0.34926">
        <ele>41.7311</ele>
        <time>2011-06-02T15:09:11Z</time>
      </trkpt>
      <trkpt lat="46.37239" lon="-0.34927">
        <ele>41.8586</ele>
        <time>2011-06-02T15:09:12Z</time>
      </trkpt>
      <trkpt lat="46.37238" lon="-0.34928">
        <ele>41.9838</ele>
        <time>2011-06-02T15:09:13Z</time>
      </trkpt>
      <trkpt lat="46.37238" lon="-0.34929">
        <ele>42.1034</ele>
        <time>2011-06-02T15:09:14Z</time>
      </trkpt>
      <trkpt lat="46.37238" lon="-0.34931">
        <ele>42.2209</ele>
        <time>2011-06-02T15:09:15Z</time>
      </trkpt>
      <trkpt lat="46.37238" lon="-0.34933">
        <ele>42.3369</ele>
        <time>2011-06-02T15:09:16Z</time>
      </trkpt>
      <trkpt lat="46.37237" lon="-0.34934">
        <ele>42.4503</ele>
        <time>2011-06-02T15:09:17Z</time>
      </trkpt>
      <trkpt lat="46.37236" lon="-0.34935">
        <ele>42.5616</ele>
        <time>2011-06-02T15:09:18Z</time>
      </trkpt>
      <trkpt lat="46.37236" lon="-0.34937">
        <ele>42.6702</ele>
        <time>2011-06-02T15:09:19Z</time>
      </trkpt>
      <trkpt lat="46.37235" lon="-0.34938">
        <ele>42.7767</ele>
        <time>2011-06-02T15:09:20Z</time>
      </trkpt>
      <trkpt lat="46.37235" lon="-0.34939">
        <ele>42.8827</ele>
        <time>2011-06-02T15:09:21Z</time>
      </trkpt>
      <trkpt lat="46.37235" lon="-0.3494">
        <ele>42.986</ele>
        <time>2011-06-02T15:09:22Z</time>
      </trkpt>
      <trkpt lat="46.37234" lon="-0.34941">
        <ele>43.0872</ele>
        <time>2011-06-02T15:09:23Z</time>
      </trkpt>
      <trkpt lat="46.37233" lon="-0.34943">
        <ele>43.1867</ele>
        <time>2011-06-02T15:09:24Z</time>
      </trkpt>
      <trkpt lat="46.37233" lon="-0.34944">
        <ele>43.2857</ele>
        <time>2011-06-02T15:09:25Z</time>
      </trkpt>
      <trkpt lat="46.37233" lon="-0.34946">
        <ele>43.3813</ele>
        <time>2011-06-02T15:09:26Z</time>
      </trkpt>
      <trkpt lat="46.37233" lon="-0.34947">
        <ele>43.4753</ele>
        <time>2011-06-02T15:09:27Z</time>
      </trkpt>
      <trkpt lat="46.37232" lon="-0.34949">
        <ele>43.5664</ele>
        <time>2011-06-02T15:09:28Z</time>
      </trkpt>
      <trkpt lat="46.37232" lon="-0.3495">
        <ele>43.6558</ele>
        <time>2011-06-02T15:09:29Z</time>
      </trkpt>
      <trkpt lat="46.37232" lon="-0.34951">
        <ele>43.7438</ele>
        <time>2011-06-02T15:09:30Z</time>
      </trkpt>
      <trkpt lat="46.37231" lon="-0.34952">
        <ele>43.8298</ele>
        <time>2011-06-02T15:09:31Z</time>
      </trkpt>
      <trkpt lat="46.37231" lon="-0.34953">
        <ele>43.9124</ele>
        <time>2011-06-02T15:09:32Z</time>
      </trkpt>
      <trkpt lat="46.3723" lon="-0.34955">
        <ele>43.9942</ele>
        <time>2011-06-02T15:09:33Z</time>
      </trkpt>
      <trkpt lat="46.3723" lon="-0.34956">
        <ele>44.0744</ele>
        <time>2011-06-02T15:09:34Z</time>
      </trkpt>
      <trkpt lat="46.3723" lon="-0.34957">
        <ele>44.1528</ele>
        <time>2011-06-02T15:09:35Z</time>
      </trkpt>
      <trkpt lat="46.37229" lon="-0.34959">
        <ele>44.2309</ele>
        <time>2011-06-02T15:09:36Z</time>
      </trkpt>
      <trkpt lat="46.37229" lon="-0.3496">
        <ele>44.3084</ele>
        <time>2011-06-02T15:09:37Z</time>
      </trkpt>
      <trkpt lat="46.37229" lon="-0.34962">
        <ele>44.3872</ele>
        <time>2011-06-02T15:09:38Z</time>
      </trkpt>
      <trkpt lat="46.37229" lon="-0.34964">
        <ele>44.4653</ele>
        <time>2011-06-02T15:09:39Z</time>
      </trkpt>
      <trkpt lat="46.37228" lon="-0.34966">
        <ele>44.5429</ele>
        <time>2011-06-02T15:09:40Z</time>
      </trkpt>
      <trkpt lat="46.37228" lon="-0.34968">
        <ele>44.6211</ele>
        <time>2011-06-02T15:09:41Z</time>
      </trkpt>
      <trkpt lat="46.37228" lon="-0.34971">
        <ele>44.6997</ele>
        <time>2011-06-02T15:09:42Z</time>
      </trkpt>
      <trkpt lat="46.37227" lon="-0.34972">
        <ele>44.7787</ele>
        <time>2011-06-02T15:09:43Z</time>
      </trkpt>
      <trkpt lat="46.37227" lon="-0.34973">
        <ele>44.8558</ele>
        <time>2011-06-02T15:09:44Z</time>
      </trkpt>
      <trkpt lat="46.37226" lon="-0.34974">
        <ele>44.9368</ele>
        <time>2011-06-02T15:09:45Z</time>
      </trkpt>
      <trkpt lat="46.37225" lon="-0.34975">
        <ele>45.0165</ele>
        <time>2011-06-02T15:09:46Z</time>
      </trkpt>
      <trkpt lat="46.37224" lon="-0.34976">
        <ele>45.0956</ele>
        <time>2011-06-02T15:09:47Z</time>
      </trkpt>
      <trkpt lat="46.37223" lon="-0.34977">
        <ele>45.1729</ele>
        <time>2011-06-02T15:09:48Z</time>
      </trkpt>
      <trkpt lat="46.37223" lon="-0.34978">
        <ele>45.2502</ele>
        <time>2011-06-02T15:09:49Z</time>
      </trkpt>
      <trkpt lat="46.37222" lon="-0.34978">
        <ele>45.3267</ele>
        <time>2011-06-02T15:09:50Z</time>
      </trkpt>
      <trkpt lat="46.37222" lon="-0.34979">
        <ele>45.4036</ele>
        <time>2011-06-02T15:09:51Z</time>
      </trkpt>
      <trkpt lat="46.37221" lon="-0.3498">
        <ele>45.4802</ele>
        <time>2011-06-02T15:09:52Z</time>
      </trkpt>
      <trkpt lat="46.37221" lon="-0.34981">
        <ele>45.5534</ele>
        <time>2011-06-02T15:09:53Z</time>
      </trkpt>
      <trkpt lat="46.3722" lon="-0.34982">
        <ele>45.6423</ele>
        <time>2011-06-02T15:09:56Z</time>
      </trkpt>
      <trkpt lat="46.37221" lon="-0.34983">
        <ele>45.711</ele>
        <time>2011-06-02T15:09:57Z</time>
      </trkpt>
      <trkpt lat="46.37221" lon="-0.34983">
        <ele>45.782</ele>
        <time>2011-06-02T15:09:58Z</time>
      </trkpt>
      <trkpt lat="46.37227" lon="-0.34984">
        <ele>45.8432</ele>
        <time>2011-06-02T15:10:05Z</time>
      </trkpt>
      <trkpt lat="46.37227" lon="-0.34984">
        <ele>45.928</ele>
        <time>2011-06-02T15:10:07Z</time>
      </trkpt>
      <trkpt lat="46.37227" lon="-0.34985">
        <ele>45.9966</ele>
        <time>2011-06-02T15:10:08Z</time>
      </trkpt>
      <trkpt lat="46.37227" lon="-0.34986">
        <ele>46.0586</ele>
        <time>2011-06-02T15:10:09Z</time>
      </trkpt>
      <trkpt lat="46.37227" lon="-0.34987">
        <ele>46.1181</ele>
        <time>2011-06-02T15:10:10Z</time>
      </trkpt>
      <trkpt lat="46.37226" lon="-0.34988">
        <ele>46.1753</ele>
        <time>2011-06-02T15:10:11Z</time>
      </trkpt>
      <trkpt lat="46.37226" lon="-0.34989">
        <ele>46.2298</ele>
        <time>2011-06-02T15:10:12Z</time>
      </trkpt>
      <trkpt lat="46.37225" lon="-0.3499">
        <ele>46.2839</ele>
        <time>2011-06-02T15:10:13Z</time>
      </trkpt>
      <trkpt lat="46.37225" lon="-0.34991">
        <ele>46.3361</ele>
        <time>2011-06-02T15:10:14Z</time>
      </trkpt>
      <trkpt lat="46.37224" lon="-0.34993">
        <ele>46.3869</ele>
        <time>2011-06-02T15:10:15Z</time>
      </trkpt>
      <trkpt lat="46.37223" lon="-0.34995">
        <ele>46.4355</ele>
        <time>2011-06-02T15:10:16Z</time>
      </trkpt>
      <trkpt lat="46.37222" lon="-0.34996">
        <ele>46.4812</ele>
        <time>2011-06-02T15:10:17Z</time>
      </trkpt>
      <trkpt lat="46.37222" lon="-0.34998">
        <ele>46.5263</ele>
        <time>2011-06-02T15:10:18Z</time>
      </trkpt>
      <trkpt lat="46.37221" lon="-0.34999">
        <ele>46.5708</ele>
        <time>2011-06-02T15:10:19Z</time>
      </trkpt>
      <trkpt lat="46.37221" lon="-0.35001">
        <ele>46.6155</ele>
        <time>2011-06-02T15:10:20Z</time>
      </trkpt>
      <trkpt lat="46.3722" lon="-0.35002">
        <ele>46.6597</ele>
        <time>2011-06-02T15:10:21Z</time>
      </trkpt>
      <trkpt lat="46.3722" lon="-0.35005">
        <ele>46.7056</ele>
        <time>2011-06-02T15:10:22Z</time>
      </trkpt>
      <trkpt lat="46.37219" lon="-0.35006">
        <ele>46.7512</ele>
        <time>2011-06-02T15:10:23Z</time>
      </trkpt>
      <trkpt lat="46.37219" lon="-0.35008">
        <ele>46.796</ele>
        <time>2011-06-02T15:10:24Z</time>
      </trkpt>
      <trkpt lat="46.37218" lon="-0.3501">
        <ele>46.8428</ele>
        <time>2011-06-02T15:10:25Z</time>
      </trkpt>
      <trkpt lat="46.37217" lon="-0.35012">
        <ele>46.8903</ele>
        <time>2011-06-02T15:10:26Z</time>
      </trkpt>
      <trkpt lat="46.37217" lon="-0.35014">
        <ele>46.939</ele>
        <time>2011-06-02T15:10:27Z</time>
      </trkpt>
      <trkpt lat="46.37216" lon="-0.35016">
        <ele>46.9873</ele>
        <time>2011-06-02T15:10:28Z</time>
      </trkpt>
      <trkpt lat="46.37216" lon="-0.35017">
        <ele>47.0358</ele>
        <time>2011-06-02T15:10:29Z</time>
      </trkpt>
      <trkpt lat="46.37215" lon="-0.35019">
        <ele>47.0837</ele>
        <time>2011-06-02T15:10:30Z</time>
      </trkpt>
      <trkpt lat="46.37215" lon="-0.3502">
        <ele>47.1319</ele>
        <time>2011-06-02T15:10:31Z</time>
      </trkpt>
      <trkpt lat="46.37214" lon="-0.35021">
        <ele>47.1805</ele>
        <time>2011-06-02T15:10:32Z</time>
      </trkpt>
      <trkpt lat="46.37214" lon="-0.35022">
        <ele>47.2286</ele>
        <time>2011-06-02T15:10:33Z</time>
      </trkpt>
      <trkpt lat="46.37213" lon="-0.35022">
        <ele>47.2738</ele>
        <time>2011-06-02T15:10:34Z</time>
      </trkpt>
      <trkpt lat="46.37213" lon="-0.35023">
        <ele>47.3154</ele>
        <time>2011-06-02T15:10:35Z</time>
      </trkpt>
      <trkpt lat="46.37212" lon="-0.35024">
        <ele>47.3561</ele>
        <time>2011-06-02T15:10:36Z</time>
      </trkpt>
      <trkpt lat="46.37212" lon="-0.35026">
        <ele>47.3957</ele>
        <time>2011-06-02T15:10:37Z</time>
      </trkpt>
      <trkpt lat="46.37211" lon="-0.35028">
        <ele>47.4356</ele>
        <time>2011-06-02T15:10:38Z</time>
      </trkpt>
      <trkpt lat="46.37211" lon="-0.3503">
        <ele>47.4754</ele>
        <time>2011-06-02T15:10:39Z</time>
      </trkpt>
      <trkpt lat="46.3721" lon="-0.35031">
        <ele>47.5177</ele>
        <time>2011-06-02T15:10:40Z</time>
      </trkpt>
      <trkpt lat="46.37209" lon="-0.35033">
        <ele>47.5619</ele>
        <time>2011-06-02T15:10:41Z</time>
      </trkpt>
      <trkpt lat="46.37209" lon="-0.35035">
        <ele>47.6071</ele>
        <time>2011-06-02T15:10:42Z</time>
      </trkpt>
      <trkpt lat="46.37209" lon="-0.35036">
        <ele>47.6516</ele>
        <time>2011-06-02T15:10:43Z</time>
      </trkpt>
      <trkpt lat="46.37209" lon="-0.35038">
        <ele>47.696</ele>
        <time>2011-06-02T15:10:44Z</time>
      </trkpt>
      <trkpt lat="46.37208" lon="-0.35038">
        <ele>47.7416</ele>
        <time>2011-06-02T15:10:45Z</time>
      </trkpt>
      <trkpt lat="46.37207" lon="-0.35039">
        <ele>47.7874</ele>
        <time>2011-06-02T15:10:46Z</time>
      </trkpt>
      <trkpt lat="46.37207" lon="-0.3504">
        <ele>47.8401</ele>
        <time>2011-06-02T15:10:47Z</time>
      </trkpt>
      <trkpt lat="46.37207" lon="-0.35041">
        <ele>47.8875</ele>
        <time>2011-06-02T15:10:48Z</time>
      </trkpt>
      <trkpt lat="46.37208" lon="-0.35041">
        <ele>47.9301</ele>
        <time>2011-06-02T15:10:49Z</time>
      </trkpt>
      <trkpt lat="46.37208" lon="-0.35043">
        <ele>47.9694</ele>
        <time>2011-06-02T15:10:50Z</time>
      </trkpt>
      <trkpt lat="46.37207" lon="-0.35044">
        <ele>48.0065</ele>
        <time>2011-06-02T15:10:51Z</time>
      </trkpt>
      <trkpt lat="46.37207" lon="-0.35045">
        <ele>48.0421</ele>
        <time>2011-06-02T15:10:52Z</time>
      </trkpt>
      <trkpt lat="46.37207" lon="-0.35047">
        <ele>48.0754</ele>
        <time>2011-06-02T15:10:53Z</time>
      </trkpt>
      <trkpt lat="46.37207" lon="-0.35048">
        <ele>48.1108</ele>
        <time>2011-06-02T15:10:54Z</time>
      </trkpt>
      <trkpt lat="46.37206" lon="-0.3505">
        <ele>48.1431</ele>
        <time>2011-06-02T15:10:55Z</time>
      </trkpt>
      <trkpt lat="46.37206" lon="-0.35051">
        <ele>48.168</ele>
        <time>2011-06-02T15:10:56Z</time>
      </trkpt>
      <trkpt lat="46.37206" lon="-0.35053">
        <ele>48.1827</ele>
        <time>2011-06-02T15:10:57Z</time>
      </trkpt>
      <trkpt lat="46.37206" lon="-0.35054">
        <ele>48.1938</ele>
        <time>2011-06-02T15:10:58Z</time>
      </trkpt>
      <trkpt lat="46.37205" lon="-0.35055">
        <ele>48.2051</ele>
        <time>2011-06-02T15:10:59Z</time>
      </trkpt>
      <trkpt lat="46.37205" lon="-0.35056">
        <ele>48.1911</ele>
        <time>2011-06-02T15:11:00Z</time>
      </trkpt>
      <trkpt lat="46.37204" lon="-0.3506">
        <ele>48.0413</ele>
        <time>2011-06-02T15:11:05Z</time>
      </trkpt>
      <trkpt lat="46.37203" lon="-0.35061">
        <ele>47.9933</ele>
        <time>2011-06-02T15:11:06Z</time>
      </trkpt>
      <trkpt lat="46.37203" lon="-0.35063">
        <ele>47.951</ele>
        <time>2011-06-02T15:11:07Z</time>
      </trkpt>
      <trkpt lat="46.37202" lon="-0.35065">
        <ele>47.9108</ele>
        <time>2011-06-02T15:11:08Z</time>
      </trkpt>
      <trkpt lat="46.37201" lon="-0.35066">
        <ele>47.8769</ele>
        <time>2011-06-02T15:11:09Z</time>
      </trkpt>
      <trkpt lat="46.37201" lon="-0.35067">
        <ele>47.8411</ele>
        <time>2011-06-02T15:11:10Z</time>
      </trkpt>
      <trkpt lat="46.372" lon="-0.35069">
        <ele>47.8082</ele>
        <time>2011-06-02T15:11:11Z</time>
      </trkpt>
      <trkpt lat="46.37199" lon="-0.3507">
        <ele>47.7726</ele>
        <time>2011-06-02T15:11:12Z</time>
      </trkpt>
      <trkpt lat="46.37199" lon="-0.35072">
        <ele>47.7321</ele>
        <time>2011-06-02T15:11:13Z</time>
      </trkpt>
      <trkpt lat="46.37199" lon="-0.35073">
        <ele>47.6896</ele>
        <time>2011-06-02T15:11:14Z</time>
      </trkpt>
      <trkpt lat="46.37199" lon="-0.35075">
        <ele>47.6381</ele>
        <time>2011-06-02T15:11:15Z</time>
      </trkpt>
      <trkpt lat="46.37199" lon="-0.35076">
        <ele>47.5789</ele>
        <time>2011-06-02T15:11:16Z</time>
      </trkpt>
      <trkpt lat="46.37199" lon="-0.35078">
        <ele>47.5163</ele>
        <time>2011-06-02T15:11:17Z</time>
      </trkpt>
      <trkpt lat="46.37199" lon="-0.35079">
        <ele>47.4571</ele>
        <time>2011-06-02T15:11:18Z</time>
      </trkpt>
      <trkpt lat="46.37198" lon="-0.35081">
        <ele>47.4117</ele>
        <time>2011-06-02T15:11:19Z</time>
      </trkpt>
      <trkpt lat="46.37198" lon="-0.35083">
        <ele>47.3754</ele>
        <time>2011-06-02T15:11:20Z</time>
      </trkpt>
      <trkpt lat="46.37198" lon="-0.35084">
        <ele>47.3462</ele>
        <time>2011-06-02T15:11:21Z</time>
      </trkpt>
      <trkpt lat="46.37198" lon="-0.35086">
        <ele>47.3192</ele>
        <time>2011-06-02T15:11:22Z</time>
      </trkpt>
      <trkpt lat="46.37198" lon="-0.35087">
        <ele>47.2992</ele>
        <time>2011-06-02T15:11:23Z</time>
      </trkpt>
      <trkpt lat="46.37197" lon="-0.35087">
        <ele>47.2802</ele>
        <time>2011-06-02T15:11:24Z</time>
      </trkpt>
      <trkpt lat="46.37197" lon="-0.35087">
        <ele>47.2601</ele>
        <time>2011-06-02T15:11:25Z</time>
      </trkpt>
      <trkpt lat="46.37197" lon="-0.35087">
        <ele>47.2446</ele>
        <time>2011-06-02T15:11:26Z</time>
      </trkpt>
      <trkpt lat="46.37197" lon="-0.35088">
        <ele>47.2309</ele>
        <time>2011-06-02T15:11:27Z</time>
      </trkpt>
      <trkpt lat="46.37197" lon="-0.35089">
        <ele>47.22</ele>
        <time>2011-06-02T15:11:28Z</time>
      </trkpt>
      <trkpt lat="46.37197" lon="-0.3509">
        <ele>47.2091</ele>
        <time>2011-06-02T15:11:29Z</time>
      </trkpt>
      <trkpt lat="46.37197" lon="-0.35091">
        <ele>47.2113</ele>
        <time>2011-06-02T15:11:30Z</time>
      </trkpt>
      <trkpt lat="46.37197" lon="-0.35092">
        <ele>47.2133</ele>
        <time>2011-06-02T15:11:31Z</time>
      </trkpt>
      <trkpt lat="46.37197" lon="-0.35093">
        <ele>47.2224</ele>
        <time>2011-06-02T15:11:32Z</time>
      </trkpt>
      <trkpt lat="46.37197" lon="-0.35095">
        <ele>47.2353</ele>
        <time>2011-06-02T15:11:33Z</time>
      </trkpt>
      <trkpt lat="46.37196" lon="-0.35096">
        <ele>47.2513</ele>
        <time>2011-06-02T15:11:34Z</time>
      </trkpt>
      <trkpt lat="46.37196" lon="-0.35098">
        <ele>47.2646</ele>
        <time>2011-06-02T15:11:35Z</time>
      </trkpt>
      <trkpt lat="46.37196" lon="-0.35099">
        <ele>47.2826</ele>
        <time>2011-06-02T15:11:36Z</time>
      </trkpt>
      <trkpt lat="46.37195" lon="-0.351">
        <ele>47.2957</ele>
        <time>2011-06-02T15:11:37Z</time>
      </trkpt>
      <trkpt lat="46.37195" lon="-0.35102">
        <ele>47.3089</ele>
        <time>2011-06-02T15:11:38Z</time>
      </trkpt>
      <trkpt lat="46.37194" lon="-0.35104">
        <ele>47.3257</ele>
        <time>2011-06-02T15:11:39Z</time>
      </trkpt>
      <trkpt lat="46.37194" lon="-0.35105">
        <ele>47.3431</ele>
        <time>2011-06-02T15:11:40Z</time>
      </trkpt>
      <trkpt lat="46.37193" lon="-0.35108">
        <ele>47.3617</ele>
        <time>2011-06-02T15:11:41Z</time>
      </trkpt>
      <trkpt lat="46.37193" lon="-0.35109">
        <ele>47.3831</ele>
        <time>2011-06-02T15:11:42Z</time>
      </trkpt>
      <trkpt lat="46.37192" lon="-0.35111">
        <ele>47.4033</ele>
        <time>2011-06-02T15:11:43Z</time>
      </trkpt>
      <trkpt lat="46.37191" lon="-0.35113">
        <ele>47.4255</ele>
        <time>2011-06-02T15:11:44Z</time>
      </trkpt>
      <trkpt lat="46.37191" lon="-0.35115">
        <ele>47.4517</ele>
        <time>2011-06-02T15:11:45Z</time>
      </trkpt>
      <trkpt lat="46.37191" lon="-0.35117">
        <ele>47.4837</ele>
        <time>2011-06-02T15:11:46Z</time>
      </trkpt>
      <trkpt lat="46.3719" lon="-0.35119">
        <ele>47.5156</ele>
        <time>2011-06-02T15:11:47Z</time>
      </trkpt>
      <trkpt lat="46.3719" lon="-0.35121">
        <ele>47.5493</ele>
        <time>2011-06-02T15:11:48Z</time>
      </trkpt>
      <trkpt lat="46.3719" lon="-0.35123">
        <ele>47.5776</ele>
        <time>2011-06-02T15:11:49Z</time>
      </trkpt>
      <trkpt lat="46.37189" lon="-0.35125">
        <ele>47.6059</ele>
        <time>2011-06-02T15:11:50Z</time>
      </trkpt>
      <trkpt lat="46.37189" lon="-0.35126">
        <ele>47.6333</ele>
        <time>2011-06-02T15:11:51Z</time>
      </trkpt>
      <trkpt lat="46.37189" lon="-0.35128">
        <ele>47.6615</ele>
        <time>2011-06-02T15:11:52Z</time>
      </trkpt>
      <trkpt lat="46.37188" lon="-0.3513">
        <ele>47.6911</ele>
        <time>2011-06-02T15:11:53Z</time>
      </trkpt>
      <trkpt lat="46.37188" lon="-0.35131">
        <ele>47.7209</ele>
        <time>2011-06-02T15:11:54Z</time>
      </trkpt>
      <trkpt lat="46.37188" lon="-0.35133">
        <ele>47.7533</ele>
        <time>2011-06-02T15:11:55Z</time>
      </trkpt>
      <trkpt lat="46.37188" lon="-0.35135">
        <ele>47.7854</ele>
        <time>2011-06-02T15:11:56Z</time>
      </trkpt>
      <trkpt lat="46.37187" lon="-0.35136">
        <ele>47.8176</ele>
        <time>2011-06-02T15:11:57Z</time>
      </trkpt>
      <trkpt lat="46.37187" lon="-0.35138">
        <ele>47.8513</ele>
        <time>2011-06-02T15:11:58Z</time>
      </trkpt>
      <trkpt lat="46.37186" lon="-0.35139">
        <ele>47.8836</ele>
        <time>2011-06-02T15:11:59Z</time>
      </trkpt>
      <trkpt lat="46.37186" lon="-0.3514">
        <ele>47.9149</ele>
        <time>2011-06-02T15:12:00Z</time>
      </trkpt>
      <trkpt lat="46.37186" lon="-0.35142">
        <ele>47.9451</ele>
        <time>2011-06-02T15:12:01Z</time>
      </trkpt>
      <trkpt lat="46.37185" lon="-0.35143">
        <ele>47.9763</ele>
        <time>2011-06-02T15:12:02Z</time>
      </trkpt>
      <trkpt lat="46.37185" lon="-0.35144">
        <ele>48.0065</ele>
        <time>2011-06-02T15:12:03Z</time>
      </trkpt>
      <trkpt lat="46.37185" lon="-0.35145">
        <ele>48.0358</ele>
        <time>2011-06-02T15:12:04Z</time>
      </trkpt>
      <trkpt lat="46.37185" lon="-0.35146">
        <ele>48.0674</ele>
        <time>2011-06-02T15:12:05Z</time>
      </trkpt>
      <trkpt lat="46.37185" lon="-0.35147">
        <ele>48.0993</ele>
        <time>2011-06-02T15:12:06Z</time>
      </trkpt>
      <trkpt lat="46.37185" lon="-0.35148">
        <ele>48.1316</ele>
        <time>2011-06-02T15:12:07Z</time>
      </trkpt>
      <trkpt lat="46.37184" lon="-0.35149">
        <ele>48.1635</ele>
        <time>2011-06-02T15:12:08Z</time>
      </trkpt>
      <trkpt lat="46.37184" lon="-0.3515">
        <ele>48.1941</ele>
        <time>2011-06-02T15:12:09Z</time>
      </trkpt>
      <trkpt lat="46.37184" lon="-0.35151">
        <ele>48.2249</ele>
        <time>2011-06-02T15:12:10Z</time>
      </trkpt>
      <trkpt lat="46.37183" lon="-0.35153">
        <ele>48.2561</ele>
        <time>2011-06-02T15:12:11Z</time>
      </trkpt>
      <trkpt lat="46.37183" lon="-0.35154">
        <ele>48.2918</ele>
        <time>2011-06-02T15:12:12Z</time>
      </trkpt>
      <trkpt lat="46.37183" lon="-0.35155">
        <ele>48.3275</ele>
        <time>2011-06-02T15:12:13Z</time>
      </trkpt>
      <trkpt lat="46.37183" lon="-0.35157">
        <ele>48.3643</ele>
        <time>2011-06-02T15:12:14Z</time>
      </trkpt>
      <trkpt lat="46.37183" lon="-0.35158">
        <ele>48.3999</ele>
        <time>2011-06-02T15:12:15Z</time>
      </trkpt>
      <trkpt lat="46.37183" lon="-0.3516">
        <ele>48.4325</ele>
        <time>2011-06-02T15:12:16Z</time>
      </trkpt>
      <trkpt lat="46.37183" lon="-0.35161">
        <ele>48.4659</ele>
        <time>2011-06-02T15:12:17Z</time>
      </trkpt>
      <trkpt lat="46.37183" lon="-0.35161">
        <ele>48.5016</ele>
        <time>2011-06-02T15:12:18Z</time>
      </trkpt>
      <trkpt lat="46.37182" lon="-0.35163">
        <ele>48.5396</ele>
        <time>2011-06-02T15:12:19Z</time>
      </trkpt>
      <trkpt lat="46.37182" lon="-0.35164">
        <ele>48.5758</ele>
        <time>2011-06-02T15:12:20Z</time>
      </trkpt>
      <trkpt lat="46.37182" lon="-0.35165">
        <ele>48.6097</ele>
        <time>2011-06-02T15:12:21Z</time>
      </trkpt>
      <trkpt lat="46.37182" lon="-0.35166">
        <ele>48.6441</ele>
        <time>2011-06-02T15:12:22Z</time>
      </trkpt>
      <trkpt lat="46.37181" lon="-0.35168">
        <ele>48.6761</ele>
        <time>2011-06-02T15:12:23Z</time>
      </trkpt>
      <trkpt lat="46.3718" lon="-0.35169">
        <ele>48.7083</ele>
        <time>2011-06-02T15:12:24Z</time>
      </trkpt>
      <trkpt lat="46.3718" lon="-0.35171">
        <ele>48.7359</ele>
        <time>2011-06-02T15:12:25Z</time>
      </trkpt>
      <trkpt lat="46.3718" lon="-0.35172">
        <ele>48.7631</ele>
        <time>2011-06-02T15:12:26Z</time>
      </trkpt>
      <trkpt lat="46.37179" lon="-0.35174">
        <ele>48.7838</ele>
        <time>2011-06-02T15:12:27Z</time>
      </trkpt>
      <trkpt lat="46.37179" lon="-0.35176">
        <ele>48.8059</ele>
        <time>2011-06-02T15:12:28Z</time>
      </trkpt>
      <trkpt lat="46.37178" lon="-0.35177">
        <ele>48.8287</ele>
        <time>2011-06-02T15:12:29Z</time>
      </trkpt>
      <trkpt lat="46.37178" lon="-0.35179">
        <ele>48.8471</ele>
        <time>2011-06-02T15:12:30Z</time>
      </trkpt>
      <trkpt lat="46.37178" lon="-0.35181">
        <ele>48.8659</ele>
        <time>2011-06-02T15:12:31Z</time>
      </trkpt>
      <trkpt lat="46.37178" lon="-0.35183">
        <ele>48.8819</ele>
        <time>2011-06-02T15:12:32Z</time>
      </trkpt>
      <trkpt lat="46.37178" lon="-0.35185">
        <ele>48.8993</ele>
        <time>2011-06-02T15:12:33Z</time>
      </trkpt>
      <trkpt lat="46.37177" lon="-0.35186">
        <ele>48.9164</ele>
        <time>2011-06-02T15:12:34Z</time>
      </trkpt>
      <trkpt lat="46.37177" lon="-0.35188">
        <ele>48.9315</ele>
        <time>2011-06-02T15:12:35Z</time>
      </trkpt>
      <trkpt lat="46.37177" lon="-0.35192">
        <ele>48.945</ele>
        <time>2011-06-02T15:12:36Z</time>
      </trkpt>
      <trkpt lat="46.37177" lon="-0.35195">
        <ele>48.9634</ele>
        <time>2011-06-02T15:12:37Z</time>
      </trkpt>
      <trkpt lat="46.37176" lon="-0.35198">
        <ele>48.9874</ele>
        <time>2011-06-02T15:12:38Z</time>
      </trkpt>
      <trkpt lat="46.37176" lon="-0.35201">
        <ele>49.0108</ele>
        <time>2011-06-02T15:12:39Z</time>
      </trkpt>
      <trkpt lat="46.37175" lon="-0.35205">
        <ele>49.0342</ele>
        <time>2011-06-02T15:12:40Z</time>
      </trkpt>
      <trkpt lat="46.37175" lon="-0.35208">
        <ele>49.0532</ele>
        <time>2011-06-02T15:12:41Z</time>
      </trkpt>
      <trkpt lat="46.37175" lon="-0.3521">
        <ele>49.0702</ele>
        <time>2011-06-02T15:12:42Z</time>
      </trkpt>
      <trkpt lat="46.37175" lon="-0.35212">
        <ele>49.087</ele>
        <time>2011-06-02T15:12:43Z</time>
      </trkpt>
      <trkpt lat="46.37174" lon="-0.35214">
        <ele>49.1008</ele>
        <time>2011-06-02T15:12:44Z</time>
      </trkpt>
      <trkpt lat="46.37174" lon="-0.35216">
        <ele>49.1118</ele>
        <time>2011-06-02T15:12:45Z</time>
      </trkpt>
      <trkpt lat="46.37174" lon="-0.35217">
        <ele>49.1219</ele>
        <time>2011-06-02T15:12:46Z</time>
      </trkpt>
      <trkpt lat="46.37174" lon="-0.35219">
        <ele>49.1317</ele>
        <time>2011-06-02T15:12:47Z</time>
      </trkpt>
      <trkpt lat="46.37174" lon="-0.35221">
        <ele>49.1399</ele>
        <time>2011-06-02T15:12:48Z</time>
      </trkpt>
      <trkpt lat="46.37174" lon="-0.35223">
        <ele>49.1469</ele>
        <time>2011-06-02T15:12:49Z</time>
      </trkpt>
      <trkpt lat="46.37174" lon="-0.35225">
        <ele>49.1524</ele>
        <time>2011-06-02T15:12:50Z</time>
      </trkpt>
      <trkpt lat="46.37174" lon="-0.35227">
        <ele>49.1569</ele>
        <time>2011-06-02T15:12:51Z</time>
      </trkpt>
      <trkpt lat="46.37173" lon="-0.35228">
        <ele>49.1609</ele>
        <time>2011-06-02T15:12:52Z</time>
      </trkpt>
      <trkpt lat="46.37173" lon="-0.3523">
        <ele>49.1627</ele>
        <time>2011-06-02T15:12:53Z</time>
      </trkpt>
      <trkpt lat="46.37173" lon="-0.35232">
        <ele>49.1619</ele>
        <time>2011-06-02T15:12:54Z</time>
      </trkpt>
      <trkpt lat="46.37172" lon="-0.35233">
        <ele>49.1573</ele>
        <time>2011-06-02T15:12:55Z</time>
      </trkpt>
      <trkpt lat="46.37172" lon="-0.35234">
        <ele>49.1502</ele>
        <time>2011-06-02T15:12:56Z</time>
      </trkpt>
      <trkpt lat="46.37171" lon="-0.35235">
        <ele>49.1411</ele>
        <time>2011-06-02T15:12:57Z</time>
      </trkpt>
      <trkpt lat="46.37171" lon="-0.35237">
        <ele>49.1302</ele>
        <time>2011-06-02T15:12:58Z</time>
      </trkpt>
      <trkpt lat="46.3717" lon="-0.35238">
        <ele>49.1175</ele>
        <time>2011-06-02T15:12:59Z</time>
      </trkpt>
      <trkpt lat="46.3717" lon="-0.35239">
        <ele>49.1031</ele>
        <time>2011-06-02T15:13:00Z</time>
      </trkpt>
      <trkpt lat="46.3717" lon="-0.35241">
        <ele>49.0879</ele>
        <time>2011-06-02T15:13:01Z</time>
      </trkpt>
      <trkpt lat="46.3717" lon="-0.35242">
        <ele>49.0723</ele>
        <time>2011-06-02T15:13:02Z</time>
      </trkpt>
      <trkpt lat="46.37169" lon="-0.35244">
        <ele>49.0549</ele>
        <time>2011-06-02T15:13:03Z</time>
      </trkpt>
      <trkpt lat="46.37169" lon="-0.35246">
        <ele>49.0357</ele>
        <time>2011-06-02T15:13:04Z</time>
      </trkpt>
      <trkpt lat="46.37169" lon="-0.35247">
        <ele>49.0155</ele>
        <time>2011-06-02T15:13:05Z</time>
      </trkpt>
      <trkpt lat="46.37169" lon="-0.35249">
        <ele>48.9935</ele>
        <time>2011-06-02T15:13:06Z</time>
      </trkpt>
      <trkpt lat="46.37169" lon="-0.35251">
        <ele>48.9701</ele>
        <time>2011-06-02T15:13:07Z</time>
      </trkpt>
      <trkpt lat="46.37169" lon="-0.35252">
        <ele>48.9454</ele>
        <time>2011-06-02T15:13:08Z</time>
      </trkpt>
      <trkpt lat="46.37169" lon="-0.35254">
        <ele>48.9201</ele>
        <time>2011-06-02T15:13:09Z</time>
      </trkpt>
      <trkpt lat="46.37169" lon="-0.35256">
        <ele>48.8938</ele>
        <time>2011-06-02T15:13:10Z</time>
      </trkpt>
      <trkpt lat="46.37169" lon="-0.35257">
        <ele>48.867</ele>
        <time>2011-06-02T15:13:11Z</time>
      </trkpt>
      <trkpt lat="46.37169" lon="-0.35258">
        <ele>48.8389</ele>
        <time>2011-06-02T15:13:12Z</time>
      </trkpt>
      <trkpt lat="46.37169" lon="-0.3526">
        <ele>48.809</ele>
        <time>2011-06-02T15:13:13Z</time>
      </trkpt>
      <trkpt lat="46.37169" lon="-0.35261">
        <ele>48.7805</ele>
        <time>2011-06-02T15:13:14Z</time>
      </trkpt>
      <trkpt lat="46.37169" lon="-0.35263">
        <ele>48.752</ele>
        <time>2011-06-02T15:13:15Z</time>
      </trkpt>
      <trkpt lat="46.37169" lon="-0.35264">
        <ele>48.7236</ele>
        <time>2011-06-02T15:13:16Z</time>
      </trkpt>
      <trkpt lat="46.37169" lon="-0.35266">
        <ele>48.6946</ele>
        <time>2011-06-02T15:13:17Z</time>
      </trkpt>
      <trkpt lat="46.37169" lon="-0.35267">
        <ele>48.667</ele>
        <time>2011-06-02T15:13:18Z</time>
      </trkpt>
      <trkpt lat="46.37169" lon="-0.35269">
        <ele>48.6386</ele>
        <time>2011-06-02T15:13:19Z</time>
      </trkpt>
      <trkpt lat="46.37169" lon="-0.35271">
        <ele>48.6101</ele>
        <time>2011-06-02T15:13:20Z</time>
      </trkpt>
      <trkpt lat="46.37169" lon="-0.35273">
        <ele>48.5796</ele>
        <time>2011-06-02T15:13:21Z</time>
      </trkpt>
      <trkpt lat="46.37169" lon="-0.35274">
        <ele>48.5476</ele>
        <time>2011-06-02T15:13:22Z</time>
      </trkpt>
      <trkpt lat="46.37169" lon="-0.35276">
        <ele>48.5128</ele>
        <time>2011-06-02T15:13:23Z</time>
      </trkpt>
      <trkpt lat="46.37169" lon="-0.35278">
        <ele>48.4761</ele>
        <time>2011-06-02T15:13:24Z</time>
      </trkpt>
      <trkpt lat="46.37169" lon="-0.3528">
        <ele>48.438</ele>
        <time>2011-06-02T15:13:25Z</time>
      </trkpt>
      <trkpt lat="46.37168" lon="-0.35281">
        <ele>48.3989</ele>
        <time>2011-06-02T15:13:26Z</time>
      </trkpt>
      <trkpt lat="46.37168" lon="-0.35283">
        <ele>48.3602</ele>
        <time>2011-06-02T15:13:27Z</time>
      </trkpt>
      <trkpt lat="46.37168" lon="-0.35285">
        <ele>48.3204</ele>
        <time>2011-06-02T15:13:28Z</time>
      </trkpt>
      <trkpt lat="46.37168" lon="-0.35286">
        <ele>48.2801</ele>
        <time>2011-06-02T15:13:29Z</time>
      </trkpt>
      <trkpt lat="46.37168" lon="-0.35288">
        <ele>48.2407</ele>
        <time>2011-06-02T15:13:30Z</time>
      </trkpt>
      <trkpt lat="46.37168" lon="-0.3529">
        <ele>48.2028</ele>
        <time>2011-06-02T15:13:31Z</time>
      </trkpt>
      <trkpt lat="46.37169" lon="-0.35292">
        <ele>48.1658</ele>
        <time>2011-06-02T15:13:32Z</time>
      </trkpt>
      <trkpt lat="46.37169" lon="-0.35293">
        <ele>48.1294</ele>
        <time>2011-06-02T15:13:33Z</time>
      </trkpt>
      <trkpt lat="46.37169" lon="-0.35295">
        <ele>48.0945</ele>
        <time>2011-06-02T15:13:34Z</time>
      </trkpt>
      <trkpt lat="46.37168" lon="-0.35296">
        <ele>48.0586</ele>
        <time>2011-06-02T15:13:35Z</time>
      </trkpt>
      <trkpt lat="46.37168" lon="-0.35297">
        <ele>48.0241</ele>
        <time>2011-06-02T15:13:36Z</time>
      </trkpt>
      <trkpt lat="46.37167" lon="-0.35298">
        <ele>47.9904</ele>
        <time>2011-06-02T15:13:37Z</time>
      </trkpt>
      <trkpt lat="46.37167" lon="-0.35299">
        <ele>47.9573</ele>
        <time>2011-06-02T15:13:38Z</time>
      </trkpt>
      <trkpt lat="46.37167" lon="-0.353">
        <ele>47.9245</ele>
        <time>2011-06-02T15:13:39Z</time>
      </trkpt>
      <trkpt lat="46.37167" lon="-0.35302">
        <ele>47.8919</ele>
        <time>2011-06-02T15:13:40Z</time>
      </trkpt>
      <trkpt lat="46.37166" lon="-0.35303">
        <ele>47.8598</ele>
        <time>2011-06-02T15:13:41Z</time>
      </trkpt>
      <trkpt lat="46.37166" lon="-0.35305">
        <ele>47.829</ele>
        <time>2011-06-02T15:13:42Z</time>
      </trkpt>
      <trkpt lat="46.37165" lon="-0.35306">
        <ele>47.7955</ele>
        <time>2011-06-02T15:13:43Z</time>
      </trkpt>
      <trkpt lat="46.37165" lon="-0.35308">
        <ele>47.7626</ele>
        <time>2011-06-02T15:13:44Z</time>
      </trkpt>
      <trkpt lat="46.37164" lon="-0.3531">
        <ele>47.7206</ele>
        <time>2011-06-02T15:13:45Z</time>
      </trkpt>
      <trkpt lat="46.37164" lon="-0.35312">
        <ele>47.6781</ele>
        <time>2011-06-02T15:13:46Z</time>
      </trkpt>
      <trkpt lat="46.37164" lon="-0.35313">
        <ele>47.6367</ele>
        <time>2011-06-02T15:13:47Z</time>
      </trkpt>
      <trkpt lat="46.37163" lon="-0.35315">
        <ele>47.595</ele>
        <time>2011-06-02T15:13:48Z</time>
      </trkpt>
      <trkpt lat="46.37163" lon="-0.35316">
        <ele>47.5552</ele>
        <time>2011-06-02T15:13:49Z</time>
      </trkpt>
      <trkpt lat="46.37163" lon="-0.35318">
        <ele>47.5162</ele>
        <time>2011-06-02T15:13:50Z</time>
      </trkpt>
      <trkpt lat="46.37163" lon="-0.3532">
        <ele>47.4773</ele>
        <time>2011-06-02T15:13:51Z</time>
      </trkpt>
      <trkpt lat="46.37162" lon="-0.35321">
        <ele>47.4407</ele>
        <time>2011-06-02T15:13:52Z</time>
      </trkpt>
      <trkpt lat="46.37162" lon="-0.35323">
        <ele>47.4043</ele>
        <time>2011-06-02T15:13:53Z</time>
      </trkpt>
      <trkpt lat="46.37162" lon="-0.35324">
        <ele>47.3641</ele>
        <time>2011-06-02T15:13:54Z</time>
      </trkpt>
      <trkpt lat="46.37162" lon="-0.35326">
        <ele>47.3247</ele>
        <time>2011-06-02T15:13:55Z</time>
      </trkpt>
      <trkpt lat="46.37161" lon="-0.35328">
        <ele>47.286</ele>
        <time>2011-06-02T15:13:56Z</time>
      </trkpt>
      <trkpt lat="46.37161" lon="-0.3533">
        <ele>47.2484</ele>
        <time>2011-06-02T15:13:57Z</time>
      </trkpt>
      <trkpt lat="46.37161" lon="-0.35332">
        <ele>47.1973</ele>
        <time>2011-06-02T15:13:58Z</time>
      </trkpt>
      <trkpt lat="46.3716" lon="-0.35334">
        <ele>47.1378</ele>
        <time>2011-06-02T15:13:59Z</time>
      </trkpt>
      <trkpt lat="46.3716" lon="-0.35337">
        <ele>47.0792</ele>
        <time>2011-06-02T15:14:00Z</time>
      </trkpt>
      <trkpt lat="46.3716" lon="-0.35338">
        <ele>47.022</ele>
        <time>2011-06-02T15:14:01Z</time>
      </trkpt>
      <trkpt lat="46.37159" lon="-0.3534">
        <ele>46.9678</ele>
        <time>2011-06-02T15:14:02Z</time>
      </trkpt>
      <trkpt lat="46.37159" lon="-0.35342">
        <ele>46.9144</ele>
        <time>2011-06-02T15:14:03Z</time>
      </trkpt>
      <trkpt lat="46.37159" lon="-0.35344">
        <ele>46.8624</ele>
        <time>2011-06-02T15:14:04Z</time>
      </trkpt>
      <trkpt lat="46.37159" lon="-0.35346">
        <ele>46.8112</ele>
        <time>2011-06-02T15:14:05Z</time>
      </trkpt>
      <trkpt lat="46.37159" lon="-0.35348">
        <ele>46.7644</ele>
        <time>2011-06-02T15:14:06Z</time>
      </trkpt>
      <trkpt lat="46.37159" lon="-0.35349">
        <ele>46.7215</ele>
        <time>2011-06-02T15:14:07Z</time>
      </trkpt>
      <trkpt lat="46.37159" lon="-0.3535">
        <ele>46.6823</ele>
        <time>2011-06-02T15:14:08Z</time>
      </trkpt>
      <trkpt lat="46.37159" lon="-0.35352">
        <ele>46.6443</ele>
        <time>2011-06-02T15:14:09Z</time>
      </trkpt>
      <trkpt lat="46.37159" lon="-0.35353">
        <ele>46.6065</ele>
        <time>2011-06-02T15:14:10Z</time>
      </trkpt>
      <trkpt lat="46.37158" lon="-0.35355">
        <ele>46.5698</ele>
        <time>2011-06-02T15:14:11Z</time>
      </trkpt>
      <trkpt lat="46.37158" lon="-0.35357">
        <ele>46.5336</ele>
        <time>2011-06-02T15:14:12Z</time>
      </trkpt>
      <trkpt lat="46.37158" lon="-0.35358">
        <ele>46.4984</ele>
        <time>2011-06-02T15:14:13Z</time>
      </trkpt>
      <trkpt lat="46.37157" lon="-0.3536">
        <ele>46.4642</ele>
        <time>2011-06-02T15:14:14Z</time>
      </trkpt>
      <trkpt lat="46.37157" lon="-0.35362">
        <ele>46.4325</ele>
        <time>2011-06-02T15:14:15Z</time>
      </trkpt>
      <trkpt lat="46.37157" lon="-0.35364">
        <ele>46.4079</ele>
        <time>2011-06-02T15:14:16Z</time>
      </trkpt>
      <trkpt lat="46.37156" lon="-0.35365">
        <ele>46.3849</ele>
        <time>2011-06-02T15:14:17Z</time>
      </trkpt>
      <trkpt lat="46.37156" lon="-0.35366">
        <ele>46.3724</ele>
        <time>2011-06-02T15:14:18Z</time>
      </trkpt>
      <trkpt lat="46.37156" lon="-0.35367">
        <ele>46.3658</ele>
        <time>2011-06-02T15:14:19Z</time>
      </trkpt>
      <trkpt lat="46.37156" lon="-0.35368">
        <ele>46.3356</ele>
        <time>2011-06-02T15:14:22Z</time>
      </trkpt>
      <trkpt lat="46.37157" lon="-0.35369">
        <ele>46.3239</ele>
        <time>2011-06-02T15:14:23Z</time>
      </trkpt>
      <trkpt lat="46.37157" lon="-0.3537">
        <ele>46.3137</ele>
        <time>2011-06-02T15:14:24Z</time>
      </trkpt>
      <trkpt lat="46.37156" lon="-0.35372">
        <ele>46.3047</ele>
        <time>2011-06-02T15:14:25Z</time>
      </trkpt>
      <trkpt lat="46.37156" lon="-0.35373">
        <ele>46.2931</ele>
        <time>2011-06-02T15:14:26Z</time>
      </trkpt>
      <trkpt lat="46.37156" lon="-0.35375">
        <ele>46.2803</ele>
        <time>2011-06-02T15:14:27Z</time>
      </trkpt>
      <trkpt lat="46.37155" lon="-0.35376">
        <ele>46.2685</ele>
        <time>2011-06-02T15:14:28Z</time>
      </trkpt>
      <trkpt lat="46.37154" lon="-0.35377">
        <ele>46.2578</ele>
        <time>2011-06-02T15:14:29Z</time>
      </trkpt>
      <trkpt lat="46.37154" lon="-0.35379">
        <ele>46.2498</ele>
        <time>2011-06-02T15:14:30Z</time>
      </trkpt>
      <trkpt lat="46.37154" lon="-0.3538">
        <ele>46.246</ele>
        <time>2011-06-02T15:14:31Z</time>
      </trkpt>
      <trkpt lat="46.37153" lon="-0.35382">
        <ele>46.236</ele>
        <time>2011-06-02T15:14:32Z</time>
      </trkpt>
      <trkpt lat="46.37153" lon="-0.35384">
        <ele>46.222</ele>
        <time>2011-06-02T15:14:33Z</time>
      </trkpt>
      <trkpt lat="46.37153" lon="-0.35386">
        <ele>46.2065</ele>
        <time>2011-06-02T15:14:34Z</time>
      </trkpt>
      <trkpt lat="46.37153" lon="-0.35387">
        <ele>46.1944</ele>
        <time>2011-06-02T15:14:35Z</time>
      </trkpt>
      <trkpt lat="46.37152" lon="-0.35389">
        <ele>46.1828</ele>
        <time>2011-06-02T15:14:36Z</time>
      </trkpt>
      <trkpt lat="46.37152" lon="-0.3539">
        <ele>46.1723</ele>
        <time>2011-06-02T15:14:37Z</time>
      </trkpt>
      <trkpt lat="46.37151" lon="-0.35392">
        <ele>46.1626</ele>
        <time>2011-06-02T15:14:38Z</time>
      </trkpt>
      <trkpt lat="46.37151" lon="-0.35394">
        <ele>46.1487</ele>
        <time>2011-06-02T15:14:39Z</time>
      </trkpt>
      <trkpt lat="46.3715" lon="-0.35395">
        <ele>46.1296</ele>
        <time>2011-06-02T15:14:40Z</time>
      </trkpt>
      <trkpt lat="46.37149" lon="-0.35397">
        <ele>46.1091</ele>
        <time>2011-06-02T15:14:41Z</time>
      </trkpt>
      <trkpt lat="46.37149" lon="-0.35399">
        <ele>46.0846</ele>
        <time>2011-06-02T15:14:42Z</time>
      </trkpt>
      <trkpt lat="46.37148" lon="-0.35401">
        <ele>46.0621</ele>
        <time>2011-06-02T15:14:43Z</time>
      </trkpt>
      <trkpt lat="46.37147" lon="-0.35403">
        <ele>46.0393</ele>
        <time>2011-06-02T15:14:44Z</time>
      </trkpt>
      <trkpt lat="46.37146" lon="-0.35405">
        <ele>46.0158</ele>
        <time>2011-06-02T15:14:45Z</time>
      </trkpt>
      <trkpt lat="46.37146" lon="-0.35406">
        <ele>45.9803</ele>
        <time>2011-06-02T15:14:46Z</time>
      </trkpt>
      <trkpt lat="46.37145" lon="-0.35407">
        <ele>45.9448</ele>
        <time>2011-06-02T15:14:47Z</time>
      </trkpt>
      <trkpt lat="46.37145" lon="-0.35409">
        <ele>45.9116</ele>
        <time>2011-06-02T15:14:48Z</time>
      </trkpt>
      <trkpt lat="46.37145" lon="-0.3541">
        <ele>45.8609</ele>
        <time>2011-06-02T15:14:49Z</time>
      </trkpt>
      <trkpt lat="46.37144" lon="-0.35412">
        <ele>45.8109</ele>
        <time>2011-06-02T15:14:50Z</time>
      </trkpt>
      <trkpt lat="46.37144" lon="-0.35413">
        <ele>45.7632</ele>
        <time>2011-06-02T15:14:51Z</time>
      </trkpt>
      <trkpt lat="46.37143" lon="-0.35414">
        <ele>45.7147</ele>
        <time>2011-06-02T15:14:52Z</time>
      </trkpt>
      <trkpt lat="46.37143" lon="-0.35415">
        <ele>45.6689</ele>
        <time>2011-06-02T15:14:53Z</time>
      </trkpt>
      <trkpt lat="46.37142" lon="-0.35417">
        <ele>45.6252</ele>
        <time>2011-06-02T15:14:54Z</time>
      </trkpt>
      <trkpt lat="46.37142" lon="-0.35418">
        <ele>45.584</ele>
        <time>2011-06-02T15:14:55Z</time>
      </trkpt>
      <trkpt lat="46.37141" lon="-0.3542">
        <ele>45.5451</ele>
        <time>2011-06-02T15:14:56Z</time>
      </trkpt>
      <trkpt lat="46.37141" lon="-0.35422">
        <ele>45.5083</ele>
        <time>2011-06-02T15:14:57Z</time>
      </trkpt>
      <trkpt lat="46.3714" lon="-0.35423">
        <ele>45.4761</ele>
        <time>2011-06-02T15:14:58Z</time>
      </trkpt>
      <trkpt lat="46.3714" lon="-0.35425">
        <ele>45.4437</ele>
        <time>2011-06-02T15:14:59Z</time>
      </trkpt>
      <trkpt lat="46.37139" lon="-0.35426">
        <ele>45.4088</ele>
        <time>2011-06-02T15:15:00Z</time>
      </trkpt>
      <trkpt lat="46.37138" lon="-0.35427">
        <ele>45.3771</ele>
        <time>2011-06-02T15:15:01Z</time>
      </trkpt>
      <trkpt lat="46.37137" lon="-0.35429">
        <ele>45.3436</ele>
        <time>2011-06-02T15:15:02Z</time>
      </trkpt>
      <trkpt lat="46.37137" lon="-0.35431">
        <ele>45.3105</ele>
        <time>2011-06-02T15:15:03Z</time>
      </trkpt>
      <trkpt lat="46.37136" lon="-0.35432">
        <ele>45.2745</ele>
        <time>2011-06-02T15:15:04Z</time>
      </trkpt>
      <trkpt lat="46.37135" lon="-0.35433">
        <ele>45.2349</ele>
        <time>2011-06-02T15:15:05Z</time>
      </trkpt>
      <trkpt lat="46.37134" lon="-0.35434">
        <ele>45.1942</ele>
        <time>2011-06-02T15:15:06Z</time>
      </trkpt>
      <trkpt lat="46.37133" lon="-0.35436">
        <ele>45.1539</ele>
        <time>2011-06-02T15:15:07Z</time>
      </trkpt>
      <trkpt lat="46.37133" lon="-0.35437">
        <ele>45.1149</ele>
        <time>2011-06-02T15:15:08Z</time>
      </trkpt>
      <trkpt lat="46.37133" lon="-0.35439">
        <ele>45.0757</ele>
        <time>2011-06-02T15:15:09Z</time>
      </trkpt>
      <trkpt lat="46.37132" lon="-0.3544">
        <ele>45.0368</ele>
        <time>2011-06-02T15:15:10Z</time>
      </trkpt>
      <trkpt lat="46.37131" lon="-0.35441">
        <ele>45.0007</ele>
        <time>2011-06-02T15:15:11Z</time>
      </trkpt>
      <trkpt lat="46.3713" lon="-0.35443">
        <ele>44.9645</ele>
        <time>2011-06-02T15:15:12Z</time>
      </trkpt>
      <trkpt lat="46.3713" lon="-0.35444">
        <ele>44.9322</ele>
        <time>2011-06-02T15:15:13Z</time>
      </trkpt>
      <trkpt lat="46.37129" lon="-0.35445">
        <ele>44.9006</ele>
        <time>2011-06-02T15:15:14Z</time>
      </trkpt>
      <trkpt lat="46.37128" lon="-0.35446">
        <ele>44.8684</ele>
        <time>2011-06-02T15:15:15Z</time>
      </trkpt>
      <trkpt lat="46.37128" lon="-0.35447">
        <ele>44.8332</ele>
        <time>2011-06-02T15:15:16Z</time>
      </trkpt>
      <trkpt lat="46.37127" lon="-0.35448">
        <ele>44.7988</ele>
        <time>2011-06-02T15:15:17Z</time>
      </trkpt>
      <trkpt lat="46.37126" lon="-0.35449">
        <ele>44.7647</ele>
        <time>2011-06-02T15:15:18Z</time>
      </trkpt>
      <trkpt lat="46.37125" lon="-0.3545">
        <ele>44.7324</ele>
        <time>2011-06-02T15:15:19Z</time>
      </trkpt>
      <trkpt lat="46.37125" lon="-0.35452">
        <ele>44.7026</ele>
        <time>2011-06-02T15:15:20Z</time>
      </trkpt>
      <trkpt lat="46.37124" lon="-0.35453">
        <ele>44.6718</ele>
        <time>2011-06-02T15:15:21Z</time>
      </trkpt>
      <trkpt lat="46.37124" lon="-0.35454">
        <ele>44.6407</ele>
        <time>2011-06-02T15:15:22Z</time>
      </trkpt>
      <trkpt lat="46.37123" lon="-0.35456">
        <ele>44.6122</ele>
        <time>2011-06-02T15:15:23Z</time>
      </trkpt>
      <trkpt lat="46.37123" lon="-0.35457">
        <ele>44.586</ele>
        <time>2011-06-02T15:15:24Z</time>
      </trkpt>
      <trkpt lat="46.37122" lon="-0.35459">
        <ele>44.565</ele>
        <time>2011-06-02T15:15:25Z</time>
      </trkpt>
      <trkpt lat="46.37122" lon="-0.3546">
        <ele>44.5459</ele>
        <time>2011-06-02T15:15:26Z</time>
      </trkpt>
      <trkpt lat="46.37121" lon="-0.35461">
        <ele>44.5319</ele>
        <time>2011-06-02T15:15:27Z</time>
      </trkpt>
      <trkpt lat="46.3712" lon="-0.35462">
        <ele>44.5174</ele>
        <time>2011-06-02T15:15:28Z</time>
      </trkpt>
      <trkpt lat="46.37119" lon="-0.35464">
        <ele>44.5035</ele>
        <time>2011-06-02T15:15:29Z</time>
      </trkpt>
      <trkpt lat="46.37119" lon="-0.35465">
        <ele>44.4933</ele>
        <time>2011-06-02T15:15:30Z</time>
      </trkpt>
      <trkpt lat="46.37118" lon="-0.35466">
        <ele>44.4863</ele>
        <time>2011-06-02T15:15:31Z</time>
      </trkpt>
      <trkpt lat="46.37117" lon="-0.35468">
        <ele>44.4805</ele>
        <time>2011-06-02T15:15:32Z</time>
      </trkpt>
      <trkpt lat="46.37116" lon="-0.3547">
        <ele>44.4767</ele>
        <time>2011-06-02T15:15:33Z</time>
      </trkpt>
      <trkpt lat="46.37116" lon="-0.35471">
        <ele>44.4736</ele>
        <time>2011-06-02T15:15:34Z</time>
      </trkpt>
      <trkpt lat="46.37115" lon="-0.35473">
        <ele>44.4731</ele>
        <time>2011-06-02T15:15:35Z</time>
      </trkpt>
      <trkpt lat="46.37114" lon="-0.35474">
        <ele>44.4726</ele>
        <time>2011-06-02T15:15:36Z</time>
      </trkpt>
      <trkpt lat="46.37113" lon="-0.35476">
        <ele>44.4734</ele>
        <time>2011-06-02T15:15:37Z</time>
      </trkpt>
      <trkpt lat="46.37113" lon="-0.35477">
        <ele>44.4742</ele>
        <time>2011-06-02T15:15:38Z</time>
      </trkpt>
      <trkpt lat="46.37114" lon="-0.35475">
        <ele>44.4832</ele>
        <time>2011-06-02T15:15:42Z</time>
      </trkpt>
      <trkpt lat="46.37114" lon="-0.35476">
        <ele>44.4859</ele>
        <time>2011-06-02T15:15:43Z</time>
      </trkpt>
      <trkpt lat="46.37114" lon="-0.35477">
        <ele>44.4931</ele>
        <time>2011-06-02T15:15:44Z</time>
      </trkpt>
      <trkpt lat="46.37114" lon="-0.35478">
        <ele>44.5053</ele>
        <time>2011-06-02T15:15:45Z</time>
      </trkpt>
      <trkpt lat="46.37113" lon="-0.3548">
        <ele>44.5101</ele>
        <time>2011-06-02T15:15:46Z</time>
      </trkpt>
      <trkpt lat="46.37113" lon="-0.35481">
        <ele>44.5116</ele>
        <time>2011-06-02T15:15:47Z</time>
      </trkpt>
      <trkpt lat="46.37112" lon="-0.35483">
        <ele>44.5101</ele>
        <time>2011-06-02T15:15:48Z</time>
      </trkpt>
      <trkpt lat="46.37111" lon="-0.35484">
        <ele>44.5093</ele>
        <time>2011-06-02T15:15:49Z</time>
      </trkpt>
      <trkpt lat="46.3711" lon="-0.35485">
        <ele>44.5112</ele>
        <time>2011-06-02T15:15:50Z</time>
      </trkpt>
      <trkpt lat="46.37109" lon="-0.35487">
        <ele>44.5182</ele>
        <time>2011-06-02T15:15:51Z</time>
      </trkpt>
      <trkpt lat="46.37108" lon="-0.35488">
        <ele>44.5278</ele>
        <time>2011-06-02T15:15:52Z</time>
      </trkpt>
      <trkpt lat="46.37108" lon="-0.35489">
        <ele>44.5405</ele>
        <time>2011-06-02T15:15:53Z</time>
      </trkpt>
      <trkpt lat="46.37107" lon="-0.3549">
        <ele>44.5534</ele>
        <time>2011-06-02T15:15:54Z</time>
      </trkpt>
      <trkpt lat="46.37106" lon="-0.35491">
        <ele>44.5643</ele>
        <time>2011-06-02T15:15:55Z</time>
      </trkpt>
      <trkpt lat="46.37105" lon="-0.35492">
        <ele>44.5691</ele>
        <time>2011-06-02T15:15:56Z</time>
      </trkpt>
      <trkpt lat="46.37104" lon="-0.35493">
        <ele>44.5715</ele>
        <time>2011-06-02T15:15:57Z</time>
      </trkpt>
      <trkpt lat="46.37104" lon="-0.35494">
        <ele>44.574</ele>
        <time>2011-06-02T15:15:58Z</time>
      </trkpt>
      <trkpt lat="46.37103" lon="-0.35495">
        <ele>44.5797</ele>
        <time>2011-06-02T15:15:59Z</time>
      </trkpt>
      <trkpt lat="46.37103" lon="-0.35495">
        <ele>44.5921</ele>
        <time>2011-06-02T15:16:00Z</time>
      </trkpt>
      <trkpt lat="46.37102" lon="-0.35496">
        <ele>44.6049</ele>
        <time>2011-06-02T15:16:01Z</time>
      </trkpt>
      <trkpt lat="46.37101" lon="-0.35497">
        <ele>44.6187</ele>
        <time>2011-06-02T15:16:02Z</time>
      </trkpt>
      <trkpt lat="46.37101" lon="-0.35498">
        <ele>44.633</ele>
        <time>2011-06-02T15:16:03Z</time>
      </trkpt>
      <trkpt lat="46.371" lon="-0.35499">
        <ele>44.6452</ele>
        <time>2011-06-02T15:16:04Z</time>
      </trkpt>
      <trkpt lat="46.37098" lon="-0.355">
        <ele>44.6531</ele>
        <time>2011-06-02T15:16:05Z</time>
      </trkpt>
      <trkpt lat="46.37098" lon="-0.355">
        <ele>44.661</ele>
        <time>2011-06-02T15:16:06Z</time>
      </trkpt>
      <trkpt lat="46.37097" lon="-0.35501">
        <ele>44.6644</ele>
        <time>2011-06-02T15:16:07Z</time>
      </trkpt>
      <trkpt lat="46.37096" lon="-0.35503">
        <ele>44.6714</ele>
        <time>2011-06-02T15:16:08Z</time>
      </trkpt>
      <trkpt lat="46.37095" lon="-0.35504">
        <ele>44.6802</ele>
        <time>2011-06-02T15:16:09Z</time>
      </trkpt>
      <trkpt lat="46.37093" lon="-0.35505">
        <ele>44.6894</ele>
        <time>2011-06-02T15:16:10Z</time>
      </trkpt>
      <trkpt lat="46.37092" lon="-0.35506">
        <ele>44.6965</ele>
        <time>2011-06-02T15:16:11Z</time>
      </trkpt>
      <trkpt lat="46.37091" lon="-0.35506">
        <ele>44.7011</ele>
        <time>2011-06-02T15:16:12Z</time>
      </trkpt>
      <trkpt lat="46.3709" lon="-0.35507">
        <ele>44.7031</ele>
        <time>2011-06-02T15:16:13Z</time>
      </trkpt>
      <trkpt lat="46.3709" lon="-0.35508">
        <ele>44.7051</ele>
        <time>2011-06-02T15:16:14Z</time>
      </trkpt>
      <trkpt lat="46.37089" lon="-0.35508">
        <ele>44.7079</ele>
        <time>2011-06-02T15:16:15Z</time>
      </trkpt>
      <trkpt lat="46.37088" lon="-0.35509">
        <ele>44.7116</ele>
        <time>2011-06-02T15:16:16Z</time>
      </trkpt>
      <trkpt lat="46.37087" lon="-0.35511">
        <ele>44.7163</ele>
        <time>2011-06-02T15:16:17Z</time>
      </trkpt>
      <trkpt lat="46.37087" lon="-0.35512">
        <ele>44.7219</ele>
        <time>2011-06-02T15:16:18Z</time>
      </trkpt>
      <trkpt lat="46.37086" lon="-0.35513">
        <ele>44.7281</ele>
        <time>2011-06-02T15:16:19Z</time>
      </trkpt>
      <trkpt lat="46.37085" lon="-0.35515">
        <ele>44.7342</ele>
        <time>2011-06-02T15:16:20Z</time>
      </trkpt>
      <trkpt lat="46.37084" lon="-0.35516">
        <ele>44.737</ele>
        <time>2011-06-02T15:16:21Z</time>
      </trkpt>
      <trkpt lat="46.37083" lon="-0.35517">
        <ele>44.7394</ele>
        <time>2011-06-02T15:16:22Z</time>
      </trkpt>
      <trkpt lat="46.37083" lon="-0.35518">
        <ele>44.7417</ele>
        <time>2011-06-02T15:16:23Z</time>
      </trkpt>
      <trkpt lat="46.37083" lon="-0.35518">
        <ele>44.7486</ele>
        <time>2011-06-02T15:16:24Z</time>
      </trkpt>
      <trkpt lat="46.37083" lon="-0.35519">
        <ele>44.7671</ele>
        <time>2011-06-02T15:16:25Z</time>
      </trkpt>
      <trkpt lat="46.37082" lon="-0.3552">
        <ele>44.7671</ele>
        <time>2011-06-02T15:16:26Z</time>
      </trkpt>
      <trkpt lat="46.37082" lon="-0.3552">
        <ele>44.787</ele>
        <time>2011-06-02T15:16:27Z</time>
      </trkpt>
      <trkpt lat="46.37081" lon="-0.35521">
        <ele>44.7897</ele>
        <time>2011-06-02T15:16:28Z</time>
      </trkpt>
      <trkpt lat="46.3708" lon="-0.35522">
        <ele>44.7906</ele>
        <time>2011-06-02T15:16:29Z</time>
      </trkpt>
      <trkpt lat="46.3708" lon="-0.35522">
        <ele>44.8008</ele>
        <time>2011-06-02T15:16:30Z</time>
      </trkpt>
      <trkpt lat="46.37079" lon="-0.35522">
        <ele>44.8066</ele>
        <time>2011-06-02T15:16:31Z</time>
      </trkpt>
      <trkpt lat="46.37076" lon="-0.35524">
        <ele>44.8106</ele>
        <time>2011-06-02T15:16:34Z</time>
      </trkpt>
      <trkpt lat="46.37075" lon="-0.35525">
        <ele>44.8112</ele>
        <time>2011-06-02T15:16:35Z</time>
      </trkpt>
      <trkpt lat="46.37074" lon="-0.35526">
        <ele>44.8159</ele>
        <time>2011-06-02T15:16:36Z</time>
      </trkpt>
      <trkpt lat="46.37074" lon="-0.35527">
        <ele>44.8255</ele>
        <time>2011-06-02T15:16:37Z</time>
      </trkpt>
      <trkpt lat="46.37073" lon="-0.35528">
        <ele>44.8396</ele>
        <time>2011-06-02T15:16:38Z</time>
      </trkpt>
      <trkpt lat="46.37072" lon="-0.35529">
        <ele>44.8611</ele>
        <time>2011-06-02T15:16:39Z</time>
      </trkpt>
      <trkpt lat="46.37071" lon="-0.3553">
        <ele>44.8836</ele>
        <time>2011-06-02T15:16:40Z</time>
      </trkpt>
      <trkpt lat="46.37071" lon="-0.35532">
        <ele>44.9088</ele>
        <time>2011-06-02T15:16:41Z</time>
      </trkpt>
      <trkpt lat="46.3707" lon="-0.35532">
        <ele>44.9361</ele>
        <time>2011-06-02T15:16:42Z</time>
      </trkpt>
      <trkpt lat="46.37069" lon="-0.35533">
        <ele>44.9651</ele>
        <time>2011-06-02T15:16:43Z</time>
      </trkpt>
      <trkpt lat="46.37067" lon="-0.35534">
        <ele>45.0002</ele>
        <time>2011-06-02T15:16:44Z</time>
      </trkpt>
      <trkpt lat="46.37067" lon="-0.35535">
        <ele>45.0388</ele>
        <time>2011-06-02T15:16:45Z</time>
      </trkpt>
      <trkpt lat="46.37066" lon="-0.35535">
        <ele>45.0813</ele>
        <time>2011-06-02T15:16:46Z</time>
      </trkpt>
      <trkpt lat="46.37065" lon="-0.35536">
        <ele>45.1244</ele>
        <time>2011-06-02T15:16:47Z</time>
      </trkpt>
      <trkpt lat="46.37064" lon="-0.35537">
        <ele>45.1624</ele>
        <time>2011-06-02T15:16:48Z</time>
      </trkpt>
      <trkpt lat="46.37063" lon="-0.35539">
        <ele>45.1954</ele>
        <time>2011-06-02T15:16:49Z</time>
      </trkpt>
      <trkpt lat="46.37062" lon="-0.3554">
        <ele>45.2175</ele>
        <time>2011-06-02T15:16:50Z</time>
      </trkpt>
      <trkpt lat="46.37061" lon="-0.35541">
        <ele>45.2344</ele>
        <time>2011-06-02T15:16:51Z</time>
      </trkpt>
      <trkpt lat="46.3706" lon="-0.35542">
        <ele>45.2502</ele>
        <time>2011-06-02T15:16:52Z</time>
      </trkpt>
      <trkpt lat="46.37059" lon="-0.35543">
        <ele>45.2673</ele>
        <time>2011-06-02T15:16:53Z</time>
      </trkpt>
      <trkpt lat="46.37058" lon="-0.35545">
        <ele>45.2842</ele>
        <time>2011-06-02T15:16:54Z</time>
      </trkpt>
      <trkpt lat="46.37058" lon="-0.35546">
        <ele>45.3005</ele>
        <time>2011-06-02T15:16:55Z</time>
      </trkpt>
      <trkpt lat="46.37058" lon="-0.35546">
        <ele>45.3259</ele>
        <time>2011-06-02T15:16:58Z</time>
      </trkpt>
      <trkpt lat="46.37058" lon="-0.35547">
        <ele>45.3462</ele>
        <time>2011-06-02T15:16:59Z</time>
      </trkpt>
      <trkpt lat="46.37058" lon="-0.35548">
        <ele>45.3675</ele>
        <time>2011-06-02T15:17:00Z</time>
      </trkpt>
      <trkpt lat="46.37057" lon="-0.35549">
        <ele>45.3867</ele>
        <time>2011-06-02T15:17:01Z</time>
      </trkpt>
      <trkpt lat="46.37056" lon="-0.3555">
        <ele>45.4055</ele>
        <time>2011-06-02T15:17:02Z</time>
      </trkpt>
      <trkpt lat="46.37055" lon="-0.35551">
        <ele>45.4239</ele>
        <time>2011-06-02T15:17:03Z</time>
      </trkpt>
      <trkpt lat="46.37054" lon="-0.35553">
        <ele>45.4424</ele>
        <time>2011-06-02T15:17:04Z</time>
      </trkpt>
      <trkpt lat="46.37053" lon="-0.35553">
        <ele>45.4609</ele>
        <time>2011-06-02T15:17:05Z</time>
      </trkpt>
      <trkpt lat="46.37052" lon="-0.35554">
        <ele>45.4765</ele>
        <time>2011-06-02T15:17:06Z</time>
      </trkpt>
      <trkpt lat="46.37051" lon="-0.35554">
        <ele>45.4944</ele>
        <time>2011-06-02T15:17:07Z</time>
      </trkpt>
      <trkpt lat="46.3705" lon="-0.35555">
        <ele>45.514</ele>
        <time>2011-06-02T15:17:08Z</time>
      </trkpt>
      <trkpt lat="46.3705" lon="-0.35555">
        <ele>45.5329</ele>
        <time>2011-06-02T15:17:09Z</time>
      </trkpt>
      <trkpt lat="46.37048" lon="-0.35556">
        <ele>45.5524</ele>
        <time>2011-06-02T15:17:10Z</time>
      </trkpt>
      <trkpt lat="46.37048" lon="-0.35555">
        <ele>45.5758</ele>
        <time>2011-06-02T15:17:11Z</time>
      </trkpt>
      <trkpt lat="46.37048" lon="-0.35554">
        <ele>45.6089</ele>
        <time>2011-06-02T15:17:13Z</time>
      </trkpt>
      <trkpt lat="46.37048" lon="-0.35553">
        <ele>45.6345</ele>
        <time>2011-06-02T15:17:14Z</time>
      </trkpt>
      <trkpt lat="46.37047" lon="-0.35553">
        <ele>45</ele>
        <time>2011-06-02T15:17:15Z</time>
      </trkpt>
      <trkpt lat="46.37047" lon="-0.35554">
        <ele>45.6884</ele>
        <time>2011-06-02T15:17:16Z</time>
      </trkpt>
      <trkpt lat="46.37046" lon="-0.35554">
        <ele>45.7211</ele>
        <time>2011-06-02T15:17:17Z</time>
      </trkpt>
      <trkpt lat="46.37045" lon="-0.35554">
        <ele>45.7609</ele>
        <time>2011-06-02T15:17:18Z</time>
      </trkpt>
      <trkpt lat="46.37044" lon="-0.35555">
        <ele>45.811</ele>
        <time>2011-06-02T15:17:19Z</time>
      </trkpt>
      <trkpt lat="46.37043" lon="-0.35556">
        <ele>45.8688</ele>
        <time>2011-06-02T15:17:20Z</time>
      </trkpt>
      <trkpt lat="46.37042" lon="-0.35556">
        <ele>45.929</ele>
        <time>2011-06-02T15:17:21Z</time>
      </trkpt>
      <trkpt lat="46.37041" lon="-0.35557">
        <ele>45.9854</ele>
        <time>2011-06-02T15:17:22Z</time>
      </trkpt>
      <trkpt lat="46.37041" lon="-0.35558">
        <ele>46.0406</ele>
        <time>2011-06-02T15:17:23Z</time>
      </trkpt>
      <trkpt lat="46.3704" lon="-0.35558">
        <ele>46.0874</ele>
        <time>2011-06-02T15:17:24Z</time>
      </trkpt>
      <trkpt lat="46.37039" lon="-0.35559">
        <ele>46.1292</ele>
        <time>2011-06-02T15:17:25Z</time>
      </trkpt>
      <trkpt lat="46.37038" lon="-0.3556">
        <ele>46.1685</ele>
        <time>2011-06-02T15:17:26Z</time>
      </trkpt>
      <trkpt lat="46.37038" lon="-0.3556">
        <ele>46.2063</ele>
        <time>2011-06-02T15:17:27Z</time>
      </trkpt>
      <trkpt lat="46.37037" lon="-0.35561">
        <ele>46.2426</ele>
        <time>2011-06-02T15:17:28Z</time>
      </trkpt>
      <trkpt lat="46.37036" lon="-0.35562">
        <ele>46.2763</ele>
        <time>2011-06-02T15:17:29Z</time>
      </trkpt>
      <trkpt lat="46.37035" lon="-0.35563">
        <ele>46.308</ele>
        <time>2011-06-02T15:17:30Z</time>
      </trkpt>
      <trkpt lat="46.37034" lon="-0.35563">
        <ele>46.3372</ele>
        <time>2011-06-02T15:17:31Z</time>
      </trkpt>
      <trkpt lat="46.37033" lon="-0.35564">
        <ele>46.3644</ele>
        <time>2011-06-02T15:17:32Z</time>
      </trkpt>
      <trkpt lat="46.37032" lon="-0.35565">
        <ele>46.3912</ele>
        <time>2011-06-02T15:17:33Z</time>
      </trkpt>
      <trkpt lat="46.37032" lon="-0.35565">
        <ele>46.4179</ele>
        <time>2011-06-02T15:17:34Z</time>
      </trkpt>
      <trkpt lat="46.37031" lon="-0.35567">
        <ele>46.4414</ele>
        <time>2011-06-02T15:17:35Z</time>
      </trkpt>
      <trkpt lat="46.3703" lon="-0.35569">
        <ele>46.4653</ele>
        <time>2011-06-02T15:17:36Z</time>
      </trkpt>
      <trkpt lat="46.37029" lon="-0.3557">
        <ele>46.4982</ele>
        <time>2011-06-02T15:17:37Z</time>
      </trkpt>
      <trkpt lat="46.37029" lon="-0.35573">
        <ele>46.5469</ele>
        <time>2011-06-02T15:17:38Z</time>
      </trkpt>
      <trkpt lat="46.37028" lon="-0.35577">
        <ele>46.6067</ele>
        <time>2011-06-02T15:17:39Z</time>
      </trkpt>
      <trkpt lat="46.37027" lon="-0.3558">
        <ele>46.6719</ele>
        <time>2011-06-02T15:17:40Z</time>
      </trkpt>
      <trkpt lat="46.37026" lon="-0.35583">
        <ele>46.7412</ele>
        <time>2011-06-02T15:17:41Z</time>
      </trkpt>
      <trkpt lat="46.37026" lon="-0.35585">
        <ele>46.8098</ele>
        <time>2011-06-02T15:17:42Z</time>
      </trkpt>
      <trkpt lat="46.37025" lon="-0.35587">
        <ele>46.878</ele>
        <time>2011-06-02T15:17:43Z</time>
      </trkpt>
      <trkpt lat="46.37024" lon="-0.35589">
        <ele>46.9413</ele>
        <time>2011-06-02T15:17:44Z</time>
      </trkpt>
      <trkpt lat="46.37024" lon="-0.35591">
        <ele>47.0016</ele>
        <time>2011-06-02T15:17:45Z</time>
      </trkpt>
    </trkseg>
  </trk>
</gpx>